<?xml version="1.0" encoding="UTF-8" standalone="no" ?>
<gpx xmlns="http://www.topografix.com/GPX/1/1" xmlns:xsi="http://www.w3.org/2001/XMLSchema-instance" xsi:schemaLocation="http://www.topografix.com/GPX/1/1 http://www.topografix.com/GPX/1/1/gpx.xsd" version="1.1" creator="VisuGPX - https://www.visugpx.com">
  <metadata>
    <name>2018-05-18 Bike ride-Chatillon-Limas 39k</name>
    <desc><![CDATA[2018-05-18 Bike ride-Chatillon-Limas 39k]]></desc>
  </metadata>
  <wpt lat="45.92461" lon="4.73712">
    <ele>174</ele>
    <name><![CDATA[2018-05-18 10:50 (Start)]]></name>
  </wpt>
  <wpt lat="45.92463" lon="4.73706">
    <ele>174</ele>
    <name><![CDATA[2018-05-18 10:50 (End)]]></name>
  </wpt>
  <trk>
    <name><![CDATA[2018-05-18 10:50]]></name>
    <trkseg>
      <trkpt lat="45.92461" lon="4.73712">
        <ele>174</ele>
        <time>2018-05-18T08:50:12.611Z</time>
      </trkpt>
      <trkpt lat="45.92461" lon="4.73723">
        <ele>174</ele>
        <time>2018-05-18T08:50:20.362Z</time>
      </trkpt>
      <trkpt lat="45.92463" lon="4.73728">
        <ele>174</ele>
        <time>2018-05-18T08:50:21.362Z</time>
      </trkpt>
      <trkpt lat="45.92465" lon="4.7373">
        <ele>174</ele>
        <time>2018-05-18T08:50:24.362Z</time>
      </trkpt>
      <trkpt lat="45.92463" lon="4.7373">
        <ele>174</ele>
        <time>2018-05-18T08:50:25.362Z</time>
      </trkpt>
      <trkpt lat="45.92459" lon="4.73726">
        <ele>174</ele>
        <time>2018-05-18T08:50:26Z</time>
      </trkpt>
      <trkpt lat="45.92455" lon="4.73721">
        <ele>174</ele>
        <time>2018-05-18T08:50:27Z</time>
      </trkpt>
      <trkpt lat="45.92462" lon="4.73715">
        <ele>174</ele>
        <time>2018-05-18T08:50:39Z</time>
      </trkpt>
      <trkpt lat="45.92463" lon="4.73714">
        <ele>174</ele>
        <time>2018-05-18T08:50:40Z</time>
      </trkpt>
      <trkpt lat="45.92466" lon="4.73705">
        <ele>174</ele>
        <time>2018-05-18T08:50:44Z</time>
      </trkpt>
      <trkpt lat="45.92466" lon="4.73702">
        <ele>174</ele>
        <time>2018-05-18T08:50:45Z</time>
      </trkpt>
      <trkpt lat="45.92467" lon="4.7369">
        <ele>174</ele>
        <time>2018-05-18T08:50:48Z</time>
      </trkpt>
      <trkpt lat="45.92468" lon="4.73685">
        <ele>174</ele>
        <time>2018-05-18T08:50:49Z</time>
      </trkpt>
      <trkpt lat="45.92468" lon="4.73676">
        <ele>174</ele>
        <time>2018-05-18T08:50:51Z</time>
      </trkpt>
      <trkpt lat="45.92469" lon="4.73671">
        <ele>174</ele>
        <time>2018-05-18T08:50:52Z</time>
      </trkpt>
      <trkpt lat="45.9247" lon="4.73658">
        <ele>174</ele>
        <time>2018-05-18T08:50:53Z</time>
      </trkpt>
      <trkpt lat="45.92472" lon="4.73647">
        <ele>174</ele>
        <time>2018-05-18T08:50:55Z</time>
      </trkpt>
      <trkpt lat="45.92472" lon="4.73641">
        <ele>174</ele>
        <time>2018-05-18T08:50:56Z</time>
      </trkpt>
      <trkpt lat="45.92471" lon="4.73634">
        <ele>174</ele>
        <time>2018-05-18T08:50:57Z</time>
      </trkpt>
      <trkpt lat="45.92471" lon="4.73627">
        <ele>174</ele>
        <time>2018-05-18T08:50:58Z</time>
      </trkpt>
      <trkpt lat="45.9247" lon="4.7362">
        <ele>174</ele>
        <time>2018-05-18T08:50:59Z</time>
      </trkpt>
      <trkpt lat="45.92469" lon="4.73614">
        <ele>174</ele>
        <time>2018-05-18T08:51:00Z</time>
      </trkpt>
      <trkpt lat="45.92468" lon="4.73607">
        <ele>174</ele>
        <time>2018-05-18T08:51:01Z</time>
      </trkpt>
      <trkpt lat="45.92468" lon="4.736">
        <ele>174</ele>
        <time>2018-05-18T08:51:02Z</time>
      </trkpt>
      <trkpt lat="45.92467" lon="4.73594">
        <ele>174</ele>
        <time>2018-05-18T08:51:03Z</time>
      </trkpt>
      <trkpt lat="45.92467" lon="4.73586">
        <ele>174</ele>
        <time>2018-05-18T08:51:04Z</time>
      </trkpt>
      <trkpt lat="45.92467" lon="4.73578">
        <ele>173</ele>
        <time>2018-05-18T08:51:05Z</time>
      </trkpt>
      <trkpt lat="45.92467" lon="4.73572">
        <ele>173</ele>
        <time>2018-05-18T08:51:06Z</time>
      </trkpt>
      <trkpt lat="45.92467" lon="4.73566">
        <ele>173</ele>
        <time>2018-05-18T08:51:07Z</time>
      </trkpt>
      <trkpt lat="45.92467" lon="4.73559">
        <ele>173</ele>
        <time>2018-05-18T08:51:08Z</time>
      </trkpt>
      <trkpt lat="45.92464" lon="4.73552">
        <ele>173</ele>
        <time>2018-05-18T08:51:11Z</time>
      </trkpt>
      <trkpt lat="45.92458" lon="4.73547">
        <ele>174</ele>
        <time>2018-05-18T08:51:12Z</time>
      </trkpt>
      <trkpt lat="45.9245" lon="4.73549">
        <ele>174</ele>
        <time>2018-05-18T08:51:15.052Z</time>
      </trkpt>
      <trkpt lat="45.92447" lon="4.73551">
        <ele>174</ele>
        <time>2018-05-18T08:51:15Z</time>
      </trkpt>
      <trkpt lat="45.92443" lon="4.73554">
        <ele>174</ele>
        <time>2018-05-18T08:51:16Z</time>
      </trkpt>
      <trkpt lat="45.92438" lon="4.73556">
        <ele>174</ele>
        <time>2018-05-18T08:51:17Z</time>
      </trkpt>
      <trkpt lat="45.92434" lon="4.73559">
        <ele>174</ele>
        <time>2018-05-18T08:51:18Z</time>
      </trkpt>
      <trkpt lat="45.9243" lon="4.73561">
        <ele>174</ele>
        <time>2018-05-18T08:51:19Z</time>
      </trkpt>
      <trkpt lat="45.92425" lon="4.73563">
        <ele>174</ele>
        <time>2018-05-18T08:51:20Z</time>
      </trkpt>
      <trkpt lat="45.9242" lon="4.73566">
        <ele>174</ele>
        <time>2018-05-18T08:51:21Z</time>
      </trkpt>
      <trkpt lat="45.92416" lon="4.73567">
        <ele>173</ele>
        <time>2018-05-18T08:51:22Z</time>
      </trkpt>
      <trkpt lat="45.92411" lon="4.7357">
        <ele>173</ele>
        <time>2018-05-18T08:51:23Z</time>
      </trkpt>
      <trkpt lat="45.92406" lon="4.73572">
        <ele>173</ele>
        <time>2018-05-18T08:51:24Z</time>
      </trkpt>
      <trkpt lat="45.92402" lon="4.73575">
        <ele>173</ele>
        <time>2018-05-18T08:51:25Z</time>
      </trkpt>
      <trkpt lat="45.92397" lon="4.73578">
        <ele>173</ele>
        <time>2018-05-18T08:51:26Z</time>
      </trkpt>
      <trkpt lat="45.92392" lon="4.7358">
        <ele>173</ele>
        <time>2018-05-18T08:51:27Z</time>
      </trkpt>
      <trkpt lat="45.92387" lon="4.73583">
        <ele>173</ele>
        <time>2018-05-18T08:51:28Z</time>
      </trkpt>
      <trkpt lat="45.92382" lon="4.73586">
        <ele>173</ele>
        <time>2018-05-18T08:51:29Z</time>
      </trkpt>
      <trkpt lat="45.92377" lon="4.73589">
        <ele>173</ele>
        <time>2018-05-18T08:51:30Z</time>
      </trkpt>
      <trkpt lat="45.92372" lon="4.73592">
        <ele>173</ele>
        <time>2018-05-18T08:51:31Z</time>
      </trkpt>
      <trkpt lat="45.92367" lon="4.73594">
        <ele>173</ele>
        <time>2018-05-18T08:51:32Z</time>
      </trkpt>
      <trkpt lat="45.92362" lon="4.73596">
        <ele>173</ele>
        <time>2018-05-18T08:51:33Z</time>
      </trkpt>
      <trkpt lat="45.92357" lon="4.73599">
        <ele>173</ele>
        <time>2018-05-18T08:51:34Z</time>
      </trkpt>
      <trkpt lat="45.92351" lon="4.73602">
        <ele>173</ele>
        <time>2018-05-18T08:51:35Z</time>
      </trkpt>
      <trkpt lat="45.92346" lon="4.73605">
        <ele>173</ele>
        <time>2018-05-18T08:51:36Z</time>
      </trkpt>
      <trkpt lat="45.92341" lon="4.73608">
        <ele>173</ele>
        <time>2018-05-18T08:51:37Z</time>
      </trkpt>
      <trkpt lat="45.92336" lon="4.73611">
        <ele>173</ele>
        <time>2018-05-18T08:51:38Z</time>
      </trkpt>
      <trkpt lat="45.92331" lon="4.73614">
        <ele>172</ele>
        <time>2018-05-18T08:51:39Z</time>
      </trkpt>
      <trkpt lat="45.92326" lon="4.73617">
        <ele>172</ele>
        <time>2018-05-18T08:51:40Z</time>
      </trkpt>
      <trkpt lat="45.92321" lon="4.7362">
        <ele>172</ele>
        <time>2018-05-18T08:51:41Z</time>
      </trkpt>
      <trkpt lat="45.92316" lon="4.73624">
        <ele>172</ele>
        <time>2018-05-18T08:51:42Z</time>
      </trkpt>
      <trkpt lat="45.92311" lon="4.73626">
        <ele>172</ele>
        <time>2018-05-18T08:51:43Z</time>
      </trkpt>
      <trkpt lat="45.92305" lon="4.73629">
        <ele>172</ele>
        <time>2018-05-18T08:51:44Z</time>
      </trkpt>
      <trkpt lat="45.923" lon="4.73632">
        <ele>172</ele>
        <time>2018-05-18T08:51:45Z</time>
      </trkpt>
      <trkpt lat="45.92295" lon="4.73635">
        <ele>172</ele>
        <time>2018-05-18T08:51:46Z</time>
      </trkpt>
      <trkpt lat="45.9229" lon="4.73638">
        <ele>172</ele>
        <time>2018-05-18T08:51:47Z</time>
      </trkpt>
      <trkpt lat="45.92284" lon="4.73641">
        <ele>172</ele>
        <time>2018-05-18T08:51:48Z</time>
      </trkpt>
      <trkpt lat="45.92278" lon="4.73644">
        <ele>172</ele>
        <time>2018-05-18T08:51:49Z</time>
      </trkpt>
      <trkpt lat="45.92273" lon="4.73648">
        <ele>172</ele>
        <time>2018-05-18T08:51:50Z</time>
      </trkpt>
      <trkpt lat="45.92267" lon="4.73652">
        <ele>171</ele>
        <time>2018-05-18T08:51:51Z</time>
      </trkpt>
      <trkpt lat="45.92261" lon="4.73654">
        <ele>171</ele>
        <time>2018-05-18T08:51:52Z</time>
      </trkpt>
      <trkpt lat="45.92255" lon="4.73657">
        <ele>171</ele>
        <time>2018-05-18T08:51:53Z</time>
      </trkpt>
      <trkpt lat="45.9225" lon="4.73661">
        <ele>171</ele>
        <time>2018-05-18T08:51:54Z</time>
      </trkpt>
      <trkpt lat="45.92244" lon="4.73664">
        <ele>171</ele>
        <time>2018-05-18T08:51:55Z</time>
      </trkpt>
      <trkpt lat="45.92238" lon="4.73668">
        <ele>171</ele>
        <time>2018-05-18T08:51:56Z</time>
      </trkpt>
      <trkpt lat="45.92232" lon="4.73671">
        <ele>171</ele>
        <time>2018-05-18T08:51:57Z</time>
      </trkpt>
      <trkpt lat="45.92227" lon="4.73674">
        <ele>171</ele>
        <time>2018-05-18T08:51:58Z</time>
      </trkpt>
      <trkpt lat="45.9222" lon="4.73677">
        <ele>171</ele>
        <time>2018-05-18T08:51:59Z</time>
      </trkpt>
      <trkpt lat="45.92214" lon="4.7368">
        <ele>171</ele>
        <time>2018-05-18T08:52:00Z</time>
      </trkpt>
      <trkpt lat="45.92208" lon="4.73683">
        <ele>171</ele>
        <time>2018-05-18T08:52:01Z</time>
      </trkpt>
      <trkpt lat="45.92202" lon="4.73686">
        <ele>171</ele>
        <time>2018-05-18T08:52:02Z</time>
      </trkpt>
      <trkpt lat="45.92196" lon="4.7369">
        <ele>171</ele>
        <time>2018-05-18T08:52:03Z</time>
      </trkpt>
      <trkpt lat="45.9219" lon="4.73694">
        <ele>171</ele>
        <time>2018-05-18T08:52:04Z</time>
      </trkpt>
      <trkpt lat="45.92184" lon="4.73697">
        <ele>171</ele>
        <time>2018-05-18T08:52:05Z</time>
      </trkpt>
      <trkpt lat="45.92178" lon="4.737">
        <ele>171</ele>
        <time>2018-05-18T08:52:06Z</time>
      </trkpt>
      <trkpt lat="45.92172" lon="4.73703">
        <ele>171</ele>
        <time>2018-05-18T08:52:07Z</time>
      </trkpt>
      <trkpt lat="45.92165" lon="4.73706">
        <ele>171</ele>
        <time>2018-05-18T08:52:08Z</time>
      </trkpt>
      <trkpt lat="45.92159" lon="4.73709">
        <ele>171</ele>
        <time>2018-05-18T08:52:09Z</time>
      </trkpt>
      <trkpt lat="45.92153" lon="4.73712">
        <ele>171</ele>
        <time>2018-05-18T08:52:10Z</time>
      </trkpt>
      <trkpt lat="45.92147" lon="4.73715">
        <ele>171</ele>
        <time>2018-05-18T08:52:11Z</time>
      </trkpt>
      <trkpt lat="45.9214" lon="4.73717">
        <ele>171</ele>
        <time>2018-05-18T08:52:12Z</time>
      </trkpt>
      <trkpt lat="45.92134" lon="4.73719">
        <ele>171</ele>
        <time>2018-05-18T08:52:13Z</time>
      </trkpt>
      <trkpt lat="45.92128" lon="4.73721">
        <ele>171</ele>
        <time>2018-05-18T08:52:14Z</time>
      </trkpt>
      <trkpt lat="45.92121" lon="4.73723">
        <ele>171</ele>
        <time>2018-05-18T08:52:15Z</time>
      </trkpt>
      <trkpt lat="45.92114" lon="4.73725">
        <ele>171</ele>
        <time>2018-05-18T08:52:16Z</time>
      </trkpt>
      <trkpt lat="45.92107" lon="4.73726">
        <ele>171</ele>
        <time>2018-05-18T08:52:17Z</time>
      </trkpt>
      <trkpt lat="45.921" lon="4.73728">
        <ele>171</ele>
        <time>2018-05-18T08:52:18Z</time>
      </trkpt>
      <trkpt lat="45.92093" lon="4.73729">
        <ele>171</ele>
        <time>2018-05-18T08:52:19Z</time>
      </trkpt>
      <trkpt lat="45.92086" lon="4.73731">
        <ele>171</ele>
        <time>2018-05-18T08:52:20Z</time>
      </trkpt>
      <trkpt lat="45.9208" lon="4.73731">
        <ele>171</ele>
        <time>2018-05-18T08:52:21Z</time>
      </trkpt>
      <trkpt lat="45.92073" lon="4.73732">
        <ele>171</ele>
        <time>2018-05-18T08:52:22Z</time>
      </trkpt>
      <trkpt lat="45.92067" lon="4.73732">
        <ele>171</ele>
        <time>2018-05-18T08:52:23Z</time>
      </trkpt>
      <trkpt lat="45.92061" lon="4.73733">
        <ele>171</ele>
        <time>2018-05-18T08:52:24Z</time>
      </trkpt>
      <trkpt lat="45.92055" lon="4.73733">
        <ele>171</ele>
        <time>2018-05-18T08:52:25Z</time>
      </trkpt>
      <trkpt lat="45.92048" lon="4.73732">
        <ele>171</ele>
        <time>2018-05-18T08:52:26Z</time>
      </trkpt>
      <trkpt lat="45.92041" lon="4.73732">
        <ele>171</ele>
        <time>2018-05-18T08:52:27Z</time>
      </trkpt>
      <trkpt lat="45.92035" lon="4.73731">
        <ele>171</ele>
        <time>2018-05-18T08:52:28Z</time>
      </trkpt>
      <trkpt lat="45.92029" lon="4.73731">
        <ele>171</ele>
        <time>2018-05-18T08:52:29Z</time>
      </trkpt>
      <trkpt lat="45.92022" lon="4.7373">
        <ele>171</ele>
        <time>2018-05-18T08:52:30Z</time>
      </trkpt>
      <trkpt lat="45.92015" lon="4.73731">
        <ele>171</ele>
        <time>2018-05-18T08:52:31Z</time>
      </trkpt>
      <trkpt lat="45.92009" lon="4.73731">
        <ele>171</ele>
        <time>2018-05-18T08:52:32Z</time>
      </trkpt>
      <trkpt lat="45.92003" lon="4.73731">
        <ele>171</ele>
        <time>2018-05-18T08:52:33Z</time>
      </trkpt>
      <trkpt lat="45.91997" lon="4.73732">
        <ele>171</ele>
        <time>2018-05-18T08:52:34Z</time>
      </trkpt>
      <trkpt lat="45.9199" lon="4.73732">
        <ele>171</ele>
        <time>2018-05-18T08:52:35Z</time>
      </trkpt>
      <trkpt lat="45.91984" lon="4.73732">
        <ele>171</ele>
        <time>2018-05-18T08:52:36Z</time>
      </trkpt>
      <trkpt lat="45.91977" lon="4.73732">
        <ele>171</ele>
        <time>2018-05-18T08:52:37Z</time>
      </trkpt>
      <trkpt lat="45.91971" lon="4.73733">
        <ele>171</ele>
        <time>2018-05-18T08:52:38Z</time>
      </trkpt>
      <trkpt lat="45.91965" lon="4.73733">
        <ele>171</ele>
        <time>2018-05-18T08:52:39Z</time>
      </trkpt>
      <trkpt lat="45.91958" lon="4.73733">
        <ele>170</ele>
        <time>2018-05-18T08:52:40Z</time>
      </trkpt>
      <trkpt lat="45.91952" lon="4.73734">
        <ele>170</ele>
        <time>2018-05-18T08:52:41Z</time>
      </trkpt>
      <trkpt lat="45.91945" lon="4.73734">
        <ele>170</ele>
        <time>2018-05-18T08:52:42Z</time>
      </trkpt>
      <trkpt lat="45.91939" lon="4.73734">
        <ele>170</ele>
        <time>2018-05-18T08:52:43Z</time>
      </trkpt>
      <trkpt lat="45.91932" lon="4.73734">
        <ele>170</ele>
        <time>2018-05-18T08:52:44Z</time>
      </trkpt>
      <trkpt lat="45.91925" lon="4.73734">
        <ele>170</ele>
        <time>2018-05-18T08:52:45Z</time>
      </trkpt>
      <trkpt lat="45.91919" lon="4.73734">
        <ele>170</ele>
        <time>2018-05-18T08:52:46Z</time>
      </trkpt>
      <trkpt lat="45.91912" lon="4.73734">
        <ele>171</ele>
        <time>2018-05-18T08:52:47Z</time>
      </trkpt>
      <trkpt lat="45.91906" lon="4.73734">
        <ele>171</ele>
        <time>2018-05-18T08:52:48Z</time>
      </trkpt>
      <trkpt lat="45.91899" lon="4.73735">
        <ele>171</ele>
        <time>2018-05-18T08:52:49Z</time>
      </trkpt>
      <trkpt lat="45.91893" lon="4.73735">
        <ele>171</ele>
        <time>2018-05-18T08:52:50Z</time>
      </trkpt>
      <trkpt lat="45.91886" lon="4.73734">
        <ele>171</ele>
        <time>2018-05-18T08:52:51Z</time>
      </trkpt>
      <trkpt lat="45.9188" lon="4.73735">
        <ele>171</ele>
        <time>2018-05-18T08:52:52Z</time>
      </trkpt>
      <trkpt lat="45.91875" lon="4.73735">
        <ele>171</ele>
        <time>2018-05-18T08:52:53Z</time>
      </trkpt>
      <trkpt lat="45.91868" lon="4.73735">
        <ele>171</ele>
        <time>2018-05-18T08:52:54Z</time>
      </trkpt>
      <trkpt lat="45.91862" lon="4.73735">
        <ele>171</ele>
        <time>2018-05-18T08:52:55Z</time>
      </trkpt>
      <trkpt lat="45.91855" lon="4.73735">
        <ele>171</ele>
        <time>2018-05-18T08:52:56Z</time>
      </trkpt>
      <trkpt lat="45.91849" lon="4.73734">
        <ele>172</ele>
        <time>2018-05-18T08:52:57Z</time>
      </trkpt>
      <trkpt lat="45.91842" lon="4.73735">
        <ele>172</ele>
        <time>2018-05-18T08:52:58Z</time>
      </trkpt>
      <trkpt lat="45.91835" lon="4.73735">
        <ele>172</ele>
        <time>2018-05-18T08:52:59Z</time>
      </trkpt>
      <trkpt lat="45.91829" lon="4.73734">
        <ele>172</ele>
        <time>2018-05-18T08:53:00Z</time>
      </trkpt>
      <trkpt lat="45.91822" lon="4.73734">
        <ele>172</ele>
        <time>2018-05-18T08:53:01Z</time>
      </trkpt>
      <trkpt lat="45.91815" lon="4.73735">
        <ele>172</ele>
        <time>2018-05-18T08:53:02Z</time>
      </trkpt>
      <trkpt lat="45.91809" lon="4.73735">
        <ele>172</ele>
        <time>2018-05-18T08:53:03Z</time>
      </trkpt>
      <trkpt lat="45.91803" lon="4.73735">
        <ele>172</ele>
        <time>2018-05-18T08:53:04Z</time>
      </trkpt>
      <trkpt lat="45.91797" lon="4.73735">
        <ele>172</ele>
        <time>2018-05-18T08:53:05Z</time>
      </trkpt>
      <trkpt lat="45.91791" lon="4.73735">
        <ele>173</ele>
        <time>2018-05-18T08:53:06Z</time>
      </trkpt>
      <trkpt lat="45.91785" lon="4.73736">
        <ele>173</ele>
        <time>2018-05-18T08:53:07Z</time>
      </trkpt>
      <trkpt lat="45.9178" lon="4.73734">
        <ele>173</ele>
        <time>2018-05-18T08:53:08Z</time>
      </trkpt>
      <trkpt lat="45.91775" lon="4.73734">
        <ele>173</ele>
        <time>2018-05-18T08:53:09Z</time>
      </trkpt>
      <trkpt lat="45.91769" lon="4.73734">
        <ele>173</ele>
        <time>2018-05-18T08:53:10Z</time>
      </trkpt>
      <trkpt lat="45.91762" lon="4.73735">
        <ele>173</ele>
        <time>2018-05-18T08:53:11Z</time>
      </trkpt>
      <trkpt lat="45.91756" lon="4.73734">
        <ele>173</ele>
        <time>2018-05-18T08:53:12Z</time>
      </trkpt>
      <trkpt lat="45.9175" lon="4.73735">
        <ele>173</ele>
        <time>2018-05-18T08:53:13Z</time>
      </trkpt>
      <trkpt lat="45.91745" lon="4.73736">
        <ele>173</ele>
        <time>2018-05-18T08:53:14Z</time>
      </trkpt>
      <trkpt lat="45.91739" lon="4.73735">
        <ele>173</ele>
        <time>2018-05-18T08:53:15Z</time>
      </trkpt>
      <trkpt lat="45.91732" lon="4.73736">
        <ele>173</ele>
        <time>2018-05-18T08:53:16Z</time>
      </trkpt>
      <trkpt lat="45.91726" lon="4.73737">
        <ele>173</ele>
        <time>2018-05-18T08:53:17Z</time>
      </trkpt>
      <trkpt lat="45.9172" lon="4.73736">
        <ele>173</ele>
        <time>2018-05-18T08:53:18Z</time>
      </trkpt>
      <trkpt lat="45.91714" lon="4.73736">
        <ele>173</ele>
        <time>2018-05-18T08:53:19Z</time>
      </trkpt>
      <trkpt lat="45.91708" lon="4.73736">
        <ele>172</ele>
        <time>2018-05-18T08:53:20Z</time>
      </trkpt>
      <trkpt lat="45.91702" lon="4.73736">
        <ele>172</ele>
        <time>2018-05-18T08:53:21Z</time>
      </trkpt>
      <trkpt lat="45.91696" lon="4.73737">
        <ele>172</ele>
        <time>2018-05-18T08:53:22Z</time>
      </trkpt>
      <trkpt lat="45.91689" lon="4.73738">
        <ele>172</ele>
        <time>2018-05-18T08:53:23Z</time>
      </trkpt>
      <trkpt lat="45.91683" lon="4.73739">
        <ele>172</ele>
        <time>2018-05-18T08:53:24Z</time>
      </trkpt>
      <trkpt lat="45.91676" lon="4.73739">
        <ele>172</ele>
        <time>2018-05-18T08:53:25Z</time>
      </trkpt>
      <trkpt lat="45.9167" lon="4.73739">
        <ele>172</ele>
        <time>2018-05-18T08:53:26Z</time>
      </trkpt>
      <trkpt lat="45.91663" lon="4.73739">
        <ele>172</ele>
        <time>2018-05-18T08:53:27Z</time>
      </trkpt>
      <trkpt lat="45.91657" lon="4.73739">
        <ele>172</ele>
        <time>2018-05-18T08:53:28Z</time>
      </trkpt>
      <trkpt lat="45.91651" lon="4.73739">
        <ele>172</ele>
        <time>2018-05-18T08:53:29Z</time>
      </trkpt>
      <trkpt lat="45.91645" lon="4.73738">
        <ele>172</ele>
        <time>2018-05-18T08:53:30Z</time>
      </trkpt>
      <trkpt lat="45.91639" lon="4.73738">
        <ele>172</ele>
        <time>2018-05-18T08:53:31Z</time>
      </trkpt>
      <trkpt lat="45.91633" lon="4.73737">
        <ele>172</ele>
        <time>2018-05-18T08:53:32Z</time>
      </trkpt>
      <trkpt lat="45.91626" lon="4.73737">
        <ele>172</ele>
        <time>2018-05-18T08:53:33Z</time>
      </trkpt>
      <trkpt lat="45.9162" lon="4.73738">
        <ele>173</ele>
        <time>2018-05-18T08:53:34Z</time>
      </trkpt>
      <trkpt lat="45.91614" lon="4.73738">
        <ele>173</ele>
        <time>2018-05-18T08:53:35Z</time>
      </trkpt>
      <trkpt lat="45.91609" lon="4.73738">
        <ele>173</ele>
        <time>2018-05-18T08:53:36Z</time>
      </trkpt>
      <trkpt lat="45.91603" lon="4.73737">
        <ele>173</ele>
        <time>2018-05-18T08:53:37Z</time>
      </trkpt>
      <trkpt lat="45.91596" lon="4.73737">
        <ele>173</ele>
        <time>2018-05-18T08:53:38Z</time>
      </trkpt>
      <trkpt lat="45.9159" lon="4.73736">
        <ele>173</ele>
        <time>2018-05-18T08:53:39Z</time>
      </trkpt>
      <trkpt lat="45.91584" lon="4.73736">
        <ele>173</ele>
        <time>2018-05-18T08:53:40Z</time>
      </trkpt>
      <trkpt lat="45.91578" lon="4.73735">
        <ele>173</ele>
        <time>2018-05-18T08:53:41Z</time>
      </trkpt>
      <trkpt lat="45.91571" lon="4.73736">
        <ele>173</ele>
        <time>2018-05-18T08:53:42Z</time>
      </trkpt>
      <trkpt lat="45.91564" lon="4.73736">
        <ele>173</ele>
        <time>2018-05-18T08:53:43Z</time>
      </trkpt>
      <trkpt lat="45.91558" lon="4.73735">
        <ele>174</ele>
        <time>2018-05-18T08:53:44Z</time>
      </trkpt>
      <trkpt lat="45.91551" lon="4.73735">
        <ele>174</ele>
        <time>2018-05-18T08:53:45Z</time>
      </trkpt>
      <trkpt lat="45.91544" lon="4.73735">
        <ele>174</ele>
        <time>2018-05-18T08:53:46Z</time>
      </trkpt>
      <trkpt lat="45.91538" lon="4.73736">
        <ele>174</ele>
        <time>2018-05-18T08:53:47Z</time>
      </trkpt>
      <trkpt lat="45.91531" lon="4.73736">
        <ele>174</ele>
        <time>2018-05-18T08:53:48Z</time>
      </trkpt>
      <trkpt lat="45.91525" lon="4.73736">
        <ele>174</ele>
        <time>2018-05-18T08:53:49Z</time>
      </trkpt>
      <trkpt lat="45.91519" lon="4.73735">
        <ele>174</ele>
        <time>2018-05-18T08:53:50Z</time>
      </trkpt>
      <trkpt lat="45.91513" lon="4.73735">
        <ele>174</ele>
        <time>2018-05-18T08:53:51Z</time>
      </trkpt>
      <trkpt lat="45.91507" lon="4.73736">
        <ele>174</ele>
        <time>2018-05-18T08:53:52Z</time>
      </trkpt>
      <trkpt lat="45.91501" lon="4.73736">
        <ele>174</ele>
        <time>2018-05-18T08:53:53Z</time>
      </trkpt>
      <trkpt lat="45.91495" lon="4.73735">
        <ele>174</ele>
        <time>2018-05-18T08:53:54Z</time>
      </trkpt>
      <trkpt lat="45.91489" lon="4.73735">
        <ele>174</ele>
        <time>2018-05-18T08:53:55Z</time>
      </trkpt>
      <trkpt lat="45.91483" lon="4.73734">
        <ele>174</ele>
        <time>2018-05-18T08:53:56Z</time>
      </trkpt>
      <trkpt lat="45.91478" lon="4.73733">
        <ele>174</ele>
        <time>2018-05-18T08:53:57Z</time>
      </trkpt>
      <trkpt lat="45.91472" lon="4.73733">
        <ele>174</ele>
        <time>2018-05-18T08:53:58Z</time>
      </trkpt>
      <trkpt lat="45.91465" lon="4.73734">
        <ele>174</ele>
        <time>2018-05-18T08:53:59Z</time>
      </trkpt>
      <trkpt lat="45.91459" lon="4.73733">
        <ele>174</ele>
        <time>2018-05-18T08:54:00Z</time>
      </trkpt>
      <trkpt lat="45.91454" lon="4.73733">
        <ele>173</ele>
        <time>2018-05-18T08:54:01Z</time>
      </trkpt>
      <trkpt lat="45.91447" lon="4.73733">
        <ele>173</ele>
        <time>2018-05-18T08:54:02Z</time>
      </trkpt>
      <trkpt lat="45.91441" lon="4.73734">
        <ele>173</ele>
        <time>2018-05-18T08:54:03Z</time>
      </trkpt>
      <trkpt lat="45.91434" lon="4.73735">
        <ele>173</ele>
        <time>2018-05-18T08:54:04Z</time>
      </trkpt>
      <trkpt lat="45.91428" lon="4.73735">
        <ele>173</ele>
        <time>2018-05-18T08:54:05Z</time>
      </trkpt>
      <trkpt lat="45.91422" lon="4.73735">
        <ele>173</ele>
        <time>2018-05-18T08:54:06Z</time>
      </trkpt>
      <trkpt lat="45.91416" lon="4.73736">
        <ele>173</ele>
        <time>2018-05-18T08:54:07Z</time>
      </trkpt>
      <trkpt lat="45.9141" lon="4.73735">
        <ele>173</ele>
        <time>2018-05-18T08:54:08Z</time>
      </trkpt>
      <trkpt lat="45.91404" lon="4.73737">
        <ele>173</ele>
        <time>2018-05-18T08:54:09Z</time>
      </trkpt>
      <trkpt lat="45.91397" lon="4.73736">
        <ele>173</ele>
        <time>2018-05-18T08:54:10Z</time>
      </trkpt>
      <trkpt lat="45.91391" lon="4.73737">
        <ele>173</ele>
        <time>2018-05-18T08:54:11Z</time>
      </trkpt>
      <trkpt lat="45.91385" lon="4.73736">
        <ele>173</ele>
        <time>2018-05-18T08:54:12Z</time>
      </trkpt>
      <trkpt lat="45.91379" lon="4.73736">
        <ele>173</ele>
        <time>2018-05-18T08:54:13Z</time>
      </trkpt>
      <trkpt lat="45.91373" lon="4.73737">
        <ele>173</ele>
        <time>2018-05-18T08:54:14Z</time>
      </trkpt>
      <trkpt lat="45.91367" lon="4.73737">
        <ele>173</ele>
        <time>2018-05-18T08:54:15Z</time>
      </trkpt>
      <trkpt lat="45.91362" lon="4.73739">
        <ele>173</ele>
        <time>2018-05-18T08:54:16Z</time>
      </trkpt>
      <trkpt lat="45.91358" lon="4.73738">
        <ele>173</ele>
        <time>2018-05-18T08:54:17Z</time>
      </trkpt>
      <trkpt lat="45.91352" lon="4.73737">
        <ele>173</ele>
        <time>2018-05-18T08:54:18Z</time>
      </trkpt>
      <trkpt lat="45.91347" lon="4.73736">
        <ele>173</ele>
        <time>2018-05-18T08:54:19Z</time>
      </trkpt>
      <trkpt lat="45.91341" lon="4.73737">
        <ele>173</ele>
        <time>2018-05-18T08:54:20Z</time>
      </trkpt>
      <trkpt lat="45.91334" lon="4.73737">
        <ele>173</ele>
        <time>2018-05-18T08:54:21Z</time>
      </trkpt>
      <trkpt lat="45.91328" lon="4.73737">
        <ele>173</ele>
        <time>2018-05-18T08:54:22Z</time>
      </trkpt>
      <trkpt lat="45.91321" lon="4.73737">
        <ele>174</ele>
        <time>2018-05-18T08:54:23Z</time>
      </trkpt>
      <trkpt lat="45.91315" lon="4.73737">
        <ele>174</ele>
        <time>2018-05-18T08:54:24Z</time>
      </trkpt>
      <trkpt lat="45.91309" lon="4.73737">
        <ele>174</ele>
        <time>2018-05-18T08:54:25Z</time>
      </trkpt>
      <trkpt lat="45.91303" lon="4.73737">
        <ele>174</ele>
        <time>2018-05-18T08:54:26Z</time>
      </trkpt>
      <trkpt lat="45.91297" lon="4.73738">
        <ele>174</ele>
        <time>2018-05-18T08:54:27Z</time>
      </trkpt>
      <trkpt lat="45.91291" lon="4.73738">
        <ele>174</ele>
        <time>2018-05-18T08:54:28Z</time>
      </trkpt>
      <trkpt lat="45.91285" lon="4.73738">
        <ele>174</ele>
        <time>2018-05-18T08:54:29Z</time>
      </trkpt>
      <trkpt lat="45.91279" lon="4.73739">
        <ele>174</ele>
        <time>2018-05-18T08:54:30Z</time>
      </trkpt>
      <trkpt lat="45.91273" lon="4.73739">
        <ele>174</ele>
        <time>2018-05-18T08:54:31Z</time>
      </trkpt>
      <trkpt lat="45.91266" lon="4.73739">
        <ele>174</ele>
        <time>2018-05-18T08:54:32Z</time>
      </trkpt>
      <trkpt lat="45.9126" lon="4.73739">
        <ele>175</ele>
        <time>2018-05-18T08:54:33Z</time>
      </trkpt>
      <trkpt lat="45.91254" lon="4.7374">
        <ele>175</ele>
        <time>2018-05-18T08:54:34Z</time>
      </trkpt>
      <trkpt lat="45.91248" lon="4.7374">
        <ele>175</ele>
        <time>2018-05-18T08:54:35Z</time>
      </trkpt>
      <trkpt lat="45.91241" lon="4.7374">
        <ele>175</ele>
        <time>2018-05-18T08:54:36Z</time>
      </trkpt>
      <trkpt lat="45.91235" lon="4.7374">
        <ele>175</ele>
        <time>2018-05-18T08:54:37Z</time>
      </trkpt>
      <trkpt lat="45.91229" lon="4.7374">
        <ele>175</ele>
        <time>2018-05-18T08:54:38Z</time>
      </trkpt>
      <trkpt lat="45.91222" lon="4.73741">
        <ele>175</ele>
        <time>2018-05-18T08:54:39Z</time>
      </trkpt>
      <trkpt lat="45.91216" lon="4.7374">
        <ele>175</ele>
        <time>2018-05-18T08:54:40Z</time>
      </trkpt>
      <trkpt lat="45.91211" lon="4.7374">
        <ele>175</ele>
        <time>2018-05-18T08:54:41Z</time>
      </trkpt>
      <trkpt lat="45.91205" lon="4.7374">
        <ele>175</ele>
        <time>2018-05-18T08:54:42Z</time>
      </trkpt>
      <trkpt lat="45.91199" lon="4.73743">
        <ele>175</ele>
        <time>2018-05-18T08:54:43Z</time>
      </trkpt>
      <trkpt lat="45.9119" lon="4.73741">
        <ele>175</ele>
        <time>2018-05-18T08:54:45Z</time>
      </trkpt>
      <trkpt lat="45.91185" lon="4.73739">
        <ele>175</ele>
        <time>2018-05-18T08:54:46Z</time>
      </trkpt>
      <trkpt lat="45.9118" lon="4.73737">
        <ele>175</ele>
        <time>2018-05-18T08:54:47Z</time>
      </trkpt>
      <trkpt lat="45.91174" lon="4.73735">
        <ele>175</ele>
        <time>2018-05-18T08:54:48Z</time>
      </trkpt>
      <trkpt lat="45.91168" lon="4.73733">
        <ele>175</ele>
        <time>2018-05-18T08:54:49Z</time>
      </trkpt>
      <trkpt lat="45.91162" lon="4.73732">
        <ele>175</ele>
        <time>2018-05-18T08:54:50Z</time>
      </trkpt>
      <trkpt lat="45.91157" lon="4.7373">
        <ele>175</ele>
        <time>2018-05-18T08:54:51Z</time>
      </trkpt>
      <trkpt lat="45.91153" lon="4.73726">
        <ele>175</ele>
        <time>2018-05-18T08:54:52Z</time>
      </trkpt>
      <trkpt lat="45.91149" lon="4.7372">
        <ele>174</ele>
        <time>2018-05-18T08:54:53Z</time>
      </trkpt>
      <trkpt lat="45.91146" lon="4.73714">
        <ele>174</ele>
        <time>2018-05-18T08:54:54Z</time>
      </trkpt>
      <trkpt lat="45.91143" lon="4.73707">
        <ele>174</ele>
        <time>2018-05-18T08:54:55Z</time>
      </trkpt>
      <trkpt lat="45.91141" lon="4.73699">
        <ele>174</ele>
        <time>2018-05-18T08:54:56Z</time>
      </trkpt>
      <trkpt lat="45.91139" lon="4.73693">
        <ele>174</ele>
        <time>2018-05-18T08:54:57Z</time>
      </trkpt>
      <trkpt lat="45.91136" lon="4.73686">
        <ele>174</ele>
        <time>2018-05-18T08:54:58Z</time>
      </trkpt>
      <trkpt lat="45.91134" lon="4.73678">
        <ele>174</ele>
        <time>2018-05-18T08:54:59Z</time>
      </trkpt>
      <trkpt lat="45.91131" lon="4.73672">
        <ele>174</ele>
        <time>2018-05-18T08:55:00Z</time>
      </trkpt>
      <trkpt lat="45.91127" lon="4.73664">
        <ele>174</ele>
        <time>2018-05-18T08:55:01Z</time>
      </trkpt>
      <trkpt lat="45.91123" lon="4.73657">
        <ele>174</ele>
        <time>2018-05-18T08:55:02Z</time>
      </trkpt>
      <trkpt lat="45.91119" lon="4.73649">
        <ele>174</ele>
        <time>2018-05-18T08:55:03Z</time>
      </trkpt>
      <trkpt lat="45.91116" lon="4.73642">
        <ele>174</ele>
        <time>2018-05-18T08:55:04Z</time>
      </trkpt>
      <trkpt lat="45.91113" lon="4.73635">
        <ele>174</ele>
        <time>2018-05-18T08:55:05Z</time>
      </trkpt>
      <trkpt lat="45.91109" lon="4.73629">
        <ele>174</ele>
        <time>2018-05-18T08:55:06Z</time>
      </trkpt>
      <trkpt lat="45.91106" lon="4.73622">
        <ele>174</ele>
        <time>2018-05-18T08:55:07Z</time>
      </trkpt>
      <trkpt lat="45.91103" lon="4.73615">
        <ele>174</ele>
        <time>2018-05-18T08:55:08Z</time>
      </trkpt>
      <trkpt lat="45.91099" lon="4.73606">
        <ele>174</ele>
        <time>2018-05-18T08:55:10Z</time>
      </trkpt>
      <trkpt lat="45.91096" lon="4.73599">
        <ele>174</ele>
        <time>2018-05-18T08:55:11Z</time>
      </trkpt>
      <trkpt lat="45.91093" lon="4.7359">
        <ele>174</ele>
        <time>2018-05-18T08:55:12Z</time>
      </trkpt>
      <trkpt lat="45.91089" lon="4.7358">
        <ele>174</ele>
        <time>2018-05-18T08:55:13Z</time>
      </trkpt>
      <trkpt lat="45.91085" lon="4.73573">
        <ele>174</ele>
        <time>2018-05-18T08:55:14Z</time>
      </trkpt>
      <trkpt lat="45.91082" lon="4.73566">
        <ele>174</ele>
        <time>2018-05-18T08:55:15Z</time>
      </trkpt>
      <trkpt lat="45.91078" lon="4.73559">
        <ele>174</ele>
        <time>2018-05-18T08:55:16Z</time>
      </trkpt>
      <trkpt lat="45.91076" lon="4.7355">
        <ele>174</ele>
        <time>2018-05-18T08:55:17Z</time>
      </trkpt>
      <trkpt lat="45.91073" lon="4.73543">
        <ele>174</ele>
        <time>2018-05-18T08:55:18Z</time>
      </trkpt>
      <trkpt lat="45.9107" lon="4.73535">
        <ele>175</ele>
        <time>2018-05-18T08:55:19Z</time>
      </trkpt>
      <trkpt lat="45.91067" lon="4.73528">
        <ele>175</ele>
        <time>2018-05-18T08:55:20Z</time>
      </trkpt>
      <trkpt lat="45.91064" lon="4.73521">
        <ele>175</ele>
        <time>2018-05-18T08:55:21Z</time>
      </trkpt>
      <trkpt lat="45.91059" lon="4.73514">
        <ele>175</ele>
        <time>2018-05-18T08:55:22Z</time>
      </trkpt>
      <trkpt lat="45.91056" lon="4.73506">
        <ele>175</ele>
        <time>2018-05-18T08:55:23Z</time>
      </trkpt>
      <trkpt lat="45.91053" lon="4.735">
        <ele>175</ele>
        <time>2018-05-18T08:55:24Z</time>
      </trkpt>
      <trkpt lat="45.91048" lon="4.73493">
        <ele>175</ele>
        <time>2018-05-18T08:55:25Z</time>
      </trkpt>
      <trkpt lat="45.91045" lon="4.73486">
        <ele>175</ele>
        <time>2018-05-18T08:55:26Z</time>
      </trkpt>
      <trkpt lat="45.91043" lon="4.73479">
        <ele>175</ele>
        <time>2018-05-18T08:55:27Z</time>
      </trkpt>
      <trkpt lat="45.91042" lon="4.73471">
        <ele>175</ele>
        <time>2018-05-18T08:55:28Z</time>
      </trkpt>
      <trkpt lat="45.91039" lon="4.73464">
        <ele>175</ele>
        <time>2018-05-18T08:55:29Z</time>
      </trkpt>
      <trkpt lat="45.91039" lon="4.73457">
        <ele>175</ele>
        <time>2018-05-18T08:55:30Z</time>
      </trkpt>
      <trkpt lat="45.91038" lon="4.7345">
        <ele>175</ele>
        <time>2018-05-18T08:55:31Z</time>
      </trkpt>
      <trkpt lat="45.91037" lon="4.73443">
        <ele>175</ele>
        <time>2018-05-18T08:55:32Z</time>
      </trkpt>
      <trkpt lat="45.91037" lon="4.73435">
        <ele>175</ele>
        <time>2018-05-18T08:55:33Z</time>
      </trkpt>
      <trkpt lat="45.91034" lon="4.73428">
        <ele>175</ele>
        <time>2018-05-18T08:55:34Z</time>
      </trkpt>
      <trkpt lat="45.91031" lon="4.73421">
        <ele>175</ele>
        <time>2018-05-18T08:55:35Z</time>
      </trkpt>
      <trkpt lat="45.91026" lon="4.73417">
        <ele>175</ele>
        <time>2018-05-18T08:55:36Z</time>
      </trkpt>
      <trkpt lat="45.91021" lon="4.73416">
        <ele>174</ele>
        <time>2018-05-18T08:55:37Z</time>
      </trkpt>
      <trkpt lat="45.91015" lon="4.73418">
        <ele>175</ele>
        <time>2018-05-18T08:55:38Z</time>
      </trkpt>
      <trkpt lat="45.9101" lon="4.73421">
        <ele>175</ele>
        <time>2018-05-18T08:55:39Z</time>
      </trkpt>
      <trkpt lat="45.91005" lon="4.73427">
        <ele>175</ele>
        <time>2018-05-18T08:55:40Z</time>
      </trkpt>
      <trkpt lat="45.91" lon="4.73432">
        <ele>175</ele>
        <time>2018-05-18T08:55:41Z</time>
      </trkpt>
      <trkpt lat="45.90996" lon="4.73436">
        <ele>175</ele>
        <time>2018-05-18T08:55:42Z</time>
      </trkpt>
      <trkpt lat="45.90991" lon="4.7344">
        <ele>175</ele>
        <time>2018-05-18T08:55:43Z</time>
      </trkpt>
      <trkpt lat="45.90985" lon="4.73444">
        <ele>175</ele>
        <time>2018-05-18T08:55:44Z</time>
      </trkpt>
      <trkpt lat="45.90979" lon="4.73446">
        <ele>175</ele>
        <time>2018-05-18T08:55:45Z</time>
      </trkpt>
      <trkpt lat="45.90973" lon="4.73449">
        <ele>175</ele>
        <time>2018-05-18T08:55:46Z</time>
      </trkpt>
      <trkpt lat="45.90968" lon="4.73451">
        <ele>175</ele>
        <time>2018-05-18T08:55:47Z</time>
      </trkpt>
      <trkpt lat="45.90962" lon="4.73454">
        <ele>175</ele>
        <time>2018-05-18T08:55:48Z</time>
      </trkpt>
      <trkpt lat="45.90956" lon="4.73457">
        <ele>175</ele>
        <time>2018-05-18T08:55:49Z</time>
      </trkpt>
      <trkpt lat="45.90952" lon="4.73464">
        <ele>175</ele>
        <time>2018-05-18T08:55:50Z</time>
      </trkpt>
      <trkpt lat="45.90946" lon="4.73467">
        <ele>175</ele>
        <time>2018-05-18T08:55:51Z</time>
      </trkpt>
      <trkpt lat="45.9094" lon="4.7347">
        <ele>175</ele>
        <time>2018-05-18T08:55:52Z</time>
      </trkpt>
      <trkpt lat="45.90934" lon="4.73472">
        <ele>175</ele>
        <time>2018-05-18T08:55:53Z</time>
      </trkpt>
      <trkpt lat="45.90928" lon="4.73474">
        <ele>175</ele>
        <time>2018-05-18T08:55:54Z</time>
      </trkpt>
      <trkpt lat="45.90922" lon="4.73478">
        <ele>175</ele>
        <time>2018-05-18T08:55:55Z</time>
      </trkpt>
      <trkpt lat="45.90915" lon="4.73481">
        <ele>175</ele>
        <time>2018-05-18T08:55:56Z</time>
      </trkpt>
      <trkpt lat="45.9091" lon="4.73484">
        <ele>175</ele>
        <time>2018-05-18T08:55:57Z</time>
      </trkpt>
      <trkpt lat="45.90904" lon="4.73486">
        <ele>175</ele>
        <time>2018-05-18T08:55:58Z</time>
      </trkpt>
      <trkpt lat="45.90898" lon="4.73487">
        <ele>175</ele>
        <time>2018-05-18T08:55:59Z</time>
      </trkpt>
      <trkpt lat="45.90891" lon="4.7349">
        <ele>175</ele>
        <time>2018-05-18T08:56:00Z</time>
      </trkpt>
      <trkpt lat="45.90885" lon="4.73492">
        <ele>175</ele>
        <time>2018-05-18T08:56:01Z</time>
      </trkpt>
      <trkpt lat="45.9088" lon="4.73494">
        <ele>175</ele>
        <time>2018-05-18T08:56:02Z</time>
      </trkpt>
      <trkpt lat="45.90874" lon="4.73497">
        <ele>175</ele>
        <time>2018-05-18T08:56:03Z</time>
      </trkpt>
      <trkpt lat="45.90868" lon="4.735">
        <ele>175</ele>
        <time>2018-05-18T08:56:04Z</time>
      </trkpt>
      <trkpt lat="45.90862" lon="4.73502">
        <ele>174</ele>
        <time>2018-05-18T08:56:05Z</time>
      </trkpt>
      <trkpt lat="45.90857" lon="4.73505">
        <ele>174</ele>
        <time>2018-05-18T08:56:06Z</time>
      </trkpt>
      <trkpt lat="45.9085" lon="4.73507">
        <ele>174</ele>
        <time>2018-05-18T08:56:07Z</time>
      </trkpt>
      <trkpt lat="45.90844" lon="4.73509">
        <ele>174</ele>
        <time>2018-05-18T08:56:08Z</time>
      </trkpt>
      <trkpt lat="45.90838" lon="4.73511">
        <ele>174</ele>
        <time>2018-05-18T08:56:09Z</time>
      </trkpt>
      <trkpt lat="45.90833" lon="4.73513">
        <ele>175</ele>
        <time>2018-05-18T08:56:10Z</time>
      </trkpt>
      <trkpt lat="45.90827" lon="4.73515">
        <ele>175</ele>
        <time>2018-05-18T08:56:11Z</time>
      </trkpt>
      <trkpt lat="45.90821" lon="4.73517">
        <ele>175</ele>
        <time>2018-05-18T08:56:12Z</time>
      </trkpt>
      <trkpt lat="45.90815" lon="4.73518">
        <ele>175</ele>
        <time>2018-05-18T08:56:13Z</time>
      </trkpt>
      <trkpt lat="45.90811" lon="4.73524">
        <ele>175</ele>
        <time>2018-05-18T08:56:14Z</time>
      </trkpt>
      <trkpt lat="45.90805" lon="4.73526">
        <ele>175</ele>
        <time>2018-05-18T08:56:15Z</time>
      </trkpt>
      <trkpt lat="45.908" lon="4.73528">
        <ele>175</ele>
        <time>2018-05-18T08:56:16Z</time>
      </trkpt>
      <trkpt lat="45.90795" lon="4.73529">
        <ele>176</ele>
        <time>2018-05-18T08:56:17Z</time>
      </trkpt>
      <trkpt lat="45.90789" lon="4.73532">
        <ele>176</ele>
        <time>2018-05-18T08:56:18Z</time>
      </trkpt>
      <trkpt lat="45.90784" lon="4.73534">
        <ele>176</ele>
        <time>2018-05-18T08:56:19Z</time>
      </trkpt>
      <trkpt lat="45.90779" lon="4.73536">
        <ele>176</ele>
        <time>2018-05-18T08:56:20Z</time>
      </trkpt>
      <trkpt lat="45.90774" lon="4.7354">
        <ele>176</ele>
        <time>2018-05-18T08:56:21Z</time>
      </trkpt>
      <trkpt lat="45.90768" lon="4.73542">
        <ele>176</ele>
        <time>2018-05-18T08:56:22Z</time>
      </trkpt>
      <trkpt lat="45.90763" lon="4.73544">
        <ele>176</ele>
        <time>2018-05-18T08:56:23Z</time>
      </trkpt>
      <trkpt lat="45.90757" lon="4.73544">
        <ele>176</ele>
        <time>2018-05-18T08:56:24Z</time>
      </trkpt>
      <trkpt lat="45.90753" lon="4.73546">
        <ele>176</ele>
        <time>2018-05-18T08:56:25Z</time>
      </trkpt>
      <trkpt lat="45.90748" lon="4.73548">
        <ele>178</ele>
        <time>2018-05-18T08:56:26Z</time>
      </trkpt>
      <trkpt lat="45.90742" lon="4.73548">
        <ele>178</ele>
        <time>2018-05-18T08:56:27Z</time>
      </trkpt>
      <trkpt lat="45.90737" lon="4.7355">
        <ele>178</ele>
        <time>2018-05-18T08:56:28Z</time>
      </trkpt>
      <trkpt lat="45.90732" lon="4.73551">
        <ele>178</ele>
        <time>2018-05-18T08:56:29Z</time>
      </trkpt>
      <trkpt lat="45.90728" lon="4.73553">
        <ele>178</ele>
        <time>2018-05-18T08:56:30Z</time>
      </trkpt>
      <trkpt lat="45.90723" lon="4.73558">
        <ele>178</ele>
        <time>2018-05-18T08:56:31Z</time>
      </trkpt>
      <trkpt lat="45.90719" lon="4.7356">
        <ele>178</ele>
        <time>2018-05-18T08:56:32Z</time>
      </trkpt>
      <trkpt lat="45.90715" lon="4.73562">
        <ele>178</ele>
        <time>2018-05-18T08:56:33Z</time>
      </trkpt>
      <trkpt lat="45.9071" lon="4.73564">
        <ele>178</ele>
        <time>2018-05-18T08:56:34Z</time>
      </trkpt>
      <trkpt lat="45.90705" lon="4.73565">
        <ele>178</ele>
        <time>2018-05-18T08:56:35Z</time>
      </trkpt>
      <trkpt lat="45.90701" lon="4.73567">
        <ele>178</ele>
        <time>2018-05-18T08:56:36Z</time>
      </trkpt>
      <trkpt lat="45.90696" lon="4.73569">
        <ele>178</ele>
        <time>2018-05-18T08:56:37Z</time>
      </trkpt>
      <trkpt lat="45.90691" lon="4.73571">
        <ele>178</ele>
        <time>2018-05-18T08:56:38Z</time>
      </trkpt>
      <trkpt lat="45.90687" lon="4.73574">
        <ele>179</ele>
        <time>2018-05-18T08:56:39Z</time>
      </trkpt>
      <trkpt lat="45.90679" lon="4.73577">
        <ele>179</ele>
        <time>2018-05-18T08:56:41Z</time>
      </trkpt>
      <trkpt lat="45.90674" lon="4.73579">
        <ele>179</ele>
        <time>2018-05-18T08:56:42Z</time>
      </trkpt>
      <trkpt lat="45.90669" lon="4.73581">
        <ele>180</ele>
        <time>2018-05-18T08:56:43Z</time>
      </trkpt>
      <trkpt lat="45.90664" lon="4.73582">
        <ele>180</ele>
        <time>2018-05-18T08:56:44Z</time>
      </trkpt>
      <trkpt lat="45.90659" lon="4.73584">
        <ele>180</ele>
        <time>2018-05-18T08:56:45Z</time>
      </trkpt>
      <trkpt lat="45.90655" lon="4.73586">
        <ele>180</ele>
        <time>2018-05-18T08:56:46Z</time>
      </trkpt>
      <trkpt lat="45.90646" lon="4.73589">
        <ele>181</ele>
        <time>2018-05-18T08:56:48Z</time>
      </trkpt>
      <trkpt lat="45.90642" lon="4.73591">
        <ele>181</ele>
        <time>2018-05-18T08:56:49Z</time>
      </trkpt>
      <trkpt lat="45.90637" lon="4.73592">
        <ele>181</ele>
        <time>2018-05-18T08:56:50Z</time>
      </trkpt>
      <trkpt lat="45.90633" lon="4.73593">
        <ele>181</ele>
        <time>2018-05-18T08:56:51Z</time>
      </trkpt>
      <trkpt lat="45.90628" lon="4.73596">
        <ele>181</ele>
        <time>2018-05-18T08:56:52Z</time>
      </trkpt>
      <trkpt lat="45.90624" lon="4.73598">
        <ele>181</ele>
        <time>2018-05-18T08:56:53Z</time>
      </trkpt>
      <trkpt lat="45.90619" lon="4.736">
        <ele>181</ele>
        <time>2018-05-18T08:56:54Z</time>
      </trkpt>
      <trkpt lat="45.90615" lon="4.73603">
        <ele>180</ele>
        <time>2018-05-18T08:56:55Z</time>
      </trkpt>
      <trkpt lat="45.9061" lon="4.73606">
        <ele>180</ele>
        <time>2018-05-18T08:56:56Z</time>
      </trkpt>
      <trkpt lat="45.90605" lon="4.73608">
        <ele>180</ele>
        <time>2018-05-18T08:56:57Z</time>
      </trkpt>
      <trkpt lat="45.906" lon="4.73609">
        <ele>180</ele>
        <time>2018-05-18T08:56:58Z</time>
      </trkpt>
      <trkpt lat="45.90595" lon="4.73611">
        <ele>180</ele>
        <time>2018-05-18T08:56:59Z</time>
      </trkpt>
      <trkpt lat="45.9059" lon="4.73613">
        <ele>180</ele>
        <time>2018-05-18T08:57:00Z</time>
      </trkpt>
      <trkpt lat="45.90585" lon="4.73615">
        <ele>180</ele>
        <time>2018-05-18T08:57:01Z</time>
      </trkpt>
      <trkpt lat="45.9058" lon="4.73618">
        <ele>179</ele>
        <time>2018-05-18T08:57:02Z</time>
      </trkpt>
      <trkpt lat="45.90574" lon="4.7362">
        <ele>179</ele>
        <time>2018-05-18T08:57:03Z</time>
      </trkpt>
      <trkpt lat="45.90569" lon="4.73622">
        <ele>179</ele>
        <time>2018-05-18T08:57:04Z</time>
      </trkpt>
      <trkpt lat="45.90563" lon="4.73624">
        <ele>179</ele>
        <time>2018-05-18T08:57:05Z</time>
      </trkpt>
      <trkpt lat="45.90558" lon="4.73626">
        <ele>179</ele>
        <time>2018-05-18T08:57:06Z</time>
      </trkpt>
      <trkpt lat="45.90554" lon="4.73628">
        <ele>178</ele>
        <time>2018-05-18T08:57:07Z</time>
      </trkpt>
      <trkpt lat="45.90549" lon="4.73631">
        <ele>178</ele>
        <time>2018-05-18T08:57:08Z</time>
      </trkpt>
      <trkpt lat="45.90544" lon="4.73633">
        <ele>178</ele>
        <time>2018-05-18T08:57:09Z</time>
      </trkpt>
      <trkpt lat="45.90538" lon="4.73635">
        <ele>178</ele>
        <time>2018-05-18T08:57:10Z</time>
      </trkpt>
      <trkpt lat="45.90533" lon="4.73637">
        <ele>178</ele>
        <time>2018-05-18T08:57:11Z</time>
      </trkpt>
      <trkpt lat="45.90528" lon="4.73638">
        <ele>178</ele>
        <time>2018-05-18T08:57:12Z</time>
      </trkpt>
      <trkpt lat="45.90523" lon="4.7364">
        <ele>178</ele>
        <time>2018-05-18T08:57:13Z</time>
      </trkpt>
      <trkpt lat="45.90518" lon="4.73642">
        <ele>178</ele>
        <time>2018-05-18T08:57:14Z</time>
      </trkpt>
      <trkpt lat="45.90513" lon="4.73644">
        <ele>178</ele>
        <time>2018-05-18T08:57:15Z</time>
      </trkpt>
      <trkpt lat="45.90507" lon="4.73647">
        <ele>178</ele>
        <time>2018-05-18T08:57:16Z</time>
      </trkpt>
      <trkpt lat="45.90501" lon="4.7365">
        <ele>178</ele>
        <time>2018-05-18T08:57:17Z</time>
      </trkpt>
      <trkpt lat="45.90496" lon="4.73654">
        <ele>177</ele>
        <time>2018-05-18T08:57:18Z</time>
      </trkpt>
      <trkpt lat="45.90491" lon="4.73656">
        <ele>177</ele>
        <time>2018-05-18T08:57:19Z</time>
      </trkpt>
      <trkpt lat="45.90486" lon="4.73658">
        <ele>177</ele>
        <time>2018-05-18T08:57:20Z</time>
      </trkpt>
      <trkpt lat="45.9048" lon="4.7366">
        <ele>177</ele>
        <time>2018-05-18T08:57:21Z</time>
      </trkpt>
      <trkpt lat="45.90474" lon="4.73662">
        <ele>177</ele>
        <time>2018-05-18T08:57:22Z</time>
      </trkpt>
      <trkpt lat="45.90468" lon="4.73664">
        <ele>177</ele>
        <time>2018-05-18T08:57:23Z</time>
      </trkpt>
      <trkpt lat="45.90464" lon="4.73666">
        <ele>177</ele>
        <time>2018-05-18T08:57:24Z</time>
      </trkpt>
      <trkpt lat="45.90458" lon="4.73669">
        <ele>176</ele>
        <time>2018-05-18T08:57:25Z</time>
      </trkpt>
      <trkpt lat="45.90453" lon="4.73671">
        <ele>176</ele>
        <time>2018-05-18T08:57:26Z</time>
      </trkpt>
      <trkpt lat="45.90448" lon="4.73674">
        <ele>176</ele>
        <time>2018-05-18T08:57:27Z</time>
      </trkpt>
      <trkpt lat="45.90442" lon="4.73677">
        <ele>176</ele>
        <time>2018-05-18T08:57:28Z</time>
      </trkpt>
      <trkpt lat="45.90436" lon="4.73679">
        <ele>176</ele>
        <time>2018-05-18T08:57:29Z</time>
      </trkpt>
      <trkpt lat="45.9043" lon="4.73682">
        <ele>176</ele>
        <time>2018-05-18T08:57:30Z</time>
      </trkpt>
      <trkpt lat="45.90425" lon="4.73685">
        <ele>176</ele>
        <time>2018-05-18T08:57:31Z</time>
      </trkpt>
      <trkpt lat="45.90418" lon="4.73688">
        <ele>176</ele>
        <time>2018-05-18T08:57:32Z</time>
      </trkpt>
      <trkpt lat="45.90411" lon="4.7369">
        <ele>177</ele>
        <time>2018-05-18T08:57:33Z</time>
      </trkpt>
      <trkpt lat="45.90405" lon="4.73693">
        <ele>177</ele>
        <time>2018-05-18T08:57:34Z</time>
      </trkpt>
      <trkpt lat="45.90399" lon="4.73696">
        <ele>177</ele>
        <time>2018-05-18T08:57:35Z</time>
      </trkpt>
      <trkpt lat="45.90392" lon="4.73698">
        <ele>177</ele>
        <time>2018-05-18T08:57:36Z</time>
      </trkpt>
      <trkpt lat="45.90385" lon="4.73701">
        <ele>177</ele>
        <time>2018-05-18T08:57:37Z</time>
      </trkpt>
      <trkpt lat="45.90378" lon="4.73704">
        <ele>177</ele>
        <time>2018-05-18T08:57:38Z</time>
      </trkpt>
      <trkpt lat="45.9037" lon="4.73707">
        <ele>177</ele>
        <time>2018-05-18T08:57:39Z</time>
      </trkpt>
      <trkpt lat="45.90363" lon="4.73709">
        <ele>177</ele>
        <time>2018-05-18T08:57:40Z</time>
      </trkpt>
      <trkpt lat="45.90356" lon="4.73712">
        <ele>177</ele>
        <time>2018-05-18T08:57:41Z</time>
      </trkpt>
      <trkpt lat="45.90348" lon="4.73716">
        <ele>177</ele>
        <time>2018-05-18T08:57:42Z</time>
      </trkpt>
      <trkpt lat="45.9034" lon="4.73717">
        <ele>177</ele>
        <time>2018-05-18T08:57:43Z</time>
      </trkpt>
      <trkpt lat="45.90333" lon="4.73721">
        <ele>177</ele>
        <time>2018-05-18T08:57:44Z</time>
      </trkpt>
      <trkpt lat="45.90325" lon="4.73724">
        <ele>177</ele>
        <time>2018-05-18T08:57:45Z</time>
      </trkpt>
      <trkpt lat="45.90316" lon="4.73728">
        <ele>177</ele>
        <time>2018-05-18T08:57:46Z</time>
      </trkpt>
      <trkpt lat="45.90308" lon="4.73731">
        <ele>177</ele>
        <time>2018-05-18T08:57:47Z</time>
      </trkpt>
      <trkpt lat="45.903" lon="4.73735">
        <ele>177</ele>
        <time>2018-05-18T08:57:48Z</time>
      </trkpt>
      <trkpt lat="45.90291" lon="4.73739">
        <ele>177</ele>
        <time>2018-05-18T08:57:49Z</time>
      </trkpt>
      <trkpt lat="45.90283" lon="4.73742">
        <ele>177</ele>
        <time>2018-05-18T08:57:50Z</time>
      </trkpt>
      <trkpt lat="45.90276" lon="4.73743">
        <ele>177</ele>
        <time>2018-05-18T08:57:51Z</time>
      </trkpt>
      <trkpt lat="45.90268" lon="4.73746">
        <ele>178</ele>
        <time>2018-05-18T08:57:52Z</time>
      </trkpt>
      <trkpt lat="45.9026" lon="4.7375">
        <ele>178</ele>
        <time>2018-05-18T08:57:53Z</time>
      </trkpt>
      <trkpt lat="45.90252" lon="4.73753">
        <ele>178</ele>
        <time>2018-05-18T08:57:54Z</time>
      </trkpt>
      <trkpt lat="45.90244" lon="4.73757">
        <ele>178</ele>
        <time>2018-05-18T08:57:55Z</time>
      </trkpt>
      <trkpt lat="45.90238" lon="4.73761">
        <ele>178</ele>
        <time>2018-05-18T08:57:56Z</time>
      </trkpt>
      <trkpt lat="45.9023" lon="4.73764">
        <ele>177</ele>
        <time>2018-05-18T08:57:57Z</time>
      </trkpt>
      <trkpt lat="45.90224" lon="4.73766">
        <ele>177</ele>
        <time>2018-05-18T08:57:58Z</time>
      </trkpt>
      <trkpt lat="45.90217" lon="4.73769">
        <ele>177</ele>
        <time>2018-05-18T08:57:59Z</time>
      </trkpt>
      <trkpt lat="45.9021" lon="4.73772">
        <ele>177</ele>
        <time>2018-05-18T08:58:00Z</time>
      </trkpt>
      <trkpt lat="45.90203" lon="4.73775">
        <ele>177</ele>
        <time>2018-05-18T08:58:01Z</time>
      </trkpt>
      <trkpt lat="45.90196" lon="4.73777">
        <ele>177</ele>
        <time>2018-05-18T08:58:02Z</time>
      </trkpt>
      <trkpt lat="45.90191" lon="4.7378">
        <ele>177</ele>
        <time>2018-05-18T08:58:03Z</time>
      </trkpt>
      <trkpt lat="45.90184" lon="4.73781">
        <ele>177</ele>
        <time>2018-05-18T08:58:04Z</time>
      </trkpt>
      <trkpt lat="45.90179" lon="4.73785">
        <ele>177</ele>
        <time>2018-05-18T08:58:05Z</time>
      </trkpt>
      <trkpt lat="45.90173" lon="4.73788">
        <ele>177</ele>
        <time>2018-05-18T08:58:06Z</time>
      </trkpt>
      <trkpt lat="45.90165" lon="4.7379">
        <ele>176</ele>
        <time>2018-05-18T08:58:07Z</time>
      </trkpt>
      <trkpt lat="45.90159" lon="4.73793">
        <ele>176</ele>
        <time>2018-05-18T08:58:08Z</time>
      </trkpt>
      <trkpt lat="45.90151" lon="4.73796">
        <ele>177</ele>
        <time>2018-05-18T08:58:09Z</time>
      </trkpt>
      <trkpt lat="45.90145" lon="4.73799">
        <ele>177</ele>
        <time>2018-05-18T08:58:10Z</time>
      </trkpt>
      <trkpt lat="45.90138" lon="4.73802">
        <ele>177</ele>
        <time>2018-05-18T08:58:11Z</time>
      </trkpt>
      <trkpt lat="45.90131" lon="4.73806">
        <ele>177</ele>
        <time>2018-05-18T08:58:12Z</time>
      </trkpt>
      <trkpt lat="45.90124" lon="4.73808">
        <ele>177</ele>
        <time>2018-05-18T08:58:13Z</time>
      </trkpt>
      <trkpt lat="45.90117" lon="4.73811">
        <ele>177</ele>
        <time>2018-05-18T08:58:14Z</time>
      </trkpt>
      <trkpt lat="45.90111" lon="4.73817">
        <ele>177</ele>
        <time>2018-05-18T08:58:15Z</time>
      </trkpt>
      <trkpt lat="45.90104" lon="4.7382">
        <ele>177</ele>
        <time>2018-05-18T08:58:16Z</time>
      </trkpt>
      <trkpt lat="45.90097" lon="4.73823">
        <ele>177</ele>
        <time>2018-05-18T08:58:17Z</time>
      </trkpt>
      <trkpt lat="45.9009" lon="4.73828">
        <ele>178</ele>
        <time>2018-05-18T08:58:18Z</time>
      </trkpt>
      <trkpt lat="45.90083" lon="4.73832">
        <ele>178</ele>
        <time>2018-05-18T08:58:19Z</time>
      </trkpt>
      <trkpt lat="45.90076" lon="4.73835">
        <ele>178</ele>
        <time>2018-05-18T08:58:20Z</time>
      </trkpt>
      <trkpt lat="45.90069" lon="4.73838">
        <ele>178</ele>
        <time>2018-05-18T08:58:21Z</time>
      </trkpt>
      <trkpt lat="45.90061" lon="4.7384">
        <ele>178</ele>
        <time>2018-05-18T08:58:22Z</time>
      </trkpt>
      <trkpt lat="45.90054" lon="4.73843">
        <ele>178</ele>
        <time>2018-05-18T08:58:23Z</time>
      </trkpt>
      <trkpt lat="45.90046" lon="4.73846">
        <ele>178</ele>
        <time>2018-05-18T08:58:24Z</time>
      </trkpt>
      <trkpt lat="45.90038" lon="4.73849">
        <ele>178</ele>
        <time>2018-05-18T08:58:25Z</time>
      </trkpt>
      <trkpt lat="45.90031" lon="4.73851">
        <ele>178</ele>
        <time>2018-05-18T08:58:26Z</time>
      </trkpt>
      <trkpt lat="45.90024" lon="4.73853">
        <ele>178</ele>
        <time>2018-05-18T08:58:27Z</time>
      </trkpt>
      <trkpt lat="45.90017" lon="4.73855">
        <ele>178</ele>
        <time>2018-05-18T08:58:28Z</time>
      </trkpt>
      <trkpt lat="45.90011" lon="4.73857">
        <ele>178</ele>
        <time>2018-05-18T08:58:29Z</time>
      </trkpt>
      <trkpt lat="45.90004" lon="4.73859">
        <ele>178</ele>
        <time>2018-05-18T08:58:30Z</time>
      </trkpt>
      <trkpt lat="45.89997" lon="4.73862">
        <ele>178</ele>
        <time>2018-05-18T08:58:31Z</time>
      </trkpt>
      <trkpt lat="45.89991" lon="4.73863">
        <ele>178</ele>
        <time>2018-05-18T08:58:32Z</time>
      </trkpt>
      <trkpt lat="45.89985" lon="4.73865">
        <ele>178</ele>
        <time>2018-05-18T08:58:33Z</time>
      </trkpt>
      <trkpt lat="45.8998" lon="4.73869">
        <ele>178</ele>
        <time>2018-05-18T08:58:34Z</time>
      </trkpt>
      <trkpt lat="45.89974" lon="4.73871">
        <ele>178</ele>
        <time>2018-05-18T08:58:35Z</time>
      </trkpt>
      <trkpt lat="45.89968" lon="4.73875">
        <ele>178</ele>
        <time>2018-05-18T08:58:36Z</time>
      </trkpt>
      <trkpt lat="45.89962" lon="4.73879">
        <ele>178</ele>
        <time>2018-05-18T08:58:37Z</time>
      </trkpt>
      <trkpt lat="45.89955" lon="4.73881">
        <ele>178</ele>
        <time>2018-05-18T08:58:38Z</time>
      </trkpt>
      <trkpt lat="45.89948" lon="4.73884">
        <ele>178</ele>
        <time>2018-05-18T08:58:39Z</time>
      </trkpt>
      <trkpt lat="45.89942" lon="4.73886">
        <ele>178</ele>
        <time>2018-05-18T08:58:40Z</time>
      </trkpt>
      <trkpt lat="45.89935" lon="4.73889">
        <ele>178</ele>
        <time>2018-05-18T08:58:41Z</time>
      </trkpt>
      <trkpt lat="45.89929" lon="4.73891">
        <ele>178</ele>
        <time>2018-05-18T08:58:42Z</time>
      </trkpt>
      <trkpt lat="45.89923" lon="4.73896">
        <ele>178</ele>
        <time>2018-05-18T08:58:43Z</time>
      </trkpt>
      <trkpt lat="45.89915" lon="4.73902">
        <ele>178</ele>
        <time>2018-05-18T08:58:44Z</time>
      </trkpt>
      <trkpt lat="45.8991" lon="4.73905">
        <ele>178</ele>
        <time>2018-05-18T08:58:45Z</time>
      </trkpt>
      <trkpt lat="45.89905" lon="4.73907">
        <ele>178</ele>
        <time>2018-05-18T08:58:46Z</time>
      </trkpt>
      <trkpt lat="45.89898" lon="4.7391">
        <ele>178</ele>
        <time>2018-05-18T08:58:47Z</time>
      </trkpt>
      <trkpt lat="45.89892" lon="4.73912">
        <ele>179</ele>
        <time>2018-05-18T08:58:48Z</time>
      </trkpt>
      <trkpt lat="45.89885" lon="4.73914">
        <ele>179</ele>
        <time>2018-05-18T08:58:49Z</time>
      </trkpt>
      <trkpt lat="45.89878" lon="4.73917">
        <ele>179</ele>
        <time>2018-05-18T08:58:50Z</time>
      </trkpt>
      <trkpt lat="45.89873" lon="4.7392">
        <ele>179</ele>
        <time>2018-05-18T08:58:51Z</time>
      </trkpt>
      <trkpt lat="45.89866" lon="4.73921">
        <ele>179</ele>
        <time>2018-05-18T08:58:52Z</time>
      </trkpt>
      <trkpt lat="45.89859" lon="4.73923">
        <ele>179</ele>
        <time>2018-05-18T08:58:53Z</time>
      </trkpt>
      <trkpt lat="45.89853" lon="4.73927">
        <ele>179</ele>
        <time>2018-05-18T08:58:54Z</time>
      </trkpt>
      <trkpt lat="45.89846" lon="4.7393">
        <ele>179</ele>
        <time>2018-05-18T08:58:55Z</time>
      </trkpt>
      <trkpt lat="45.89841" lon="4.73933">
        <ele>179</ele>
        <time>2018-05-18T08:58:56Z</time>
      </trkpt>
      <trkpt lat="45.89835" lon="4.73935">
        <ele>179</ele>
        <time>2018-05-18T08:58:57Z</time>
      </trkpt>
      <trkpt lat="45.89828" lon="4.73938">
        <ele>179</ele>
        <time>2018-05-18T08:58:58Z</time>
      </trkpt>
      <trkpt lat="45.89822" lon="4.73938">
        <ele>179</ele>
        <time>2018-05-18T08:58:59Z</time>
      </trkpt>
      <trkpt lat="45.89815" lon="4.73942">
        <ele>179</ele>
        <time>2018-05-18T08:59:00Z</time>
      </trkpt>
      <trkpt lat="45.89808" lon="4.73944">
        <ele>179</ele>
        <time>2018-05-18T08:59:01Z</time>
      </trkpt>
      <trkpt lat="45.89803" lon="4.73946">
        <ele>179</ele>
        <time>2018-05-18T08:59:02Z</time>
      </trkpt>
      <trkpt lat="45.89797" lon="4.73948">
        <ele>179</ele>
        <time>2018-05-18T08:59:03Z</time>
      </trkpt>
      <trkpt lat="45.89791" lon="4.73951">
        <ele>179</ele>
        <time>2018-05-18T08:59:04Z</time>
      </trkpt>
      <trkpt lat="45.89785" lon="4.73953">
        <ele>179</ele>
        <time>2018-05-18T08:59:05Z</time>
      </trkpt>
      <trkpt lat="45.89778" lon="4.73953">
        <ele>179</ele>
        <time>2018-05-18T08:59:06Z</time>
      </trkpt>
      <trkpt lat="45.89772" lon="4.73956">
        <ele>179</ele>
        <time>2018-05-18T08:59:07Z</time>
      </trkpt>
      <trkpt lat="45.89767" lon="4.73961">
        <ele>179</ele>
        <time>2018-05-18T08:59:08Z</time>
      </trkpt>
      <trkpt lat="45.89761" lon="4.73964">
        <ele>178</ele>
        <time>2018-05-18T08:59:09Z</time>
      </trkpt>
      <trkpt lat="45.89753" lon="4.73967">
        <ele>178</ele>
        <time>2018-05-18T08:59:10Z</time>
      </trkpt>
      <trkpt lat="45.89746" lon="4.7397">
        <ele>178</ele>
        <time>2018-05-18T08:59:11Z</time>
      </trkpt>
      <trkpt lat="45.89739" lon="4.73973">
        <ele>178</ele>
        <time>2018-05-18T08:59:12Z</time>
      </trkpt>
      <trkpt lat="45.89732" lon="4.73977">
        <ele>178</ele>
        <time>2018-05-18T08:59:13Z</time>
      </trkpt>
      <trkpt lat="45.89726" lon="4.73979">
        <ele>178</ele>
        <time>2018-05-18T08:59:14Z</time>
      </trkpt>
      <trkpt lat="45.89721" lon="4.7398">
        <ele>178</ele>
        <time>2018-05-18T08:59:15Z</time>
      </trkpt>
      <trkpt lat="45.89714" lon="4.73983">
        <ele>178</ele>
        <time>2018-05-18T08:59:16Z</time>
      </trkpt>
      <trkpt lat="45.89707" lon="4.73986">
        <ele>178</ele>
        <time>2018-05-18T08:59:17Z</time>
      </trkpt>
      <trkpt lat="45.89699" lon="4.7399">
        <ele>178</ele>
        <time>2018-05-18T08:59:18Z</time>
      </trkpt>
      <trkpt lat="45.89692" lon="4.73993">
        <ele>178</ele>
        <time>2018-05-18T08:59:19Z</time>
      </trkpt>
      <trkpt lat="45.89686" lon="4.73996">
        <ele>179</ele>
        <time>2018-05-18T08:59:20Z</time>
      </trkpt>
      <trkpt lat="45.89681" lon="4.73998">
        <ele>179</ele>
        <time>2018-05-18T08:59:21Z</time>
      </trkpt>
      <trkpt lat="45.89674" lon="4.74001">
        <ele>179</ele>
        <time>2018-05-18T08:59:22Z</time>
      </trkpt>
      <trkpt lat="45.89667" lon="4.74004">
        <ele>179</ele>
        <time>2018-05-18T08:59:23Z</time>
      </trkpt>
      <trkpt lat="45.89659" lon="4.74008">
        <ele>179</ele>
        <time>2018-05-18T08:59:24Z</time>
      </trkpt>
      <trkpt lat="45.89652" lon="4.7401">
        <ele>180</ele>
        <time>2018-05-18T08:59:25Z</time>
      </trkpt>
      <trkpt lat="45.89646" lon="4.74013">
        <ele>180</ele>
        <time>2018-05-18T08:59:26Z</time>
      </trkpt>
      <trkpt lat="45.89637" lon="4.74016">
        <ele>180</ele>
        <time>2018-05-18T08:59:27Z</time>
      </trkpt>
      <trkpt lat="45.89631" lon="4.74019">
        <ele>180</ele>
        <time>2018-05-18T08:59:28Z</time>
      </trkpt>
      <trkpt lat="45.89625" lon="4.74022">
        <ele>180</ele>
        <time>2018-05-18T08:59:29Z</time>
      </trkpt>
      <trkpt lat="45.89618" lon="4.74024">
        <ele>180</ele>
        <time>2018-05-18T08:59:30Z</time>
      </trkpt>
      <trkpt lat="45.89612" lon="4.74025">
        <ele>180</ele>
        <time>2018-05-18T08:59:31Z</time>
      </trkpt>
      <trkpt lat="45.89605" lon="4.74028">
        <ele>180</ele>
        <time>2018-05-18T08:59:32Z</time>
      </trkpt>
      <trkpt lat="45.89598" lon="4.7403">
        <ele>180</ele>
        <time>2018-05-18T08:59:33Z</time>
      </trkpt>
      <trkpt lat="45.89592" lon="4.74033">
        <ele>180</ele>
        <time>2018-05-18T08:59:34Z</time>
      </trkpt>
      <trkpt lat="45.89588" lon="4.74037">
        <ele>180</ele>
        <time>2018-05-18T08:59:35Z</time>
      </trkpt>
      <trkpt lat="45.89582" lon="4.74038">
        <ele>181</ele>
        <time>2018-05-18T08:59:36Z</time>
      </trkpt>
      <trkpt lat="45.89574" lon="4.74042">
        <ele>181</ele>
        <time>2018-05-18T08:59:37Z</time>
      </trkpt>
      <trkpt lat="45.89568" lon="4.74046">
        <ele>181</ele>
        <time>2018-05-18T08:59:38Z</time>
      </trkpt>
      <trkpt lat="45.89563" lon="4.74049">
        <ele>181</ele>
        <time>2018-05-18T08:59:39Z</time>
      </trkpt>
      <trkpt lat="45.89557" lon="4.74052">
        <ele>181</ele>
        <time>2018-05-18T08:59:40Z</time>
      </trkpt>
      <trkpt lat="45.8955" lon="4.74055">
        <ele>181</ele>
        <time>2018-05-18T08:59:41Z</time>
      </trkpt>
      <trkpt lat="45.89545" lon="4.7406">
        <ele>181</ele>
        <time>2018-05-18T08:59:42Z</time>
      </trkpt>
      <trkpt lat="45.89539" lon="4.74062">
        <ele>181</ele>
        <time>2018-05-18T08:59:43Z</time>
      </trkpt>
      <trkpt lat="45.89531" lon="4.74066">
        <ele>181</ele>
        <time>2018-05-18T08:59:44Z</time>
      </trkpt>
      <trkpt lat="45.89525" lon="4.7407">
        <ele>181</ele>
        <time>2018-05-18T08:59:45Z</time>
      </trkpt>
      <trkpt lat="45.89519" lon="4.74074">
        <ele>181</ele>
        <time>2018-05-18T08:59:46Z</time>
      </trkpt>
      <trkpt lat="45.89513" lon="4.74076">
        <ele>181</ele>
        <time>2018-05-18T08:59:47Z</time>
      </trkpt>
      <trkpt lat="45.89507" lon="4.74079">
        <ele>181</ele>
        <time>2018-05-18T08:59:48Z</time>
      </trkpt>
      <trkpt lat="45.89502" lon="4.74082">
        <ele>181</ele>
        <time>2018-05-18T08:59:49Z</time>
      </trkpt>
      <trkpt lat="45.89496" lon="4.74083">
        <ele>181</ele>
        <time>2018-05-18T08:59:50Z</time>
      </trkpt>
      <trkpt lat="45.8949" lon="4.74085">
        <ele>182</ele>
        <time>2018-05-18T08:59:51Z</time>
      </trkpt>
      <trkpt lat="45.89484" lon="4.74088">
        <ele>182</ele>
        <time>2018-05-18T08:59:52Z</time>
      </trkpt>
      <trkpt lat="45.89478" lon="4.7409">
        <ele>182</ele>
        <time>2018-05-18T08:59:53Z</time>
      </trkpt>
      <trkpt lat="45.89473" lon="4.74091">
        <ele>182</ele>
        <time>2018-05-18T08:59:54Z</time>
      </trkpt>
      <trkpt lat="45.89467" lon="4.74094">
        <ele>182</ele>
        <time>2018-05-18T08:59:55Z</time>
      </trkpt>
      <trkpt lat="45.8946" lon="4.74097">
        <ele>182</ele>
        <time>2018-05-18T08:59:56Z</time>
      </trkpt>
      <trkpt lat="45.89454" lon="4.74099">
        <ele>182</ele>
        <time>2018-05-18T08:59:57Z</time>
      </trkpt>
      <trkpt lat="45.89448" lon="4.74102">
        <ele>182</ele>
        <time>2018-05-18T08:59:58Z</time>
      </trkpt>
      <trkpt lat="45.89442" lon="4.74104">
        <ele>183</ele>
        <time>2018-05-18T08:59:59Z</time>
      </trkpt>
      <trkpt lat="45.89437" lon="4.74106">
        <ele>183</ele>
        <time>2018-05-18T09:00:00Z</time>
      </trkpt>
      <trkpt lat="45.89431" lon="4.74108">
        <ele>183</ele>
        <time>2018-05-18T09:00:01Z</time>
      </trkpt>
      <trkpt lat="45.89426" lon="4.7411">
        <ele>183</ele>
        <time>2018-05-18T09:00:02Z</time>
      </trkpt>
      <trkpt lat="45.8942" lon="4.74113">
        <ele>183</ele>
        <time>2018-05-18T09:00:03Z</time>
      </trkpt>
      <trkpt lat="45.89414" lon="4.74115">
        <ele>183</ele>
        <time>2018-05-18T09:00:04Z</time>
      </trkpt>
      <trkpt lat="45.89408" lon="4.74118">
        <ele>184</ele>
        <time>2018-05-18T09:00:05Z</time>
      </trkpt>
      <trkpt lat="45.89402" lon="4.7412">
        <ele>184</ele>
        <time>2018-05-18T09:00:06Z</time>
      </trkpt>
      <trkpt lat="45.89397" lon="4.74123">
        <ele>184</ele>
        <time>2018-05-18T09:00:07Z</time>
      </trkpt>
      <trkpt lat="45.89391" lon="4.74126">
        <ele>184</ele>
        <time>2018-05-18T09:00:08Z</time>
      </trkpt>
      <trkpt lat="45.89385" lon="4.74129">
        <ele>184</ele>
        <time>2018-05-18T09:00:09Z</time>
      </trkpt>
      <trkpt lat="45.89379" lon="4.7413">
        <ele>184</ele>
        <time>2018-05-18T09:00:10Z</time>
      </trkpt>
      <trkpt lat="45.89373" lon="4.74134">
        <ele>184</ele>
        <time>2018-05-18T09:00:11Z</time>
      </trkpt>
      <trkpt lat="45.89367" lon="4.74136">
        <ele>184</ele>
        <time>2018-05-18T09:00:12Z</time>
      </trkpt>
      <trkpt lat="45.8936" lon="4.74139">
        <ele>184</ele>
        <time>2018-05-18T09:00:13Z</time>
      </trkpt>
      <trkpt lat="45.89354" lon="4.74141">
        <ele>185</ele>
        <time>2018-05-18T09:00:14Z</time>
      </trkpt>
      <trkpt lat="45.89347" lon="4.74144">
        <ele>185</ele>
        <time>2018-05-18T09:00:15Z</time>
      </trkpt>
      <trkpt lat="45.89341" lon="4.74146">
        <ele>185</ele>
        <time>2018-05-18T09:00:16Z</time>
      </trkpt>
      <trkpt lat="45.89334" lon="4.74148">
        <ele>185</ele>
        <time>2018-05-18T09:00:17Z</time>
      </trkpt>
      <trkpt lat="45.89328" lon="4.7415">
        <ele>185</ele>
        <time>2018-05-18T09:00:18Z</time>
      </trkpt>
      <trkpt lat="45.89322" lon="4.74152">
        <ele>185</ele>
        <time>2018-05-18T09:00:19Z</time>
      </trkpt>
      <trkpt lat="45.89316" lon="4.74155">
        <ele>185</ele>
        <time>2018-05-18T09:00:20Z</time>
      </trkpt>
      <trkpt lat="45.8931" lon="4.74158">
        <ele>185</ele>
        <time>2018-05-18T09:00:21Z</time>
      </trkpt>
      <trkpt lat="45.89305" lon="4.7416">
        <ele>185</ele>
        <time>2018-05-18T09:00:22Z</time>
      </trkpt>
      <trkpt lat="45.89299" lon="4.74162">
        <ele>185</ele>
        <time>2018-05-18T09:00:23Z</time>
      </trkpt>
      <trkpt lat="45.89293" lon="4.74164">
        <ele>185</ele>
        <time>2018-05-18T09:00:24Z</time>
      </trkpt>
      <trkpt lat="45.89287" lon="4.74166">
        <ele>185</ele>
        <time>2018-05-18T09:00:25Z</time>
      </trkpt>
      <trkpt lat="45.89282" lon="4.7417">
        <ele>186</ele>
        <time>2018-05-18T09:00:26Z</time>
      </trkpt>
      <trkpt lat="45.89276" lon="4.74172">
        <ele>186</ele>
        <time>2018-05-18T09:00:27Z</time>
      </trkpt>
      <trkpt lat="45.89269" lon="4.74173">
        <ele>186</ele>
        <time>2018-05-18T09:00:28Z</time>
      </trkpt>
      <trkpt lat="45.89263" lon="4.74175">
        <ele>185</ele>
        <time>2018-05-18T09:00:29Z</time>
      </trkpt>
      <trkpt lat="45.89257" lon="4.74177">
        <ele>185</ele>
        <time>2018-05-18T09:00:30Z</time>
      </trkpt>
      <trkpt lat="45.89251" lon="4.74179">
        <ele>185</ele>
        <time>2018-05-18T09:00:31Z</time>
      </trkpt>
      <trkpt lat="45.89244" lon="4.74183">
        <ele>186</ele>
        <time>2018-05-18T09:00:32Z</time>
      </trkpt>
      <trkpt lat="45.89239" lon="4.74185">
        <ele>186</ele>
        <time>2018-05-18T09:00:33Z</time>
      </trkpt>
      <trkpt lat="45.89232" lon="4.74187">
        <ele>186</ele>
        <time>2018-05-18T09:00:34Z</time>
      </trkpt>
      <trkpt lat="45.89227" lon="4.74188">
        <ele>186</ele>
        <time>2018-05-18T09:00:35Z</time>
      </trkpt>
      <trkpt lat="45.89221" lon="4.7419">
        <ele>186</ele>
        <time>2018-05-18T09:00:36Z</time>
      </trkpt>
      <trkpt lat="45.89215" lon="4.74193">
        <ele>186</ele>
        <time>2018-05-18T09:00:37Z</time>
      </trkpt>
      <trkpt lat="45.8921" lon="4.74195">
        <ele>186</ele>
        <time>2018-05-18T09:00:38Z</time>
      </trkpt>
      <trkpt lat="45.89205" lon="4.74196">
        <ele>186</ele>
        <time>2018-05-18T09:00:39Z</time>
      </trkpt>
      <trkpt lat="45.89199" lon="4.742">
        <ele>186</ele>
        <time>2018-05-18T09:00:40Z</time>
      </trkpt>
      <trkpt lat="45.89193" lon="4.74201">
        <ele>186</ele>
        <time>2018-05-18T09:00:41Z</time>
      </trkpt>
      <trkpt lat="45.89187" lon="4.74203">
        <ele>186</ele>
        <time>2018-05-18T09:00:42Z</time>
      </trkpt>
      <trkpt lat="45.89182" lon="4.74206">
        <ele>186</ele>
        <time>2018-05-18T09:00:43Z</time>
      </trkpt>
      <trkpt lat="45.89175" lon="4.74207">
        <ele>186</ele>
        <time>2018-05-18T09:00:44Z</time>
      </trkpt>
      <trkpt lat="45.89169" lon="4.74211">
        <ele>186</ele>
        <time>2018-05-18T09:00:45Z</time>
      </trkpt>
      <trkpt lat="45.89163" lon="4.74214">
        <ele>186</ele>
        <time>2018-05-18T09:00:46Z</time>
      </trkpt>
      <trkpt lat="45.89157" lon="4.74217">
        <ele>186</ele>
        <time>2018-05-18T09:00:47Z</time>
      </trkpt>
      <trkpt lat="45.89152" lon="4.7422">
        <ele>186</ele>
        <time>2018-05-18T09:00:48Z</time>
      </trkpt>
      <trkpt lat="45.89145" lon="4.74223">
        <ele>186</ele>
        <time>2018-05-18T09:00:49Z</time>
      </trkpt>
      <trkpt lat="45.89139" lon="4.74227">
        <ele>186</ele>
        <time>2018-05-18T09:00:50Z</time>
      </trkpt>
      <trkpt lat="45.89133" lon="4.7423">
        <ele>186</ele>
        <time>2018-05-18T09:00:51Z</time>
      </trkpt>
      <trkpt lat="45.89127" lon="4.74233">
        <ele>186</ele>
        <time>2018-05-18T09:00:52Z</time>
      </trkpt>
      <trkpt lat="45.8912" lon="4.74234">
        <ele>186</ele>
        <time>2018-05-18T09:00:53Z</time>
      </trkpt>
      <trkpt lat="45.89114" lon="4.74235">
        <ele>186</ele>
        <time>2018-05-18T09:00:54Z</time>
      </trkpt>
      <trkpt lat="45.89108" lon="4.74237">
        <ele>186</ele>
        <time>2018-05-18T09:00:55Z</time>
      </trkpt>
      <trkpt lat="45.89102" lon="4.74239">
        <ele>186</ele>
        <time>2018-05-18T09:00:56Z</time>
      </trkpt>
      <trkpt lat="45.89096" lon="4.74241">
        <ele>186</ele>
        <time>2018-05-18T09:00:57Z</time>
      </trkpt>
      <trkpt lat="45.89089" lon="4.74243">
        <ele>186</ele>
        <time>2018-05-18T09:00:58Z</time>
      </trkpt>
      <trkpt lat="45.89083" lon="4.74246">
        <ele>186</ele>
        <time>2018-05-18T09:00:59Z</time>
      </trkpt>
      <trkpt lat="45.89077" lon="4.74248">
        <ele>186</ele>
        <time>2018-05-18T09:01:00Z</time>
      </trkpt>
      <trkpt lat="45.89072" lon="4.7425">
        <ele>186</ele>
        <time>2018-05-18T09:01:01Z</time>
      </trkpt>
      <trkpt lat="45.89066" lon="4.74252">
        <ele>186</ele>
        <time>2018-05-18T09:01:02Z</time>
      </trkpt>
      <trkpt lat="45.8906" lon="4.74254">
        <ele>186</ele>
        <time>2018-05-18T09:01:03Z</time>
      </trkpt>
      <trkpt lat="45.89055" lon="4.74257">
        <ele>187</ele>
        <time>2018-05-18T09:01:04Z</time>
      </trkpt>
      <trkpt lat="45.8905" lon="4.7426">
        <ele>187</ele>
        <time>2018-05-18T09:01:05Z</time>
      </trkpt>
      <trkpt lat="45.89044" lon="4.74262">
        <ele>187</ele>
        <time>2018-05-18T09:01:06Z</time>
      </trkpt>
      <trkpt lat="45.89038" lon="4.74264">
        <ele>187</ele>
        <time>2018-05-18T09:01:07Z</time>
      </trkpt>
      <trkpt lat="45.89034" lon="4.74266">
        <ele>187</ele>
        <time>2018-05-18T09:01:08Z</time>
      </trkpt>
      <trkpt lat="45.89025" lon="4.74268">
        <ele>187</ele>
        <time>2018-05-18T09:01:10Z</time>
      </trkpt>
      <trkpt lat="45.89023" lon="4.74268">
        <ele>187</ele>
        <time>2018-05-18T09:01:11Z</time>
      </trkpt>
      <trkpt lat="45.89015" lon="4.74271">
        <ele>187</ele>
        <time>2018-05-18T09:01:15Z</time>
      </trkpt>
      <trkpt lat="45.89013" lon="4.74272">
        <ele>187</ele>
        <time>2018-05-18T09:01:16Z</time>
      </trkpt>
      <trkpt lat="45.8901" lon="4.74273">
        <ele>187</ele>
        <time>2018-05-18T09:01:19Z</time>
      </trkpt>
      <trkpt lat="45.89009" lon="4.74273">
        <ele>187</ele>
        <time>2018-05-18T09:01:20Z</time>
      </trkpt>
      <trkpt lat="45.89009" lon="4.74273">
        <ele>187</ele>
        <time>2018-05-18T09:01:23Z</time>
      </trkpt>
      <trkpt lat="45.89008" lon="4.74273">
        <ele>187</ele>
        <time>2018-05-18T09:01:24Z</time>
      </trkpt>
      <trkpt lat="45.89" lon="4.74274">
        <ele>187</ele>
        <time>2018-05-18T09:01:29Z</time>
      </trkpt>
      <trkpt lat="45.88992" lon="4.74276">
        <ele>187</ele>
        <time>2018-05-18T09:01:30Z</time>
      </trkpt>
      <trkpt lat="45.88984" lon="4.74277">
        <ele>187</ele>
        <time>2018-05-18T09:01:32Z</time>
      </trkpt>
      <trkpt lat="45.88979" lon="4.74277">
        <ele>187</ele>
        <time>2018-05-18T09:01:33Z</time>
      </trkpt>
      <trkpt lat="45.88971" lon="4.74279">
        <ele>187</ele>
        <time>2018-05-18T09:01:35Z</time>
      </trkpt>
      <trkpt lat="45.88968" lon="4.7428">
        <ele>187</ele>
        <time>2018-05-18T09:01:36Z</time>
      </trkpt>
      <trkpt lat="45.8896" lon="4.74276">
        <ele>187</ele>
        <time>2018-05-18T09:01:38Z</time>
      </trkpt>
      <trkpt lat="45.88957" lon="4.74275">
        <ele>187</ele>
        <time>2018-05-18T09:01:39Z</time>
      </trkpt>
      <trkpt lat="45.88948" lon="4.74272">
        <ele>187</ele>
        <time>2018-05-18T09:01:41Z</time>
      </trkpt>
      <trkpt lat="45.88945" lon="4.7427">
        <ele>187</ele>
        <time>2018-05-18T09:01:42Z</time>
      </trkpt>
      <trkpt lat="45.88937" lon="4.74267">
        <ele>187</ele>
        <time>2018-05-18T09:01:44Z</time>
      </trkpt>
      <trkpt lat="45.88932" lon="4.74265">
        <ele>187</ele>
        <time>2018-05-18T09:01:45Z</time>
      </trkpt>
      <trkpt lat="45.88925" lon="4.74262">
        <ele>187</ele>
        <time>2018-05-18T09:01:47Z</time>
      </trkpt>
      <trkpt lat="45.88921" lon="4.74259">
        <ele>187</ele>
        <time>2018-05-18T09:01:48Z</time>
      </trkpt>
      <trkpt lat="45.88916" lon="4.74258">
        <ele>187</ele>
        <time>2018-05-18T09:01:49Z</time>
      </trkpt>
      <trkpt lat="45.88912" lon="4.74255">
        <ele>187</ele>
        <time>2018-05-18T09:01:50Z</time>
      </trkpt>
      <trkpt lat="45.88907" lon="4.74253">
        <ele>187</ele>
        <time>2018-05-18T09:01:51Z</time>
      </trkpt>
      <trkpt lat="45.88902" lon="4.74249">
        <ele>187</ele>
        <time>2018-05-18T09:01:52Z</time>
      </trkpt>
      <trkpt lat="45.88898" lon="4.74246">
        <ele>187</ele>
        <time>2018-05-18T09:01:53Z</time>
      </trkpt>
      <trkpt lat="45.88893" lon="4.74243">
        <ele>187</ele>
        <time>2018-05-18T09:01:54Z</time>
      </trkpt>
      <trkpt lat="45.8889" lon="4.74237">
        <ele>187</ele>
        <time>2018-05-18T09:01:55Z</time>
      </trkpt>
      <trkpt lat="45.88886" lon="4.74234">
        <ele>187</ele>
        <time>2018-05-18T09:01:56Z</time>
      </trkpt>
      <trkpt lat="45.88879" lon="4.74227">
        <ele>187</ele>
        <time>2018-05-18T09:01:58Z</time>
      </trkpt>
      <trkpt lat="45.88874" lon="4.74224">
        <ele>187</ele>
        <time>2018-05-18T09:01:59Z</time>
      </trkpt>
      <trkpt lat="45.8887" lon="4.74221">
        <ele>187</ele>
        <time>2018-05-18T09:02:00Z</time>
      </trkpt>
      <trkpt lat="45.88865" lon="4.74217">
        <ele>187</ele>
        <time>2018-05-18T09:02:01Z</time>
      </trkpt>
      <trkpt lat="45.8886" lon="4.74215">
        <ele>187</ele>
        <time>2018-05-18T09:02:02Z</time>
      </trkpt>
      <trkpt lat="45.88855" lon="4.74212">
        <ele>187</ele>
        <time>2018-05-18T09:02:03Z</time>
      </trkpt>
      <trkpt lat="45.8885" lon="4.7421">
        <ele>187</ele>
        <time>2018-05-18T09:02:04Z</time>
      </trkpt>
      <trkpt lat="45.88844" lon="4.74207">
        <ele>187</ele>
        <time>2018-05-18T09:02:05Z</time>
      </trkpt>
      <trkpt lat="45.88839" lon="4.74206">
        <ele>187</ele>
        <time>2018-05-18T09:02:06Z</time>
      </trkpt>
      <trkpt lat="45.88834" lon="4.74203">
        <ele>187</ele>
        <time>2018-05-18T09:02:07Z</time>
      </trkpt>
      <trkpt lat="45.8883" lon="4.742">
        <ele>187</ele>
        <time>2018-05-18T09:02:08Z</time>
      </trkpt>
      <trkpt lat="45.88824" lon="4.74198">
        <ele>187</ele>
        <time>2018-05-18T09:02:09Z</time>
      </trkpt>
      <trkpt lat="45.88818" lon="4.74194">
        <ele>187</ele>
        <time>2018-05-18T09:02:10Z</time>
      </trkpt>
      <trkpt lat="45.88813" lon="4.74191">
        <ele>187</ele>
        <time>2018-05-18T09:02:11Z</time>
      </trkpt>
      <trkpt lat="45.88808" lon="4.74188">
        <ele>187</ele>
        <time>2018-05-18T09:02:12Z</time>
      </trkpt>
      <trkpt lat="45.88802" lon="4.74186">
        <ele>187</ele>
        <time>2018-05-18T09:02:13Z</time>
      </trkpt>
      <trkpt lat="45.88797" lon="4.74183">
        <ele>187</ele>
        <time>2018-05-18T09:02:14Z</time>
      </trkpt>
      <trkpt lat="45.88792" lon="4.7418">
        <ele>188</ele>
        <time>2018-05-18T09:02:15Z</time>
      </trkpt>
      <trkpt lat="45.88784" lon="4.74175">
        <ele>188</ele>
        <time>2018-05-18T09:02:17Z</time>
      </trkpt>
      <trkpt lat="45.8878" lon="4.74173">
        <ele>188</ele>
        <time>2018-05-18T09:02:18Z</time>
      </trkpt>
      <trkpt lat="45.88775" lon="4.7417">
        <ele>188</ele>
        <time>2018-05-18T09:02:19Z</time>
      </trkpt>
      <trkpt lat="45.88771" lon="4.74167">
        <ele>188</ele>
        <time>2018-05-18T09:02:20Z</time>
      </trkpt>
      <trkpt lat="45.88766" lon="4.74163">
        <ele>187</ele>
        <time>2018-05-18T09:02:21Z</time>
      </trkpt>
      <trkpt lat="45.88762" lon="4.74159">
        <ele>187</ele>
        <time>2018-05-18T09:02:22Z</time>
      </trkpt>
      <trkpt lat="45.88758" lon="4.74155">
        <ele>187</ele>
        <time>2018-05-18T09:02:23Z</time>
      </trkpt>
      <trkpt lat="45.88753" lon="4.74151">
        <ele>187</ele>
        <time>2018-05-18T09:02:24Z</time>
      </trkpt>
      <trkpt lat="45.88749" lon="4.74148">
        <ele>188</ele>
        <time>2018-05-18T09:02:25Z</time>
      </trkpt>
      <trkpt lat="45.88744" lon="4.74146">
        <ele>188</ele>
        <time>2018-05-18T09:02:26Z</time>
      </trkpt>
      <trkpt lat="45.88739" lon="4.74142">
        <ele>188</ele>
        <time>2018-05-18T09:02:27Z</time>
      </trkpt>
      <trkpt lat="45.88734" lon="4.74139">
        <ele>188</ele>
        <time>2018-05-18T09:02:28Z</time>
      </trkpt>
      <trkpt lat="45.8873" lon="4.74135">
        <ele>188</ele>
        <time>2018-05-18T09:02:29Z</time>
      </trkpt>
      <trkpt lat="45.88726" lon="4.7413">
        <ele>188</ele>
        <time>2018-05-18T09:02:30Z</time>
      </trkpt>
      <trkpt lat="45.88722" lon="4.74127">
        <ele>188</ele>
        <time>2018-05-18T09:02:31Z</time>
      </trkpt>
      <trkpt lat="45.88717" lon="4.74123">
        <ele>188</ele>
        <time>2018-05-18T09:02:32Z</time>
      </trkpt>
      <trkpt lat="45.88713" lon="4.7412">
        <ele>188</ele>
        <time>2018-05-18T09:02:33Z</time>
      </trkpt>
      <trkpt lat="45.8871" lon="4.74115">
        <ele>188</ele>
        <time>2018-05-18T09:02:34Z</time>
      </trkpt>
      <trkpt lat="45.88706" lon="4.7411">
        <ele>188</ele>
        <time>2018-05-18T09:02:35Z</time>
      </trkpt>
      <trkpt lat="45.887" lon="4.74109">
        <ele>188</ele>
        <time>2018-05-18T09:02:36Z</time>
      </trkpt>
      <trkpt lat="45.88694" lon="4.7411">
        <ele>188</ele>
        <time>2018-05-18T09:02:37Z</time>
      </trkpt>
      <trkpt lat="45.88689" lon="4.74109">
        <ele>188</ele>
        <time>2018-05-18T09:02:38Z</time>
      </trkpt>
      <trkpt lat="45.88684" lon="4.74108">
        <ele>188</ele>
        <time>2018-05-18T09:02:39Z</time>
      </trkpt>
      <trkpt lat="45.8868" lon="4.74106">
        <ele>188</ele>
        <time>2018-05-18T09:02:40Z</time>
      </trkpt>
      <trkpt lat="45.88676" lon="4.74102">
        <ele>188</ele>
        <time>2018-05-18T09:02:41Z</time>
      </trkpt>
      <trkpt lat="45.88674" lon="4.74094">
        <ele>188</ele>
        <time>2018-05-18T09:02:42Z</time>
      </trkpt>
      <trkpt lat="45.88673" lon="4.74086">
        <ele>188</ele>
        <time>2018-05-18T09:02:43Z</time>
      </trkpt>
      <trkpt lat="45.8867" lon="4.74078">
        <ele>188</ele>
        <time>2018-05-18T09:02:44Z</time>
      </trkpt>
      <trkpt lat="45.88668" lon="4.74072">
        <ele>188</ele>
        <time>2018-05-18T09:02:45Z</time>
      </trkpt>
      <trkpt lat="45.88664" lon="4.74064">
        <ele>188</ele>
        <time>2018-05-18T09:02:46Z</time>
      </trkpt>
      <trkpt lat="45.88661" lon="4.74056">
        <ele>187</ele>
        <time>2018-05-18T09:02:47Z</time>
      </trkpt>
      <trkpt lat="45.88659" lon="4.74048">
        <ele>187</ele>
        <time>2018-05-18T09:02:48Z</time>
      </trkpt>
      <trkpt lat="45.88656" lon="4.74041">
        <ele>187</ele>
        <time>2018-05-18T09:02:49Z</time>
      </trkpt>
      <trkpt lat="45.88655" lon="4.74032">
        <ele>187</ele>
        <time>2018-05-18T09:02:50Z</time>
      </trkpt>
      <trkpt lat="45.88654" lon="4.74023">
        <ele>187</ele>
        <time>2018-05-18T09:02:51Z</time>
      </trkpt>
      <trkpt lat="45.88654" lon="4.74014">
        <ele>187</ele>
        <time>2018-05-18T09:02:52Z</time>
      </trkpt>
      <trkpt lat="45.88653" lon="4.74005">
        <ele>187</ele>
        <time>2018-05-18T09:02:53Z</time>
      </trkpt>
      <trkpt lat="45.88651" lon="4.73998">
        <ele>186</ele>
        <time>2018-05-18T09:02:54Z</time>
      </trkpt>
      <trkpt lat="45.88651" lon="4.73989">
        <ele>186</ele>
        <time>2018-05-18T09:02:55Z</time>
      </trkpt>
      <trkpt lat="45.8865" lon="4.73981">
        <ele>187</ele>
        <time>2018-05-18T09:02:56Z</time>
      </trkpt>
      <trkpt lat="45.8865" lon="4.73972">
        <ele>187</ele>
        <time>2018-05-18T09:02:57Z</time>
      </trkpt>
      <trkpt lat="45.88649" lon="4.73964">
        <ele>187</ele>
        <time>2018-05-18T09:02:58Z</time>
      </trkpt>
      <trkpt lat="45.88648" lon="4.73955">
        <ele>187</ele>
        <time>2018-05-18T09:02:59Z</time>
      </trkpt>
      <trkpt lat="45.88648" lon="4.73947">
        <ele>187</ele>
        <time>2018-05-18T09:03:00Z</time>
      </trkpt>
      <trkpt lat="45.88648" lon="4.73939">
        <ele>187</ele>
        <time>2018-05-18T09:03:01Z</time>
      </trkpt>
      <trkpt lat="45.88647" lon="4.7393">
        <ele>187</ele>
        <time>2018-05-18T09:03:02Z</time>
      </trkpt>
      <trkpt lat="45.88647" lon="4.73922">
        <ele>187</ele>
        <time>2018-05-18T09:03:03Z</time>
      </trkpt>
      <trkpt lat="45.88647" lon="4.73915">
        <ele>187</ele>
        <time>2018-05-18T09:03:04Z</time>
      </trkpt>
      <trkpt lat="45.88647" lon="4.73908">
        <ele>187</ele>
        <time>2018-05-18T09:03:05Z</time>
      </trkpt>
      <trkpt lat="45.88648" lon="4.73901">
        <ele>187</ele>
        <time>2018-05-18T09:03:06Z</time>
      </trkpt>
      <trkpt lat="45.88648" lon="4.73892">
        <ele>187</ele>
        <time>2018-05-18T09:03:07Z</time>
      </trkpt>
      <trkpt lat="45.88647" lon="4.73884">
        <ele>187</ele>
        <time>2018-05-18T09:03:08Z</time>
      </trkpt>
      <trkpt lat="45.88646" lon="4.73878">
        <ele>187</ele>
        <time>2018-05-18T09:03:09Z</time>
      </trkpt>
      <trkpt lat="45.88647" lon="4.73869">
        <ele>187</ele>
        <time>2018-05-18T09:03:10Z</time>
      </trkpt>
      <trkpt lat="45.88647" lon="4.7386">
        <ele>187</ele>
        <time>2018-05-18T09:03:11Z</time>
      </trkpt>
      <trkpt lat="45.88647" lon="4.73852">
        <ele>187</ele>
        <time>2018-05-18T09:03:12Z</time>
      </trkpt>
      <trkpt lat="45.88648" lon="4.73843">
        <ele>187</ele>
        <time>2018-05-18T09:03:13Z</time>
      </trkpt>
      <trkpt lat="45.88647" lon="4.73834">
        <ele>187</ele>
        <time>2018-05-18T09:03:14Z</time>
      </trkpt>
      <trkpt lat="45.88648" lon="4.73824">
        <ele>187</ele>
        <time>2018-05-18T09:03:15Z</time>
      </trkpt>
      <trkpt lat="45.88648" lon="4.73816">
        <ele>187</ele>
        <time>2018-05-18T09:03:16Z</time>
      </trkpt>
      <trkpt lat="45.88647" lon="4.73807">
        <ele>187</ele>
        <time>2018-05-18T09:03:17Z</time>
      </trkpt>
      <trkpt lat="45.88647" lon="4.73799">
        <ele>187</ele>
        <time>2018-05-18T09:03:18Z</time>
      </trkpt>
      <trkpt lat="45.88648" lon="4.73792">
        <ele>187</ele>
        <time>2018-05-18T09:03:19Z</time>
      </trkpt>
      <trkpt lat="45.88648" lon="4.73785">
        <ele>187</ele>
        <time>2018-05-18T09:03:20Z</time>
      </trkpt>
      <trkpt lat="45.88648" lon="4.73775">
        <ele>187</ele>
        <time>2018-05-18T09:03:22Z</time>
      </trkpt>
      <trkpt lat="45.8865" lon="4.73767">
        <ele>187</ele>
        <time>2018-05-18T09:03:23Z</time>
      </trkpt>
      <trkpt lat="45.88649" lon="4.73758">
        <ele>187</ele>
        <time>2018-05-18T09:03:24Z</time>
      </trkpt>
      <trkpt lat="45.88649" lon="4.7375">
        <ele>187</ele>
        <time>2018-05-18T09:03:25Z</time>
      </trkpt>
      <trkpt lat="45.88649" lon="4.73742">
        <ele>187</ele>
        <time>2018-05-18T09:03:26Z</time>
      </trkpt>
      <trkpt lat="45.88649" lon="4.73736">
        <ele>187</ele>
        <time>2018-05-18T09:03:27Z</time>
      </trkpt>
      <trkpt lat="45.88649" lon="4.73728">
        <ele>186</ele>
        <time>2018-05-18T09:03:28Z</time>
      </trkpt>
      <trkpt lat="45.8865" lon="4.73722">
        <ele>186</ele>
        <time>2018-05-18T09:03:29Z</time>
      </trkpt>
      <trkpt lat="45.8865" lon="4.73715">
        <ele>186</ele>
        <time>2018-05-18T09:03:30Z</time>
      </trkpt>
      <trkpt lat="45.8865" lon="4.73707">
        <ele>186</ele>
        <time>2018-05-18T09:03:31Z</time>
      </trkpt>
      <trkpt lat="45.88651" lon="4.73695">
        <ele>186</ele>
        <time>2018-05-18T09:03:33Z</time>
      </trkpt>
      <trkpt lat="45.8865" lon="4.73688">
        <ele>186</ele>
        <time>2018-05-18T09:03:34Z</time>
      </trkpt>
      <trkpt lat="45.88651" lon="4.73682">
        <ele>186</ele>
        <time>2018-05-18T09:03:35Z</time>
      </trkpt>
      <trkpt lat="45.88651" lon="4.73674">
        <ele>186</ele>
        <time>2018-05-18T09:03:36Z</time>
      </trkpt>
      <trkpt lat="45.88651" lon="4.73662">
        <ele>186</ele>
        <time>2018-05-18T09:03:38Z</time>
      </trkpt>
      <trkpt lat="45.88651" lon="4.73655">
        <ele>186</ele>
        <time>2018-05-18T09:03:39Z</time>
      </trkpt>
      <trkpt lat="45.88651" lon="4.73649">
        <ele>186</ele>
        <time>2018-05-18T09:03:40Z</time>
      </trkpt>
      <trkpt lat="45.88651" lon="4.73642">
        <ele>186</ele>
        <time>2018-05-18T09:03:41Z</time>
      </trkpt>
      <trkpt lat="45.88651" lon="4.73634">
        <ele>186</ele>
        <time>2018-05-18T09:03:42Z</time>
      </trkpt>
      <trkpt lat="45.88651" lon="4.73628">
        <ele>186</ele>
        <time>2018-05-18T09:03:43Z</time>
      </trkpt>
      <trkpt lat="45.88651" lon="4.73621">
        <ele>186</ele>
        <time>2018-05-18T09:03:44Z</time>
      </trkpt>
      <trkpt lat="45.88651" lon="4.73614">
        <ele>186</ele>
        <time>2018-05-18T09:03:45Z</time>
      </trkpt>
      <trkpt lat="45.88652" lon="4.73606">
        <ele>186</ele>
        <time>2018-05-18T09:03:46Z</time>
      </trkpt>
      <trkpt lat="45.88652" lon="4.73597">
        <ele>185</ele>
        <time>2018-05-18T09:03:47Z</time>
      </trkpt>
      <trkpt lat="45.88653" lon="4.73589">
        <ele>185</ele>
        <time>2018-05-18T09:03:48Z</time>
      </trkpt>
      <trkpt lat="45.88653" lon="4.7358">
        <ele>185</ele>
        <time>2018-05-18T09:03:49Z</time>
      </trkpt>
      <trkpt lat="45.88653" lon="4.73571">
        <ele>185</ele>
        <time>2018-05-18T09:03:50Z</time>
      </trkpt>
      <trkpt lat="45.88653" lon="4.7356">
        <ele>185</ele>
        <time>2018-05-18T09:03:51Z</time>
      </trkpt>
      <trkpt lat="45.88653" lon="4.73551">
        <ele>185</ele>
        <time>2018-05-18T09:03:52Z</time>
      </trkpt>
      <trkpt lat="45.88653" lon="4.73541">
        <ele>185</ele>
        <time>2018-05-18T09:03:53Z</time>
      </trkpt>
      <trkpt lat="45.88654" lon="4.73532">
        <ele>185</ele>
        <time>2018-05-18T09:03:54Z</time>
      </trkpt>
      <trkpt lat="45.88655" lon="4.73523">
        <ele>185</ele>
        <time>2018-05-18T09:03:55Z</time>
      </trkpt>
      <trkpt lat="45.88656" lon="4.73515">
        <ele>185</ele>
        <time>2018-05-18T09:03:56Z</time>
      </trkpt>
      <trkpt lat="45.88657" lon="4.7351">
        <ele>184</ele>
        <time>2018-05-18T09:03:57Z</time>
      </trkpt>
      <trkpt lat="45.8866" lon="4.73498">
        <ele>184</ele>
        <time>2018-05-18T09:04:00Z</time>
      </trkpt>
      <trkpt lat="45.8866" lon="4.7349">
        <ele>184</ele>
        <time>2018-05-18T09:04:01Z</time>
      </trkpt>
      <trkpt lat="45.88659" lon="4.73483">
        <ele>184</ele>
        <time>2018-05-18T09:04:02Z</time>
      </trkpt>
      <trkpt lat="45.88656" lon="4.73478">
        <ele>184</ele>
        <time>2018-05-18T09:04:03Z</time>
      </trkpt>
      <trkpt lat="45.88651" lon="4.73474">
        <ele>184</ele>
        <time>2018-05-18T09:04:04Z</time>
      </trkpt>
      <trkpt lat="45.88646" lon="4.73472">
        <ele>184</ele>
        <time>2018-05-18T09:04:05Z</time>
      </trkpt>
      <trkpt lat="45.88642" lon="4.73469">
        <ele>184</ele>
        <time>2018-05-18T09:04:06Z</time>
      </trkpt>
      <trkpt lat="45.88639" lon="4.73463">
        <ele>184</ele>
        <time>2018-05-18T09:04:07Z</time>
      </trkpt>
      <trkpt lat="45.88637" lon="4.73457">
        <ele>184</ele>
        <time>2018-05-18T09:04:08Z</time>
      </trkpt>
      <trkpt lat="45.88637" lon="4.73449">
        <ele>184</ele>
        <time>2018-05-18T09:04:09Z</time>
      </trkpt>
      <trkpt lat="45.88637" lon="4.73442">
        <ele>184</ele>
        <time>2018-05-18T09:04:10Z</time>
      </trkpt>
      <trkpt lat="45.88639" lon="4.73435">
        <ele>184</ele>
        <time>2018-05-18T09:04:11Z</time>
      </trkpt>
      <trkpt lat="45.8864" lon="4.73429">
        <ele>184</ele>
        <time>2018-05-18T09:04:12Z</time>
      </trkpt>
      <trkpt lat="45.88641" lon="4.73422">
        <ele>184</ele>
        <time>2018-05-18T09:04:13Z</time>
      </trkpt>
      <trkpt lat="45.88641" lon="4.73414">
        <ele>184</ele>
        <time>2018-05-18T09:04:14Z</time>
      </trkpt>
      <trkpt lat="45.8864" lon="4.73406">
        <ele>184</ele>
        <time>2018-05-18T09:04:15Z</time>
      </trkpt>
      <trkpt lat="45.88638" lon="4.734">
        <ele>184</ele>
        <time>2018-05-18T09:04:16Z</time>
      </trkpt>
      <trkpt lat="45.88635" lon="4.73394">
        <ele>184</ele>
        <time>2018-05-18T09:04:17Z</time>
      </trkpt>
      <trkpt lat="45.88631" lon="4.73389">
        <ele>183</ele>
        <time>2018-05-18T09:04:18Z</time>
      </trkpt>
      <trkpt lat="45.88627" lon="4.73386">
        <ele>183</ele>
        <time>2018-05-18T09:04:19Z</time>
      </trkpt>
      <trkpt lat="45.88622" lon="4.73384">
        <ele>183</ele>
        <time>2018-05-18T09:04:20Z</time>
      </trkpt>
      <trkpt lat="45.88617" lon="4.73384">
        <ele>183</ele>
        <time>2018-05-18T09:04:21Z</time>
      </trkpt>
      <trkpt lat="45.88611" lon="4.73385">
        <ele>183</ele>
        <time>2018-05-18T09:04:22Z</time>
      </trkpt>
      <trkpt lat="45.88606" lon="4.73387">
        <ele>183</ele>
        <time>2018-05-18T09:04:23Z</time>
      </trkpt>
      <trkpt lat="45.886" lon="4.73388">
        <ele>183</ele>
        <time>2018-05-18T09:04:24Z</time>
      </trkpt>
      <trkpt lat="45.88594" lon="4.7339">
        <ele>183</ele>
        <time>2018-05-18T09:04:25Z</time>
      </trkpt>
      <trkpt lat="45.88588" lon="4.73393">
        <ele>183</ele>
        <time>2018-05-18T09:04:26Z</time>
      </trkpt>
      <trkpt lat="45.88582" lon="4.73395">
        <ele>183</ele>
        <time>2018-05-18T09:04:27Z</time>
      </trkpt>
      <trkpt lat="45.88577" lon="4.73397">
        <ele>183</ele>
        <time>2018-05-18T09:04:28Z</time>
      </trkpt>
      <trkpt lat="45.88571" lon="4.73399">
        <ele>183</ele>
        <time>2018-05-18T09:04:29Z</time>
      </trkpt>
      <trkpt lat="45.88566" lon="4.734">
        <ele>183</ele>
        <time>2018-05-18T09:04:30Z</time>
      </trkpt>
      <trkpt lat="45.88561" lon="4.73402">
        <ele>183</ele>
        <time>2018-05-18T09:04:31Z</time>
      </trkpt>
      <trkpt lat="45.88556" lon="4.73404">
        <ele>183</ele>
        <time>2018-05-18T09:04:32Z</time>
      </trkpt>
      <trkpt lat="45.88552" lon="4.73406">
        <ele>183</ele>
        <time>2018-05-18T09:04:33Z</time>
      </trkpt>
      <trkpt lat="45.88543" lon="4.73409">
        <ele>183</ele>
        <time>2018-05-18T09:04:35Z</time>
      </trkpt>
      <trkpt lat="45.88537" lon="4.7341">
        <ele>183</ele>
        <time>2018-05-18T09:04:36Z</time>
      </trkpt>
      <trkpt lat="45.88532" lon="4.73411">
        <ele>183</ele>
        <time>2018-05-18T09:04:37Z</time>
      </trkpt>
      <trkpt lat="45.88526" lon="4.73412">
        <ele>183</ele>
        <time>2018-05-18T09:04:38Z</time>
      </trkpt>
      <trkpt lat="45.88519" lon="4.73414">
        <ele>184</ele>
        <time>2018-05-18T09:04:39Z</time>
      </trkpt>
      <trkpt lat="45.88513" lon="4.73417">
        <ele>184</ele>
        <time>2018-05-18T09:04:40Z</time>
      </trkpt>
      <trkpt lat="45.88507" lon="4.73418">
        <ele>184</ele>
        <time>2018-05-18T09:04:41Z</time>
      </trkpt>
      <trkpt lat="45.88501" lon="4.7342">
        <ele>184</ele>
        <time>2018-05-18T09:04:42Z</time>
      </trkpt>
      <trkpt lat="45.88494" lon="4.73422">
        <ele>184</ele>
        <time>2018-05-18T09:04:43Z</time>
      </trkpt>
      <trkpt lat="45.88487" lon="4.73425">
        <ele>184</ele>
        <time>2018-05-18T09:04:44Z</time>
      </trkpt>
      <trkpt lat="45.88481" lon="4.73426">
        <ele>184</ele>
        <time>2018-05-18T09:04:45Z</time>
      </trkpt>
      <trkpt lat="45.88475" lon="4.73427">
        <ele>184</ele>
        <time>2018-05-18T09:04:46Z</time>
      </trkpt>
      <trkpt lat="45.88469" lon="4.73431">
        <ele>184</ele>
        <time>2018-05-18T09:04:47Z</time>
      </trkpt>
      <trkpt lat="45.88463" lon="4.73432">
        <ele>184</ele>
        <time>2018-05-18T09:04:48Z</time>
      </trkpt>
      <trkpt lat="45.88458" lon="4.73435">
        <ele>184</ele>
        <time>2018-05-18T09:04:49Z</time>
      </trkpt>
      <trkpt lat="45.88454" lon="4.73437">
        <ele>184</ele>
        <time>2018-05-18T09:04:50Z</time>
      </trkpt>
      <trkpt lat="45.88448" lon="4.73438">
        <ele>184</ele>
        <time>2018-05-18T09:04:51Z</time>
      </trkpt>
      <trkpt lat="45.88444" lon="4.73442">
        <ele>184</ele>
        <time>2018-05-18T09:04:52Z</time>
      </trkpt>
      <trkpt lat="45.88439" lon="4.73443">
        <ele>184</ele>
        <time>2018-05-18T09:04:53Z</time>
      </trkpt>
      <trkpt lat="45.88433" lon="4.73444">
        <ele>184</ele>
        <time>2018-05-18T09:04:54Z</time>
      </trkpt>
      <trkpt lat="45.88427" lon="4.73446">
        <ele>184</ele>
        <time>2018-05-18T09:04:55Z</time>
      </trkpt>
      <trkpt lat="45.8842" lon="4.73447">
        <ele>184</ele>
        <time>2018-05-18T09:04:56Z</time>
      </trkpt>
      <trkpt lat="45.88414" lon="4.73449">
        <ele>184</ele>
        <time>2018-05-18T09:04:57Z</time>
      </trkpt>
      <trkpt lat="45.88407" lon="4.73451">
        <ele>184</ele>
        <time>2018-05-18T09:04:58Z</time>
      </trkpt>
      <trkpt lat="45.884" lon="4.73452">
        <ele>184</ele>
        <time>2018-05-18T09:04:59Z</time>
      </trkpt>
      <trkpt lat="45.88394" lon="4.73452">
        <ele>184</ele>
        <time>2018-05-18T09:05:00Z</time>
      </trkpt>
      <trkpt lat="45.88389" lon="4.73454">
        <ele>184</ele>
        <time>2018-05-18T09:05:01Z</time>
      </trkpt>
      <trkpt lat="45.88383" lon="4.73455">
        <ele>184</ele>
        <time>2018-05-18T09:05:02Z</time>
      </trkpt>
      <trkpt lat="45.88377" lon="4.73458">
        <ele>184</ele>
        <time>2018-05-18T09:05:03Z</time>
      </trkpt>
      <trkpt lat="45.88371" lon="4.73459">
        <ele>184</ele>
        <time>2018-05-18T09:05:04Z</time>
      </trkpt>
      <trkpt lat="45.88366" lon="4.7346">
        <ele>184</ele>
        <time>2018-05-18T09:05:05Z</time>
      </trkpt>
      <trkpt lat="45.88359" lon="4.73462">
        <ele>184</ele>
        <time>2018-05-18T09:05:06Z</time>
      </trkpt>
      <trkpt lat="45.88352" lon="4.73466">
        <ele>184</ele>
        <time>2018-05-18T09:05:07Z</time>
      </trkpt>
      <trkpt lat="45.88346" lon="4.73467">
        <ele>184</ele>
        <time>2018-05-18T09:05:08Z</time>
      </trkpt>
      <trkpt lat="45.88339" lon="4.73469">
        <ele>184</ele>
        <time>2018-05-18T09:05:09Z</time>
      </trkpt>
      <trkpt lat="45.88332" lon="4.73471">
        <ele>184</ele>
        <time>2018-05-18T09:05:10Z</time>
      </trkpt>
      <trkpt lat="45.88327" lon="4.73473">
        <ele>184</ele>
        <time>2018-05-18T09:05:11Z</time>
      </trkpt>
      <trkpt lat="45.88322" lon="4.73475">
        <ele>184</ele>
        <time>2018-05-18T09:05:12Z</time>
      </trkpt>
      <trkpt lat="45.88317" lon="4.73476">
        <ele>184</ele>
        <time>2018-05-18T09:05:13Z</time>
      </trkpt>
      <trkpt lat="45.88312" lon="4.73477">
        <ele>184</ele>
        <time>2018-05-18T09:05:14Z</time>
      </trkpt>
      <trkpt lat="45.88307" lon="4.73477">
        <ele>184</ele>
        <time>2018-05-18T09:05:15Z</time>
      </trkpt>
      <trkpt lat="45.88302" lon="4.7348">
        <ele>184</ele>
        <time>2018-05-18T09:05:16Z</time>
      </trkpt>
      <trkpt lat="45.88297" lon="4.73482">
        <ele>184</ele>
        <time>2018-05-18T09:05:17Z</time>
      </trkpt>
      <trkpt lat="45.88292" lon="4.73484">
        <ele>184</ele>
        <time>2018-05-18T09:05:18Z</time>
      </trkpt>
      <trkpt lat="45.88286" lon="4.73487">
        <ele>184</ele>
        <time>2018-05-18T09:05:19Z</time>
      </trkpt>
      <trkpt lat="45.88281" lon="4.73492">
        <ele>184</ele>
        <time>2018-05-18T09:05:20Z</time>
      </trkpt>
      <trkpt lat="45.88276" lon="4.73496">
        <ele>184</ele>
        <time>2018-05-18T09:05:21Z</time>
      </trkpt>
      <trkpt lat="45.88271" lon="4.73499">
        <ele>184</ele>
        <time>2018-05-18T09:05:22Z</time>
      </trkpt>
      <trkpt lat="45.88268" lon="4.73502">
        <ele>185</ele>
        <time>2018-05-18T09:05:23Z</time>
      </trkpt>
      <trkpt lat="45.88263" lon="4.73506">
        <ele>185</ele>
        <time>2018-05-18T09:05:24Z</time>
      </trkpt>
      <trkpt lat="45.88257" lon="4.73508">
        <ele>185</ele>
        <time>2018-05-18T09:05:25Z</time>
      </trkpt>
      <trkpt lat="45.88252" lon="4.73512">
        <ele>185</ele>
        <time>2018-05-18T09:05:26Z</time>
      </trkpt>
      <trkpt lat="45.88247" lon="4.73514">
        <ele>185</ele>
        <time>2018-05-18T09:05:27Z</time>
      </trkpt>
      <trkpt lat="45.88242" lon="4.73518">
        <ele>185</ele>
        <time>2018-05-18T09:05:28Z</time>
      </trkpt>
      <trkpt lat="45.88238" lon="4.73521">
        <ele>185</ele>
        <time>2018-05-18T09:05:29Z</time>
      </trkpt>
      <trkpt lat="45.88233" lon="4.73524">
        <ele>185</ele>
        <time>2018-05-18T09:05:30Z</time>
      </trkpt>
      <trkpt lat="45.88228" lon="4.73528">
        <ele>185</ele>
        <time>2018-05-18T09:05:31Z</time>
      </trkpt>
      <trkpt lat="45.88222" lon="4.7353">
        <ele>185</ele>
        <time>2018-05-18T09:05:32Z</time>
      </trkpt>
      <trkpt lat="45.88216" lon="4.73534">
        <ele>185</ele>
        <time>2018-05-18T09:05:33Z</time>
      </trkpt>
      <trkpt lat="45.8821" lon="4.73537">
        <ele>185</ele>
        <time>2018-05-18T09:05:34Z</time>
      </trkpt>
      <trkpt lat="45.88206" lon="4.73541">
        <ele>186</ele>
        <time>2018-05-18T09:05:35Z</time>
      </trkpt>
      <trkpt lat="45.88201" lon="4.73544">
        <ele>186</ele>
        <time>2018-05-18T09:05:36Z</time>
      </trkpt>
      <trkpt lat="45.88196" lon="4.73547">
        <ele>186</ele>
        <time>2018-05-18T09:05:37Z</time>
      </trkpt>
      <trkpt lat="45.88191" lon="4.73549">
        <ele>186</ele>
        <time>2018-05-18T09:05:38Z</time>
      </trkpt>
      <trkpt lat="45.88188" lon="4.73552">
        <ele>186</ele>
        <time>2018-05-18T09:05:39Z</time>
      </trkpt>
      <trkpt lat="45.88183" lon="4.73555">
        <ele>186</ele>
        <time>2018-05-18T09:05:40Z</time>
      </trkpt>
      <trkpt lat="45.88178" lon="4.73559">
        <ele>186</ele>
        <time>2018-05-18T09:05:41Z</time>
      </trkpt>
      <trkpt lat="45.88174" lon="4.73562">
        <ele>186</ele>
        <time>2018-05-18T09:05:42Z</time>
      </trkpt>
      <trkpt lat="45.88168" lon="4.73565">
        <ele>186</ele>
        <time>2018-05-18T09:05:43Z</time>
      </trkpt>
      <trkpt lat="45.88163" lon="4.73569">
        <ele>186</ele>
        <time>2018-05-18T09:05:44Z</time>
      </trkpt>
      <trkpt lat="45.88155" lon="4.73574">
        <ele>186</ele>
        <time>2018-05-18T09:05:46Z</time>
      </trkpt>
      <trkpt lat="45.8815" lon="4.73578">
        <ele>186</ele>
        <time>2018-05-18T09:05:47Z</time>
      </trkpt>
      <trkpt lat="45.88145" lon="4.73581">
        <ele>186</ele>
        <time>2018-05-18T09:05:48Z</time>
      </trkpt>
      <trkpt lat="45.8814" lon="4.73584">
        <ele>187</ele>
        <time>2018-05-18T09:05:49Z</time>
      </trkpt>
      <trkpt lat="45.88136" lon="4.73589">
        <ele>187</ele>
        <time>2018-05-18T09:05:50Z</time>
      </trkpt>
      <trkpt lat="45.8813" lon="4.73592">
        <ele>187</ele>
        <time>2018-05-18T09:05:51Z</time>
      </trkpt>
      <trkpt lat="45.88125" lon="4.73596">
        <ele>187</ele>
        <time>2018-05-18T09:05:52Z</time>
      </trkpt>
      <trkpt lat="45.88121" lon="4.73598">
        <ele>187</ele>
        <time>2018-05-18T09:05:53Z</time>
      </trkpt>
      <trkpt lat="45.88116" lon="4.736">
        <ele>187</ele>
        <time>2018-05-18T09:05:54Z</time>
      </trkpt>
      <trkpt lat="45.88112" lon="4.73604">
        <ele>188</ele>
        <time>2018-05-18T09:05:55Z</time>
      </trkpt>
      <trkpt lat="45.88108" lon="4.73607">
        <ele>188</ele>
        <time>2018-05-18T09:05:56Z</time>
      </trkpt>
      <trkpt lat="45.88104" lon="4.73609">
        <ele>188</ele>
        <time>2018-05-18T09:05:57Z</time>
      </trkpt>
      <trkpt lat="45.88099" lon="4.73612">
        <ele>188</ele>
        <time>2018-05-18T09:05:58Z</time>
      </trkpt>
      <trkpt lat="45.88095" lon="4.73614">
        <ele>188</ele>
        <time>2018-05-18T09:05:59Z</time>
      </trkpt>
      <trkpt lat="45.8809" lon="4.73616">
        <ele>188</ele>
        <time>2018-05-18T09:06:00Z</time>
      </trkpt>
      <trkpt lat="45.88086" lon="4.73619">
        <ele>188</ele>
        <time>2018-05-18T09:06:01Z</time>
      </trkpt>
      <trkpt lat="45.88081" lon="4.73622">
        <ele>189</ele>
        <time>2018-05-18T09:06:02Z</time>
      </trkpt>
      <trkpt lat="45.88077" lon="4.73625">
        <ele>189</ele>
        <time>2018-05-18T09:06:03Z</time>
      </trkpt>
      <trkpt lat="45.88073" lon="4.73627">
        <ele>189</ele>
        <time>2018-05-18T09:06:04Z</time>
      </trkpt>
      <trkpt lat="45.88068" lon="4.73629">
        <ele>189</ele>
        <time>2018-05-18T09:06:05Z</time>
      </trkpt>
      <trkpt lat="45.88062" lon="4.73633">
        <ele>189</ele>
        <time>2018-05-18T09:06:06Z</time>
      </trkpt>
      <trkpt lat="45.88057" lon="4.73636">
        <ele>189</ele>
        <time>2018-05-18T09:06:07Z</time>
      </trkpt>
      <trkpt lat="45.88052" lon="4.73639">
        <ele>189</ele>
        <time>2018-05-18T09:06:08Z</time>
      </trkpt>
      <trkpt lat="45.88046" lon="4.73642">
        <ele>189</ele>
        <time>2018-05-18T09:06:09Z</time>
      </trkpt>
      <trkpt lat="45.88042" lon="4.73645">
        <ele>189</ele>
        <time>2018-05-18T09:06:10Z</time>
      </trkpt>
      <trkpt lat="45.88037" lon="4.73648">
        <ele>189</ele>
        <time>2018-05-18T09:06:11Z</time>
      </trkpt>
      <trkpt lat="45.88032" lon="4.73651">
        <ele>189</ele>
        <time>2018-05-18T09:06:12Z</time>
      </trkpt>
      <trkpt lat="45.88028" lon="4.73655">
        <ele>189</ele>
        <time>2018-05-18T09:06:13Z</time>
      </trkpt>
      <trkpt lat="45.88023" lon="4.73656">
        <ele>189</ele>
        <time>2018-05-18T09:06:14Z</time>
      </trkpt>
      <trkpt lat="45.88018" lon="4.73655">
        <ele>189</ele>
        <time>2018-05-18T09:06:15Z</time>
      </trkpt>
      <trkpt lat="45.88013" lon="4.73655">
        <ele>189</ele>
        <time>2018-05-18T09:06:16Z</time>
      </trkpt>
      <trkpt lat="45.88008" lon="4.73655">
        <ele>189</ele>
        <time>2018-05-18T09:06:17Z</time>
      </trkpt>
      <trkpt lat="45.88003" lon="4.73654">
        <ele>189</ele>
        <time>2018-05-18T09:06:18Z</time>
      </trkpt>
      <trkpt lat="45.87998" lon="4.73653">
        <ele>190</ele>
        <time>2018-05-18T09:06:19Z</time>
      </trkpt>
      <trkpt lat="45.87994" lon="4.73652">
        <ele>190</ele>
        <time>2018-05-18T09:06:20Z</time>
      </trkpt>
      <trkpt lat="45.8799" lon="4.7365">
        <ele>190</ele>
        <time>2018-05-18T09:06:21Z</time>
      </trkpt>
      <trkpt lat="45.87984" lon="4.73647">
        <ele>190</ele>
        <time>2018-05-18T09:06:22Z</time>
      </trkpt>
      <trkpt lat="45.87979" lon="4.73646">
        <ele>190</ele>
        <time>2018-05-18T09:06:23Z</time>
      </trkpt>
      <trkpt lat="45.87974" lon="4.73645">
        <ele>189</ele>
        <time>2018-05-18T09:06:24Z</time>
      </trkpt>
      <trkpt lat="45.87968" lon="4.73643">
        <ele>189</ele>
        <time>2018-05-18T09:06:25Z</time>
      </trkpt>
      <trkpt lat="45.8796" lon="4.73641">
        <ele>189</ele>
        <time>2018-05-18T09:06:26Z</time>
      </trkpt>
      <trkpt lat="45.87954" lon="4.73639">
        <ele>189</ele>
        <time>2018-05-18T09:06:27Z</time>
      </trkpt>
      <trkpt lat="45.87948" lon="4.73638">
        <ele>190</ele>
        <time>2018-05-18T09:06:28Z</time>
      </trkpt>
      <trkpt lat="45.87943" lon="4.73636">
        <ele>190</ele>
        <time>2018-05-18T09:06:29Z</time>
      </trkpt>
      <trkpt lat="45.87937" lon="4.73634">
        <ele>189</ele>
        <time>2018-05-18T09:06:30Z</time>
      </trkpt>
      <trkpt lat="45.87932" lon="4.73632">
        <ele>189</ele>
        <time>2018-05-18T09:06:31Z</time>
      </trkpt>
      <trkpt lat="45.87928" lon="4.7363">
        <ele>189</ele>
        <time>2018-05-18T09:06:32Z</time>
      </trkpt>
      <trkpt lat="45.87924" lon="4.73628">
        <ele>189</ele>
        <time>2018-05-18T09:06:33Z</time>
      </trkpt>
      <trkpt lat="45.87918" lon="4.73626">
        <ele>189</ele>
        <time>2018-05-18T09:06:34Z</time>
      </trkpt>
      <trkpt lat="45.87913" lon="4.73625">
        <ele>190</ele>
        <time>2018-05-18T09:06:35Z</time>
      </trkpt>
      <trkpt lat="45.87907" lon="4.73622">
        <ele>190</ele>
        <time>2018-05-18T09:06:36Z</time>
      </trkpt>
      <trkpt lat="45.87902" lon="4.73621">
        <ele>190</ele>
        <time>2018-05-18T09:06:37Z</time>
      </trkpt>
      <trkpt lat="45.87896" lon="4.73619">
        <ele>190</ele>
        <time>2018-05-18T09:06:38Z</time>
      </trkpt>
      <trkpt lat="45.8789" lon="4.73618">
        <ele>190</ele>
        <time>2018-05-18T09:06:39Z</time>
      </trkpt>
      <trkpt lat="45.87885" lon="4.73618">
        <ele>190</ele>
        <time>2018-05-18T09:06:40Z</time>
      </trkpt>
      <trkpt lat="45.8788" lon="4.73618">
        <ele>190</ele>
        <time>2018-05-18T09:06:41Z</time>
      </trkpt>
      <trkpt lat="45.87875" lon="4.73617">
        <ele>190</ele>
        <time>2018-05-18T09:06:42Z</time>
      </trkpt>
      <trkpt lat="45.8787" lon="4.73618">
        <ele>190</ele>
        <time>2018-05-18T09:06:43Z</time>
      </trkpt>
      <trkpt lat="45.87861" lon="4.73623">
        <ele>190</ele>
        <time>2018-05-18T09:06:45Z</time>
      </trkpt>
      <trkpt lat="45.87857" lon="4.73626">
        <ele>190</ele>
        <time>2018-05-18T09:06:46Z</time>
      </trkpt>
      <trkpt lat="45.87849" lon="4.73632">
        <ele>191</ele>
        <time>2018-05-18T09:06:48Z</time>
      </trkpt>
      <trkpt lat="45.87846" lon="4.73635">
        <ele>191</ele>
        <time>2018-05-18T09:06:49Z</time>
      </trkpt>
      <trkpt lat="45.87838" lon="4.73631">
        <ele>191</ele>
        <time>2018-05-18T09:06:51Z</time>
      </trkpt>
      <trkpt lat="45.87834" lon="4.73628">
        <ele>191</ele>
        <time>2018-05-18T09:06:52Z</time>
      </trkpt>
      <trkpt lat="45.87833" lon="4.73622">
        <ele>190</ele>
        <time>2018-05-18T09:06:53Z</time>
      </trkpt>
      <trkpt lat="45.87829" lon="4.73616">
        <ele>190</ele>
        <time>2018-05-18T09:06:54Z</time>
      </trkpt>
      <trkpt lat="45.87826" lon="4.7361">
        <ele>190</ele>
        <time>2018-05-18T09:06:55Z</time>
      </trkpt>
      <trkpt lat="45.87824" lon="4.73604">
        <ele>190</ele>
        <time>2018-05-18T09:06:56Z</time>
      </trkpt>
      <trkpt lat="45.87821" lon="4.73597">
        <ele>190</ele>
        <time>2018-05-18T09:06:57Z</time>
      </trkpt>
      <trkpt lat="45.87818" lon="4.73589">
        <ele>190</ele>
        <time>2018-05-18T09:06:58Z</time>
      </trkpt>
      <trkpt lat="45.87814" lon="4.73582">
        <ele>189</ele>
        <time>2018-05-18T09:06:59Z</time>
      </trkpt>
      <trkpt lat="45.87811" lon="4.73574">
        <ele>189</ele>
        <time>2018-05-18T09:07:00Z</time>
      </trkpt>
      <trkpt lat="45.87808" lon="4.73567">
        <ele>189</ele>
        <time>2018-05-18T09:07:01Z</time>
      </trkpt>
      <trkpt lat="45.87805" lon="4.73561">
        <ele>189</ele>
        <time>2018-05-18T09:07:02Z</time>
      </trkpt>
      <trkpt lat="45.87802" lon="4.73554">
        <ele>189</ele>
        <time>2018-05-18T09:07:03Z</time>
      </trkpt>
      <trkpt lat="45.87798" lon="4.73546">
        <ele>189</ele>
        <time>2018-05-18T09:07:04Z</time>
      </trkpt>
      <trkpt lat="45.87794" lon="4.73539">
        <ele>189</ele>
        <time>2018-05-18T09:07:05Z</time>
      </trkpt>
      <trkpt lat="45.87791" lon="4.73531">
        <ele>189</ele>
        <time>2018-05-18T09:07:06Z</time>
      </trkpt>
      <trkpt lat="45.87787" lon="4.73524">
        <ele>189</ele>
        <time>2018-05-18T09:07:07Z</time>
      </trkpt>
      <trkpt lat="45.87783" lon="4.73517">
        <ele>189</ele>
        <time>2018-05-18T09:07:08Z</time>
      </trkpt>
      <trkpt lat="45.8778" lon="4.73509">
        <ele>189</ele>
        <time>2018-05-18T09:07:09Z</time>
      </trkpt>
      <trkpt lat="45.87776" lon="4.73501">
        <ele>189</ele>
        <time>2018-05-18T09:07:10Z</time>
      </trkpt>
      <trkpt lat="45.87772" lon="4.73495">
        <ele>189</ele>
        <time>2018-05-18T09:07:11Z</time>
      </trkpt>
      <trkpt lat="45.87768" lon="4.73487">
        <ele>189</ele>
        <time>2018-05-18T09:07:12Z</time>
      </trkpt>
      <trkpt lat="45.87765" lon="4.7348">
        <ele>188</ele>
        <time>2018-05-18T09:07:13Z</time>
      </trkpt>
      <trkpt lat="45.87762" lon="4.73473">
        <ele>188</ele>
        <time>2018-05-18T09:07:14Z</time>
      </trkpt>
      <trkpt lat="45.87759" lon="4.73466">
        <ele>188</ele>
        <time>2018-05-18T09:07:15Z</time>
      </trkpt>
      <trkpt lat="45.87757" lon="4.73459">
        <ele>188</ele>
        <time>2018-05-18T09:07:16Z</time>
      </trkpt>
      <trkpt lat="45.87754" lon="4.73453">
        <ele>188</ele>
        <time>2018-05-18T09:07:17Z</time>
      </trkpt>
      <trkpt lat="45.87752" lon="4.73447">
        <ele>188</ele>
        <time>2018-05-18T09:07:18Z</time>
      </trkpt>
      <trkpt lat="45.87748" lon="4.7344">
        <ele>189</ele>
        <time>2018-05-18T09:07:19Z</time>
      </trkpt>
      <trkpt lat="45.87745" lon="4.73433">
        <ele>188</ele>
        <time>2018-05-18T09:07:20Z</time>
      </trkpt>
      <trkpt lat="45.87741" lon="4.73427">
        <ele>188</ele>
        <time>2018-05-18T09:07:21Z</time>
      </trkpt>
      <trkpt lat="45.87738" lon="4.73419">
        <ele>188</ele>
        <time>2018-05-18T09:07:22Z</time>
      </trkpt>
      <trkpt lat="45.87735" lon="4.73413">
        <ele>188</ele>
        <time>2018-05-18T09:07:23Z</time>
      </trkpt>
      <trkpt lat="45.87732" lon="4.73406">
        <ele>188</ele>
        <time>2018-05-18T09:07:24Z</time>
      </trkpt>
      <trkpt lat="45.87729" lon="4.73399">
        <ele>188</ele>
        <time>2018-05-18T09:07:25Z</time>
      </trkpt>
      <trkpt lat="45.87726" lon="4.73392">
        <ele>188</ele>
        <time>2018-05-18T09:07:26Z</time>
      </trkpt>
      <trkpt lat="45.87724" lon="4.73386">
        <ele>188</ele>
        <time>2018-05-18T09:07:27Z</time>
      </trkpt>
      <trkpt lat="45.8772" lon="4.73379">
        <ele>187</ele>
        <time>2018-05-18T09:07:28Z</time>
      </trkpt>
      <trkpt lat="45.87717" lon="4.73372">
        <ele>187</ele>
        <time>2018-05-18T09:07:29Z</time>
      </trkpt>
      <trkpt lat="45.87714" lon="4.73365">
        <ele>187</ele>
        <time>2018-05-18T09:07:30Z</time>
      </trkpt>
      <trkpt lat="45.8771" lon="4.73358">
        <ele>187</ele>
        <time>2018-05-18T09:07:31Z</time>
      </trkpt>
      <trkpt lat="45.87706" lon="4.7335">
        <ele>187</ele>
        <time>2018-05-18T09:07:32Z</time>
      </trkpt>
      <trkpt lat="45.87703" lon="4.73343">
        <ele>187</ele>
        <time>2018-05-18T09:07:33Z</time>
      </trkpt>
      <trkpt lat="45.877" lon="4.73336">
        <ele>187</ele>
        <time>2018-05-18T09:07:34Z</time>
      </trkpt>
      <trkpt lat="45.87696" lon="4.73329">
        <ele>188</ele>
        <time>2018-05-18T09:07:35Z</time>
      </trkpt>
      <trkpt lat="45.87693" lon="4.73321">
        <ele>188</ele>
        <time>2018-05-18T09:07:36Z</time>
      </trkpt>
      <trkpt lat="45.8769" lon="4.73316">
        <ele>188</ele>
        <time>2018-05-18T09:07:37Z</time>
      </trkpt>
      <trkpt lat="45.87687" lon="4.7331">
        <ele>188</ele>
        <time>2018-05-18T09:07:38Z</time>
      </trkpt>
      <trkpt lat="45.87684" lon="4.73303">
        <ele>188</ele>
        <time>2018-05-18T09:07:39Z</time>
      </trkpt>
      <trkpt lat="45.87681" lon="4.73296">
        <ele>188</ele>
        <time>2018-05-18T09:07:40Z</time>
      </trkpt>
      <trkpt lat="45.87678" lon="4.7329">
        <ele>188</ele>
        <time>2018-05-18T09:07:41Z</time>
      </trkpt>
      <trkpt lat="45.87676" lon="4.73283">
        <ele>188</ele>
        <time>2018-05-18T09:07:42Z</time>
      </trkpt>
      <trkpt lat="45.87673" lon="4.73276">
        <ele>188</ele>
        <time>2018-05-18T09:07:43Z</time>
      </trkpt>
      <trkpt lat="45.8767" lon="4.73269">
        <ele>188</ele>
        <time>2018-05-18T09:07:44Z</time>
      </trkpt>
      <trkpt lat="45.87665" lon="4.73263">
        <ele>189</ele>
        <time>2018-05-18T09:07:45Z</time>
      </trkpt>
      <trkpt lat="45.87663" lon="4.73255">
        <ele>189</ele>
        <time>2018-05-18T09:07:46Z</time>
      </trkpt>
      <trkpt lat="45.87659" lon="4.73247">
        <ele>189</ele>
        <time>2018-05-18T09:07:47Z</time>
      </trkpt>
      <trkpt lat="45.87656" lon="4.7324">
        <ele>188</ele>
        <time>2018-05-18T09:07:48Z</time>
      </trkpt>
      <trkpt lat="45.87651" lon="4.73234">
        <ele>188</ele>
        <time>2018-05-18T09:07:49Z</time>
      </trkpt>
      <trkpt lat="45.87648" lon="4.73226">
        <ele>188</ele>
        <time>2018-05-18T09:07:50Z</time>
      </trkpt>
      <trkpt lat="45.87644" lon="4.73218">
        <ele>188</ele>
        <time>2018-05-18T09:07:51Z</time>
      </trkpt>
      <trkpt lat="45.87641" lon="4.7321">
        <ele>188</ele>
        <time>2018-05-18T09:07:52Z</time>
      </trkpt>
      <trkpt lat="45.87637" lon="4.73203">
        <ele>188</ele>
        <time>2018-05-18T09:07:53Z</time>
      </trkpt>
      <trkpt lat="45.87633" lon="4.73196">
        <ele>188</ele>
        <time>2018-05-18T09:07:54Z</time>
      </trkpt>
      <trkpt lat="45.87629" lon="4.73188">
        <ele>188</ele>
        <time>2018-05-18T09:07:55Z</time>
      </trkpt>
      <trkpt lat="45.87625" lon="4.73181">
        <ele>188</ele>
        <time>2018-05-18T09:07:56Z</time>
      </trkpt>
      <trkpt lat="45.87622" lon="4.73174">
        <ele>187</ele>
        <time>2018-05-18T09:07:57Z</time>
      </trkpt>
      <trkpt lat="45.87618" lon="4.73167">
        <ele>187</ele>
        <time>2018-05-18T09:07:58Z</time>
      </trkpt>
      <trkpt lat="45.87614" lon="4.73162">
        <ele>187</ele>
        <time>2018-05-18T09:07:59Z</time>
      </trkpt>
      <trkpt lat="45.87611" lon="4.73155">
        <ele>187</ele>
        <time>2018-05-18T09:08:00Z</time>
      </trkpt>
      <trkpt lat="45.87607" lon="4.73148">
        <ele>187</ele>
        <time>2018-05-18T09:08:01Z</time>
      </trkpt>
      <trkpt lat="45.87604" lon="4.7314">
        <ele>187</ele>
        <time>2018-05-18T09:08:02Z</time>
      </trkpt>
      <trkpt lat="45.876" lon="4.73132">
        <ele>187</ele>
        <time>2018-05-18T09:08:03Z</time>
      </trkpt>
      <trkpt lat="45.87596" lon="4.73123">
        <ele>188</ele>
        <time>2018-05-18T09:08:04Z</time>
      </trkpt>
      <trkpt lat="45.87592" lon="4.73115">
        <ele>188</ele>
        <time>2018-05-18T09:08:05Z</time>
      </trkpt>
      <trkpt lat="45.87587" lon="4.73108">
        <ele>188</ele>
        <time>2018-05-18T09:08:06Z</time>
      </trkpt>
      <trkpt lat="45.87583" lon="4.731">
        <ele>188</ele>
        <time>2018-05-18T09:08:07Z</time>
      </trkpt>
      <trkpt lat="45.8758" lon="4.73092">
        <ele>188</ele>
        <time>2018-05-18T09:08:08Z</time>
      </trkpt>
      <trkpt lat="45.87575" lon="4.73085">
        <ele>188</ele>
        <time>2018-05-18T09:08:09Z</time>
      </trkpt>
      <trkpt lat="45.87571" lon="4.73077">
        <ele>188</ele>
        <time>2018-05-18T09:08:10Z</time>
      </trkpt>
      <trkpt lat="45.87568" lon="4.7307">
        <ele>188</ele>
        <time>2018-05-18T09:08:11Z</time>
      </trkpt>
      <trkpt lat="45.87565" lon="4.73063">
        <ele>188</ele>
        <time>2018-05-18T09:08:12Z</time>
      </trkpt>
      <trkpt lat="45.87562" lon="4.73056">
        <ele>188</ele>
        <time>2018-05-18T09:08:13Z</time>
      </trkpt>
      <trkpt lat="45.87559" lon="4.7305">
        <ele>188</ele>
        <time>2018-05-18T09:08:14Z</time>
      </trkpt>
      <trkpt lat="45.87557" lon="4.73042">
        <ele>188</ele>
        <time>2018-05-18T09:08:15Z</time>
      </trkpt>
      <trkpt lat="45.87553" lon="4.73036">
        <ele>188</ele>
        <time>2018-05-18T09:08:16Z</time>
      </trkpt>
      <trkpt lat="45.8755" lon="4.73029">
        <ele>188</ele>
        <time>2018-05-18T09:08:17Z</time>
      </trkpt>
      <trkpt lat="45.87546" lon="4.73023">
        <ele>188</ele>
        <time>2018-05-18T09:08:18Z</time>
      </trkpt>
      <trkpt lat="45.87544" lon="4.73015">
        <ele>188</ele>
        <time>2018-05-18T09:08:19Z</time>
      </trkpt>
      <trkpt lat="45.8754" lon="4.7301">
        <ele>187</ele>
        <time>2018-05-18T09:08:20Z</time>
      </trkpt>
      <trkpt lat="45.87536" lon="4.73003">
        <ele>187</ele>
        <time>2018-05-18T09:08:21Z</time>
      </trkpt>
      <trkpt lat="45.87531" lon="4.72996">
        <ele>187</ele>
        <time>2018-05-18T09:08:22Z</time>
      </trkpt>
      <trkpt lat="45.87528" lon="4.72988">
        <ele>187</ele>
        <time>2018-05-18T09:08:23Z</time>
      </trkpt>
      <trkpt lat="45.87525" lon="4.72981">
        <ele>187</ele>
        <time>2018-05-18T09:08:24Z</time>
      </trkpt>
      <trkpt lat="45.8752" lon="4.72974">
        <ele>187</ele>
        <time>2018-05-18T09:08:25Z</time>
      </trkpt>
      <trkpt lat="45.87517" lon="4.72967">
        <ele>187</ele>
        <time>2018-05-18T09:08:26Z</time>
      </trkpt>
      <trkpt lat="45.87512" lon="4.72961">
        <ele>187</ele>
        <time>2018-05-18T09:08:27Z</time>
      </trkpt>
      <trkpt lat="45.87508" lon="4.72955">
        <ele>187</ele>
        <time>2018-05-18T09:08:28Z</time>
      </trkpt>
      <trkpt lat="45.87503" lon="4.7295">
        <ele>187</ele>
        <time>2018-05-18T09:08:29Z</time>
      </trkpt>
      <trkpt lat="45.87498" lon="4.72945">
        <ele>188</ele>
        <time>2018-05-18T09:08:30Z</time>
      </trkpt>
      <trkpt lat="45.87492" lon="4.72941">
        <ele>188</ele>
        <time>2018-05-18T09:08:31Z</time>
      </trkpt>
      <trkpt lat="45.87486" lon="4.72937">
        <ele>188</ele>
        <time>2018-05-18T09:08:32Z</time>
      </trkpt>
      <trkpt lat="45.87481" lon="4.72932">
        <ele>188</ele>
        <time>2018-05-18T09:08:33Z</time>
      </trkpt>
      <trkpt lat="45.87476" lon="4.72926">
        <ele>188</ele>
        <time>2018-05-18T09:08:34Z</time>
      </trkpt>
      <trkpt lat="45.87474" lon="4.7292">
        <ele>188</ele>
        <time>2018-05-18T09:08:35Z</time>
      </trkpt>
      <trkpt lat="45.87471" lon="4.72912">
        <ele>188</ele>
        <time>2018-05-18T09:08:36Z</time>
      </trkpt>
      <trkpt lat="45.87469" lon="4.72906">
        <ele>188</ele>
        <time>2018-05-18T09:08:37Z</time>
      </trkpt>
      <trkpt lat="45.87468" lon="4.72899">
        <ele>188</ele>
        <time>2018-05-18T09:08:38Z</time>
      </trkpt>
      <trkpt lat="45.87466" lon="4.72892">
        <ele>188</ele>
        <time>2018-05-18T09:08:39Z</time>
      </trkpt>
      <trkpt lat="45.87464" lon="4.72885">
        <ele>188</ele>
        <time>2018-05-18T09:08:40Z</time>
      </trkpt>
      <trkpt lat="45.87461" lon="4.72878">
        <ele>188</ele>
        <time>2018-05-18T09:08:41Z</time>
      </trkpt>
      <trkpt lat="45.87458" lon="4.72872">
        <ele>188</ele>
        <time>2018-05-18T09:08:42Z</time>
      </trkpt>
      <trkpt lat="45.87456" lon="4.72863">
        <ele>188</ele>
        <time>2018-05-18T09:08:43Z</time>
      </trkpt>
      <trkpt lat="45.87453" lon="4.72856">
        <ele>188</ele>
        <time>2018-05-18T09:08:44Z</time>
      </trkpt>
      <trkpt lat="45.8745" lon="4.72849">
        <ele>188</ele>
        <time>2018-05-18T09:08:45Z</time>
      </trkpt>
      <trkpt lat="45.87446" lon="4.72841">
        <ele>188</ele>
        <time>2018-05-18T09:08:46Z</time>
      </trkpt>
      <trkpt lat="45.87444" lon="4.72833">
        <ele>189</ele>
        <time>2018-05-18T09:08:47Z</time>
      </trkpt>
      <trkpt lat="45.87441" lon="4.72825">
        <ele>189</ele>
        <time>2018-05-18T09:08:48Z</time>
      </trkpt>
      <trkpt lat="45.87438" lon="4.72819">
        <ele>189</ele>
        <time>2018-05-18T09:08:49Z</time>
      </trkpt>
      <trkpt lat="45.87435" lon="4.72812">
        <ele>189</ele>
        <time>2018-05-18T09:08:50Z</time>
      </trkpt>
      <trkpt lat="45.87432" lon="4.72805">
        <ele>189</ele>
        <time>2018-05-18T09:08:51Z</time>
      </trkpt>
      <trkpt lat="45.87429" lon="4.72799">
        <ele>189</ele>
        <time>2018-05-18T09:08:52Z</time>
      </trkpt>
      <trkpt lat="45.87425" lon="4.72796">
        <ele>189</ele>
        <time>2018-05-18T09:08:53Z</time>
      </trkpt>
      <trkpt lat="45.87422" lon="4.72791">
        <ele>189</ele>
        <time>2018-05-18T09:08:54Z</time>
      </trkpt>
      <trkpt lat="45.87419" lon="4.72787">
        <ele>189</ele>
        <time>2018-05-18T09:08:55Z</time>
      </trkpt>
      <trkpt lat="45.87416" lon="4.7278">
        <ele>189</ele>
        <time>2018-05-18T09:08:56Z</time>
      </trkpt>
      <trkpt lat="45.87413" lon="4.72772">
        <ele>189</ele>
        <time>2018-05-18T09:08:57Z</time>
      </trkpt>
      <trkpt lat="45.87409" lon="4.72765">
        <ele>189</ele>
        <time>2018-05-18T09:08:58Z</time>
      </trkpt>
      <trkpt lat="45.87406" lon="4.72759">
        <ele>189</ele>
        <time>2018-05-18T09:08:59Z</time>
      </trkpt>
      <trkpt lat="45.87403" lon="4.72752">
        <ele>189</ele>
        <time>2018-05-18T09:09:00Z</time>
      </trkpt>
      <trkpt lat="45.874" lon="4.72746">
        <ele>189</ele>
        <time>2018-05-18T09:09:01Z</time>
      </trkpt>
      <trkpt lat="45.87396" lon="4.72742">
        <ele>189</ele>
        <time>2018-05-18T09:09:02Z</time>
      </trkpt>
      <trkpt lat="45.87392" lon="4.72737">
        <ele>190</ele>
        <time>2018-05-18T09:09:03Z</time>
      </trkpt>
      <trkpt lat="45.87388" lon="4.72732">
        <ele>190</ele>
        <time>2018-05-18T09:09:04Z</time>
      </trkpt>
      <trkpt lat="45.87385" lon="4.72726">
        <ele>190</ele>
        <time>2018-05-18T09:09:05Z</time>
      </trkpt>
      <trkpt lat="45.87383" lon="4.7272">
        <ele>190</ele>
        <time>2018-05-18T09:09:06Z</time>
      </trkpt>
      <trkpt lat="45.8738" lon="4.72713">
        <ele>190</ele>
        <time>2018-05-18T09:09:07Z</time>
      </trkpt>
      <trkpt lat="45.87378" lon="4.72706">
        <ele>190</ele>
        <time>2018-05-18T09:09:08Z</time>
      </trkpt>
      <trkpt lat="45.87375" lon="4.72699">
        <ele>190</ele>
        <time>2018-05-18T09:09:09Z</time>
      </trkpt>
      <trkpt lat="45.87372" lon="4.72692">
        <ele>190</ele>
        <time>2018-05-18T09:09:10Z</time>
      </trkpt>
      <trkpt lat="45.87367" lon="4.72686">
        <ele>190</ele>
        <time>2018-05-18T09:09:11Z</time>
      </trkpt>
      <trkpt lat="45.87363" lon="4.7268">
        <ele>190</ele>
        <time>2018-05-18T09:09:12Z</time>
      </trkpt>
      <trkpt lat="45.87357" lon="4.72674">
        <ele>190</ele>
        <time>2018-05-18T09:09:13Z</time>
      </trkpt>
      <trkpt lat="45.87353" lon="4.72669">
        <ele>190</ele>
        <time>2018-05-18T09:09:14Z</time>
      </trkpt>
      <trkpt lat="45.87348" lon="4.72664">
        <ele>190</ele>
        <time>2018-05-18T09:09:15Z</time>
      </trkpt>
      <trkpt lat="45.87344" lon="4.7266">
        <ele>190</ele>
        <time>2018-05-18T09:09:16Z</time>
      </trkpt>
      <trkpt lat="45.87339" lon="4.72657">
        <ele>190</ele>
        <time>2018-05-18T09:09:17Z</time>
      </trkpt>
      <trkpt lat="45.87336" lon="4.72652">
        <ele>190</ele>
        <time>2018-05-18T09:09:18Z</time>
      </trkpt>
      <trkpt lat="45.87332" lon="4.72648">
        <ele>192</ele>
        <time>2018-05-18T09:09:19Z</time>
      </trkpt>
      <trkpt lat="45.87327" lon="4.72643">
        <ele>192</ele>
        <time>2018-05-18T09:09:20Z</time>
      </trkpt>
      <trkpt lat="45.87323" lon="4.7264">
        <ele>192</ele>
        <time>2018-05-18T09:09:21Z</time>
      </trkpt>
      <trkpt lat="45.87318" lon="4.72637">
        <ele>193</ele>
        <time>2018-05-18T09:09:22Z</time>
      </trkpt>
      <trkpt lat="45.87315" lon="4.72632">
        <ele>193</ele>
        <time>2018-05-18T09:09:23Z</time>
      </trkpt>
      <trkpt lat="45.87311" lon="4.72629">
        <ele>193</ele>
        <time>2018-05-18T09:09:24Z</time>
      </trkpt>
      <trkpt lat="45.87307" lon="4.72625">
        <ele>193</ele>
        <time>2018-05-18T09:09:25Z</time>
      </trkpt>
      <trkpt lat="45.87303" lon="4.7262">
        <ele>193</ele>
        <time>2018-05-18T09:09:26Z</time>
      </trkpt>
      <trkpt lat="45.873" lon="4.72615">
        <ele>194</ele>
        <time>2018-05-18T09:09:27Z</time>
      </trkpt>
      <trkpt lat="45.87295" lon="4.72611">
        <ele>194</ele>
        <time>2018-05-18T09:09:28Z</time>
      </trkpt>
      <trkpt lat="45.87291" lon="4.72605">
        <ele>194</ele>
        <time>2018-05-18T09:09:29Z</time>
      </trkpt>
      <trkpt lat="45.87286" lon="4.72599">
        <ele>194</ele>
        <time>2018-05-18T09:09:30Z</time>
      </trkpt>
      <trkpt lat="45.87282" lon="4.72593">
        <ele>194</ele>
        <time>2018-05-18T09:09:31Z</time>
      </trkpt>
      <trkpt lat="45.87278" lon="4.72588">
        <ele>195</ele>
        <time>2018-05-18T09:09:32Z</time>
      </trkpt>
      <trkpt lat="45.87274" lon="4.72582">
        <ele>195</ele>
        <time>2018-05-18T09:09:33Z</time>
      </trkpt>
      <trkpt lat="45.87269" lon="4.72577">
        <ele>195</ele>
        <time>2018-05-18T09:09:34Z</time>
      </trkpt>
      <trkpt lat="45.87265" lon="4.72568">
        <ele>195</ele>
        <time>2018-05-18T09:09:36Z</time>
      </trkpt>
      <trkpt lat="45.87263" lon="4.72564">
        <ele>195</ele>
        <time>2018-05-18T09:09:37Z</time>
      </trkpt>
      <trkpt lat="45.87257" lon="4.72554">
        <ele>194</ele>
        <time>2018-05-18T09:09:39Z</time>
      </trkpt>
      <trkpt lat="45.87256" lon="4.72551">
        <ele>194</ele>
        <time>2018-05-18T09:09:40Z</time>
      </trkpt>
      <trkpt lat="45.87253" lon="4.72541">
        <ele>194</ele>
        <time>2018-05-18T09:09:43Z</time>
      </trkpt>
      <trkpt lat="45.87252" lon="4.72537">
        <ele>194</ele>
        <time>2018-05-18T09:09:44Z</time>
      </trkpt>
      <trkpt lat="45.87247" lon="4.72525">
        <ele>196</ele>
        <time>2018-05-18T09:09:45Z</time>
      </trkpt>
      <trkpt lat="45.87242" lon="4.72516">
        <ele>196</ele>
        <time>2018-05-18T09:09:47Z</time>
      </trkpt>
      <trkpt lat="45.87236" lon="4.72513">
        <ele>196</ele>
        <time>2018-05-18T09:09:48Z</time>
      </trkpt>
      <trkpt lat="45.87233" lon="4.72507">
        <ele>196</ele>
        <time>2018-05-18T09:09:49Z</time>
      </trkpt>
      <trkpt lat="45.8723" lon="4.72502">
        <ele>196</ele>
        <time>2018-05-18T09:09:50Z</time>
      </trkpt>
      <trkpt lat="45.87227" lon="4.72496">
        <ele>194</ele>
        <time>2018-05-18T09:09:51Z</time>
      </trkpt>
      <trkpt lat="45.87224" lon="4.72491">
        <ele>194</ele>
        <time>2018-05-18T09:09:52Z</time>
      </trkpt>
      <trkpt lat="45.87222" lon="4.72485">
        <ele>194</ele>
        <time>2018-05-18T09:09:53Z</time>
      </trkpt>
      <trkpt lat="45.87219" lon="4.72479">
        <ele>194</ele>
        <time>2018-05-18T09:09:54Z</time>
      </trkpt>
      <trkpt lat="45.87214" lon="4.72469">
        <ele>194</ele>
        <time>2018-05-18T09:09:56Z</time>
      </trkpt>
      <trkpt lat="45.87211" lon="4.72465">
        <ele>194</ele>
        <time>2018-05-18T09:09:57Z</time>
      </trkpt>
      <trkpt lat="45.87207" lon="4.7246">
        <ele>194</ele>
        <time>2018-05-18T09:09:58Z</time>
      </trkpt>
      <trkpt lat="45.87203" lon="4.72457">
        <ele>194</ele>
        <time>2018-05-18T09:09:59Z</time>
      </trkpt>
      <trkpt lat="45.87197" lon="4.72448">
        <ele>194</ele>
        <time>2018-05-18T09:10:01Z</time>
      </trkpt>
      <trkpt lat="45.87194" lon="4.72444">
        <ele>194</ele>
        <time>2018-05-18T09:10:02Z</time>
      </trkpt>
      <trkpt lat="45.87189" lon="4.72434">
        <ele>194</ele>
        <time>2018-05-18T09:10:04Z</time>
      </trkpt>
      <trkpt lat="45.87188" lon="4.72432">
        <ele>194</ele>
        <time>2018-05-18T09:10:05Z</time>
      </trkpt>
      <trkpt lat="45.87184" lon="4.72424">
        <ele>194</ele>
        <time>2018-05-18T09:10:08Z</time>
      </trkpt>
      <trkpt lat="45.87182" lon="4.72421">
        <ele>194</ele>
        <time>2018-05-18T09:10:09Z</time>
      </trkpt>
      <trkpt lat="45.87178" lon="4.72416">
        <ele>192</ele>
        <time>2018-05-18T09:10:11Z</time>
      </trkpt>
      <trkpt lat="45.87171" lon="4.72407">
        <ele>192</ele>
        <time>2018-05-18T09:10:12Z</time>
      </trkpt>
      <trkpt lat="45.87167" lon="4.72398">
        <ele>191</ele>
        <time>2018-05-18T09:10:14Z</time>
      </trkpt>
      <trkpt lat="45.87164" lon="4.72392">
        <ele>197</ele>
        <time>2018-05-18T09:10:15Z</time>
      </trkpt>
      <trkpt lat="45.87162" lon="4.72386">
        <ele>197</ele>
        <time>2018-05-18T09:10:16Z</time>
      </trkpt>
      <trkpt lat="45.8716" lon="4.7238">
        <ele>197</ele>
        <time>2018-05-18T09:10:17Z</time>
      </trkpt>
      <trkpt lat="45.87156" lon="4.72374">
        <ele>197</ele>
        <time>2018-05-18T09:10:18Z</time>
      </trkpt>
      <trkpt lat="45.87155" lon="4.72368">
        <ele>197</ele>
        <time>2018-05-18T09:10:19Z</time>
      </trkpt>
      <trkpt lat="45.87152" lon="4.72361">
        <ele>196</ele>
        <time>2018-05-18T09:10:20Z</time>
      </trkpt>
      <trkpt lat="45.87149" lon="4.72355">
        <ele>196</ele>
        <time>2018-05-18T09:10:21Z</time>
      </trkpt>
      <trkpt lat="45.87144" lon="4.72349">
        <ele>196</ele>
        <time>2018-05-18T09:10:22Z</time>
      </trkpt>
      <trkpt lat="45.87141" lon="4.72343">
        <ele>196</ele>
        <time>2018-05-18T09:10:23Z</time>
      </trkpt>
      <trkpt lat="45.87139" lon="4.72336">
        <ele>197</ele>
        <time>2018-05-18T09:10:24Z</time>
      </trkpt>
      <trkpt lat="45.87135" lon="4.72329">
        <ele>195</ele>
        <time>2018-05-18T09:10:25Z</time>
      </trkpt>
      <trkpt lat="45.87131" lon="4.72322">
        <ele>196</ele>
        <time>2018-05-18T09:10:26Z</time>
      </trkpt>
      <trkpt lat="45.87127" lon="4.72315">
        <ele>196</ele>
        <time>2018-05-18T09:10:27Z</time>
      </trkpt>
      <trkpt lat="45.87124" lon="4.72309">
        <ele>197</ele>
        <time>2018-05-18T09:10:28Z</time>
      </trkpt>
      <trkpt lat="45.8712" lon="4.72301">
        <ele>197</ele>
        <time>2018-05-18T09:10:29Z</time>
      </trkpt>
      <trkpt lat="45.87116" lon="4.72295">
        <ele>197</ele>
        <time>2018-05-18T09:10:30Z</time>
      </trkpt>
      <trkpt lat="45.87113" lon="4.72287">
        <ele>197</ele>
        <time>2018-05-18T09:10:31Z</time>
      </trkpt>
      <trkpt lat="45.87108" lon="4.7228">
        <ele>197</ele>
        <time>2018-05-18T09:10:32Z</time>
      </trkpt>
      <trkpt lat="45.87104" lon="4.72274">
        <ele>197</ele>
        <time>2018-05-18T09:10:33Z</time>
      </trkpt>
      <trkpt lat="45.87099" lon="4.72267">
        <ele>197</ele>
        <time>2018-05-18T09:10:34Z</time>
      </trkpt>
      <trkpt lat="45.87093" lon="4.72261">
        <ele>198</ele>
        <time>2018-05-18T09:10:35Z</time>
      </trkpt>
      <trkpt lat="45.87089" lon="4.72256">
        <ele>198</ele>
        <time>2018-05-18T09:10:36Z</time>
      </trkpt>
      <trkpt lat="45.87085" lon="4.7225">
        <ele>199</ele>
        <time>2018-05-18T09:10:37Z</time>
      </trkpt>
      <trkpt lat="45.87079" lon="4.72245">
        <ele>199</ele>
        <time>2018-05-18T09:10:38Z</time>
      </trkpt>
      <trkpt lat="45.87074" lon="4.7224">
        <ele>200</ele>
        <time>2018-05-18T09:10:39Z</time>
      </trkpt>
      <trkpt lat="45.87069" lon="4.72234">
        <ele>200</ele>
        <time>2018-05-18T09:10:40Z</time>
      </trkpt>
      <trkpt lat="45.87064" lon="4.72227">
        <ele>200</ele>
        <time>2018-05-18T09:10:41Z</time>
      </trkpt>
      <trkpt lat="45.87059" lon="4.72223">
        <ele>200</ele>
        <time>2018-05-18T09:10:42Z</time>
      </trkpt>
      <trkpt lat="45.87054" lon="4.7222">
        <ele>201</ele>
        <time>2018-05-18T09:10:43Z</time>
      </trkpt>
      <trkpt lat="45.87049" lon="4.72215">
        <ele>201</ele>
        <time>2018-05-18T09:10:44Z</time>
      </trkpt>
      <trkpt lat="45.87044" lon="4.72212">
        <ele>201</ele>
        <time>2018-05-18T09:10:45Z</time>
      </trkpt>
      <trkpt lat="45.87039" lon="4.72207">
        <ele>201</ele>
        <time>2018-05-18T09:10:46Z</time>
      </trkpt>
      <trkpt lat="45.87033" lon="4.72203">
        <ele>201</ele>
        <time>2018-05-18T09:10:47Z</time>
      </trkpt>
      <trkpt lat="45.87028" lon="4.72199">
        <ele>201</ele>
        <time>2018-05-18T09:10:48Z</time>
      </trkpt>
      <trkpt lat="45.87022" lon="4.72195">
        <ele>201</ele>
        <time>2018-05-18T09:10:49Z</time>
      </trkpt>
      <trkpt lat="45.87016" lon="4.72192">
        <ele>201</ele>
        <time>2018-05-18T09:10:50Z</time>
      </trkpt>
      <trkpt lat="45.8701" lon="4.72188">
        <ele>201</ele>
        <time>2018-05-18T09:10:51Z</time>
      </trkpt>
      <trkpt lat="45.87006" lon="4.72184">
        <ele>201</ele>
        <time>2018-05-18T09:10:52Z</time>
      </trkpt>
      <trkpt lat="45.87" lon="4.7218">
        <ele>201</ele>
        <time>2018-05-18T09:10:53Z</time>
      </trkpt>
      <trkpt lat="45.86996" lon="4.72176">
        <ele>205</ele>
        <time>2018-05-18T09:10:54Z</time>
      </trkpt>
      <trkpt lat="45.86991" lon="4.72173">
        <ele>205</ele>
        <time>2018-05-18T09:10:55Z</time>
      </trkpt>
      <trkpt lat="45.86985" lon="4.72169">
        <ele>206</ele>
        <time>2018-05-18T09:10:56Z</time>
      </trkpt>
      <trkpt lat="45.8698" lon="4.72165">
        <ele>201</ele>
        <time>2018-05-18T09:10:57Z</time>
      </trkpt>
      <trkpt lat="45.86975" lon="4.72162">
        <ele>201</ele>
        <time>2018-05-18T09:10:58Z</time>
      </trkpt>
      <trkpt lat="45.8697" lon="4.72159">
        <ele>201</ele>
        <time>2018-05-18T09:10:59Z</time>
      </trkpt>
      <trkpt lat="45.86965" lon="4.72155">
        <ele>201</ele>
        <time>2018-05-18T09:11:00Z</time>
      </trkpt>
      <trkpt lat="45.8696" lon="4.72151">
        <ele>201</ele>
        <time>2018-05-18T09:11:01Z</time>
      </trkpt>
      <trkpt lat="45.86955" lon="4.72147">
        <ele>201</ele>
        <time>2018-05-18T09:11:02Z</time>
      </trkpt>
      <trkpt lat="45.8695" lon="4.72143">
        <ele>201</ele>
        <time>2018-05-18T09:11:03Z</time>
      </trkpt>
      <trkpt lat="45.86945" lon="4.72139">
        <ele>201</ele>
        <time>2018-05-18T09:11:04Z</time>
      </trkpt>
      <trkpt lat="45.8694" lon="4.72135">
        <ele>201</ele>
        <time>2018-05-18T09:11:05Z</time>
      </trkpt>
      <trkpt lat="45.86935" lon="4.72133">
        <ele>201</ele>
        <time>2018-05-18T09:11:06Z</time>
      </trkpt>
      <trkpt lat="45.8693" lon="4.72129">
        <ele>200</ele>
        <time>2018-05-18T09:11:07Z</time>
      </trkpt>
      <trkpt lat="45.86926" lon="4.72126">
        <ele>200</ele>
        <time>2018-05-18T09:11:08Z</time>
      </trkpt>
      <trkpt lat="45.86919" lon="4.72124">
        <ele>200</ele>
        <time>2018-05-18T09:11:09Z</time>
      </trkpt>
      <trkpt lat="45.86912" lon="4.72121">
        <ele>202</ele>
        <time>2018-05-18T09:11:10Z</time>
      </trkpt>
      <trkpt lat="45.86907" lon="4.72119">
        <ele>201</ele>
        <time>2018-05-18T09:11:11Z</time>
      </trkpt>
      <trkpt lat="45.869" lon="4.72117">
        <ele>201</ele>
        <time>2018-05-18T09:11:12Z</time>
      </trkpt>
      <trkpt lat="45.86894" lon="4.72114">
        <ele>201</ele>
        <time>2018-05-18T09:11:13Z</time>
      </trkpt>
      <trkpt lat="45.86889" lon="4.72113">
        <ele>201</ele>
        <time>2018-05-18T09:11:14Z</time>
      </trkpt>
      <trkpt lat="45.86884" lon="4.7211">
        <ele>201</ele>
        <time>2018-05-18T09:11:15Z</time>
      </trkpt>
      <trkpt lat="45.86878" lon="4.72107">
        <ele>201</ele>
        <time>2018-05-18T09:11:16Z</time>
      </trkpt>
      <trkpt lat="45.86871" lon="4.72105">
        <ele>200</ele>
        <time>2018-05-18T09:11:17Z</time>
      </trkpt>
      <trkpt lat="45.86867" lon="4.72103">
        <ele>200</ele>
        <time>2018-05-18T09:11:18Z</time>
      </trkpt>
      <trkpt lat="45.8686" lon="4.72101">
        <ele>200</ele>
        <time>2018-05-18T09:11:19Z</time>
      </trkpt>
      <trkpt lat="45.86855" lon="4.72098">
        <ele>199</ele>
        <time>2018-05-18T09:11:20Z</time>
      </trkpt>
      <trkpt lat="45.86849" lon="4.72096">
        <ele>198</ele>
        <time>2018-05-18T09:11:21Z</time>
      </trkpt>
      <trkpt lat="45.86846" lon="4.72093">
        <ele>197</ele>
        <time>2018-05-18T09:11:22Z</time>
      </trkpt>
      <trkpt lat="45.86841" lon="4.72091">
        <ele>196</ele>
        <time>2018-05-18T09:11:23Z</time>
      </trkpt>
      <trkpt lat="45.86831" lon="4.7209">
        <ele>196</ele>
        <time>2018-05-18T09:11:24Z</time>
      </trkpt>
      <trkpt lat="45.86825" lon="4.72087">
        <ele>197</ele>
        <time>2018-05-18T09:11:25Z</time>
      </trkpt>
      <trkpt lat="45.8682" lon="4.72085">
        <ele>198</ele>
        <time>2018-05-18T09:11:26Z</time>
      </trkpt>
      <trkpt lat="45.86814" lon="4.72082">
        <ele>194</ele>
        <time>2018-05-18T09:11:27Z</time>
      </trkpt>
      <trkpt lat="45.86808" lon="4.72079">
        <ele>194</ele>
        <time>2018-05-18T09:11:28Z</time>
      </trkpt>
      <trkpt lat="45.86802" lon="4.72075">
        <ele>194</ele>
        <time>2018-05-18T09:11:29Z</time>
      </trkpt>
      <trkpt lat="45.86796" lon="4.72073">
        <ele>194</ele>
        <time>2018-05-18T09:11:30Z</time>
      </trkpt>
      <trkpt lat="45.86791" lon="4.72071">
        <ele>194</ele>
        <time>2018-05-18T09:11:31Z</time>
      </trkpt>
      <trkpt lat="45.86783" lon="4.7207">
        <ele>194</ele>
        <time>2018-05-18T09:11:32Z</time>
      </trkpt>
      <trkpt lat="45.86777" lon="4.72067">
        <ele>194</ele>
        <time>2018-05-18T09:11:33Z</time>
      </trkpt>
      <trkpt lat="45.8677" lon="4.72065">
        <ele>195</ele>
        <time>2018-05-18T09:11:34Z</time>
      </trkpt>
      <trkpt lat="45.86764" lon="4.72062">
        <ele>195</ele>
        <time>2018-05-18T09:11:35Z</time>
      </trkpt>
      <trkpt lat="45.86758" lon="4.72059">
        <ele>195</ele>
        <time>2018-05-18T09:11:36Z</time>
      </trkpt>
      <trkpt lat="45.86752" lon="4.72057">
        <ele>195</ele>
        <time>2018-05-18T09:11:37Z</time>
      </trkpt>
      <trkpt lat="45.86746" lon="4.72054">
        <ele>197</ele>
        <time>2018-05-18T09:11:38Z</time>
      </trkpt>
      <trkpt lat="45.8674" lon="4.72051">
        <ele>197</ele>
        <time>2018-05-18T09:11:39Z</time>
      </trkpt>
      <trkpt lat="45.86735" lon="4.72048">
        <ele>197</ele>
        <time>2018-05-18T09:11:40Z</time>
      </trkpt>
      <trkpt lat="45.86728" lon="4.72046">
        <ele>197</ele>
        <time>2018-05-18T09:11:41Z</time>
      </trkpt>
      <trkpt lat="45.86724" lon="4.72043">
        <ele>197</ele>
        <time>2018-05-18T09:11:42Z</time>
      </trkpt>
      <trkpt lat="45.86719" lon="4.7204">
        <ele>197</ele>
        <time>2018-05-18T09:11:43Z</time>
      </trkpt>
      <trkpt lat="45.86715" lon="4.72036">
        <ele>197</ele>
        <time>2018-05-18T09:11:44Z</time>
      </trkpt>
      <trkpt lat="45.8671" lon="4.72033">
        <ele>197</ele>
        <time>2018-05-18T09:11:45Z</time>
      </trkpt>
      <trkpt lat="45.86705" lon="4.72029">
        <ele>197</ele>
        <time>2018-05-18T09:11:46Z</time>
      </trkpt>
      <trkpt lat="45.867" lon="4.72026">
        <ele>197</ele>
        <time>2018-05-18T09:11:47Z</time>
      </trkpt>
      <trkpt lat="45.86695" lon="4.72023">
        <ele>197</ele>
        <time>2018-05-18T09:11:48Z</time>
      </trkpt>
      <trkpt lat="45.8669" lon="4.72019">
        <ele>196</ele>
        <time>2018-05-18T09:11:49Z</time>
      </trkpt>
      <trkpt lat="45.86685" lon="4.72015">
        <ele>196</ele>
        <time>2018-05-18T09:11:50Z</time>
      </trkpt>
      <trkpt lat="45.86681" lon="4.7201">
        <ele>196</ele>
        <time>2018-05-18T09:11:51Z</time>
      </trkpt>
      <trkpt lat="45.86676" lon="4.72005">
        <ele>196</ele>
        <time>2018-05-18T09:11:52Z</time>
      </trkpt>
      <trkpt lat="45.86672" lon="4.71999">
        <ele>195</ele>
        <time>2018-05-18T09:11:53Z</time>
      </trkpt>
      <trkpt lat="45.86666" lon="4.71996">
        <ele>195</ele>
        <time>2018-05-18T09:11:54Z</time>
      </trkpt>
      <trkpt lat="45.8666" lon="4.71993">
        <ele>195</ele>
        <time>2018-05-18T09:11:55Z</time>
      </trkpt>
      <trkpt lat="45.86656" lon="4.71987">
        <ele>195</ele>
        <time>2018-05-18T09:11:56Z</time>
      </trkpt>
      <trkpt lat="45.86651" lon="4.71983">
        <ele>195</ele>
        <time>2018-05-18T09:11:57Z</time>
      </trkpt>
      <trkpt lat="45.86645" lon="4.71979">
        <ele>195</ele>
        <time>2018-05-18T09:11:58Z</time>
      </trkpt>
      <trkpt lat="45.8664" lon="4.71975">
        <ele>195</ele>
        <time>2018-05-18T09:11:59Z</time>
      </trkpt>
      <trkpt lat="45.86634" lon="4.71972">
        <ele>195</ele>
        <time>2018-05-18T09:12:00Z</time>
      </trkpt>
      <trkpt lat="45.86628" lon="4.71968">
        <ele>195</ele>
        <time>2018-05-18T09:12:01Z</time>
      </trkpt>
      <trkpt lat="45.86621" lon="4.71965">
        <ele>195</ele>
        <time>2018-05-18T09:12:02Z</time>
      </trkpt>
      <trkpt lat="45.86616" lon="4.7196">
        <ele>195</ele>
        <time>2018-05-18T09:12:03Z</time>
      </trkpt>
      <trkpt lat="45.86612" lon="4.71956">
        <ele>194</ele>
        <time>2018-05-18T09:12:04Z</time>
      </trkpt>
      <trkpt lat="45.86607" lon="4.71952">
        <ele>194</ele>
        <time>2018-05-18T09:12:05Z</time>
      </trkpt>
      <trkpt lat="45.86601" lon="4.71949">
        <ele>194</ele>
        <time>2018-05-18T09:12:06Z</time>
      </trkpt>
      <trkpt lat="45.86596" lon="4.71946">
        <ele>194</ele>
        <time>2018-05-18T09:12:07Z</time>
      </trkpt>
      <trkpt lat="45.86591" lon="4.71942">
        <ele>194</ele>
        <time>2018-05-18T09:12:08Z</time>
      </trkpt>
      <trkpt lat="45.86586" lon="4.71938">
        <ele>194</ele>
        <time>2018-05-18T09:12:09Z</time>
      </trkpt>
      <trkpt lat="45.8658" lon="4.71935">
        <ele>195</ele>
        <time>2018-05-18T09:12:10Z</time>
      </trkpt>
      <trkpt lat="45.86574" lon="4.71931">
        <ele>195</ele>
        <time>2018-05-18T09:12:11Z</time>
      </trkpt>
      <trkpt lat="45.86568" lon="4.71927">
        <ele>195</ele>
        <time>2018-05-18T09:12:12Z</time>
      </trkpt>
      <trkpt lat="45.86564" lon="4.71922">
        <ele>195</ele>
        <time>2018-05-18T09:12:13Z</time>
      </trkpt>
      <trkpt lat="45.86559" lon="4.71919">
        <ele>196</ele>
        <time>2018-05-18T09:12:14Z</time>
      </trkpt>
      <trkpt lat="45.86553" lon="4.71916">
        <ele>195</ele>
        <time>2018-05-18T09:12:15Z</time>
      </trkpt>
      <trkpt lat="45.86548" lon="4.71911">
        <ele>195</ele>
        <time>2018-05-18T09:12:16Z</time>
      </trkpt>
      <trkpt lat="45.86542" lon="4.71907">
        <ele>195</ele>
        <time>2018-05-18T09:12:17Z</time>
      </trkpt>
      <trkpt lat="45.86536" lon="4.71904">
        <ele>195</ele>
        <time>2018-05-18T09:12:18Z</time>
      </trkpt>
      <trkpt lat="45.86531" lon="4.71899">
        <ele>195</ele>
        <time>2018-05-18T09:12:19Z</time>
      </trkpt>
      <trkpt lat="45.86526" lon="4.71894">
        <ele>195</ele>
        <time>2018-05-18T09:12:20Z</time>
      </trkpt>
      <trkpt lat="45.86521" lon="4.71888">
        <ele>195</ele>
        <time>2018-05-18T09:12:21Z</time>
      </trkpt>
      <trkpt lat="45.86516" lon="4.71884">
        <ele>195</ele>
        <time>2018-05-18T09:12:22Z</time>
      </trkpt>
      <trkpt lat="45.8651" lon="4.71879">
        <ele>195</ele>
        <time>2018-05-18T09:12:23Z</time>
      </trkpt>
      <trkpt lat="45.86505" lon="4.71875">
        <ele>195</ele>
        <time>2018-05-18T09:12:24Z</time>
      </trkpt>
      <trkpt lat="45.86499" lon="4.71872">
        <ele>199</ele>
        <time>2018-05-18T09:12:25Z</time>
      </trkpt>
      <trkpt lat="45.86494" lon="4.71868">
        <ele>198</ele>
        <time>2018-05-18T09:12:26Z</time>
      </trkpt>
      <trkpt lat="45.86488" lon="4.71864">
        <ele>198</ele>
        <time>2018-05-18T09:12:27Z</time>
      </trkpt>
      <trkpt lat="45.86484" lon="4.7186">
        <ele>198</ele>
        <time>2018-05-18T09:12:28Z</time>
      </trkpt>
      <trkpt lat="45.86479" lon="4.71856">
        <ele>199</ele>
        <time>2018-05-18T09:12:29Z</time>
      </trkpt>
      <trkpt lat="45.86475" lon="4.71851">
        <ele>199</ele>
        <time>2018-05-18T09:12:30Z</time>
      </trkpt>
      <trkpt lat="45.8647" lon="4.71847">
        <ele>199</ele>
        <time>2018-05-18T09:12:31Z</time>
      </trkpt>
      <trkpt lat="45.86464" lon="4.71845">
        <ele>199</ele>
        <time>2018-05-18T09:12:32Z</time>
      </trkpt>
      <trkpt lat="45.86458" lon="4.71842">
        <ele>200</ele>
        <time>2018-05-18T09:12:33Z</time>
      </trkpt>
      <trkpt lat="45.86454" lon="4.71836">
        <ele>200</ele>
        <time>2018-05-18T09:12:34Z</time>
      </trkpt>
      <trkpt lat="45.86449" lon="4.71833">
        <ele>197</ele>
        <time>2018-05-18T09:12:35Z</time>
      </trkpt>
      <trkpt lat="45.86446" lon="4.71825">
        <ele>197</ele>
        <time>2018-05-18T09:12:36Z</time>
      </trkpt>
      <trkpt lat="45.86441" lon="4.7182">
        <ele>197</ele>
        <time>2018-05-18T09:12:37Z</time>
      </trkpt>
      <trkpt lat="45.86436" lon="4.71816">
        <ele>198</ele>
        <time>2018-05-18T09:12:38Z</time>
      </trkpt>
      <trkpt lat="45.86431" lon="4.71812">
        <ele>198</ele>
        <time>2018-05-18T09:12:39Z</time>
      </trkpt>
      <trkpt lat="45.86426" lon="4.71808">
        <ele>197</ele>
        <time>2018-05-18T09:12:40Z</time>
      </trkpt>
      <trkpt lat="45.8642" lon="4.71804">
        <ele>197</ele>
        <time>2018-05-18T09:12:41Z</time>
      </trkpt>
      <trkpt lat="45.86416" lon="4.71799">
        <ele>199</ele>
        <time>2018-05-18T09:12:42Z</time>
      </trkpt>
      <trkpt lat="45.86411" lon="4.71795">
        <ele>199</ele>
        <time>2018-05-18T09:12:43Z</time>
      </trkpt>
      <trkpt lat="45.86405" lon="4.71792">
        <ele>199</ele>
        <time>2018-05-18T09:12:44Z</time>
      </trkpt>
      <trkpt lat="45.86399" lon="4.71788">
        <ele>198</ele>
        <time>2018-05-18T09:12:45Z</time>
      </trkpt>
      <trkpt lat="45.86395" lon="4.71784">
        <ele>198</ele>
        <time>2018-05-18T09:12:46Z</time>
      </trkpt>
      <trkpt lat="45.86389" lon="4.71779">
        <ele>198</ele>
        <time>2018-05-18T09:12:47Z</time>
      </trkpt>
      <trkpt lat="45.86384" lon="4.71775">
        <ele>198</ele>
        <time>2018-05-18T09:12:48Z</time>
      </trkpt>
      <trkpt lat="45.86379" lon="4.7177">
        <ele>198</ele>
        <time>2018-05-18T09:12:49Z</time>
      </trkpt>
      <trkpt lat="45.86373" lon="4.71765">
        <ele>198</ele>
        <time>2018-05-18T09:12:50Z</time>
      </trkpt>
      <trkpt lat="45.86368" lon="4.7176">
        <ele>198</ele>
        <time>2018-05-18T09:12:51Z</time>
      </trkpt>
      <trkpt lat="45.86363" lon="4.71757">
        <ele>198</ele>
        <time>2018-05-18T09:12:52Z</time>
      </trkpt>
      <trkpt lat="45.86357" lon="4.71753">
        <ele>197</ele>
        <time>2018-05-18T09:12:53Z</time>
      </trkpt>
      <trkpt lat="45.86351" lon="4.71748">
        <ele>195</ele>
        <time>2018-05-18T09:12:54Z</time>
      </trkpt>
      <trkpt lat="45.86345" lon="4.71744">
        <ele>195</ele>
        <time>2018-05-18T09:12:55Z</time>
      </trkpt>
      <trkpt lat="45.86341" lon="4.71738">
        <ele>195</ele>
        <time>2018-05-18T09:12:56Z</time>
      </trkpt>
      <trkpt lat="45.86335" lon="4.71734">
        <ele>195</ele>
        <time>2018-05-18T09:12:57Z</time>
      </trkpt>
      <trkpt lat="45.8633" lon="4.71731">
        <ele>196</ele>
        <time>2018-05-18T09:12:58Z</time>
      </trkpt>
      <trkpt lat="45.86324" lon="4.71727">
        <ele>196</ele>
        <time>2018-05-18T09:12:59Z</time>
      </trkpt>
      <trkpt lat="45.8632" lon="4.71723">
        <ele>196</ele>
        <time>2018-05-18T09:13:00Z</time>
      </trkpt>
      <trkpt lat="45.86314" lon="4.71718">
        <ele>196</ele>
        <time>2018-05-18T09:13:01Z</time>
      </trkpt>
      <trkpt lat="45.86309" lon="4.71714">
        <ele>195</ele>
        <time>2018-05-18T09:13:02Z</time>
      </trkpt>
      <trkpt lat="45.86304" lon="4.71711">
        <ele>195</ele>
        <time>2018-05-18T09:13:03Z</time>
      </trkpt>
      <trkpt lat="45.86299" lon="4.71707">
        <ele>195</ele>
        <time>2018-05-18T09:13:04Z</time>
      </trkpt>
      <trkpt lat="45.86294" lon="4.71704">
        <ele>195</ele>
        <time>2018-05-18T09:13:05Z</time>
      </trkpt>
      <trkpt lat="45.86288" lon="4.717">
        <ele>195</ele>
        <time>2018-05-18T09:13:06Z</time>
      </trkpt>
      <trkpt lat="45.86283" lon="4.71696">
        <ele>195</ele>
        <time>2018-05-18T09:13:07Z</time>
      </trkpt>
      <trkpt lat="45.86278" lon="4.71691">
        <ele>195</ele>
        <time>2018-05-18T09:13:08Z</time>
      </trkpt>
      <trkpt lat="45.86274" lon="4.71686">
        <ele>195</ele>
        <time>2018-05-18T09:13:09Z</time>
      </trkpt>
      <trkpt lat="45.8627" lon="4.71682">
        <ele>195</ele>
        <time>2018-05-18T09:13:10Z</time>
      </trkpt>
      <trkpt lat="45.86265" lon="4.71678">
        <ele>195</ele>
        <time>2018-05-18T09:13:11Z</time>
      </trkpt>
      <trkpt lat="45.8626" lon="4.71672">
        <ele>195</ele>
        <time>2018-05-18T09:13:12Z</time>
      </trkpt>
      <trkpt lat="45.86256" lon="4.71669">
        <ele>195</ele>
        <time>2018-05-18T09:13:13Z</time>
      </trkpt>
      <trkpt lat="45.86252" lon="4.71665">
        <ele>195</ele>
        <time>2018-05-18T09:13:14Z</time>
      </trkpt>
      <trkpt lat="45.86247" lon="4.71661">
        <ele>195</ele>
        <time>2018-05-18T09:13:15Z</time>
      </trkpt>
      <trkpt lat="45.86242" lon="4.71658">
        <ele>195</ele>
        <time>2018-05-18T09:13:16Z</time>
      </trkpt>
      <trkpt lat="45.86237" lon="4.71655">
        <ele>195</ele>
        <time>2018-05-18T09:13:17Z</time>
      </trkpt>
      <trkpt lat="45.86232" lon="4.71651">
        <ele>195</ele>
        <time>2018-05-18T09:13:18Z</time>
      </trkpt>
      <trkpt lat="45.86227" lon="4.71647">
        <ele>195</ele>
        <time>2018-05-18T09:13:19Z</time>
      </trkpt>
      <trkpt lat="45.86222" lon="4.71643">
        <ele>195</ele>
        <time>2018-05-18T09:13:20Z</time>
      </trkpt>
      <trkpt lat="45.8622" lon="4.71638">
        <ele>195</ele>
        <time>2018-05-18T09:13:21Z</time>
      </trkpt>
      <trkpt lat="45.86217" lon="4.71632">
        <ele>195</ele>
        <time>2018-05-18T09:13:22Z</time>
      </trkpt>
      <trkpt lat="45.86215" lon="4.71626">
        <ele>195</ele>
        <time>2018-05-18T09:13:23Z</time>
      </trkpt>
      <trkpt lat="45.86215" lon="4.71616">
        <ele>195</ele>
        <time>2018-05-18T09:13:24Z</time>
      </trkpt>
      <trkpt lat="45.86212" lon="4.7161">
        <ele>195</ele>
        <time>2018-05-18T09:13:25Z</time>
      </trkpt>
      <trkpt lat="45.86209" lon="4.71603">
        <ele>195</ele>
        <time>2018-05-18T09:13:26Z</time>
      </trkpt>
      <trkpt lat="45.86204" lon="4.71598">
        <ele>195</ele>
        <time>2018-05-18T09:13:27Z</time>
      </trkpt>
      <trkpt lat="45.86199" lon="4.71594">
        <ele>195</ele>
        <time>2018-05-18T09:13:28Z</time>
      </trkpt>
      <trkpt lat="45.86195" lon="4.71591">
        <ele>195</ele>
        <time>2018-05-18T09:13:29Z</time>
      </trkpt>
      <trkpt lat="45.86191" lon="4.71586">
        <ele>195</ele>
        <time>2018-05-18T09:13:30Z</time>
      </trkpt>
      <trkpt lat="45.86188" lon="4.71581">
        <ele>195</ele>
        <time>2018-05-18T09:13:31Z</time>
      </trkpt>
      <trkpt lat="45.86185" lon="4.71575">
        <ele>195</ele>
        <time>2018-05-18T09:13:32Z</time>
      </trkpt>
      <trkpt lat="45.86181" lon="4.71569">
        <ele>195</ele>
        <time>2018-05-18T09:13:33Z</time>
      </trkpt>
      <trkpt lat="45.86177" lon="4.71564">
        <ele>195</ele>
        <time>2018-05-18T09:13:34Z</time>
      </trkpt>
      <trkpt lat="45.86173" lon="4.71557">
        <ele>195</ele>
        <time>2018-05-18T09:13:35Z</time>
      </trkpt>
      <trkpt lat="45.86169" lon="4.71553">
        <ele>195</ele>
        <time>2018-05-18T09:13:36Z</time>
      </trkpt>
      <trkpt lat="45.86166" lon="4.71547">
        <ele>196</ele>
        <time>2018-05-18T09:13:37Z</time>
      </trkpt>
      <trkpt lat="45.86161" lon="4.71539">
        <ele>195</ele>
        <time>2018-05-18T09:13:38Z</time>
      </trkpt>
      <trkpt lat="45.86159" lon="4.71532">
        <ele>195</ele>
        <time>2018-05-18T09:13:39Z</time>
      </trkpt>
      <trkpt lat="45.86156" lon="4.71527">
        <ele>195</ele>
        <time>2018-05-18T09:13:40Z</time>
      </trkpt>
      <trkpt lat="45.86152" lon="4.71522">
        <ele>195</ele>
        <time>2018-05-18T09:13:41Z</time>
      </trkpt>
      <trkpt lat="45.86151" lon="4.71515">
        <ele>195</ele>
        <time>2018-05-18T09:13:42Z</time>
      </trkpt>
      <trkpt lat="45.86147" lon="4.7151">
        <ele>195</ele>
        <time>2018-05-18T09:13:43Z</time>
      </trkpt>
      <trkpt lat="45.86144" lon="4.71503">
        <ele>195</ele>
        <time>2018-05-18T09:13:44Z</time>
      </trkpt>
      <trkpt lat="45.86141" lon="4.71497">
        <ele>195</ele>
        <time>2018-05-18T09:13:45Z</time>
      </trkpt>
      <trkpt lat="45.86139" lon="4.7149">
        <ele>195</ele>
        <time>2018-05-18T09:13:46Z</time>
      </trkpt>
      <trkpt lat="45.86137" lon="4.71483">
        <ele>195</ele>
        <time>2018-05-18T09:13:47Z</time>
      </trkpt>
      <trkpt lat="45.86135" lon="4.71477">
        <ele>195</ele>
        <time>2018-05-18T09:13:48Z</time>
      </trkpt>
      <trkpt lat="45.86132" lon="4.71466">
        <ele>195</ele>
        <time>2018-05-18T09:13:50Z</time>
      </trkpt>
      <trkpt lat="45.86131" lon="4.71459">
        <ele>195</ele>
        <time>2018-05-18T09:13:51Z</time>
      </trkpt>
      <trkpt lat="45.86128" lon="4.7145">
        <ele>195</ele>
        <time>2018-05-18T09:13:53Z</time>
      </trkpt>
      <trkpt lat="45.86126" lon="4.71445">
        <ele>195</ele>
        <time>2018-05-18T09:13:54Z</time>
      </trkpt>
      <trkpt lat="45.86121" lon="4.71435">
        <ele>195</ele>
        <time>2018-05-18T09:13:56Z</time>
      </trkpt>
      <trkpt lat="45.8612" lon="4.71433">
        <ele>195</ele>
        <time>2018-05-18T09:13:57Z</time>
      </trkpt>
      <trkpt lat="45.86116" lon="4.71422">
        <ele>195</ele>
        <time>2018-05-18T09:14:01Z</time>
      </trkpt>
      <trkpt lat="45.86116" lon="4.71419">
        <ele>195</ele>
        <time>2018-05-18T09:14:02Z</time>
      </trkpt>
      <trkpt lat="45.86115" lon="4.71407">
        <ele>196</ele>
        <time>2018-05-18T09:14:06Z</time>
      </trkpt>
      <trkpt lat="45.86115" lon="4.71404">
        <ele>196</ele>
        <time>2018-05-18T09:14:07Z</time>
      </trkpt>
      <trkpt lat="45.86114" lon="4.71394">
        <ele>196</ele>
        <time>2018-05-18T09:14:10Z</time>
      </trkpt>
      <trkpt lat="45.86114" lon="4.71391">
        <ele>196</ele>
        <time>2018-05-18T09:14:11Z</time>
      </trkpt>
      <trkpt lat="45.86113" lon="4.71378">
        <ele>196</ele>
        <time>2018-05-18T09:14:15Z</time>
      </trkpt>
      <trkpt lat="45.86113" lon="4.71375">
        <ele>196</ele>
        <time>2018-05-18T09:14:16Z</time>
      </trkpt>
      <trkpt lat="45.86111" lon="4.71363">
        <ele>196</ele>
        <time>2018-05-18T09:14:20Z</time>
      </trkpt>
      <trkpt lat="45.86111" lon="4.71352">
        <ele>196</ele>
        <time>2018-05-18T09:14:21Z</time>
      </trkpt>
      <trkpt lat="45.86112" lon="4.71341">
        <ele>196</ele>
        <time>2018-05-18T09:14:23Z</time>
      </trkpt>
      <trkpt lat="45.86109" lon="4.71334">
        <ele>196</ele>
        <time>2018-05-18T09:14:24Z</time>
      </trkpt>
      <trkpt lat="45.86107" lon="4.71327">
        <ele>196</ele>
        <time>2018-05-18T09:14:25Z</time>
      </trkpt>
      <trkpt lat="45.86105" lon="4.71319">
        <ele>196</ele>
        <time>2018-05-18T09:14:26Z</time>
      </trkpt>
      <trkpt lat="45.86103" lon="4.71311">
        <ele>197</ele>
        <time>2018-05-18T09:14:27Z</time>
      </trkpt>
      <trkpt lat="45.86101" lon="4.71303">
        <ele>197</ele>
        <time>2018-05-18T09:14:28Z</time>
      </trkpt>
      <trkpt lat="45.861" lon="4.71296">
        <ele>197</ele>
        <time>2018-05-18T09:14:29Z</time>
      </trkpt>
      <trkpt lat="45.86097" lon="4.71289">
        <ele>197</ele>
        <time>2018-05-18T09:14:30Z</time>
      </trkpt>
      <trkpt lat="45.86095" lon="4.71282">
        <ele>197</ele>
        <time>2018-05-18T09:14:31Z</time>
      </trkpt>
      <trkpt lat="45.86093" lon="4.71276">
        <ele>197</ele>
        <time>2018-05-18T09:14:32Z</time>
      </trkpt>
      <trkpt lat="45.8609" lon="4.71269">
        <ele>197</ele>
        <time>2018-05-18T09:14:33Z</time>
      </trkpt>
      <trkpt lat="45.86087" lon="4.71263">
        <ele>197</ele>
        <time>2018-05-18T09:14:34Z</time>
      </trkpt>
      <trkpt lat="45.86084" lon="4.71257">
        <ele>198</ele>
        <time>2018-05-18T09:14:35Z</time>
      </trkpt>
      <trkpt lat="45.86081" lon="4.71252">
        <ele>198</ele>
        <time>2018-05-18T09:14:36Z</time>
      </trkpt>
      <trkpt lat="45.8608" lon="4.71244">
        <ele>198</ele>
        <time>2018-05-18T09:14:37Z</time>
      </trkpt>
      <trkpt lat="45.86085" lon="4.71235">
        <ele>197</ele>
        <time>2018-05-18T09:14:38Z</time>
      </trkpt>
      <trkpt lat="45.86085" lon="4.71228">
        <ele>197</ele>
        <time>2018-05-18T09:14:39Z</time>
      </trkpt>
      <trkpt lat="45.86085" lon="4.71219">
        <ele>197</ele>
        <time>2018-05-18T09:14:40Z</time>
      </trkpt>
      <trkpt lat="45.86087" lon="4.71213">
        <ele>197</ele>
        <time>2018-05-18T09:14:41Z</time>
      </trkpt>
      <trkpt lat="45.86088" lon="4.71207">
        <ele>197</ele>
        <time>2018-05-18T09:14:42Z</time>
      </trkpt>
      <trkpt lat="45.8609" lon="4.712">
        <ele>197</ele>
        <time>2018-05-18T09:14:43Z</time>
      </trkpt>
      <trkpt lat="45.8609" lon="4.71191">
        <ele>197</ele>
        <time>2018-05-18T09:14:44Z</time>
      </trkpt>
      <trkpt lat="45.86091" lon="4.71183">
        <ele>197</ele>
        <time>2018-05-18T09:14:45Z</time>
      </trkpt>
      <trkpt lat="45.86091" lon="4.71175">
        <ele>197</ele>
        <time>2018-05-18T09:14:46Z</time>
      </trkpt>
      <trkpt lat="45.86094" lon="4.71165">
        <ele>197</ele>
        <time>2018-05-18T09:14:48Z</time>
      </trkpt>
      <trkpt lat="45.86094" lon="4.71157">
        <ele>197</ele>
        <time>2018-05-18T09:14:49Z</time>
      </trkpt>
      <trkpt lat="45.86094" lon="4.7115">
        <ele>197</ele>
        <time>2018-05-18T09:14:50Z</time>
      </trkpt>
      <trkpt lat="45.86092" lon="4.71143">
        <ele>197</ele>
        <time>2018-05-18T09:14:51Z</time>
      </trkpt>
      <trkpt lat="45.86086" lon="4.71135">
        <ele>197</ele>
        <time>2018-05-18T09:14:52Z</time>
      </trkpt>
      <trkpt lat="45.86083" lon="4.71132">
        <ele>197</ele>
        <time>2018-05-18T09:14:53Z</time>
      </trkpt>
      <trkpt lat="45.86079" lon="4.71127">
        <ele>197</ele>
        <time>2018-05-18T09:14:54Z</time>
      </trkpt>
      <trkpt lat="45.86074" lon="4.71124">
        <ele>197</ele>
        <time>2018-05-18T09:14:55Z</time>
      </trkpt>
      <trkpt lat="45.86069" lon="4.7112">
        <ele>197</ele>
        <time>2018-05-18T09:14:56Z</time>
      </trkpt>
      <trkpt lat="45.86064" lon="4.71115">
        <ele>197</ele>
        <time>2018-05-18T09:14:57Z</time>
      </trkpt>
      <trkpt lat="45.8606" lon="4.71109">
        <ele>197</ele>
        <time>2018-05-18T09:14:58Z</time>
      </trkpt>
      <trkpt lat="45.86055" lon="4.71104">
        <ele>197</ele>
        <time>2018-05-18T09:14:59Z</time>
      </trkpt>
      <trkpt lat="45.86051" lon="4.71099">
        <ele>197</ele>
        <time>2018-05-18T09:15:00Z</time>
      </trkpt>
      <trkpt lat="45.86048" lon="4.71092">
        <ele>197</ele>
        <time>2018-05-18T09:15:01Z</time>
      </trkpt>
      <trkpt lat="45.86046" lon="4.71085">
        <ele>197</ele>
        <time>2018-05-18T09:15:02Z</time>
      </trkpt>
      <trkpt lat="45.86043" lon="4.71078">
        <ele>196</ele>
        <time>2018-05-18T09:15:03Z</time>
      </trkpt>
      <trkpt lat="45.86041" lon="4.71071">
        <ele>197</ele>
        <time>2018-05-18T09:15:04Z</time>
      </trkpt>
      <trkpt lat="45.8604" lon="4.71063">
        <ele>197</ele>
        <time>2018-05-18T09:15:05Z</time>
      </trkpt>
      <trkpt lat="45.86038" lon="4.71055">
        <ele>197</ele>
        <time>2018-05-18T09:15:06Z</time>
      </trkpt>
      <trkpt lat="45.86037" lon="4.71048">
        <ele>197</ele>
        <time>2018-05-18T09:15:07Z</time>
      </trkpt>
      <trkpt lat="45.86035" lon="4.71042">
        <ele>197</ele>
        <time>2018-05-18T09:15:08Z</time>
      </trkpt>
      <trkpt lat="45.86034" lon="4.71035">
        <ele>197</ele>
        <time>2018-05-18T09:15:09Z</time>
      </trkpt>
      <trkpt lat="45.86032" lon="4.71029">
        <ele>197</ele>
        <time>2018-05-18T09:15:10Z</time>
      </trkpt>
      <trkpt lat="45.8603" lon="4.71022">
        <ele>197</ele>
        <time>2018-05-18T09:15:11Z</time>
      </trkpt>
      <trkpt lat="45.86025" lon="4.71013">
        <ele>197</ele>
        <time>2018-05-18T09:15:13Z</time>
      </trkpt>
      <trkpt lat="45.86021" lon="4.71009">
        <ele>197</ele>
        <time>2018-05-18T09:15:14Z</time>
      </trkpt>
      <trkpt lat="45.86018" lon="4.71004">
        <ele>197</ele>
        <time>2018-05-18T09:15:15Z</time>
      </trkpt>
      <trkpt lat="45.86015" lon="4.71">
        <ele>197</ele>
        <time>2018-05-18T09:15:16Z</time>
      </trkpt>
      <trkpt lat="45.86012" lon="4.70995">
        <ele>197</ele>
        <time>2018-05-18T09:15:17Z</time>
      </trkpt>
      <trkpt lat="45.86007" lon="4.7099">
        <ele>197</ele>
        <time>2018-05-18T09:15:18Z</time>
      </trkpt>
      <trkpt lat="45.86003" lon="4.70986">
        <ele>197</ele>
        <time>2018-05-18T09:15:19Z</time>
      </trkpt>
      <trkpt lat="45.85998" lon="4.70983">
        <ele>197</ele>
        <time>2018-05-18T09:15:20Z</time>
      </trkpt>
      <trkpt lat="45.85993" lon="4.70979">
        <ele>197</ele>
        <time>2018-05-18T09:15:21Z</time>
      </trkpt>
      <trkpt lat="45.85989" lon="4.70978">
        <ele>197</ele>
        <time>2018-05-18T09:15:22Z</time>
      </trkpt>
      <trkpt lat="45.85984" lon="4.70975">
        <ele>197</ele>
        <time>2018-05-18T09:15:23Z</time>
      </trkpt>
      <trkpt lat="45.85978" lon="4.70973">
        <ele>197</ele>
        <time>2018-05-18T09:15:24Z</time>
      </trkpt>
      <trkpt lat="45.85974" lon="4.7097">
        <ele>197</ele>
        <time>2018-05-18T09:15:25Z</time>
      </trkpt>
      <trkpt lat="45.85968" lon="4.70968">
        <ele>197</ele>
        <time>2018-05-18T09:15:26Z</time>
      </trkpt>
      <trkpt lat="45.85962" lon="4.70968">
        <ele>197</ele>
        <time>2018-05-18T09:15:27Z</time>
      </trkpt>
      <trkpt lat="45.85956" lon="4.70967">
        <ele>197</ele>
        <time>2018-05-18T09:15:28Z</time>
      </trkpt>
      <trkpt lat="45.85951" lon="4.70967">
        <ele>197</ele>
        <time>2018-05-18T09:15:29Z</time>
      </trkpt>
      <trkpt lat="45.85947" lon="4.70962">
        <ele>197</ele>
        <time>2018-05-18T09:15:30Z</time>
      </trkpt>
      <trkpt lat="45.85943" lon="4.70953">
        <ele>197</ele>
        <time>2018-05-18T09:15:32Z</time>
      </trkpt>
      <trkpt lat="45.85943" lon="4.70948">
        <ele>197</ele>
        <time>2018-05-18T09:15:33Z</time>
      </trkpt>
      <trkpt lat="45.85945" lon="4.70941">
        <ele>197</ele>
        <time>2018-05-18T09:15:34Z</time>
      </trkpt>
      <trkpt lat="45.85946" lon="4.70934">
        <ele>197</ele>
        <time>2018-05-18T09:15:35Z</time>
      </trkpt>
      <trkpt lat="45.85948" lon="4.70927">
        <ele>197</ele>
        <time>2018-05-18T09:15:36Z</time>
      </trkpt>
      <trkpt lat="45.8595" lon="4.70919">
        <ele>197</ele>
        <time>2018-05-18T09:15:37Z</time>
      </trkpt>
      <trkpt lat="45.85951" lon="4.70912">
        <ele>197</ele>
        <time>2018-05-18T09:15:38Z</time>
      </trkpt>
      <trkpt lat="45.85953" lon="4.70905">
        <ele>197</ele>
        <time>2018-05-18T09:15:39Z</time>
      </trkpt>
      <trkpt lat="45.85953" lon="4.70899">
        <ele>197</ele>
        <time>2018-05-18T09:15:40Z</time>
      </trkpt>
      <trkpt lat="45.85956" lon="4.70892">
        <ele>197</ele>
        <time>2018-05-18T09:15:41Z</time>
      </trkpt>
      <trkpt lat="45.85957" lon="4.7088">
        <ele>197</ele>
        <time>2018-05-18T09:15:43Z</time>
      </trkpt>
      <trkpt lat="45.85959" lon="4.70874">
        <ele>196</ele>
        <time>2018-05-18T09:15:44Z</time>
      </trkpt>
      <trkpt lat="45.8596" lon="4.70867">
        <ele>196</ele>
        <time>2018-05-18T09:15:45Z</time>
      </trkpt>
      <trkpt lat="45.85961" lon="4.70859">
        <ele>196</ele>
        <time>2018-05-18T09:15:46Z</time>
      </trkpt>
      <trkpt lat="45.85962" lon="4.70852">
        <ele>196</ele>
        <time>2018-05-18T09:15:47Z</time>
      </trkpt>
      <trkpt lat="45.85962" lon="4.70845">
        <ele>196</ele>
        <time>2018-05-18T09:15:48Z</time>
      </trkpt>
      <trkpt lat="45.85961" lon="4.70837">
        <ele>196</ele>
        <time>2018-05-18T09:15:49Z</time>
      </trkpt>
      <trkpt lat="45.8596" lon="4.7083">
        <ele>196</ele>
        <time>2018-05-18T09:15:50Z</time>
      </trkpt>
      <trkpt lat="45.85958" lon="4.70823">
        <ele>195</ele>
        <time>2018-05-18T09:15:51Z</time>
      </trkpt>
      <trkpt lat="45.85957" lon="4.70817">
        <ele>195</ele>
        <time>2018-05-18T09:15:52Z</time>
      </trkpt>
      <trkpt lat="45.85958" lon="4.70808">
        <ele>195</ele>
        <time>2018-05-18T09:15:53Z</time>
      </trkpt>
      <trkpt lat="45.8596" lon="4.70801">
        <ele>195</ele>
        <time>2018-05-18T09:15:54Z</time>
      </trkpt>
      <trkpt lat="45.85959" lon="4.70794">
        <ele>195</ele>
        <time>2018-05-18T09:15:55Z</time>
      </trkpt>
      <trkpt lat="45.85961" lon="4.70783">
        <ele>195</ele>
        <time>2018-05-18T09:15:56Z</time>
      </trkpt>
      <trkpt lat="45.85961" lon="4.70773">
        <ele>195</ele>
        <time>2018-05-18T09:15:57Z</time>
      </trkpt>
      <trkpt lat="45.85962" lon="4.70764">
        <ele>195</ele>
        <time>2018-05-18T09:15:58Z</time>
      </trkpt>
      <trkpt lat="45.85963" lon="4.70755">
        <ele>195</ele>
        <time>2018-05-18T09:15:59Z</time>
      </trkpt>
      <trkpt lat="45.85963" lon="4.70749">
        <ele>194</ele>
        <time>2018-05-18T09:16:00Z</time>
      </trkpt>
      <trkpt lat="45.85964" lon="4.7074">
        <ele>194</ele>
        <time>2018-05-18T09:16:01Z</time>
      </trkpt>
      <trkpt lat="45.85964" lon="4.70732">
        <ele>194</ele>
        <time>2018-05-18T09:16:02Z</time>
      </trkpt>
      <trkpt lat="45.85964" lon="4.70724">
        <ele>194</ele>
        <time>2018-05-18T09:16:03Z</time>
      </trkpt>
      <trkpt lat="45.85967" lon="4.70716">
        <ele>194</ele>
        <time>2018-05-18T09:16:04Z</time>
      </trkpt>
      <trkpt lat="45.85968" lon="4.70707">
        <ele>194</ele>
        <time>2018-05-18T09:16:05Z</time>
      </trkpt>
      <trkpt lat="45.85969" lon="4.707">
        <ele>194</ele>
        <time>2018-05-18T09:16:06Z</time>
      </trkpt>
      <trkpt lat="45.85967" lon="4.70695">
        <ele>194</ele>
        <time>2018-05-18T09:16:07Z</time>
      </trkpt>
      <trkpt lat="45.85969" lon="4.70685">
        <ele>194</ele>
        <time>2018-05-18T09:16:08Z</time>
      </trkpt>
      <trkpt lat="45.85967" lon="4.70678">
        <ele>194</ele>
        <time>2018-05-18T09:16:09Z</time>
      </trkpt>
      <trkpt lat="45.85965" lon="4.70669">
        <ele>194</ele>
        <time>2018-05-18T09:16:10Z</time>
      </trkpt>
      <trkpt lat="45.8596" lon="4.70663">
        <ele>194</ele>
        <time>2018-05-18T09:16:11Z</time>
      </trkpt>
      <trkpt lat="45.85957" lon="4.70655">
        <ele>194</ele>
        <time>2018-05-18T09:16:12Z</time>
      </trkpt>
      <trkpt lat="45.85951" lon="4.70651">
        <ele>194</ele>
        <time>2018-05-18T09:16:13Z</time>
      </trkpt>
      <trkpt lat="45.85948" lon="4.70643">
        <ele>194</ele>
        <time>2018-05-18T09:16:14Z</time>
      </trkpt>
      <trkpt lat="45.85944" lon="4.70637">
        <ele>194</ele>
        <time>2018-05-18T09:16:15Z</time>
      </trkpt>
      <trkpt lat="45.8594" lon="4.7063">
        <ele>194</ele>
        <time>2018-05-18T09:16:16Z</time>
      </trkpt>
      <trkpt lat="45.85935" lon="4.70623">
        <ele>194</ele>
        <time>2018-05-18T09:16:17Z</time>
      </trkpt>
      <trkpt lat="45.85931" lon="4.7062">
        <ele>194</ele>
        <time>2018-05-18T09:16:18Z</time>
      </trkpt>
      <trkpt lat="45.85928" lon="4.70613">
        <ele>194</ele>
        <time>2018-05-18T09:16:19Z</time>
      </trkpt>
      <trkpt lat="45.85924" lon="4.70605">
        <ele>194</ele>
        <time>2018-05-18T09:16:20Z</time>
      </trkpt>
      <trkpt lat="45.8592" lon="4.70599">
        <ele>194</ele>
        <time>2018-05-18T09:16:21Z</time>
      </trkpt>
      <trkpt lat="45.85916" lon="4.70593">
        <ele>195</ele>
        <time>2018-05-18T09:16:22Z</time>
      </trkpt>
      <trkpt lat="45.85912" lon="4.70589">
        <ele>195</ele>
        <time>2018-05-18T09:16:23Z</time>
      </trkpt>
      <trkpt lat="45.8591" lon="4.70584">
        <ele>195</ele>
        <time>2018-05-18T09:16:24Z</time>
      </trkpt>
      <trkpt lat="45.85905" lon="4.70581">
        <ele>195</ele>
        <time>2018-05-18T09:16:25Z</time>
      </trkpt>
      <trkpt lat="45.85899" lon="4.7058">
        <ele>195</ele>
        <time>2018-05-18T09:16:26Z</time>
      </trkpt>
      <trkpt lat="45.85894" lon="4.70578">
        <ele>195</ele>
        <time>2018-05-18T09:16:27Z</time>
      </trkpt>
      <trkpt lat="45.8589" lon="4.70577">
        <ele>195</ele>
        <time>2018-05-18T09:16:28Z</time>
      </trkpt>
      <trkpt lat="45.85885" lon="4.70575">
        <ele>195</ele>
        <time>2018-05-18T09:16:29Z</time>
      </trkpt>
      <trkpt lat="45.85879" lon="4.70574">
        <ele>195</ele>
        <time>2018-05-18T09:16:30Z</time>
      </trkpt>
      <trkpt lat="45.85873" lon="4.70573">
        <ele>195</ele>
        <time>2018-05-18T09:16:31Z</time>
      </trkpt>
      <trkpt lat="45.85868" lon="4.70572">
        <ele>195</ele>
        <time>2018-05-18T09:16:32Z</time>
      </trkpt>
      <trkpt lat="45.85863" lon="4.70569">
        <ele>195</ele>
        <time>2018-05-18T09:16:33Z</time>
      </trkpt>
      <trkpt lat="45.85856" lon="4.70566">
        <ele>195</ele>
        <time>2018-05-18T09:16:34Z</time>
      </trkpt>
      <trkpt lat="45.85851" lon="4.70564">
        <ele>195</ele>
        <time>2018-05-18T09:16:35Z</time>
      </trkpt>
      <trkpt lat="45.85845" lon="4.70561">
        <ele>195</ele>
        <time>2018-05-18T09:16:36Z</time>
      </trkpt>
      <trkpt lat="45.85838" lon="4.70559">
        <ele>195</ele>
        <time>2018-05-18T09:16:37Z</time>
      </trkpt>
      <trkpt lat="45.85832" lon="4.70556">
        <ele>195</ele>
        <time>2018-05-18T09:16:38Z</time>
      </trkpt>
      <trkpt lat="45.85827" lon="4.70554">
        <ele>195</ele>
        <time>2018-05-18T09:16:39Z</time>
      </trkpt>
      <trkpt lat="45.85821" lon="4.70552">
        <ele>195</ele>
        <time>2018-05-18T09:16:40Z</time>
      </trkpt>
      <trkpt lat="45.85815" lon="4.70549">
        <ele>195</ele>
        <time>2018-05-18T09:16:41Z</time>
      </trkpt>
      <trkpt lat="45.8581" lon="4.70547">
        <ele>195</ele>
        <time>2018-05-18T09:16:42Z</time>
      </trkpt>
      <trkpt lat="45.85805" lon="4.70546">
        <ele>195</ele>
        <time>2018-05-18T09:16:43Z</time>
      </trkpt>
      <trkpt lat="45.858" lon="4.70543">
        <ele>195</ele>
        <time>2018-05-18T09:16:44Z</time>
      </trkpt>
      <trkpt lat="45.85796" lon="4.70539">
        <ele>195</ele>
        <time>2018-05-18T09:16:45Z</time>
      </trkpt>
      <trkpt lat="45.85791" lon="4.70536">
        <ele>196</ele>
        <time>2018-05-18T09:16:46Z</time>
      </trkpt>
      <trkpt lat="45.85786" lon="4.70533">
        <ele>196</ele>
        <time>2018-05-18T09:16:47Z</time>
      </trkpt>
      <trkpt lat="45.8578" lon="4.70529">
        <ele>196</ele>
        <time>2018-05-18T09:16:48Z</time>
      </trkpt>
      <trkpt lat="45.85775" lon="4.70528">
        <ele>196</ele>
        <time>2018-05-18T09:16:49Z</time>
      </trkpt>
      <trkpt lat="45.85771" lon="4.70527">
        <ele>196</ele>
        <time>2018-05-18T09:16:50Z</time>
      </trkpt>
      <trkpt lat="45.85767" lon="4.70523">
        <ele>196</ele>
        <time>2018-05-18T09:16:51Z</time>
      </trkpt>
      <trkpt lat="45.85763" lon="4.70519">
        <ele>196</ele>
        <time>2018-05-18T09:16:52Z</time>
      </trkpt>
      <trkpt lat="45.85759" lon="4.70516">
        <ele>196</ele>
        <time>2018-05-18T09:16:53Z</time>
      </trkpt>
      <trkpt lat="45.85755" lon="4.70513">
        <ele>196</ele>
        <time>2018-05-18T09:16:54Z</time>
      </trkpt>
      <trkpt lat="45.85751" lon="4.70509">
        <ele>196</ele>
        <time>2018-05-18T09:16:55Z</time>
      </trkpt>
      <trkpt lat="45.85746" lon="4.70506">
        <ele>196</ele>
        <time>2018-05-18T09:16:56Z</time>
      </trkpt>
      <trkpt lat="45.85742" lon="4.70502">
        <ele>196</ele>
        <time>2018-05-18T09:16:57Z</time>
      </trkpt>
      <trkpt lat="45.85738" lon="4.70498">
        <ele>196</ele>
        <time>2018-05-18T09:16:58Z</time>
      </trkpt>
      <trkpt lat="45.85733" lon="4.70492">
        <ele>196</ele>
        <time>2018-05-18T09:16:59Z</time>
      </trkpt>
      <trkpt lat="45.85731" lon="4.70486">
        <ele>196</ele>
        <time>2018-05-18T09:17:00Z</time>
      </trkpt>
      <trkpt lat="45.85729" lon="4.70479">
        <ele>196</ele>
        <time>2018-05-18T09:17:01Z</time>
      </trkpt>
      <trkpt lat="45.85727" lon="4.70472">
        <ele>196</ele>
        <time>2018-05-18T09:17:02Z</time>
      </trkpt>
      <trkpt lat="45.85726" lon="4.70463">
        <ele>196</ele>
        <time>2018-05-18T09:17:03Z</time>
      </trkpt>
      <trkpt lat="45.85725" lon="4.70455">
        <ele>196</ele>
        <time>2018-05-18T09:17:04Z</time>
      </trkpt>
      <trkpt lat="45.85725" lon="4.70448">
        <ele>196</ele>
        <time>2018-05-18T09:17:05Z</time>
      </trkpt>
      <trkpt lat="45.85724" lon="4.7044">
        <ele>196</ele>
        <time>2018-05-18T09:17:06Z</time>
      </trkpt>
      <trkpt lat="45.85722" lon="4.70432">
        <ele>196</ele>
        <time>2018-05-18T09:17:07Z</time>
      </trkpt>
      <trkpt lat="45.85722" lon="4.70424">
        <ele>196</ele>
        <time>2018-05-18T09:17:08Z</time>
      </trkpt>
      <trkpt lat="45.85722" lon="4.70416">
        <ele>196</ele>
        <time>2018-05-18T09:17:09Z</time>
      </trkpt>
      <trkpt lat="45.85722" lon="4.70406">
        <ele>196</ele>
        <time>2018-05-18T09:17:10Z</time>
      </trkpt>
      <trkpt lat="45.85721" lon="4.70398">
        <ele>196</ele>
        <time>2018-05-18T09:17:11Z</time>
      </trkpt>
      <trkpt lat="45.8572" lon="4.70391">
        <ele>196</ele>
        <time>2018-05-18T09:17:12Z</time>
      </trkpt>
      <trkpt lat="45.85717" lon="4.70385">
        <ele>196</ele>
        <time>2018-05-18T09:17:13Z</time>
      </trkpt>
      <trkpt lat="45.85717" lon="4.70377">
        <ele>196</ele>
        <time>2018-05-18T09:17:14Z</time>
      </trkpt>
      <trkpt lat="45.85716" lon="4.7037">
        <ele>196</ele>
        <time>2018-05-18T09:17:15Z</time>
      </trkpt>
      <trkpt lat="45.85715" lon="4.70362">
        <ele>196</ele>
        <time>2018-05-18T09:17:16Z</time>
      </trkpt>
      <trkpt lat="45.85715" lon="4.70353">
        <ele>196</ele>
        <time>2018-05-18T09:17:17Z</time>
      </trkpt>
      <trkpt lat="45.85714" lon="4.70344">
        <ele>196</ele>
        <time>2018-05-18T09:17:18Z</time>
      </trkpt>
      <trkpt lat="45.85712" lon="4.70335">
        <ele>196</ele>
        <time>2018-05-18T09:17:19Z</time>
      </trkpt>
      <trkpt lat="45.85712" lon="4.70328">
        <ele>197</ele>
        <time>2018-05-18T09:17:20Z</time>
      </trkpt>
      <trkpt lat="45.85712" lon="4.7032">
        <ele>197</ele>
        <time>2018-05-18T09:17:21Z</time>
      </trkpt>
      <trkpt lat="45.85711" lon="4.70313">
        <ele>197</ele>
        <time>2018-05-18T09:17:22Z</time>
      </trkpt>
      <trkpt lat="45.85709" lon="4.70304">
        <ele>197</ele>
        <time>2018-05-18T09:17:23Z</time>
      </trkpt>
      <trkpt lat="45.85707" lon="4.70297">
        <ele>197</ele>
        <time>2018-05-18T09:17:24Z</time>
      </trkpt>
      <trkpt lat="45.85706" lon="4.7029">
        <ele>197</ele>
        <time>2018-05-18T09:17:25Z</time>
      </trkpt>
      <trkpt lat="45.85706" lon="4.70282">
        <ele>197</ele>
        <time>2018-05-18T09:17:26Z</time>
      </trkpt>
      <trkpt lat="45.85705" lon="4.70273">
        <ele>197</ele>
        <time>2018-05-18T09:17:27Z</time>
      </trkpt>
      <trkpt lat="45.85704" lon="4.70266">
        <ele>197</ele>
        <time>2018-05-18T09:17:28Z</time>
      </trkpt>
      <trkpt lat="45.85702" lon="4.70259">
        <ele>197</ele>
        <time>2018-05-18T09:17:29Z</time>
      </trkpt>
      <trkpt lat="45.85701" lon="4.70251">
        <ele>197</ele>
        <time>2018-05-18T09:17:30Z</time>
      </trkpt>
      <trkpt lat="45.85701" lon="4.70243">
        <ele>197</ele>
        <time>2018-05-18T09:17:31Z</time>
      </trkpt>
      <trkpt lat="45.857" lon="4.70234">
        <ele>197</ele>
        <time>2018-05-18T09:17:32Z</time>
      </trkpt>
      <trkpt lat="45.85699" lon="4.70226">
        <ele>197</ele>
        <time>2018-05-18T09:17:33Z</time>
      </trkpt>
      <trkpt lat="45.85698" lon="4.70218">
        <ele>197</ele>
        <time>2018-05-18T09:17:34Z</time>
      </trkpt>
      <trkpt lat="45.85696" lon="4.70208">
        <ele>197</ele>
        <time>2018-05-18T09:17:35Z</time>
      </trkpt>
      <trkpt lat="45.85695" lon="4.70199">
        <ele>197</ele>
        <time>2018-05-18T09:17:36Z</time>
      </trkpt>
      <trkpt lat="45.85692" lon="4.70192">
        <ele>197</ele>
        <time>2018-05-18T09:17:37Z</time>
      </trkpt>
      <trkpt lat="45.8569" lon="4.70183">
        <ele>197</ele>
        <time>2018-05-18T09:17:38Z</time>
      </trkpt>
      <trkpt lat="45.85689" lon="4.70174">
        <ele>197</ele>
        <time>2018-05-18T09:17:39Z</time>
      </trkpt>
      <trkpt lat="45.85688" lon="4.70166">
        <ele>197</ele>
        <time>2018-05-18T09:17:40Z</time>
      </trkpt>
      <trkpt lat="45.85686" lon="4.70159">
        <ele>197</ele>
        <time>2018-05-18T09:17:41Z</time>
      </trkpt>
      <trkpt lat="45.85685" lon="4.7015">
        <ele>197</ele>
        <time>2018-05-18T09:17:42Z</time>
      </trkpt>
      <trkpt lat="45.85684" lon="4.70142">
        <ele>197</ele>
        <time>2018-05-18T09:17:43Z</time>
      </trkpt>
      <trkpt lat="45.85681" lon="4.70133">
        <ele>197</ele>
        <time>2018-05-18T09:17:44Z</time>
      </trkpt>
      <trkpt lat="45.85681" lon="4.70125">
        <ele>197</ele>
        <time>2018-05-18T09:17:45Z</time>
      </trkpt>
      <trkpt lat="45.85679" lon="4.70116">
        <ele>197</ele>
        <time>2018-05-18T09:17:46Z</time>
      </trkpt>
      <trkpt lat="45.85679" lon="4.70108">
        <ele>196</ele>
        <time>2018-05-18T09:17:47Z</time>
      </trkpt>
      <trkpt lat="45.8568" lon="4.70099">
        <ele>196</ele>
        <time>2018-05-18T09:17:48Z</time>
      </trkpt>
      <trkpt lat="45.8568" lon="4.70092">
        <ele>196</ele>
        <time>2018-05-18T09:17:49Z</time>
      </trkpt>
      <trkpt lat="45.8568" lon="4.70084">
        <ele>196</ele>
        <time>2018-05-18T09:17:50Z</time>
      </trkpt>
      <trkpt lat="45.85681" lon="4.70077">
        <ele>196</ele>
        <time>2018-05-18T09:17:51Z</time>
      </trkpt>
      <trkpt lat="45.85682" lon="4.7007">
        <ele>196</ele>
        <time>2018-05-18T09:17:52Z</time>
      </trkpt>
      <trkpt lat="45.85685" lon="4.70064">
        <ele>196</ele>
        <time>2018-05-18T09:17:53Z</time>
      </trkpt>
      <trkpt lat="45.85685" lon="4.70058">
        <ele>195</ele>
        <time>2018-05-18T09:17:54Z</time>
      </trkpt>
      <trkpt lat="45.85686" lon="4.70052">
        <ele>195</ele>
        <time>2018-05-18T09:17:55Z</time>
      </trkpt>
      <trkpt lat="45.85688" lon="4.70045">
        <ele>195</ele>
        <time>2018-05-18T09:17:56Z</time>
      </trkpt>
      <trkpt lat="45.85689" lon="4.70039">
        <ele>195</ele>
        <time>2018-05-18T09:17:57Z</time>
      </trkpt>
      <trkpt lat="45.85691" lon="4.70032">
        <ele>195</ele>
        <time>2018-05-18T09:17:58Z</time>
      </trkpt>
      <trkpt lat="45.85692" lon="4.70025">
        <ele>195</ele>
        <time>2018-05-18T09:17:59Z</time>
      </trkpt>
      <trkpt lat="45.85693" lon="4.70017">
        <ele>195</ele>
        <time>2018-05-18T09:18:00Z</time>
      </trkpt>
      <trkpt lat="45.85694" lon="4.70009">
        <ele>195</ele>
        <time>2018-05-18T09:18:01Z</time>
      </trkpt>
      <trkpt lat="45.85694" lon="4.70001">
        <ele>195</ele>
        <time>2018-05-18T09:18:02Z</time>
      </trkpt>
      <trkpt lat="45.85694" lon="4.69993">
        <ele>195</ele>
        <time>2018-05-18T09:18:03Z</time>
      </trkpt>
      <trkpt lat="45.85693" lon="4.69984">
        <ele>195</ele>
        <time>2018-05-18T09:18:04Z</time>
      </trkpt>
      <trkpt lat="45.85692" lon="4.69976">
        <ele>195</ele>
        <time>2018-05-18T09:18:05Z</time>
      </trkpt>
      <trkpt lat="45.85691" lon="4.69968">
        <ele>195</ele>
        <time>2018-05-18T09:18:06Z</time>
      </trkpt>
      <trkpt lat="45.85689" lon="4.6996">
        <ele>195</ele>
        <time>2018-05-18T09:18:07Z</time>
      </trkpt>
      <trkpt lat="45.85686" lon="4.69954">
        <ele>195</ele>
        <time>2018-05-18T09:18:08Z</time>
      </trkpt>
      <trkpt lat="45.85684" lon="4.69946">
        <ele>195</ele>
        <time>2018-05-18T09:18:09Z</time>
      </trkpt>
      <trkpt lat="45.85682" lon="4.69938">
        <ele>195</ele>
        <time>2018-05-18T09:18:10Z</time>
      </trkpt>
      <trkpt lat="45.85679" lon="4.69929">
        <ele>195</ele>
        <time>2018-05-18T09:18:11Z</time>
      </trkpt>
      <trkpt lat="45.85677" lon="4.6992">
        <ele>195</ele>
        <time>2018-05-18T09:18:12Z</time>
      </trkpt>
      <trkpt lat="45.85674" lon="4.69912">
        <ele>195</ele>
        <time>2018-05-18T09:18:13Z</time>
      </trkpt>
      <trkpt lat="45.85672" lon="4.69903">
        <ele>195</ele>
        <time>2018-05-18T09:18:14Z</time>
      </trkpt>
      <trkpt lat="45.8567" lon="4.69897">
        <ele>195</ele>
        <time>2018-05-18T09:18:15Z</time>
      </trkpt>
      <trkpt lat="45.8567" lon="4.69889">
        <ele>195</ele>
        <time>2018-05-18T09:18:16Z</time>
      </trkpt>
      <trkpt lat="45.85668" lon="4.69881">
        <ele>195</ele>
        <time>2018-05-18T09:18:17Z</time>
      </trkpt>
      <trkpt lat="45.85668" lon="4.69873">
        <ele>195</ele>
        <time>2018-05-18T09:18:18Z</time>
      </trkpt>
      <trkpt lat="45.85667" lon="4.69864">
        <ele>195</ele>
        <time>2018-05-18T09:18:19Z</time>
      </trkpt>
      <trkpt lat="45.85666" lon="4.69856">
        <ele>195</ele>
        <time>2018-05-18T09:18:20Z</time>
      </trkpt>
      <trkpt lat="45.85665" lon="4.69847">
        <ele>195</ele>
        <time>2018-05-18T09:18:21Z</time>
      </trkpt>
      <trkpt lat="45.85664" lon="4.69837">
        <ele>195</ele>
        <time>2018-05-18T09:18:22Z</time>
      </trkpt>
      <trkpt lat="45.85663" lon="4.69829">
        <ele>195</ele>
        <time>2018-05-18T09:18:23Z</time>
      </trkpt>
      <trkpt lat="45.85662" lon="4.6982">
        <ele>195</ele>
        <time>2018-05-18T09:18:24Z</time>
      </trkpt>
      <trkpt lat="45.85661" lon="4.69811">
        <ele>195</ele>
        <time>2018-05-18T09:18:25Z</time>
      </trkpt>
      <trkpt lat="45.8566" lon="4.69802">
        <ele>195</ele>
        <time>2018-05-18T09:18:26Z</time>
      </trkpt>
      <trkpt lat="45.8566" lon="4.69792">
        <ele>195</ele>
        <time>2018-05-18T09:18:27Z</time>
      </trkpt>
      <trkpt lat="45.85659" lon="4.69783">
        <ele>195</ele>
        <time>2018-05-18T09:18:28Z</time>
      </trkpt>
      <trkpt lat="45.85658" lon="4.69774">
        <ele>195</ele>
        <time>2018-05-18T09:18:29Z</time>
      </trkpt>
      <trkpt lat="45.85657" lon="4.69766">
        <ele>195</ele>
        <time>2018-05-18T09:18:30Z</time>
      </trkpt>
      <trkpt lat="45.85656" lon="4.69759">
        <ele>195</ele>
        <time>2018-05-18T09:18:31Z</time>
      </trkpt>
      <trkpt lat="45.85655" lon="4.69751">
        <ele>195</ele>
        <time>2018-05-18T09:18:32Z</time>
      </trkpt>
      <trkpt lat="45.85654" lon="4.69743">
        <ele>195</ele>
        <time>2018-05-18T09:18:33Z</time>
      </trkpt>
      <trkpt lat="45.85653" lon="4.69735">
        <ele>195</ele>
        <time>2018-05-18T09:18:34Z</time>
      </trkpt>
      <trkpt lat="45.85652" lon="4.69727">
        <ele>195</ele>
        <time>2018-05-18T09:18:35Z</time>
      </trkpt>
      <trkpt lat="45.85651" lon="4.69718">
        <ele>196</ele>
        <time>2018-05-18T09:18:36Z</time>
      </trkpt>
      <trkpt lat="45.8565" lon="4.69708">
        <ele>196</ele>
        <time>2018-05-18T09:18:37Z</time>
      </trkpt>
      <trkpt lat="45.85647" lon="4.69699">
        <ele>196</ele>
        <time>2018-05-18T09:18:38Z</time>
      </trkpt>
      <trkpt lat="45.85646" lon="4.6969">
        <ele>196</ele>
        <time>2018-05-18T09:18:39Z</time>
      </trkpt>
      <trkpt lat="45.85646" lon="4.69682">
        <ele>196</ele>
        <time>2018-05-18T09:18:40Z</time>
      </trkpt>
      <trkpt lat="45.85646" lon="4.69673">
        <ele>196</ele>
        <time>2018-05-18T09:18:41Z</time>
      </trkpt>
      <trkpt lat="45.85647" lon="4.69664">
        <ele>197</ele>
        <time>2018-05-18T09:18:42Z</time>
      </trkpt>
      <trkpt lat="45.85646" lon="4.69655">
        <ele>197</ele>
        <time>2018-05-18T09:18:43Z</time>
      </trkpt>
      <trkpt lat="45.85645" lon="4.69646">
        <ele>197</ele>
        <time>2018-05-18T09:18:44Z</time>
      </trkpt>
      <trkpt lat="45.85645" lon="4.69637">
        <ele>197</ele>
        <time>2018-05-18T09:18:45Z</time>
      </trkpt>
      <trkpt lat="45.85644" lon="4.69629">
        <ele>197</ele>
        <time>2018-05-18T09:18:46Z</time>
      </trkpt>
      <trkpt lat="45.85643" lon="4.6962">
        <ele>197</ele>
        <time>2018-05-18T09:18:47Z</time>
      </trkpt>
      <trkpt lat="45.85641" lon="4.69611">
        <ele>197</ele>
        <time>2018-05-18T09:18:48Z</time>
      </trkpt>
      <trkpt lat="45.85641" lon="4.69602">
        <ele>197</ele>
        <time>2018-05-18T09:18:49Z</time>
      </trkpt>
      <trkpt lat="45.8564" lon="4.69592">
        <ele>197</ele>
        <time>2018-05-18T09:18:50Z</time>
      </trkpt>
      <trkpt lat="45.8564" lon="4.69583">
        <ele>198</ele>
        <time>2018-05-18T09:18:51Z</time>
      </trkpt>
      <trkpt lat="45.8564" lon="4.69575">
        <ele>198</ele>
        <time>2018-05-18T09:18:52Z</time>
      </trkpt>
      <trkpt lat="45.85639" lon="4.69566">
        <ele>198</ele>
        <time>2018-05-18T09:18:53Z</time>
      </trkpt>
      <trkpt lat="45.85638" lon="4.69557">
        <ele>198</ele>
        <time>2018-05-18T09:18:54Z</time>
      </trkpt>
      <trkpt lat="45.85638" lon="4.69548">
        <ele>198</ele>
        <time>2018-05-18T09:18:55Z</time>
      </trkpt>
      <trkpt lat="45.85637" lon="4.6954">
        <ele>198</ele>
        <time>2018-05-18T09:18:56Z</time>
      </trkpt>
      <trkpt lat="45.85636" lon="4.69532">
        <ele>198</ele>
        <time>2018-05-18T09:18:57Z</time>
      </trkpt>
      <trkpt lat="45.85636" lon="4.69524">
        <ele>198</ele>
        <time>2018-05-18T09:18:58Z</time>
      </trkpt>
      <trkpt lat="45.85635" lon="4.69516">
        <ele>198</ele>
        <time>2018-05-18T09:18:59Z</time>
      </trkpt>
      <trkpt lat="45.85635" lon="4.69508">
        <ele>198</ele>
        <time>2018-05-18T09:19:00Z</time>
      </trkpt>
      <trkpt lat="45.85634" lon="4.695">
        <ele>198</ele>
        <time>2018-05-18T09:19:01Z</time>
      </trkpt>
      <trkpt lat="45.85633" lon="4.69493">
        <ele>198</ele>
        <time>2018-05-18T09:19:02Z</time>
      </trkpt>
      <trkpt lat="45.85632" lon="4.69486">
        <ele>198</ele>
        <time>2018-05-18T09:19:03Z</time>
      </trkpt>
      <trkpt lat="45.85631" lon="4.6948">
        <ele>198</ele>
        <time>2018-05-18T09:19:04Z</time>
      </trkpt>
      <trkpt lat="45.8563" lon="4.69473">
        <ele>198</ele>
        <time>2018-05-18T09:19:05Z</time>
      </trkpt>
      <trkpt lat="45.85629" lon="4.69466">
        <ele>198</ele>
        <time>2018-05-18T09:19:06Z</time>
      </trkpt>
      <trkpt lat="45.85628" lon="4.69458">
        <ele>198</ele>
        <time>2018-05-18T09:19:07Z</time>
      </trkpt>
      <trkpt lat="45.85628" lon="4.6945">
        <ele>198</ele>
        <time>2018-05-18T09:19:08Z</time>
      </trkpt>
      <trkpt lat="45.85627" lon="4.69442">
        <ele>198</ele>
        <time>2018-05-18T09:19:09Z</time>
      </trkpt>
      <trkpt lat="45.85625" lon="4.69434">
        <ele>198</ele>
        <time>2018-05-18T09:19:10Z</time>
      </trkpt>
      <trkpt lat="45.85624" lon="4.69427">
        <ele>198</ele>
        <time>2018-05-18T09:19:11Z</time>
      </trkpt>
      <trkpt lat="45.85623" lon="4.69418">
        <ele>198</ele>
        <time>2018-05-18T09:19:12Z</time>
      </trkpt>
      <trkpt lat="45.85623" lon="4.69408">
        <ele>198</ele>
        <time>2018-05-18T09:19:13Z</time>
      </trkpt>
      <trkpt lat="45.85621" lon="4.69399">
        <ele>198</ele>
        <time>2018-05-18T09:19:14Z</time>
      </trkpt>
      <trkpt lat="45.85621" lon="4.6939">
        <ele>198</ele>
        <time>2018-05-18T09:19:15Z</time>
      </trkpt>
      <trkpt lat="45.8562" lon="4.69382">
        <ele>198</ele>
        <time>2018-05-18T09:19:16Z</time>
      </trkpt>
      <trkpt lat="45.85619" lon="4.69375">
        <ele>198</ele>
        <time>2018-05-18T09:19:17Z</time>
      </trkpt>
      <trkpt lat="45.85618" lon="4.69366">
        <ele>198</ele>
        <time>2018-05-18T09:19:18Z</time>
      </trkpt>
      <trkpt lat="45.85618" lon="4.69359">
        <ele>198</ele>
        <time>2018-05-18T09:19:19Z</time>
      </trkpt>
      <trkpt lat="45.85617" lon="4.69351">
        <ele>198</ele>
        <time>2018-05-18T09:19:20Z</time>
      </trkpt>
      <trkpt lat="45.85617" lon="4.69344">
        <ele>198</ele>
        <time>2018-05-18T09:19:21Z</time>
      </trkpt>
      <trkpt lat="45.85616" lon="4.69335">
        <ele>198</ele>
        <time>2018-05-18T09:19:22Z</time>
      </trkpt>
      <trkpt lat="45.85615" lon="4.69326">
        <ele>198</ele>
        <time>2018-05-18T09:19:23Z</time>
      </trkpt>
      <trkpt lat="45.85614" lon="4.69318">
        <ele>198</ele>
        <time>2018-05-18T09:19:24Z</time>
      </trkpt>
      <trkpt lat="45.85613" lon="4.69311">
        <ele>198</ele>
        <time>2018-05-18T09:19:25Z</time>
      </trkpt>
      <trkpt lat="45.85613" lon="4.69303">
        <ele>198</ele>
        <time>2018-05-18T09:19:26Z</time>
      </trkpt>
      <trkpt lat="45.85612" lon="4.69296">
        <ele>198</ele>
        <time>2018-05-18T09:19:27Z</time>
      </trkpt>
      <trkpt lat="45.85612" lon="4.69288">
        <ele>198</ele>
        <time>2018-05-18T09:19:28Z</time>
      </trkpt>
      <trkpt lat="45.85613" lon="4.69282">
        <ele>198</ele>
        <time>2018-05-18T09:19:29Z</time>
      </trkpt>
      <trkpt lat="45.85615" lon="4.69275">
        <ele>198</ele>
        <time>2018-05-18T09:19:30Z</time>
      </trkpt>
      <trkpt lat="45.85614" lon="4.69263">
        <ele>198</ele>
        <time>2018-05-18T09:19:32Z</time>
      </trkpt>
      <trkpt lat="45.85611" lon="4.69256">
        <ele>198</ele>
        <time>2018-05-18T09:19:33Z</time>
      </trkpt>
      <trkpt lat="45.85609" lon="4.69249">
        <ele>199</ele>
        <time>2018-05-18T09:19:34Z</time>
      </trkpt>
      <trkpt lat="45.85606" lon="4.69242">
        <ele>199</ele>
        <time>2018-05-18T09:19:35Z</time>
      </trkpt>
      <trkpt lat="45.85604" lon="4.69235">
        <ele>199</ele>
        <time>2018-05-18T09:19:36Z</time>
      </trkpt>
      <trkpt lat="45.85603" lon="4.69226">
        <ele>199</ele>
        <time>2018-05-18T09:19:37Z</time>
      </trkpt>
      <trkpt lat="45.85603" lon="4.69216">
        <ele>199</ele>
        <time>2018-05-18T09:19:38Z</time>
      </trkpt>
      <trkpt lat="45.85604" lon="4.69208">
        <ele>199</ele>
        <time>2018-05-18T09:19:39Z</time>
      </trkpt>
      <trkpt lat="45.85603" lon="4.692">
        <ele>199</ele>
        <time>2018-05-18T09:19:40Z</time>
      </trkpt>
      <trkpt lat="45.85602" lon="4.69191">
        <ele>199</ele>
        <time>2018-05-18T09:19:41Z</time>
      </trkpt>
      <trkpt lat="45.85602" lon="4.69182">
        <ele>199</ele>
        <time>2018-05-18T09:19:42Z</time>
      </trkpt>
      <trkpt lat="45.85602" lon="4.69174">
        <ele>199</ele>
        <time>2018-05-18T09:19:43Z</time>
      </trkpt>
      <trkpt lat="45.85601" lon="4.69166">
        <ele>199</ele>
        <time>2018-05-18T09:19:44Z</time>
      </trkpt>
      <trkpt lat="45.856" lon="4.69157">
        <ele>199</ele>
        <time>2018-05-18T09:19:45Z</time>
      </trkpt>
      <trkpt lat="45.85599" lon="4.69148">
        <ele>199</ele>
        <time>2018-05-18T09:19:46Z</time>
      </trkpt>
      <trkpt lat="45.85597" lon="4.6914">
        <ele>199</ele>
        <time>2018-05-18T09:19:47Z</time>
      </trkpt>
      <trkpt lat="45.85597" lon="4.69131">
        <ele>198</ele>
        <time>2018-05-18T09:19:48Z</time>
      </trkpt>
      <trkpt lat="45.85596" lon="4.69121">
        <ele>198</ele>
        <time>2018-05-18T09:19:49Z</time>
      </trkpt>
      <trkpt lat="45.85595" lon="4.69111">
        <ele>199</ele>
        <time>2018-05-18T09:19:50Z</time>
      </trkpt>
      <trkpt lat="45.85594" lon="4.69102">
        <ele>199</ele>
        <time>2018-05-18T09:19:51Z</time>
      </trkpt>
      <trkpt lat="45.85593" lon="4.69092">
        <ele>199</ele>
        <time>2018-05-18T09:19:52Z</time>
      </trkpt>
      <trkpt lat="45.85593" lon="4.69083">
        <ele>199</ele>
        <time>2018-05-18T09:19:53Z</time>
      </trkpt>
      <trkpt lat="45.85592" lon="4.69073">
        <ele>199</ele>
        <time>2018-05-18T09:19:54Z</time>
      </trkpt>
      <trkpt lat="45.85592" lon="4.69064">
        <ele>199</ele>
        <time>2018-05-18T09:19:55Z</time>
      </trkpt>
      <trkpt lat="45.85591" lon="4.69055">
        <ele>199</ele>
        <time>2018-05-18T09:19:56Z</time>
      </trkpt>
      <trkpt lat="45.85591" lon="4.69046">
        <ele>199</ele>
        <time>2018-05-18T09:19:57Z</time>
      </trkpt>
      <trkpt lat="45.85591" lon="4.69037">
        <ele>199</ele>
        <time>2018-05-18T09:19:58Z</time>
      </trkpt>
      <trkpt lat="45.8559" lon="4.6903">
        <ele>199</ele>
        <time>2018-05-18T09:19:59Z</time>
      </trkpt>
      <trkpt lat="45.85589" lon="4.69022">
        <ele>199</ele>
        <time>2018-05-18T09:20:00Z</time>
      </trkpt>
      <trkpt lat="45.85589" lon="4.69013">
        <ele>199</ele>
        <time>2018-05-18T09:20:01Z</time>
      </trkpt>
      <trkpt lat="45.85587" lon="4.69005">
        <ele>200</ele>
        <time>2018-05-18T09:20:02Z</time>
      </trkpt>
      <trkpt lat="45.85586" lon="4.68998">
        <ele>200</ele>
        <time>2018-05-18T09:20:03Z</time>
      </trkpt>
      <trkpt lat="45.85585" lon="4.68989">
        <ele>200</ele>
        <time>2018-05-18T09:20:04Z</time>
      </trkpt>
      <trkpt lat="45.85584" lon="4.68981">
        <ele>200</ele>
        <time>2018-05-18T09:20:05Z</time>
      </trkpt>
      <trkpt lat="45.85583" lon="4.68974">
        <ele>200</ele>
        <time>2018-05-18T09:20:06Z</time>
      </trkpt>
      <trkpt lat="45.85582" lon="4.68967">
        <ele>200</ele>
        <time>2018-05-18T09:20:07Z</time>
      </trkpt>
      <trkpt lat="45.85581" lon="4.68959">
        <ele>200</ele>
        <time>2018-05-18T09:20:08Z</time>
      </trkpt>
      <trkpt lat="45.8558" lon="4.68952">
        <ele>200</ele>
        <time>2018-05-18T09:20:09Z</time>
      </trkpt>
      <trkpt lat="45.85578" lon="4.68944">
        <ele>200</ele>
        <time>2018-05-18T09:20:10Z</time>
      </trkpt>
      <trkpt lat="45.85577" lon="4.68938">
        <ele>200</ele>
        <time>2018-05-18T09:20:11Z</time>
      </trkpt>
      <trkpt lat="45.85576" lon="4.6893">
        <ele>200</ele>
        <time>2018-05-18T09:20:12Z</time>
      </trkpt>
      <trkpt lat="45.85575" lon="4.68923">
        <ele>200</ele>
        <time>2018-05-18T09:20:13Z</time>
      </trkpt>
      <trkpt lat="45.85574" lon="4.68915">
        <ele>200</ele>
        <time>2018-05-18T09:20:14Z</time>
      </trkpt>
      <trkpt lat="45.85574" lon="4.68906">
        <ele>200</ele>
        <time>2018-05-18T09:20:15Z</time>
      </trkpt>
      <trkpt lat="45.85574" lon="4.68897">
        <ele>200</ele>
        <time>2018-05-18T09:20:16Z</time>
      </trkpt>
      <trkpt lat="45.85573" lon="4.6889">
        <ele>200</ele>
        <time>2018-05-18T09:20:17Z</time>
      </trkpt>
      <trkpt lat="45.85572" lon="4.68881">
        <ele>200</ele>
        <time>2018-05-18T09:20:18Z</time>
      </trkpt>
      <trkpt lat="45.85572" lon="4.68874">
        <ele>200</ele>
        <time>2018-05-18T09:20:19Z</time>
      </trkpt>
      <trkpt lat="45.85572" lon="4.68865">
        <ele>200</ele>
        <time>2018-05-18T09:20:20Z</time>
      </trkpt>
      <trkpt lat="45.85571" lon="4.68857">
        <ele>200</ele>
        <time>2018-05-18T09:20:21Z</time>
      </trkpt>
      <trkpt lat="45.85572" lon="4.68847">
        <ele>200</ele>
        <time>2018-05-18T09:20:22Z</time>
      </trkpt>
      <trkpt lat="45.85571" lon="4.68838">
        <ele>200</ele>
        <time>2018-05-18T09:20:23Z</time>
      </trkpt>
      <trkpt lat="45.8557" lon="4.68829">
        <ele>200</ele>
        <time>2018-05-18T09:20:24Z</time>
      </trkpt>
      <trkpt lat="45.85569" lon="4.6882">
        <ele>200</ele>
        <time>2018-05-18T09:20:25Z</time>
      </trkpt>
      <trkpt lat="45.85569" lon="4.6881">
        <ele>200</ele>
        <time>2018-05-18T09:20:26Z</time>
      </trkpt>
      <trkpt lat="45.85569" lon="4.68802">
        <ele>200</ele>
        <time>2018-05-18T09:20:27Z</time>
      </trkpt>
      <trkpt lat="45.85568" lon="4.68793">
        <ele>200</ele>
        <time>2018-05-18T09:20:28Z</time>
      </trkpt>
      <trkpt lat="45.85567" lon="4.68784">
        <ele>200</ele>
        <time>2018-05-18T09:20:29Z</time>
      </trkpt>
      <trkpt lat="45.85566" lon="4.68776">
        <ele>200</ele>
        <time>2018-05-18T09:20:30Z</time>
      </trkpt>
      <trkpt lat="45.85565" lon="4.68768">
        <ele>200</ele>
        <time>2018-05-18T09:20:31Z</time>
      </trkpt>
      <trkpt lat="45.85563" lon="4.68759">
        <ele>200</ele>
        <time>2018-05-18T09:20:32Z</time>
      </trkpt>
      <trkpt lat="45.85564" lon="4.68752">
        <ele>200</ele>
        <time>2018-05-18T09:20:33Z</time>
      </trkpt>
      <trkpt lat="45.85564" lon="4.68742">
        <ele>200</ele>
        <time>2018-05-18T09:20:34Z</time>
      </trkpt>
      <trkpt lat="45.85565" lon="4.68734">
        <ele>200</ele>
        <time>2018-05-18T09:20:35Z</time>
      </trkpt>
      <trkpt lat="45.85565" lon="4.68725">
        <ele>200</ele>
        <time>2018-05-18T09:20:36Z</time>
      </trkpt>
      <trkpt lat="45.85564" lon="4.68718">
        <ele>200</ele>
        <time>2018-05-18T09:20:37Z</time>
      </trkpt>
      <trkpt lat="45.85563" lon="4.68709">
        <ele>200</ele>
        <time>2018-05-18T09:20:38Z</time>
      </trkpt>
      <trkpt lat="45.85561" lon="4.68701">
        <ele>200</ele>
        <time>2018-05-18T09:20:39Z</time>
      </trkpt>
      <trkpt lat="45.8556" lon="4.68693">
        <ele>200</ele>
        <time>2018-05-18T09:20:40Z</time>
      </trkpt>
      <trkpt lat="45.8556" lon="4.68685">
        <ele>200</ele>
        <time>2018-05-18T09:20:41Z</time>
      </trkpt>
      <trkpt lat="45.85558" lon="4.68677">
        <ele>200</ele>
        <time>2018-05-18T09:20:42Z</time>
      </trkpt>
      <trkpt lat="45.85557" lon="4.6867">
        <ele>200</ele>
        <time>2018-05-18T09:20:43Z</time>
      </trkpt>
      <trkpt lat="45.85557" lon="4.68664">
        <ele>200</ele>
        <time>2018-05-18T09:20:44Z</time>
      </trkpt>
      <trkpt lat="45.85555" lon="4.68656">
        <ele>200</ele>
        <time>2018-05-18T09:20:45Z</time>
      </trkpt>
      <trkpt lat="45.85556" lon="4.68648">
        <ele>201</ele>
        <time>2018-05-18T09:20:46Z</time>
      </trkpt>
      <trkpt lat="45.85555" lon="4.6864">
        <ele>201</ele>
        <time>2018-05-18T09:20:47Z</time>
      </trkpt>
      <trkpt lat="45.85554" lon="4.68631">
        <ele>201</ele>
        <time>2018-05-18T09:20:48Z</time>
      </trkpt>
      <trkpt lat="45.85554" lon="4.68621">
        <ele>201</ele>
        <time>2018-05-18T09:20:49Z</time>
      </trkpt>
      <trkpt lat="45.85553" lon="4.68613">
        <ele>201</ele>
        <time>2018-05-18T09:20:50Z</time>
      </trkpt>
      <trkpt lat="45.85552" lon="4.68604">
        <ele>201</ele>
        <time>2018-05-18T09:20:51Z</time>
      </trkpt>
      <trkpt lat="45.8555" lon="4.68596">
        <ele>201</ele>
        <time>2018-05-18T09:20:52Z</time>
      </trkpt>
      <trkpt lat="45.85549" lon="4.68588">
        <ele>201</ele>
        <time>2018-05-18T09:20:53Z</time>
      </trkpt>
      <trkpt lat="45.85548" lon="4.68578">
        <ele>201</ele>
        <time>2018-05-18T09:20:54Z</time>
      </trkpt>
      <trkpt lat="45.85547" lon="4.68571">
        <ele>201</ele>
        <time>2018-05-18T09:20:55Z</time>
      </trkpt>
      <trkpt lat="45.85547" lon="4.68562">
        <ele>201</ele>
        <time>2018-05-18T09:20:56Z</time>
      </trkpt>
      <trkpt lat="45.85546" lon="4.68556">
        <ele>201</ele>
        <time>2018-05-18T09:20:57Z</time>
      </trkpt>
      <trkpt lat="45.85545" lon="4.68546">
        <ele>201</ele>
        <time>2018-05-18T09:20:58Z</time>
      </trkpt>
      <trkpt lat="45.85544" lon="4.68537">
        <ele>201</ele>
        <time>2018-05-18T09:20:59Z</time>
      </trkpt>
      <trkpt lat="45.85544" lon="4.68527">
        <ele>201</ele>
        <time>2018-05-18T09:21:00Z</time>
      </trkpt>
      <trkpt lat="45.85542" lon="4.68517">
        <ele>201</ele>
        <time>2018-05-18T09:21:01Z</time>
      </trkpt>
      <trkpt lat="45.85543" lon="4.68508">
        <ele>201</ele>
        <time>2018-05-18T09:21:02Z</time>
      </trkpt>
      <trkpt lat="45.85542" lon="4.68501">
        <ele>201</ele>
        <time>2018-05-18T09:21:03Z</time>
      </trkpt>
      <trkpt lat="45.8554" lon="4.68494">
        <ele>200</ele>
        <time>2018-05-18T09:21:04Z</time>
      </trkpt>
      <trkpt lat="45.85539" lon="4.68485">
        <ele>200</ele>
        <time>2018-05-18T09:21:05Z</time>
      </trkpt>
      <trkpt lat="45.85539" lon="4.68478">
        <ele>200</ele>
        <time>2018-05-18T09:21:06Z</time>
      </trkpt>
      <trkpt lat="45.85537" lon="4.6847">
        <ele>200</ele>
        <time>2018-05-18T09:21:07Z</time>
      </trkpt>
      <trkpt lat="45.85536" lon="4.68461">
        <ele>200</ele>
        <time>2018-05-18T09:21:08Z</time>
      </trkpt>
      <trkpt lat="45.85535" lon="4.68454">
        <ele>200</ele>
        <time>2018-05-18T09:21:09Z</time>
      </trkpt>
      <trkpt lat="45.85535" lon="4.68447">
        <ele>200</ele>
        <time>2018-05-18T09:21:10Z</time>
      </trkpt>
      <trkpt lat="45.85534" lon="4.68439">
        <ele>200</ele>
        <time>2018-05-18T09:21:11Z</time>
      </trkpt>
      <trkpt lat="45.85534" lon="4.68427">
        <ele>200</ele>
        <time>2018-05-18T09:21:13Z</time>
      </trkpt>
      <trkpt lat="45.85533" lon="4.6842">
        <ele>200</ele>
        <time>2018-05-18T09:21:14Z</time>
      </trkpt>
      <trkpt lat="45.85531" lon="4.68409">
        <ele>200</ele>
        <time>2018-05-18T09:21:16Z</time>
      </trkpt>
      <trkpt lat="45.85531" lon="4.68406">
        <ele>200</ele>
        <time>2018-05-18T09:21:17Z</time>
      </trkpt>
      <trkpt lat="45.8553" lon="4.68399">
        <ele>200</ele>
        <time>2018-05-18T09:21:18Z</time>
      </trkpt>
      <trkpt lat="45.85531" lon="4.68393">
        <ele>200</ele>
        <time>2018-05-18T09:21:19Z</time>
      </trkpt>
      <trkpt lat="45.85531" lon="4.68386">
        <ele>200</ele>
        <time>2018-05-18T09:21:20Z</time>
      </trkpt>
      <trkpt lat="45.8553" lon="4.68379">
        <ele>201</ele>
        <time>2018-05-18T09:21:21Z</time>
      </trkpt>
      <trkpt lat="45.85529" lon="4.68371">
        <ele>201</ele>
        <time>2018-05-18T09:21:22Z</time>
      </trkpt>
      <trkpt lat="45.85528" lon="4.68364">
        <ele>201</ele>
        <time>2018-05-18T09:21:23Z</time>
      </trkpt>
      <trkpt lat="45.85528" lon="4.68358">
        <ele>201</ele>
        <time>2018-05-18T09:21:24Z</time>
      </trkpt>
      <trkpt lat="45.85527" lon="4.68349">
        <ele>201</ele>
        <time>2018-05-18T09:21:25Z</time>
      </trkpt>
      <trkpt lat="45.85526" lon="4.68341">
        <ele>201</ele>
        <time>2018-05-18T09:21:26Z</time>
      </trkpt>
      <trkpt lat="45.85525" lon="4.68333">
        <ele>202</ele>
        <time>2018-05-18T09:21:27Z</time>
      </trkpt>
      <trkpt lat="45.85524" lon="4.68325">
        <ele>202</ele>
        <time>2018-05-18T09:21:28Z</time>
      </trkpt>
      <trkpt lat="45.85522" lon="4.68318">
        <ele>202</ele>
        <time>2018-05-18T09:21:29Z</time>
      </trkpt>
      <trkpt lat="45.85521" lon="4.6831">
        <ele>202</ele>
        <time>2018-05-18T09:21:30Z</time>
      </trkpt>
      <trkpt lat="45.85521" lon="4.68303">
        <ele>202</ele>
        <time>2018-05-18T09:21:31Z</time>
      </trkpt>
      <trkpt lat="45.85519" lon="4.68295">
        <ele>202</ele>
        <time>2018-05-18T09:21:32Z</time>
      </trkpt>
      <trkpt lat="45.85519" lon="4.68287">
        <ele>202</ele>
        <time>2018-05-18T09:21:33Z</time>
      </trkpt>
      <trkpt lat="45.85517" lon="4.68279">
        <ele>202</ele>
        <time>2018-05-18T09:21:34Z</time>
      </trkpt>
      <trkpt lat="45.85517" lon="4.68271">
        <ele>202</ele>
        <time>2018-05-18T09:21:35Z</time>
      </trkpt>
      <trkpt lat="45.85516" lon="4.68267">
        <ele>202</ele>
        <time>2018-05-18T09:21:36Z</time>
      </trkpt>
      <trkpt lat="45.85515" lon="4.68257">
        <ele>203</ele>
        <time>2018-05-18T09:21:37Z</time>
      </trkpt>
      <trkpt lat="45.85514" lon="4.68251">
        <ele>203</ele>
        <time>2018-05-18T09:21:38Z</time>
      </trkpt>
      <trkpt lat="45.85515" lon="4.68243">
        <ele>203</ele>
        <time>2018-05-18T09:21:39Z</time>
      </trkpt>
      <trkpt lat="45.85515" lon="4.68235">
        <ele>203</ele>
        <time>2018-05-18T09:21:40Z</time>
      </trkpt>
      <trkpt lat="45.85513" lon="4.68229">
        <ele>203</ele>
        <time>2018-05-18T09:21:41Z</time>
      </trkpt>
      <trkpt lat="45.85513" lon="4.68222">
        <ele>203</ele>
        <time>2018-05-18T09:21:42Z</time>
      </trkpt>
      <trkpt lat="45.85513" lon="4.68212">
        <ele>203</ele>
        <time>2018-05-18T09:21:43Z</time>
      </trkpt>
      <trkpt lat="45.85512" lon="4.68203">
        <ele>203</ele>
        <time>2018-05-18T09:21:44Z</time>
      </trkpt>
      <trkpt lat="45.85511" lon="4.68194">
        <ele>203</ele>
        <time>2018-05-18T09:21:45Z</time>
      </trkpt>
      <trkpt lat="45.85511" lon="4.68185">
        <ele>203</ele>
        <time>2018-05-18T09:21:46Z</time>
      </trkpt>
      <trkpt lat="45.85509" lon="4.68177">
        <ele>204</ele>
        <time>2018-05-18T09:21:47Z</time>
      </trkpt>
      <trkpt lat="45.85508" lon="4.6817">
        <ele>204</ele>
        <time>2018-05-18T09:21:48Z</time>
      </trkpt>
      <trkpt lat="45.85506" lon="4.68162">
        <ele>204</ele>
        <time>2018-05-18T09:21:49Z</time>
      </trkpt>
      <trkpt lat="45.85505" lon="4.68154">
        <ele>203</ele>
        <time>2018-05-18T09:21:50Z</time>
      </trkpt>
      <trkpt lat="45.85505" lon="4.68145">
        <ele>203</ele>
        <time>2018-05-18T09:21:51Z</time>
      </trkpt>
      <trkpt lat="45.85504" lon="4.68139">
        <ele>203</ele>
        <time>2018-05-18T09:21:52Z</time>
      </trkpt>
      <trkpt lat="45.85504" lon="4.68131">
        <ele>203</ele>
        <time>2018-05-18T09:21:53Z</time>
      </trkpt>
      <trkpt lat="45.85504" lon="4.68124">
        <ele>203</ele>
        <time>2018-05-18T09:21:54Z</time>
      </trkpt>
      <trkpt lat="45.85504" lon="4.68116">
        <ele>203</ele>
        <time>2018-05-18T09:21:55Z</time>
      </trkpt>
      <trkpt lat="45.85503" lon="4.68109">
        <ele>203</ele>
        <time>2018-05-18T09:21:56Z</time>
      </trkpt>
      <trkpt lat="45.85504" lon="4.68101">
        <ele>203</ele>
        <time>2018-05-18T09:21:57Z</time>
      </trkpt>
      <trkpt lat="45.85504" lon="4.68095">
        <ele>203</ele>
        <time>2018-05-18T09:21:58Z</time>
      </trkpt>
      <trkpt lat="45.85503" lon="4.68087">
        <ele>204</ele>
        <time>2018-05-18T09:21:59Z</time>
      </trkpt>
      <trkpt lat="45.85503" lon="4.6808">
        <ele>204</ele>
        <time>2018-05-18T09:22:00Z</time>
      </trkpt>
      <trkpt lat="45.85502" lon="4.68072">
        <ele>204</ele>
        <time>2018-05-18T09:22:01Z</time>
      </trkpt>
      <trkpt lat="45.85501" lon="4.68065">
        <ele>203</ele>
        <time>2018-05-18T09:22:02Z</time>
      </trkpt>
      <trkpt lat="45.855" lon="4.68056">
        <ele>206</ele>
        <time>2018-05-18T09:22:03Z</time>
      </trkpt>
      <trkpt lat="45.85497" lon="4.68048">
        <ele>206</ele>
        <time>2018-05-18T09:22:04Z</time>
      </trkpt>
      <trkpt lat="45.85496" lon="4.68042">
        <ele>206</ele>
        <time>2018-05-18T09:22:05Z</time>
      </trkpt>
      <trkpt lat="45.85496" lon="4.68034">
        <ele>207</ele>
        <time>2018-05-18T09:22:06Z</time>
      </trkpt>
      <trkpt lat="45.85495" lon="4.68026">
        <ele>207</ele>
        <time>2018-05-18T09:22:07Z</time>
      </trkpt>
      <trkpt lat="45.85496" lon="4.68019">
        <ele>207</ele>
        <time>2018-05-18T09:22:08Z</time>
      </trkpt>
      <trkpt lat="45.85497" lon="4.68012">
        <ele>206</ele>
        <time>2018-05-18T09:22:09Z</time>
      </trkpt>
      <trkpt lat="45.855" lon="4.68006">
        <ele>206</ele>
        <time>2018-05-18T09:22:10Z</time>
      </trkpt>
      <trkpt lat="45.85503" lon="4.68">
        <ele>206</ele>
        <time>2018-05-18T09:22:11Z</time>
      </trkpt>
      <trkpt lat="45.85506" lon="4.67994">
        <ele>206</ele>
        <time>2018-05-18T09:22:12Z</time>
      </trkpt>
      <trkpt lat="45.8551" lon="4.67988">
        <ele>206</ele>
        <time>2018-05-18T09:22:13Z</time>
      </trkpt>
      <trkpt lat="45.85514" lon="4.67984">
        <ele>206</ele>
        <time>2018-05-18T09:22:14Z</time>
      </trkpt>
      <trkpt lat="45.85519" lon="4.67979">
        <ele>206</ele>
        <time>2018-05-18T09:22:15Z</time>
      </trkpt>
      <trkpt lat="45.85523" lon="4.67973">
        <ele>206</ele>
        <time>2018-05-18T09:22:16Z</time>
      </trkpt>
      <trkpt lat="45.85528" lon="4.67967">
        <ele>206</ele>
        <time>2018-05-18T09:22:17Z</time>
      </trkpt>
      <trkpt lat="45.85534" lon="4.67962">
        <ele>205</ele>
        <time>2018-05-18T09:22:18Z</time>
      </trkpt>
      <trkpt lat="45.85538" lon="4.67957">
        <ele>205</ele>
        <time>2018-05-18T09:22:19Z</time>
      </trkpt>
      <trkpt lat="45.85544" lon="4.67953">
        <ele>205</ele>
        <time>2018-05-18T09:22:20Z</time>
      </trkpt>
      <trkpt lat="45.85548" lon="4.67948">
        <ele>205</ele>
        <time>2018-05-18T09:22:21Z</time>
      </trkpt>
      <trkpt lat="45.85553" lon="4.67943">
        <ele>205</ele>
        <time>2018-05-18T09:22:22Z</time>
      </trkpt>
      <trkpt lat="45.85556" lon="4.6794">
        <ele>205</ele>
        <time>2018-05-18T09:22:23Z</time>
      </trkpt>
      <trkpt lat="45.85561" lon="4.67936">
        <ele>205</ele>
        <time>2018-05-18T09:22:24Z</time>
      </trkpt>
      <trkpt lat="45.85564" lon="4.67933">
        <ele>205</ele>
        <time>2018-05-18T09:22:25Z</time>
      </trkpt>
      <trkpt lat="45.85568" lon="4.6793">
        <ele>205</ele>
        <time>2018-05-18T09:22:26Z</time>
      </trkpt>
      <trkpt lat="45.85573" lon="4.67927">
        <ele>205</ele>
        <time>2018-05-18T09:22:27Z</time>
      </trkpt>
      <trkpt lat="45.85578" lon="4.67916">
        <ele>205</ele>
        <time>2018-05-18T09:22:29Z</time>
      </trkpt>
      <trkpt lat="45.85579" lon="4.6791">
        <ele>205</ele>
        <time>2018-05-18T09:22:30Z</time>
      </trkpt>
      <trkpt lat="45.85577" lon="4.67902">
        <ele>206</ele>
        <time>2018-05-18T09:22:31Z</time>
      </trkpt>
      <trkpt lat="45.85577" lon="4.67895">
        <ele>206</ele>
        <time>2018-05-18T09:22:32Z</time>
      </trkpt>
      <trkpt lat="45.85576" lon="4.67889">
        <ele>206</ele>
        <time>2018-05-18T09:22:33Z</time>
      </trkpt>
      <trkpt lat="45.85574" lon="4.67882">
        <ele>206</ele>
        <time>2018-05-18T09:22:34Z</time>
      </trkpt>
      <trkpt lat="45.85575" lon="4.67873">
        <ele>207</ele>
        <time>2018-05-18T09:22:35Z</time>
      </trkpt>
      <trkpt lat="45.85574" lon="4.67866">
        <ele>207</ele>
        <time>2018-05-18T09:22:36Z</time>
      </trkpt>
      <trkpt lat="45.85576" lon="4.67857">
        <ele>206</ele>
        <time>2018-05-18T09:22:37Z</time>
      </trkpt>
      <trkpt lat="45.85578" lon="4.67849">
        <ele>206</ele>
        <time>2018-05-18T09:22:38Z</time>
      </trkpt>
      <trkpt lat="45.85579" lon="4.67842">
        <ele>206</ele>
        <time>2018-05-18T09:22:39Z</time>
      </trkpt>
      <trkpt lat="45.85582" lon="4.67834">
        <ele>205</ele>
        <time>2018-05-18T09:22:40Z</time>
      </trkpt>
      <trkpt lat="45.85583" lon="4.67827">
        <ele>205</ele>
        <time>2018-05-18T09:22:41Z</time>
      </trkpt>
      <trkpt lat="45.85585" lon="4.67818">
        <ele>208</ele>
        <time>2018-05-18T09:22:42Z</time>
      </trkpt>
      <trkpt lat="45.85588" lon="4.67809">
        <ele>209</ele>
        <time>2018-05-18T09:22:43Z</time>
      </trkpt>
      <trkpt lat="45.8559" lon="4.67799">
        <ele>210</ele>
        <time>2018-05-18T09:22:44Z</time>
      </trkpt>
      <trkpt lat="45.85593" lon="4.6779">
        <ele>210</ele>
        <time>2018-05-18T09:22:45Z</time>
      </trkpt>
      <trkpt lat="45.85595" lon="4.67781">
        <ele>210</ele>
        <time>2018-05-18T09:22:46Z</time>
      </trkpt>
      <trkpt lat="45.85598" lon="4.67774">
        <ele>209</ele>
        <time>2018-05-18T09:22:47Z</time>
      </trkpt>
      <trkpt lat="45.856" lon="4.67766">
        <ele>209</ele>
        <time>2018-05-18T09:22:48Z</time>
      </trkpt>
      <trkpt lat="45.85604" lon="4.67759">
        <ele>209</ele>
        <time>2018-05-18T09:22:49Z</time>
      </trkpt>
      <trkpt lat="45.85607" lon="4.67751">
        <ele>209</ele>
        <time>2018-05-18T09:22:50Z</time>
      </trkpt>
      <trkpt lat="45.85611" lon="4.67743">
        <ele>208</ele>
        <time>2018-05-18T09:22:51Z</time>
      </trkpt>
      <trkpt lat="45.85615" lon="4.67734">
        <ele>209</ele>
        <time>2018-05-18T09:22:52Z</time>
      </trkpt>
      <trkpt lat="45.85618" lon="4.67728">
        <ele>209</ele>
        <time>2018-05-18T09:22:53Z</time>
      </trkpt>
      <trkpt lat="45.85622" lon="4.67723">
        <ele>209</ele>
        <time>2018-05-18T09:22:54Z</time>
      </trkpt>
      <trkpt lat="45.85626" lon="4.67717">
        <ele>209</ele>
        <time>2018-05-18T09:22:55Z</time>
      </trkpt>
      <trkpt lat="45.8563" lon="4.67714">
        <ele>210</ele>
        <time>2018-05-18T09:22:56Z</time>
      </trkpt>
      <trkpt lat="45.85634" lon="4.67708">
        <ele>210</ele>
        <time>2018-05-18T09:22:57Z</time>
      </trkpt>
      <trkpt lat="45.85638" lon="4.67703">
        <ele>210</ele>
        <time>2018-05-18T09:22:58Z</time>
      </trkpt>
      <trkpt lat="45.85642" lon="4.67698">
        <ele>210</ele>
        <time>2018-05-18T09:22:59Z</time>
      </trkpt>
      <trkpt lat="45.85646" lon="4.67693">
        <ele>210</ele>
        <time>2018-05-18T09:23:00Z</time>
      </trkpt>
      <trkpt lat="45.8565" lon="4.67688">
        <ele>209</ele>
        <time>2018-05-18T09:23:01Z</time>
      </trkpt>
      <trkpt lat="45.85655" lon="4.67686">
        <ele>209</ele>
        <time>2018-05-18T09:23:02Z</time>
      </trkpt>
      <trkpt lat="45.85661" lon="4.67681">
        <ele>209</ele>
        <time>2018-05-18T09:23:03Z</time>
      </trkpt>
      <trkpt lat="45.85666" lon="4.67677">
        <ele>209</ele>
        <time>2018-05-18T09:23:04Z</time>
      </trkpt>
      <trkpt lat="45.85672" lon="4.67675">
        <ele>213</ele>
        <time>2018-05-18T09:23:05Z</time>
      </trkpt>
      <trkpt lat="45.85678" lon="4.6767">
        <ele>214</ele>
        <time>2018-05-18T09:23:06Z</time>
      </trkpt>
      <trkpt lat="45.85683" lon="4.67667">
        <ele>216</ele>
        <time>2018-05-18T09:23:07Z</time>
      </trkpt>
      <trkpt lat="45.85689" lon="4.67663">
        <ele>211</ele>
        <time>2018-05-18T09:23:08Z</time>
      </trkpt>
      <trkpt lat="45.85693" lon="4.6766">
        <ele>211</ele>
        <time>2018-05-18T09:23:09Z</time>
      </trkpt>
      <trkpt lat="45.85698" lon="4.67657">
        <ele>211</ele>
        <time>2018-05-18T09:23:10Z</time>
      </trkpt>
      <trkpt lat="45.85703" lon="4.67653">
        <ele>211</ele>
        <time>2018-05-18T09:23:11Z</time>
      </trkpt>
      <trkpt lat="45.85709" lon="4.67651">
        <ele>212</ele>
        <time>2018-05-18T09:23:12Z</time>
      </trkpt>
      <trkpt lat="45.85713" lon="4.67647">
        <ele>212</ele>
        <time>2018-05-18T09:23:13Z</time>
      </trkpt>
      <trkpt lat="45.85719" lon="4.67642">
        <ele>212</ele>
        <time>2018-05-18T09:23:14Z</time>
      </trkpt>
      <trkpt lat="45.85724" lon="4.67637">
        <ele>212</ele>
        <time>2018-05-18T09:23:15Z</time>
      </trkpt>
      <trkpt lat="45.85729" lon="4.67634">
        <ele>212</ele>
        <time>2018-05-18T09:23:16Z</time>
      </trkpt>
      <trkpt lat="45.85735" lon="4.67629">
        <ele>212</ele>
        <time>2018-05-18T09:23:17Z</time>
      </trkpt>
      <trkpt lat="45.8574" lon="4.67626">
        <ele>212</ele>
        <time>2018-05-18T09:23:18Z</time>
      </trkpt>
      <trkpt lat="45.85745" lon="4.67623">
        <ele>211</ele>
        <time>2018-05-18T09:23:19Z</time>
      </trkpt>
      <trkpt lat="45.85751" lon="4.6762">
        <ele>219</ele>
        <time>2018-05-18T09:23:20Z</time>
      </trkpt>
      <trkpt lat="45.85756" lon="4.67615">
        <ele>218</ele>
        <time>2018-05-18T09:23:21Z</time>
      </trkpt>
      <trkpt lat="45.85763" lon="4.6761">
        <ele>218</ele>
        <time>2018-05-18T09:23:22Z</time>
      </trkpt>
      <trkpt lat="45.85768" lon="4.67607">
        <ele>218</ele>
        <time>2018-05-18T09:23:23Z</time>
      </trkpt>
      <trkpt lat="45.85773" lon="4.67604">
        <ele>218</ele>
        <time>2018-05-18T09:23:24Z</time>
      </trkpt>
      <trkpt lat="45.85778" lon="4.676">
        <ele>218</ele>
        <time>2018-05-18T09:23:25Z</time>
      </trkpt>
      <trkpt lat="45.85783" lon="4.67595">
        <ele>219</ele>
        <time>2018-05-18T09:23:26Z</time>
      </trkpt>
      <trkpt lat="45.85788" lon="4.67589">
        <ele>219</ele>
        <time>2018-05-18T09:23:27Z</time>
      </trkpt>
      <trkpt lat="45.85793" lon="4.67585">
        <ele>220</ele>
        <time>2018-05-18T09:23:28Z</time>
      </trkpt>
      <trkpt lat="45.85798" lon="4.6758">
        <ele>212</ele>
        <time>2018-05-18T09:23:29Z</time>
      </trkpt>
      <trkpt lat="45.85802" lon="4.67576">
        <ele>212</ele>
        <time>2018-05-18T09:23:30Z</time>
      </trkpt>
      <trkpt lat="45.85807" lon="4.67572">
        <ele>213</ele>
        <time>2018-05-18T09:23:31Z</time>
      </trkpt>
      <trkpt lat="45.85811" lon="4.67567">
        <ele>213</ele>
        <time>2018-05-18T09:23:32Z</time>
      </trkpt>
      <trkpt lat="45.85815" lon="4.6756">
        <ele>213</ele>
        <time>2018-05-18T09:23:33Z</time>
      </trkpt>
      <trkpt lat="45.85819" lon="4.67555">
        <ele>212</ele>
        <time>2018-05-18T09:23:34Z</time>
      </trkpt>
      <trkpt lat="45.85823" lon="4.67551">
        <ele>212</ele>
        <time>2018-05-18T09:23:35Z</time>
      </trkpt>
      <trkpt lat="45.85827" lon="4.67544">
        <ele>211</ele>
        <time>2018-05-18T09:23:36Z</time>
      </trkpt>
      <trkpt lat="45.85831" lon="4.67537">
        <ele>210</ele>
        <time>2018-05-18T09:23:37Z</time>
      </trkpt>
      <trkpt lat="45.85835" lon="4.67529">
        <ele>219</ele>
        <time>2018-05-18T09:23:38Z</time>
      </trkpt>
      <trkpt lat="45.8584" lon="4.67522">
        <ele>218</ele>
        <time>2018-05-18T09:23:39Z</time>
      </trkpt>
      <trkpt lat="45.85842" lon="4.67516">
        <ele>216</ele>
        <time>2018-05-18T09:23:40Z</time>
      </trkpt>
      <trkpt lat="45.85846" lon="4.67509">
        <ele>215</ele>
        <time>2018-05-18T09:23:41Z</time>
      </trkpt>
      <trkpt lat="45.85848" lon="4.67501">
        <ele>215</ele>
        <time>2018-05-18T09:23:42Z</time>
      </trkpt>
      <trkpt lat="45.85852" lon="4.67494">
        <ele>211</ele>
        <time>2018-05-18T09:23:43Z</time>
      </trkpt>
      <trkpt lat="45.85856" lon="4.67487">
        <ele>213</ele>
        <time>2018-05-18T09:23:44Z</time>
      </trkpt>
      <trkpt lat="45.85858" lon="4.6748">
        <ele>213</ele>
        <time>2018-05-18T09:23:45Z</time>
      </trkpt>
      <trkpt lat="45.8586" lon="4.67473">
        <ele>214</ele>
        <time>2018-05-18T09:23:46Z</time>
      </trkpt>
      <trkpt lat="45.85862" lon="4.67464">
        <ele>214</ele>
        <time>2018-05-18T09:23:47Z</time>
      </trkpt>
      <trkpt lat="45.85864" lon="4.67457">
        <ele>214</ele>
        <time>2018-05-18T09:23:48Z</time>
      </trkpt>
      <trkpt lat="45.85865" lon="4.67448">
        <ele>213</ele>
        <time>2018-05-18T09:23:49Z</time>
      </trkpt>
      <trkpt lat="45.85866" lon="4.67438">
        <ele>213</ele>
        <time>2018-05-18T09:23:50Z</time>
      </trkpt>
      <trkpt lat="45.85867" lon="4.67431">
        <ele>213</ele>
        <time>2018-05-18T09:23:51Z</time>
      </trkpt>
      <trkpt lat="45.85868" lon="4.67422">
        <ele>213</ele>
        <time>2018-05-18T09:23:52Z</time>
      </trkpt>
      <trkpt lat="45.85868" lon="4.67414">
        <ele>209</ele>
        <time>2018-05-18T09:23:53Z</time>
      </trkpt>
      <trkpt lat="45.85869" lon="4.67405">
        <ele>209</ele>
        <time>2018-05-18T09:23:54Z</time>
      </trkpt>
      <trkpt lat="45.85869" lon="4.67396">
        <ele>209</ele>
        <time>2018-05-18T09:23:55Z</time>
      </trkpt>
      <trkpt lat="45.85869" lon="4.67387">
        <ele>209</ele>
        <time>2018-05-18T09:23:56Z</time>
      </trkpt>
      <trkpt lat="45.8587" lon="4.67378">
        <ele>209</ele>
        <time>2018-05-18T09:23:57Z</time>
      </trkpt>
      <trkpt lat="45.85871" lon="4.67369">
        <ele>209</ele>
        <time>2018-05-18T09:23:58Z</time>
      </trkpt>
      <trkpt lat="45.85871" lon="4.67361">
        <ele>209</ele>
        <time>2018-05-18T09:23:59Z</time>
      </trkpt>
      <trkpt lat="45.85872" lon="4.67351">
        <ele>208</ele>
        <time>2018-05-18T09:24:00Z</time>
      </trkpt>
      <trkpt lat="45.85872" lon="4.67343">
        <ele>208</ele>
        <time>2018-05-18T09:24:01Z</time>
      </trkpt>
      <trkpt lat="45.85871" lon="4.67335">
        <ele>208</ele>
        <time>2018-05-18T09:24:02Z</time>
      </trkpt>
      <trkpt lat="45.85872" lon="4.67326">
        <ele>205</ele>
        <time>2018-05-18T09:24:03Z</time>
      </trkpt>
      <trkpt lat="45.85873" lon="4.67317">
        <ele>205</ele>
        <time>2018-05-18T09:24:04Z</time>
      </trkpt>
      <trkpt lat="45.85875" lon="4.67308">
        <ele>205</ele>
        <time>2018-05-18T09:24:05Z</time>
      </trkpt>
      <trkpt lat="45.85876" lon="4.67299">
        <ele>205</ele>
        <time>2018-05-18T09:24:06Z</time>
      </trkpt>
      <trkpt lat="45.85877" lon="4.6729">
        <ele>205</ele>
        <time>2018-05-18T09:24:07Z</time>
      </trkpt>
      <trkpt lat="45.85877" lon="4.67281">
        <ele>205</ele>
        <time>2018-05-18T09:24:08Z</time>
      </trkpt>
      <trkpt lat="45.85879" lon="4.67272">
        <ele>205</ele>
        <time>2018-05-18T09:24:09Z</time>
      </trkpt>
      <trkpt lat="45.8588" lon="4.67263">
        <ele>205</ele>
        <time>2018-05-18T09:24:10Z</time>
      </trkpt>
      <trkpt lat="45.85881" lon="4.67253">
        <ele>205</ele>
        <time>2018-05-18T09:24:11Z</time>
      </trkpt>
      <trkpt lat="45.85882" lon="4.67245">
        <ele>204</ele>
        <time>2018-05-18T09:24:12Z</time>
      </trkpt>
      <trkpt lat="45.85883" lon="4.67237">
        <ele>204</ele>
        <time>2018-05-18T09:24:13Z</time>
      </trkpt>
      <trkpt lat="45.85883" lon="4.67229">
        <ele>204</ele>
        <time>2018-05-18T09:24:14Z</time>
      </trkpt>
      <trkpt lat="45.85885" lon="4.67219">
        <ele>204</ele>
        <time>2018-05-18T09:24:15Z</time>
      </trkpt>
      <trkpt lat="45.85886" lon="4.6721">
        <ele>204</ele>
        <time>2018-05-18T09:24:16Z</time>
      </trkpt>
      <trkpt lat="45.85887" lon="4.67201">
        <ele>204</ele>
        <time>2018-05-18T09:24:17Z</time>
      </trkpt>
      <trkpt lat="45.85888" lon="4.67194">
        <ele>204</ele>
        <time>2018-05-18T09:24:18Z</time>
      </trkpt>
      <trkpt lat="45.85889" lon="4.67185">
        <ele>204</ele>
        <time>2018-05-18T09:24:19Z</time>
      </trkpt>
      <trkpt lat="45.85889" lon="4.67176">
        <ele>205</ele>
        <time>2018-05-18T09:24:20Z</time>
      </trkpt>
      <trkpt lat="45.8589" lon="4.67168">
        <ele>205</ele>
        <time>2018-05-18T09:24:21Z</time>
      </trkpt>
      <trkpt lat="45.85892" lon="4.6716">
        <ele>204</ele>
        <time>2018-05-18T09:24:22Z</time>
      </trkpt>
      <trkpt lat="45.85893" lon="4.67151">
        <ele>204</ele>
        <time>2018-05-18T09:24:23Z</time>
      </trkpt>
      <trkpt lat="45.85895" lon="4.67142">
        <ele>204</ele>
        <time>2018-05-18T09:24:24Z</time>
      </trkpt>
      <trkpt lat="45.85895" lon="4.67133">
        <ele>204</ele>
        <time>2018-05-18T09:24:25Z</time>
      </trkpt>
      <trkpt lat="45.85897" lon="4.67124">
        <ele>204</ele>
        <time>2018-05-18T09:24:26Z</time>
      </trkpt>
      <trkpt lat="45.85898" lon="4.67115">
        <ele>204</ele>
        <time>2018-05-18T09:24:27Z</time>
      </trkpt>
      <trkpt lat="45.85899" lon="4.67106">
        <ele>204</ele>
        <time>2018-05-18T09:24:28Z</time>
      </trkpt>
      <trkpt lat="45.859" lon="4.67097">
        <ele>204</ele>
        <time>2018-05-18T09:24:29Z</time>
      </trkpt>
      <trkpt lat="45.85901" lon="4.67088">
        <ele>204</ele>
        <time>2018-05-18T09:24:30Z</time>
      </trkpt>
      <trkpt lat="45.85902" lon="4.67078">
        <ele>204</ele>
        <time>2018-05-18T09:24:31Z</time>
      </trkpt>
      <trkpt lat="45.85903" lon="4.67069">
        <ele>205</ele>
        <time>2018-05-18T09:24:32Z</time>
      </trkpt>
      <trkpt lat="45.85905" lon="4.6706">
        <ele>205</ele>
        <time>2018-05-18T09:24:33Z</time>
      </trkpt>
      <trkpt lat="45.85906" lon="4.67051">
        <ele>205</ele>
        <time>2018-05-18T09:24:34Z</time>
      </trkpt>
      <trkpt lat="45.85907" lon="4.67042">
        <ele>205</ele>
        <time>2018-05-18T09:24:35Z</time>
      </trkpt>
      <trkpt lat="45.85907" lon="4.67034">
        <ele>205</ele>
        <time>2018-05-18T09:24:36Z</time>
      </trkpt>
      <trkpt lat="45.85909" lon="4.67024">
        <ele>205</ele>
        <time>2018-05-18T09:24:37Z</time>
      </trkpt>
      <trkpt lat="45.8591" lon="4.67016">
        <ele>205</ele>
        <time>2018-05-18T09:24:38Z</time>
      </trkpt>
      <trkpt lat="45.85912" lon="4.67008">
        <ele>206</ele>
        <time>2018-05-18T09:24:39Z</time>
      </trkpt>
      <trkpt lat="45.85914" lon="4.67">
        <ele>206</ele>
        <time>2018-05-18T09:24:40Z</time>
      </trkpt>
      <trkpt lat="45.85918" lon="4.66996">
        <ele>207</ele>
        <time>2018-05-18T09:24:41Z</time>
      </trkpt>
      <trkpt lat="45.85922" lon="4.66991">
        <ele>207</ele>
        <time>2018-05-18T09:24:42Z</time>
      </trkpt>
      <trkpt lat="45.85925" lon="4.66985">
        <ele>208</ele>
        <time>2018-05-18T09:24:43Z</time>
      </trkpt>
      <trkpt lat="45.85927" lon="4.66979">
        <ele>208</ele>
        <time>2018-05-18T09:24:44Z</time>
      </trkpt>
      <trkpt lat="45.85927" lon="4.66971">
        <ele>209</ele>
        <time>2018-05-18T09:24:45Z</time>
      </trkpt>
      <trkpt lat="45.85926" lon="4.66961">
        <ele>209</ele>
        <time>2018-05-18T09:24:46Z</time>
      </trkpt>
      <trkpt lat="45.85925" lon="4.66954">
        <ele>209</ele>
        <time>2018-05-18T09:24:47Z</time>
      </trkpt>
      <trkpt lat="45.85924" lon="4.66944">
        <ele>209</ele>
        <time>2018-05-18T09:24:48Z</time>
      </trkpt>
      <trkpt lat="45.85924" lon="4.66935">
        <ele>208</ele>
        <time>2018-05-18T09:24:49Z</time>
      </trkpt>
      <trkpt lat="45.85925" lon="4.66927">
        <ele>208</ele>
        <time>2018-05-18T09:24:50Z</time>
      </trkpt>
      <trkpt lat="45.85928" lon="4.66919">
        <ele>208</ele>
        <time>2018-05-18T09:24:51Z</time>
      </trkpt>
      <trkpt lat="45.85928" lon="4.66912">
        <ele>209</ele>
        <time>2018-05-18T09:24:52Z</time>
      </trkpt>
      <trkpt lat="45.85929" lon="4.66903">
        <ele>209</ele>
        <time>2018-05-18T09:24:53Z</time>
      </trkpt>
      <trkpt lat="45.85932" lon="4.66894">
        <ele>209</ele>
        <time>2018-05-18T09:24:54Z</time>
      </trkpt>
      <trkpt lat="45.85934" lon="4.66887">
        <ele>210</ele>
        <time>2018-05-18T09:24:55Z</time>
      </trkpt>
      <trkpt lat="45.85936" lon="4.6688">
        <ele>210</ele>
        <time>2018-05-18T09:24:56Z</time>
      </trkpt>
      <trkpt lat="45.85937" lon="4.66873">
        <ele>210</ele>
        <time>2018-05-18T09:24:57Z</time>
      </trkpt>
      <trkpt lat="45.85939" lon="4.66866">
        <ele>210</ele>
        <time>2018-05-18T09:24:58Z</time>
      </trkpt>
      <trkpt lat="45.85942" lon="4.66859">
        <ele>210</ele>
        <time>2018-05-18T09:24:59Z</time>
      </trkpt>
      <trkpt lat="45.85944" lon="4.66851">
        <ele>210</ele>
        <time>2018-05-18T09:25:00Z</time>
      </trkpt>
      <trkpt lat="45.85947" lon="4.66842">
        <ele>211</ele>
        <time>2018-05-18T09:25:01Z</time>
      </trkpt>
      <trkpt lat="45.85949" lon="4.66834">
        <ele>211</ele>
        <time>2018-05-18T09:25:02Z</time>
      </trkpt>
      <trkpt lat="45.85952" lon="4.66824">
        <ele>212</ele>
        <time>2018-05-18T09:25:03Z</time>
      </trkpt>
      <trkpt lat="45.85955" lon="4.66818">
        <ele>213</ele>
        <time>2018-05-18T09:25:04Z</time>
      </trkpt>
      <trkpt lat="45.85957" lon="4.6681">
        <ele>213</ele>
        <time>2018-05-18T09:25:05Z</time>
      </trkpt>
      <trkpt lat="45.85959" lon="4.66803">
        <ele>213</ele>
        <time>2018-05-18T09:25:06Z</time>
      </trkpt>
      <trkpt lat="45.85962" lon="4.66796">
        <ele>213</ele>
        <time>2018-05-18T09:25:07Z</time>
      </trkpt>
      <trkpt lat="45.85965" lon="4.66788">
        <ele>214</ele>
        <time>2018-05-18T09:25:08Z</time>
      </trkpt>
      <trkpt lat="45.85967" lon="4.6678">
        <ele>214</ele>
        <time>2018-05-18T09:25:09Z</time>
      </trkpt>
      <trkpt lat="45.85969" lon="4.66773">
        <ele>214</ele>
        <time>2018-05-18T09:25:10Z</time>
      </trkpt>
      <trkpt lat="45.85973" lon="4.66762">
        <ele>214</ele>
        <time>2018-05-18T09:25:12Z</time>
      </trkpt>
      <trkpt lat="45.85975" lon="4.66755">
        <ele>215</ele>
        <time>2018-05-18T09:25:13Z</time>
      </trkpt>
      <trkpt lat="45.85978" lon="4.66748">
        <ele>216</ele>
        <time>2018-05-18T09:25:14Z</time>
      </trkpt>
      <trkpt lat="45.85981" lon="4.66741">
        <ele>216</ele>
        <time>2018-05-18T09:25:15Z</time>
      </trkpt>
      <trkpt lat="45.85984" lon="4.66734">
        <ele>216</ele>
        <time>2018-05-18T09:25:16Z</time>
      </trkpt>
      <trkpt lat="45.85985" lon="4.66726">
        <ele>216</ele>
        <time>2018-05-18T09:25:17Z</time>
      </trkpt>
      <trkpt lat="45.85988" lon="4.66722">
        <ele>215</ele>
        <time>2018-05-18T09:25:18Z</time>
      </trkpt>
      <trkpt lat="45.8599" lon="4.66716">
        <ele>215</ele>
        <time>2018-05-18T09:25:19Z</time>
      </trkpt>
      <trkpt lat="45.85995" lon="4.6671">
        <ele>215</ele>
        <time>2018-05-18T09:25:20Z</time>
      </trkpt>
      <trkpt lat="45.85998" lon="4.66704">
        <ele>215</ele>
        <time>2018-05-18T09:25:21Z</time>
      </trkpt>
      <trkpt lat="45.86002" lon="4.66697">
        <ele>218</ele>
        <time>2018-05-18T09:25:22Z</time>
      </trkpt>
      <trkpt lat="45.86006" lon="4.6669">
        <ele>218</ele>
        <time>2018-05-18T09:25:23Z</time>
      </trkpt>
      <trkpt lat="45.8601" lon="4.66684">
        <ele>217</ele>
        <time>2018-05-18T09:25:24Z</time>
      </trkpt>
      <trkpt lat="45.86014" lon="4.66678">
        <ele>217</ele>
        <time>2018-05-18T09:25:25Z</time>
      </trkpt>
      <trkpt lat="45.86018" lon="4.66672">
        <ele>217</ele>
        <time>2018-05-18T09:25:26Z</time>
      </trkpt>
      <trkpt lat="45.86022" lon="4.66667">
        <ele>218</ele>
        <time>2018-05-18T09:25:27Z</time>
      </trkpt>
      <trkpt lat="45.86027" lon="4.66663">
        <ele>213</ele>
        <time>2018-05-18T09:25:28Z</time>
      </trkpt>
      <trkpt lat="45.8603" lon="4.66659">
        <ele>214</ele>
        <time>2018-05-18T09:25:29Z</time>
      </trkpt>
      <trkpt lat="45.86034" lon="4.66654">
        <ele>214</ele>
        <time>2018-05-18T09:25:30Z</time>
      </trkpt>
      <trkpt lat="45.86038" lon="4.6665">
        <ele>214</ele>
        <time>2018-05-18T09:25:31Z</time>
      </trkpt>
      <trkpt lat="45.86041" lon="4.66647">
        <ele>214</ele>
        <time>2018-05-18T09:25:32Z</time>
      </trkpt>
      <trkpt lat="45.86046" lon="4.66643">
        <ele>214</ele>
        <time>2018-05-18T09:25:33Z</time>
      </trkpt>
      <trkpt lat="45.8605" lon="4.66637">
        <ele>214</ele>
        <time>2018-05-18T09:25:34Z</time>
      </trkpt>
      <trkpt lat="45.86054" lon="4.66633">
        <ele>214</ele>
        <time>2018-05-18T09:25:35Z</time>
      </trkpt>
      <trkpt lat="45.8606" lon="4.6663">
        <ele>214</ele>
        <time>2018-05-18T09:25:36Z</time>
      </trkpt>
      <trkpt lat="45.86064" lon="4.66626">
        <ele>214</ele>
        <time>2018-05-18T09:25:37Z</time>
      </trkpt>
      <trkpt lat="45.86068" lon="4.66624">
        <ele>214</ele>
        <time>2018-05-18T09:25:38Z</time>
      </trkpt>
      <trkpt lat="45.86073" lon="4.66619">
        <ele>214</ele>
        <time>2018-05-18T09:25:39Z</time>
      </trkpt>
      <trkpt lat="45.86077" lon="4.66617">
        <ele>214</ele>
        <time>2018-05-18T09:25:40Z</time>
      </trkpt>
      <trkpt lat="45.86082" lon="4.66613">
        <ele>213</ele>
        <time>2018-05-18T09:25:41Z</time>
      </trkpt>
      <trkpt lat="45.86087" lon="4.6661">
        <ele>219</ele>
        <time>2018-05-18T09:25:42Z</time>
      </trkpt>
      <trkpt lat="45.8609" lon="4.66609">
        <ele>219</ele>
        <time>2018-05-18T09:25:43Z</time>
      </trkpt>
      <trkpt lat="45.86095" lon="4.66606">
        <ele>219</ele>
        <time>2018-05-18T09:25:44Z</time>
      </trkpt>
      <trkpt lat="45.86101" lon="4.66601">
        <ele>219</ele>
        <time>2018-05-18T09:25:45Z</time>
      </trkpt>
      <trkpt lat="45.86106" lon="4.66597">
        <ele>219</ele>
        <time>2018-05-18T09:25:46Z</time>
      </trkpt>
      <trkpt lat="45.86111" lon="4.66594">
        <ele>220</ele>
        <time>2018-05-18T09:25:47Z</time>
      </trkpt>
      <trkpt lat="45.86116" lon="4.66591">
        <ele>220</ele>
        <time>2018-05-18T09:25:48Z</time>
      </trkpt>
      <trkpt lat="45.86121" lon="4.66588">
        <ele>221</ele>
        <time>2018-05-18T09:25:49Z</time>
      </trkpt>
      <trkpt lat="45.86125" lon="4.66587">
        <ele>221</ele>
        <time>2018-05-18T09:25:50Z</time>
      </trkpt>
      <trkpt lat="45.8613" lon="4.6658">
        <ele>214</ele>
        <time>2018-05-18T09:25:51Z</time>
      </trkpt>
      <trkpt lat="45.86135" lon="4.66576">
        <ele>215</ele>
        <time>2018-05-18T09:25:52Z</time>
      </trkpt>
      <trkpt lat="45.8614" lon="4.6657">
        <ele>215</ele>
        <time>2018-05-18T09:25:53Z</time>
      </trkpt>
      <trkpt lat="45.86146" lon="4.66564">
        <ele>215</ele>
        <time>2018-05-18T09:25:54Z</time>
      </trkpt>
      <trkpt lat="45.86149" lon="4.66559">
        <ele>215</ele>
        <time>2018-05-18T09:25:55Z</time>
      </trkpt>
      <trkpt lat="45.86154" lon="4.66555">
        <ele>215</ele>
        <time>2018-05-18T09:25:56Z</time>
      </trkpt>
      <trkpt lat="45.86157" lon="4.66552">
        <ele>215</ele>
        <time>2018-05-18T09:25:57Z</time>
      </trkpt>
      <trkpt lat="45.86163" lon="4.66545">
        <ele>214</ele>
        <time>2018-05-18T09:25:58Z</time>
      </trkpt>
      <trkpt lat="45.86168" lon="4.66538">
        <ele>219</ele>
        <time>2018-05-18T09:25:59Z</time>
      </trkpt>
      <trkpt lat="45.86171" lon="4.66532">
        <ele>219</ele>
        <time>2018-05-18T09:26:00Z</time>
      </trkpt>
      <trkpt lat="45.86175" lon="4.66526">
        <ele>218</ele>
        <time>2018-05-18T09:26:01Z</time>
      </trkpt>
      <trkpt lat="45.86178" lon="4.66519">
        <ele>217</ele>
        <time>2018-05-18T09:26:02Z</time>
      </trkpt>
      <trkpt lat="45.86182" lon="4.66513">
        <ele>216</ele>
        <time>2018-05-18T09:26:03Z</time>
      </trkpt>
      <trkpt lat="45.86186" lon="4.66507">
        <ele>216</ele>
        <time>2018-05-18T09:26:04Z</time>
      </trkpt>
      <trkpt lat="45.8619" lon="4.665">
        <ele>217</ele>
        <time>2018-05-18T09:26:05Z</time>
      </trkpt>
      <trkpt lat="45.86193" lon="4.66495">
        <ele>213</ele>
        <time>2018-05-18T09:26:06Z</time>
      </trkpt>
      <trkpt lat="45.86196" lon="4.66488">
        <ele>213</ele>
        <time>2018-05-18T09:26:07Z</time>
      </trkpt>
      <trkpt lat="45.862" lon="4.66481">
        <ele>213</ele>
        <time>2018-05-18T09:26:08Z</time>
      </trkpt>
      <trkpt lat="45.86204" lon="4.66473">
        <ele>213</ele>
        <time>2018-05-18T09:26:09Z</time>
      </trkpt>
      <trkpt lat="45.86207" lon="4.66466">
        <ele>213</ele>
        <time>2018-05-18T09:26:10Z</time>
      </trkpt>
      <trkpt lat="45.86211" lon="4.6646">
        <ele>213</ele>
        <time>2018-05-18T09:26:11Z</time>
      </trkpt>
      <trkpt lat="45.86215" lon="4.66452">
        <ele>213</ele>
        <time>2018-05-18T09:26:12Z</time>
      </trkpt>
      <trkpt lat="45.86219" lon="4.66445">
        <ele>213</ele>
        <time>2018-05-18T09:26:13Z</time>
      </trkpt>
      <trkpt lat="45.86223" lon="4.66441">
        <ele>213</ele>
        <time>2018-05-18T09:26:14Z</time>
      </trkpt>
      <trkpt lat="45.86227" lon="4.66435">
        <ele>214</ele>
        <time>2018-05-18T09:26:15Z</time>
      </trkpt>
      <trkpt lat="45.86231" lon="4.66427">
        <ele>214</ele>
        <time>2018-05-18T09:26:16Z</time>
      </trkpt>
      <trkpt lat="45.86234" lon="4.6642">
        <ele>214</ele>
        <time>2018-05-18T09:26:17Z</time>
      </trkpt>
      <trkpt lat="45.86237" lon="4.66414">
        <ele>213</ele>
        <time>2018-05-18T09:26:18Z</time>
      </trkpt>
      <trkpt lat="45.86241" lon="4.66408">
        <ele>213</ele>
        <time>2018-05-18T09:26:19Z</time>
      </trkpt>
      <trkpt lat="45.86245" lon="4.66402">
        <ele>213</ele>
        <time>2018-05-18T09:26:20Z</time>
      </trkpt>
      <trkpt lat="45.86249" lon="4.66395">
        <ele>213</ele>
        <time>2018-05-18T09:26:21Z</time>
      </trkpt>
      <trkpt lat="45.86252" lon="4.66389">
        <ele>216</ele>
        <time>2018-05-18T09:26:22Z</time>
      </trkpt>
      <trkpt lat="45.86255" lon="4.66383">
        <ele>216</ele>
        <time>2018-05-18T09:26:23Z</time>
      </trkpt>
      <trkpt lat="45.86258" lon="4.66376">
        <ele>216</ele>
        <time>2018-05-18T09:26:24Z</time>
      </trkpt>
      <trkpt lat="45.86261" lon="4.6637">
        <ele>216</ele>
        <time>2018-05-18T09:26:25Z</time>
      </trkpt>
      <trkpt lat="45.86264" lon="4.66364">
        <ele>216</ele>
        <time>2018-05-18T09:26:26Z</time>
      </trkpt>
      <trkpt lat="45.86268" lon="4.66359">
        <ele>216</ele>
        <time>2018-05-18T09:26:27Z</time>
      </trkpt>
      <trkpt lat="45.86271" lon="4.66353">
        <ele>216</ele>
        <time>2018-05-18T09:26:28Z</time>
      </trkpt>
      <trkpt lat="45.86274" lon="4.66347">
        <ele>216</ele>
        <time>2018-05-18T09:26:29Z</time>
      </trkpt>
      <trkpt lat="45.86279" lon="4.6634">
        <ele>216</ele>
        <time>2018-05-18T09:26:30Z</time>
      </trkpt>
      <trkpt lat="45.86284" lon="4.66331">
        <ele>214</ele>
        <time>2018-05-18T09:26:31Z</time>
      </trkpt>
      <trkpt lat="45.86288" lon="4.66325">
        <ele>214</ele>
        <time>2018-05-18T09:26:32Z</time>
      </trkpt>
      <trkpt lat="45.86293" lon="4.66318">
        <ele>214</ele>
        <time>2018-05-18T09:26:33Z</time>
      </trkpt>
      <trkpt lat="45.86297" lon="4.66311">
        <ele>215</ele>
        <time>2018-05-18T09:26:34Z</time>
      </trkpt>
      <trkpt lat="45.86301" lon="4.66305">
        <ele>215</ele>
        <time>2018-05-18T09:26:35Z</time>
      </trkpt>
      <trkpt lat="45.86306" lon="4.663">
        <ele>215</ele>
        <time>2018-05-18T09:26:36Z</time>
      </trkpt>
      <trkpt lat="45.8631" lon="4.66294">
        <ele>214</ele>
        <time>2018-05-18T09:26:37Z</time>
      </trkpt>
      <trkpt lat="45.86315" lon="4.66288">
        <ele>214</ele>
        <time>2018-05-18T09:26:38Z</time>
      </trkpt>
      <trkpt lat="45.8632" lon="4.66283">
        <ele>214</ele>
        <time>2018-05-18T09:26:39Z</time>
      </trkpt>
      <trkpt lat="45.86325" lon="4.66279">
        <ele>214</ele>
        <time>2018-05-18T09:26:40Z</time>
      </trkpt>
      <trkpt lat="45.8633" lon="4.66275">
        <ele>214</ele>
        <time>2018-05-18T09:26:41Z</time>
      </trkpt>
      <trkpt lat="45.86334" lon="4.66272">
        <ele>217</ele>
        <time>2018-05-18T09:26:42Z</time>
      </trkpt>
      <trkpt lat="45.86339" lon="4.66267">
        <ele>217</ele>
        <time>2018-05-18T09:26:43Z</time>
      </trkpt>
      <trkpt lat="45.86344" lon="4.66264">
        <ele>217</ele>
        <time>2018-05-18T09:26:44Z</time>
      </trkpt>
      <trkpt lat="45.86349" lon="4.6626">
        <ele>217</ele>
        <time>2018-05-18T09:26:45Z</time>
      </trkpt>
      <trkpt lat="45.86353" lon="4.66256">
        <ele>217</ele>
        <time>2018-05-18T09:26:46Z</time>
      </trkpt>
      <trkpt lat="45.86357" lon="4.66255">
        <ele>218</ele>
        <time>2018-05-18T09:26:47Z</time>
      </trkpt>
      <trkpt lat="45.86364" lon="4.66251">
        <ele>218</ele>
        <time>2018-05-18T09:26:48Z</time>
      </trkpt>
      <trkpt lat="45.86368" lon="4.66247">
        <ele>213</ele>
        <time>2018-05-18T09:26:49Z</time>
      </trkpt>
      <trkpt lat="45.86374" lon="4.66243">
        <ele>214</ele>
        <time>2018-05-18T09:26:50Z</time>
      </trkpt>
      <trkpt lat="45.86379" lon="4.66241">
        <ele>214</ele>
        <time>2018-05-18T09:26:51Z</time>
      </trkpt>
      <trkpt lat="45.86384" lon="4.66238">
        <ele>214</ele>
        <time>2018-05-18T09:26:52Z</time>
      </trkpt>
      <trkpt lat="45.86389" lon="4.66236">
        <ele>214</ele>
        <time>2018-05-18T09:26:53Z</time>
      </trkpt>
      <trkpt lat="45.86393" lon="4.66234">
        <ele>215</ele>
        <time>2018-05-18T09:26:54Z</time>
      </trkpt>
      <trkpt lat="45.86398" lon="4.66232">
        <ele>215</ele>
        <time>2018-05-18T09:26:55Z</time>
      </trkpt>
      <trkpt lat="45.86403" lon="4.6623">
        <ele>215</ele>
        <time>2018-05-18T09:26:56Z</time>
      </trkpt>
      <trkpt lat="45.86408" lon="4.66226">
        <ele>215</ele>
        <time>2018-05-18T09:26:57Z</time>
      </trkpt>
      <trkpt lat="45.86414" lon="4.66225">
        <ele>215</ele>
        <time>2018-05-18T09:26:58Z</time>
      </trkpt>
      <trkpt lat="45.86418" lon="4.66223">
        <ele>218</ele>
        <time>2018-05-18T09:26:59Z</time>
      </trkpt>
      <trkpt lat="45.86423" lon="4.66222">
        <ele>218</ele>
        <time>2018-05-18T09:27:00Z</time>
      </trkpt>
      <trkpt lat="45.86429" lon="4.6622">
        <ele>218</ele>
        <time>2018-05-18T09:27:01Z</time>
      </trkpt>
      <trkpt lat="45.86435" lon="4.66219">
        <ele>218</ele>
        <time>2018-05-18T09:27:02Z</time>
      </trkpt>
      <trkpt lat="45.8644" lon="4.66217">
        <ele>218</ele>
        <time>2018-05-18T09:27:03Z</time>
      </trkpt>
      <trkpt lat="45.86446" lon="4.66216">
        <ele>218</ele>
        <time>2018-05-18T09:27:04Z</time>
      </trkpt>
      <trkpt lat="45.86451" lon="4.66215">
        <ele>218</ele>
        <time>2018-05-18T09:27:05Z</time>
      </trkpt>
      <trkpt lat="45.86456" lon="4.66213">
        <ele>218</ele>
        <time>2018-05-18T09:27:06Z</time>
      </trkpt>
      <trkpt lat="45.86461" lon="4.66211">
        <ele>218</ele>
        <time>2018-05-18T09:27:07Z</time>
      </trkpt>
      <trkpt lat="45.86466" lon="4.6621">
        <ele>218</ele>
        <time>2018-05-18T09:27:08Z</time>
      </trkpt>
      <trkpt lat="45.86471" lon="4.66207">
        <ele>218</ele>
        <time>2018-05-18T09:27:09Z</time>
      </trkpt>
      <trkpt lat="45.86479" lon="4.66204">
        <ele>218</ele>
        <time>2018-05-18T09:27:11Z</time>
      </trkpt>
      <trkpt lat="45.86485" lon="4.66202">
        <ele>218</ele>
        <time>2018-05-18T09:27:12Z</time>
      </trkpt>
      <trkpt lat="45.8649" lon="4.662">
        <ele>218</ele>
        <time>2018-05-18T09:27:13Z</time>
      </trkpt>
      <trkpt lat="45.86495" lon="4.66199">
        <ele>218</ele>
        <time>2018-05-18T09:27:14Z</time>
      </trkpt>
      <trkpt lat="45.86503" lon="4.66197">
        <ele>223</ele>
        <time>2018-05-18T09:27:16Z</time>
      </trkpt>
      <trkpt lat="45.86508" lon="4.66196">
        <ele>223</ele>
        <time>2018-05-18T09:27:17Z</time>
      </trkpt>
      <trkpt lat="45.86513" lon="4.66193">
        <ele>223</ele>
        <time>2018-05-18T09:27:18Z</time>
      </trkpt>
      <trkpt lat="45.86517" lon="4.6619">
        <ele>223</ele>
        <time>2018-05-18T09:27:19Z</time>
      </trkpt>
      <trkpt lat="45.86521" lon="4.66187">
        <ele>223</ele>
        <time>2018-05-18T09:27:20Z</time>
      </trkpt>
      <trkpt lat="45.86527" lon="4.66182">
        <ele>224</ele>
        <time>2018-05-18T09:27:21Z</time>
      </trkpt>
      <trkpt lat="45.86532" lon="4.6618">
        <ele>224</ele>
        <time>2018-05-18T09:27:22Z</time>
      </trkpt>
      <trkpt lat="45.86537" lon="4.66176">
        <ele>225</ele>
        <time>2018-05-18T09:27:23Z</time>
      </trkpt>
      <trkpt lat="45.86541" lon="4.66172">
        <ele>225</ele>
        <time>2018-05-18T09:27:24Z</time>
      </trkpt>
      <trkpt lat="45.86546" lon="4.66167">
        <ele>225</ele>
        <time>2018-05-18T09:27:25Z</time>
      </trkpt>
      <trkpt lat="45.8655" lon="4.66163">
        <ele>218</ele>
        <time>2018-05-18T09:27:26Z</time>
      </trkpt>
      <trkpt lat="45.86555" lon="4.66159">
        <ele>219</ele>
        <time>2018-05-18T09:27:27Z</time>
      </trkpt>
      <trkpt lat="45.8656" lon="4.66155">
        <ele>219</ele>
        <time>2018-05-18T09:27:28Z</time>
      </trkpt>
      <trkpt lat="45.86565" lon="4.6615">
        <ele>219</ele>
        <time>2018-05-18T09:27:29Z</time>
      </trkpt>
      <trkpt lat="45.8657" lon="4.66146">
        <ele>219</ele>
        <time>2018-05-18T09:27:30Z</time>
      </trkpt>
      <trkpt lat="45.86574" lon="4.66141">
        <ele>219</ele>
        <time>2018-05-18T09:27:31Z</time>
      </trkpt>
      <trkpt lat="45.86579" lon="4.66138">
        <ele>219</ele>
        <time>2018-05-18T09:27:32Z</time>
      </trkpt>
      <trkpt lat="45.86587" lon="4.66131">
        <ele>224</ele>
        <time>2018-05-18T09:27:33Z</time>
      </trkpt>
      <trkpt lat="45.8659" lon="4.66127">
        <ele>224</ele>
        <time>2018-05-18T09:27:34Z</time>
      </trkpt>
      <trkpt lat="45.86595" lon="4.66122">
        <ele>223</ele>
        <time>2018-05-18T09:27:35Z</time>
      </trkpt>
      <trkpt lat="45.866" lon="4.66118">
        <ele>223</ele>
        <time>2018-05-18T09:27:36Z</time>
      </trkpt>
      <trkpt lat="45.86606" lon="4.66112">
        <ele>222</ele>
        <time>2018-05-18T09:27:37Z</time>
      </trkpt>
      <trkpt lat="45.86612" lon="4.66109">
        <ele>223</ele>
        <time>2018-05-18T09:27:38Z</time>
      </trkpt>
      <trkpt lat="45.86618" lon="4.66106">
        <ele>223</ele>
        <time>2018-05-18T09:27:39Z</time>
      </trkpt>
      <trkpt lat="45.86622" lon="4.66104">
        <ele>223</ele>
        <time>2018-05-18T09:27:40Z</time>
      </trkpt>
      <trkpt lat="45.86627" lon="4.66101">
        <ele>223</ele>
        <time>2018-05-18T09:27:41Z</time>
      </trkpt>
      <trkpt lat="45.86633" lon="4.661">
        <ele>223</ele>
        <time>2018-05-18T09:27:42Z</time>
      </trkpt>
      <trkpt lat="45.86638" lon="4.66097">
        <ele>223</ele>
        <time>2018-05-18T09:27:43Z</time>
      </trkpt>
      <trkpt lat="45.86644" lon="4.66095">
        <ele>223</ele>
        <time>2018-05-18T09:27:44Z</time>
      </trkpt>
      <trkpt lat="45.86649" lon="4.66094">
        <ele>223</ele>
        <time>2018-05-18T09:27:45Z</time>
      </trkpt>
      <trkpt lat="45.86654" lon="4.66092">
        <ele>222</ele>
        <time>2018-05-18T09:27:46Z</time>
      </trkpt>
      <trkpt lat="45.86659" lon="4.6609">
        <ele>221</ele>
        <time>2018-05-18T09:27:47Z</time>
      </trkpt>
      <trkpt lat="45.86664" lon="4.66089">
        <ele>221</ele>
        <time>2018-05-18T09:27:48Z</time>
      </trkpt>
      <trkpt lat="45.86669" lon="4.66087">
        <ele>223</ele>
        <time>2018-05-18T09:27:49Z</time>
      </trkpt>
      <trkpt lat="45.86674" lon="4.66084">
        <ele>225</ele>
        <time>2018-05-18T09:27:50Z</time>
      </trkpt>
      <trkpt lat="45.86679" lon="4.66081">
        <ele>220</ele>
        <time>2018-05-18T09:27:51Z</time>
      </trkpt>
      <trkpt lat="45.86683" lon="4.6608">
        <ele>221</ele>
        <time>2018-05-18T09:27:52Z</time>
      </trkpt>
      <trkpt lat="45.86688" lon="4.66079">
        <ele>221</ele>
        <time>2018-05-18T09:27:53Z</time>
      </trkpt>
      <trkpt lat="45.86692" lon="4.66076">
        <ele>222</ele>
        <time>2018-05-18T09:27:54Z</time>
      </trkpt>
      <trkpt lat="45.86696" lon="4.66074">
        <ele>222</ele>
        <time>2018-05-18T09:27:55Z</time>
      </trkpt>
      <trkpt lat="45.86701" lon="4.66072">
        <ele>223</ele>
        <time>2018-05-18T09:27:56Z</time>
      </trkpt>
      <trkpt lat="45.86705" lon="4.6607">
        <ele>223</ele>
        <time>2018-05-18T09:27:57Z</time>
      </trkpt>
      <trkpt lat="45.8671" lon="4.66068">
        <ele>224</ele>
        <time>2018-05-18T09:27:58Z</time>
      </trkpt>
      <trkpt lat="45.86715" lon="4.66065">
        <ele>224</ele>
        <time>2018-05-18T09:27:59Z</time>
      </trkpt>
      <trkpt lat="45.8672" lon="4.66062">
        <ele>225</ele>
        <time>2018-05-18T09:28:00Z</time>
      </trkpt>
      <trkpt lat="45.86725" lon="4.66056">
        <ele>225</ele>
        <time>2018-05-18T09:28:01Z</time>
      </trkpt>
      <trkpt lat="45.86732" lon="4.66049">
        <ele>224</ele>
        <time>2018-05-18T09:28:03Z</time>
      </trkpt>
      <trkpt lat="45.86736" lon="4.66047">
        <ele>224</ele>
        <time>2018-05-18T09:28:04Z</time>
      </trkpt>
      <trkpt lat="45.8674" lon="4.66044">
        <ele>224</ele>
        <time>2018-05-18T09:28:05Z</time>
      </trkpt>
      <trkpt lat="45.86745" lon="4.66042">
        <ele>224</ele>
        <time>2018-05-18T09:28:06Z</time>
      </trkpt>
      <trkpt lat="45.8675" lon="4.66038">
        <ele>223</ele>
        <time>2018-05-18T09:28:07Z</time>
      </trkpt>
      <trkpt lat="45.86755" lon="4.66034">
        <ele>232</ele>
        <time>2018-05-18T09:28:08Z</time>
      </trkpt>
      <trkpt lat="45.8676" lon="4.66028">
        <ele>231</ele>
        <time>2018-05-18T09:28:09Z</time>
      </trkpt>
      <trkpt lat="45.86764" lon="4.66025">
        <ele>231</ele>
        <time>2018-05-18T09:28:10Z</time>
      </trkpt>
      <trkpt lat="45.86768" lon="4.6602">
        <ele>230</ele>
        <time>2018-05-18T09:28:11Z</time>
      </trkpt>
      <trkpt lat="45.86772" lon="4.66015">
        <ele>230</ele>
        <time>2018-05-18T09:28:12Z</time>
      </trkpt>
      <trkpt lat="45.86775" lon="4.66011">
        <ele>230</ele>
        <time>2018-05-18T09:28:13Z</time>
      </trkpt>
      <trkpt lat="45.86779" lon="4.66007">
        <ele>231</ele>
        <time>2018-05-18T09:28:14Z</time>
      </trkpt>
      <trkpt lat="45.86784" lon="4.66002">
        <ele>232</ele>
        <time>2018-05-18T09:28:15Z</time>
      </trkpt>
      <trkpt lat="45.86787" lon="4.65997">
        <ele>222</ele>
        <time>2018-05-18T09:28:16Z</time>
      </trkpt>
      <trkpt lat="45.8679" lon="4.65993">
        <ele>223</ele>
        <time>2018-05-18T09:28:17Z</time>
      </trkpt>
      <trkpt lat="45.86793" lon="4.65988">
        <ele>223</ele>
        <time>2018-05-18T09:28:18Z</time>
      </trkpt>
      <trkpt lat="45.86797" lon="4.65983">
        <ele>223</ele>
        <time>2018-05-18T09:28:19Z</time>
      </trkpt>
      <trkpt lat="45.86801" lon="4.65976">
        <ele>223</ele>
        <time>2018-05-18T09:28:20Z</time>
      </trkpt>
      <trkpt lat="45.86804" lon="4.6597">
        <ele>223</ele>
        <time>2018-05-18T09:28:21Z</time>
      </trkpt>
      <trkpt lat="45.86808" lon="4.65964">
        <ele>223</ele>
        <time>2018-05-18T09:28:22Z</time>
      </trkpt>
      <trkpt lat="45.86812" lon="4.65958">
        <ele>223</ele>
        <time>2018-05-18T09:28:23Z</time>
      </trkpt>
      <trkpt lat="45.86815" lon="4.65953">
        <ele>223</ele>
        <time>2018-05-18T09:28:24Z</time>
      </trkpt>
      <trkpt lat="45.86818" lon="4.65946">
        <ele>222</ele>
        <time>2018-05-18T09:28:25Z</time>
      </trkpt>
      <trkpt lat="45.86821" lon="4.6594">
        <ele>222</ele>
        <time>2018-05-18T09:28:26Z</time>
      </trkpt>
      <trkpt lat="45.86824" lon="4.65935">
        <ele>222</ele>
        <time>2018-05-18T09:28:27Z</time>
      </trkpt>
      <trkpt lat="45.86827" lon="4.65929">
        <ele>221</ele>
        <time>2018-05-18T09:28:28Z</time>
      </trkpt>
      <trkpt lat="45.86831" lon="4.65922">
        <ele>221</ele>
        <time>2018-05-18T09:28:29Z</time>
      </trkpt>
      <trkpt lat="45.86835" lon="4.65916">
        <ele>222</ele>
        <time>2018-05-18T09:28:30Z</time>
      </trkpt>
      <trkpt lat="45.86838" lon="4.65909">
        <ele>224</ele>
        <time>2018-05-18T09:28:31Z</time>
      </trkpt>
      <trkpt lat="45.86841" lon="4.65903">
        <ele>225</ele>
        <time>2018-05-18T09:28:32Z</time>
      </trkpt>
      <trkpt lat="45.86844" lon="4.65897">
        <ele>226</ele>
        <time>2018-05-18T09:28:33Z</time>
      </trkpt>
      <trkpt lat="45.86847" lon="4.6589">
        <ele>226</ele>
        <time>2018-05-18T09:28:34Z</time>
      </trkpt>
      <trkpt lat="45.8685" lon="4.65883">
        <ele>226</ele>
        <time>2018-05-18T09:28:35Z</time>
      </trkpt>
      <trkpt lat="45.86853" lon="4.65877">
        <ele>226</ele>
        <time>2018-05-18T09:28:36Z</time>
      </trkpt>
      <trkpt lat="45.86856" lon="4.65871">
        <ele>226</ele>
        <time>2018-05-18T09:28:37Z</time>
      </trkpt>
      <trkpt lat="45.8686" lon="4.65865">
        <ele>226</ele>
        <time>2018-05-18T09:28:38Z</time>
      </trkpt>
      <trkpt lat="45.86862" lon="4.65859">
        <ele>226</ele>
        <time>2018-05-18T09:28:39Z</time>
      </trkpt>
      <trkpt lat="45.86865" lon="4.65852">
        <ele>226</ele>
        <time>2018-05-18T09:28:40Z</time>
      </trkpt>
      <trkpt lat="45.86867" lon="4.65846">
        <ele>226</ele>
        <time>2018-05-18T09:28:41Z</time>
      </trkpt>
      <trkpt lat="45.8687" lon="4.65839">
        <ele>226</ele>
        <time>2018-05-18T09:28:42Z</time>
      </trkpt>
      <trkpt lat="45.86872" lon="4.65833">
        <ele>222</ele>
        <time>2018-05-18T09:28:43Z</time>
      </trkpt>
      <trkpt lat="45.86874" lon="4.65826">
        <ele>222</ele>
        <time>2018-05-18T09:28:44Z</time>
      </trkpt>
      <trkpt lat="45.86876" lon="4.65819">
        <ele>223</ele>
        <time>2018-05-18T09:28:45Z</time>
      </trkpt>
      <trkpt lat="45.86878" lon="4.65811">
        <ele>223</ele>
        <time>2018-05-18T09:28:46Z</time>
      </trkpt>
      <trkpt lat="45.86879" lon="4.65804">
        <ele>223</ele>
        <time>2018-05-18T09:28:47Z</time>
      </trkpt>
      <trkpt lat="45.86882" lon="4.65795">
        <ele>223</ele>
        <time>2018-05-18T09:28:48Z</time>
      </trkpt>
      <trkpt lat="45.86881" lon="4.65789">
        <ele>223</ele>
        <time>2018-05-18T09:28:49Z</time>
      </trkpt>
      <trkpt lat="45.86884" lon="4.65782">
        <ele>223</ele>
        <time>2018-05-18T09:28:50Z</time>
      </trkpt>
      <trkpt lat="45.86886" lon="4.65775">
        <ele>223</ele>
        <time>2018-05-18T09:28:51Z</time>
      </trkpt>
      <trkpt lat="45.86887" lon="4.65767">
        <ele>223</ele>
        <time>2018-05-18T09:28:52Z</time>
      </trkpt>
      <trkpt lat="45.86888" lon="4.65759">
        <ele>224</ele>
        <time>2018-05-18T09:28:53Z</time>
      </trkpt>
      <trkpt lat="45.86889" lon="4.65749">
        <ele>223</ele>
        <time>2018-05-18T09:28:54Z</time>
      </trkpt>
      <trkpt lat="45.86888" lon="4.65737">
        <ele>223</ele>
        <time>2018-05-18T09:28:56Z</time>
      </trkpt>
      <trkpt lat="45.86889" lon="4.65727">
        <ele>223</ele>
        <time>2018-05-18T09:28:57Z</time>
      </trkpt>
      <trkpt lat="45.86889" lon="4.65717">
        <ele>223</ele>
        <time>2018-05-18T09:28:58Z</time>
      </trkpt>
      <trkpt lat="45.8689" lon="4.65708">
        <ele>223</ele>
        <time>2018-05-18T09:28:59Z</time>
      </trkpt>
      <trkpt lat="45.86891" lon="4.65699">
        <ele>223</ele>
        <time>2018-05-18T09:29:00Z</time>
      </trkpt>
      <trkpt lat="45.86891" lon="4.65688">
        <ele>223</ele>
        <time>2018-05-18T09:29:01Z</time>
      </trkpt>
      <trkpt lat="45.86891" lon="4.65679">
        <ele>224</ele>
        <time>2018-05-18T09:29:02Z</time>
      </trkpt>
      <trkpt lat="45.86892" lon="4.65669">
        <ele>224</ele>
        <time>2018-05-18T09:29:03Z</time>
      </trkpt>
      <trkpt lat="45.86893" lon="4.6566">
        <ele>224</ele>
        <time>2018-05-18T09:29:04Z</time>
      </trkpt>
      <trkpt lat="45.86893" lon="4.65651">
        <ele>224</ele>
        <time>2018-05-18T09:29:05Z</time>
      </trkpt>
      <trkpt lat="45.86894" lon="4.65641">
        <ele>223</ele>
        <time>2018-05-18T09:29:06Z</time>
      </trkpt>
      <trkpt lat="45.86896" lon="4.65633">
        <ele>223</ele>
        <time>2018-05-18T09:29:07Z</time>
      </trkpt>
      <trkpt lat="45.86899" lon="4.65624">
        <ele>223</ele>
        <time>2018-05-18T09:29:08Z</time>
      </trkpt>
      <trkpt lat="45.86901" lon="4.65614">
        <ele>223</ele>
        <time>2018-05-18T09:29:09Z</time>
      </trkpt>
      <trkpt lat="45.86904" lon="4.65605">
        <ele>223</ele>
        <time>2018-05-18T09:29:10Z</time>
      </trkpt>
      <trkpt lat="45.86905" lon="4.65596">
        <ele>224</ele>
        <time>2018-05-18T09:29:11Z</time>
      </trkpt>
      <trkpt lat="45.86909" lon="4.65587">
        <ele>225</ele>
        <time>2018-05-18T09:29:12Z</time>
      </trkpt>
      <trkpt lat="45.86911" lon="4.65577">
        <ele>223</ele>
        <time>2018-05-18T09:29:13Z</time>
      </trkpt>
      <trkpt lat="45.86913" lon="4.65568">
        <ele>222</ele>
        <time>2018-05-18T09:29:14Z</time>
      </trkpt>
      <trkpt lat="45.86915" lon="4.65561">
        <ele>221</ele>
        <time>2018-05-18T09:29:15Z</time>
      </trkpt>
      <trkpt lat="45.86917" lon="4.65551">
        <ele>230</ele>
        <time>2018-05-18T09:29:16Z</time>
      </trkpt>
      <trkpt lat="45.86921" lon="4.65542">
        <ele>230</ele>
        <time>2018-05-18T09:29:17Z</time>
      </trkpt>
      <trkpt lat="45.86924" lon="4.65534">
        <ele>229</ele>
        <time>2018-05-18T09:29:18Z</time>
      </trkpt>
      <trkpt lat="45.86926" lon="4.65525">
        <ele>228</ele>
        <time>2018-05-18T09:29:19Z</time>
      </trkpt>
      <trkpt lat="45.8693" lon="4.65515">
        <ele>227</ele>
        <time>2018-05-18T09:29:20Z</time>
      </trkpt>
      <trkpt lat="45.86933" lon="4.65506">
        <ele>226</ele>
        <time>2018-05-18T09:29:21Z</time>
      </trkpt>
      <trkpt lat="45.86937" lon="4.65502">
        <ele>227</ele>
        <time>2018-05-18T09:29:22Z</time>
      </trkpt>
      <trkpt lat="45.86942" lon="4.65495">
        <ele>222</ele>
        <time>2018-05-18T09:29:23Z</time>
      </trkpt>
      <trkpt lat="45.86945" lon="4.65489">
        <ele>222</ele>
        <time>2018-05-18T09:29:24Z</time>
      </trkpt>
      <trkpt lat="45.86949" lon="4.65483">
        <ele>222</ele>
        <time>2018-05-18T09:29:25Z</time>
      </trkpt>
      <trkpt lat="45.86953" lon="4.65475">
        <ele>222</ele>
        <time>2018-05-18T09:29:26Z</time>
      </trkpt>
      <trkpt lat="45.86957" lon="4.65469">
        <ele>223</ele>
        <time>2018-05-18T09:29:27Z</time>
      </trkpt>
      <trkpt lat="45.86962" lon="4.65461">
        <ele>222</ele>
        <time>2018-05-18T09:29:28Z</time>
      </trkpt>
      <trkpt lat="45.86968" lon="4.65455">
        <ele>223</ele>
        <time>2018-05-18T09:29:29Z</time>
      </trkpt>
      <trkpt lat="45.86974" lon="4.65448">
        <ele>222</ele>
        <time>2018-05-18T09:29:30Z</time>
      </trkpt>
      <trkpt lat="45.8698" lon="4.65443">
        <ele>222</ele>
        <time>2018-05-18T09:29:31Z</time>
      </trkpt>
      <trkpt lat="45.86985" lon="4.65436">
        <ele>222</ele>
        <time>2018-05-18T09:29:32Z</time>
      </trkpt>
      <trkpt lat="45.86992" lon="4.65428">
        <ele>222</ele>
        <time>2018-05-18T09:29:33Z</time>
      </trkpt>
      <trkpt lat="45.86997" lon="4.65421">
        <ele>221</ele>
        <time>2018-05-18T09:29:34Z</time>
      </trkpt>
      <trkpt lat="45.87001" lon="4.65416">
        <ele>221</ele>
        <time>2018-05-18T09:29:35Z</time>
      </trkpt>
      <trkpt lat="45.87007" lon="4.65409">
        <ele>222</ele>
        <time>2018-05-18T09:29:36Z</time>
      </trkpt>
      <trkpt lat="45.87012" lon="4.65404">
        <ele>223</ele>
        <time>2018-05-18T09:29:37Z</time>
      </trkpt>
      <trkpt lat="45.87016" lon="4.65398">
        <ele>223</ele>
        <time>2018-05-18T09:29:38Z</time>
      </trkpt>
      <trkpt lat="45.87019" lon="4.65395">
        <ele>223</ele>
        <time>2018-05-18T09:29:39Z</time>
      </trkpt>
      <trkpt lat="45.87023" lon="4.65391">
        <ele>224</ele>
        <time>2018-05-18T09:29:40Z</time>
      </trkpt>
      <trkpt lat="45.87027" lon="4.65384">
        <ele>224</ele>
        <time>2018-05-18T09:29:41Z</time>
      </trkpt>
      <trkpt lat="45.87032" lon="4.65379">
        <ele>224</ele>
        <time>2018-05-18T09:29:42Z</time>
      </trkpt>
      <trkpt lat="45.87035" lon="4.65371">
        <ele>224</ele>
        <time>2018-05-18T09:29:43Z</time>
      </trkpt>
      <trkpt lat="45.87039" lon="4.65365">
        <ele>224</ele>
        <time>2018-05-18T09:29:44Z</time>
      </trkpt>
      <trkpt lat="45.87042" lon="4.65358">
        <ele>223</ele>
        <time>2018-05-18T09:29:45Z</time>
      </trkpt>
      <trkpt lat="45.87046" lon="4.65352">
        <ele>223</ele>
        <time>2018-05-18T09:29:46Z</time>
      </trkpt>
      <trkpt lat="45.8705" lon="4.65348">
        <ele>223</ele>
        <time>2018-05-18T09:29:47Z</time>
      </trkpt>
      <trkpt lat="45.87054" lon="4.65342">
        <ele>223</ele>
        <time>2018-05-18T09:29:48Z</time>
      </trkpt>
      <trkpt lat="45.87057" lon="4.65336">
        <ele>224</ele>
        <time>2018-05-18T09:29:49Z</time>
      </trkpt>
      <trkpt lat="45.87062" lon="4.65329">
        <ele>219</ele>
        <time>2018-05-18T09:29:50Z</time>
      </trkpt>
      <trkpt lat="45.87064" lon="4.65322">
        <ele>219</ele>
        <time>2018-05-18T09:29:51Z</time>
      </trkpt>
      <trkpt lat="45.87068" lon="4.65314">
        <ele>218</ele>
        <time>2018-05-18T09:29:52Z</time>
      </trkpt>
      <trkpt lat="45.87071" lon="4.65307">
        <ele>218</ele>
        <time>2018-05-18T09:29:53Z</time>
      </trkpt>
      <trkpt lat="45.87075" lon="4.65301">
        <ele>217</ele>
        <time>2018-05-18T09:29:54Z</time>
      </trkpt>
      <trkpt lat="45.87077" lon="4.65294">
        <ele>217</ele>
        <time>2018-05-18T09:29:55Z</time>
      </trkpt>
      <trkpt lat="45.87079" lon="4.65287">
        <ele>216</ele>
        <time>2018-05-18T09:29:56Z</time>
      </trkpt>
      <trkpt lat="45.87083" lon="4.6528">
        <ele>216</ele>
        <time>2018-05-18T09:29:57Z</time>
      </trkpt>
      <trkpt lat="45.87087" lon="4.65273">
        <ele>224</ele>
        <time>2018-05-18T09:29:58Z</time>
      </trkpt>
      <trkpt lat="45.8709" lon="4.65265">
        <ele>222</ele>
        <time>2018-05-18T09:29:59Z</time>
      </trkpt>
      <trkpt lat="45.87093" lon="4.65259">
        <ele>221</ele>
        <time>2018-05-18T09:30:00Z</time>
      </trkpt>
      <trkpt lat="45.87098" lon="4.65252">
        <ele>222</ele>
        <time>2018-05-18T09:30:01Z</time>
      </trkpt>
      <trkpt lat="45.87102" lon="4.65245">
        <ele>218</ele>
        <time>2018-05-18T09:30:02Z</time>
      </trkpt>
      <trkpt lat="45.87106" lon="4.65239">
        <ele>218</ele>
        <time>2018-05-18T09:30:03Z</time>
      </trkpt>
      <trkpt lat="45.87109" lon="4.65232">
        <ele>219</ele>
        <time>2018-05-18T09:30:04Z</time>
      </trkpt>
      <trkpt lat="45.87113" lon="4.65225">
        <ele>220</ele>
        <time>2018-05-18T09:30:05Z</time>
      </trkpt>
      <trkpt lat="45.87117" lon="4.65218">
        <ele>220</ele>
        <time>2018-05-18T09:30:06Z</time>
      </trkpt>
      <trkpt lat="45.87121" lon="4.65213">
        <ele>220</ele>
        <time>2018-05-18T09:30:07Z</time>
      </trkpt>
      <trkpt lat="45.87125" lon="4.65206">
        <ele>220</ele>
        <time>2018-05-18T09:30:08Z</time>
      </trkpt>
      <trkpt lat="45.87129" lon="4.65201">
        <ele>220</ele>
        <time>2018-05-18T09:30:09Z</time>
      </trkpt>
      <trkpt lat="45.87134" lon="4.65196">
        <ele>220</ele>
        <time>2018-05-18T09:30:10Z</time>
      </trkpt>
      <trkpt lat="45.87137" lon="4.65191">
        <ele>220</ele>
        <time>2018-05-18T09:30:11Z</time>
      </trkpt>
      <trkpt lat="45.87141" lon="4.65187">
        <ele>220</ele>
        <time>2018-05-18T09:30:12Z</time>
      </trkpt>
      <trkpt lat="45.87146" lon="4.65182">
        <ele>220</ele>
        <time>2018-05-18T09:30:13Z</time>
      </trkpt>
      <trkpt lat="45.8715" lon="4.65177">
        <ele>220</ele>
        <time>2018-05-18T09:30:14Z</time>
      </trkpt>
      <trkpt lat="45.87153" lon="4.65175">
        <ele>220</ele>
        <time>2018-05-18T09:30:15Z</time>
      </trkpt>
      <trkpt lat="45.87158" lon="4.6517">
        <ele>220</ele>
        <time>2018-05-18T09:30:16Z</time>
      </trkpt>
      <trkpt lat="45.87164" lon="4.65166">
        <ele>219</ele>
        <time>2018-05-18T09:30:17Z</time>
      </trkpt>
      <trkpt lat="45.87171" lon="4.6516">
        <ele>221</ele>
        <time>2018-05-18T09:30:19Z</time>
      </trkpt>
      <trkpt lat="45.87176" lon="4.65155">
        <ele>221</ele>
        <time>2018-05-18T09:30:20Z</time>
      </trkpt>
      <trkpt lat="45.87181" lon="4.65152">
        <ele>221</ele>
        <time>2018-05-18T09:30:21Z</time>
      </trkpt>
      <trkpt lat="45.87187" lon="4.65147">
        <ele>222</ele>
        <time>2018-05-18T09:30:22Z</time>
      </trkpt>
      <trkpt lat="45.87191" lon="4.65143">
        <ele>222</ele>
        <time>2018-05-18T09:30:23Z</time>
      </trkpt>
      <trkpt lat="45.87196" lon="4.65137">
        <ele>222</ele>
        <time>2018-05-18T09:30:24Z</time>
      </trkpt>
      <trkpt lat="45.87201" lon="4.65133">
        <ele>222</ele>
        <time>2018-05-18T09:30:25Z</time>
      </trkpt>
      <trkpt lat="45.87206" lon="4.6513">
        <ele>222</ele>
        <time>2018-05-18T09:30:26Z</time>
      </trkpt>
      <trkpt lat="45.8721" lon="4.65126">
        <ele>222</ele>
        <time>2018-05-18T09:30:27Z</time>
      </trkpt>
      <trkpt lat="45.87215" lon="4.65122">
        <ele>222</ele>
        <time>2018-05-18T09:30:28Z</time>
      </trkpt>
      <trkpt lat="45.87219" lon="4.6512">
        <ele>222</ele>
        <time>2018-05-18T09:30:29Z</time>
      </trkpt>
      <trkpt lat="45.87223" lon="4.65114">
        <ele>222</ele>
        <time>2018-05-18T09:30:30Z</time>
      </trkpt>
      <trkpt lat="45.87229" lon="4.6511">
        <ele>222</ele>
        <time>2018-05-18T09:30:31Z</time>
      </trkpt>
      <trkpt lat="45.87233" lon="4.65108">
        <ele>222</ele>
        <time>2018-05-18T09:30:32Z</time>
      </trkpt>
      <trkpt lat="45.87238" lon="4.65105">
        <ele>221</ele>
        <time>2018-05-18T09:30:33Z</time>
      </trkpt>
      <trkpt lat="45.87242" lon="4.65102">
        <ele>221</ele>
        <time>2018-05-18T09:30:34Z</time>
      </trkpt>
      <trkpt lat="45.87246" lon="4.65099">
        <ele>221</ele>
        <time>2018-05-18T09:30:35Z</time>
      </trkpt>
      <trkpt lat="45.8725" lon="4.65094">
        <ele>220</ele>
        <time>2018-05-18T09:30:36Z</time>
      </trkpt>
      <trkpt lat="45.87254" lon="4.65089">
        <ele>222</ele>
        <time>2018-05-18T09:30:37Z</time>
      </trkpt>
      <trkpt lat="45.87257" lon="4.65085">
        <ele>222</ele>
        <time>2018-05-18T09:30:38Z</time>
      </trkpt>
      <trkpt lat="45.87261" lon="4.6508">
        <ele>219</ele>
        <time>2018-05-18T09:30:39Z</time>
      </trkpt>
      <trkpt lat="45.87264" lon="4.65074">
        <ele>219</ele>
        <time>2018-05-18T09:30:40Z</time>
      </trkpt>
      <trkpt lat="45.87271" lon="4.65067">
        <ele>219</ele>
        <time>2018-05-18T09:30:42Z</time>
      </trkpt>
      <trkpt lat="45.87274" lon="4.65062">
        <ele>220</ele>
        <time>2018-05-18T09:30:43Z</time>
      </trkpt>
      <trkpt lat="45.87279" lon="4.65058">
        <ele>220</ele>
        <time>2018-05-18T09:30:44Z</time>
      </trkpt>
      <trkpt lat="45.87282" lon="4.65053">
        <ele>220</ele>
        <time>2018-05-18T09:30:45Z</time>
      </trkpt>
      <trkpt lat="45.87286" lon="4.65048">
        <ele>220</ele>
        <time>2018-05-18T09:30:46Z</time>
      </trkpt>
      <trkpt lat="45.87289" lon="4.65044">
        <ele>220</ele>
        <time>2018-05-18T09:30:47Z</time>
      </trkpt>
      <trkpt lat="45.87294" lon="4.65038">
        <ele>220</ele>
        <time>2018-05-18T09:30:48Z</time>
      </trkpt>
      <trkpt lat="45.87298" lon="4.65034">
        <ele>220</ele>
        <time>2018-05-18T09:30:49Z</time>
      </trkpt>
      <trkpt lat="45.87301" lon="4.65028">
        <ele>219</ele>
        <time>2018-05-18T09:30:50Z</time>
      </trkpt>
      <trkpt lat="45.87304" lon="4.65023">
        <ele>219</ele>
        <time>2018-05-18T09:30:51Z</time>
      </trkpt>
      <trkpt lat="45.87307" lon="4.65019">
        <ele>219</ele>
        <time>2018-05-18T09:30:52Z</time>
      </trkpt>
      <trkpt lat="45.87311" lon="4.65014">
        <ele>219</ele>
        <time>2018-05-18T09:30:53Z</time>
      </trkpt>
      <trkpt lat="45.87315" lon="4.65006">
        <ele>219</ele>
        <time>2018-05-18T09:30:54Z</time>
      </trkpt>
      <trkpt lat="45.87319" lon="4.65">
        <ele>219</ele>
        <time>2018-05-18T09:30:55Z</time>
      </trkpt>
      <trkpt lat="45.87323" lon="4.64993">
        <ele>216</ele>
        <time>2018-05-18T09:30:56Z</time>
      </trkpt>
      <trkpt lat="45.87327" lon="4.64984">
        <ele>215</ele>
        <time>2018-05-18T09:30:57Z</time>
      </trkpt>
      <trkpt lat="45.8733" lon="4.64976">
        <ele>215</ele>
        <time>2018-05-18T09:30:58Z</time>
      </trkpt>
      <trkpt lat="45.87333" lon="4.64969">
        <ele>219</ele>
        <time>2018-05-18T09:30:59Z</time>
      </trkpt>
      <trkpt lat="45.87336" lon="4.64961">
        <ele>218</ele>
        <time>2018-05-18T09:31:00Z</time>
      </trkpt>
      <trkpt lat="45.8734" lon="4.64955">
        <ele>218</ele>
        <time>2018-05-18T09:31:01Z</time>
      </trkpt>
      <trkpt lat="45.87343" lon="4.64949">
        <ele>218</ele>
        <time>2018-05-18T09:31:02Z</time>
      </trkpt>
      <trkpt lat="45.87346" lon="4.64943">
        <ele>217</ele>
        <time>2018-05-18T09:31:03Z</time>
      </trkpt>
      <trkpt lat="45.8735" lon="4.64938">
        <ele>217</ele>
        <time>2018-05-18T09:31:04Z</time>
      </trkpt>
      <trkpt lat="45.87354" lon="4.64933">
        <ele>217</ele>
        <time>2018-05-18T09:31:05Z</time>
      </trkpt>
      <trkpt lat="45.87358" lon="4.64925">
        <ele>217</ele>
        <time>2018-05-18T09:31:06Z</time>
      </trkpt>
      <trkpt lat="45.87362" lon="4.64919">
        <ele>217</ele>
        <time>2018-05-18T09:31:07Z</time>
      </trkpt>
      <trkpt lat="45.87366" lon="4.64913">
        <ele>214</ele>
        <time>2018-05-18T09:31:08Z</time>
      </trkpt>
      <trkpt lat="45.87371" lon="4.64909">
        <ele>215</ele>
        <time>2018-05-18T09:31:09Z</time>
      </trkpt>
      <trkpt lat="45.87375" lon="4.64902">
        <ele>215</ele>
        <time>2018-05-18T09:31:10Z</time>
      </trkpt>
      <trkpt lat="45.87379" lon="4.64897">
        <ele>215</ele>
        <time>2018-05-18T09:31:11Z</time>
      </trkpt>
      <trkpt lat="45.87383" lon="4.64891">
        <ele>215</ele>
        <time>2018-05-18T09:31:12Z</time>
      </trkpt>
      <trkpt lat="45.87386" lon="4.64886">
        <ele>215</ele>
        <time>2018-05-18T09:31:13Z</time>
      </trkpt>
      <trkpt lat="45.87391" lon="4.64881">
        <ele>215</ele>
        <time>2018-05-18T09:31:14Z</time>
      </trkpt>
      <trkpt lat="45.87395" lon="4.64876">
        <ele>215</ele>
        <time>2018-05-18T09:31:15Z</time>
      </trkpt>
      <trkpt lat="45.874" lon="4.6487">
        <ele>215</ele>
        <time>2018-05-18T09:31:16Z</time>
      </trkpt>
      <trkpt lat="45.87405" lon="4.64865">
        <ele>215</ele>
        <time>2018-05-18T09:31:17Z</time>
      </trkpt>
      <trkpt lat="45.87409" lon="4.6486">
        <ele>215</ele>
        <time>2018-05-18T09:31:18Z</time>
      </trkpt>
      <trkpt lat="45.87412" lon="4.64857">
        <ele>215</ele>
        <time>2018-05-18T09:31:19Z</time>
      </trkpt>
      <trkpt lat="45.87417" lon="4.64849">
        <ele>218</ele>
        <time>2018-05-18T09:31:20Z</time>
      </trkpt>
      <trkpt lat="45.87421" lon="4.64844">
        <ele>218</ele>
        <time>2018-05-18T09:31:21Z</time>
      </trkpt>
      <trkpt lat="45.87425" lon="4.6484">
        <ele>217</ele>
        <time>2018-05-18T09:31:22Z</time>
      </trkpt>
      <trkpt lat="45.87429" lon="4.64835">
        <ele>217</ele>
        <time>2018-05-18T09:31:23Z</time>
      </trkpt>
      <trkpt lat="45.87433" lon="4.64831">
        <ele>215</ele>
        <time>2018-05-18T09:31:24Z</time>
      </trkpt>
      <trkpt lat="45.87438" lon="4.64826">
        <ele>215</ele>
        <time>2018-05-18T09:31:25Z</time>
      </trkpt>
      <trkpt lat="45.87442" lon="4.64819">
        <ele>215</ele>
        <time>2018-05-18T09:31:26Z</time>
      </trkpt>
      <trkpt lat="45.87446" lon="4.64814">
        <ele>215</ele>
        <time>2018-05-18T09:31:27Z</time>
      </trkpt>
      <trkpt lat="45.87451" lon="4.64808">
        <ele>215</ele>
        <time>2018-05-18T09:31:28Z</time>
      </trkpt>
      <trkpt lat="45.87453" lon="4.64803">
        <ele>214</ele>
        <time>2018-05-18T09:31:29Z</time>
      </trkpt>
      <trkpt lat="45.87457" lon="4.64797">
        <ele>214</ele>
        <time>2018-05-18T09:31:30Z</time>
      </trkpt>
      <trkpt lat="45.87461" lon="4.64791">
        <ele>214</ele>
        <time>2018-05-18T09:31:31Z</time>
      </trkpt>
      <trkpt lat="45.87465" lon="4.64786">
        <ele>214</ele>
        <time>2018-05-18T09:31:32Z</time>
      </trkpt>
      <trkpt lat="45.87468" lon="4.6478">
        <ele>214</ele>
        <time>2018-05-18T09:31:33Z</time>
      </trkpt>
      <trkpt lat="45.87472" lon="4.64774">
        <ele>214</ele>
        <time>2018-05-18T09:31:34Z</time>
      </trkpt>
      <trkpt lat="45.87476" lon="4.64769">
        <ele>214</ele>
        <time>2018-05-18T09:31:35Z</time>
      </trkpt>
      <trkpt lat="45.87479" lon="4.64764">
        <ele>214</ele>
        <time>2018-05-18T09:31:36Z</time>
      </trkpt>
      <trkpt lat="45.87483" lon="4.64759">
        <ele>214</ele>
        <time>2018-05-18T09:31:37Z</time>
      </trkpt>
      <trkpt lat="45.87487" lon="4.64754">
        <ele>213</ele>
        <time>2018-05-18T09:31:38Z</time>
      </trkpt>
      <trkpt lat="45.87491" lon="4.6475">
        <ele>213</ele>
        <time>2018-05-18T09:31:39Z</time>
      </trkpt>
      <trkpt lat="45.87495" lon="4.64746">
        <ele>213</ele>
        <time>2018-05-18T09:31:40Z</time>
      </trkpt>
      <trkpt lat="45.87499" lon="4.64741">
        <ele>213</ele>
        <time>2018-05-18T09:31:41Z</time>
      </trkpt>
      <trkpt lat="45.87502" lon="4.64735">
        <ele>213</ele>
        <time>2018-05-18T09:31:42Z</time>
      </trkpt>
      <trkpt lat="45.87506" lon="4.6473">
        <ele>213</ele>
        <time>2018-05-18T09:31:43Z</time>
      </trkpt>
      <trkpt lat="45.8751" lon="4.64724">
        <ele>213</ele>
        <time>2018-05-18T09:31:44Z</time>
      </trkpt>
      <trkpt lat="45.87514" lon="4.64719">
        <ele>213</ele>
        <time>2018-05-18T09:31:45Z</time>
      </trkpt>
      <trkpt lat="45.87517" lon="4.64713">
        <ele>212</ele>
        <time>2018-05-18T09:31:46Z</time>
      </trkpt>
      <trkpt lat="45.87521" lon="4.64708">
        <ele>212</ele>
        <time>2018-05-18T09:31:47Z</time>
      </trkpt>
      <trkpt lat="45.87525" lon="4.64704">
        <ele>212</ele>
        <time>2018-05-18T09:31:48Z</time>
      </trkpt>
      <trkpt lat="45.87529" lon="4.64698">
        <ele>212</ele>
        <time>2018-05-18T09:31:49Z</time>
      </trkpt>
      <trkpt lat="45.87533" lon="4.64693">
        <ele>212</ele>
        <time>2018-05-18T09:31:50Z</time>
      </trkpt>
      <trkpt lat="45.87536" lon="4.6469">
        <ele>212</ele>
        <time>2018-05-18T09:31:51Z</time>
      </trkpt>
      <trkpt lat="45.8754" lon="4.64685">
        <ele>212</ele>
        <time>2018-05-18T09:31:52Z</time>
      </trkpt>
      <trkpt lat="45.87544" lon="4.64681">
        <ele>212</ele>
        <time>2018-05-18T09:31:53Z</time>
      </trkpt>
      <trkpt lat="45.87547" lon="4.64676">
        <ele>212</ele>
        <time>2018-05-18T09:31:54Z</time>
      </trkpt>
      <trkpt lat="45.87551" lon="4.64672">
        <ele>212</ele>
        <time>2018-05-18T09:31:55Z</time>
      </trkpt>
      <trkpt lat="45.87557" lon="4.64664">
        <ele>212</ele>
        <time>2018-05-18T09:31:57Z</time>
      </trkpt>
      <trkpt lat="45.8756" lon="4.64659">
        <ele>212</ele>
        <time>2018-05-18T09:31:58Z</time>
      </trkpt>
      <trkpt lat="45.87563" lon="4.64653">
        <ele>212</ele>
        <time>2018-05-18T09:31:59Z</time>
      </trkpt>
      <trkpt lat="45.87566" lon="4.64648">
        <ele>212</ele>
        <time>2018-05-18T09:32:00Z</time>
      </trkpt>
      <trkpt lat="45.87571" lon="4.64644">
        <ele>212</ele>
        <time>2018-05-18T09:32:01Z</time>
      </trkpt>
      <trkpt lat="45.87574" lon="4.64639">
        <ele>212</ele>
        <time>2018-05-18T09:32:02Z</time>
      </trkpt>
      <trkpt lat="45.87577" lon="4.64634">
        <ele>212</ele>
        <time>2018-05-18T09:32:03Z</time>
      </trkpt>
      <trkpt lat="45.87581" lon="4.6463">
        <ele>212</ele>
        <time>2018-05-18T09:32:04Z</time>
      </trkpt>
      <trkpt lat="45.87585" lon="4.64625">
        <ele>212</ele>
        <time>2018-05-18T09:32:05Z</time>
      </trkpt>
      <trkpt lat="45.87589" lon="4.6462">
        <ele>212</ele>
        <time>2018-05-18T09:32:06Z</time>
      </trkpt>
      <trkpt lat="45.87593" lon="4.64614">
        <ele>212</ele>
        <time>2018-05-18T09:32:07Z</time>
      </trkpt>
      <trkpt lat="45.87597" lon="4.64609">
        <ele>212</ele>
        <time>2018-05-18T09:32:08Z</time>
      </trkpt>
      <trkpt lat="45.87601" lon="4.64604">
        <ele>212</ele>
        <time>2018-05-18T09:32:09Z</time>
      </trkpt>
      <trkpt lat="45.87605" lon="4.646">
        <ele>212</ele>
        <time>2018-05-18T09:32:10Z</time>
      </trkpt>
      <trkpt lat="45.8761" lon="4.64594">
        <ele>212</ele>
        <time>2018-05-18T09:32:11Z</time>
      </trkpt>
      <trkpt lat="45.87614" lon="4.6459">
        <ele>212</ele>
        <time>2018-05-18T09:32:12Z</time>
      </trkpt>
      <trkpt lat="45.87618" lon="4.64584">
        <ele>212</ele>
        <time>2018-05-18T09:32:13Z</time>
      </trkpt>
      <trkpt lat="45.87621" lon="4.6458">
        <ele>212</ele>
        <time>2018-05-18T09:32:14Z</time>
      </trkpt>
      <trkpt lat="45.87625" lon="4.64576">
        <ele>212</ele>
        <time>2018-05-18T09:32:15Z</time>
      </trkpt>
      <trkpt lat="45.87628" lon="4.6457">
        <ele>212</ele>
        <time>2018-05-18T09:32:16Z</time>
      </trkpt>
      <trkpt lat="45.87632" lon="4.64564">
        <ele>212</ele>
        <time>2018-05-18T09:32:17Z</time>
      </trkpt>
      <trkpt lat="45.87635" lon="4.64559">
        <ele>212</ele>
        <time>2018-05-18T09:32:18Z</time>
      </trkpt>
      <trkpt lat="45.8764" lon="4.64552">
        <ele>212</ele>
        <time>2018-05-18T09:32:19Z</time>
      </trkpt>
      <trkpt lat="45.87644" lon="4.64547">
        <ele>212</ele>
        <time>2018-05-18T09:32:20Z</time>
      </trkpt>
      <trkpt lat="45.87648" lon="4.64541">
        <ele>213</ele>
        <time>2018-05-18T09:32:21Z</time>
      </trkpt>
      <trkpt lat="45.87652" lon="4.64536">
        <ele>213</ele>
        <time>2018-05-18T09:32:22Z</time>
      </trkpt>
      <trkpt lat="45.87655" lon="4.64533">
        <ele>213</ele>
        <time>2018-05-18T09:32:23Z</time>
      </trkpt>
      <trkpt lat="45.87658" lon="4.64527">
        <ele>213</ele>
        <time>2018-05-18T09:32:24Z</time>
      </trkpt>
      <trkpt lat="45.87665" lon="4.6452">
        <ele>213</ele>
        <time>2018-05-18T09:32:26Z</time>
      </trkpt>
      <trkpt lat="45.87668" lon="4.64516">
        <ele>215</ele>
        <time>2018-05-18T09:32:27Z</time>
      </trkpt>
      <trkpt lat="45.87671" lon="4.64511">
        <ele>215</ele>
        <time>2018-05-18T09:32:28Z</time>
      </trkpt>
      <trkpt lat="45.87675" lon="4.64505">
        <ele>215</ele>
        <time>2018-05-18T09:32:29Z</time>
      </trkpt>
      <trkpt lat="45.87683" lon="4.64499">
        <ele>214</ele>
        <time>2018-05-18T09:32:33Z</time>
      </trkpt>
      <trkpt lat="45.87689" lon="4.64499">
        <ele>214</ele>
        <time>2018-05-18T09:32:34Z</time>
      </trkpt>
      <trkpt lat="45.87694" lon="4.64509">
        <ele>215</ele>
        <time>2018-05-18T09:32:36Z</time>
      </trkpt>
      <trkpt lat="45.87696" lon="4.64515">
        <ele>215</ele>
        <time>2018-05-18T09:32:37Z</time>
      </trkpt>
      <trkpt lat="45.87702" lon="4.64524">
        <ele>215</ele>
        <time>2018-05-18T09:32:39Z</time>
      </trkpt>
      <trkpt lat="45.87704" lon="4.64528">
        <ele>216</ele>
        <time>2018-05-18T09:32:40Z</time>
      </trkpt>
      <trkpt lat="45.87711" lon="4.64537">
        <ele>216</ele>
        <time>2018-05-18T09:32:42Z</time>
      </trkpt>
      <trkpt lat="45.87713" lon="4.64543">
        <ele>216</ele>
        <time>2018-05-18T09:32:43Z</time>
      </trkpt>
      <trkpt lat="45.87715" lon="4.64548">
        <ele>216</ele>
        <time>2018-05-18T09:32:44Z</time>
      </trkpt>
      <trkpt lat="45.87718" lon="4.64554">
        <ele>216</ele>
        <time>2018-05-18T09:32:45Z</time>
      </trkpt>
      <trkpt lat="45.87721" lon="4.64563">
        <ele>217</ele>
        <time>2018-05-18T09:32:47Z</time>
      </trkpt>
      <trkpt lat="45.87722" lon="4.64569">
        <ele>217</ele>
        <time>2018-05-18T09:32:48Z</time>
      </trkpt>
      <trkpt lat="45.87723" lon="4.64581">
        <ele>217</ele>
        <time>2018-05-18T09:32:50Z</time>
      </trkpt>
      <trkpt lat="45.87724" lon="4.64587">
        <ele>217</ele>
        <time>2018-05-18T09:32:51Z</time>
      </trkpt>
      <trkpt lat="45.87721" lon="4.64592">
        <ele>217</ele>
        <time>2018-05-18T09:32:52Z</time>
      </trkpt>
      <trkpt lat="45.87718" lon="4.64597">
        <ele>217</ele>
        <time>2018-05-18T09:32:53Z</time>
      </trkpt>
      <trkpt lat="45.87717" lon="4.64603">
        <ele>217</ele>
        <time>2018-05-18T09:32:54Z</time>
      </trkpt>
      <trkpt lat="45.87718" lon="4.6461">
        <ele>217</ele>
        <time>2018-05-18T09:32:55Z</time>
      </trkpt>
      <trkpt lat="45.87724" lon="4.64616">
        <ele>217</ele>
        <time>2018-05-18T09:32:56Z</time>
      </trkpt>
      <trkpt lat="45.87726" lon="4.64623">
        <ele>217</ele>
        <time>2018-05-18T09:32:57Z</time>
      </trkpt>
      <trkpt lat="45.8773" lon="4.64635">
        <ele>217</ele>
        <time>2018-05-18T09:32:59Z</time>
      </trkpt>
      <trkpt lat="45.8773" lon="4.64639">
        <ele>217</ele>
        <time>2018-05-18T09:33:00Z</time>
      </trkpt>
      <trkpt lat="45.87731" lon="4.64645">
        <ele>217</ele>
        <time>2018-05-18T09:33:01Z</time>
      </trkpt>
      <trkpt lat="45.8773" lon="4.64652">
        <ele>217</ele>
        <time>2018-05-18T09:33:02Z</time>
      </trkpt>
      <trkpt lat="45.87728" lon="4.64664">
        <ele>217</ele>
        <time>2018-05-18T09:33:04Z</time>
      </trkpt>
      <trkpt lat="45.87727" lon="4.6467">
        <ele>216</ele>
        <time>2018-05-18T09:33:05Z</time>
      </trkpt>
      <trkpt lat="45.87726" lon="4.64678">
        <ele>216</ele>
        <time>2018-05-18T09:33:06Z</time>
      </trkpt>
      <trkpt lat="45.87726" lon="4.64685">
        <ele>216</ele>
        <time>2018-05-18T09:33:07Z</time>
      </trkpt>
      <trkpt lat="45.87725" lon="4.64691">
        <ele>216</ele>
        <time>2018-05-18T09:33:08Z</time>
      </trkpt>
      <trkpt lat="45.87725" lon="4.64698">
        <ele>215</ele>
        <time>2018-05-18T09:33:09Z</time>
      </trkpt>
      <trkpt lat="45.87723" lon="4.6471">
        <ele>215</ele>
        <time>2018-05-18T09:33:11Z</time>
      </trkpt>
      <trkpt lat="45.87724" lon="4.64718">
        <ele>215</ele>
        <time>2018-05-18T09:33:12Z</time>
      </trkpt>
      <trkpt lat="45.87724" lon="4.64726">
        <ele>215</ele>
        <time>2018-05-18T09:33:13Z</time>
      </trkpt>
      <trkpt lat="45.87726" lon="4.64731">
        <ele>214</ele>
        <time>2018-05-18T09:33:14Z</time>
      </trkpt>
      <trkpt lat="45.87728" lon="4.64737">
        <ele>214</ele>
        <time>2018-05-18T09:33:15Z</time>
      </trkpt>
      <trkpt lat="45.8773" lon="4.64744">
        <ele>214</ele>
        <time>2018-05-18T09:33:16Z</time>
      </trkpt>
      <trkpt lat="45.87731" lon="4.64755">
        <ele>213</ele>
        <time>2018-05-18T09:33:18Z</time>
      </trkpt>
      <trkpt lat="45.87733" lon="4.6476">
        <ele>213</ele>
        <time>2018-05-18T09:33:19Z</time>
      </trkpt>
      <trkpt lat="45.87734" lon="4.64767">
        <ele>213</ele>
        <time>2018-05-18T09:33:20Z</time>
      </trkpt>
      <trkpt lat="45.87736" lon="4.64773">
        <ele>213</ele>
        <time>2018-05-18T09:33:21Z</time>
      </trkpt>
      <trkpt lat="45.8774" lon="4.64784">
        <ele>213</ele>
        <time>2018-05-18T09:33:23Z</time>
      </trkpt>
      <trkpt lat="45.87742" lon="4.64789">
        <ele>213</ele>
        <time>2018-05-18T09:33:24Z</time>
      </trkpt>
      <trkpt lat="45.87747" lon="4.648">
        <ele>214</ele>
        <time>2018-05-18T09:33:26Z</time>
      </trkpt>
      <trkpt lat="45.87749" lon="4.64804">
        <ele>214</ele>
        <time>2018-05-18T09:33:27Z</time>
      </trkpt>
      <trkpt lat="45.87754" lon="4.64814">
        <ele>214</ele>
        <time>2018-05-18T09:33:29Z</time>
      </trkpt>
      <trkpt lat="45.87757" lon="4.64818">
        <ele>214</ele>
        <time>2018-05-18T09:33:30Z</time>
      </trkpt>
      <trkpt lat="45.87763" lon="4.64827">
        <ele>214</ele>
        <time>2018-05-18T09:33:33Z</time>
      </trkpt>
      <trkpt lat="45.87764" lon="4.64829">
        <ele>214</ele>
        <time>2018-05-18T09:33:34Z</time>
      </trkpt>
      <trkpt lat="45.87768" lon="4.64836">
        <ele>216</ele>
        <time>2018-05-18T09:33:37Z</time>
      </trkpt>
      <trkpt lat="45.8777" lon="4.64838">
        <ele>216</ele>
        <time>2018-05-18T09:33:38Z</time>
      </trkpt>
      <trkpt lat="45.87776" lon="4.64847">
        <ele>217</ele>
        <time>2018-05-18T09:33:42Z</time>
      </trkpt>
      <trkpt lat="45.87777" lon="4.64849">
        <ele>217</ele>
        <time>2018-05-18T09:33:43Z</time>
      </trkpt>
      <trkpt lat="45.87781" lon="4.64857">
        <ele>218</ele>
        <time>2018-05-18T09:33:46Z</time>
      </trkpt>
      <trkpt lat="45.87783" lon="4.6486">
        <ele>218</ele>
        <time>2018-05-18T09:33:47Z</time>
      </trkpt>
      <trkpt lat="45.87787" lon="4.64869">
        <ele>218</ele>
        <time>2018-05-18T09:33:50Z</time>
      </trkpt>
      <trkpt lat="45.87789" lon="4.64871">
        <ele>218</ele>
        <time>2018-05-18T09:33:51Z</time>
      </trkpt>
      <trkpt lat="45.87792" lon="4.6488">
        <ele>219</ele>
        <time>2018-05-18T09:33:54Z</time>
      </trkpt>
      <trkpt lat="45.87793" lon="4.64883">
        <ele>219</ele>
        <time>2018-05-18T09:33:55Z</time>
      </trkpt>
      <trkpt lat="45.87797" lon="4.64892">
        <ele>219</ele>
        <time>2018-05-18T09:33:58Z</time>
      </trkpt>
      <trkpt lat="45.87798" lon="4.64894">
        <ele>219</ele>
        <time>2018-05-18T09:33:59Z</time>
      </trkpt>
      <trkpt lat="45.87802" lon="4.64902">
        <ele>220</ele>
        <time>2018-05-18T09:34:02Z</time>
      </trkpt>
      <trkpt lat="45.87804" lon="4.64905">
        <ele>220</ele>
        <time>2018-05-18T09:34:03Z</time>
      </trkpt>
      <trkpt lat="45.87807" lon="4.64913">
        <ele>220</ele>
        <time>2018-05-18T09:34:06Z</time>
      </trkpt>
      <trkpt lat="45.87808" lon="4.64916">
        <ele>220</ele>
        <time>2018-05-18T09:34:07Z</time>
      </trkpt>
      <trkpt lat="45.87813" lon="4.64925">
        <ele>224</ele>
        <time>2018-05-18T09:34:11Z</time>
      </trkpt>
      <trkpt lat="45.87814" lon="4.64928">
        <ele>224</ele>
        <time>2018-05-18T09:34:12Z</time>
      </trkpt>
      <trkpt lat="45.87818" lon="4.64938">
        <ele>225</ele>
        <time>2018-05-18T09:34:16Z</time>
      </trkpt>
      <trkpt lat="45.87819" lon="4.6494">
        <ele>225</ele>
        <time>2018-05-18T09:34:17Z</time>
      </trkpt>
      <trkpt lat="45.87825" lon="4.64948">
        <ele>225</ele>
        <time>2018-05-18T09:34:21Z</time>
      </trkpt>
      <trkpt lat="45.87827" lon="4.64949">
        <ele>225</ele>
        <time>2018-05-18T09:34:22Z</time>
      </trkpt>
      <trkpt lat="45.87834" lon="4.64954">
        <ele>228</ele>
        <time>2018-05-18T09:34:26Z</time>
      </trkpt>
      <trkpt lat="45.87835" lon="4.64956">
        <ele>228</ele>
        <time>2018-05-18T09:34:27Z</time>
      </trkpt>
      <trkpt lat="45.87842" lon="4.64962">
        <ele>228</ele>
        <time>2018-05-18T09:34:31Z</time>
      </trkpt>
      <trkpt lat="45.87844" lon="4.64963">
        <ele>228</ele>
        <time>2018-05-18T09:34:32Z</time>
      </trkpt>
      <trkpt lat="45.87852" lon="4.64968">
        <ele>229</ele>
        <time>2018-05-18T09:34:36Z</time>
      </trkpt>
      <trkpt lat="45.87854" lon="4.64969">
        <ele>229</ele>
        <time>2018-05-18T09:34:37Z</time>
      </trkpt>
      <trkpt lat="45.87861" lon="4.64973">
        <ele>229</ele>
        <time>2018-05-18T09:34:41Z</time>
      </trkpt>
      <trkpt lat="45.87863" lon="4.64974">
        <ele>229</ele>
        <time>2018-05-18T09:34:42Z</time>
      </trkpt>
      <trkpt lat="45.8787" lon="4.64978">
        <ele>230</ele>
        <time>2018-05-18T09:34:46Z</time>
      </trkpt>
      <trkpt lat="45.87872" lon="4.64979">
        <ele>230</ele>
        <time>2018-05-18T09:34:47Z</time>
      </trkpt>
      <trkpt lat="45.8788" lon="4.64983">
        <ele>230</ele>
        <time>2018-05-18T09:34:51Z</time>
      </trkpt>
      <trkpt lat="45.87881" lon="4.64984">
        <ele>231</ele>
        <time>2018-05-18T09:34:52Z</time>
      </trkpt>
      <trkpt lat="45.87889" lon="4.64987">
        <ele>231</ele>
        <time>2018-05-18T09:34:56Z</time>
      </trkpt>
      <trkpt lat="45.87891" lon="4.64987">
        <ele>231</ele>
        <time>2018-05-18T09:34:57Z</time>
      </trkpt>
      <trkpt lat="45.87898" lon="4.64989">
        <ele>232</ele>
        <time>2018-05-18T09:35:01Z</time>
      </trkpt>
      <trkpt lat="45.879" lon="4.64989">
        <ele>233</ele>
        <time>2018-05-18T09:35:02Z</time>
      </trkpt>
      <trkpt lat="45.87908" lon="4.64989">
        <ele>234</ele>
        <time>2018-05-18T09:35:06Z</time>
      </trkpt>
      <trkpt lat="45.8791" lon="4.64989">
        <ele>234</ele>
        <time>2018-05-18T09:35:07Z</time>
      </trkpt>
      <trkpt lat="45.87918" lon="4.64988">
        <ele>237</ele>
        <time>2018-05-18T09:35:11Z</time>
      </trkpt>
      <trkpt lat="45.8792" lon="4.64988">
        <ele>237</ele>
        <time>2018-05-18T09:35:12Z</time>
      </trkpt>
      <trkpt lat="45.87929" lon="4.64986">
        <ele>237</ele>
        <time>2018-05-18T09:35:16Z</time>
      </trkpt>
      <trkpt lat="45.87931" lon="4.64985">
        <ele>237</ele>
        <time>2018-05-18T09:35:17Z</time>
      </trkpt>
      <trkpt lat="45.8794" lon="4.6498">
        <ele>237</ele>
        <time>2018-05-18T09:35:21Z</time>
      </trkpt>
      <trkpt lat="45.87941" lon="4.64979">
        <ele>237</ele>
        <time>2018-05-18T09:35:22Z</time>
      </trkpt>
      <trkpt lat="45.87949" lon="4.64975">
        <ele>237</ele>
        <time>2018-05-18T09:35:26Z</time>
      </trkpt>
      <trkpt lat="45.8795" lon="4.64974">
        <ele>238</ele>
        <time>2018-05-18T09:35:27Z</time>
      </trkpt>
      <trkpt lat="45.87958" lon="4.64969">
        <ele>238</ele>
        <time>2018-05-18T09:35:31Z</time>
      </trkpt>
      <trkpt lat="45.87959" lon="4.64968">
        <ele>238</ele>
        <time>2018-05-18T09:35:32Z</time>
      </trkpt>
      <trkpt lat="45.87966" lon="4.64964">
        <ele>238</ele>
        <time>2018-05-18T09:35:36Z</time>
      </trkpt>
      <trkpt lat="45.87968" lon="4.64962">
        <ele>238</ele>
        <time>2018-05-18T09:35:37Z</time>
      </trkpt>
      <trkpt lat="45.87975" lon="4.64956">
        <ele>238</ele>
        <time>2018-05-18T09:35:41Z</time>
      </trkpt>
      <trkpt lat="45.87977" lon="4.64955">
        <ele>238</ele>
        <time>2018-05-18T09:35:42Z</time>
      </trkpt>
      <trkpt lat="45.87984" lon="4.64949">
        <ele>237</ele>
        <time>2018-05-18T09:35:46Z</time>
      </trkpt>
      <trkpt lat="45.87986" lon="4.64948">
        <ele>237</ele>
        <time>2018-05-18T09:35:47Z</time>
      </trkpt>
      <trkpt lat="45.87993" lon="4.64941">
        <ele>237</ele>
        <time>2018-05-18T09:35:51Z</time>
      </trkpt>
      <trkpt lat="45.87994" lon="4.6494">
        <ele>237</ele>
        <time>2018-05-18T09:35:52Z</time>
      </trkpt>
      <trkpt lat="45.88" lon="4.64934">
        <ele>236</ele>
        <time>2018-05-18T09:35:55Z</time>
      </trkpt>
      <trkpt lat="45.88002" lon="4.64933">
        <ele>243</ele>
        <time>2018-05-18T09:35:56Z</time>
      </trkpt>
      <trkpt lat="45.88009" lon="4.64926">
        <ele>242</ele>
        <time>2018-05-18T09:36:00Z</time>
      </trkpt>
      <trkpt lat="45.88011" lon="4.64925">
        <ele>242</ele>
        <time>2018-05-18T09:36:01Z</time>
      </trkpt>
      <trkpt lat="45.88017" lon="4.6492">
        <ele>244</ele>
        <time>2018-05-18T09:36:05Z</time>
      </trkpt>
      <trkpt lat="45.88019" lon="4.64919">
        <ele>244</ele>
        <time>2018-05-18T09:36:06Z</time>
      </trkpt>
      <trkpt lat="45.88025" lon="4.64912">
        <ele>238</ele>
        <time>2018-05-18T09:36:10Z</time>
      </trkpt>
      <trkpt lat="45.88027" lon="4.6491">
        <ele>238</ele>
        <time>2018-05-18T09:36:11Z</time>
      </trkpt>
      <trkpt lat="45.88034" lon="4.64903">
        <ele>239</ele>
        <time>2018-05-18T09:36:16Z</time>
      </trkpt>
      <trkpt lat="45.88036" lon="4.64902">
        <ele>239</ele>
        <time>2018-05-18T09:36:17Z</time>
      </trkpt>
      <trkpt lat="45.88041" lon="4.64896">
        <ele>239</ele>
        <time>2018-05-18T09:36:21Z</time>
      </trkpt>
      <trkpt lat="45.88043" lon="4.64894">
        <ele>239</ele>
        <time>2018-05-18T09:36:22Z</time>
      </trkpt>
      <trkpt lat="45.88049" lon="4.64887">
        <ele>239</ele>
        <time>2018-05-18T09:36:26Z</time>
      </trkpt>
      <trkpt lat="45.8805" lon="4.64886">
        <ele>239</ele>
        <time>2018-05-18T09:36:27Z</time>
      </trkpt>
      <trkpt lat="45.88058" lon="4.6488">
        <ele>240</ele>
        <time>2018-05-18T09:36:31Z</time>
      </trkpt>
      <trkpt lat="45.8806" lon="4.64878">
        <ele>240</ele>
        <time>2018-05-18T09:36:32Z</time>
      </trkpt>
      <trkpt lat="45.88068" lon="4.64874">
        <ele>240</ele>
        <time>2018-05-18T09:36:36Z</time>
      </trkpt>
      <trkpt lat="45.8807" lon="4.64874">
        <ele>240</ele>
        <time>2018-05-18T09:36:37Z</time>
      </trkpt>
      <trkpt lat="45.88078" lon="4.64869">
        <ele>239</ele>
        <time>2018-05-18T09:36:42Z</time>
      </trkpt>
      <trkpt lat="45.8808" lon="4.64868">
        <ele>239</ele>
        <time>2018-05-18T09:36:43Z</time>
      </trkpt>
      <trkpt lat="45.88087" lon="4.64864">
        <ele>246</ele>
        <time>2018-05-18T09:36:47Z</time>
      </trkpt>
      <trkpt lat="45.88089" lon="4.64863">
        <ele>246</ele>
        <time>2018-05-18T09:36:48Z</time>
      </trkpt>
      <trkpt lat="45.88096" lon="4.64861">
        <ele>246</ele>
        <time>2018-05-18T09:36:52Z</time>
      </trkpt>
      <trkpt lat="45.88098" lon="4.6486">
        <ele>246</ele>
        <time>2018-05-18T09:36:53Z</time>
      </trkpt>
      <trkpt lat="45.88106" lon="4.64858">
        <ele>246</ele>
        <time>2018-05-18T09:36:57Z</time>
      </trkpt>
      <trkpt lat="45.88108" lon="4.64857">
        <ele>246</ele>
        <time>2018-05-18T09:36:58Z</time>
      </trkpt>
      <trkpt lat="45.88115" lon="4.64856">
        <ele>247</ele>
        <time>2018-05-18T09:37:01Z</time>
      </trkpt>
      <trkpt lat="45.88117" lon="4.64854">
        <ele>247</ele>
        <time>2018-05-18T09:37:02Z</time>
      </trkpt>
      <trkpt lat="45.88125" lon="4.64851">
        <ele>247</ele>
        <time>2018-05-18T09:37:05Z</time>
      </trkpt>
      <trkpt lat="45.88127" lon="4.6485">
        <ele>247</ele>
        <time>2018-05-18T09:37:06Z</time>
      </trkpt>
      <trkpt lat="45.88135" lon="4.64849">
        <ele>247</ele>
        <time>2018-05-18T09:37:10Z</time>
      </trkpt>
      <trkpt lat="45.88137" lon="4.64849">
        <ele>248</ele>
        <time>2018-05-18T09:37:11Z</time>
      </trkpt>
      <trkpt lat="45.88146" lon="4.64846">
        <ele>247</ele>
        <time>2018-05-18T09:37:15Z</time>
      </trkpt>
      <trkpt lat="45.88148" lon="4.64845">
        <ele>247</ele>
        <time>2018-05-18T09:37:16Z</time>
      </trkpt>
      <trkpt lat="45.88156" lon="4.64844">
        <ele>247</ele>
        <time>2018-05-18T09:37:20Z</time>
      </trkpt>
      <trkpt lat="45.88158" lon="4.64843">
        <ele>247</ele>
        <time>2018-05-18T09:37:21Z</time>
      </trkpt>
      <trkpt lat="45.88167" lon="4.64841">
        <ele>246</ele>
        <time>2018-05-18T09:37:25Z</time>
      </trkpt>
      <trkpt lat="45.88169" lon="4.64841">
        <ele>249</ele>
        <time>2018-05-18T09:37:26Z</time>
      </trkpt>
      <trkpt lat="45.88177" lon="4.6484">
        <ele>250</ele>
        <time>2018-05-18T09:37:30Z</time>
      </trkpt>
      <trkpt lat="45.88179" lon="4.64839">
        <ele>250</ele>
        <time>2018-05-18T09:37:31Z</time>
      </trkpt>
      <trkpt lat="45.88186" lon="4.64837">
        <ele>252</ele>
        <time>2018-05-18T09:37:35Z</time>
      </trkpt>
      <trkpt lat="45.88188" lon="4.64837">
        <ele>253</ele>
        <time>2018-05-18T09:37:36Z</time>
      </trkpt>
      <trkpt lat="45.88196" lon="4.64835">
        <ele>254</ele>
        <time>2018-05-18T09:37:40Z</time>
      </trkpt>
      <trkpt lat="45.88198" lon="4.64835">
        <ele>254</ele>
        <time>2018-05-18T09:37:41Z</time>
      </trkpt>
      <trkpt lat="45.88206" lon="4.64833">
        <ele>255</ele>
        <time>2018-05-18T09:37:45Z</time>
      </trkpt>
      <trkpt lat="45.88208" lon="4.64834">
        <ele>255</ele>
        <time>2018-05-18T09:37:46Z</time>
      </trkpt>
      <trkpt lat="45.88216" lon="4.64832">
        <ele>247</ele>
        <time>2018-05-18T09:37:50Z</time>
      </trkpt>
      <trkpt lat="45.88218" lon="4.64831">
        <ele>247</ele>
        <time>2018-05-18T09:37:51Z</time>
      </trkpt>
      <trkpt lat="45.88226" lon="4.64829">
        <ele>249</ele>
        <time>2018-05-18T09:37:55Z</time>
      </trkpt>
      <trkpt lat="45.88227" lon="4.64828">
        <ele>249</ele>
        <time>2018-05-18T09:37:56Z</time>
      </trkpt>
      <trkpt lat="45.88235" lon="4.64826">
        <ele>250</ele>
        <time>2018-05-18T09:38:00Z</time>
      </trkpt>
      <trkpt lat="45.88237" lon="4.64826">
        <ele>251</ele>
        <time>2018-05-18T09:38:01Z</time>
      </trkpt>
      <trkpt lat="45.88244" lon="4.64825">
        <ele>252</ele>
        <time>2018-05-18T09:38:05Z</time>
      </trkpt>
      <trkpt lat="45.88246" lon="4.64824">
        <ele>252</ele>
        <time>2018-05-18T09:38:06Z</time>
      </trkpt>
      <trkpt lat="45.88255" lon="4.64822">
        <ele>257</ele>
        <time>2018-05-18T09:38:11Z</time>
      </trkpt>
      <trkpt lat="45.88257" lon="4.64821">
        <ele>257</ele>
        <time>2018-05-18T09:38:12Z</time>
      </trkpt>
      <trkpt lat="45.88265" lon="4.64818">
        <ele>257</ele>
        <time>2018-05-18T09:38:17Z</time>
      </trkpt>
      <trkpt lat="45.88266" lon="4.64817">
        <ele>257</ele>
        <time>2018-05-18T09:38:18Z</time>
      </trkpt>
      <trkpt lat="45.88274" lon="4.64813">
        <ele>257</ele>
        <time>2018-05-18T09:38:22Z</time>
      </trkpt>
      <trkpt lat="45.88275" lon="4.64812">
        <ele>258</ele>
        <time>2018-05-18T09:38:23Z</time>
      </trkpt>
      <trkpt lat="45.88282" lon="4.6481">
        <ele>258</ele>
        <time>2018-05-18T09:38:27Z</time>
      </trkpt>
      <trkpt lat="45.88284" lon="4.6481">
        <ele>258</ele>
        <time>2018-05-18T09:38:28Z</time>
      </trkpt>
      <trkpt lat="45.88292" lon="4.64808">
        <ele>259</ele>
        <time>2018-05-18T09:38:32Z</time>
      </trkpt>
      <trkpt lat="45.88293" lon="4.64808">
        <ele>259</ele>
        <time>2018-05-18T09:38:33Z</time>
      </trkpt>
      <trkpt lat="45.883" lon="4.64807">
        <ele>260</ele>
        <time>2018-05-18T09:38:37Z</time>
      </trkpt>
      <trkpt lat="45.88302" lon="4.64806">
        <ele>260</ele>
        <time>2018-05-18T09:38:38Z</time>
      </trkpt>
      <trkpt lat="45.8831" lon="4.64801">
        <ele>260</ele>
        <time>2018-05-18T09:38:42Z</time>
      </trkpt>
      <trkpt lat="45.88312" lon="4.64799">
        <ele>260</ele>
        <time>2018-05-18T09:38:43Z</time>
      </trkpt>
      <trkpt lat="45.88319" lon="4.64796">
        <ele>260</ele>
        <time>2018-05-18T09:38:47Z</time>
      </trkpt>
      <trkpt lat="45.88321" lon="4.64795">
        <ele>260</ele>
        <time>2018-05-18T09:38:48Z</time>
      </trkpt>
      <trkpt lat="45.88328" lon="4.64792">
        <ele>260</ele>
        <time>2018-05-18T09:38:52Z</time>
      </trkpt>
      <trkpt lat="45.8833" lon="4.64791">
        <ele>260</ele>
        <time>2018-05-18T09:38:53Z</time>
      </trkpt>
      <trkpt lat="45.88338" lon="4.64788">
        <ele>266</ele>
        <time>2018-05-18T09:38:57Z</time>
      </trkpt>
      <trkpt lat="45.88339" lon="4.64788">
        <ele>266</ele>
        <time>2018-05-18T09:38:58Z</time>
      </trkpt>
      <trkpt lat="45.88348" lon="4.64787">
        <ele>266</ele>
        <time>2018-05-18T09:39:02Z</time>
      </trkpt>
      <trkpt lat="45.8835" lon="4.64787">
        <ele>266</ele>
        <time>2018-05-18T09:39:03Z</time>
      </trkpt>
      <trkpt lat="45.88358" lon="4.64786">
        <ele>266</ele>
        <time>2018-05-18T09:39:07Z</time>
      </trkpt>
      <trkpt lat="45.8836" lon="4.64786">
        <ele>266</ele>
        <time>2018-05-18T09:39:08Z</time>
      </trkpt>
      <trkpt lat="45.88367" lon="4.64783">
        <ele>266</ele>
        <time>2018-05-18T09:39:12Z</time>
      </trkpt>
      <trkpt lat="45.88369" lon="4.64782">
        <ele>266</ele>
        <time>2018-05-18T09:39:13Z</time>
      </trkpt>
      <trkpt lat="45.88378" lon="4.64784">
        <ele>267</ele>
        <time>2018-05-18T09:39:18Z</time>
      </trkpt>
      <trkpt lat="45.8838" lon="4.64784">
        <ele>267</ele>
        <time>2018-05-18T09:39:19Z</time>
      </trkpt>
      <trkpt lat="45.88388" lon="4.64784">
        <ele>267</ele>
        <time>2018-05-18T09:39:24Z</time>
      </trkpt>
      <trkpt lat="45.8839" lon="4.64783">
        <ele>267</ele>
        <time>2018-05-18T09:39:25Z</time>
      </trkpt>
      <trkpt lat="45.88398" lon="4.64783">
        <ele>267</ele>
        <time>2018-05-18T09:39:31Z</time>
      </trkpt>
      <trkpt lat="45.884" lon="4.64783">
        <ele>267</ele>
        <time>2018-05-18T09:39:32Z</time>
      </trkpt>
      <trkpt lat="45.88408" lon="4.64783">
        <ele>267</ele>
        <time>2018-05-18T09:39:36Z</time>
      </trkpt>
      <trkpt lat="45.88409" lon="4.64782">
        <ele>267</ele>
        <time>2018-05-18T09:39:37Z</time>
      </trkpt>
      <trkpt lat="45.88418" lon="4.64782">
        <ele>270</ele>
        <time>2018-05-18T09:39:41Z</time>
      </trkpt>
      <trkpt lat="45.8842" lon="4.64782">
        <ele>270</ele>
        <time>2018-05-18T09:39:42Z</time>
      </trkpt>
      <trkpt lat="45.88429" lon="4.6478">
        <ele>270</ele>
        <time>2018-05-18T09:39:47Z</time>
      </trkpt>
      <trkpt lat="45.88431" lon="4.6478">
        <ele>270</ele>
        <time>2018-05-18T09:39:48Z</time>
      </trkpt>
      <trkpt lat="45.88439" lon="4.64777">
        <ele>270</ele>
        <time>2018-05-18T09:39:53Z</time>
      </trkpt>
      <trkpt lat="45.8844" lon="4.64777">
        <ele>270</ele>
        <time>2018-05-18T09:39:54Z</time>
      </trkpt>
      <trkpt lat="45.88449" lon="4.64777">
        <ele>271</ele>
        <time>2018-05-18T09:39:59Z</time>
      </trkpt>
      <trkpt lat="45.88451" lon="4.64777">
        <ele>271</ele>
        <time>2018-05-18T09:40:00Z</time>
      </trkpt>
      <trkpt lat="45.88458" lon="4.64773">
        <ele>271</ele>
        <time>2018-05-18T09:40:04Z</time>
      </trkpt>
      <trkpt lat="45.8846" lon="4.64772">
        <ele>271</ele>
        <time>2018-05-18T09:40:05Z</time>
      </trkpt>
      <trkpt lat="45.88467" lon="4.6477">
        <ele>271</ele>
        <time>2018-05-18T09:40:08Z</time>
      </trkpt>
      <trkpt lat="45.88469" lon="4.64769">
        <ele>271</ele>
        <time>2018-05-18T09:40:09Z</time>
      </trkpt>
      <trkpt lat="45.88476" lon="4.64768">
        <ele>270</ele>
        <time>2018-05-18T09:40:12Z</time>
      </trkpt>
      <trkpt lat="45.88478" lon="4.64768">
        <ele>270</ele>
        <time>2018-05-18T09:40:13Z</time>
      </trkpt>
      <trkpt lat="45.88485" lon="4.64768">
        <ele>270</ele>
        <time>2018-05-18T09:40:16Z</time>
      </trkpt>
      <trkpt lat="45.88487" lon="4.64768">
        <ele>270</ele>
        <time>2018-05-18T09:40:17Z</time>
      </trkpt>
      <trkpt lat="45.88495" lon="4.64768">
        <ele>270</ele>
        <time>2018-05-18T09:40:21Z</time>
      </trkpt>
      <trkpt lat="45.88497" lon="4.64768">
        <ele>270</ele>
        <time>2018-05-18T09:40:22Z</time>
      </trkpt>
      <trkpt lat="45.88505" lon="4.64768">
        <ele>270</ele>
        <time>2018-05-18T09:40:26Z</time>
      </trkpt>
      <trkpt lat="45.88507" lon="4.64768">
        <ele>270</ele>
        <time>2018-05-18T09:40:27Z</time>
      </trkpt>
      <trkpt lat="45.88515" lon="4.6477">
        <ele>270</ele>
        <time>2018-05-18T09:40:31Z</time>
      </trkpt>
      <trkpt lat="45.88516" lon="4.64771">
        <ele>270</ele>
        <time>2018-05-18T09:40:32Z</time>
      </trkpt>
      <trkpt lat="45.88523" lon="4.64775">
        <ele>271</ele>
        <time>2018-05-18T09:40:36Z</time>
      </trkpt>
      <trkpt lat="45.88525" lon="4.64777">
        <ele>271</ele>
        <time>2018-05-18T09:40:37Z</time>
      </trkpt>
      <trkpt lat="45.88533" lon="4.64782">
        <ele>271</ele>
        <time>2018-05-18T09:40:41Z</time>
      </trkpt>
      <trkpt lat="45.88535" lon="4.64783">
        <ele>271</ele>
        <time>2018-05-18T09:40:42Z</time>
      </trkpt>
      <trkpt lat="45.88542" lon="4.6479">
        <ele>272</ele>
        <time>2018-05-18T09:40:47Z</time>
      </trkpt>
      <trkpt lat="45.88543" lon="4.64792">
        <ele>272</ele>
        <time>2018-05-18T09:40:48Z</time>
      </trkpt>
      <trkpt lat="45.88547" lon="4.64802">
        <ele>272</ele>
        <time>2018-05-18T09:40:52Z</time>
      </trkpt>
      <trkpt lat="45.88548" lon="4.64804">
        <ele>272</ele>
        <time>2018-05-18T09:40:53Z</time>
      </trkpt>
      <trkpt lat="45.8855" lon="4.64815">
        <ele>273</ele>
        <time>2018-05-18T09:40:57Z</time>
      </trkpt>
      <trkpt lat="45.8855" lon="4.64817">
        <ele>273</ele>
        <time>2018-05-18T09:40:58Z</time>
      </trkpt>
      <trkpt lat="45.8855" lon="4.64828">
        <ele>273</ele>
        <time>2018-05-18T09:41:02Z</time>
      </trkpt>
      <trkpt lat="45.8855" lon="4.6483">
        <ele>273</ele>
        <time>2018-05-18T09:41:03Z</time>
      </trkpt>
      <trkpt lat="45.8855" lon="4.64841">
        <ele>276</ele>
        <time>2018-05-18T09:41:07Z</time>
      </trkpt>
      <trkpt lat="45.8855" lon="4.64844">
        <ele>276</ele>
        <time>2018-05-18T09:41:08Z</time>
      </trkpt>
      <trkpt lat="45.8855" lon="4.64854">
        <ele>276</ele>
        <time>2018-05-18T09:41:12Z</time>
      </trkpt>
      <trkpt lat="45.8855" lon="4.64856">
        <ele>276</ele>
        <time>2018-05-18T09:41:13Z</time>
      </trkpt>
      <trkpt lat="45.88548" lon="4.64868">
        <ele>277</ele>
        <time>2018-05-18T09:41:18Z</time>
      </trkpt>
      <trkpt lat="45.88548" lon="4.64871">
        <ele>277</ele>
        <time>2018-05-18T09:41:19Z</time>
      </trkpt>
      <trkpt lat="45.88545" lon="4.64882">
        <ele>277</ele>
        <time>2018-05-18T09:41:24Z</time>
      </trkpt>
      <trkpt lat="45.88544" lon="4.64885">
        <ele>277</ele>
        <time>2018-05-18T09:41:25Z</time>
      </trkpt>
      <trkpt lat="45.88541" lon="4.64895">
        <ele>277</ele>
        <time>2018-05-18T09:41:29Z</time>
      </trkpt>
      <trkpt lat="45.88541" lon="4.64897">
        <ele>277</ele>
        <time>2018-05-18T09:41:30Z</time>
      </trkpt>
      <trkpt lat="45.88541" lon="4.64908">
        <ele>278</ele>
        <time>2018-05-18T09:41:34Z</time>
      </trkpt>
      <trkpt lat="45.8854" lon="4.6491">
        <ele>278</ele>
        <time>2018-05-18T09:41:35Z</time>
      </trkpt>
      <trkpt lat="45.88539" lon="4.64921">
        <ele>280</ele>
        <time>2018-05-18T09:41:39Z</time>
      </trkpt>
      <trkpt lat="45.88538" lon="4.64923">
        <ele>280</ele>
        <time>2018-05-18T09:41:40Z</time>
      </trkpt>
      <trkpt lat="45.88536" lon="4.64935">
        <ele>280</ele>
        <time>2018-05-18T09:41:45Z</time>
      </trkpt>
      <trkpt lat="45.88536" lon="4.64938">
        <ele>280</ele>
        <time>2018-05-18T09:41:46Z</time>
      </trkpt>
      <trkpt lat="45.88536" lon="4.64949">
        <ele>281</ele>
        <time>2018-05-18T09:41:50Z</time>
      </trkpt>
      <trkpt lat="45.88535" lon="4.64952">
        <ele>281</ele>
        <time>2018-05-18T09:41:51Z</time>
      </trkpt>
      <trkpt lat="45.88533" lon="4.64962">
        <ele>281</ele>
        <time>2018-05-18T09:41:55Z</time>
      </trkpt>
      <trkpt lat="45.88532" lon="4.64965">
        <ele>281</ele>
        <time>2018-05-18T09:41:56Z</time>
      </trkpt>
      <trkpt lat="45.88531" lon="4.64975">
        <ele>282</ele>
        <time>2018-05-18T09:42:00Z</time>
      </trkpt>
      <trkpt lat="45.88531" lon="4.64978">
        <ele>282</ele>
        <time>2018-05-18T09:42:01Z</time>
      </trkpt>
      <trkpt lat="45.88529" lon="4.64988">
        <ele>283</ele>
        <time>2018-05-18T09:42:05Z</time>
      </trkpt>
      <trkpt lat="45.88528" lon="4.64991">
        <ele>283</ele>
        <time>2018-05-18T09:42:06Z</time>
      </trkpt>
      <trkpt lat="45.88527" lon="4.65001">
        <ele>285</ele>
        <time>2018-05-18T09:42:10Z</time>
      </trkpt>
      <trkpt lat="45.88526" lon="4.65004">
        <ele>285</ele>
        <time>2018-05-18T09:42:11Z</time>
      </trkpt>
      <trkpt lat="45.88525" lon="4.65015">
        <ele>285</ele>
        <time>2018-05-18T09:42:15Z</time>
      </trkpt>
      <trkpt lat="45.88524" lon="4.65018">
        <ele>285</ele>
        <time>2018-05-18T09:42:16Z</time>
      </trkpt>
      <trkpt lat="45.88522" lon="4.65028">
        <ele>285</ele>
        <time>2018-05-18T09:42:20Z</time>
      </trkpt>
      <trkpt lat="45.88521" lon="4.6503">
        <ele>285</ele>
        <time>2018-05-18T09:42:21Z</time>
      </trkpt>
      <trkpt lat="45.88518" lon="4.65041">
        <ele>285</ele>
        <time>2018-05-18T09:42:25Z</time>
      </trkpt>
      <trkpt lat="45.88518" lon="4.65043">
        <ele>285</ele>
        <time>2018-05-18T09:42:26Z</time>
      </trkpt>
      <trkpt lat="45.88515" lon="4.65054">
        <ele>286</ele>
        <time>2018-05-18T09:42:30Z</time>
      </trkpt>
      <trkpt lat="45.88514" lon="4.65057">
        <ele>286</ele>
        <time>2018-05-18T09:42:31Z</time>
      </trkpt>
      <trkpt lat="45.88511" lon="4.65068">
        <ele>287</ele>
        <time>2018-05-18T09:42:35Z</time>
      </trkpt>
      <trkpt lat="45.88511" lon="4.65071">
        <ele>287</ele>
        <time>2018-05-18T09:42:36Z</time>
      </trkpt>
      <trkpt lat="45.88507" lon="4.65081">
        <ele>289</ele>
        <time>2018-05-18T09:42:40Z</time>
      </trkpt>
      <trkpt lat="45.88505" lon="4.65084">
        <ele>289</ele>
        <time>2018-05-18T09:42:41Z</time>
      </trkpt>
      <trkpt lat="45.88501" lon="4.65093">
        <ele>289</ele>
        <time>2018-05-18T09:42:45Z</time>
      </trkpt>
      <trkpt lat="45.88499" lon="4.65094">
        <ele>291</ele>
        <time>2018-05-18T09:42:46Z</time>
      </trkpt>
      <trkpt lat="45.88494" lon="4.65102">
        <ele>292</ele>
        <time>2018-05-18T09:42:50Z</time>
      </trkpt>
      <trkpt lat="45.88492" lon="4.65104">
        <ele>292</ele>
        <time>2018-05-18T09:42:51Z</time>
      </trkpt>
      <trkpt lat="45.88487" lon="4.65113">
        <ele>293</ele>
        <time>2018-05-18T09:42:55Z</time>
      </trkpt>
      <trkpt lat="45.88486" lon="4.65115">
        <ele>293</ele>
        <time>2018-05-18T09:42:56Z</time>
      </trkpt>
      <trkpt lat="45.8848" lon="4.65124">
        <ele>293</ele>
        <time>2018-05-18T09:43:00Z</time>
      </trkpt>
      <trkpt lat="45.88478" lon="4.65126">
        <ele>293</ele>
        <time>2018-05-18T09:43:01Z</time>
      </trkpt>
      <trkpt lat="45.88473" lon="4.65135">
        <ele>294</ele>
        <time>2018-05-18T09:43:05Z</time>
      </trkpt>
      <trkpt lat="45.88471" lon="4.65137">
        <ele>294</ele>
        <time>2018-05-18T09:43:06Z</time>
      </trkpt>
      <trkpt lat="45.88464" lon="4.65143">
        <ele>294</ele>
        <time>2018-05-18T09:43:10Z</time>
      </trkpt>
      <trkpt lat="45.88462" lon="4.65145">
        <ele>294</ele>
        <time>2018-05-18T09:43:11Z</time>
      </trkpt>
      <trkpt lat="45.88456" lon="4.65152">
        <ele>295</ele>
        <time>2018-05-18T09:43:15Z</time>
      </trkpt>
      <trkpt lat="45.88454" lon="4.65154">
        <ele>295</ele>
        <time>2018-05-18T09:43:16Z</time>
      </trkpt>
      <trkpt lat="45.88447" lon="4.65161">
        <ele>295</ele>
        <time>2018-05-18T09:43:21Z</time>
      </trkpt>
      <trkpt lat="45.88446" lon="4.65162">
        <ele>295</ele>
        <time>2018-05-18T09:43:22Z</time>
      </trkpt>
      <trkpt lat="45.88438" lon="4.65168">
        <ele>297</ele>
        <time>2018-05-18T09:43:27Z</time>
      </trkpt>
      <trkpt lat="45.88437" lon="4.65169">
        <ele>297</ele>
        <time>2018-05-18T09:43:28Z</time>
      </trkpt>
      <trkpt lat="45.8843" lon="4.65177">
        <ele>298</ele>
        <time>2018-05-18T09:43:33Z</time>
      </trkpt>
      <trkpt lat="45.88428" lon="4.65178">
        <ele>298</ele>
        <time>2018-05-18T09:43:34Z</time>
      </trkpt>
      <trkpt lat="45.88421" lon="4.65186">
        <ele>298</ele>
        <time>2018-05-18T09:43:39Z</time>
      </trkpt>
      <trkpt lat="45.8842" lon="4.65187">
        <ele>298</ele>
        <time>2018-05-18T09:43:40Z</time>
      </trkpt>
      <trkpt lat="45.88413" lon="4.65193">
        <ele>299</ele>
        <time>2018-05-18T09:43:44Z</time>
      </trkpt>
      <trkpt lat="45.88411" lon="4.65194">
        <ele>299</ele>
        <time>2018-05-18T09:43:45Z</time>
      </trkpt>
      <trkpt lat="45.88404" lon="4.652">
        <ele>299</ele>
        <time>2018-05-18T09:43:49Z</time>
      </trkpt>
      <trkpt lat="45.88403" lon="4.65202">
        <ele>300</ele>
        <time>2018-05-18T09:43:50Z</time>
      </trkpt>
      <trkpt lat="45.88396" lon="4.65207">
        <ele>300</ele>
        <time>2018-05-18T09:43:54Z</time>
      </trkpt>
      <trkpt lat="45.88394" lon="4.65209">
        <ele>300</ele>
        <time>2018-05-18T09:43:55Z</time>
      </trkpt>
      <trkpt lat="45.88388" lon="4.65216">
        <ele>300</ele>
        <time>2018-05-18T09:43:59Z</time>
      </trkpt>
      <trkpt lat="45.88386" lon="4.65218">
        <ele>300</ele>
        <time>2018-05-18T09:44:00Z</time>
      </trkpt>
      <trkpt lat="45.8838" lon="4.65226">
        <ele>300</ele>
        <time>2018-05-18T09:44:05Z</time>
      </trkpt>
      <trkpt lat="45.88379" lon="4.65228">
        <ele>300</ele>
        <time>2018-05-18T09:44:06Z</time>
      </trkpt>
      <trkpt lat="45.88372" lon="4.65236">
        <ele>300</ele>
        <time>2018-05-18T09:44:10Z</time>
      </trkpt>
      <trkpt lat="45.8837" lon="4.65238">
        <ele>300</ele>
        <time>2018-05-18T09:44:11Z</time>
      </trkpt>
      <trkpt lat="45.88364" lon="4.65246">
        <ele>300</ele>
        <time>2018-05-18T09:44:15Z</time>
      </trkpt>
      <trkpt lat="45.88362" lon="4.65248">
        <ele>300</ele>
        <time>2018-05-18T09:44:16Z</time>
      </trkpt>
      <trkpt lat="45.88356" lon="4.65254">
        <ele>301</ele>
        <time>2018-05-18T09:44:20Z</time>
      </trkpt>
      <trkpt lat="45.88354" lon="4.65255">
        <ele>301</ele>
        <time>2018-05-18T09:44:21Z</time>
      </trkpt>
      <trkpt lat="45.88348" lon="4.65261">
        <ele>301</ele>
        <time>2018-05-18T09:44:24Z</time>
      </trkpt>
      <trkpt lat="45.88346" lon="4.65263">
        <ele>301</ele>
        <time>2018-05-18T09:44:25Z</time>
      </trkpt>
      <trkpt lat="45.88341" lon="4.65269">
        <ele>301</ele>
        <time>2018-05-18T09:44:28Z</time>
      </trkpt>
      <trkpt lat="45.88339" lon="4.65271">
        <ele>301</ele>
        <time>2018-05-18T09:44:29Z</time>
      </trkpt>
      <trkpt lat="45.88334" lon="4.65278">
        <ele>302</ele>
        <time>2018-05-18T09:44:32Z</time>
      </trkpt>
      <trkpt lat="45.88333" lon="4.6528">
        <ele>304</ele>
        <time>2018-05-18T09:44:33Z</time>
      </trkpt>
      <trkpt lat="45.88328" lon="4.65287">
        <ele>304</ele>
        <time>2018-05-18T09:44:36Z</time>
      </trkpt>
      <trkpt lat="45.88326" lon="4.65289">
        <ele>304</ele>
        <time>2018-05-18T09:44:37Z</time>
      </trkpt>
      <trkpt lat="45.8832" lon="4.65296">
        <ele>304</ele>
        <time>2018-05-18T09:44:41Z</time>
      </trkpt>
      <trkpt lat="45.88319" lon="4.65298">
        <ele>304</ele>
        <time>2018-05-18T09:44:42Z</time>
      </trkpt>
      <trkpt lat="45.88313" lon="4.65306">
        <ele>305</ele>
        <time>2018-05-18T09:44:47Z</time>
      </trkpt>
      <trkpt lat="45.88311" lon="4.65308">
        <ele>305</ele>
        <time>2018-05-18T09:44:48Z</time>
      </trkpt>
      <trkpt lat="45.88307" lon="4.65315">
        <ele>305</ele>
        <time>2018-05-18T09:44:52Z</time>
      </trkpt>
      <trkpt lat="45.88306" lon="4.65318">
        <ele>305</ele>
        <time>2018-05-18T09:44:53Z</time>
      </trkpt>
      <trkpt lat="45.88302" lon="4.65327">
        <ele>305</ele>
        <time>2018-05-18T09:44:57Z</time>
      </trkpt>
      <trkpt lat="45.88301" lon="4.6533">
        <ele>305</ele>
        <time>2018-05-18T09:44:58Z</time>
      </trkpt>
      <trkpt lat="45.88297" lon="4.65339">
        <ele>307</ele>
        <time>2018-05-18T09:45:02Z</time>
      </trkpt>
      <trkpt lat="45.88296" lon="4.65342">
        <ele>307</ele>
        <time>2018-05-18T09:45:03Z</time>
      </trkpt>
      <trkpt lat="45.88292" lon="4.65352">
        <ele>307</ele>
        <time>2018-05-18T09:45:07Z</time>
      </trkpt>
      <trkpt lat="45.88292" lon="4.65354">
        <ele>307</ele>
        <time>2018-05-18T09:45:08Z</time>
      </trkpt>
      <trkpt lat="45.88289" lon="4.65366">
        <ele>308</ele>
        <time>2018-05-18T09:45:12Z</time>
      </trkpt>
      <trkpt lat="45.88288" lon="4.65368">
        <ele>308</ele>
        <time>2018-05-18T09:45:13Z</time>
      </trkpt>
      <trkpt lat="45.88284" lon="4.65379">
        <ele>308</ele>
        <time>2018-05-18T09:45:17Z</time>
      </trkpt>
      <trkpt lat="45.88284" lon="4.65381">
        <ele>308</ele>
        <time>2018-05-18T09:45:18Z</time>
      </trkpt>
      <trkpt lat="45.88282" lon="4.65392">
        <ele>308</ele>
        <time>2018-05-18T09:45:22Z</time>
      </trkpt>
      <trkpt lat="45.88282" lon="4.65395">
        <ele>308</ele>
        <time>2018-05-18T09:45:23Z</time>
      </trkpt>
      <trkpt lat="45.88278" lon="4.65405">
        <ele>309</ele>
        <time>2018-05-18T09:45:27Z</time>
      </trkpt>
      <trkpt lat="45.88277" lon="4.65407">
        <ele>309</ele>
        <time>2018-05-18T09:45:28Z</time>
      </trkpt>
      <trkpt lat="45.88274" lon="4.65417">
        <ele>310</ele>
        <time>2018-05-18T09:45:32Z</time>
      </trkpt>
      <trkpt lat="45.88273" lon="4.6542">
        <ele>310</ele>
        <time>2018-05-18T09:45:33Z</time>
      </trkpt>
      <trkpt lat="45.88269" lon="4.6543">
        <ele>311</ele>
        <time>2018-05-18T09:45:37Z</time>
      </trkpt>
      <trkpt lat="45.88268" lon="4.65433">
        <ele>311</ele>
        <time>2018-05-18T09:45:38Z</time>
      </trkpt>
      <trkpt lat="45.88265" lon="4.65444">
        <ele>311</ele>
        <time>2018-05-18T09:45:42Z</time>
      </trkpt>
      <trkpt lat="45.88264" lon="4.65447">
        <ele>311</ele>
        <time>2018-05-18T09:45:43Z</time>
      </trkpt>
      <trkpt lat="45.88262" lon="4.65458">
        <ele>311</ele>
        <time>2018-05-18T09:45:47Z</time>
      </trkpt>
      <trkpt lat="45.88262" lon="4.6546">
        <ele>311</ele>
        <time>2018-05-18T09:45:48Z</time>
      </trkpt>
      <trkpt lat="45.88258" lon="4.6547">
        <ele>312</ele>
        <time>2018-05-18T09:45:52Z</time>
      </trkpt>
      <trkpt lat="45.88257" lon="4.65473">
        <ele>312</ele>
        <time>2018-05-18T09:45:53Z</time>
      </trkpt>
      <trkpt lat="45.88254" lon="4.65482">
        <ele>313</ele>
        <time>2018-05-18T09:45:57Z</time>
      </trkpt>
      <trkpt lat="45.88253" lon="4.65484">
        <ele>313</ele>
        <time>2018-05-18T09:45:58Z</time>
      </trkpt>
      <trkpt lat="45.88249" lon="4.65495">
        <ele>315</ele>
        <time>2018-05-18T09:46:03Z</time>
      </trkpt>
      <trkpt lat="45.88248" lon="4.65498">
        <ele>315</ele>
        <time>2018-05-18T09:46:04Z</time>
      </trkpt>
      <trkpt lat="45.88246" lon="4.65507">
        <ele>317</ele>
        <time>2018-05-18T09:46:08Z</time>
      </trkpt>
      <trkpt lat="45.88246" lon="4.6551">
        <ele>317</ele>
        <time>2018-05-18T09:46:09Z</time>
      </trkpt>
      <trkpt lat="45.88243" lon="4.6552">
        <ele>318</ele>
        <time>2018-05-18T09:46:13Z</time>
      </trkpt>
      <trkpt lat="45.88242" lon="4.65522">
        <ele>318</ele>
        <time>2018-05-18T09:46:14Z</time>
      </trkpt>
      <trkpt lat="45.88239" lon="4.65532">
        <ele>319</ele>
        <time>2018-05-18T09:46:18Z</time>
      </trkpt>
      <trkpt lat="45.88238" lon="4.65534">
        <ele>319</ele>
        <time>2018-05-18T09:46:19Z</time>
      </trkpt>
      <trkpt lat="45.88234" lon="4.65546">
        <ele>320</ele>
        <time>2018-05-18T09:46:24Z</time>
      </trkpt>
      <trkpt lat="45.88233" lon="4.65548">
        <ele>320</ele>
        <time>2018-05-18T09:46:25Z</time>
      </trkpt>
      <trkpt lat="45.88229" lon="4.6556">
        <ele>320</ele>
        <time>2018-05-18T09:46:30Z</time>
      </trkpt>
      <trkpt lat="45.88229" lon="4.65562">
        <ele>320</ele>
        <time>2018-05-18T09:46:31Z</time>
      </trkpt>
      <trkpt lat="45.88224" lon="4.65573">
        <ele>320</ele>
        <time>2018-05-18T09:46:36Z</time>
      </trkpt>
      <trkpt lat="45.88223" lon="4.65575">
        <ele>320</ele>
        <time>2018-05-18T09:46:37Z</time>
      </trkpt>
      <trkpt lat="45.88219" lon="4.65585">
        <ele>321</ele>
        <time>2018-05-18T09:46:42Z</time>
      </trkpt>
      <trkpt lat="45.88218" lon="4.65587">
        <ele>321</ele>
        <time>2018-05-18T09:46:43Z</time>
      </trkpt>
      <trkpt lat="45.88214" lon="4.65598">
        <ele>321</ele>
        <time>2018-05-18T09:46:48Z</time>
      </trkpt>
      <trkpt lat="45.88213" lon="4.656">
        <ele>321</ele>
        <time>2018-05-18T09:46:49Z</time>
      </trkpt>
      <trkpt lat="45.88211" lon="4.65612">
        <ele>321</ele>
        <time>2018-05-18T09:46:54Z</time>
      </trkpt>
      <trkpt lat="45.8821" lon="4.65614">
        <ele>321</ele>
        <time>2018-05-18T09:46:55Z</time>
      </trkpt>
      <trkpt lat="45.88205" lon="4.65624">
        <ele>321</ele>
        <time>2018-05-18T09:47:00Z</time>
      </trkpt>
      <trkpt lat="45.88204" lon="4.65626">
        <ele>321</ele>
        <time>2018-05-18T09:47:01Z</time>
      </trkpt>
      <trkpt lat="45.88201" lon="4.65638">
        <ele>321</ele>
        <time>2018-05-18T09:47:06Z</time>
      </trkpt>
      <trkpt lat="45.882" lon="4.6564">
        <ele>321</ele>
        <time>2018-05-18T09:47:07Z</time>
      </trkpt>
      <trkpt lat="45.88194" lon="4.65648">
        <ele>322</ele>
        <time>2018-05-18T09:47:11Z</time>
      </trkpt>
      <trkpt lat="45.88193" lon="4.6565">
        <ele>322</ele>
        <time>2018-05-18T09:47:12Z</time>
      </trkpt>
      <trkpt lat="45.8819" lon="4.6566">
        <ele>322</ele>
        <time>2018-05-18T09:47:16Z</time>
      </trkpt>
      <trkpt lat="45.88189" lon="4.65662">
        <ele>322</ele>
        <time>2018-05-18T09:47:17Z</time>
      </trkpt>
      <trkpt lat="45.88184" lon="4.65671">
        <ele>322</ele>
        <time>2018-05-18T09:47:21Z</time>
      </trkpt>
      <trkpt lat="45.88183" lon="4.65673">
        <ele>322</ele>
        <time>2018-05-18T09:47:22Z</time>
      </trkpt>
      <trkpt lat="45.88179" lon="4.65682">
        <ele>322</ele>
        <time>2018-05-18T09:47:27Z</time>
      </trkpt>
      <trkpt lat="45.88178" lon="4.65684">
        <ele>322</ele>
        <time>2018-05-18T09:47:28Z</time>
      </trkpt>
      <trkpt lat="45.88173" lon="4.65694">
        <ele>322</ele>
        <time>2018-05-18T09:47:33Z</time>
      </trkpt>
      <trkpt lat="45.88172" lon="4.65695">
        <ele>322</ele>
        <time>2018-05-18T09:47:34Z</time>
      </trkpt>
      <trkpt lat="45.88167" lon="4.65704">
        <ele>322</ele>
        <time>2018-05-18T09:47:39Z</time>
      </trkpt>
      <trkpt lat="45.88166" lon="4.65706">
        <ele>331</ele>
        <time>2018-05-18T09:47:40Z</time>
      </trkpt>
      <trkpt lat="45.8816" lon="4.65716">
        <ele>331</ele>
        <time>2018-05-18T09:47:45Z</time>
      </trkpt>
      <trkpt lat="45.88159" lon="4.65718">
        <ele>331</ele>
        <time>2018-05-18T09:47:46Z</time>
      </trkpt>
      <trkpt lat="45.88154" lon="4.65726">
        <ele>331</ele>
        <time>2018-05-18T09:47:50Z</time>
      </trkpt>
      <trkpt lat="45.88152" lon="4.65728">
        <ele>331</ele>
        <time>2018-05-18T09:47:51Z</time>
      </trkpt>
      <trkpt lat="45.88147" lon="4.65736">
        <ele>331</ele>
        <time>2018-05-18T09:47:55Z</time>
      </trkpt>
      <trkpt lat="45.88146" lon="4.65738">
        <ele>331</ele>
        <time>2018-05-18T09:47:56Z</time>
      </trkpt>
      <trkpt lat="45.88139" lon="4.65746">
        <ele>332</ele>
        <time>2018-05-18T09:48:00Z</time>
      </trkpt>
      <trkpt lat="45.88138" lon="4.65747">
        <ele>332</ele>
        <time>2018-05-18T09:48:01Z</time>
      </trkpt>
      <trkpt lat="45.8813" lon="4.65754">
        <ele>332</ele>
        <time>2018-05-18T09:48:06Z</time>
      </trkpt>
      <trkpt lat="45.88129" lon="4.65755">
        <ele>332</ele>
        <time>2018-05-18T09:48:07Z</time>
      </trkpt>
      <trkpt lat="45.88123" lon="4.65762">
        <ele>333</ele>
        <time>2018-05-18T09:48:11Z</time>
      </trkpt>
      <trkpt lat="45.88121" lon="4.65764">
        <ele>333</ele>
        <time>2018-05-18T09:48:12Z</time>
      </trkpt>
      <trkpt lat="45.88114" lon="4.65771">
        <ele>334</ele>
        <time>2018-05-18T09:48:16Z</time>
      </trkpt>
      <trkpt lat="45.88113" lon="4.65773">
        <ele>334</ele>
        <time>2018-05-18T09:48:17Z</time>
      </trkpt>
      <trkpt lat="45.88106" lon="4.6578">
        <ele>334</ele>
        <time>2018-05-18T09:48:21Z</time>
      </trkpt>
      <trkpt lat="45.88104" lon="4.65781">
        <ele>334</ele>
        <time>2018-05-18T09:48:22Z</time>
      </trkpt>
      <trkpt lat="45.88098" lon="4.65788">
        <ele>334</ele>
        <time>2018-05-18T09:48:26Z</time>
      </trkpt>
      <trkpt lat="45.88097" lon="4.65789">
        <ele>334</ele>
        <time>2018-05-18T09:48:27Z</time>
      </trkpt>
      <trkpt lat="45.8809" lon="4.65797">
        <ele>334</ele>
        <time>2018-05-18T09:48:31Z</time>
      </trkpt>
      <trkpt lat="45.88088" lon="4.65799">
        <ele>334</ele>
        <time>2018-05-18T09:48:32Z</time>
      </trkpt>
      <trkpt lat="45.88081" lon="4.65805">
        <ele>341</ele>
        <time>2018-05-18T09:48:36Z</time>
      </trkpt>
      <trkpt lat="45.8808" lon="4.65806">
        <ele>341</ele>
        <time>2018-05-18T09:48:37Z</time>
      </trkpt>
      <trkpt lat="45.88072" lon="4.65813">
        <ele>340</ele>
        <time>2018-05-18T09:48:43Z</time>
      </trkpt>
      <trkpt lat="45.88071" lon="4.65814">
        <ele>340</ele>
        <time>2018-05-18T09:48:44Z</time>
      </trkpt>
      <trkpt lat="45.88063" lon="4.6582">
        <ele>340</ele>
        <time>2018-05-18T09:48:49Z</time>
      </trkpt>
      <trkpt lat="45.88061" lon="4.65821">
        <ele>341</ele>
        <time>2018-05-18T09:48:50Z</time>
      </trkpt>
      <trkpt lat="45.88053" lon="4.65825">
        <ele>341</ele>
        <time>2018-05-18T09:48:54Z</time>
      </trkpt>
      <trkpt lat="45.8805" lon="4.65826">
        <ele>342</ele>
        <time>2018-05-18T09:48:55Z</time>
      </trkpt>
      <trkpt lat="45.88044" lon="4.6583">
        <ele>342</ele>
        <time>2018-05-18T09:48:58Z</time>
      </trkpt>
      <trkpt lat="45.88042" lon="4.65832">
        <ele>342</ele>
        <time>2018-05-18T09:48:59Z</time>
      </trkpt>
      <trkpt lat="45.88035" lon="4.65837">
        <ele>338</ele>
        <time>2018-05-18T09:49:02Z</time>
      </trkpt>
      <trkpt lat="45.88032" lon="4.65838">
        <ele>338</ele>
        <time>2018-05-18T09:49:03Z</time>
      </trkpt>
      <trkpt lat="45.88024" lon="4.65843">
        <ele>339</ele>
        <time>2018-05-18T09:49:06Z</time>
      </trkpt>
      <trkpt lat="45.88022" lon="4.65845">
        <ele>339</ele>
        <time>2018-05-18T09:49:07Z</time>
      </trkpt>
      <trkpt lat="45.88016" lon="4.65848">
        <ele>340</ele>
        <time>2018-05-18T09:49:09Z</time>
      </trkpt>
      <trkpt lat="45.88013" lon="4.6585">
        <ele>340</ele>
        <time>2018-05-18T09:49:10Z</time>
      </trkpt>
      <trkpt lat="45.88007" lon="4.65854">
        <ele>340</ele>
        <time>2018-05-18T09:49:12Z</time>
      </trkpt>
      <trkpt lat="45.88004" lon="4.65856">
        <ele>339</ele>
        <time>2018-05-18T09:49:13Z</time>
      </trkpt>
      <trkpt lat="45.87999" lon="4.65861">
        <ele>344</ele>
        <time>2018-05-18T09:49:15Z</time>
      </trkpt>
      <trkpt lat="45.87996" lon="4.65863">
        <ele>344</ele>
        <time>2018-05-18T09:49:16Z</time>
      </trkpt>
      <trkpt lat="45.8799" lon="4.65868">
        <ele>343</ele>
        <time>2018-05-18T09:49:18Z</time>
      </trkpt>
      <trkpt lat="45.87988" lon="4.65871">
        <ele>343</ele>
        <time>2018-05-18T09:49:19Z</time>
      </trkpt>
      <trkpt lat="45.87983" lon="4.65877">
        <ele>343</ele>
        <time>2018-05-18T09:49:21Z</time>
      </trkpt>
      <trkpt lat="45.87981" lon="4.6588">
        <ele>343</ele>
        <time>2018-05-18T09:49:22Z</time>
      </trkpt>
      <trkpt lat="45.87975" lon="4.65887">
        <ele>343</ele>
        <time>2018-05-18T09:49:24Z</time>
      </trkpt>
      <trkpt lat="45.87973" lon="4.6589">
        <ele>343</ele>
        <time>2018-05-18T09:49:25Z</time>
      </trkpt>
      <trkpt lat="45.87968" lon="4.65896">
        <ele>343</ele>
        <time>2018-05-18T09:49:27Z</time>
      </trkpt>
      <trkpt lat="45.87966" lon="4.65898">
        <ele>343</ele>
        <time>2018-05-18T09:49:28Z</time>
      </trkpt>
      <trkpt lat="45.8796" lon="4.65905">
        <ele>343</ele>
        <time>2018-05-18T09:49:30Z</time>
      </trkpt>
      <trkpt lat="45.87958" lon="4.65908">
        <ele>343</ele>
        <time>2018-05-18T09:49:31Z</time>
      </trkpt>
      <trkpt lat="45.87953" lon="4.65914">
        <ele>343</ele>
        <time>2018-05-18T09:49:33Z</time>
      </trkpt>
      <trkpt lat="45.87951" lon="4.65917">
        <ele>341</ele>
        <time>2018-05-18T09:49:34Z</time>
      </trkpt>
      <trkpt lat="45.87946" lon="4.65924">
        <ele>341</ele>
        <time>2018-05-18T09:49:36Z</time>
      </trkpt>
      <trkpt lat="45.87944" lon="4.65927">
        <ele>341</ele>
        <time>2018-05-18T09:49:37Z</time>
      </trkpt>
      <trkpt lat="45.87938" lon="4.65936">
        <ele>341</ele>
        <time>2018-05-18T09:49:40Z</time>
      </trkpt>
      <trkpt lat="45.87937" lon="4.65939">
        <ele>341</ele>
        <time>2018-05-18T09:49:41Z</time>
      </trkpt>
      <trkpt lat="45.87932" lon="4.65947">
        <ele>341</ele>
        <time>2018-05-18T09:49:44Z</time>
      </trkpt>
      <trkpt lat="45.8793" lon="4.6595">
        <ele>341</ele>
        <time>2018-05-18T09:49:45Z</time>
      </trkpt>
      <trkpt lat="45.87926" lon="4.6596">
        <ele>341</ele>
        <time>2018-05-18T09:49:49Z</time>
      </trkpt>
      <trkpt lat="45.87926" lon="4.65963">
        <ele>341</ele>
        <time>2018-05-18T09:49:50Z</time>
      </trkpt>
      <trkpt lat="45.87923" lon="4.65974">
        <ele>341</ele>
        <time>2018-05-18T09:49:54Z</time>
      </trkpt>
      <trkpt lat="45.87922" lon="4.65977">
        <ele>341</ele>
        <time>2018-05-18T09:49:55Z</time>
      </trkpt>
      <trkpt lat="45.87921" lon="4.65989">
        <ele>342</ele>
        <time>2018-05-18T09:49:59Z</time>
      </trkpt>
      <trkpt lat="45.87921" lon="4.65992">
        <ele>342</ele>
        <time>2018-05-18T09:50:00Z</time>
      </trkpt>
      <trkpt lat="45.87921" lon="4.66002">
        <ele>343</ele>
        <time>2018-05-18T09:50:03Z</time>
      </trkpt>
      <trkpt lat="45.8792" lon="4.66006">
        <ele>343</ele>
        <time>2018-05-18T09:50:04Z</time>
      </trkpt>
      <trkpt lat="45.8792" lon="4.66016">
        <ele>342</ele>
        <time>2018-05-18T09:50:07Z</time>
      </trkpt>
      <trkpt lat="45.8792" lon="4.66019">
        <ele>342</ele>
        <time>2018-05-18T09:50:08Z</time>
      </trkpt>
      <trkpt lat="45.87921" lon="4.66029">
        <ele>342</ele>
        <time>2018-05-18T09:50:11Z</time>
      </trkpt>
      <trkpt lat="45.87921" lon="4.66033">
        <ele>342</ele>
        <time>2018-05-18T09:50:12Z</time>
      </trkpt>
      <trkpt lat="45.87922" lon="4.66044">
        <ele>342</ele>
        <time>2018-05-18T09:50:15Z</time>
      </trkpt>
      <trkpt lat="45.87922" lon="4.66047">
        <ele>342</ele>
        <time>2018-05-18T09:50:16Z</time>
      </trkpt>
      <trkpt lat="45.87923" lon="4.66058">
        <ele>342</ele>
        <time>2018-05-18T09:50:19Z</time>
      </trkpt>
      <trkpt lat="45.87924" lon="4.66061">
        <ele>342</ele>
        <time>2018-05-18T09:50:20Z</time>
      </trkpt>
      <trkpt lat="45.87926" lon="4.66073">
        <ele>343</ele>
        <time>2018-05-18T09:50:24Z</time>
      </trkpt>
      <trkpt lat="45.87926" lon="4.66077">
        <ele>343</ele>
        <time>2018-05-18T09:50:25Z</time>
      </trkpt>
      <trkpt lat="45.87927" lon="4.66087">
        <ele>345</ele>
        <time>2018-05-18T09:50:28Z</time>
      </trkpt>
      <trkpt lat="45.87927" lon="4.66091">
        <ele>345</ele>
        <time>2018-05-18T09:50:29Z</time>
      </trkpt>
      <trkpt lat="45.87927" lon="4.66103">
        <ele>346</ele>
        <time>2018-05-18T09:50:33Z</time>
      </trkpt>
      <trkpt lat="45.87928" lon="4.66106">
        <ele>346</ele>
        <time>2018-05-18T09:50:34Z</time>
      </trkpt>
      <trkpt lat="45.87927" lon="4.66118">
        <ele>347</ele>
        <time>2018-05-18T09:50:38Z</time>
      </trkpt>
      <trkpt lat="45.87927" lon="4.66121">
        <ele>348</ele>
        <time>2018-05-18T09:50:39Z</time>
      </trkpt>
      <trkpt lat="45.87926" lon="4.66133">
        <ele>348</ele>
        <time>2018-05-18T09:50:44Z</time>
      </trkpt>
      <trkpt lat="45.87927" lon="4.66135">
        <ele>349</ele>
        <time>2018-05-18T09:50:45Z</time>
      </trkpt>
      <trkpt lat="45.87934" lon="4.66139">
        <ele>349</ele>
        <time>2018-05-18T09:50:48Z</time>
      </trkpt>
      <trkpt lat="45.87936" lon="4.6614">
        <ele>349</ele>
        <time>2018-05-18T09:50:49Z</time>
      </trkpt>
      <trkpt lat="45.87945" lon="4.6614">
        <ele>349</ele>
        <time>2018-05-18T09:50:52Z</time>
      </trkpt>
      <trkpt lat="45.87948" lon="4.6614">
        <ele>348</ele>
        <time>2018-05-18T09:50:53Z</time>
      </trkpt>
      <trkpt lat="45.87956" lon="4.6614">
        <ele>348</ele>
        <time>2018-05-18T09:50:56Z</time>
      </trkpt>
      <trkpt lat="45.87959" lon="4.66141">
        <ele>348</ele>
        <time>2018-05-18T09:50:57Z</time>
      </trkpt>
      <trkpt lat="45.87965" lon="4.66141">
        <ele>348</ele>
        <time>2018-05-18T09:50:59Z</time>
      </trkpt>
      <trkpt lat="45.87968" lon="4.66141">
        <ele>348</ele>
        <time>2018-05-18T09:51:00Z</time>
      </trkpt>
      <trkpt lat="45.87974" lon="4.66141">
        <ele>348</ele>
        <time>2018-05-18T09:51:02Z</time>
      </trkpt>
      <trkpt lat="45.87984" lon="4.66141">
        <ele>348</ele>
        <time>2018-05-18T09:51:03Z</time>
      </trkpt>
      <trkpt lat="45.87992" lon="4.66141">
        <ele>348</ele>
        <time>2018-05-18T09:51:05Z</time>
      </trkpt>
      <trkpt lat="45.87994" lon="4.66141">
        <ele>348</ele>
        <time>2018-05-18T09:51:06Z</time>
      </trkpt>
      <trkpt lat="45.88002" lon="4.66141">
        <ele>348</ele>
        <time>2018-05-18T09:51:09Z</time>
      </trkpt>
      <trkpt lat="45.88005" lon="4.66141">
        <ele>348</ele>
        <time>2018-05-18T09:51:10Z</time>
      </trkpt>
      <trkpt lat="45.88011" lon="4.66141">
        <ele>348</ele>
        <time>2018-05-18T09:51:12Z</time>
      </trkpt>
      <trkpt lat="45.88014" lon="4.6614">
        <ele>348</ele>
        <time>2018-05-18T09:51:13Z</time>
      </trkpt>
      <trkpt lat="45.88022" lon="4.6614">
        <ele>348</ele>
        <time>2018-05-18T09:51:16Z</time>
      </trkpt>
      <trkpt lat="45.88024" lon="4.6614">
        <ele>348</ele>
        <time>2018-05-18T09:51:17Z</time>
      </trkpt>
      <trkpt lat="45.88032" lon="4.66139">
        <ele>348</ele>
        <time>2018-05-18T09:51:20Z</time>
      </trkpt>
      <trkpt lat="45.88035" lon="4.66138">
        <ele>347</ele>
        <time>2018-05-18T09:51:21Z</time>
      </trkpt>
      <trkpt lat="45.88038" lon="4.66138">
        <ele>347</ele>
        <time>2018-05-18T09:51:22Z</time>
      </trkpt>
      <trkpt lat="45.88047" lon="4.66138">
        <ele>348</ele>
        <time>2018-05-18T09:51:23Z</time>
      </trkpt>
      <trkpt lat="45.88055" lon="4.66139">
        <ele>348</ele>
        <time>2018-05-18T09:51:25Z</time>
      </trkpt>
      <trkpt lat="45.88059" lon="4.66139">
        <ele>348</ele>
        <time>2018-05-18T09:51:26Z</time>
      </trkpt>
      <trkpt lat="45.88067" lon="4.66138">
        <ele>348</ele>
        <time>2018-05-18T09:51:29Z</time>
      </trkpt>
      <trkpt lat="45.88069" lon="4.66139">
        <ele>348</ele>
        <time>2018-05-18T09:51:30Z</time>
      </trkpt>
      <trkpt lat="45.88077" lon="4.66139">
        <ele>348</ele>
        <time>2018-05-18T09:51:33Z</time>
      </trkpt>
      <trkpt lat="45.88087" lon="4.66138">
        <ele>349</ele>
        <time>2018-05-18T09:51:34Z</time>
      </trkpt>
      <trkpt lat="45.88095" lon="4.66139">
        <ele>349</ele>
        <time>2018-05-18T09:51:36Z</time>
      </trkpt>
      <trkpt lat="45.88099" lon="4.66139">
        <ele>349</ele>
        <time>2018-05-18T09:51:37Z</time>
      </trkpt>
      <trkpt lat="45.88107" lon="4.66139">
        <ele>349</ele>
        <time>2018-05-18T09:51:39Z</time>
      </trkpt>
      <trkpt lat="45.88111" lon="4.66138">
        <ele>349</ele>
        <time>2018-05-18T09:51:40Z</time>
      </trkpt>
      <trkpt lat="45.88119" lon="4.66137">
        <ele>349</ele>
        <time>2018-05-18T09:51:42Z</time>
      </trkpt>
      <trkpt lat="45.88123" lon="4.66137">
        <ele>349</ele>
        <time>2018-05-18T09:51:43Z</time>
      </trkpt>
      <trkpt lat="45.88132" lon="4.66137">
        <ele>349</ele>
        <time>2018-05-18T09:51:45Z</time>
      </trkpt>
      <trkpt lat="45.88136" lon="4.66136">
        <ele>349</ele>
        <time>2018-05-18T09:51:46Z</time>
      </trkpt>
      <trkpt lat="45.88144" lon="4.66135">
        <ele>349</ele>
        <time>2018-05-18T09:51:48Z</time>
      </trkpt>
      <trkpt lat="45.88148" lon="4.66135">
        <ele>349</ele>
        <time>2018-05-18T09:51:49Z</time>
      </trkpt>
      <trkpt lat="45.88157" lon="4.66133">
        <ele>349</ele>
        <time>2018-05-18T09:51:51Z</time>
      </trkpt>
      <trkpt lat="45.88161" lon="4.66132">
        <ele>349</ele>
        <time>2018-05-18T09:51:52Z</time>
      </trkpt>
      <trkpt lat="45.88168" lon="4.66131">
        <ele>350</ele>
        <time>2018-05-18T09:51:54Z</time>
      </trkpt>
      <trkpt lat="45.88171" lon="4.66131">
        <ele>350</ele>
        <time>2018-05-18T09:51:55Z</time>
      </trkpt>
      <trkpt lat="45.88179" lon="4.6613">
        <ele>350</ele>
        <time>2018-05-18T09:51:57Z</time>
      </trkpt>
      <trkpt lat="45.88182" lon="4.6613">
        <ele>350</ele>
        <time>2018-05-18T09:51:58Z</time>
      </trkpt>
      <trkpt lat="45.88191" lon="4.6613">
        <ele>350</ele>
        <time>2018-05-18T09:52:02Z</time>
      </trkpt>
      <trkpt lat="45.88194" lon="4.6613">
        <ele>350</ele>
        <time>2018-05-18T09:52:03Z</time>
      </trkpt>
      <trkpt lat="45.88202" lon="4.66129">
        <ele>350</ele>
        <time>2018-05-18T09:52:06Z</time>
      </trkpt>
      <trkpt lat="45.88205" lon="4.66129">
        <ele>350</ele>
        <time>2018-05-18T09:52:07Z</time>
      </trkpt>
      <trkpt lat="45.88213" lon="4.66129">
        <ele>350</ele>
        <time>2018-05-18T09:52:10Z</time>
      </trkpt>
      <trkpt lat="45.88216" lon="4.66129">
        <ele>350</ele>
        <time>2018-05-18T09:52:11Z</time>
      </trkpt>
      <trkpt lat="45.88225" lon="4.6613">
        <ele>350</ele>
        <time>2018-05-18T09:52:14Z</time>
      </trkpt>
      <trkpt lat="45.88228" lon="4.6613">
        <ele>350</ele>
        <time>2018-05-18T09:52:15Z</time>
      </trkpt>
      <trkpt lat="45.88237" lon="4.66132">
        <ele>350</ele>
        <time>2018-05-18T09:52:18Z</time>
      </trkpt>
      <trkpt lat="45.8824" lon="4.66132">
        <ele>350</ele>
        <time>2018-05-18T09:52:19Z</time>
      </trkpt>
      <trkpt lat="45.88248" lon="4.66133">
        <ele>350</ele>
        <time>2018-05-18T09:52:22Z</time>
      </trkpt>
      <trkpt lat="45.88251" lon="4.66134">
        <ele>351</ele>
        <time>2018-05-18T09:52:23Z</time>
      </trkpt>
      <trkpt lat="45.88259" lon="4.66135">
        <ele>352</ele>
        <time>2018-05-18T09:52:26Z</time>
      </trkpt>
      <trkpt lat="45.88262" lon="4.66135">
        <ele>352</ele>
        <time>2018-05-18T09:52:27Z</time>
      </trkpt>
      <trkpt lat="45.8827" lon="4.66135">
        <ele>352</ele>
        <time>2018-05-18T09:52:30Z</time>
      </trkpt>
      <trkpt lat="45.88273" lon="4.66136">
        <ele>352</ele>
        <time>2018-05-18T09:52:31Z</time>
      </trkpt>
      <trkpt lat="45.88281" lon="4.66137">
        <ele>352</ele>
        <time>2018-05-18T09:52:34Z</time>
      </trkpt>
      <trkpt lat="45.88284" lon="4.66137">
        <ele>352</ele>
        <time>2018-05-18T09:52:35Z</time>
      </trkpt>
      <trkpt lat="45.88291" lon="4.66138">
        <ele>352</ele>
        <time>2018-05-18T09:52:38Z</time>
      </trkpt>
      <trkpt lat="45.88294" lon="4.66138">
        <ele>352</ele>
        <time>2018-05-18T09:52:39Z</time>
      </trkpt>
      <trkpt lat="45.88302" lon="4.66138">
        <ele>353</ele>
        <time>2018-05-18T09:52:42Z</time>
      </trkpt>
      <trkpt lat="45.88304" lon="4.66137">
        <ele>353</ele>
        <time>2018-05-18T09:52:43Z</time>
      </trkpt>
      <trkpt lat="45.88313" lon="4.66137">
        <ele>353</ele>
        <time>2018-05-18T09:52:46Z</time>
      </trkpt>
      <trkpt lat="45.88315" lon="4.66137">
        <ele>353</ele>
        <time>2018-05-18T09:52:47Z</time>
      </trkpt>
      <trkpt lat="45.88324" lon="4.66137">
        <ele>354</ele>
        <time>2018-05-18T09:52:50Z</time>
      </trkpt>
      <trkpt lat="45.88326" lon="4.66137">
        <ele>354</ele>
        <time>2018-05-18T09:52:51Z</time>
      </trkpt>
      <trkpt lat="45.88334" lon="4.66136">
        <ele>356</ele>
        <time>2018-05-18T09:52:54Z</time>
      </trkpt>
      <trkpt lat="45.88336" lon="4.66136">
        <ele>356</ele>
        <time>2018-05-18T09:52:55Z</time>
      </trkpt>
      <trkpt lat="45.88343" lon="4.66137">
        <ele>356</ele>
        <time>2018-05-18T09:52:58Z</time>
      </trkpt>
      <trkpt lat="45.88345" lon="4.66137">
        <ele>356</ele>
        <time>2018-05-18T09:52:59Z</time>
      </trkpt>
      <trkpt lat="45.88353" lon="4.66137">
        <ele>356</ele>
        <time>2018-05-18T09:53:02Z</time>
      </trkpt>
      <trkpt lat="45.88355" lon="4.66137">
        <ele>356</ele>
        <time>2018-05-18T09:53:03Z</time>
      </trkpt>
      <trkpt lat="45.88362" lon="4.66138">
        <ele>356</ele>
        <time>2018-05-18T09:53:06Z</time>
      </trkpt>
      <trkpt lat="45.88364" lon="4.66138">
        <ele>357</ele>
        <time>2018-05-18T09:53:07Z</time>
      </trkpt>
      <trkpt lat="45.88372" lon="4.6614">
        <ele>357</ele>
        <time>2018-05-18T09:53:11Z</time>
      </trkpt>
      <trkpt lat="45.88375" lon="4.66141">
        <ele>357</ele>
        <time>2018-05-18T09:53:12Z</time>
      </trkpt>
      <trkpt lat="45.88383" lon="4.66142">
        <ele>357</ele>
        <time>2018-05-18T09:53:16Z</time>
      </trkpt>
      <trkpt lat="45.88385" lon="4.66143">
        <ele>357</ele>
        <time>2018-05-18T09:53:17Z</time>
      </trkpt>
      <trkpt lat="45.88394" lon="4.66144">
        <ele>358</ele>
        <time>2018-05-18T09:53:21Z</time>
      </trkpt>
      <trkpt lat="45.88396" lon="4.66144">
        <ele>358</ele>
        <time>2018-05-18T09:53:22Z</time>
      </trkpt>
      <trkpt lat="45.88405" lon="4.66143">
        <ele>358</ele>
        <time>2018-05-18T09:53:26Z</time>
      </trkpt>
      <trkpt lat="45.88407" lon="4.66142">
        <ele>358</ele>
        <time>2018-05-18T09:53:27Z</time>
      </trkpt>
      <trkpt lat="45.88415" lon="4.66142">
        <ele>359</ele>
        <time>2018-05-18T09:53:31Z</time>
      </trkpt>
      <trkpt lat="45.88417" lon="4.66143">
        <ele>361</ele>
        <time>2018-05-18T09:53:32Z</time>
      </trkpt>
      <trkpt lat="45.88425" lon="4.66144">
        <ele>361</ele>
        <time>2018-05-18T09:53:36Z</time>
      </trkpt>
      <trkpt lat="45.88427" lon="4.66145">
        <ele>361</ele>
        <time>2018-05-18T09:53:37Z</time>
      </trkpt>
      <trkpt lat="45.88434" lon="4.66146">
        <ele>361</ele>
        <time>2018-05-18T09:53:41Z</time>
      </trkpt>
      <trkpt lat="45.88436" lon="4.66146">
        <ele>361</ele>
        <time>2018-05-18T09:53:42Z</time>
      </trkpt>
      <trkpt lat="45.88444" lon="4.66147">
        <ele>361</ele>
        <time>2018-05-18T09:53:46Z</time>
      </trkpt>
      <trkpt lat="45.88445" lon="4.66148">
        <ele>361</ele>
        <time>2018-05-18T09:53:47Z</time>
      </trkpt>
      <trkpt lat="45.88453" lon="4.66149">
        <ele>361</ele>
        <time>2018-05-18T09:53:51Z</time>
      </trkpt>
      <trkpt lat="45.88455" lon="4.66149">
        <ele>361</ele>
        <time>2018-05-18T09:53:52Z</time>
      </trkpt>
      <trkpt lat="45.88462" lon="4.6615">
        <ele>361</ele>
        <time>2018-05-18T09:53:56Z</time>
      </trkpt>
      <trkpt lat="45.88464" lon="4.6615">
        <ele>362</ele>
        <time>2018-05-18T09:53:57Z</time>
      </trkpt>
      <trkpt lat="45.88471" lon="4.66152">
        <ele>362</ele>
        <time>2018-05-18T09:54:01Z</time>
      </trkpt>
      <trkpt lat="45.88473" lon="4.66153">
        <ele>362</ele>
        <time>2018-05-18T09:54:02Z</time>
      </trkpt>
      <trkpt lat="45.88481" lon="4.66156">
        <ele>363</ele>
        <time>2018-05-18T09:54:07Z</time>
      </trkpt>
      <trkpt lat="45.88483" lon="4.66157">
        <ele>363</ele>
        <time>2018-05-18T09:54:08Z</time>
      </trkpt>
      <trkpt lat="45.8849" lon="4.66161">
        <ele>364</ele>
        <time>2018-05-18T09:54:12Z</time>
      </trkpt>
      <trkpt lat="45.88492" lon="4.66163">
        <ele>365</ele>
        <time>2018-05-18T09:54:13Z</time>
      </trkpt>
      <trkpt lat="45.88498" lon="4.66168">
        <ele>367</ele>
        <time>2018-05-18T09:54:17Z</time>
      </trkpt>
      <trkpt lat="45.885" lon="4.6617">
        <ele>368</ele>
        <time>2018-05-18T09:54:18Z</time>
      </trkpt>
      <trkpt lat="45.88506" lon="4.66177">
        <ele>368</ele>
        <time>2018-05-18T09:54:23Z</time>
      </trkpt>
      <trkpt lat="45.88507" lon="4.66179">
        <ele>368</ele>
        <time>2018-05-18T09:54:24Z</time>
      </trkpt>
      <trkpt lat="45.88512" lon="4.66186">
        <ele>369</ele>
        <time>2018-05-18T09:54:29Z</time>
      </trkpt>
      <trkpt lat="45.88514" lon="4.66188">
        <ele>369</ele>
        <time>2018-05-18T09:54:30Z</time>
      </trkpt>
      <trkpt lat="45.88521" lon="4.66193">
        <ele>370</ele>
        <time>2018-05-18T09:54:34Z</time>
      </trkpt>
      <trkpt lat="45.88522" lon="4.66194">
        <ele>370</ele>
        <time>2018-05-18T09:54:35Z</time>
      </trkpt>
      <trkpt lat="45.8853" lon="4.66199">
        <ele>370</ele>
        <time>2018-05-18T09:54:40Z</time>
      </trkpt>
      <trkpt lat="45.88532" lon="4.662">
        <ele>370</ele>
        <time>2018-05-18T09:54:41Z</time>
      </trkpt>
      <trkpt lat="45.88539" lon="4.66206">
        <ele>370</ele>
        <time>2018-05-18T09:54:46Z</time>
      </trkpt>
      <trkpt lat="45.88541" lon="4.66207">
        <ele>370</ele>
        <time>2018-05-18T09:54:47Z</time>
      </trkpt>
      <trkpt lat="45.88547" lon="4.66214">
        <ele>370</ele>
        <time>2018-05-18T09:54:52Z</time>
      </trkpt>
      <trkpt lat="45.88548" lon="4.66216">
        <ele>370</ele>
        <time>2018-05-18T09:54:53Z</time>
      </trkpt>
      <trkpt lat="45.88554" lon="4.66225">
        <ele>370</ele>
        <time>2018-05-18T09:54:58Z</time>
      </trkpt>
      <trkpt lat="45.88555" lon="4.66227">
        <ele>370</ele>
        <time>2018-05-18T09:54:59Z</time>
      </trkpt>
      <trkpt lat="45.88563" lon="4.66234">
        <ele>371</ele>
        <time>2018-05-18T09:55:03Z</time>
      </trkpt>
      <trkpt lat="45.88565" lon="4.66236">
        <ele>371</ele>
        <time>2018-05-18T09:55:04Z</time>
      </trkpt>
      <trkpt lat="45.88571" lon="4.66242">
        <ele>371</ele>
        <time>2018-05-18T09:55:07Z</time>
      </trkpt>
      <trkpt lat="45.88573" lon="4.66244">
        <ele>371</ele>
        <time>2018-05-18T09:55:08Z</time>
      </trkpt>
      <trkpt lat="45.88579" lon="4.66251">
        <ele>373</ele>
        <time>2018-05-18T09:55:11Z</time>
      </trkpt>
      <trkpt lat="45.88581" lon="4.66253">
        <ele>372</ele>
        <time>2018-05-18T09:55:12Z</time>
      </trkpt>
      <trkpt lat="45.88586" lon="4.6626">
        <ele>371</ele>
        <time>2018-05-18T09:55:15Z</time>
      </trkpt>
      <trkpt lat="45.88587" lon="4.66262">
        <ele>372</ele>
        <time>2018-05-18T09:55:16Z</time>
      </trkpt>
      <trkpt lat="45.88592" lon="4.66269">
        <ele>372</ele>
        <time>2018-05-18T09:55:19Z</time>
      </trkpt>
      <trkpt lat="45.88594" lon="4.66272">
        <ele>372</ele>
        <time>2018-05-18T09:55:20Z</time>
      </trkpt>
      <trkpt lat="45.88598" lon="4.6628">
        <ele>372</ele>
        <time>2018-05-18T09:55:23Z</time>
      </trkpt>
      <trkpt lat="45.886" lon="4.66282">
        <ele>373</ele>
        <time>2018-05-18T09:55:24Z</time>
      </trkpt>
      <trkpt lat="45.88604" lon="4.6629">
        <ele>373</ele>
        <time>2018-05-18T09:55:27Z</time>
      </trkpt>
      <trkpt lat="45.88606" lon="4.66293">
        <ele>373</ele>
        <time>2018-05-18T09:55:28Z</time>
      </trkpt>
      <trkpt lat="45.8861" lon="4.66301">
        <ele>374</ele>
        <time>2018-05-18T09:55:31Z</time>
      </trkpt>
      <trkpt lat="45.88611" lon="4.66304">
        <ele>374</ele>
        <time>2018-05-18T09:55:32Z</time>
      </trkpt>
      <trkpt lat="45.88616" lon="4.66314">
        <ele>374</ele>
        <time>2018-05-18T09:55:36Z</time>
      </trkpt>
      <trkpt lat="45.88618" lon="4.66316">
        <ele>374</ele>
        <time>2018-05-18T09:55:37Z</time>
      </trkpt>
      <trkpt lat="45.88622" lon="4.66325">
        <ele>374</ele>
        <time>2018-05-18T09:55:40Z</time>
      </trkpt>
      <trkpt lat="45.88624" lon="4.66327">
        <ele>374</ele>
        <time>2018-05-18T09:55:41Z</time>
      </trkpt>
      <trkpt lat="45.88628" lon="4.66336">
        <ele>380</ele>
        <time>2018-05-18T09:55:44Z</time>
      </trkpt>
      <trkpt lat="45.88629" lon="4.66338">
        <ele>380</ele>
        <time>2018-05-18T09:55:45Z</time>
      </trkpt>
      <trkpt lat="45.88634" lon="4.66346">
        <ele>380</ele>
        <time>2018-05-18T09:55:48Z</time>
      </trkpt>
      <trkpt lat="45.88636" lon="4.66348">
        <ele>380</ele>
        <time>2018-05-18T09:55:49Z</time>
      </trkpt>
      <trkpt lat="45.88641" lon="4.66355">
        <ele>380</ele>
        <time>2018-05-18T09:55:52Z</time>
      </trkpt>
      <trkpt lat="45.88643" lon="4.66358">
        <ele>380</ele>
        <time>2018-05-18T09:55:53Z</time>
      </trkpt>
      <trkpt lat="45.88649" lon="4.66364">
        <ele>380</ele>
        <time>2018-05-18T09:55:56Z</time>
      </trkpt>
      <trkpt lat="45.88651" lon="4.66366">
        <ele>380</ele>
        <time>2018-05-18T09:55:57Z</time>
      </trkpt>
      <trkpt lat="45.88656" lon="4.66373">
        <ele>381</ele>
        <time>2018-05-18T09:56:00Z</time>
      </trkpt>
      <trkpt lat="45.88658" lon="4.66375">
        <ele>381</ele>
        <time>2018-05-18T09:56:01Z</time>
      </trkpt>
      <trkpt lat="45.88663" lon="4.66383">
        <ele>381</ele>
        <time>2018-05-18T09:56:04Z</time>
      </trkpt>
      <trkpt lat="45.88664" lon="4.66385">
        <ele>381</ele>
        <time>2018-05-18T09:56:05Z</time>
      </trkpt>
      <trkpt lat="45.8867" lon="4.66391">
        <ele>378</ele>
        <time>2018-05-18T09:56:08Z</time>
      </trkpt>
      <trkpt lat="45.88672" lon="4.66393">
        <ele>378</ele>
        <time>2018-05-18T09:56:09Z</time>
      </trkpt>
      <trkpt lat="45.88677" lon="4.664">
        <ele>379</ele>
        <time>2018-05-18T09:56:12Z</time>
      </trkpt>
      <trkpt lat="45.88679" lon="4.66403">
        <ele>379</ele>
        <time>2018-05-18T09:56:13Z</time>
      </trkpt>
      <trkpt lat="45.88686" lon="4.66409">
        <ele>379</ele>
        <time>2018-05-18T09:56:16Z</time>
      </trkpt>
      <trkpt lat="45.88688" lon="4.66411">
        <ele>379</ele>
        <time>2018-05-18T09:56:17Z</time>
      </trkpt>
      <trkpt lat="45.88694" lon="4.66416">
        <ele>378</ele>
        <time>2018-05-18T09:56:20Z</time>
      </trkpt>
      <trkpt lat="45.88696" lon="4.66418">
        <ele>384</ele>
        <time>2018-05-18T09:56:21Z</time>
      </trkpt>
      <trkpt lat="45.88702" lon="4.66425">
        <ele>384</ele>
        <time>2018-05-18T09:56:24Z</time>
      </trkpt>
      <trkpt lat="45.88704" lon="4.66427">
        <ele>384</ele>
        <time>2018-05-18T09:56:25Z</time>
      </trkpt>
      <trkpt lat="45.8871" lon="4.66432">
        <ele>383</ele>
        <time>2018-05-18T09:56:28Z</time>
      </trkpt>
      <trkpt lat="45.88712" lon="4.66434">
        <ele>383</ele>
        <time>2018-05-18T09:56:29Z</time>
      </trkpt>
      <trkpt lat="45.88719" lon="4.66439">
        <ele>383</ele>
        <time>2018-05-18T09:56:32Z</time>
      </trkpt>
      <trkpt lat="45.88721" lon="4.66441">
        <ele>383</ele>
        <time>2018-05-18T09:56:33Z</time>
      </trkpt>
      <trkpt lat="45.88726" lon="4.66447">
        <ele>384</ele>
        <time>2018-05-18T09:56:36Z</time>
      </trkpt>
      <trkpt lat="45.88728" lon="4.66449">
        <ele>384</ele>
        <time>2018-05-18T09:56:37Z</time>
      </trkpt>
      <trkpt lat="45.88733" lon="4.66456">
        <ele>384</ele>
        <time>2018-05-18T09:56:40Z</time>
      </trkpt>
      <trkpt lat="45.88735" lon="4.66458">
        <ele>384</ele>
        <time>2018-05-18T09:56:41Z</time>
      </trkpt>
      <trkpt lat="45.8874" lon="4.66465">
        <ele>384</ele>
        <time>2018-05-18T09:56:44Z</time>
      </trkpt>
      <trkpt lat="45.88741" lon="4.66467">
        <ele>385</ele>
        <time>2018-05-18T09:56:45Z</time>
      </trkpt>
      <trkpt lat="45.88748" lon="4.66475">
        <ele>385</ele>
        <time>2018-05-18T09:56:49Z</time>
      </trkpt>
      <trkpt lat="45.8875" lon="4.66477">
        <ele>385</ele>
        <time>2018-05-18T09:56:50Z</time>
      </trkpt>
      <trkpt lat="45.88757" lon="4.66484">
        <ele>384</ele>
        <time>2018-05-18T09:56:54Z</time>
      </trkpt>
      <trkpt lat="45.88758" lon="4.66486">
        <ele>384</ele>
        <time>2018-05-18T09:56:55Z</time>
      </trkpt>
      <trkpt lat="45.88764" lon="4.66494">
        <ele>384</ele>
        <time>2018-05-18T09:56:59Z</time>
      </trkpt>
      <trkpt lat="45.88766" lon="4.66496">
        <ele>384</ele>
        <time>2018-05-18T09:57:00Z</time>
      </trkpt>
      <trkpt lat="45.88771" lon="4.66504">
        <ele>389</ele>
        <time>2018-05-18T09:57:04Z</time>
      </trkpt>
      <trkpt lat="45.88772" lon="4.66505">
        <ele>389</ele>
        <time>2018-05-18T09:57:05Z</time>
      </trkpt>
      <trkpt lat="45.88778" lon="4.66512">
        <ele>390</ele>
        <time>2018-05-18T09:57:09Z</time>
      </trkpt>
      <trkpt lat="45.8878" lon="4.66514">
        <ele>390</ele>
        <time>2018-05-18T09:57:10Z</time>
      </trkpt>
      <trkpt lat="45.88785" lon="4.66521">
        <ele>390</ele>
        <time>2018-05-18T09:57:14Z</time>
      </trkpt>
      <trkpt lat="45.88787" lon="4.66522">
        <ele>390</ele>
        <time>2018-05-18T09:57:15Z</time>
      </trkpt>
      <trkpt lat="45.88792" lon="4.6653">
        <ele>391</ele>
        <time>2018-05-18T09:57:19Z</time>
      </trkpt>
      <trkpt lat="45.88793" lon="4.66532">
        <ele>391</ele>
        <time>2018-05-18T09:57:20Z</time>
      </trkpt>
      <trkpt lat="45.88799" lon="4.66539">
        <ele>391</ele>
        <time>2018-05-18T09:57:25Z</time>
      </trkpt>
      <trkpt lat="45.88801" lon="4.6654">
        <ele>391</ele>
        <time>2018-05-18T09:57:26Z</time>
      </trkpt>
      <trkpt lat="45.88808" lon="4.66544">
        <ele>392</ele>
        <time>2018-05-18T09:57:30Z</time>
      </trkpt>
      <trkpt lat="45.88809" lon="4.66545">
        <ele>392</ele>
        <time>2018-05-18T09:57:31Z</time>
      </trkpt>
      <trkpt lat="45.88818" lon="4.66549">
        <ele>392</ele>
        <time>2018-05-18T09:57:36Z</time>
      </trkpt>
      <trkpt lat="45.88819" lon="4.6655">
        <ele>392</ele>
        <time>2018-05-18T09:57:37Z</time>
      </trkpt>
      <trkpt lat="45.88827" lon="4.66553">
        <ele>392</ele>
        <time>2018-05-18T09:57:41Z</time>
      </trkpt>
      <trkpt lat="45.88829" lon="4.66553">
        <ele>392</ele>
        <time>2018-05-18T09:57:42Z</time>
      </trkpt>
      <trkpt lat="45.88836" lon="4.66556">
        <ele>391</ele>
        <time>2018-05-18T09:57:46Z</time>
      </trkpt>
      <trkpt lat="45.88838" lon="4.66557">
        <ele>391</ele>
        <time>2018-05-18T09:57:47Z</time>
      </trkpt>
      <trkpt lat="45.88846" lon="4.66562">
        <ele>392</ele>
        <time>2018-05-18T09:57:52Z</time>
      </trkpt>
      <trkpt lat="45.88847" lon="4.66563">
        <ele>392</ele>
        <time>2018-05-18T09:57:53Z</time>
      </trkpt>
      <trkpt lat="45.88853" lon="4.6657">
        <ele>392</ele>
        <time>2018-05-18T09:57:57Z</time>
      </trkpt>
      <trkpt lat="45.88855" lon="4.66572">
        <ele>392</ele>
        <time>2018-05-18T09:57:58Z</time>
      </trkpt>
      <trkpt lat="45.88861" lon="4.66578">
        <ele>392</ele>
        <time>2018-05-18T09:58:02Z</time>
      </trkpt>
      <trkpt lat="45.88862" lon="4.6658">
        <ele>392</ele>
        <time>2018-05-18T09:58:03Z</time>
      </trkpt>
      <trkpt lat="45.88868" lon="4.66587">
        <ele>399</ele>
        <time>2018-05-18T09:58:08Z</time>
      </trkpt>
      <trkpt lat="45.88869" lon="4.66589">
        <ele>399</ele>
        <time>2018-05-18T09:58:09Z</time>
      </trkpt>
      <trkpt lat="45.88874" lon="4.66597">
        <ele>400</ele>
        <time>2018-05-18T09:58:14Z</time>
      </trkpt>
      <trkpt lat="45.88875" lon="4.66599">
        <ele>400</ele>
        <time>2018-05-18T09:58:15Z</time>
      </trkpt>
      <trkpt lat="45.88881" lon="4.66607">
        <ele>400</ele>
        <time>2018-05-18T09:58:21Z</time>
      </trkpt>
      <trkpt lat="45.88882" lon="4.66609">
        <ele>400</ele>
        <time>2018-05-18T09:58:22Z</time>
      </trkpt>
      <trkpt lat="45.88886" lon="4.66617">
        <ele>400</ele>
        <time>2018-05-18T09:58:27Z</time>
      </trkpt>
      <trkpt lat="45.88888" lon="4.66619">
        <ele>401</ele>
        <time>2018-05-18T09:58:28Z</time>
      </trkpt>
      <trkpt lat="45.88892" lon="4.66629">
        <ele>401</ele>
        <time>2018-05-18T09:58:32Z</time>
      </trkpt>
      <trkpt lat="45.88893" lon="4.66632">
        <ele>401</ele>
        <time>2018-05-18T09:58:33Z</time>
      </trkpt>
      <trkpt lat="45.88897" lon="4.6664">
        <ele>402</ele>
        <time>2018-05-18T09:58:37Z</time>
      </trkpt>
      <trkpt lat="45.88899" lon="4.66642">
        <ele>402</ele>
        <time>2018-05-18T09:58:38Z</time>
      </trkpt>
      <trkpt lat="45.88904" lon="4.66649">
        <ele>403</ele>
        <time>2018-05-18T09:58:42Z</time>
      </trkpt>
      <trkpt lat="45.88906" lon="4.6665">
        <ele>403</ele>
        <time>2018-05-18T09:58:43Z</time>
      </trkpt>
      <trkpt lat="45.88912" lon="4.66656">
        <ele>404</ele>
        <time>2018-05-18T09:58:46Z</time>
      </trkpt>
      <trkpt lat="45.88914" lon="4.66657">
        <ele>404</ele>
        <time>2018-05-18T09:58:47Z</time>
      </trkpt>
      <trkpt lat="45.8892" lon="4.66662">
        <ele>405</ele>
        <time>2018-05-18T09:58:50Z</time>
      </trkpt>
      <trkpt lat="45.88922" lon="4.66663">
        <ele>404</ele>
        <time>2018-05-18T09:58:51Z</time>
      </trkpt>
      <trkpt lat="45.8893" lon="4.66668">
        <ele>407</ele>
        <time>2018-05-18T09:58:55Z</time>
      </trkpt>
      <trkpt lat="45.88932" lon="4.66669">
        <ele>408</ele>
        <time>2018-05-18T09:58:56Z</time>
      </trkpt>
      <trkpt lat="45.8894" lon="4.66674">
        <ele>408</ele>
        <time>2018-05-18T09:59:00Z</time>
      </trkpt>
      <trkpt lat="45.88942" lon="4.66675">
        <ele>408</ele>
        <time>2018-05-18T09:59:01Z</time>
      </trkpt>
      <trkpt lat="45.88947" lon="4.66682">
        <ele>408</ele>
        <time>2018-05-18T09:59:05Z</time>
      </trkpt>
      <trkpt lat="45.88949" lon="4.66683">
        <ele>408</ele>
        <time>2018-05-18T09:59:06Z</time>
      </trkpt>
      <trkpt lat="45.88955" lon="4.66688">
        <ele>409</ele>
        <time>2018-05-18T09:59:10Z</time>
      </trkpt>
      <trkpt lat="45.88957" lon="4.66689">
        <ele>409</ele>
        <time>2018-05-18T09:59:11Z</time>
      </trkpt>
      <trkpt lat="45.88965" lon="4.66694">
        <ele>409</ele>
        <time>2018-05-18T09:59:15Z</time>
      </trkpt>
      <trkpt lat="45.88967" lon="4.66695">
        <ele>409</ele>
        <time>2018-05-18T09:59:16Z</time>
      </trkpt>
      <trkpt lat="45.88976" lon="4.667">
        <ele>409</ele>
        <time>2018-05-18T09:59:20Z</time>
      </trkpt>
      <trkpt lat="45.88978" lon="4.66701">
        <ele>409</ele>
        <time>2018-05-18T09:59:21Z</time>
      </trkpt>
      <trkpt lat="45.88986" lon="4.66704">
        <ele>409</ele>
        <time>2018-05-18T09:59:24Z</time>
      </trkpt>
      <trkpt lat="45.88988" lon="4.66705">
        <ele>409</ele>
        <time>2018-05-18T09:59:25Z</time>
      </trkpt>
      <trkpt lat="45.88996" lon="4.66709">
        <ele>409</ele>
        <time>2018-05-18T09:59:28Z</time>
      </trkpt>
      <trkpt lat="45.88998" lon="4.6671">
        <ele>409</ele>
        <time>2018-05-18T09:59:29Z</time>
      </trkpt>
      <trkpt lat="45.89006" lon="4.66714">
        <ele>407</ele>
        <time>2018-05-18T09:59:33Z</time>
      </trkpt>
      <trkpt lat="45.89008" lon="4.66715">
        <ele>407</ele>
        <time>2018-05-18T09:59:34Z</time>
      </trkpt>
      <trkpt lat="45.89013" lon="4.66717">
        <ele>407</ele>
        <time>2018-05-18T09:59:36Z</time>
      </trkpt>
      <trkpt lat="45.89017" lon="4.66718">
        <ele>407</ele>
        <time>2018-05-18T09:59:37Z</time>
      </trkpt>
      <trkpt lat="45.89029" lon="4.66722">
        <ele>407</ele>
        <time>2018-05-18T09:59:38Z</time>
      </trkpt>
      <trkpt lat="45.89037" lon="4.66726">
        <ele>407</ele>
        <time>2018-05-18T09:59:41Z</time>
      </trkpt>
      <trkpt lat="45.89044" lon="4.66728">
        <ele>407</ele>
        <time>2018-05-18T09:59:42Z</time>
      </trkpt>
      <trkpt lat="45.89051" lon="4.66733">
        <ele>407</ele>
        <time>2018-05-18T09:59:46Z</time>
      </trkpt>
      <trkpt lat="45.89053" lon="4.66735">
        <ele>407</ele>
        <time>2018-05-18T09:59:47Z</time>
      </trkpt>
      <trkpt lat="45.89055" lon="4.66736">
        <ele>407</ele>
        <time>2018-05-18T09:59:48Z</time>
      </trkpt>
      <trkpt lat="45.89064" lon="4.66739">
        <ele>407</ele>
        <time>2018-05-18T09:59:49Z</time>
      </trkpt>
      <trkpt lat="45.89071" lon="4.66745">
        <ele>408</ele>
        <time>2018-05-18T09:59:54Z</time>
      </trkpt>
      <trkpt lat="45.89071" lon="4.66747">
        <ele>408</ele>
        <time>2018-05-18T09:59:55Z</time>
      </trkpt>
      <trkpt lat="45.89075" lon="4.66758">
        <ele>411</ele>
        <time>2018-05-18T10:00:00Z</time>
      </trkpt>
      <trkpt lat="45.89075" lon="4.66759">
        <ele>411</ele>
        <time>2018-05-18T10:00:01Z</time>
      </trkpt>
      <trkpt lat="45.89079" lon="4.66765">
        <ele>411</ele>
        <time>2018-05-18T10:00:06Z</time>
      </trkpt>
      <trkpt lat="45.89085" lon="4.66772">
        <ele>410</ele>
        <time>2018-05-18T10:00:07Z</time>
      </trkpt>
      <trkpt lat="45.89091" lon="4.66778">
        <ele>410</ele>
        <time>2018-05-18T10:00:10Z</time>
      </trkpt>
      <trkpt lat="45.89093" lon="4.66781">
        <ele>410</ele>
        <time>2018-05-18T10:00:11Z</time>
      </trkpt>
      <trkpt lat="45.89097" lon="4.66787">
        <ele>410</ele>
        <time>2018-05-18T10:00:13Z</time>
      </trkpt>
      <trkpt lat="45.891" lon="4.6679">
        <ele>410</ele>
        <time>2018-05-18T10:00:14Z</time>
      </trkpt>
      <trkpt lat="45.89107" lon="4.66796">
        <ele>410</ele>
        <time>2018-05-18T10:00:17Z</time>
      </trkpt>
      <trkpt lat="45.8911" lon="4.66798">
        <ele>410</ele>
        <time>2018-05-18T10:00:18Z</time>
      </trkpt>
      <trkpt lat="45.89116" lon="4.668">
        <ele>410</ele>
        <time>2018-05-18T10:00:20Z</time>
      </trkpt>
      <trkpt lat="45.89119" lon="4.66802">
        <ele>410</ele>
        <time>2018-05-18T10:00:21Z</time>
      </trkpt>
      <trkpt lat="45.89125" lon="4.6681">
        <ele>411</ele>
        <time>2018-05-18T10:00:24Z</time>
      </trkpt>
      <trkpt lat="45.89126" lon="4.66813">
        <ele>411</ele>
        <time>2018-05-18T10:00:25Z</time>
      </trkpt>
      <trkpt lat="45.89126" lon="4.66826">
        <ele>411</ele>
        <time>2018-05-18T10:00:30Z</time>
      </trkpt>
      <trkpt lat="45.89126" lon="4.66827">
        <ele>411</ele>
        <time>2018-05-18T10:00:31Z</time>
      </trkpt>
      <trkpt lat="45.89126" lon="4.66828">
        <ele>411</ele>
        <time>2018-05-18T10:00:34Z</time>
      </trkpt>
      <trkpt lat="45.89125" lon="4.66828">
        <ele>411</ele>
        <time>2018-05-18T10:00:35Z</time>
      </trkpt>
      <trkpt lat="45.89125" lon="4.66828">
        <ele>411</ele>
        <time>2018-05-18T10:00:36Z</time>
      </trkpt>
      <trkpt lat="45.89125" lon="4.66823">
        <ele>411</ele>
        <time>2018-05-18T10:00:54Z</time>
      </trkpt>
      <trkpt lat="45.89125" lon="4.66824">
        <ele>411</ele>
        <time>2018-05-18T10:00:55Z</time>
      </trkpt>
      <trkpt lat="45.89125" lon="4.66824">
        <ele>411</ele>
        <time>2018-05-18T10:00:56Z</time>
      </trkpt>
      <trkpt lat="45.89127" lon="4.66822">
        <ele>411</ele>
        <time>2018-05-18T10:04:34Z</time>
      </trkpt>
      <trkpt lat="45.89127" lon="4.66822">
        <ele>411</ele>
        <time>2018-05-18T10:04:35Z</time>
      </trkpt>
      <trkpt lat="45.89127" lon="4.66822">
        <ele>411</ele>
        <time>2018-05-18T10:04:36Z</time>
      </trkpt>
      <trkpt lat="45.89127" lon="4.66822">
        <ele>411</ele>
        <time>2018-05-18T10:04:37Z</time>
      </trkpt>
      <trkpt lat="45.89123" lon="4.6682">
        <ele>411</ele>
        <time>2018-05-18T10:05:13Z</time>
      </trkpt>
      <trkpt lat="45.89123" lon="4.6682">
        <ele>411</ele>
        <time>2018-05-18T10:05:14Z</time>
      </trkpt>
      <trkpt lat="45.89122" lon="4.6682">
        <ele>411</ele>
        <time>2018-05-18T10:05:15Z</time>
      </trkpt>
      <trkpt lat="45.89122" lon="4.6682">
        <ele>411</ele>
        <time>2018-05-18T10:05:16Z</time>
      </trkpt>
      <trkpt lat="45.8912" lon="4.66817">
        <ele>411</ele>
        <time>2018-05-18T10:06:44Z</time>
      </trkpt>
      <trkpt lat="45.8912" lon="4.66817">
        <ele>411</ele>
        <time>2018-05-18T10:06:45Z</time>
      </trkpt>
      <trkpt lat="45.89122" lon="4.66821">
        <ele>411</ele>
        <time>2018-05-18T10:06:56Z</time>
      </trkpt>
      <trkpt lat="45.89122" lon="4.6682">
        <ele>411</ele>
        <time>2018-05-18T10:06:57Z</time>
      </trkpt>
      <trkpt lat="45.89124" lon="4.66824">
        <ele>411</ele>
        <time>2018-05-18T10:07:41Z</time>
      </trkpt>
      <trkpt lat="45.89124" lon="4.66825">
        <ele>411</ele>
        <time>2018-05-18T10:07:42Z</time>
      </trkpt>
      <trkpt lat="45.89124" lon="4.66825">
        <ele>411</ele>
        <time>2018-05-18T10:07:43Z</time>
      </trkpt>
      <trkpt lat="45.89131" lon="4.66823">
        <ele>411</ele>
        <time>2018-05-18T10:08:03Z</time>
      </trkpt>
      <trkpt lat="45.89138" lon="4.66824">
        <ele>411</ele>
        <time>2018-05-18T10:08:04Z</time>
      </trkpt>
      <trkpt lat="45.89142" lon="4.66825">
        <ele>411</ele>
        <time>2018-05-18T10:08:05Z</time>
      </trkpt>
      <trkpt lat="45.89148" lon="4.66826">
        <ele>412</ele>
        <time>2018-05-18T10:08:06Z</time>
      </trkpt>
      <trkpt lat="45.89153" lon="4.6683">
        <ele>412</ele>
        <time>2018-05-18T10:08:07Z</time>
      </trkpt>
      <trkpt lat="45.89157" lon="4.66831">
        <ele>413</ele>
        <time>2018-05-18T10:08:08Z</time>
      </trkpt>
      <trkpt lat="45.89158" lon="4.66843">
        <ele>414</ele>
        <time>2018-05-18T10:08:13Z</time>
      </trkpt>
      <trkpt lat="45.89158" lon="4.66853">
        <ele>414</ele>
        <time>2018-05-18T10:08:14Z</time>
      </trkpt>
      <trkpt lat="45.89154" lon="4.66863">
        <ele>414</ele>
        <time>2018-05-18T10:08:16Z</time>
      </trkpt>
      <trkpt lat="45.89152" lon="4.66869">
        <ele>414</ele>
        <time>2018-05-18T10:08:17Z</time>
      </trkpt>
      <trkpt lat="45.89153" lon="4.6688">
        <ele>414</ele>
        <time>2018-05-18T10:08:19Z</time>
      </trkpt>
      <trkpt lat="45.89154" lon="4.66886">
        <ele>414</ele>
        <time>2018-05-18T10:08:20Z</time>
      </trkpt>
      <trkpt lat="45.89156" lon="4.66892">
        <ele>414</ele>
        <time>2018-05-18T10:08:21Z</time>
      </trkpt>
      <trkpt lat="45.89157" lon="4.66898">
        <ele>415</ele>
        <time>2018-05-18T10:08:22Z</time>
      </trkpt>
      <trkpt lat="45.89161" lon="4.6691">
        <ele>415</ele>
        <time>2018-05-18T10:08:24Z</time>
      </trkpt>
      <trkpt lat="45.89163" lon="4.66916">
        <ele>415</ele>
        <time>2018-05-18T10:08:25Z</time>
      </trkpt>
      <trkpt lat="45.89165" lon="4.66923">
        <ele>414</ele>
        <time>2018-05-18T10:08:26Z</time>
      </trkpt>
      <trkpt lat="45.89166" lon="4.66929">
        <ele>414</ele>
        <time>2018-05-18T10:08:27Z</time>
      </trkpt>
      <trkpt lat="45.89168" lon="4.66936">
        <ele>415</ele>
        <time>2018-05-18T10:08:28Z</time>
      </trkpt>
      <trkpt lat="45.89168" lon="4.66943">
        <ele>415</ele>
        <time>2018-05-18T10:08:29Z</time>
      </trkpt>
      <trkpt lat="45.89171" lon="4.6695">
        <ele>415</ele>
        <time>2018-05-18T10:08:30Z</time>
      </trkpt>
      <trkpt lat="45.89172" lon="4.66956">
        <ele>415</ele>
        <time>2018-05-18T10:08:31Z</time>
      </trkpt>
      <trkpt lat="45.89174" lon="4.66967">
        <ele>415</ele>
        <time>2018-05-18T10:08:33Z</time>
      </trkpt>
      <trkpt lat="45.89175" lon="4.6697">
        <ele>415</ele>
        <time>2018-05-18T10:08:34Z</time>
      </trkpt>
      <trkpt lat="45.89178" lon="4.66978">
        <ele>414</ele>
        <time>2018-05-18T10:08:37Z</time>
      </trkpt>
      <trkpt lat="45.89181" lon="4.66987">
        <ele>414</ele>
        <time>2018-05-18T10:08:38Z</time>
      </trkpt>
      <trkpt lat="45.89185" lon="4.66998">
        <ele>414</ele>
        <time>2018-05-18T10:08:40Z</time>
      </trkpt>
      <trkpt lat="45.89187" lon="4.67005">
        <ele>413</ele>
        <time>2018-05-18T10:08:41Z</time>
      </trkpt>
      <trkpt lat="45.89192" lon="4.6701">
        <ele>413</ele>
        <time>2018-05-18T10:08:42Z</time>
      </trkpt>
      <trkpt lat="45.8919" lon="4.67017">
        <ele>413</ele>
        <time>2018-05-18T10:08:43Z</time>
      </trkpt>
      <trkpt lat="45.89192" lon="4.67024">
        <ele>413</ele>
        <time>2018-05-18T10:08:44Z</time>
      </trkpt>
      <trkpt lat="45.89193" lon="4.67031">
        <ele>413</ele>
        <time>2018-05-18T10:08:45Z</time>
      </trkpt>
      <trkpt lat="45.89196" lon="4.67038">
        <ele>413</ele>
        <time>2018-05-18T10:08:46Z</time>
      </trkpt>
      <trkpt lat="45.89198" lon="4.67044">
        <ele>413</ele>
        <time>2018-05-18T10:08:47Z</time>
      </trkpt>
      <trkpt lat="45.89201" lon="4.67052">
        <ele>413</ele>
        <time>2018-05-18T10:08:48Z</time>
      </trkpt>
      <trkpt lat="45.89202" lon="4.67058">
        <ele>412</ele>
        <time>2018-05-18T10:08:49Z</time>
      </trkpt>
      <trkpt lat="45.89204" lon="4.67063">
        <ele>412</ele>
        <time>2018-05-18T10:08:50Z</time>
      </trkpt>
      <trkpt lat="45.89207" lon="4.67069">
        <ele>412</ele>
        <time>2018-05-18T10:08:51Z</time>
      </trkpt>
      <trkpt lat="45.89211" lon="4.67079">
        <ele>413</ele>
        <time>2018-05-18T10:08:53Z</time>
      </trkpt>
      <trkpt lat="45.89213" lon="4.67085">
        <ele>410</ele>
        <time>2018-05-18T10:08:54Z</time>
      </trkpt>
      <trkpt lat="45.89215" lon="4.67091">
        <ele>411</ele>
        <time>2018-05-18T10:08:55Z</time>
      </trkpt>
      <trkpt lat="45.89217" lon="4.67097">
        <ele>411</ele>
        <time>2018-05-18T10:08:56Z</time>
      </trkpt>
      <trkpt lat="45.8922" lon="4.67102">
        <ele>411</ele>
        <time>2018-05-18T10:08:57Z</time>
      </trkpt>
      <trkpt lat="45.89222" lon="4.67108">
        <ele>411</ele>
        <time>2018-05-18T10:08:58Z</time>
      </trkpt>
      <trkpt lat="45.89225" lon="4.67115">
        <ele>411</ele>
        <time>2018-05-18T10:08:59Z</time>
      </trkpt>
      <trkpt lat="45.89229" lon="4.67121">
        <ele>411</ele>
        <time>2018-05-18T10:09:00Z</time>
      </trkpt>
      <trkpt lat="45.89232" lon="4.67126">
        <ele>411</ele>
        <time>2018-05-18T10:09:01Z</time>
      </trkpt>
      <trkpt lat="45.89235" lon="4.67132">
        <ele>411</ele>
        <time>2018-05-18T10:09:02Z</time>
      </trkpt>
      <trkpt lat="45.89238" lon="4.67139">
        <ele>411</ele>
        <time>2018-05-18T10:09:03Z</time>
      </trkpt>
      <trkpt lat="45.89241" lon="4.67144">
        <ele>411</ele>
        <time>2018-05-18T10:09:04Z</time>
      </trkpt>
      <trkpt lat="45.89245" lon="4.67149">
        <ele>411</ele>
        <time>2018-05-18T10:09:05Z</time>
      </trkpt>
      <trkpt lat="45.89248" lon="4.67154">
        <ele>412</ele>
        <time>2018-05-18T10:09:06Z</time>
      </trkpt>
      <trkpt lat="45.89251" lon="4.6716">
        <ele>414</ele>
        <time>2018-05-18T10:09:07Z</time>
      </trkpt>
      <trkpt lat="45.89255" lon="4.67166">
        <ele>414</ele>
        <time>2018-05-18T10:09:08Z</time>
      </trkpt>
      <trkpt lat="45.89259" lon="4.6717">
        <ele>412</ele>
        <time>2018-05-18T10:09:09Z</time>
      </trkpt>
      <trkpt lat="45.89263" lon="4.67173">
        <ele>412</ele>
        <time>2018-05-18T10:09:10Z</time>
      </trkpt>
      <trkpt lat="45.89267" lon="4.67177">
        <ele>412</ele>
        <time>2018-05-18T10:09:11Z</time>
      </trkpt>
      <trkpt lat="45.89272" lon="4.6718">
        <ele>412</ele>
        <time>2018-05-18T10:09:12Z</time>
      </trkpt>
      <trkpt lat="45.89276" lon="4.67183">
        <ele>412</ele>
        <time>2018-05-18T10:09:13Z</time>
      </trkpt>
      <trkpt lat="45.89281" lon="4.67186">
        <ele>412</ele>
        <time>2018-05-18T10:09:14Z</time>
      </trkpt>
      <trkpt lat="45.89285" lon="4.67189">
        <ele>412</ele>
        <time>2018-05-18T10:09:15Z</time>
      </trkpt>
      <trkpt lat="45.89291" lon="4.67191">
        <ele>412</ele>
        <time>2018-05-18T10:09:16Z</time>
      </trkpt>
      <trkpt lat="45.89296" lon="4.67194">
        <ele>412</ele>
        <time>2018-05-18T10:09:17Z</time>
      </trkpt>
      <trkpt lat="45.893" lon="4.67196">
        <ele>412</ele>
        <time>2018-05-18T10:09:18Z</time>
      </trkpt>
      <trkpt lat="45.89306" lon="4.67199">
        <ele>412</ele>
        <time>2018-05-18T10:09:19Z</time>
      </trkpt>
      <trkpt lat="45.89311" lon="4.67201">
        <ele>412</ele>
        <time>2018-05-18T10:09:20Z</time>
      </trkpt>
      <trkpt lat="45.89316" lon="4.67205">
        <ele>412</ele>
        <time>2018-05-18T10:09:21Z</time>
      </trkpt>
      <trkpt lat="45.89321" lon="4.67208">
        <ele>412</ele>
        <time>2018-05-18T10:09:22Z</time>
      </trkpt>
      <trkpt lat="45.89327" lon="4.67211">
        <ele>411</ele>
        <time>2018-05-18T10:09:23Z</time>
      </trkpt>
      <trkpt lat="45.89332" lon="4.67215">
        <ele>411</ele>
        <time>2018-05-18T10:09:24Z</time>
      </trkpt>
      <trkpt lat="45.89338" lon="4.67218">
        <ele>415</ele>
        <time>2018-05-18T10:09:25Z</time>
      </trkpt>
      <trkpt lat="45.89343" lon="4.67223">
        <ele>415</ele>
        <time>2018-05-18T10:09:26Z</time>
      </trkpt>
      <trkpt lat="45.89347" lon="4.67228">
        <ele>414</ele>
        <time>2018-05-18T10:09:27Z</time>
      </trkpt>
      <trkpt lat="45.89352" lon="4.67233">
        <ele>414</ele>
        <time>2018-05-18T10:09:28Z</time>
      </trkpt>
      <trkpt lat="45.89357" lon="4.67239">
        <ele>414</ele>
        <time>2018-05-18T10:09:29Z</time>
      </trkpt>
      <trkpt lat="45.89361" lon="4.67246">
        <ele>414</ele>
        <time>2018-05-18T10:09:30Z</time>
      </trkpt>
      <trkpt lat="45.89365" lon="4.67253">
        <ele>409</ele>
        <time>2018-05-18T10:09:31Z</time>
      </trkpt>
      <trkpt lat="45.89369" lon="4.6726">
        <ele>409</ele>
        <time>2018-05-18T10:09:32Z</time>
      </trkpt>
      <trkpt lat="45.89374" lon="4.67267">
        <ele>409</ele>
        <time>2018-05-18T10:09:33Z</time>
      </trkpt>
      <trkpt lat="45.89376" lon="4.67272">
        <ele>409</ele>
        <time>2018-05-18T10:09:34Z</time>
      </trkpt>
      <trkpt lat="45.8938" lon="4.67279">
        <ele>409</ele>
        <time>2018-05-18T10:09:35Z</time>
      </trkpt>
      <trkpt lat="45.89384" lon="4.67285">
        <ele>408</ele>
        <time>2018-05-18T10:09:36Z</time>
      </trkpt>
      <trkpt lat="45.89388" lon="4.67291">
        <ele>408</ele>
        <time>2018-05-18T10:09:37Z</time>
      </trkpt>
      <trkpt lat="45.89391" lon="4.67298">
        <ele>408</ele>
        <time>2018-05-18T10:09:38Z</time>
      </trkpt>
      <trkpt lat="45.89396" lon="4.67303">
        <ele>408</ele>
        <time>2018-05-18T10:09:39Z</time>
      </trkpt>
      <trkpt lat="45.89399" lon="4.67309">
        <ele>408</ele>
        <time>2018-05-18T10:09:40Z</time>
      </trkpt>
      <trkpt lat="45.89404" lon="4.67314">
        <ele>407</ele>
        <time>2018-05-18T10:09:41Z</time>
      </trkpt>
      <trkpt lat="45.89409" lon="4.67319">
        <ele>407</ele>
        <time>2018-05-18T10:09:42Z</time>
      </trkpt>
      <trkpt lat="45.89413" lon="4.67325">
        <ele>407</ele>
        <time>2018-05-18T10:09:43Z</time>
      </trkpt>
      <trkpt lat="45.89419" lon="4.6733">
        <ele>409</ele>
        <time>2018-05-18T10:09:44Z</time>
      </trkpt>
      <trkpt lat="45.89423" lon="4.67335">
        <ele>407</ele>
        <time>2018-05-18T10:09:45Z</time>
      </trkpt>
      <trkpt lat="45.8943" lon="4.6734">
        <ele>407</ele>
        <time>2018-05-18T10:09:46Z</time>
      </trkpt>
      <trkpt lat="45.89435" lon="4.67345">
        <ele>407</ele>
        <time>2018-05-18T10:09:47Z</time>
      </trkpt>
      <trkpt lat="45.89439" lon="4.6735">
        <ele>407</ele>
        <time>2018-05-18T10:09:48Z</time>
      </trkpt>
      <trkpt lat="45.89443" lon="4.67355">
        <ele>407</ele>
        <time>2018-05-18T10:09:49Z</time>
      </trkpt>
      <trkpt lat="45.89447" lon="4.67359">
        <ele>407</ele>
        <time>2018-05-18T10:09:50Z</time>
      </trkpt>
      <trkpt lat="45.89453" lon="4.67365">
        <ele>407</ele>
        <time>2018-05-18T10:09:51Z</time>
      </trkpt>
      <trkpt lat="45.89457" lon="4.67368">
        <ele>407</ele>
        <time>2018-05-18T10:09:52Z</time>
      </trkpt>
      <trkpt lat="45.89461" lon="4.67374">
        <ele>407</ele>
        <time>2018-05-18T10:09:53Z</time>
      </trkpt>
      <trkpt lat="45.89466" lon="4.67378">
        <ele>407</ele>
        <time>2018-05-18T10:09:54Z</time>
      </trkpt>
      <trkpt lat="45.89472" lon="4.67382">
        <ele>407</ele>
        <time>2018-05-18T10:09:55Z</time>
      </trkpt>
      <trkpt lat="45.89477" lon="4.67385">
        <ele>407</ele>
        <time>2018-05-18T10:09:56Z</time>
      </trkpt>
      <trkpt lat="45.89483" lon="4.6739">
        <ele>407</ele>
        <time>2018-05-18T10:09:57Z</time>
      </trkpt>
      <trkpt lat="45.89487" lon="4.67394">
        <ele>406</ele>
        <time>2018-05-18T10:09:58Z</time>
      </trkpt>
      <trkpt lat="45.89493" lon="4.67398">
        <ele>406</ele>
        <time>2018-05-18T10:09:59Z</time>
      </trkpt>
      <trkpt lat="45.89499" lon="4.67402">
        <ele>406</ele>
        <time>2018-05-18T10:10:00Z</time>
      </trkpt>
      <trkpt lat="45.89503" lon="4.67405">
        <ele>407</ele>
        <time>2018-05-18T10:10:01Z</time>
      </trkpt>
      <trkpt lat="45.89508" lon="4.67409">
        <ele>407</ele>
        <time>2018-05-18T10:10:02Z</time>
      </trkpt>
      <trkpt lat="45.89514" lon="4.67412">
        <ele>408</ele>
        <time>2018-05-18T10:10:03Z</time>
      </trkpt>
      <trkpt lat="45.89521" lon="4.67416">
        <ele>409</ele>
        <time>2018-05-18T10:10:04Z</time>
      </trkpt>
      <trkpt lat="45.89526" lon="4.67419">
        <ele>402</ele>
        <time>2018-05-18T10:10:05Z</time>
      </trkpt>
      <trkpt lat="45.89532" lon="4.67422">
        <ele>402</ele>
        <time>2018-05-18T10:10:06Z</time>
      </trkpt>
      <trkpt lat="45.89539" lon="4.67427">
        <ele>402</ele>
        <time>2018-05-18T10:10:07Z</time>
      </trkpt>
      <trkpt lat="45.89545" lon="4.67429">
        <ele>402</ele>
        <time>2018-05-18T10:10:08Z</time>
      </trkpt>
      <trkpt lat="45.89551" lon="4.67433">
        <ele>402</ele>
        <time>2018-05-18T10:10:09Z</time>
      </trkpt>
      <trkpt lat="45.89557" lon="4.67434">
        <ele>403</ele>
        <time>2018-05-18T10:10:10Z</time>
      </trkpt>
      <trkpt lat="45.89565" lon="4.67435">
        <ele>403</ele>
        <time>2018-05-18T10:10:11Z</time>
      </trkpt>
      <trkpt lat="45.89573" lon="4.67442">
        <ele>403</ele>
        <time>2018-05-18T10:10:12Z</time>
      </trkpt>
      <trkpt lat="45.89581" lon="4.67446">
        <ele>402</ele>
        <time>2018-05-18T10:10:13Z</time>
      </trkpt>
      <trkpt lat="45.89584" lon="4.67448">
        <ele>404</ele>
        <time>2018-05-18T10:10:14Z</time>
      </trkpt>
      <trkpt lat="45.89591" lon="4.67448">
        <ele>404</ele>
        <time>2018-05-18T10:10:15Z</time>
      </trkpt>
      <trkpt lat="45.89596" lon="4.67452">
        <ele>404</ele>
        <time>2018-05-18T10:10:16Z</time>
      </trkpt>
      <trkpt lat="45.89602" lon="4.67452">
        <ele>404</ele>
        <time>2018-05-18T10:10:17Z</time>
      </trkpt>
      <trkpt lat="45.89608" lon="4.67453">
        <ele>403</ele>
        <time>2018-05-18T10:10:18Z</time>
      </trkpt>
      <trkpt lat="45.89613" lon="4.67455">
        <ele>403</ele>
        <time>2018-05-18T10:10:19Z</time>
      </trkpt>
      <trkpt lat="45.8962" lon="4.67456">
        <ele>403</ele>
        <time>2018-05-18T10:10:20Z</time>
      </trkpt>
      <trkpt lat="45.89625" lon="4.67457">
        <ele>403</ele>
        <time>2018-05-18T10:10:21Z</time>
      </trkpt>
      <trkpt lat="45.89631" lon="4.6746">
        <ele>403</ele>
        <time>2018-05-18T10:10:22Z</time>
      </trkpt>
      <trkpt lat="45.89638" lon="4.67461">
        <ele>403</ele>
        <time>2018-05-18T10:10:23Z</time>
      </trkpt>
      <trkpt lat="45.89645" lon="4.67462">
        <ele>403</ele>
        <time>2018-05-18T10:10:24Z</time>
      </trkpt>
      <trkpt lat="45.89651" lon="4.67466">
        <ele>403</ele>
        <time>2018-05-18T10:10:25Z</time>
      </trkpt>
      <trkpt lat="45.89658" lon="4.67467">
        <ele>403</ele>
        <time>2018-05-18T10:10:26Z</time>
      </trkpt>
      <trkpt lat="45.89665" lon="4.67469">
        <ele>403</ele>
        <time>2018-05-18T10:10:27Z</time>
      </trkpt>
      <trkpt lat="45.89672" lon="4.67472">
        <ele>403</ele>
        <time>2018-05-18T10:10:28Z</time>
      </trkpt>
      <trkpt lat="45.89679" lon="4.67474">
        <ele>403</ele>
        <time>2018-05-18T10:10:29Z</time>
      </trkpt>
      <trkpt lat="45.89687" lon="4.67478">
        <ele>402</ele>
        <time>2018-05-18T10:10:30Z</time>
      </trkpt>
      <trkpt lat="45.89694" lon="4.67481">
        <ele>402</ele>
        <time>2018-05-18T10:10:31Z</time>
      </trkpt>
      <trkpt lat="45.89701" lon="4.67484">
        <ele>402</ele>
        <time>2018-05-18T10:10:32Z</time>
      </trkpt>
      <trkpt lat="45.89709" lon="4.67486">
        <ele>402</ele>
        <time>2018-05-18T10:10:33Z</time>
      </trkpt>
      <trkpt lat="45.89716" lon="4.67489">
        <ele>402</ele>
        <time>2018-05-18T10:10:34Z</time>
      </trkpt>
      <trkpt lat="45.89723" lon="4.67491">
        <ele>402</ele>
        <time>2018-05-18T10:10:35Z</time>
      </trkpt>
      <trkpt lat="45.89731" lon="4.67494">
        <ele>401</ele>
        <time>2018-05-18T10:10:36Z</time>
      </trkpt>
      <trkpt lat="45.89738" lon="4.67495">
        <ele>401</ele>
        <time>2018-05-18T10:10:37Z</time>
      </trkpt>
      <trkpt lat="45.89745" lon="4.67494">
        <ele>400</ele>
        <time>2018-05-18T10:10:38Z</time>
      </trkpt>
      <trkpt lat="45.89751" lon="4.67495">
        <ele>399</ele>
        <time>2018-05-18T10:10:39Z</time>
      </trkpt>
      <trkpt lat="45.89758" lon="4.67496">
        <ele>399</ele>
        <time>2018-05-18T10:10:40Z</time>
      </trkpt>
      <trkpt lat="45.89765" lon="4.67494">
        <ele>399</ele>
        <time>2018-05-18T10:10:41Z</time>
      </trkpt>
      <trkpt lat="45.89773" lon="4.67494">
        <ele>399</ele>
        <time>2018-05-18T10:10:42Z</time>
      </trkpt>
      <trkpt lat="45.8978" lon="4.67491">
        <ele>399</ele>
        <time>2018-05-18T10:10:43Z</time>
      </trkpt>
      <trkpt lat="45.89787" lon="4.67489">
        <ele>399</ele>
        <time>2018-05-18T10:10:44Z</time>
      </trkpt>
      <trkpt lat="45.89794" lon="4.67486">
        <ele>399</ele>
        <time>2018-05-18T10:10:45Z</time>
      </trkpt>
      <trkpt lat="45.89801" lon="4.67479">
        <ele>399</ele>
        <time>2018-05-18T10:10:46Z</time>
      </trkpt>
      <trkpt lat="45.89806" lon="4.67472">
        <ele>399</ele>
        <time>2018-05-18T10:10:47Z</time>
      </trkpt>
      <trkpt lat="45.89812" lon="4.67461">
        <ele>399</ele>
        <time>2018-05-18T10:10:48Z</time>
      </trkpt>
      <trkpt lat="45.89815" lon="4.67452">
        <ele>399</ele>
        <time>2018-05-18T10:10:49Z</time>
      </trkpt>
      <trkpt lat="45.89817" lon="4.67442">
        <ele>399</ele>
        <time>2018-05-18T10:10:50Z</time>
      </trkpt>
      <trkpt lat="45.89819" lon="4.6743">
        <ele>398</ele>
        <time>2018-05-18T10:10:51Z</time>
      </trkpt>
      <trkpt lat="45.89821" lon="4.67419">
        <ele>398</ele>
        <time>2018-05-18T10:10:52Z</time>
      </trkpt>
      <trkpt lat="45.89823" lon="4.67408">
        <ele>401</ele>
        <time>2018-05-18T10:10:53Z</time>
      </trkpt>
      <trkpt lat="45.89826" lon="4.67397">
        <ele>402</ele>
        <time>2018-05-18T10:10:54Z</time>
      </trkpt>
      <trkpt lat="45.89831" lon="4.67388">
        <ele>403</ele>
        <time>2018-05-18T10:10:55Z</time>
      </trkpt>
      <trkpt lat="45.89836" lon="4.67378">
        <ele>398</ele>
        <time>2018-05-18T10:10:56Z</time>
      </trkpt>
      <trkpt lat="45.89841" lon="4.6737">
        <ele>399</ele>
        <time>2018-05-18T10:10:57Z</time>
      </trkpt>
      <trkpt lat="45.89846" lon="4.67364">
        <ele>399</ele>
        <time>2018-05-18T10:10:58Z</time>
      </trkpt>
      <trkpt lat="45.89852" lon="4.67358">
        <ele>399</ele>
        <time>2018-05-18T10:10:59Z</time>
      </trkpt>
      <trkpt lat="45.89858" lon="4.67354">
        <ele>399</ele>
        <time>2018-05-18T10:11:00Z</time>
      </trkpt>
      <trkpt lat="45.89864" lon="4.6735">
        <ele>399</ele>
        <time>2018-05-18T10:11:01Z</time>
      </trkpt>
      <trkpt lat="45.89871" lon="4.67348">
        <ele>399</ele>
        <time>2018-05-18T10:11:02Z</time>
      </trkpt>
      <trkpt lat="45.89878" lon="4.67347">
        <ele>398</ele>
        <time>2018-05-18T10:11:03Z</time>
      </trkpt>
      <trkpt lat="45.89886" lon="4.67347">
        <ele>398</ele>
        <time>2018-05-18T10:11:04Z</time>
      </trkpt>
      <trkpt lat="45.89894" lon="4.67349">
        <ele>398</ele>
        <time>2018-05-18T10:11:05Z</time>
      </trkpt>
      <trkpt lat="45.89901" lon="4.67349">
        <ele>398</ele>
        <time>2018-05-18T10:11:06Z</time>
      </trkpt>
      <trkpt lat="45.89908" lon="4.67351">
        <ele>398</ele>
        <time>2018-05-18T10:11:07Z</time>
      </trkpt>
      <trkpt lat="45.89916" lon="4.67353">
        <ele>398</ele>
        <time>2018-05-18T10:11:08Z</time>
      </trkpt>
      <trkpt lat="45.89923" lon="4.67356">
        <ele>396</ele>
        <time>2018-05-18T10:11:09Z</time>
      </trkpt>
      <trkpt lat="45.89931" lon="4.6736">
        <ele>395</ele>
        <time>2018-05-18T10:11:10Z</time>
      </trkpt>
      <trkpt lat="45.89938" lon="4.67362">
        <ele>395</ele>
        <time>2018-05-18T10:11:11Z</time>
      </trkpt>
      <trkpt lat="45.89947" lon="4.67364">
        <ele>395</ele>
        <time>2018-05-18T10:11:12Z</time>
      </trkpt>
      <trkpt lat="45.89955" lon="4.67365">
        <ele>395</ele>
        <time>2018-05-18T10:11:13Z</time>
      </trkpt>
      <trkpt lat="45.89963" lon="4.67369">
        <ele>394</ele>
        <time>2018-05-18T10:11:14Z</time>
      </trkpt>
      <trkpt lat="45.89971" lon="4.67371">
        <ele>394</ele>
        <time>2018-05-18T10:11:15Z</time>
      </trkpt>
      <trkpt lat="45.89979" lon="4.67373">
        <ele>394</ele>
        <time>2018-05-18T10:11:16Z</time>
      </trkpt>
      <trkpt lat="45.89986" lon="4.67376">
        <ele>394</ele>
        <time>2018-05-18T10:11:17Z</time>
      </trkpt>
      <trkpt lat="45.89993" lon="4.67378">
        <ele>393</ele>
        <time>2018-05-18T10:11:18Z</time>
      </trkpt>
      <trkpt lat="45.9" lon="4.67381">
        <ele>393</ele>
        <time>2018-05-18T10:11:19Z</time>
      </trkpt>
      <trkpt lat="45.90009" lon="4.67389">
        <ele>395</ele>
        <time>2018-05-18T10:11:20Z</time>
      </trkpt>
      <trkpt lat="45.90017" lon="4.67394">
        <ele>394</ele>
        <time>2018-05-18T10:11:21Z</time>
      </trkpt>
      <trkpt lat="45.90024" lon="4.67401">
        <ele>394</ele>
        <time>2018-05-18T10:11:22Z</time>
      </trkpt>
      <trkpt lat="45.90031" lon="4.67409">
        <ele>394</ele>
        <time>2018-05-18T10:11:23Z</time>
      </trkpt>
      <trkpt lat="45.90039" lon="4.67416">
        <ele>395</ele>
        <time>2018-05-18T10:11:24Z</time>
      </trkpt>
      <trkpt lat="45.90045" lon="4.67423">
        <ele>385</ele>
        <time>2018-05-18T10:11:25Z</time>
      </trkpt>
      <trkpt lat="45.90052" lon="4.67431">
        <ele>385</ele>
        <time>2018-05-18T10:11:26Z</time>
      </trkpt>
      <trkpt lat="45.90059" lon="4.67438">
        <ele>385</ele>
        <time>2018-05-18T10:11:27Z</time>
      </trkpt>
      <trkpt lat="45.90066" lon="4.67445">
        <ele>385</ele>
        <time>2018-05-18T10:11:28Z</time>
      </trkpt>
      <trkpt lat="45.90073" lon="4.67452">
        <ele>384</ele>
        <time>2018-05-18T10:11:29Z</time>
      </trkpt>
      <trkpt lat="45.90079" lon="4.6746">
        <ele>383</ele>
        <time>2018-05-18T10:11:30Z</time>
      </trkpt>
      <trkpt lat="45.90086" lon="4.67467">
        <ele>387</ele>
        <time>2018-05-18T10:11:31Z</time>
      </trkpt>
      <trkpt lat="45.90092" lon="4.67476">
        <ele>385</ele>
        <time>2018-05-18T10:11:32Z</time>
      </trkpt>
      <trkpt lat="45.90097" lon="4.67483">
        <ele>384</ele>
        <time>2018-05-18T10:11:33Z</time>
      </trkpt>
      <trkpt lat="45.90103" lon="4.67491">
        <ele>384</ele>
        <time>2018-05-18T10:11:34Z</time>
      </trkpt>
      <trkpt lat="45.90109" lon="4.675">
        <ele>385</ele>
        <time>2018-05-18T10:11:35Z</time>
      </trkpt>
      <trkpt lat="45.90114" lon="4.67508">
        <ele>377</ele>
        <time>2018-05-18T10:11:36Z</time>
      </trkpt>
      <trkpt lat="45.90119" lon="4.67517">
        <ele>378</ele>
        <time>2018-05-18T10:11:37Z</time>
      </trkpt>
      <trkpt lat="45.90124" lon="4.67526">
        <ele>377</ele>
        <time>2018-05-18T10:11:38Z</time>
      </trkpt>
      <trkpt lat="45.90129" lon="4.67535">
        <ele>377</ele>
        <time>2018-05-18T10:11:39Z</time>
      </trkpt>
      <trkpt lat="45.90133" lon="4.67544">
        <ele>377</ele>
        <time>2018-05-18T10:11:40Z</time>
      </trkpt>
      <trkpt lat="45.90137" lon="4.67554">
        <ele>376</ele>
        <time>2018-05-18T10:11:41Z</time>
      </trkpt>
      <trkpt lat="45.90142" lon="4.67562">
        <ele>376</ele>
        <time>2018-05-18T10:11:42Z</time>
      </trkpt>
      <trkpt lat="45.90146" lon="4.67571">
        <ele>376</ele>
        <time>2018-05-18T10:11:43Z</time>
      </trkpt>
      <trkpt lat="45.90151" lon="4.67578">
        <ele>376</ele>
        <time>2018-05-18T10:11:44Z</time>
      </trkpt>
      <trkpt lat="45.90156" lon="4.67585">
        <ele>373</ele>
        <time>2018-05-18T10:11:45Z</time>
      </trkpt>
      <trkpt lat="45.90162" lon="4.67591">
        <ele>373</ele>
        <time>2018-05-18T10:11:46Z</time>
      </trkpt>
      <trkpt lat="45.90167" lon="4.67598">
        <ele>372</ele>
        <time>2018-05-18T10:11:47Z</time>
      </trkpt>
      <trkpt lat="45.90173" lon="4.67604">
        <ele>376</ele>
        <time>2018-05-18T10:11:48Z</time>
      </trkpt>
      <trkpt lat="45.90178" lon="4.6761">
        <ele>376</ele>
        <time>2018-05-18T10:11:49Z</time>
      </trkpt>
      <trkpt lat="45.90185" lon="4.67616">
        <ele>376</ele>
        <time>2018-05-18T10:11:50Z</time>
      </trkpt>
      <trkpt lat="45.90191" lon="4.67623">
        <ele>375</ele>
        <time>2018-05-18T10:11:51Z</time>
      </trkpt>
      <trkpt lat="45.90197" lon="4.67629">
        <ele>375</ele>
        <time>2018-05-18T10:11:52Z</time>
      </trkpt>
      <trkpt lat="45.90203" lon="4.67635">
        <ele>375</ele>
        <time>2018-05-18T10:11:53Z</time>
      </trkpt>
      <trkpt lat="45.90209" lon="4.67642">
        <ele>375</ele>
        <time>2018-05-18T10:11:54Z</time>
      </trkpt>
      <trkpt lat="45.90215" lon="4.67649">
        <ele>375</ele>
        <time>2018-05-18T10:11:55Z</time>
      </trkpt>
      <trkpt lat="45.90221" lon="4.67655">
        <ele>375</ele>
        <time>2018-05-18T10:11:56Z</time>
      </trkpt>
      <trkpt lat="45.90227" lon="4.67661">
        <ele>375</ele>
        <time>2018-05-18T10:11:57Z</time>
      </trkpt>
      <trkpt lat="45.90233" lon="4.67666">
        <ele>375</ele>
        <time>2018-05-18T10:11:58Z</time>
      </trkpt>
      <trkpt lat="45.90238" lon="4.67671">
        <ele>373</ele>
        <time>2018-05-18T10:11:59Z</time>
      </trkpt>
      <trkpt lat="45.90244" lon="4.67674">
        <ele>373</ele>
        <time>2018-05-18T10:12:00Z</time>
      </trkpt>
      <trkpt lat="45.9025" lon="4.67677">
        <ele>374</ele>
        <time>2018-05-18T10:12:01Z</time>
      </trkpt>
      <trkpt lat="45.90256" lon="4.6768">
        <ele>374</ele>
        <time>2018-05-18T10:12:02Z</time>
      </trkpt>
      <trkpt lat="45.90262" lon="4.67684">
        <ele>374</ele>
        <time>2018-05-18T10:12:03Z</time>
      </trkpt>
      <trkpt lat="45.90268" lon="4.67685">
        <ele>374</ele>
        <time>2018-05-18T10:12:04Z</time>
      </trkpt>
      <trkpt lat="45.90275" lon="4.67688">
        <ele>374</ele>
        <time>2018-05-18T10:12:05Z</time>
      </trkpt>
      <trkpt lat="45.90282" lon="4.6769">
        <ele>374</ele>
        <time>2018-05-18T10:12:06Z</time>
      </trkpt>
      <trkpt lat="45.90288" lon="4.67692">
        <ele>374</ele>
        <time>2018-05-18T10:12:07Z</time>
      </trkpt>
      <trkpt lat="45.90295" lon="4.67695">
        <ele>374</ele>
        <time>2018-05-18T10:12:08Z</time>
      </trkpt>
      <trkpt lat="45.90301" lon="4.67697">
        <ele>374</ele>
        <time>2018-05-18T10:12:09Z</time>
      </trkpt>
      <trkpt lat="45.90308" lon="4.677">
        <ele>374</ele>
        <time>2018-05-18T10:12:10Z</time>
      </trkpt>
      <trkpt lat="45.90314" lon="4.67703">
        <ele>374</ele>
        <time>2018-05-18T10:12:11Z</time>
      </trkpt>
      <trkpt lat="45.90321" lon="4.67705">
        <ele>374</ele>
        <time>2018-05-18T10:12:12Z</time>
      </trkpt>
      <trkpt lat="45.90329" lon="4.67708">
        <ele>374</ele>
        <time>2018-05-18T10:12:13Z</time>
      </trkpt>
      <trkpt lat="45.90337" lon="4.6771">
        <ele>372</ele>
        <time>2018-05-18T10:12:14Z</time>
      </trkpt>
      <trkpt lat="45.90344" lon="4.67713">
        <ele>372</ele>
        <time>2018-05-18T10:12:15Z</time>
      </trkpt>
      <trkpt lat="45.90352" lon="4.67715">
        <ele>371</ele>
        <time>2018-05-18T10:12:16Z</time>
      </trkpt>
      <trkpt lat="45.90359" lon="4.67718">
        <ele>371</ele>
        <time>2018-05-18T10:12:17Z</time>
      </trkpt>
      <trkpt lat="45.90367" lon="4.67721">
        <ele>371</ele>
        <time>2018-05-18T10:12:18Z</time>
      </trkpt>
      <trkpt lat="45.90375" lon="4.67723">
        <ele>371</ele>
        <time>2018-05-18T10:12:19Z</time>
      </trkpt>
      <trkpt lat="45.90383" lon="4.67726">
        <ele>370</ele>
        <time>2018-05-18T10:12:20Z</time>
      </trkpt>
      <trkpt lat="45.90391" lon="4.67729">
        <ele>370</ele>
        <time>2018-05-18T10:12:21Z</time>
      </trkpt>
      <trkpt lat="45.90398" lon="4.67733">
        <ele>369</ele>
        <time>2018-05-18T10:12:22Z</time>
      </trkpt>
      <trkpt lat="45.90407" lon="4.67736">
        <ele>368</ele>
        <time>2018-05-18T10:12:23Z</time>
      </trkpt>
      <trkpt lat="45.90415" lon="4.67739">
        <ele>367</ele>
        <time>2018-05-18T10:12:24Z</time>
      </trkpt>
      <trkpt lat="45.90423" lon="4.67742">
        <ele>366</ele>
        <time>2018-05-18T10:12:25Z</time>
      </trkpt>
      <trkpt lat="45.90431" lon="4.67744">
        <ele>366</ele>
        <time>2018-05-18T10:12:26Z</time>
      </trkpt>
      <trkpt lat="45.90439" lon="4.67747">
        <ele>366</ele>
        <time>2018-05-18T10:12:27Z</time>
      </trkpt>
      <trkpt lat="45.90447" lon="4.6775">
        <ele>367</ele>
        <time>2018-05-18T10:12:28Z</time>
      </trkpt>
      <trkpt lat="45.90455" lon="4.67753">
        <ele>364</ele>
        <time>2018-05-18T10:12:29Z</time>
      </trkpt>
      <trkpt lat="45.90463" lon="4.67756">
        <ele>364</ele>
        <time>2018-05-18T10:12:30Z</time>
      </trkpt>
      <trkpt lat="45.90471" lon="4.67759">
        <ele>364</ele>
        <time>2018-05-18T10:12:31Z</time>
      </trkpt>
      <trkpt lat="45.90479" lon="4.67762">
        <ele>364</ele>
        <time>2018-05-18T10:12:32Z</time>
      </trkpt>
      <trkpt lat="45.90486" lon="4.67765">
        <ele>364</ele>
        <time>2018-05-18T10:12:33Z</time>
      </trkpt>
      <trkpt lat="45.90494" lon="4.67767">
        <ele>364</ele>
        <time>2018-05-18T10:12:34Z</time>
      </trkpt>
      <trkpt lat="45.90501" lon="4.6777">
        <ele>364</ele>
        <time>2018-05-18T10:12:35Z</time>
      </trkpt>
      <trkpt lat="45.90509" lon="4.67772">
        <ele>364</ele>
        <time>2018-05-18T10:12:36Z</time>
      </trkpt>
      <trkpt lat="45.90516" lon="4.67776">
        <ele>365</ele>
        <time>2018-05-18T10:12:37Z</time>
      </trkpt>
      <trkpt lat="45.90522" lon="4.67778">
        <ele>365</ele>
        <time>2018-05-18T10:12:38Z</time>
      </trkpt>
      <trkpt lat="45.9053" lon="4.6778">
        <ele>365</ele>
        <time>2018-05-18T10:12:39Z</time>
      </trkpt>
      <trkpt lat="45.90536" lon="4.67782">
        <ele>365</ele>
        <time>2018-05-18T10:12:40Z</time>
      </trkpt>
      <trkpt lat="45.90543" lon="4.67784">
        <ele>365</ele>
        <time>2018-05-18T10:12:41Z</time>
      </trkpt>
      <trkpt lat="45.90549" lon="4.67786">
        <ele>365</ele>
        <time>2018-05-18T10:12:42Z</time>
      </trkpt>
      <trkpt lat="45.90554" lon="4.67787">
        <ele>365</ele>
        <time>2018-05-18T10:12:43Z</time>
      </trkpt>
      <trkpt lat="45.9056" lon="4.67788">
        <ele>365</ele>
        <time>2018-05-18T10:12:44Z</time>
      </trkpt>
      <trkpt lat="45.90566" lon="4.67789">
        <ele>365</ele>
        <time>2018-05-18T10:12:45Z</time>
      </trkpt>
      <trkpt lat="45.90572" lon="4.67791">
        <ele>365</ele>
        <time>2018-05-18T10:12:46Z</time>
      </trkpt>
      <trkpt lat="45.90577" lon="4.67792">
        <ele>366</ele>
        <time>2018-05-18T10:12:47Z</time>
      </trkpt>
      <trkpt lat="45.90583" lon="4.67793">
        <ele>366</ele>
        <time>2018-05-18T10:12:48Z</time>
      </trkpt>
      <trkpt lat="45.90587" lon="4.67793">
        <ele>367</ele>
        <time>2018-05-18T10:12:49Z</time>
      </trkpt>
      <trkpt lat="45.90593" lon="4.67793">
        <ele>367</ele>
        <time>2018-05-18T10:12:50Z</time>
      </trkpt>
      <trkpt lat="45.90598" lon="4.67794">
        <ele>367</ele>
        <time>2018-05-18T10:12:51Z</time>
      </trkpt>
      <trkpt lat="45.90603" lon="4.67795">
        <ele>367</ele>
        <time>2018-05-18T10:12:52Z</time>
      </trkpt>
      <trkpt lat="45.90609" lon="4.67794">
        <ele>367</ele>
        <time>2018-05-18T10:12:53Z</time>
      </trkpt>
      <trkpt lat="45.90613" lon="4.67794">
        <ele>367</ele>
        <time>2018-05-18T10:12:54Z</time>
      </trkpt>
      <trkpt lat="45.90618" lon="4.67794">
        <ele>367</ele>
        <time>2018-05-18T10:12:55Z</time>
      </trkpt>
      <trkpt lat="45.90623" lon="4.67794">
        <ele>367</ele>
        <time>2018-05-18T10:12:56Z</time>
      </trkpt>
      <trkpt lat="45.90629" lon="4.67792">
        <ele>367</ele>
        <time>2018-05-18T10:12:57Z</time>
      </trkpt>
      <trkpt lat="45.90634" lon="4.67794">
        <ele>367</ele>
        <time>2018-05-18T10:12:58Z</time>
      </trkpt>
      <trkpt lat="45.90639" lon="4.67794">
        <ele>367</ele>
        <time>2018-05-18T10:12:59Z</time>
      </trkpt>
      <trkpt lat="45.90644" lon="4.67795">
        <ele>367</ele>
        <time>2018-05-18T10:13:00Z</time>
      </trkpt>
      <trkpt lat="45.90649" lon="4.67794">
        <ele>367</ele>
        <time>2018-05-18T10:13:01Z</time>
      </trkpt>
      <trkpt lat="45.90654" lon="4.67794">
        <ele>368</ele>
        <time>2018-05-18T10:13:02Z</time>
      </trkpt>
      <trkpt lat="45.9066" lon="4.67793">
        <ele>368</ele>
        <time>2018-05-18T10:13:03Z</time>
      </trkpt>
      <trkpt lat="45.90665" lon="4.67794">
        <ele>368</ele>
        <time>2018-05-18T10:13:04Z</time>
      </trkpt>
      <trkpt lat="45.9067" lon="4.67796">
        <ele>368</ele>
        <time>2018-05-18T10:13:05Z</time>
      </trkpt>
      <trkpt lat="45.90675" lon="4.67796">
        <ele>368</ele>
        <time>2018-05-18T10:13:06Z</time>
      </trkpt>
      <trkpt lat="45.9068" lon="4.67798">
        <ele>368</ele>
        <time>2018-05-18T10:13:07Z</time>
      </trkpt>
      <trkpt lat="45.90684" lon="4.678">
        <ele>368</ele>
        <time>2018-05-18T10:13:08Z</time>
      </trkpt>
      <trkpt lat="45.90689" lon="4.67802">
        <ele>368</ele>
        <time>2018-05-18T10:13:09Z</time>
      </trkpt>
      <trkpt lat="45.90694" lon="4.67803">
        <ele>368</ele>
        <time>2018-05-18T10:13:10Z</time>
      </trkpt>
      <trkpt lat="45.90699" lon="4.67804">
        <ele>368</ele>
        <time>2018-05-18T10:13:11Z</time>
      </trkpt>
      <trkpt lat="45.90707" lon="4.67808">
        <ele>368</ele>
        <time>2018-05-18T10:13:13Z</time>
      </trkpt>
      <trkpt lat="45.90711" lon="4.6781">
        <ele>368</ele>
        <time>2018-05-18T10:13:14Z</time>
      </trkpt>
      <trkpt lat="45.90716" lon="4.67812">
        <ele>369</ele>
        <time>2018-05-18T10:13:15Z</time>
      </trkpt>
      <trkpt lat="45.90721" lon="4.67814">
        <ele>369</ele>
        <time>2018-05-18T10:13:16Z</time>
      </trkpt>
      <trkpt lat="45.90725" lon="4.67816">
        <ele>369</ele>
        <time>2018-05-18T10:13:17Z</time>
      </trkpt>
      <trkpt lat="45.90729" lon="4.67817">
        <ele>369</ele>
        <time>2018-05-18T10:13:18Z</time>
      </trkpt>
      <trkpt lat="45.90738" lon="4.67822">
        <ele>369</ele>
        <time>2018-05-18T10:13:20Z</time>
      </trkpt>
      <trkpt lat="45.90742" lon="4.67822">
        <ele>370</ele>
        <time>2018-05-18T10:13:21Z</time>
      </trkpt>
      <trkpt lat="45.90747" lon="4.67824">
        <ele>370</ele>
        <time>2018-05-18T10:13:22Z</time>
      </trkpt>
      <trkpt lat="45.90751" lon="4.67825">
        <ele>370</ele>
        <time>2018-05-18T10:13:23Z</time>
      </trkpt>
      <trkpt lat="45.9076" lon="4.67829">
        <ele>370</ele>
        <time>2018-05-18T10:13:25Z</time>
      </trkpt>
      <trkpt lat="45.90764" lon="4.6783">
        <ele>369</ele>
        <time>2018-05-18T10:13:26Z</time>
      </trkpt>
      <trkpt lat="45.90773" lon="4.67834">
        <ele>371</ele>
        <time>2018-05-18T10:13:28Z</time>
      </trkpt>
      <trkpt lat="45.90777" lon="4.67836">
        <ele>371</ele>
        <time>2018-05-18T10:13:29Z</time>
      </trkpt>
      <trkpt lat="45.90785" lon="4.6784">
        <ele>371</ele>
        <time>2018-05-18T10:13:31Z</time>
      </trkpt>
      <trkpt lat="45.9079" lon="4.67842">
        <ele>371</ele>
        <time>2018-05-18T10:13:32Z</time>
      </trkpt>
      <trkpt lat="45.90794" lon="4.67842">
        <ele>371</ele>
        <time>2018-05-18T10:13:33Z</time>
      </trkpt>
      <trkpt lat="45.90799" lon="4.67843">
        <ele>371</ele>
        <time>2018-05-18T10:13:34Z</time>
      </trkpt>
      <trkpt lat="45.90803" lon="4.67845">
        <ele>371</ele>
        <time>2018-05-18T10:13:35Z</time>
      </trkpt>
      <trkpt lat="45.90808" lon="4.67846">
        <ele>371</ele>
        <time>2018-05-18T10:13:36Z</time>
      </trkpt>
      <trkpt lat="45.90812" lon="4.67848">
        <ele>371</ele>
        <time>2018-05-18T10:13:37Z</time>
      </trkpt>
      <trkpt lat="45.90816" lon="4.67849">
        <ele>371</ele>
        <time>2018-05-18T10:13:38Z</time>
      </trkpt>
      <trkpt lat="45.90825" lon="4.67852">
        <ele>370</ele>
        <time>2018-05-18T10:13:40Z</time>
      </trkpt>
      <trkpt lat="45.90829" lon="4.67853">
        <ele>370</ele>
        <time>2018-05-18T10:13:41Z</time>
      </trkpt>
      <trkpt lat="45.90838" lon="4.67856">
        <ele>370</ele>
        <time>2018-05-18T10:13:43Z</time>
      </trkpt>
      <trkpt lat="45.90843" lon="4.67857">
        <ele>370</ele>
        <time>2018-05-18T10:13:44Z</time>
      </trkpt>
      <trkpt lat="45.90846" lon="4.67859">
        <ele>370</ele>
        <time>2018-05-18T10:13:45Z</time>
      </trkpt>
      <trkpt lat="45.90852" lon="4.67861">
        <ele>370</ele>
        <time>2018-05-18T10:13:46Z</time>
      </trkpt>
      <trkpt lat="45.9086" lon="4.67864">
        <ele>370</ele>
        <time>2018-05-18T10:13:48Z</time>
      </trkpt>
      <trkpt lat="45.90864" lon="4.67863">
        <ele>370</ele>
        <time>2018-05-18T10:13:49Z</time>
      </trkpt>
      <trkpt lat="45.90869" lon="4.67865">
        <ele>370</ele>
        <time>2018-05-18T10:13:50Z</time>
      </trkpt>
      <trkpt lat="45.90873" lon="4.67867">
        <ele>370</ele>
        <time>2018-05-18T10:13:51Z</time>
      </trkpt>
      <trkpt lat="45.90879" lon="4.67871">
        <ele>370</ele>
        <time>2018-05-18T10:13:52Z</time>
      </trkpt>
      <trkpt lat="45.90883" lon="4.67873">
        <ele>370</ele>
        <time>2018-05-18T10:13:53Z</time>
      </trkpt>
      <trkpt lat="45.90888" lon="4.67874">
        <ele>370</ele>
        <time>2018-05-18T10:13:54Z</time>
      </trkpt>
      <trkpt lat="45.90893" lon="4.67876">
        <ele>370</ele>
        <time>2018-05-18T10:13:55Z</time>
      </trkpt>
      <trkpt lat="45.90897" lon="4.67878">
        <ele>370</ele>
        <time>2018-05-18T10:13:56Z</time>
      </trkpt>
      <trkpt lat="45.90902" lon="4.67879">
        <ele>370</ele>
        <time>2018-05-18T10:13:57Z</time>
      </trkpt>
      <trkpt lat="45.90906" lon="4.67881">
        <ele>370</ele>
        <time>2018-05-18T10:13:58Z</time>
      </trkpt>
      <trkpt lat="45.9091" lon="4.67883">
        <ele>370</ele>
        <time>2018-05-18T10:13:59Z</time>
      </trkpt>
      <trkpt lat="45.90915" lon="4.67885">
        <ele>370</ele>
        <time>2018-05-18T10:14:00Z</time>
      </trkpt>
      <trkpt lat="45.90919" lon="4.67887">
        <ele>370</ele>
        <time>2018-05-18T10:14:01Z</time>
      </trkpt>
      <trkpt lat="45.90926" lon="4.67891">
        <ele>370</ele>
        <time>2018-05-18T10:14:03Z</time>
      </trkpt>
      <trkpt lat="45.9093" lon="4.67893">
        <ele>370</ele>
        <time>2018-05-18T10:14:04Z</time>
      </trkpt>
      <trkpt lat="45.90933" lon="4.67896">
        <ele>370</ele>
        <time>2018-05-18T10:14:05Z</time>
      </trkpt>
      <trkpt lat="45.90938" lon="4.67897">
        <ele>370</ele>
        <time>2018-05-18T10:14:06Z</time>
      </trkpt>
      <trkpt lat="45.90946" lon="4.679">
        <ele>370</ele>
        <time>2018-05-18T10:14:08Z</time>
      </trkpt>
      <trkpt lat="45.9095" lon="4.67902">
        <ele>370</ele>
        <time>2018-05-18T10:14:09Z</time>
      </trkpt>
      <trkpt lat="45.90958" lon="4.67906">
        <ele>370</ele>
        <time>2018-05-18T10:14:11Z</time>
      </trkpt>
      <trkpt lat="45.90962" lon="4.67908">
        <ele>370</ele>
        <time>2018-05-18T10:14:12Z</time>
      </trkpt>
      <trkpt lat="45.9097" lon="4.67913">
        <ele>370</ele>
        <time>2018-05-18T10:14:14Z</time>
      </trkpt>
      <trkpt lat="45.90972" lon="4.67913">
        <ele>370</ele>
        <time>2018-05-18T10:14:15Z</time>
      </trkpt>
      <trkpt lat="45.90978" lon="4.67916">
        <ele>370</ele>
        <time>2018-05-18T10:14:16Z</time>
      </trkpt>
      <trkpt lat="45.90982" lon="4.67918">
        <ele>372</ele>
        <time>2018-05-18T10:14:17Z</time>
      </trkpt>
      <trkpt lat="45.90989" lon="4.67921">
        <ele>372</ele>
        <time>2018-05-18T10:14:19Z</time>
      </trkpt>
      <trkpt lat="45.90993" lon="4.67923">
        <ele>372</ele>
        <time>2018-05-18T10:14:20Z</time>
      </trkpt>
      <trkpt lat="45.91" lon="4.67927">
        <ele>373</ele>
        <time>2018-05-18T10:14:22Z</time>
      </trkpt>
      <trkpt lat="45.91004" lon="4.67929">
        <ele>373</ele>
        <time>2018-05-18T10:14:23Z</time>
      </trkpt>
      <trkpt lat="45.91009" lon="4.67932">
        <ele>373</ele>
        <time>2018-05-18T10:14:25Z</time>
      </trkpt>
      <trkpt lat="45.91014" lon="4.67934">
        <ele>373</ele>
        <time>2018-05-18T10:14:26Z</time>
      </trkpt>
      <trkpt lat="45.9102" lon="4.67937">
        <ele>374</ele>
        <time>2018-05-18T10:14:29Z</time>
      </trkpt>
      <trkpt lat="45.91028" lon="4.6794">
        <ele>374</ele>
        <time>2018-05-18T10:14:30Z</time>
      </trkpt>
      <trkpt lat="45.91035" lon="4.67943">
        <ele>374</ele>
        <time>2018-05-18T10:14:33Z</time>
      </trkpt>
      <trkpt lat="45.91038" lon="4.67944">
        <ele>374</ele>
        <time>2018-05-18T10:14:34Z</time>
      </trkpt>
      <trkpt lat="45.91045" lon="4.67947">
        <ele>374</ele>
        <time>2018-05-18T10:14:37Z</time>
      </trkpt>
      <trkpt lat="45.91048" lon="4.67948">
        <ele>375</ele>
        <time>2018-05-18T10:14:38Z</time>
      </trkpt>
      <trkpt lat="45.91054" lon="4.67951">
        <ele>375</ele>
        <time>2018-05-18T10:14:40Z</time>
      </trkpt>
      <trkpt lat="45.91057" lon="4.67951">
        <ele>375</ele>
        <time>2018-05-18T10:14:41Z</time>
      </trkpt>
      <trkpt lat="45.91064" lon="4.67952">
        <ele>375</ele>
        <time>2018-05-18T10:14:43Z</time>
      </trkpt>
      <trkpt lat="45.91067" lon="4.67953">
        <ele>375</ele>
        <time>2018-05-18T10:14:44Z</time>
      </trkpt>
      <trkpt lat="45.91073" lon="4.67955">
        <ele>375</ele>
        <time>2018-05-18T10:14:46Z</time>
      </trkpt>
      <trkpt lat="45.91076" lon="4.67955">
        <ele>375</ele>
        <time>2018-05-18T10:14:47Z</time>
      </trkpt>
      <trkpt lat="45.91083" lon="4.67957">
        <ele>375</ele>
        <time>2018-05-18T10:14:49Z</time>
      </trkpt>
      <trkpt lat="45.91086" lon="4.67958">
        <ele>376</ele>
        <time>2018-05-18T10:14:50Z</time>
      </trkpt>
      <trkpt lat="45.91093" lon="4.67959">
        <ele>377</ele>
        <time>2018-05-18T10:14:52Z</time>
      </trkpt>
      <trkpt lat="45.91096" lon="4.6796">
        <ele>377</ele>
        <time>2018-05-18T10:14:53Z</time>
      </trkpt>
      <trkpt lat="45.91102" lon="4.67962">
        <ele>377</ele>
        <time>2018-05-18T10:14:55Z</time>
      </trkpt>
      <trkpt lat="45.91111" lon="4.67964">
        <ele>377</ele>
        <time>2018-05-18T10:14:56Z</time>
      </trkpt>
      <trkpt lat="45.91119" lon="4.67966">
        <ele>377</ele>
        <time>2018-05-18T10:15:00Z</time>
      </trkpt>
      <trkpt lat="45.91122" lon="4.67967">
        <ele>377</ele>
        <time>2018-05-18T10:15:01Z</time>
      </trkpt>
      <trkpt lat="45.91129" lon="4.6797">
        <ele>377</ele>
        <time>2018-05-18T10:15:04Z</time>
      </trkpt>
      <trkpt lat="45.91138" lon="4.67974">
        <ele>377</ele>
        <time>2018-05-18T10:15:05Z</time>
      </trkpt>
      <trkpt lat="45.91146" lon="4.67978">
        <ele>378</ele>
        <time>2018-05-18T10:15:09Z</time>
      </trkpt>
      <trkpt lat="45.91148" lon="4.67979">
        <ele>378</ele>
        <time>2018-05-18T10:15:10Z</time>
      </trkpt>
      <trkpt lat="45.91157" lon="4.67983">
        <ele>379</ele>
        <time>2018-05-18T10:15:13Z</time>
      </trkpt>
      <trkpt lat="45.91159" lon="4.67985">
        <ele>379</ele>
        <time>2018-05-18T10:15:14Z</time>
      </trkpt>
      <trkpt lat="45.91165" lon="4.67988">
        <ele>379</ele>
        <time>2018-05-18T10:15:16Z</time>
      </trkpt>
      <trkpt lat="45.91168" lon="4.6799">
        <ele>380</ele>
        <time>2018-05-18T10:15:17Z</time>
      </trkpt>
      <trkpt lat="45.91174" lon="4.67994">
        <ele>380</ele>
        <time>2018-05-18T10:15:19Z</time>
      </trkpt>
      <trkpt lat="45.91177" lon="4.67995">
        <ele>380</ele>
        <time>2018-05-18T10:15:20Z</time>
      </trkpt>
      <trkpt lat="45.91183" lon="4.67999">
        <ele>380</ele>
        <time>2018-05-18T10:15:22Z</time>
      </trkpt>
      <trkpt lat="45.91186" lon="4.68">
        <ele>382</ele>
        <time>2018-05-18T10:15:23Z</time>
      </trkpt>
      <trkpt lat="45.91195" lon="4.68005">
        <ele>383</ele>
        <time>2018-05-18T10:15:24Z</time>
      </trkpt>
      <trkpt lat="45.91203" lon="4.6801">
        <ele>383</ele>
        <time>2018-05-18T10:15:28Z</time>
      </trkpt>
      <trkpt lat="45.91205" lon="4.68011">
        <ele>383</ele>
        <time>2018-05-18T10:15:29Z</time>
      </trkpt>
      <trkpt lat="45.91211" lon="4.68014">
        <ele>383</ele>
        <time>2018-05-18T10:15:31Z</time>
      </trkpt>
      <trkpt lat="45.91214" lon="4.68015">
        <ele>383</ele>
        <time>2018-05-18T10:15:32Z</time>
      </trkpt>
      <trkpt lat="45.91223" lon="4.68019">
        <ele>384</ele>
        <time>2018-05-18T10:15:33Z</time>
      </trkpt>
      <trkpt lat="45.91231" lon="4.68023">
        <ele>384</ele>
        <time>2018-05-18T10:15:37Z</time>
      </trkpt>
      <trkpt lat="45.91234" lon="4.68025">
        <ele>384</ele>
        <time>2018-05-18T10:15:38Z</time>
      </trkpt>
      <trkpt lat="45.91239" lon="4.68028">
        <ele>384</ele>
        <time>2018-05-18T10:15:40Z</time>
      </trkpt>
      <trkpt lat="45.91248" lon="4.68033">
        <ele>384</ele>
        <time>2018-05-18T10:15:41Z</time>
      </trkpt>
      <trkpt lat="45.91256" lon="4.68036">
        <ele>385</ele>
        <time>2018-05-18T10:15:45Z</time>
      </trkpt>
      <trkpt lat="45.91264" lon="4.6804">
        <ele>385</ele>
        <time>2018-05-18T10:15:46Z</time>
      </trkpt>
      <trkpt lat="45.9127" lon="4.68044">
        <ele>385</ele>
        <time>2018-05-18T10:15:48Z</time>
      </trkpt>
      <trkpt lat="45.91274" lon="4.68046">
        <ele>385</ele>
        <time>2018-05-18T10:15:49Z</time>
      </trkpt>
      <trkpt lat="45.91282" lon="4.68049">
        <ele>385</ele>
        <time>2018-05-18T10:15:53Z</time>
      </trkpt>
      <trkpt lat="45.91285" lon="4.68051">
        <ele>385</ele>
        <time>2018-05-18T10:15:54Z</time>
      </trkpt>
      <trkpt lat="45.91293" lon="4.68054">
        <ele>385</ele>
        <time>2018-05-18T10:15:55Z</time>
      </trkpt>
      <trkpt lat="45.91295" lon="4.68055">
        <ele>385</ele>
        <time>2018-05-18T10:15:56Z</time>
      </trkpt>
      <trkpt lat="45.913" lon="4.68057">
        <ele>385</ele>
        <time>2018-05-18T10:15:58Z</time>
      </trkpt>
      <trkpt lat="45.91307" lon="4.68059">
        <ele>385</ele>
        <time>2018-05-18T10:15:59Z</time>
      </trkpt>
      <trkpt lat="45.91314" lon="4.68061">
        <ele>385</ele>
        <time>2018-05-18T10:16:01Z</time>
      </trkpt>
      <trkpt lat="45.91318" lon="4.68063">
        <ele>385</ele>
        <time>2018-05-18T10:16:02Z</time>
      </trkpt>
      <trkpt lat="45.91325" lon="4.68067">
        <ele>385</ele>
        <time>2018-05-18T10:16:04Z</time>
      </trkpt>
      <trkpt lat="45.91329" lon="4.68069">
        <ele>385</ele>
        <time>2018-05-18T10:16:05Z</time>
      </trkpt>
      <trkpt lat="45.91337" lon="4.68073">
        <ele>385</ele>
        <time>2018-05-18T10:16:07Z</time>
      </trkpt>
      <trkpt lat="45.91341" lon="4.68075">
        <ele>385</ele>
        <time>2018-05-18T10:16:08Z</time>
      </trkpt>
      <trkpt lat="45.91349" lon="4.68078">
        <ele>385</ele>
        <time>2018-05-18T10:16:10Z</time>
      </trkpt>
      <trkpt lat="45.91354" lon="4.68081">
        <ele>385</ele>
        <time>2018-05-18T10:16:11Z</time>
      </trkpt>
      <trkpt lat="45.91362" lon="4.68085">
        <ele>386</ele>
        <time>2018-05-18T10:16:13Z</time>
      </trkpt>
      <trkpt lat="45.91365" lon="4.68086">
        <ele>386</ele>
        <time>2018-05-18T10:16:14Z</time>
      </trkpt>
      <trkpt lat="45.9137" lon="4.68088">
        <ele>386</ele>
        <time>2018-05-18T10:16:15Z</time>
      </trkpt>
      <trkpt lat="45.91375" lon="4.68089">
        <ele>386</ele>
        <time>2018-05-18T10:16:16Z</time>
      </trkpt>
      <trkpt lat="45.91383" lon="4.68091">
        <ele>386</ele>
        <time>2018-05-18T10:16:18Z</time>
      </trkpt>
      <trkpt lat="45.91387" lon="4.68091">
        <ele>386</ele>
        <time>2018-05-18T10:16:19Z</time>
      </trkpt>
      <trkpt lat="45.91396" lon="4.68092">
        <ele>386</ele>
        <time>2018-05-18T10:16:21Z</time>
      </trkpt>
      <trkpt lat="45.914" lon="4.68092">
        <ele>386</ele>
        <time>2018-05-18T10:16:22Z</time>
      </trkpt>
      <trkpt lat="45.91405" lon="4.6809">
        <ele>386</ele>
        <time>2018-05-18T10:16:23Z</time>
      </trkpt>
      <trkpt lat="45.9141" lon="4.68089">
        <ele>386</ele>
        <time>2018-05-18T10:16:24Z</time>
      </trkpt>
      <trkpt lat="45.91415" lon="4.68087">
        <ele>386</ele>
        <time>2018-05-18T10:16:25Z</time>
      </trkpt>
      <trkpt lat="45.9142" lon="4.68085">
        <ele>386</ele>
        <time>2018-05-18T10:16:26Z</time>
      </trkpt>
      <trkpt lat="45.91425" lon="4.68085">
        <ele>385</ele>
        <time>2018-05-18T10:16:27Z</time>
      </trkpt>
      <trkpt lat="45.9143" lon="4.68086">
        <ele>385</ele>
        <time>2018-05-18T10:16:28Z</time>
      </trkpt>
      <trkpt lat="45.91436" lon="4.68085">
        <ele>385</ele>
        <time>2018-05-18T10:16:29Z</time>
      </trkpt>
      <trkpt lat="45.91441" lon="4.68087">
        <ele>385</ele>
        <time>2018-05-18T10:16:30Z</time>
      </trkpt>
      <trkpt lat="45.91446" lon="4.68087">
        <ele>384</ele>
        <time>2018-05-18T10:16:31Z</time>
      </trkpt>
      <trkpt lat="45.91451" lon="4.68088">
        <ele>384</ele>
        <time>2018-05-18T10:16:32Z</time>
      </trkpt>
      <trkpt lat="45.91457" lon="4.6809">
        <ele>384</ele>
        <time>2018-05-18T10:16:33Z</time>
      </trkpt>
      <trkpt lat="45.91463" lon="4.68093">
        <ele>384</ele>
        <time>2018-05-18T10:16:34Z</time>
      </trkpt>
      <trkpt lat="45.91468" lon="4.68098">
        <ele>384</ele>
        <time>2018-05-18T10:16:35Z</time>
      </trkpt>
      <trkpt lat="45.91474" lon="4.681">
        <ele>384</ele>
        <time>2018-05-18T10:16:36Z</time>
      </trkpt>
      <trkpt lat="45.9148" lon="4.68103">
        <ele>383</ele>
        <time>2018-05-18T10:16:37Z</time>
      </trkpt>
      <trkpt lat="45.91485" lon="4.68108">
        <ele>383</ele>
        <time>2018-05-18T10:16:38Z</time>
      </trkpt>
      <trkpt lat="45.91491" lon="4.68112">
        <ele>383</ele>
        <time>2018-05-18T10:16:39Z</time>
      </trkpt>
      <trkpt lat="45.91497" lon="4.68116">
        <ele>383</ele>
        <time>2018-05-18T10:16:40Z</time>
      </trkpt>
      <trkpt lat="45.91503" lon="4.68118">
        <ele>380</ele>
        <time>2018-05-18T10:16:41Z</time>
      </trkpt>
      <trkpt lat="45.9151" lon="4.68122">
        <ele>380</ele>
        <time>2018-05-18T10:16:42Z</time>
      </trkpt>
      <trkpt lat="45.91516" lon="4.68127">
        <ele>380</ele>
        <time>2018-05-18T10:16:43Z</time>
      </trkpt>
      <trkpt lat="45.91523" lon="4.68129">
        <ele>379</ele>
        <time>2018-05-18T10:16:44Z</time>
      </trkpt>
      <trkpt lat="45.9153" lon="4.68133">
        <ele>379</ele>
        <time>2018-05-18T10:16:45Z</time>
      </trkpt>
      <trkpt lat="45.91537" lon="4.68136">
        <ele>379</ele>
        <time>2018-05-18T10:16:46Z</time>
      </trkpt>
      <trkpt lat="45.91545" lon="4.6814">
        <ele>379</ele>
        <time>2018-05-18T10:16:47Z</time>
      </trkpt>
      <trkpt lat="45.91551" lon="4.68145">
        <ele>379</ele>
        <time>2018-05-18T10:16:48Z</time>
      </trkpt>
      <trkpt lat="45.91557" lon="4.68148">
        <ele>379</ele>
        <time>2018-05-18T10:16:49Z</time>
      </trkpt>
      <trkpt lat="45.91564" lon="4.68149">
        <ele>378</ele>
        <time>2018-05-18T10:16:50Z</time>
      </trkpt>
      <trkpt lat="45.91571" lon="4.68154">
        <ele>378</ele>
        <time>2018-05-18T10:16:52Z</time>
      </trkpt>
      <trkpt lat="45.91575" lon="4.68154">
        <ele>378</ele>
        <time>2018-05-18T10:16:53Z</time>
      </trkpt>
      <trkpt lat="45.91579" lon="4.68155">
        <ele>378</ele>
        <time>2018-05-18T10:16:54Z</time>
      </trkpt>
      <trkpt lat="45.91583" lon="4.68159">
        <ele>378</ele>
        <time>2018-05-18T10:16:55Z</time>
      </trkpt>
      <trkpt lat="45.91588" lon="4.68164">
        <ele>377</ele>
        <time>2018-05-18T10:16:56Z</time>
      </trkpt>
      <trkpt lat="45.91595" lon="4.68168">
        <ele>377</ele>
        <time>2018-05-18T10:16:57Z</time>
      </trkpt>
      <trkpt lat="45.916" lon="4.68173">
        <ele>376</ele>
        <time>2018-05-18T10:16:58Z</time>
      </trkpt>
      <trkpt lat="45.91605" lon="4.68179">
        <ele>376</ele>
        <time>2018-05-18T10:16:59Z</time>
      </trkpt>
      <trkpt lat="45.91611" lon="4.68184">
        <ele>375</ele>
        <time>2018-05-18T10:17:00Z</time>
      </trkpt>
      <trkpt lat="45.91617" lon="4.68188">
        <ele>375</ele>
        <time>2018-05-18T10:17:01Z</time>
      </trkpt>
      <trkpt lat="45.91623" lon="4.68195">
        <ele>375</ele>
        <time>2018-05-18T10:17:02Z</time>
      </trkpt>
      <trkpt lat="45.91629" lon="4.682">
        <ele>375</ele>
        <time>2018-05-18T10:17:03Z</time>
      </trkpt>
      <trkpt lat="45.91636" lon="4.68204">
        <ele>374</ele>
        <time>2018-05-18T10:17:04Z</time>
      </trkpt>
      <trkpt lat="45.91643" lon="4.68208">
        <ele>374</ele>
        <time>2018-05-18T10:17:05Z</time>
      </trkpt>
      <trkpt lat="45.91649" lon="4.68213">
        <ele>374</ele>
        <time>2018-05-18T10:17:06Z</time>
      </trkpt>
      <trkpt lat="45.91655" lon="4.68218">
        <ele>374</ele>
        <time>2018-05-18T10:17:07Z</time>
      </trkpt>
      <trkpt lat="45.91662" lon="4.68222">
        <ele>374</ele>
        <time>2018-05-18T10:17:08Z</time>
      </trkpt>
      <trkpt lat="45.91669" lon="4.68227">
        <ele>371</ele>
        <time>2018-05-18T10:17:09Z</time>
      </trkpt>
      <trkpt lat="45.91676" lon="4.68232">
        <ele>371</ele>
        <time>2018-05-18T10:17:10Z</time>
      </trkpt>
      <trkpt lat="45.91683" lon="4.68238">
        <ele>371</ele>
        <time>2018-05-18T10:17:11Z</time>
      </trkpt>
      <trkpt lat="45.91689" lon="4.68243">
        <ele>371</ele>
        <time>2018-05-18T10:17:12Z</time>
      </trkpt>
      <trkpt lat="45.91696" lon="4.68246">
        <ele>371</ele>
        <time>2018-05-18T10:17:13Z</time>
      </trkpt>
      <trkpt lat="45.91702" lon="4.68252">
        <ele>373</ele>
        <time>2018-05-18T10:17:14Z</time>
      </trkpt>
      <trkpt lat="45.91709" lon="4.68255">
        <ele>373</ele>
        <time>2018-05-18T10:17:15Z</time>
      </trkpt>
      <trkpt lat="45.91716" lon="4.68256">
        <ele>373</ele>
        <time>2018-05-18T10:17:16Z</time>
      </trkpt>
      <trkpt lat="45.91724" lon="4.68259">
        <ele>372</ele>
        <time>2018-05-18T10:17:17Z</time>
      </trkpt>
      <trkpt lat="45.9173" lon="4.6826">
        <ele>372</ele>
        <time>2018-05-18T10:17:18Z</time>
      </trkpt>
      <trkpt lat="45.91736" lon="4.68261">
        <ele>372</ele>
        <time>2018-05-18T10:17:19Z</time>
      </trkpt>
      <trkpt lat="45.91741" lon="4.68264">
        <ele>372</ele>
        <time>2018-05-18T10:17:20Z</time>
      </trkpt>
      <trkpt lat="45.91746" lon="4.68265">
        <ele>372</ele>
        <time>2018-05-18T10:17:21Z</time>
      </trkpt>
      <trkpt lat="45.91751" lon="4.68266">
        <ele>371</ele>
        <time>2018-05-18T10:17:22Z</time>
      </trkpt>
      <trkpt lat="45.91757" lon="4.68267">
        <ele>372</ele>
        <time>2018-05-18T10:17:23Z</time>
      </trkpt>
      <trkpt lat="45.91762" lon="4.68269">
        <ele>372</ele>
        <time>2018-05-18T10:17:24Z</time>
      </trkpt>
      <trkpt lat="45.91766" lon="4.68269">
        <ele>372</ele>
        <time>2018-05-18T10:17:25Z</time>
      </trkpt>
      <trkpt lat="45.91773" lon="4.68269">
        <ele>372</ele>
        <time>2018-05-18T10:17:26Z</time>
      </trkpt>
      <trkpt lat="45.91778" lon="4.68271">
        <ele>372</ele>
        <time>2018-05-18T10:17:27Z</time>
      </trkpt>
      <trkpt lat="45.91782" lon="4.68272">
        <ele>372</ele>
        <time>2018-05-18T10:17:28Z</time>
      </trkpt>
      <trkpt lat="45.91787" lon="4.68273">
        <ele>372</ele>
        <time>2018-05-18T10:17:29Z</time>
      </trkpt>
      <trkpt lat="45.91795" lon="4.68277">
        <ele>372</ele>
        <time>2018-05-18T10:17:31Z</time>
      </trkpt>
      <trkpt lat="45.918" lon="4.68278">
        <ele>373</ele>
        <time>2018-05-18T10:17:32Z</time>
      </trkpt>
      <trkpt lat="45.91808" lon="4.6828">
        <ele>373</ele>
        <time>2018-05-18T10:17:34Z</time>
      </trkpt>
      <trkpt lat="45.91812" lon="4.68282">
        <ele>373</ele>
        <time>2018-05-18T10:17:35Z</time>
      </trkpt>
      <trkpt lat="45.9182" lon="4.68284">
        <ele>373</ele>
        <time>2018-05-18T10:17:37Z</time>
      </trkpt>
      <trkpt lat="45.91826" lon="4.68285">
        <ele>373</ele>
        <time>2018-05-18T10:17:38Z</time>
      </trkpt>
      <trkpt lat="45.91833" lon="4.68286">
        <ele>373</ele>
        <time>2018-05-18T10:17:40Z</time>
      </trkpt>
      <trkpt lat="45.91836" lon="4.68286">
        <ele>375</ele>
        <time>2018-05-18T10:17:41Z</time>
      </trkpt>
      <trkpt lat="45.91845" lon="4.68287">
        <ele>375</ele>
        <time>2018-05-18T10:17:43Z</time>
      </trkpt>
      <trkpt lat="45.91847" lon="4.68288">
        <ele>375</ele>
        <time>2018-05-18T10:17:44Z</time>
      </trkpt>
      <trkpt lat="45.91854" lon="4.68289">
        <ele>375</ele>
        <time>2018-05-18T10:17:46Z</time>
      </trkpt>
      <trkpt lat="45.91856" lon="4.68289">
        <ele>375</ele>
        <time>2018-05-18T10:17:47Z</time>
      </trkpt>
      <trkpt lat="45.91863" lon="4.68289">
        <ele>375</ele>
        <time>2018-05-18T10:17:48Z</time>
      </trkpt>
      <trkpt lat="45.91866" lon="4.68289">
        <ele>375</ele>
        <time>2018-05-18T10:17:49Z</time>
      </trkpt>
      <trkpt lat="45.91874" lon="4.68289">
        <ele>376</ele>
        <time>2018-05-18T10:17:52Z</time>
      </trkpt>
      <trkpt lat="45.91881" lon="4.68289">
        <ele>376</ele>
        <time>2018-05-18T10:17:53Z</time>
      </trkpt>
      <trkpt lat="45.91885" lon="4.68289">
        <ele>376</ele>
        <time>2018-05-18T10:17:55Z</time>
      </trkpt>
      <trkpt lat="45.91891" lon="4.68289">
        <ele>376</ele>
        <time>2018-05-18T10:17:56Z</time>
      </trkpt>
      <trkpt lat="45.919" lon="4.6829">
        <ele>376</ele>
        <time>2018-05-18T10:18:00Z</time>
      </trkpt>
      <trkpt lat="45.91903" lon="4.68291">
        <ele>376</ele>
        <time>2018-05-18T10:18:01Z</time>
      </trkpt>
      <trkpt lat="45.91911" lon="4.68293">
        <ele>377</ele>
        <time>2018-05-18T10:18:04Z</time>
      </trkpt>
      <trkpt lat="45.91914" lon="4.68293">
        <ele>377</ele>
        <time>2018-05-18T10:18:05Z</time>
      </trkpt>
      <trkpt lat="45.91921" lon="4.68294">
        <ele>379</ele>
        <time>2018-05-18T10:18:07Z</time>
      </trkpt>
      <trkpt lat="45.91924" lon="4.68295">
        <ele>379</ele>
        <time>2018-05-18T10:18:08Z</time>
      </trkpt>
      <trkpt lat="45.91931" lon="4.68297">
        <ele>379</ele>
        <time>2018-05-18T10:18:10Z</time>
      </trkpt>
      <trkpt lat="45.91934" lon="4.68298">
        <ele>379</ele>
        <time>2018-05-18T10:18:11Z</time>
      </trkpt>
      <trkpt lat="45.91941" lon="4.683">
        <ele>379</ele>
        <time>2018-05-18T10:18:13Z</time>
      </trkpt>
      <trkpt lat="45.91944" lon="4.68301">
        <ele>379</ele>
        <time>2018-05-18T10:18:14Z</time>
      </trkpt>
      <trkpt lat="45.91951" lon="4.68304">
        <ele>379</ele>
        <time>2018-05-18T10:18:16Z</time>
      </trkpt>
      <trkpt lat="45.91954" lon="4.68304">
        <ele>379</ele>
        <time>2018-05-18T10:18:17Z</time>
      </trkpt>
      <trkpt lat="45.91961" lon="4.68305">
        <ele>380</ele>
        <time>2018-05-18T10:18:19Z</time>
      </trkpt>
      <trkpt lat="45.91964" lon="4.68306">
        <ele>380</ele>
        <time>2018-05-18T10:18:20Z</time>
      </trkpt>
      <trkpt lat="45.91973" lon="4.68306">
        <ele>380</ele>
        <time>2018-05-18T10:18:23Z</time>
      </trkpt>
      <trkpt lat="45.91976" lon="4.68307">
        <ele>380</ele>
        <time>2018-05-18T10:18:24Z</time>
      </trkpt>
      <trkpt lat="45.91981" lon="4.68308">
        <ele>380</ele>
        <time>2018-05-18T10:18:26Z</time>
      </trkpt>
      <trkpt lat="45.91985" lon="4.68309">
        <ele>380</ele>
        <time>2018-05-18T10:18:27Z</time>
      </trkpt>
      <trkpt lat="45.91991" lon="4.6831">
        <ele>380</ele>
        <time>2018-05-18T10:18:29Z</time>
      </trkpt>
      <trkpt lat="45.91994" lon="4.68311">
        <ele>381</ele>
        <time>2018-05-18T10:18:30Z</time>
      </trkpt>
      <trkpt lat="45.92" lon="4.68313">
        <ele>380</ele>
        <time>2018-05-18T10:18:32Z</time>
      </trkpt>
      <trkpt lat="45.92004" lon="4.68314">
        <ele>380</ele>
        <time>2018-05-18T10:18:33Z</time>
      </trkpt>
      <trkpt lat="45.92007" lon="4.68315">
        <ele>380</ele>
        <time>2018-05-18T10:18:34Z</time>
      </trkpt>
      <trkpt lat="45.92016" lon="4.68316">
        <ele>380</ele>
        <time>2018-05-18T10:18:35Z</time>
      </trkpt>
      <trkpt lat="45.92023" lon="4.68316">
        <ele>380</ele>
        <time>2018-05-18T10:18:37Z</time>
      </trkpt>
      <trkpt lat="45.92026" lon="4.68316">
        <ele>380</ele>
        <time>2018-05-18T10:18:38Z</time>
      </trkpt>
      <trkpt lat="45.92034" lon="4.68317">
        <ele>380</ele>
        <time>2018-05-18T10:18:40Z</time>
      </trkpt>
      <trkpt lat="45.92037" lon="4.68317">
        <ele>380</ele>
        <time>2018-05-18T10:18:41Z</time>
      </trkpt>
      <trkpt lat="45.92042" lon="4.68317">
        <ele>379</ele>
        <time>2018-05-18T10:18:42Z</time>
      </trkpt>
      <trkpt lat="45.92046" lon="4.68318">
        <ele>379</ele>
        <time>2018-05-18T10:18:43Z</time>
      </trkpt>
      <trkpt lat="45.92051" lon="4.68319">
        <ele>379</ele>
        <time>2018-05-18T10:18:44Z</time>
      </trkpt>
      <trkpt lat="45.92056" lon="4.68321">
        <ele>380</ele>
        <time>2018-05-18T10:18:45Z</time>
      </trkpt>
      <trkpt lat="45.92064" lon="4.68319">
        <ele>380</ele>
        <time>2018-05-18T10:18:46Z</time>
      </trkpt>
      <trkpt lat="45.9207" lon="4.68321">
        <ele>380</ele>
        <time>2018-05-18T10:18:47Z</time>
      </trkpt>
      <trkpt lat="45.92075" lon="4.68322">
        <ele>380</ele>
        <time>2018-05-18T10:18:48Z</time>
      </trkpt>
      <trkpt lat="45.9208" lon="4.68323">
        <ele>381</ele>
        <time>2018-05-18T10:18:49Z</time>
      </trkpt>
      <trkpt lat="45.92085" lon="4.68325">
        <ele>380</ele>
        <time>2018-05-18T10:18:50Z</time>
      </trkpt>
      <trkpt lat="45.9209" lon="4.68326">
        <ele>380</ele>
        <time>2018-05-18T10:18:51Z</time>
      </trkpt>
      <trkpt lat="45.92099" lon="4.68329">
        <ele>379</ele>
        <time>2018-05-18T10:18:53Z</time>
      </trkpt>
      <trkpt lat="45.92103" lon="4.68331">
        <ele>379</ele>
        <time>2018-05-18T10:18:54Z</time>
      </trkpt>
      <trkpt lat="45.92107" lon="4.68335">
        <ele>383</ele>
        <time>2018-05-18T10:18:55Z</time>
      </trkpt>
      <trkpt lat="45.92111" lon="4.68337">
        <ele>383</ele>
        <time>2018-05-18T10:18:56Z</time>
      </trkpt>
      <trkpt lat="45.92119" lon="4.68342">
        <ele>383</ele>
        <time>2018-05-18T10:18:58Z</time>
      </trkpt>
      <trkpt lat="45.92123" lon="4.68345">
        <ele>383</ele>
        <time>2018-05-18T10:18:59Z</time>
      </trkpt>
      <trkpt lat="45.92127" lon="4.68348">
        <ele>383</ele>
        <time>2018-05-18T10:19:00Z</time>
      </trkpt>
      <trkpt lat="45.92131" lon="4.68351">
        <ele>383</ele>
        <time>2018-05-18T10:19:01Z</time>
      </trkpt>
      <trkpt lat="45.92134" lon="4.68355">
        <ele>383</ele>
        <time>2018-05-18T10:19:02Z</time>
      </trkpt>
      <trkpt lat="45.92138" lon="4.6836">
        <ele>383</ele>
        <time>2018-05-18T10:19:03Z</time>
      </trkpt>
      <trkpt lat="45.92145" lon="4.68367">
        <ele>383</ele>
        <time>2018-05-18T10:19:05Z</time>
      </trkpt>
      <trkpt lat="45.92149" lon="4.68369">
        <ele>383</ele>
        <time>2018-05-18T10:19:06Z</time>
      </trkpt>
      <trkpt lat="45.92155" lon="4.68377">
        <ele>384</ele>
        <time>2018-05-18T10:19:08Z</time>
      </trkpt>
      <trkpt lat="45.92158" lon="4.6838">
        <ele>384</ele>
        <time>2018-05-18T10:19:09Z</time>
      </trkpt>
      <trkpt lat="45.92165" lon="4.68387">
        <ele>384</ele>
        <time>2018-05-18T10:19:11Z</time>
      </trkpt>
      <trkpt lat="45.92167" lon="4.68391">
        <ele>383</ele>
        <time>2018-05-18T10:19:12Z</time>
      </trkpt>
      <trkpt lat="45.92174" lon="4.68398">
        <ele>384</ele>
        <time>2018-05-18T10:19:14Z</time>
      </trkpt>
      <trkpt lat="45.92176" lon="4.68403">
        <ele>384</ele>
        <time>2018-05-18T10:19:15Z</time>
      </trkpt>
      <trkpt lat="45.92183" lon="4.68411">
        <ele>384</ele>
        <time>2018-05-18T10:19:17Z</time>
      </trkpt>
      <trkpt lat="45.92186" lon="4.68415">
        <ele>384</ele>
        <time>2018-05-18T10:19:18Z</time>
      </trkpt>
      <trkpt lat="45.92194" lon="4.68421">
        <ele>386</ele>
        <time>2018-05-18T10:19:20Z</time>
      </trkpt>
      <trkpt lat="45.92198" lon="4.68423">
        <ele>386</ele>
        <time>2018-05-18T10:19:21Z</time>
      </trkpt>
      <trkpt lat="45.92206" lon="4.68428">
        <ele>386</ele>
        <time>2018-05-18T10:19:23Z</time>
      </trkpt>
      <trkpt lat="45.9221" lon="4.6843">
        <ele>386</ele>
        <time>2018-05-18T10:19:24Z</time>
      </trkpt>
      <trkpt lat="45.92218" lon="4.68436">
        <ele>386</ele>
        <time>2018-05-18T10:19:26Z</time>
      </trkpt>
      <trkpt lat="45.92222" lon="4.6844">
        <ele>386</ele>
        <time>2018-05-18T10:19:27Z</time>
      </trkpt>
      <trkpt lat="45.92226" lon="4.68444">
        <ele>386</ele>
        <time>2018-05-18T10:19:28Z</time>
      </trkpt>
      <trkpt lat="45.92229" lon="4.68449">
        <ele>386</ele>
        <time>2018-05-18T10:19:29Z</time>
      </trkpt>
      <trkpt lat="45.92232" lon="4.68452">
        <ele>386</ele>
        <time>2018-05-18T10:19:30Z</time>
      </trkpt>
      <trkpt lat="45.92237" lon="4.68456">
        <ele>386</ele>
        <time>2018-05-18T10:19:31Z</time>
      </trkpt>
      <trkpt lat="45.9224" lon="4.68461">
        <ele>386</ele>
        <time>2018-05-18T10:19:32Z</time>
      </trkpt>
      <trkpt lat="45.92244" lon="4.68466">
        <ele>386</ele>
        <time>2018-05-18T10:19:33Z</time>
      </trkpt>
      <trkpt lat="45.92249" lon="4.68468">
        <ele>386</ele>
        <time>2018-05-18T10:19:34Z</time>
      </trkpt>
      <trkpt lat="45.92252" lon="4.68473">
        <ele>384</ele>
        <time>2018-05-18T10:19:35Z</time>
      </trkpt>
      <trkpt lat="45.92256" lon="4.68477">
        <ele>384</ele>
        <time>2018-05-18T10:19:36Z</time>
      </trkpt>
      <trkpt lat="45.9226" lon="4.68479">
        <ele>384</ele>
        <time>2018-05-18T10:19:37Z</time>
      </trkpt>
      <trkpt lat="45.92267" lon="4.68487">
        <ele>384</ele>
        <time>2018-05-18T10:19:39Z</time>
      </trkpt>
      <trkpt lat="45.92271" lon="4.68491">
        <ele>384</ele>
        <time>2018-05-18T10:19:40Z</time>
      </trkpt>
      <trkpt lat="45.92275" lon="4.68495">
        <ele>384</ele>
        <time>2018-05-18T10:19:41Z</time>
      </trkpt>
      <trkpt lat="45.92278" lon="4.685">
        <ele>387</ele>
        <time>2018-05-18T10:19:42Z</time>
      </trkpt>
      <trkpt lat="45.92282" lon="4.68503">
        <ele>387</ele>
        <time>2018-05-18T10:19:43Z</time>
      </trkpt>
      <trkpt lat="45.92288" lon="4.68504">
        <ele>387</ele>
        <time>2018-05-18T10:19:44Z</time>
      </trkpt>
      <trkpt lat="45.92296" lon="4.68511">
        <ele>387</ele>
        <time>2018-05-18T10:19:46Z</time>
      </trkpt>
      <trkpt lat="45.92299" lon="4.68515">
        <ele>387</ele>
        <time>2018-05-18T10:19:47Z</time>
      </trkpt>
      <trkpt lat="45.92303" lon="4.68519">
        <ele>387</ele>
        <time>2018-05-18T10:19:48Z</time>
      </trkpt>
      <trkpt lat="45.92307" lon="4.68524">
        <ele>387</ele>
        <time>2018-05-18T10:19:49Z</time>
      </trkpt>
      <trkpt lat="45.92311" lon="4.68528">
        <ele>387</ele>
        <time>2018-05-18T10:19:50Z</time>
      </trkpt>
      <trkpt lat="45.92314" lon="4.68532">
        <ele>387</ele>
        <time>2018-05-18T10:19:51Z</time>
      </trkpt>
      <trkpt lat="45.92318" lon="4.68535">
        <ele>387</ele>
        <time>2018-05-18T10:19:52Z</time>
      </trkpt>
      <trkpt lat="45.92323" lon="4.6854">
        <ele>388</ele>
        <time>2018-05-18T10:19:53Z</time>
      </trkpt>
      <trkpt lat="45.92327" lon="4.68543">
        <ele>388</ele>
        <time>2018-05-18T10:19:54Z</time>
      </trkpt>
      <trkpt lat="45.92332" lon="4.68547">
        <ele>388</ele>
        <time>2018-05-18T10:19:55Z</time>
      </trkpt>
      <trkpt lat="45.92336" lon="4.68549">
        <ele>385</ele>
        <time>2018-05-18T10:19:56Z</time>
      </trkpt>
      <trkpt lat="45.92341" lon="4.68552">
        <ele>385</ele>
        <time>2018-05-18T10:19:57Z</time>
      </trkpt>
      <trkpt lat="45.92345" lon="4.68555">
        <ele>385</ele>
        <time>2018-05-18T10:19:58Z</time>
      </trkpt>
      <trkpt lat="45.9235" lon="4.68559">
        <ele>385</ele>
        <time>2018-05-18T10:19:59Z</time>
      </trkpt>
      <trkpt lat="45.92356" lon="4.68561">
        <ele>385</ele>
        <time>2018-05-18T10:20:00Z</time>
      </trkpt>
      <trkpt lat="45.92361" lon="4.68565">
        <ele>385</ele>
        <time>2018-05-18T10:20:01Z</time>
      </trkpt>
      <trkpt lat="45.92366" lon="4.68569">
        <ele>385</ele>
        <time>2018-05-18T10:20:02Z</time>
      </trkpt>
      <trkpt lat="45.92372" lon="4.68573">
        <ele>384</ele>
        <time>2018-05-18T10:20:03Z</time>
      </trkpt>
      <trkpt lat="45.92378" lon="4.68577">
        <ele>384</ele>
        <time>2018-05-18T10:20:04Z</time>
      </trkpt>
      <trkpt lat="45.92382" lon="4.6858">
        <ele>384</ele>
        <time>2018-05-18T10:20:05Z</time>
      </trkpt>
      <trkpt lat="45.92387" lon="4.68583">
        <ele>383</ele>
        <time>2018-05-18T10:20:06Z</time>
      </trkpt>
      <trkpt lat="45.92392" lon="4.68587">
        <ele>386</ele>
        <time>2018-05-18T10:20:07Z</time>
      </trkpt>
      <trkpt lat="45.92397" lon="4.6859">
        <ele>386</ele>
        <time>2018-05-18T10:20:08Z</time>
      </trkpt>
      <trkpt lat="45.92403" lon="4.68592">
        <ele>385</ele>
        <time>2018-05-18T10:20:09Z</time>
      </trkpt>
      <trkpt lat="45.92409" lon="4.68595">
        <ele>385</ele>
        <time>2018-05-18T10:20:10Z</time>
      </trkpt>
      <trkpt lat="45.92415" lon="4.68599">
        <ele>385</ele>
        <time>2018-05-18T10:20:11Z</time>
      </trkpt>
      <trkpt lat="45.92421" lon="4.68602">
        <ele>381</ele>
        <time>2018-05-18T10:20:12Z</time>
      </trkpt>
      <trkpt lat="45.92427" lon="4.68606">
        <ele>381</ele>
        <time>2018-05-18T10:20:13Z</time>
      </trkpt>
      <trkpt lat="45.92433" lon="4.6861">
        <ele>381</ele>
        <time>2018-05-18T10:20:14Z</time>
      </trkpt>
      <trkpt lat="45.92439" lon="4.68614">
        <ele>381</ele>
        <time>2018-05-18T10:20:15Z</time>
      </trkpt>
      <trkpt lat="45.92444" lon="4.68617">
        <ele>380</ele>
        <time>2018-05-18T10:20:16Z</time>
      </trkpt>
      <trkpt lat="45.9245" lon="4.68621">
        <ele>380</ele>
        <time>2018-05-18T10:20:17Z</time>
      </trkpt>
      <trkpt lat="45.92456" lon="4.68624">
        <ele>380</ele>
        <time>2018-05-18T10:20:18Z</time>
      </trkpt>
      <trkpt lat="45.92463" lon="4.68627">
        <ele>380</ele>
        <time>2018-05-18T10:20:19Z</time>
      </trkpt>
      <trkpt lat="45.9247" lon="4.6863">
        <ele>380</ele>
        <time>2018-05-18T10:20:20Z</time>
      </trkpt>
      <trkpt lat="45.92477" lon="4.68633">
        <ele>379</ele>
        <time>2018-05-18T10:20:21Z</time>
      </trkpt>
      <trkpt lat="45.92484" lon="4.68636">
        <ele>379</ele>
        <time>2018-05-18T10:20:22Z</time>
      </trkpt>
      <trkpt lat="45.92491" lon="4.68638">
        <ele>379</ele>
        <time>2018-05-18T10:20:23Z</time>
      </trkpt>
      <trkpt lat="45.925" lon="4.68639">
        <ele>379</ele>
        <time>2018-05-18T10:20:24Z</time>
      </trkpt>
      <trkpt lat="45.92506" lon="4.68641">
        <ele>375</ele>
        <time>2018-05-18T10:20:25Z</time>
      </trkpt>
      <trkpt lat="45.92515" lon="4.68642">
        <ele>375</ele>
        <time>2018-05-18T10:20:26Z</time>
      </trkpt>
      <trkpt lat="45.92524" lon="4.68643">
        <ele>375</ele>
        <time>2018-05-18T10:20:27Z</time>
      </trkpt>
      <trkpt lat="45.9253" lon="4.68644">
        <ele>375</ele>
        <time>2018-05-18T10:20:28Z</time>
      </trkpt>
      <trkpt lat="45.92537" lon="4.68646">
        <ele>374</ele>
        <time>2018-05-18T10:20:29Z</time>
      </trkpt>
      <trkpt lat="45.92543" lon="4.68648">
        <ele>374</ele>
        <time>2018-05-18T10:20:30Z</time>
      </trkpt>
      <trkpt lat="45.92549" lon="4.68651">
        <ele>374</ele>
        <time>2018-05-18T10:20:31Z</time>
      </trkpt>
      <trkpt lat="45.92556" lon="4.68649">
        <ele>374</ele>
        <time>2018-05-18T10:20:32Z</time>
      </trkpt>
      <trkpt lat="45.92562" lon="4.68648">
        <ele>374</ele>
        <time>2018-05-18T10:20:33Z</time>
      </trkpt>
      <trkpt lat="45.92567" lon="4.68646">
        <ele>374</ele>
        <time>2018-05-18T10:20:34Z</time>
      </trkpt>
      <trkpt lat="45.92572" lon="4.68642">
        <ele>374</ele>
        <time>2018-05-18T10:20:35Z</time>
      </trkpt>
      <trkpt lat="45.92578" lon="4.6864">
        <ele>373</ele>
        <time>2018-05-18T10:20:36Z</time>
      </trkpt>
      <trkpt lat="45.92583" lon="4.68639">
        <ele>373</ele>
        <time>2018-05-18T10:20:37Z</time>
      </trkpt>
      <trkpt lat="45.92589" lon="4.68636">
        <ele>370</ele>
        <time>2018-05-18T10:20:38Z</time>
      </trkpt>
      <trkpt lat="45.92593" lon="4.68635">
        <ele>370</ele>
        <time>2018-05-18T10:20:39Z</time>
      </trkpt>
      <trkpt lat="45.92602" lon="4.68631">
        <ele>369</ele>
        <time>2018-05-18T10:20:41Z</time>
      </trkpt>
      <trkpt lat="45.92602" lon="4.68631">
        <ele>369</ele>
        <time>2018-05-18T10:20:42Z</time>
      </trkpt>
      <trkpt lat="45.92607" lon="4.6863">
        <ele>369</ele>
        <time>2018-05-18T10:20:45Z</time>
      </trkpt>
      <trkpt lat="45.92612" lon="4.6863">
        <ele>369</ele>
        <time>2018-05-18T10:20:46Z</time>
      </trkpt>
      <trkpt lat="45.92617" lon="4.68629">
        <ele>369</ele>
        <time>2018-05-18T10:20:47Z</time>
      </trkpt>
      <trkpt lat="45.92621" lon="4.68626">
        <ele>368</ele>
        <time>2018-05-18T10:20:48Z</time>
      </trkpt>
      <trkpt lat="45.92625" lon="4.68622">
        <ele>368</ele>
        <time>2018-05-18T10:20:49Z</time>
      </trkpt>
      <trkpt lat="45.9263" lon="4.68621">
        <ele>368</ele>
        <time>2018-05-18T10:20:50Z</time>
      </trkpt>
      <trkpt lat="45.92634" lon="4.68619">
        <ele>368</ele>
        <time>2018-05-18T10:20:51Z</time>
      </trkpt>
      <trkpt lat="45.92639" lon="4.68619">
        <ele>368</ele>
        <time>2018-05-18T10:20:52Z</time>
      </trkpt>
      <trkpt lat="45.92644" lon="4.68617">
        <ele>367</ele>
        <time>2018-05-18T10:20:53Z</time>
      </trkpt>
      <trkpt lat="45.92649" lon="4.68614">
        <ele>367</ele>
        <time>2018-05-18T10:20:54Z</time>
      </trkpt>
      <trkpt lat="45.92654" lon="4.68612">
        <ele>367</ele>
        <time>2018-05-18T10:20:55Z</time>
      </trkpt>
      <trkpt lat="45.92658" lon="4.68609">
        <ele>367</ele>
        <time>2018-05-18T10:20:56Z</time>
      </trkpt>
      <trkpt lat="45.92664" lon="4.68607">
        <ele>367</ele>
        <time>2018-05-18T10:20:57Z</time>
      </trkpt>
      <trkpt lat="45.92669" lon="4.68604">
        <ele>364</ele>
        <time>2018-05-18T10:20:58Z</time>
      </trkpt>
      <trkpt lat="45.92674" lon="4.68602">
        <ele>364</ele>
        <time>2018-05-18T10:20:59Z</time>
      </trkpt>
      <trkpt lat="45.9268" lon="4.686">
        <ele>364</ele>
        <time>2018-05-18T10:21:00Z</time>
      </trkpt>
      <trkpt lat="45.92685" lon="4.68598">
        <ele>364</ele>
        <time>2018-05-18T10:21:01Z</time>
      </trkpt>
      <trkpt lat="45.92691" lon="4.68595">
        <ele>364</ele>
        <time>2018-05-18T10:21:02Z</time>
      </trkpt>
      <trkpt lat="45.92697" lon="4.68593">
        <ele>364</ele>
        <time>2018-05-18T10:21:03Z</time>
      </trkpt>
      <trkpt lat="45.92703" lon="4.68591">
        <ele>364</ele>
        <time>2018-05-18T10:21:04Z</time>
      </trkpt>
      <trkpt lat="45.92709" lon="4.68587">
        <ele>364</ele>
        <time>2018-05-18T10:21:05Z</time>
      </trkpt>
      <trkpt lat="45.92714" lon="4.68587">
        <ele>364</ele>
        <time>2018-05-18T10:21:06Z</time>
      </trkpt>
      <trkpt lat="45.92717" lon="4.6858">
        <ele>366</ele>
        <time>2018-05-18T10:21:07Z</time>
      </trkpt>
      <trkpt lat="45.92723" lon="4.6858">
        <ele>366</ele>
        <time>2018-05-18T10:21:08Z</time>
      </trkpt>
      <trkpt lat="45.92729" lon="4.68578">
        <ele>366</ele>
        <time>2018-05-18T10:21:09Z</time>
      </trkpt>
      <trkpt lat="45.92735" lon="4.68577">
        <ele>366</ele>
        <time>2018-05-18T10:21:10Z</time>
      </trkpt>
      <trkpt lat="45.92741" lon="4.68576">
        <ele>366</ele>
        <time>2018-05-18T10:21:11Z</time>
      </trkpt>
      <trkpt lat="45.92747" lon="4.68577">
        <ele>366</ele>
        <time>2018-05-18T10:21:12Z</time>
      </trkpt>
      <trkpt lat="45.92754" lon="4.68571">
        <ele>366</ele>
        <time>2018-05-18T10:21:13Z</time>
      </trkpt>
      <trkpt lat="45.92761" lon="4.6857">
        <ele>365</ele>
        <time>2018-05-18T10:21:14Z</time>
      </trkpt>
      <trkpt lat="45.92768" lon="4.68569">
        <ele>365</ele>
        <time>2018-05-18T10:21:15Z</time>
      </trkpt>
      <trkpt lat="45.92774" lon="4.68569">
        <ele>365</ele>
        <time>2018-05-18T10:21:16Z</time>
      </trkpt>
      <trkpt lat="45.9278" lon="4.68571">
        <ele>365</ele>
        <time>2018-05-18T10:21:17Z</time>
      </trkpt>
      <trkpt lat="45.92786" lon="4.68571">
        <ele>365</ele>
        <time>2018-05-18T10:21:18Z</time>
      </trkpt>
      <trkpt lat="45.92793" lon="4.68572">
        <ele>364</ele>
        <time>2018-05-18T10:21:19Z</time>
      </trkpt>
      <trkpt lat="45.92799" lon="4.68573">
        <ele>364</ele>
        <time>2018-05-18T10:21:20Z</time>
      </trkpt>
      <trkpt lat="45.92805" lon="4.68575">
        <ele>364</ele>
        <time>2018-05-18T10:21:21Z</time>
      </trkpt>
      <trkpt lat="45.92811" lon="4.68576">
        <ele>363</ele>
        <time>2018-05-18T10:21:22Z</time>
      </trkpt>
      <trkpt lat="45.92818" lon="4.68577">
        <ele>363</ele>
        <time>2018-05-18T10:21:23Z</time>
      </trkpt>
      <trkpt lat="45.92824" lon="4.68579">
        <ele>362</ele>
        <time>2018-05-18T10:21:24Z</time>
      </trkpt>
      <trkpt lat="45.9283" lon="4.6858">
        <ele>362</ele>
        <time>2018-05-18T10:21:25Z</time>
      </trkpt>
      <trkpt lat="45.92837" lon="4.68581">
        <ele>361</ele>
        <time>2018-05-18T10:21:26Z</time>
      </trkpt>
      <trkpt lat="45.92843" lon="4.68582">
        <ele>361</ele>
        <time>2018-05-18T10:21:27Z</time>
      </trkpt>
      <trkpt lat="45.9285" lon="4.68583">
        <ele>361</ele>
        <time>2018-05-18T10:21:28Z</time>
      </trkpt>
      <trkpt lat="45.92856" lon="4.68585">
        <ele>359</ele>
        <time>2018-05-18T10:21:29Z</time>
      </trkpt>
      <trkpt lat="45.92863" lon="4.68585">
        <ele>359</ele>
        <time>2018-05-18T10:21:30Z</time>
      </trkpt>
      <trkpt lat="45.92869" lon="4.68587">
        <ele>359</ele>
        <time>2018-05-18T10:21:31Z</time>
      </trkpt>
      <trkpt lat="45.92876" lon="4.68588">
        <ele>359</ele>
        <time>2018-05-18T10:21:32Z</time>
      </trkpt>
      <trkpt lat="45.92882" lon="4.68589">
        <ele>358</ele>
        <time>2018-05-18T10:21:33Z</time>
      </trkpt>
      <trkpt lat="45.92889" lon="4.6859">
        <ele>358</ele>
        <time>2018-05-18T10:21:34Z</time>
      </trkpt>
      <trkpt lat="45.92896" lon="4.68591">
        <ele>358</ele>
        <time>2018-05-18T10:21:35Z</time>
      </trkpt>
      <trkpt lat="45.92902" lon="4.68593">
        <ele>358</ele>
        <time>2018-05-18T10:21:36Z</time>
      </trkpt>
      <trkpt lat="45.92909" lon="4.68595">
        <ele>359</ele>
        <time>2018-05-18T10:21:37Z</time>
      </trkpt>
      <trkpt lat="45.92917" lon="4.68596">
        <ele>359</ele>
        <time>2018-05-18T10:21:38Z</time>
      </trkpt>
      <trkpt lat="45.92924" lon="4.68599">
        <ele>359</ele>
        <time>2018-05-18T10:21:39Z</time>
      </trkpt>
      <trkpt lat="45.92932" lon="4.686">
        <ele>358</ele>
        <time>2018-05-18T10:21:40Z</time>
      </trkpt>
      <trkpt lat="45.92939" lon="4.68601">
        <ele>358</ele>
        <time>2018-05-18T10:21:41Z</time>
      </trkpt>
      <trkpt lat="45.92946" lon="4.68602">
        <ele>358</ele>
        <time>2018-05-18T10:21:42Z</time>
      </trkpt>
      <trkpt lat="45.92953" lon="4.68602">
        <ele>358</ele>
        <time>2018-05-18T10:21:43Z</time>
      </trkpt>
      <trkpt lat="45.9296" lon="4.68604">
        <ele>358</ele>
        <time>2018-05-18T10:21:44Z</time>
      </trkpt>
      <trkpt lat="45.92968" lon="4.68605">
        <ele>358</ele>
        <time>2018-05-18T10:21:45Z</time>
      </trkpt>
      <trkpt lat="45.92975" lon="4.68607">
        <ele>358</ele>
        <time>2018-05-18T10:21:46Z</time>
      </trkpt>
      <trkpt lat="45.92984" lon="4.68606">
        <ele>358</ele>
        <time>2018-05-18T10:21:47Z</time>
      </trkpt>
      <trkpt lat="45.92991" lon="4.68607">
        <ele>358</ele>
        <time>2018-05-18T10:21:48Z</time>
      </trkpt>
      <trkpt lat="45.92999" lon="4.68611">
        <ele>358</ele>
        <time>2018-05-18T10:21:49Z</time>
      </trkpt>
      <trkpt lat="45.93005" lon="4.68612">
        <ele>356</ele>
        <time>2018-05-18T10:21:50Z</time>
      </trkpt>
      <trkpt lat="45.93015" lon="4.68612">
        <ele>356</ele>
        <time>2018-05-18T10:21:51Z</time>
      </trkpt>
      <trkpt lat="45.93021" lon="4.68614">
        <ele>356</ele>
        <time>2018-05-18T10:21:52Z</time>
      </trkpt>
      <trkpt lat="45.93028" lon="4.68617">
        <ele>355</ele>
        <time>2018-05-18T10:21:53Z</time>
      </trkpt>
      <trkpt lat="45.93036" lon="4.68618">
        <ele>355</ele>
        <time>2018-05-18T10:21:54Z</time>
      </trkpt>
      <trkpt lat="45.93042" lon="4.6862">
        <ele>355</ele>
        <time>2018-05-18T10:21:55Z</time>
      </trkpt>
      <trkpt lat="45.9305" lon="4.6862">
        <ele>354</ele>
        <time>2018-05-18T10:21:56Z</time>
      </trkpt>
      <trkpt lat="45.93058" lon="4.68623">
        <ele>354</ele>
        <time>2018-05-18T10:21:57Z</time>
      </trkpt>
      <trkpt lat="45.93065" lon="4.68624">
        <ele>354</ele>
        <time>2018-05-18T10:21:58Z</time>
      </trkpt>
      <trkpt lat="45.93072" lon="4.68626">
        <ele>354</ele>
        <time>2018-05-18T10:21:59Z</time>
      </trkpt>
      <trkpt lat="45.9308" lon="4.68628">
        <ele>353</ele>
        <time>2018-05-18T10:22:00Z</time>
      </trkpt>
      <trkpt lat="45.93088" lon="4.6863">
        <ele>349</ele>
        <time>2018-05-18T10:22:01Z</time>
      </trkpt>
      <trkpt lat="45.93095" lon="4.68632">
        <ele>349</ele>
        <time>2018-05-18T10:22:02Z</time>
      </trkpt>
      <trkpt lat="45.93103" lon="4.68634">
        <ele>349</ele>
        <time>2018-05-18T10:22:03Z</time>
      </trkpt>
      <trkpt lat="45.93111" lon="4.68636">
        <ele>348</ele>
        <time>2018-05-18T10:22:04Z</time>
      </trkpt>
      <trkpt lat="45.9312" lon="4.68638">
        <ele>348</ele>
        <time>2018-05-18T10:22:05Z</time>
      </trkpt>
      <trkpt lat="45.93128" lon="4.6864">
        <ele>348</ele>
        <time>2018-05-18T10:22:06Z</time>
      </trkpt>
      <trkpt lat="45.93137" lon="4.68642">
        <ele>347</ele>
        <time>2018-05-18T10:22:07Z</time>
      </trkpt>
      <trkpt lat="45.93146" lon="4.68645">
        <ele>347</ele>
        <time>2018-05-18T10:22:08Z</time>
      </trkpt>
      <trkpt lat="45.93154" lon="4.68648">
        <ele>347</ele>
        <time>2018-05-18T10:22:09Z</time>
      </trkpt>
      <trkpt lat="45.93163" lon="4.68651">
        <ele>347</ele>
        <time>2018-05-18T10:22:10Z</time>
      </trkpt>
      <trkpt lat="45.93173" lon="4.68653">
        <ele>345</ele>
        <time>2018-05-18T10:22:11Z</time>
      </trkpt>
      <trkpt lat="45.93182" lon="4.68656">
        <ele>345</ele>
        <time>2018-05-18T10:22:12Z</time>
      </trkpt>
      <trkpt lat="45.93192" lon="4.68659">
        <ele>345</ele>
        <time>2018-05-18T10:22:13Z</time>
      </trkpt>
      <trkpt lat="45.93201" lon="4.68659">
        <ele>344</ele>
        <time>2018-05-18T10:22:14Z</time>
      </trkpt>
      <trkpt lat="45.93208" lon="4.68658">
        <ele>344</ele>
        <time>2018-05-18T10:22:15Z</time>
      </trkpt>
      <trkpt lat="45.93218" lon="4.68661">
        <ele>344</ele>
        <time>2018-05-18T10:22:16Z</time>
      </trkpt>
      <trkpt lat="45.93227" lon="4.68663">
        <ele>344</ele>
        <time>2018-05-18T10:22:17Z</time>
      </trkpt>
      <trkpt lat="45.93236" lon="4.68666">
        <ele>344</ele>
        <time>2018-05-18T10:22:18Z</time>
      </trkpt>
      <trkpt lat="45.93244" lon="4.68668">
        <ele>344</ele>
        <time>2018-05-18T10:22:19Z</time>
      </trkpt>
      <trkpt lat="45.93253" lon="4.6867">
        <ele>344</ele>
        <time>2018-05-18T10:22:20Z</time>
      </trkpt>
      <trkpt lat="45.93262" lon="4.68672">
        <ele>344</ele>
        <time>2018-05-18T10:22:21Z</time>
      </trkpt>
      <trkpt lat="45.9327" lon="4.68674">
        <ele>344</ele>
        <time>2018-05-18T10:22:22Z</time>
      </trkpt>
      <trkpt lat="45.93277" lon="4.68679">
        <ele>344</ele>
        <time>2018-05-18T10:22:23Z</time>
      </trkpt>
      <trkpt lat="45.93285" lon="4.6868">
        <ele>344</ele>
        <time>2018-05-18T10:22:24Z</time>
      </trkpt>
      <trkpt lat="45.93292" lon="4.68681">
        <ele>344</ele>
        <time>2018-05-18T10:22:25Z</time>
      </trkpt>
      <trkpt lat="45.933" lon="4.68684">
        <ele>344</ele>
        <time>2018-05-18T10:22:26Z</time>
      </trkpt>
      <trkpt lat="45.93307" lon="4.68685">
        <ele>344</ele>
        <time>2018-05-18T10:22:27Z</time>
      </trkpt>
      <trkpt lat="45.93315" lon="4.68687">
        <ele>344</ele>
        <time>2018-05-18T10:22:28Z</time>
      </trkpt>
      <trkpt lat="45.93321" lon="4.68688">
        <ele>344</ele>
        <time>2018-05-18T10:22:29Z</time>
      </trkpt>
      <trkpt lat="45.93328" lon="4.68689">
        <ele>344</ele>
        <time>2018-05-18T10:22:30Z</time>
      </trkpt>
      <trkpt lat="45.93334" lon="4.68691">
        <ele>344</ele>
        <time>2018-05-18T10:22:31Z</time>
      </trkpt>
      <trkpt lat="45.93341" lon="4.68691">
        <ele>344</ele>
        <time>2018-05-18T10:22:32Z</time>
      </trkpt>
      <trkpt lat="45.93347" lon="4.68692">
        <ele>344</ele>
        <time>2018-05-18T10:22:33Z</time>
      </trkpt>
      <trkpt lat="45.93353" lon="4.68694">
        <ele>344</ele>
        <time>2018-05-18T10:22:34Z</time>
      </trkpt>
      <trkpt lat="45.93358" lon="4.68696">
        <ele>344</ele>
        <time>2018-05-18T10:22:35Z</time>
      </trkpt>
      <trkpt lat="45.93364" lon="4.68698">
        <ele>344</ele>
        <time>2018-05-18T10:22:36Z</time>
      </trkpt>
      <trkpt lat="45.93369" lon="4.687">
        <ele>344</ele>
        <time>2018-05-18T10:22:37Z</time>
      </trkpt>
      <trkpt lat="45.93375" lon="4.68701">
        <ele>344</ele>
        <time>2018-05-18T10:22:38Z</time>
      </trkpt>
      <trkpt lat="45.93381" lon="4.68702">
        <ele>344</ele>
        <time>2018-05-18T10:22:39Z</time>
      </trkpt>
      <trkpt lat="45.93387" lon="4.68704">
        <ele>344</ele>
        <time>2018-05-18T10:22:40Z</time>
      </trkpt>
      <trkpt lat="45.93394" lon="4.68705">
        <ele>344</ele>
        <time>2018-05-18T10:22:41Z</time>
      </trkpt>
      <trkpt lat="45.93399" lon="4.68707">
        <ele>344</ele>
        <time>2018-05-18T10:22:42Z</time>
      </trkpt>
      <trkpt lat="45.93406" lon="4.68708">
        <ele>344</ele>
        <time>2018-05-18T10:22:43Z</time>
      </trkpt>
      <trkpt lat="45.93412" lon="4.68709">
        <ele>343</ele>
        <time>2018-05-18T10:22:44Z</time>
      </trkpt>
      <trkpt lat="45.93417" lon="4.6871">
        <ele>343</ele>
        <time>2018-05-18T10:22:45Z</time>
      </trkpt>
      <trkpt lat="45.93424" lon="4.68711">
        <ele>343</ele>
        <time>2018-05-18T10:22:46Z</time>
      </trkpt>
      <trkpt lat="45.9343" lon="4.68713">
        <ele>343</ele>
        <time>2018-05-18T10:22:47Z</time>
      </trkpt>
      <trkpt lat="45.93436" lon="4.68714">
        <ele>343</ele>
        <time>2018-05-18T10:22:48Z</time>
      </trkpt>
      <trkpt lat="45.93443" lon="4.68715">
        <ele>343</ele>
        <time>2018-05-18T10:22:49Z</time>
      </trkpt>
      <trkpt lat="45.93449" lon="4.68717">
        <ele>343</ele>
        <time>2018-05-18T10:22:50Z</time>
      </trkpt>
      <trkpt lat="45.93455" lon="4.68719">
        <ele>342</ele>
        <time>2018-05-18T10:22:51Z</time>
      </trkpt>
      <trkpt lat="45.93462" lon="4.6872">
        <ele>342</ele>
        <time>2018-05-18T10:22:52Z</time>
      </trkpt>
      <trkpt lat="45.93468" lon="4.68721">
        <ele>342</ele>
        <time>2018-05-18T10:22:53Z</time>
      </trkpt>
      <trkpt lat="45.93475" lon="4.68722">
        <ele>342</ele>
        <time>2018-05-18T10:22:54Z</time>
      </trkpt>
      <trkpt lat="45.93481" lon="4.68723">
        <ele>342</ele>
        <time>2018-05-18T10:22:55Z</time>
      </trkpt>
      <trkpt lat="45.93488" lon="4.68724">
        <ele>342</ele>
        <time>2018-05-18T10:22:56Z</time>
      </trkpt>
      <trkpt lat="45.93494" lon="4.68725">
        <ele>342</ele>
        <time>2018-05-18T10:22:57Z</time>
      </trkpt>
      <trkpt lat="45.935" lon="4.68728">
        <ele>342</ele>
        <time>2018-05-18T10:22:58Z</time>
      </trkpt>
      <trkpt lat="45.93507" lon="4.6873">
        <ele>342</ele>
        <time>2018-05-18T10:22:59Z</time>
      </trkpt>
      <trkpt lat="45.93513" lon="4.68731">
        <ele>342</ele>
        <time>2018-05-18T10:23:00Z</time>
      </trkpt>
      <trkpt lat="45.93519" lon="4.68732">
        <ele>342</ele>
        <time>2018-05-18T10:23:01Z</time>
      </trkpt>
      <trkpt lat="45.93525" lon="4.68734">
        <ele>342</ele>
        <time>2018-05-18T10:23:02Z</time>
      </trkpt>
      <trkpt lat="45.93531" lon="4.68736">
        <ele>342</ele>
        <time>2018-05-18T10:23:03Z</time>
      </trkpt>
      <trkpt lat="45.93537" lon="4.68738">
        <ele>342</ele>
        <time>2018-05-18T10:23:04Z</time>
      </trkpt>
      <trkpt lat="45.93543" lon="4.68739">
        <ele>342</ele>
        <time>2018-05-18T10:23:05Z</time>
      </trkpt>
      <trkpt lat="45.93549" lon="4.68742">
        <ele>342</ele>
        <time>2018-05-18T10:23:06Z</time>
      </trkpt>
      <trkpt lat="45.93555" lon="4.68744">
        <ele>342</ele>
        <time>2018-05-18T10:23:07Z</time>
      </trkpt>
      <trkpt lat="45.93561" lon="4.68745">
        <ele>343</ele>
        <time>2018-05-18T10:23:08Z</time>
      </trkpt>
      <trkpt lat="45.93568" lon="4.68747">
        <ele>343</ele>
        <time>2018-05-18T10:23:09Z</time>
      </trkpt>
      <trkpt lat="45.93573" lon="4.68749">
        <ele>343</ele>
        <time>2018-05-18T10:23:10Z</time>
      </trkpt>
      <trkpt lat="45.93579" lon="4.6875">
        <ele>344</ele>
        <time>2018-05-18T10:23:11Z</time>
      </trkpt>
      <trkpt lat="45.93585" lon="4.68751">
        <ele>344</ele>
        <time>2018-05-18T10:23:12Z</time>
      </trkpt>
      <trkpt lat="45.93591" lon="4.68752">
        <ele>344</ele>
        <time>2018-05-18T10:23:13Z</time>
      </trkpt>
      <trkpt lat="45.93597" lon="4.68752">
        <ele>344</ele>
        <time>2018-05-18T10:23:14Z</time>
      </trkpt>
      <trkpt lat="45.93603" lon="4.68753">
        <ele>344</ele>
        <time>2018-05-18T10:23:15Z</time>
      </trkpt>
      <trkpt lat="45.9361" lon="4.68755">
        <ele>344</ele>
        <time>2018-05-18T10:23:16Z</time>
      </trkpt>
      <trkpt lat="45.93616" lon="4.68757">
        <ele>343</ele>
        <time>2018-05-18T10:23:17Z</time>
      </trkpt>
      <trkpt lat="45.93622" lon="4.68756">
        <ele>343</ele>
        <time>2018-05-18T10:23:18Z</time>
      </trkpt>
      <trkpt lat="45.93628" lon="4.68759">
        <ele>343</ele>
        <time>2018-05-18T10:23:19Z</time>
      </trkpt>
      <trkpt lat="45.93634" lon="4.6876">
        <ele>343</ele>
        <time>2018-05-18T10:23:20Z</time>
      </trkpt>
      <trkpt lat="45.9364" lon="4.68764">
        <ele>343</ele>
        <time>2018-05-18T10:23:21Z</time>
      </trkpt>
      <trkpt lat="45.93646" lon="4.68766">
        <ele>343</ele>
        <time>2018-05-18T10:23:22Z</time>
      </trkpt>
      <trkpt lat="45.93652" lon="4.68769">
        <ele>343</ele>
        <time>2018-05-18T10:23:23Z</time>
      </trkpt>
      <trkpt lat="45.93658" lon="4.6877">
        <ele>343</ele>
        <time>2018-05-18T10:23:24Z</time>
      </trkpt>
      <trkpt lat="45.93665" lon="4.68772">
        <ele>343</ele>
        <time>2018-05-18T10:23:25Z</time>
      </trkpt>
      <trkpt lat="45.93671" lon="4.68773">
        <ele>342</ele>
        <time>2018-05-18T10:23:26Z</time>
      </trkpt>
      <trkpt lat="45.93677" lon="4.68774">
        <ele>342</ele>
        <time>2018-05-18T10:23:27Z</time>
      </trkpt>
      <trkpt lat="45.93683" lon="4.68776">
        <ele>342</ele>
        <time>2018-05-18T10:23:28Z</time>
      </trkpt>
      <trkpt lat="45.93689" lon="4.68777">
        <ele>342</ele>
        <time>2018-05-18T10:23:29Z</time>
      </trkpt>
      <trkpt lat="45.93695" lon="4.68778">
        <ele>342</ele>
        <time>2018-05-18T10:23:30Z</time>
      </trkpt>
      <trkpt lat="45.93702" lon="4.6878">
        <ele>342</ele>
        <time>2018-05-18T10:23:31Z</time>
      </trkpt>
      <trkpt lat="45.93707" lon="4.68782">
        <ele>342</ele>
        <time>2018-05-18T10:23:32Z</time>
      </trkpt>
      <trkpt lat="45.93713" lon="4.68785">
        <ele>342</ele>
        <time>2018-05-18T10:23:33Z</time>
      </trkpt>
      <trkpt lat="45.93719" lon="4.68785">
        <ele>342</ele>
        <time>2018-05-18T10:23:34Z</time>
      </trkpt>
      <trkpt lat="45.93725" lon="4.68787">
        <ele>342</ele>
        <time>2018-05-18T10:23:35Z</time>
      </trkpt>
      <trkpt lat="45.93731" lon="4.68788">
        <ele>342</ele>
        <time>2018-05-18T10:23:36Z</time>
      </trkpt>
      <trkpt lat="45.93736" lon="4.68789">
        <ele>342</ele>
        <time>2018-05-18T10:23:37Z</time>
      </trkpt>
      <trkpt lat="45.9374" lon="4.6879">
        <ele>342</ele>
        <time>2018-05-18T10:23:38Z</time>
      </trkpt>
      <trkpt lat="45.93747" lon="4.68794">
        <ele>342</ele>
        <time>2018-05-18T10:23:39Z</time>
      </trkpt>
      <trkpt lat="45.93753" lon="4.68795">
        <ele>341</ele>
        <time>2018-05-18T10:23:40Z</time>
      </trkpt>
      <trkpt lat="45.9376" lon="4.68796">
        <ele>341</ele>
        <time>2018-05-18T10:23:41Z</time>
      </trkpt>
      <trkpt lat="45.93767" lon="4.68796">
        <ele>341</ele>
        <time>2018-05-18T10:23:42Z</time>
      </trkpt>
      <trkpt lat="45.93774" lon="4.68798">
        <ele>341</ele>
        <time>2018-05-18T10:23:43Z</time>
      </trkpt>
      <trkpt lat="45.9378" lon="4.68801">
        <ele>341</ele>
        <time>2018-05-18T10:23:44Z</time>
      </trkpt>
      <trkpt lat="45.93785" lon="4.68804">
        <ele>341</ele>
        <time>2018-05-18T10:23:45Z</time>
      </trkpt>
      <trkpt lat="45.9379" lon="4.68809">
        <ele>341</ele>
        <time>2018-05-18T10:23:46Z</time>
      </trkpt>
      <trkpt lat="45.93795" lon="4.68813">
        <ele>341</ele>
        <time>2018-05-18T10:23:47Z</time>
      </trkpt>
      <trkpt lat="45.93801" lon="4.68815">
        <ele>341</ele>
        <time>2018-05-18T10:23:48Z</time>
      </trkpt>
      <trkpt lat="45.93807" lon="4.68817">
        <ele>341</ele>
        <time>2018-05-18T10:23:49Z</time>
      </trkpt>
      <trkpt lat="45.93812" lon="4.68821">
        <ele>341</ele>
        <time>2018-05-18T10:23:50Z</time>
      </trkpt>
      <trkpt lat="45.93816" lon="4.68824">
        <ele>341</ele>
        <time>2018-05-18T10:23:51Z</time>
      </trkpt>
      <trkpt lat="45.93821" lon="4.68826">
        <ele>341</ele>
        <time>2018-05-18T10:23:52Z</time>
      </trkpt>
      <trkpt lat="45.93826" lon="4.68829">
        <ele>342</ele>
        <time>2018-05-18T10:23:53Z</time>
      </trkpt>
      <trkpt lat="45.93831" lon="4.68833">
        <ele>342</ele>
        <time>2018-05-18T10:23:54Z</time>
      </trkpt>
      <trkpt lat="45.93837" lon="4.68836">
        <ele>342</ele>
        <time>2018-05-18T10:23:55Z</time>
      </trkpt>
      <trkpt lat="45.93842" lon="4.68838">
        <ele>342</ele>
        <time>2018-05-18T10:23:56Z</time>
      </trkpt>
      <trkpt lat="45.93847" lon="4.68842">
        <ele>342</ele>
        <time>2018-05-18T10:23:57Z</time>
      </trkpt>
      <trkpt lat="45.93851" lon="4.68847">
        <ele>342</ele>
        <time>2018-05-18T10:23:58Z</time>
      </trkpt>
      <trkpt lat="45.93857" lon="4.68849">
        <ele>342</ele>
        <time>2018-05-18T10:23:59Z</time>
      </trkpt>
      <trkpt lat="45.93862" lon="4.68851">
        <ele>342</ele>
        <time>2018-05-18T10:24:00Z</time>
      </trkpt>
      <trkpt lat="45.93867" lon="4.68855">
        <ele>342</ele>
        <time>2018-05-18T10:24:01Z</time>
      </trkpt>
      <trkpt lat="45.9387" lon="4.68856">
        <ele>342</ele>
        <time>2018-05-18T10:24:02Z</time>
      </trkpt>
      <trkpt lat="45.93875" lon="4.6886">
        <ele>343</ele>
        <time>2018-05-18T10:24:03Z</time>
      </trkpt>
      <trkpt lat="45.93879" lon="4.68863">
        <ele>343</ele>
        <time>2018-05-18T10:24:04Z</time>
      </trkpt>
      <trkpt lat="45.93884" lon="4.68867">
        <ele>343</ele>
        <time>2018-05-18T10:24:05Z</time>
      </trkpt>
      <trkpt lat="45.93889" lon="4.6887">
        <ele>343</ele>
        <time>2018-05-18T10:24:06Z</time>
      </trkpt>
      <trkpt lat="45.93893" lon="4.68874">
        <ele>343</ele>
        <time>2018-05-18T10:24:07Z</time>
      </trkpt>
      <trkpt lat="45.93897" lon="4.68876">
        <ele>342</ele>
        <time>2018-05-18T10:24:08Z</time>
      </trkpt>
      <trkpt lat="45.93902" lon="4.68879">
        <ele>342</ele>
        <time>2018-05-18T10:24:09Z</time>
      </trkpt>
      <trkpt lat="45.93906" lon="4.6888">
        <ele>342</ele>
        <time>2018-05-18T10:24:10Z</time>
      </trkpt>
      <trkpt lat="45.93911" lon="4.68883">
        <ele>342</ele>
        <time>2018-05-18T10:24:11Z</time>
      </trkpt>
      <trkpt lat="45.93915" lon="4.68886">
        <ele>342</ele>
        <time>2018-05-18T10:24:12Z</time>
      </trkpt>
      <trkpt lat="45.9392" lon="4.68888">
        <ele>342</ele>
        <time>2018-05-18T10:24:13Z</time>
      </trkpt>
      <trkpt lat="45.93927" lon="4.6889">
        <ele>342</ele>
        <time>2018-05-18T10:24:14Z</time>
      </trkpt>
      <trkpt lat="45.93932" lon="4.68891">
        <ele>342</ele>
        <time>2018-05-18T10:24:15Z</time>
      </trkpt>
      <trkpt lat="45.93937" lon="4.68893">
        <ele>342</ele>
        <time>2018-05-18T10:24:16Z</time>
      </trkpt>
      <trkpt lat="45.93942" lon="4.68893">
        <ele>342</ele>
        <time>2018-05-18T10:24:17Z</time>
      </trkpt>
      <trkpt lat="45.93947" lon="4.68894">
        <ele>342</ele>
        <time>2018-05-18T10:24:18Z</time>
      </trkpt>
      <trkpt lat="45.93953" lon="4.68896">
        <ele>342</ele>
        <time>2018-05-18T10:24:19Z</time>
      </trkpt>
      <trkpt lat="45.93957" lon="4.68899">
        <ele>342</ele>
        <time>2018-05-18T10:24:20Z</time>
      </trkpt>
      <trkpt lat="45.93962" lon="4.68901">
        <ele>342</ele>
        <time>2018-05-18T10:24:21Z</time>
      </trkpt>
      <trkpt lat="45.93968" lon="4.68902">
        <ele>342</ele>
        <time>2018-05-18T10:24:22Z</time>
      </trkpt>
      <trkpt lat="45.93973" lon="4.68904">
        <ele>342</ele>
        <time>2018-05-18T10:24:23Z</time>
      </trkpt>
      <trkpt lat="45.93978" lon="4.68906">
        <ele>342</ele>
        <time>2018-05-18T10:24:24Z</time>
      </trkpt>
      <trkpt lat="45.93985" lon="4.68909">
        <ele>342</ele>
        <time>2018-05-18T10:24:25Z</time>
      </trkpt>
      <trkpt lat="45.93991" lon="4.68911">
        <ele>342</ele>
        <time>2018-05-18T10:24:26Z</time>
      </trkpt>
      <trkpt lat="45.93997" lon="4.68913">
        <ele>342</ele>
        <time>2018-05-18T10:24:27Z</time>
      </trkpt>
      <trkpt lat="45.94003" lon="4.68915">
        <ele>342</ele>
        <time>2018-05-18T10:24:28Z</time>
      </trkpt>
      <trkpt lat="45.94009" lon="4.68918">
        <ele>342</ele>
        <time>2018-05-18T10:24:29Z</time>
      </trkpt>
      <trkpt lat="45.94016" lon="4.68919">
        <ele>342</ele>
        <time>2018-05-18T10:24:30Z</time>
      </trkpt>
      <trkpt lat="45.94023" lon="4.68921">
        <ele>341</ele>
        <time>2018-05-18T10:24:31Z</time>
      </trkpt>
      <trkpt lat="45.94029" lon="4.68924">
        <ele>341</ele>
        <time>2018-05-18T10:24:32Z</time>
      </trkpt>
      <trkpt lat="45.94035" lon="4.68927">
        <ele>341</ele>
        <time>2018-05-18T10:24:33Z</time>
      </trkpt>
      <trkpt lat="45.94041" lon="4.6893">
        <ele>341</ele>
        <time>2018-05-18T10:24:34Z</time>
      </trkpt>
      <trkpt lat="45.94046" lon="4.68933">
        <ele>341</ele>
        <time>2018-05-18T10:24:35Z</time>
      </trkpt>
      <trkpt lat="45.94052" lon="4.68937">
        <ele>341</ele>
        <time>2018-05-18T10:24:36Z</time>
      </trkpt>
      <trkpt lat="45.94057" lon="4.6894">
        <ele>341</ele>
        <time>2018-05-18T10:24:37Z</time>
      </trkpt>
      <trkpt lat="45.94063" lon="4.68944">
        <ele>341</ele>
        <time>2018-05-18T10:24:38Z</time>
      </trkpt>
      <trkpt lat="45.94069" lon="4.68947">
        <ele>341</ele>
        <time>2018-05-18T10:24:39Z</time>
      </trkpt>
      <trkpt lat="45.94075" lon="4.68948">
        <ele>341</ele>
        <time>2018-05-18T10:24:40Z</time>
      </trkpt>
      <trkpt lat="45.94081" lon="4.68949">
        <ele>341</ele>
        <time>2018-05-18T10:24:41Z</time>
      </trkpt>
      <trkpt lat="45.94088" lon="4.6895">
        <ele>340</ele>
        <time>2018-05-18T10:24:42Z</time>
      </trkpt>
      <trkpt lat="45.94094" lon="4.68952">
        <ele>340</ele>
        <time>2018-05-18T10:24:43Z</time>
      </trkpt>
      <trkpt lat="45.941" lon="4.68953">
        <ele>340</ele>
        <time>2018-05-18T10:24:44Z</time>
      </trkpt>
      <trkpt lat="45.94107" lon="4.68956">
        <ele>340</ele>
        <time>2018-05-18T10:24:45Z</time>
      </trkpt>
      <trkpt lat="45.94113" lon="4.68958">
        <ele>340</ele>
        <time>2018-05-18T10:24:46Z</time>
      </trkpt>
      <trkpt lat="45.9412" lon="4.68961">
        <ele>340</ele>
        <time>2018-05-18T10:24:47Z</time>
      </trkpt>
      <trkpt lat="45.94127" lon="4.68963">
        <ele>340</ele>
        <time>2018-05-18T10:24:48Z</time>
      </trkpt>
      <trkpt lat="45.94134" lon="4.68965">
        <ele>340</ele>
        <time>2018-05-18T10:24:49Z</time>
      </trkpt>
      <trkpt lat="45.94141" lon="4.68967">
        <ele>340</ele>
        <time>2018-05-18T10:24:50Z</time>
      </trkpt>
      <trkpt lat="45.94148" lon="4.68969">
        <ele>340</ele>
        <time>2018-05-18T10:24:51Z</time>
      </trkpt>
      <trkpt lat="45.94154" lon="4.68971">
        <ele>340</ele>
        <time>2018-05-18T10:24:52Z</time>
      </trkpt>
      <trkpt lat="45.94161" lon="4.68973">
        <ele>340</ele>
        <time>2018-05-18T10:24:53Z</time>
      </trkpt>
      <trkpt lat="45.94169" lon="4.68975">
        <ele>339</ele>
        <time>2018-05-18T10:24:54Z</time>
      </trkpt>
      <trkpt lat="45.94175" lon="4.68977">
        <ele>339</ele>
        <time>2018-05-18T10:24:55Z</time>
      </trkpt>
      <trkpt lat="45.94182" lon="4.68979">
        <ele>339</ele>
        <time>2018-05-18T10:24:56Z</time>
      </trkpt>
      <trkpt lat="45.94189" lon="4.6898">
        <ele>338</ele>
        <time>2018-05-18T10:24:57Z</time>
      </trkpt>
      <trkpt lat="45.94196" lon="4.68982">
        <ele>338</ele>
        <time>2018-05-18T10:24:58Z</time>
      </trkpt>
      <trkpt lat="45.94202" lon="4.68984">
        <ele>338</ele>
        <time>2018-05-18T10:24:59Z</time>
      </trkpt>
      <trkpt lat="45.94208" lon="4.68986">
        <ele>338</ele>
        <time>2018-05-18T10:25:00Z</time>
      </trkpt>
      <trkpt lat="45.94214" lon="4.68988">
        <ele>338</ele>
        <time>2018-05-18T10:25:01Z</time>
      </trkpt>
      <trkpt lat="45.9422" lon="4.6899">
        <ele>338</ele>
        <time>2018-05-18T10:25:02Z</time>
      </trkpt>
      <trkpt lat="45.94226" lon="4.68992">
        <ele>338</ele>
        <time>2018-05-18T10:25:03Z</time>
      </trkpt>
      <trkpt lat="45.94231" lon="4.68994">
        <ele>338</ele>
        <time>2018-05-18T10:25:04Z</time>
      </trkpt>
      <trkpt lat="45.94237" lon="4.68995">
        <ele>338</ele>
        <time>2018-05-18T10:25:05Z</time>
      </trkpt>
      <trkpt lat="45.94242" lon="4.68996">
        <ele>338</ele>
        <time>2018-05-18T10:25:06Z</time>
      </trkpt>
      <trkpt lat="45.94248" lon="4.68997">
        <ele>338</ele>
        <time>2018-05-18T10:25:07Z</time>
      </trkpt>
      <trkpt lat="45.94254" lon="4.68998">
        <ele>338</ele>
        <time>2018-05-18T10:25:08Z</time>
      </trkpt>
      <trkpt lat="45.94259" lon="4.69">
        <ele>337</ele>
        <time>2018-05-18T10:25:09Z</time>
      </trkpt>
      <trkpt lat="45.94265" lon="4.69001">
        <ele>338</ele>
        <time>2018-05-18T10:25:10Z</time>
      </trkpt>
      <trkpt lat="45.9427" lon="4.69002">
        <ele>337</ele>
        <time>2018-05-18T10:25:11Z</time>
      </trkpt>
      <trkpt lat="45.94275" lon="4.69003">
        <ele>337</ele>
        <time>2018-05-18T10:25:12Z</time>
      </trkpt>
      <trkpt lat="45.94281" lon="4.69004">
        <ele>337</ele>
        <time>2018-05-18T10:25:13Z</time>
      </trkpt>
      <trkpt lat="45.94286" lon="4.69006">
        <ele>337</ele>
        <time>2018-05-18T10:25:14Z</time>
      </trkpt>
      <trkpt lat="45.94292" lon="4.69008">
        <ele>337</ele>
        <time>2018-05-18T10:25:15Z</time>
      </trkpt>
      <trkpt lat="45.94297" lon="4.69009">
        <ele>337</ele>
        <time>2018-05-18T10:25:16Z</time>
      </trkpt>
      <trkpt lat="45.94303" lon="4.6901">
        <ele>337</ele>
        <time>2018-05-18T10:25:17Z</time>
      </trkpt>
      <trkpt lat="45.94309" lon="4.6901">
        <ele>337</ele>
        <time>2018-05-18T10:25:18Z</time>
      </trkpt>
      <trkpt lat="45.94315" lon="4.69011">
        <ele>337</ele>
        <time>2018-05-18T10:25:19Z</time>
      </trkpt>
      <trkpt lat="45.9432" lon="4.69011">
        <ele>337</ele>
        <time>2018-05-18T10:25:20Z</time>
      </trkpt>
      <trkpt lat="45.94325" lon="4.69012">
        <ele>337</ele>
        <time>2018-05-18T10:25:21Z</time>
      </trkpt>
      <trkpt lat="45.94331" lon="4.69013">
        <ele>337</ele>
        <time>2018-05-18T10:25:22Z</time>
      </trkpt>
      <trkpt lat="45.94336" lon="4.69013">
        <ele>337</ele>
        <time>2018-05-18T10:25:23Z</time>
      </trkpt>
      <trkpt lat="45.94341" lon="4.69013">
        <ele>338</ele>
        <time>2018-05-18T10:25:24Z</time>
      </trkpt>
      <trkpt lat="45.94346" lon="4.69011">
        <ele>338</ele>
        <time>2018-05-18T10:25:25Z</time>
      </trkpt>
      <trkpt lat="45.94351" lon="4.69011">
        <ele>338</ele>
        <time>2018-05-18T10:25:26Z</time>
      </trkpt>
      <trkpt lat="45.94357" lon="4.69011">
        <ele>338</ele>
        <time>2018-05-18T10:25:27Z</time>
      </trkpt>
      <trkpt lat="45.94362" lon="4.69011">
        <ele>338</ele>
        <time>2018-05-18T10:25:28Z</time>
      </trkpt>
      <trkpt lat="45.94366" lon="4.69012">
        <ele>338</ele>
        <time>2018-05-18T10:25:29Z</time>
      </trkpt>
      <trkpt lat="45.94372" lon="4.69011">
        <ele>338</ele>
        <time>2018-05-18T10:25:30Z</time>
      </trkpt>
      <trkpt lat="45.94377" lon="4.69012">
        <ele>338</ele>
        <time>2018-05-18T10:25:31Z</time>
      </trkpt>
      <trkpt lat="45.94382" lon="4.69012">
        <ele>338</ele>
        <time>2018-05-18T10:25:32Z</time>
      </trkpt>
      <trkpt lat="45.94387" lon="4.69013">
        <ele>338</ele>
        <time>2018-05-18T10:25:33Z</time>
      </trkpt>
      <trkpt lat="45.94392" lon="4.69014">
        <ele>338</ele>
        <time>2018-05-18T10:25:34Z</time>
      </trkpt>
      <trkpt lat="45.94397" lon="4.69013">
        <ele>339</ele>
        <time>2018-05-18T10:25:35Z</time>
      </trkpt>
      <trkpt lat="45.94401" lon="4.69013">
        <ele>339</ele>
        <time>2018-05-18T10:25:36Z</time>
      </trkpt>
      <trkpt lat="45.94406" lon="4.69013">
        <ele>339</ele>
        <time>2018-05-18T10:25:37Z</time>
      </trkpt>
      <trkpt lat="45.94415" lon="4.69012">
        <ele>339</ele>
        <time>2018-05-18T10:25:39Z</time>
      </trkpt>
      <trkpt lat="45.94419" lon="4.69012">
        <ele>340</ele>
        <time>2018-05-18T10:25:40Z</time>
      </trkpt>
      <trkpt lat="45.94424" lon="4.6901">
        <ele>340</ele>
        <time>2018-05-18T10:25:41Z</time>
      </trkpt>
      <trkpt lat="45.94428" lon="4.6901">
        <ele>340</ele>
        <time>2018-05-18T10:25:42Z</time>
      </trkpt>
      <trkpt lat="45.94433" lon="4.6901">
        <ele>340</ele>
        <time>2018-05-18T10:25:43Z</time>
      </trkpt>
      <trkpt lat="45.94438" lon="4.6901">
        <ele>340</ele>
        <time>2018-05-18T10:25:44Z</time>
      </trkpt>
      <trkpt lat="45.94442" lon="4.6901">
        <ele>340</ele>
        <time>2018-05-18T10:25:45Z</time>
      </trkpt>
      <trkpt lat="45.94447" lon="4.6901">
        <ele>340</ele>
        <time>2018-05-18T10:25:46Z</time>
      </trkpt>
      <trkpt lat="45.94451" lon="4.69011">
        <ele>340</ele>
        <time>2018-05-18T10:25:47Z</time>
      </trkpt>
      <trkpt lat="45.94456" lon="4.69011">
        <ele>340</ele>
        <time>2018-05-18T10:25:48Z</time>
      </trkpt>
      <trkpt lat="45.9446" lon="4.69012">
        <ele>341</ele>
        <time>2018-05-18T10:25:49Z</time>
      </trkpt>
      <trkpt lat="45.94465" lon="4.69013">
        <ele>341</ele>
        <time>2018-05-18T10:25:50Z</time>
      </trkpt>
      <trkpt lat="45.9447" lon="4.69014">
        <ele>341</ele>
        <time>2018-05-18T10:25:51Z</time>
      </trkpt>
      <trkpt lat="45.94474" lon="4.69014">
        <ele>341</ele>
        <time>2018-05-18T10:25:52Z</time>
      </trkpt>
      <trkpt lat="45.9448" lon="4.69015">
        <ele>341</ele>
        <time>2018-05-18T10:25:53Z</time>
      </trkpt>
      <trkpt lat="45.94484" lon="4.69016">
        <ele>341</ele>
        <time>2018-05-18T10:25:54Z</time>
      </trkpt>
      <trkpt lat="45.94489" lon="4.69016">
        <ele>341</ele>
        <time>2018-05-18T10:25:55Z</time>
      </trkpt>
      <trkpt lat="45.94493" lon="4.69018">
        <ele>341</ele>
        <time>2018-05-18T10:25:56Z</time>
      </trkpt>
      <trkpt lat="45.94498" lon="4.69019">
        <ele>341</ele>
        <time>2018-05-18T10:25:57Z</time>
      </trkpt>
      <trkpt lat="45.94502" lon="4.6902">
        <ele>342</ele>
        <time>2018-05-18T10:25:58Z</time>
      </trkpt>
      <trkpt lat="45.94511" lon="4.69022">
        <ele>342</ele>
        <time>2018-05-18T10:26:00Z</time>
      </trkpt>
      <trkpt lat="45.94516" lon="4.69022">
        <ele>342</ele>
        <time>2018-05-18T10:26:01Z</time>
      </trkpt>
      <trkpt lat="45.94524" lon="4.69025">
        <ele>342</ele>
        <time>2018-05-18T10:26:03Z</time>
      </trkpt>
      <trkpt lat="45.94529" lon="4.69026">
        <ele>342</ele>
        <time>2018-05-18T10:26:04Z</time>
      </trkpt>
      <trkpt lat="45.94537" lon="4.69028">
        <ele>342</ele>
        <time>2018-05-18T10:26:06Z</time>
      </trkpt>
      <trkpt lat="45.94541" lon="4.6903">
        <ele>342</ele>
        <time>2018-05-18T10:26:07Z</time>
      </trkpt>
      <trkpt lat="45.9455" lon="4.69032">
        <ele>342</ele>
        <time>2018-05-18T10:26:09Z</time>
      </trkpt>
      <trkpt lat="45.94554" lon="4.69034">
        <ele>342</ele>
        <time>2018-05-18T10:26:10Z</time>
      </trkpt>
      <trkpt lat="45.94563" lon="4.69036">
        <ele>342</ele>
        <time>2018-05-18T10:26:12Z</time>
      </trkpt>
      <trkpt lat="45.94567" lon="4.69037">
        <ele>342</ele>
        <time>2018-05-18T10:26:13Z</time>
      </trkpt>
      <trkpt lat="45.94571" lon="4.69039">
        <ele>342</ele>
        <time>2018-05-18T10:26:14Z</time>
      </trkpt>
      <trkpt lat="45.94575" lon="4.69041">
        <ele>342</ele>
        <time>2018-05-18T10:26:15Z</time>
      </trkpt>
      <trkpt lat="45.94584" lon="4.69044">
        <ele>342</ele>
        <time>2018-05-18T10:26:17Z</time>
      </trkpt>
      <trkpt lat="45.94588" lon="4.69045">
        <ele>342</ele>
        <time>2018-05-18T10:26:18Z</time>
      </trkpt>
      <trkpt lat="45.94596" lon="4.69048">
        <ele>342</ele>
        <time>2018-05-18T10:26:20Z</time>
      </trkpt>
      <trkpt lat="45.946" lon="4.69049">
        <ele>342</ele>
        <time>2018-05-18T10:26:21Z</time>
      </trkpt>
      <trkpt lat="45.94609" lon="4.69052">
        <ele>342</ele>
        <time>2018-05-18T10:26:23Z</time>
      </trkpt>
      <trkpt lat="45.94613" lon="4.69053">
        <ele>342</ele>
        <time>2018-05-18T10:26:24Z</time>
      </trkpt>
      <trkpt lat="45.94622" lon="4.69056">
        <ele>342</ele>
        <time>2018-05-18T10:26:26Z</time>
      </trkpt>
      <trkpt lat="45.94626" lon="4.69057">
        <ele>342</ele>
        <time>2018-05-18T10:26:27Z</time>
      </trkpt>
      <trkpt lat="45.94634" lon="4.69059">
        <ele>342</ele>
        <time>2018-05-18T10:26:29Z</time>
      </trkpt>
      <trkpt lat="45.94638" lon="4.69061">
        <ele>342</ele>
        <time>2018-05-18T10:26:30Z</time>
      </trkpt>
      <trkpt lat="45.94646" lon="4.69064">
        <ele>342</ele>
        <time>2018-05-18T10:26:32Z</time>
      </trkpt>
      <trkpt lat="45.94651" lon="4.69066">
        <ele>342</ele>
        <time>2018-05-18T10:26:33Z</time>
      </trkpt>
      <trkpt lat="45.94656" lon="4.69068">
        <ele>342</ele>
        <time>2018-05-18T10:26:34Z</time>
      </trkpt>
      <trkpt lat="45.9466" lon="4.69069">
        <ele>342</ele>
        <time>2018-05-18T10:26:35Z</time>
      </trkpt>
      <trkpt lat="45.94668" lon="4.6907">
        <ele>342</ele>
        <time>2018-05-18T10:26:37Z</time>
      </trkpt>
      <trkpt lat="45.94672" lon="4.69071">
        <ele>342</ele>
        <time>2018-05-18T10:26:38Z</time>
      </trkpt>
      <trkpt lat="45.94681" lon="4.69074">
        <ele>342</ele>
        <time>2018-05-18T10:26:40Z</time>
      </trkpt>
      <trkpt lat="45.94685" lon="4.69075">
        <ele>342</ele>
        <time>2018-05-18T10:26:41Z</time>
      </trkpt>
      <trkpt lat="45.9469" lon="4.69074">
        <ele>342</ele>
        <time>2018-05-18T10:26:42Z</time>
      </trkpt>
      <trkpt lat="45.94694" lon="4.69075">
        <ele>342</ele>
        <time>2018-05-18T10:26:43Z</time>
      </trkpt>
      <trkpt lat="45.94699" lon="4.69076">
        <ele>342</ele>
        <time>2018-05-18T10:26:44Z</time>
      </trkpt>
      <trkpt lat="45.94703" lon="4.69079">
        <ele>342</ele>
        <time>2018-05-18T10:26:45Z</time>
      </trkpt>
      <trkpt lat="45.94707" lon="4.69081">
        <ele>343</ele>
        <time>2018-05-18T10:26:46Z</time>
      </trkpt>
      <trkpt lat="45.94712" lon="4.69084">
        <ele>344</ele>
        <time>2018-05-18T10:26:47Z</time>
      </trkpt>
      <trkpt lat="45.94717" lon="4.69085">
        <ele>344</ele>
        <time>2018-05-18T10:26:48Z</time>
      </trkpt>
      <trkpt lat="45.94721" lon="4.69087">
        <ele>344</ele>
        <time>2018-05-18T10:26:49Z</time>
      </trkpt>
      <trkpt lat="45.94726" lon="4.69089">
        <ele>344</ele>
        <time>2018-05-18T10:26:50Z</time>
      </trkpt>
      <trkpt lat="45.9473" lon="4.6909">
        <ele>344</ele>
        <time>2018-05-18T10:26:51Z</time>
      </trkpt>
      <trkpt lat="45.94735" lon="4.69092">
        <ele>344</ele>
        <time>2018-05-18T10:26:52Z</time>
      </trkpt>
      <trkpt lat="45.9474" lon="4.69095">
        <ele>344</ele>
        <time>2018-05-18T10:26:53Z</time>
      </trkpt>
      <trkpt lat="45.94745" lon="4.69097">
        <ele>344</ele>
        <time>2018-05-18T10:26:54Z</time>
      </trkpt>
      <trkpt lat="45.9475" lon="4.69098">
        <ele>344</ele>
        <time>2018-05-18T10:26:55Z</time>
      </trkpt>
      <trkpt lat="45.94754" lon="4.69099">
        <ele>345</ele>
        <time>2018-05-18T10:26:56Z</time>
      </trkpt>
      <trkpt lat="45.94759" lon="4.69101">
        <ele>344</ele>
        <time>2018-05-18T10:26:57Z</time>
      </trkpt>
      <trkpt lat="45.94764" lon="4.69102">
        <ele>344</ele>
        <time>2018-05-18T10:26:58Z</time>
      </trkpt>
      <trkpt lat="45.94769" lon="4.69104">
        <ele>344</ele>
        <time>2018-05-18T10:26:59Z</time>
      </trkpt>
      <trkpt lat="45.94774" lon="4.69106">
        <ele>344</ele>
        <time>2018-05-18T10:27:00Z</time>
      </trkpt>
      <trkpt lat="45.94779" lon="4.69107">
        <ele>344</ele>
        <time>2018-05-18T10:27:01Z</time>
      </trkpt>
      <trkpt lat="45.94785" lon="4.69108">
        <ele>344</ele>
        <time>2018-05-18T10:27:02Z</time>
      </trkpt>
      <trkpt lat="45.9479" lon="4.69109">
        <ele>344</ele>
        <time>2018-05-18T10:27:03Z</time>
      </trkpt>
      <trkpt lat="45.94795" lon="4.69111">
        <ele>344</ele>
        <time>2018-05-18T10:27:04Z</time>
      </trkpt>
      <trkpt lat="45.948" lon="4.69113">
        <ele>344</ele>
        <time>2018-05-18T10:27:05Z</time>
      </trkpt>
      <trkpt lat="45.94806" lon="4.69115">
        <ele>344</ele>
        <time>2018-05-18T10:27:06Z</time>
      </trkpt>
      <trkpt lat="45.94812" lon="4.69117">
        <ele>344</ele>
        <time>2018-05-18T10:27:07Z</time>
      </trkpt>
      <trkpt lat="45.94817" lon="4.69119">
        <ele>344</ele>
        <time>2018-05-18T10:27:08Z</time>
      </trkpt>
      <trkpt lat="45.94823" lon="4.69122">
        <ele>344</ele>
        <time>2018-05-18T10:27:09Z</time>
      </trkpt>
      <trkpt lat="45.94829" lon="4.69124">
        <ele>344</ele>
        <time>2018-05-18T10:27:10Z</time>
      </trkpt>
      <trkpt lat="45.94835" lon="4.69125">
        <ele>342</ele>
        <time>2018-05-18T10:27:11Z</time>
      </trkpt>
      <trkpt lat="45.94841" lon="4.69128">
        <ele>342</ele>
        <time>2018-05-18T10:27:12Z</time>
      </trkpt>
      <trkpt lat="45.94847" lon="4.6913">
        <ele>342</ele>
        <time>2018-05-18T10:27:13Z</time>
      </trkpt>
      <trkpt lat="45.94854" lon="4.69132">
        <ele>342</ele>
        <time>2018-05-18T10:27:14Z</time>
      </trkpt>
      <trkpt lat="45.9486" lon="4.69134">
        <ele>342</ele>
        <time>2018-05-18T10:27:15Z</time>
      </trkpt>
      <trkpt lat="45.94866" lon="4.69137">
        <ele>342</ele>
        <time>2018-05-18T10:27:16Z</time>
      </trkpt>
      <trkpt lat="45.94872" lon="4.69139">
        <ele>342</ele>
        <time>2018-05-18T10:27:17Z</time>
      </trkpt>
      <trkpt lat="45.94878" lon="4.69142">
        <ele>342</ele>
        <time>2018-05-18T10:27:18Z</time>
      </trkpt>
      <trkpt lat="45.94883" lon="4.69145">
        <ele>342</ele>
        <time>2018-05-18T10:27:19Z</time>
      </trkpt>
      <trkpt lat="45.94889" lon="4.69148">
        <ele>342</ele>
        <time>2018-05-18T10:27:20Z</time>
      </trkpt>
      <trkpt lat="45.94895" lon="4.6915">
        <ele>342</ele>
        <time>2018-05-18T10:27:21Z</time>
      </trkpt>
      <trkpt lat="45.94902" lon="4.69152">
        <ele>342</ele>
        <time>2018-05-18T10:27:22Z</time>
      </trkpt>
      <trkpt lat="45.94908" lon="4.69156">
        <ele>342</ele>
        <time>2018-05-18T10:27:23Z</time>
      </trkpt>
      <trkpt lat="45.94914" lon="4.69159">
        <ele>342</ele>
        <time>2018-05-18T10:27:24Z</time>
      </trkpt>
      <trkpt lat="45.9492" lon="4.69163">
        <ele>341</ele>
        <time>2018-05-18T10:27:25Z</time>
      </trkpt>
      <trkpt lat="45.94926" lon="4.69167">
        <ele>341</ele>
        <time>2018-05-18T10:27:26Z</time>
      </trkpt>
      <trkpt lat="45.94932" lon="4.69171">
        <ele>341</ele>
        <time>2018-05-18T10:27:27Z</time>
      </trkpt>
      <trkpt lat="45.94939" lon="4.69175">
        <ele>341</ele>
        <time>2018-05-18T10:27:28Z</time>
      </trkpt>
      <trkpt lat="45.94945" lon="4.69179">
        <ele>341</ele>
        <time>2018-05-18T10:27:29Z</time>
      </trkpt>
      <trkpt lat="45.94951" lon="4.69184">
        <ele>340</ele>
        <time>2018-05-18T10:27:30Z</time>
      </trkpt>
      <trkpt lat="45.94958" lon="4.69189">
        <ele>340</ele>
        <time>2018-05-18T10:27:31Z</time>
      </trkpt>
      <trkpt lat="45.94964" lon="4.69194">
        <ele>340</ele>
        <time>2018-05-18T10:27:32Z</time>
      </trkpt>
      <trkpt lat="45.9497" lon="4.692">
        <ele>340</ele>
        <time>2018-05-18T10:27:33Z</time>
      </trkpt>
      <trkpt lat="45.94976" lon="4.69205">
        <ele>340</ele>
        <time>2018-05-18T10:27:34Z</time>
      </trkpt>
      <trkpt lat="45.94983" lon="4.6921">
        <ele>340</ele>
        <time>2018-05-18T10:27:35Z</time>
      </trkpt>
      <trkpt lat="45.94991" lon="4.69213">
        <ele>340</ele>
        <time>2018-05-18T10:27:36Z</time>
      </trkpt>
      <trkpt lat="45.94998" lon="4.69216">
        <ele>340</ele>
        <time>2018-05-18T10:27:37Z</time>
      </trkpt>
      <trkpt lat="45.95005" lon="4.6922">
        <ele>337</ele>
        <time>2018-05-18T10:27:38Z</time>
      </trkpt>
      <trkpt lat="45.95013" lon="4.69224">
        <ele>337</ele>
        <time>2018-05-18T10:27:39Z</time>
      </trkpt>
      <trkpt lat="45.95021" lon="4.6923">
        <ele>337</ele>
        <time>2018-05-18T10:27:40Z</time>
      </trkpt>
      <trkpt lat="45.95028" lon="4.69236">
        <ele>337</ele>
        <time>2018-05-18T10:27:41Z</time>
      </trkpt>
      <trkpt lat="45.95035" lon="4.69242">
        <ele>336</ele>
        <time>2018-05-18T10:27:42Z</time>
      </trkpt>
      <trkpt lat="45.95042" lon="4.69249">
        <ele>336</ele>
        <time>2018-05-18T10:27:43Z</time>
      </trkpt>
      <trkpt lat="45.95048" lon="4.69256">
        <ele>337</ele>
        <time>2018-05-18T10:27:44Z</time>
      </trkpt>
      <trkpt lat="45.95055" lon="4.69264">
        <ele>336</ele>
        <time>2018-05-18T10:27:45Z</time>
      </trkpt>
      <trkpt lat="45.95062" lon="4.6927">
        <ele>336</ele>
        <time>2018-05-18T10:27:46Z</time>
      </trkpt>
      <trkpt lat="45.95069" lon="4.69277">
        <ele>336</ele>
        <time>2018-05-18T10:27:47Z</time>
      </trkpt>
      <trkpt lat="45.95075" lon="4.69284">
        <ele>336</ele>
        <time>2018-05-18T10:27:48Z</time>
      </trkpt>
      <trkpt lat="45.95082" lon="4.6929">
        <ele>336</ele>
        <time>2018-05-18T10:27:49Z</time>
      </trkpt>
      <trkpt lat="45.95088" lon="4.69297">
        <ele>334</ele>
        <time>2018-05-18T10:27:50Z</time>
      </trkpt>
      <trkpt lat="45.95094" lon="4.69304">
        <ele>334</ele>
        <time>2018-05-18T10:27:51Z</time>
      </trkpt>
      <trkpt lat="45.951" lon="4.69312">
        <ele>334</ele>
        <time>2018-05-18T10:27:52Z</time>
      </trkpt>
      <trkpt lat="45.95106" lon="4.69319">
        <ele>334</ele>
        <time>2018-05-18T10:27:53Z</time>
      </trkpt>
      <trkpt lat="45.95111" lon="4.69323">
        <ele>334</ele>
        <time>2018-05-18T10:27:54Z</time>
      </trkpt>
      <trkpt lat="45.95116" lon="4.69328">
        <ele>334</ele>
        <time>2018-05-18T10:27:55Z</time>
      </trkpt>
      <trkpt lat="45.95122" lon="4.69333">
        <ele>334</ele>
        <time>2018-05-18T10:27:56Z</time>
      </trkpt>
      <trkpt lat="45.95127" lon="4.69339">
        <ele>336</ele>
        <time>2018-05-18T10:27:57Z</time>
      </trkpt>
      <trkpt lat="45.95133" lon="4.69345">
        <ele>337</ele>
        <time>2018-05-18T10:27:58Z</time>
      </trkpt>
      <trkpt lat="45.95139" lon="4.6935">
        <ele>337</ele>
        <time>2018-05-18T10:27:59Z</time>
      </trkpt>
      <trkpt lat="45.95143" lon="4.69355">
        <ele>337</ele>
        <time>2018-05-18T10:28:00Z</time>
      </trkpt>
      <trkpt lat="45.95147" lon="4.69361">
        <ele>337</ele>
        <time>2018-05-18T10:28:01Z</time>
      </trkpt>
      <trkpt lat="45.95153" lon="4.69365">
        <ele>337</ele>
        <time>2018-05-18T10:28:02Z</time>
      </trkpt>
      <trkpt lat="45.95157" lon="4.69369">
        <ele>337</ele>
        <time>2018-05-18T10:28:03Z</time>
      </trkpt>
      <trkpt lat="45.95161" lon="4.69373">
        <ele>337</ele>
        <time>2018-05-18T10:28:04Z</time>
      </trkpt>
      <trkpt lat="45.95165" lon="4.69379">
        <ele>337</ele>
        <time>2018-05-18T10:28:05Z</time>
      </trkpt>
      <trkpt lat="45.9517" lon="4.69383">
        <ele>337</ele>
        <time>2018-05-18T10:28:06Z</time>
      </trkpt>
      <trkpt lat="45.95175" lon="4.69387">
        <ele>337</ele>
        <time>2018-05-18T10:28:07Z</time>
      </trkpt>
      <trkpt lat="45.9518" lon="4.6939">
        <ele>337</ele>
        <time>2018-05-18T10:28:08Z</time>
      </trkpt>
      <trkpt lat="45.95184" lon="4.69394">
        <ele>337</ele>
        <time>2018-05-18T10:28:09Z</time>
      </trkpt>
      <trkpt lat="45.9519" lon="4.69398">
        <ele>337</ele>
        <time>2018-05-18T10:28:10Z</time>
      </trkpt>
      <trkpt lat="45.95194" lon="4.69401">
        <ele>337</ele>
        <time>2018-05-18T10:28:11Z</time>
      </trkpt>
      <trkpt lat="45.95199" lon="4.69405">
        <ele>337</ele>
        <time>2018-05-18T10:28:12Z</time>
      </trkpt>
      <trkpt lat="45.95204" lon="4.69406">
        <ele>337</ele>
        <time>2018-05-18T10:28:13Z</time>
      </trkpt>
      <trkpt lat="45.95208" lon="4.69408">
        <ele>337</ele>
        <time>2018-05-18T10:28:14Z</time>
      </trkpt>
      <trkpt lat="45.95213" lon="4.6941">
        <ele>337</ele>
        <time>2018-05-18T10:28:15Z</time>
      </trkpt>
      <trkpt lat="45.95219" lon="4.69412">
        <ele>337</ele>
        <time>2018-05-18T10:28:16Z</time>
      </trkpt>
      <trkpt lat="45.95223" lon="4.69415">
        <ele>337</ele>
        <time>2018-05-18T10:28:17Z</time>
      </trkpt>
      <trkpt lat="45.95229" lon="4.69418">
        <ele>340</ele>
        <time>2018-05-18T10:28:18Z</time>
      </trkpt>
      <trkpt lat="45.95234" lon="4.69421">
        <ele>339</ele>
        <time>2018-05-18T10:28:19Z</time>
      </trkpt>
      <trkpt lat="45.95239" lon="4.69423">
        <ele>339</ele>
        <time>2018-05-18T10:28:20Z</time>
      </trkpt>
      <trkpt lat="45.95244" lon="4.69425">
        <ele>339</ele>
        <time>2018-05-18T10:28:21Z</time>
      </trkpt>
      <trkpt lat="45.95249" lon="4.69429">
        <ele>339</ele>
        <time>2018-05-18T10:28:22Z</time>
      </trkpt>
      <trkpt lat="45.95254" lon="4.6943">
        <ele>338</ele>
        <time>2018-05-18T10:28:23Z</time>
      </trkpt>
      <trkpt lat="45.95259" lon="4.69433">
        <ele>338</ele>
        <time>2018-05-18T10:28:24Z</time>
      </trkpt>
      <trkpt lat="45.95264" lon="4.69435">
        <ele>338</ele>
        <time>2018-05-18T10:28:25Z</time>
      </trkpt>
      <trkpt lat="45.95269" lon="4.69438">
        <ele>338</ele>
        <time>2018-05-18T10:28:26Z</time>
      </trkpt>
      <trkpt lat="45.95275" lon="4.6944">
        <ele>338</ele>
        <time>2018-05-18T10:28:27Z</time>
      </trkpt>
      <trkpt lat="45.9528" lon="4.69441">
        <ele>338</ele>
        <time>2018-05-18T10:28:28Z</time>
      </trkpt>
      <trkpt lat="45.95284" lon="4.69444">
        <ele>338</ele>
        <time>2018-05-18T10:28:29Z</time>
      </trkpt>
      <trkpt lat="45.9529" lon="4.69446">
        <ele>338</ele>
        <time>2018-05-18T10:28:30Z</time>
      </trkpt>
      <trkpt lat="45.95295" lon="4.69447">
        <ele>338</ele>
        <time>2018-05-18T10:28:31Z</time>
      </trkpt>
      <trkpt lat="45.953" lon="4.6945">
        <ele>338</ele>
        <time>2018-05-18T10:28:32Z</time>
      </trkpt>
      <trkpt lat="45.95306" lon="4.69453">
        <ele>338</ele>
        <time>2018-05-18T10:28:33Z</time>
      </trkpt>
      <trkpt lat="45.95312" lon="4.69455">
        <ele>338</ele>
        <time>2018-05-18T10:28:34Z</time>
      </trkpt>
      <trkpt lat="45.95317" lon="4.69456">
        <ele>338</ele>
        <time>2018-05-18T10:28:35Z</time>
      </trkpt>
      <trkpt lat="45.95323" lon="4.69459">
        <ele>338</ele>
        <time>2018-05-18T10:28:36Z</time>
      </trkpt>
      <trkpt lat="45.95329" lon="4.69461">
        <ele>338</ele>
        <time>2018-05-18T10:28:37Z</time>
      </trkpt>
      <trkpt lat="45.95335" lon="4.69463">
        <ele>336</ele>
        <time>2018-05-18T10:28:38Z</time>
      </trkpt>
      <trkpt lat="45.95338" lon="4.69466">
        <ele>336</ele>
        <time>2018-05-18T10:28:39Z</time>
      </trkpt>
      <trkpt lat="45.95344" lon="4.69469">
        <ele>337</ele>
        <time>2018-05-18T10:28:40Z</time>
      </trkpt>
      <trkpt lat="45.9535" lon="4.69474">
        <ele>337</ele>
        <time>2018-05-18T10:28:41Z</time>
      </trkpt>
      <trkpt lat="45.95356" lon="4.69477">
        <ele>337</ele>
        <time>2018-05-18T10:28:42Z</time>
      </trkpt>
      <trkpt lat="45.95361" lon="4.69481">
        <ele>337</ele>
        <time>2018-05-18T10:28:43Z</time>
      </trkpt>
      <trkpt lat="45.95366" lon="4.69485">
        <ele>337</ele>
        <time>2018-05-18T10:28:44Z</time>
      </trkpt>
      <trkpt lat="45.95371" lon="4.6949">
        <ele>337</ele>
        <time>2018-05-18T10:28:45Z</time>
      </trkpt>
      <trkpt lat="45.95375" lon="4.69493">
        <ele>337</ele>
        <time>2018-05-18T10:28:46Z</time>
      </trkpt>
      <trkpt lat="45.95381" lon="4.69497">
        <ele>337</ele>
        <time>2018-05-18T10:28:47Z</time>
      </trkpt>
      <trkpt lat="45.95386" lon="4.69501">
        <ele>340</ele>
        <time>2018-05-18T10:28:48Z</time>
      </trkpt>
      <trkpt lat="45.95393" lon="4.69506">
        <ele>339</ele>
        <time>2018-05-18T10:28:49Z</time>
      </trkpt>
      <trkpt lat="45.95399" lon="4.69511">
        <ele>339</ele>
        <time>2018-05-18T10:28:50Z</time>
      </trkpt>
      <trkpt lat="45.95406" lon="4.69516">
        <ele>339</ele>
        <time>2018-05-18T10:28:51Z</time>
      </trkpt>
      <trkpt lat="45.95411" lon="4.69521">
        <ele>339</ele>
        <time>2018-05-18T10:28:52Z</time>
      </trkpt>
      <trkpt lat="45.95418" lon="4.69524">
        <ele>337</ele>
        <time>2018-05-18T10:28:53Z</time>
      </trkpt>
      <trkpt lat="45.95425" lon="4.69528">
        <ele>337</ele>
        <time>2018-05-18T10:28:54Z</time>
      </trkpt>
      <trkpt lat="45.9543" lon="4.69532">
        <ele>337</ele>
        <time>2018-05-18T10:28:55Z</time>
      </trkpt>
      <trkpt lat="45.95436" lon="4.69538">
        <ele>337</ele>
        <time>2018-05-18T10:28:56Z</time>
      </trkpt>
      <trkpt lat="45.95441" lon="4.69541">
        <ele>337</ele>
        <time>2018-05-18T10:28:57Z</time>
      </trkpt>
      <trkpt lat="45.95447" lon="4.69544">
        <ele>337</ele>
        <time>2018-05-18T10:28:58Z</time>
      </trkpt>
      <trkpt lat="45.95454" lon="4.69547">
        <ele>337</ele>
        <time>2018-05-18T10:28:59Z</time>
      </trkpt>
      <trkpt lat="45.9546" lon="4.6955">
        <ele>337</ele>
        <time>2018-05-18T10:29:00Z</time>
      </trkpt>
      <trkpt lat="45.95465" lon="4.69553">
        <ele>337</ele>
        <time>2018-05-18T10:29:01Z</time>
      </trkpt>
      <trkpt lat="45.95471" lon="4.69557">
        <ele>337</ele>
        <time>2018-05-18T10:29:02Z</time>
      </trkpt>
      <trkpt lat="45.95478" lon="4.69561">
        <ele>337</ele>
        <time>2018-05-18T10:29:03Z</time>
      </trkpt>
      <trkpt lat="45.95484" lon="4.69563">
        <ele>337</ele>
        <time>2018-05-18T10:29:04Z</time>
      </trkpt>
      <trkpt lat="45.95491" lon="4.69566">
        <ele>337</ele>
        <time>2018-05-18T10:29:05Z</time>
      </trkpt>
      <trkpt lat="45.95498" lon="4.6957">
        <ele>337</ele>
        <time>2018-05-18T10:29:06Z</time>
      </trkpt>
      <trkpt lat="45.95506" lon="4.6957">
        <ele>334</ele>
        <time>2018-05-18T10:29:07Z</time>
      </trkpt>
      <trkpt lat="45.95513" lon="4.69572">
        <ele>334</ele>
        <time>2018-05-18T10:29:08Z</time>
      </trkpt>
      <trkpt lat="45.9552" lon="4.69575">
        <ele>333</ele>
        <time>2018-05-18T10:29:09Z</time>
      </trkpt>
      <trkpt lat="45.95527" lon="4.69578">
        <ele>333</ele>
        <time>2018-05-18T10:29:10Z</time>
      </trkpt>
      <trkpt lat="45.95534" lon="4.69581">
        <ele>332</ele>
        <time>2018-05-18T10:29:11Z</time>
      </trkpt>
      <trkpt lat="45.95541" lon="4.69584">
        <ele>332</ele>
        <time>2018-05-18T10:29:12Z</time>
      </trkpt>
      <trkpt lat="45.95549" lon="4.69587">
        <ele>331</ele>
        <time>2018-05-18T10:29:13Z</time>
      </trkpt>
      <trkpt lat="45.95555" lon="4.69589">
        <ele>331</ele>
        <time>2018-05-18T10:29:14Z</time>
      </trkpt>
      <trkpt lat="45.95562" lon="4.69592">
        <ele>330</ele>
        <time>2018-05-18T10:29:15Z</time>
      </trkpt>
      <trkpt lat="45.95569" lon="4.69596">
        <ele>330</ele>
        <time>2018-05-18T10:29:16Z</time>
      </trkpt>
      <trkpt lat="45.95575" lon="4.69598">
        <ele>330</ele>
        <time>2018-05-18T10:29:17Z</time>
      </trkpt>
      <trkpt lat="45.95583" lon="4.69601">
        <ele>330</ele>
        <time>2018-05-18T10:29:18Z</time>
      </trkpt>
      <trkpt lat="45.9559" lon="4.69605">
        <ele>328</ele>
        <time>2018-05-18T10:29:19Z</time>
      </trkpt>
      <trkpt lat="45.95598" lon="4.69607">
        <ele>328</ele>
        <time>2018-05-18T10:29:20Z</time>
      </trkpt>
      <trkpt lat="45.95605" lon="4.69611">
        <ele>328</ele>
        <time>2018-05-18T10:29:21Z</time>
      </trkpt>
      <trkpt lat="45.95613" lon="4.69613">
        <ele>328</ele>
        <time>2018-05-18T10:29:22Z</time>
      </trkpt>
      <trkpt lat="45.9562" lon="4.69616">
        <ele>328</ele>
        <time>2018-05-18T10:29:23Z</time>
      </trkpt>
      <trkpt lat="45.95627" lon="4.69617">
        <ele>328</ele>
        <time>2018-05-18T10:29:24Z</time>
      </trkpt>
      <trkpt lat="45.95635" lon="4.69618">
        <ele>328</ele>
        <time>2018-05-18T10:29:25Z</time>
      </trkpt>
      <trkpt lat="45.95643" lon="4.69622">
        <ele>328</ele>
        <time>2018-05-18T10:29:26Z</time>
      </trkpt>
      <trkpt lat="45.95649" lon="4.69626">
        <ele>328</ele>
        <time>2018-05-18T10:29:27Z</time>
      </trkpt>
      <trkpt lat="45.95656" lon="4.6963">
        <ele>328</ele>
        <time>2018-05-18T10:29:28Z</time>
      </trkpt>
      <trkpt lat="45.95663" lon="4.69633">
        <ele>327</ele>
        <time>2018-05-18T10:29:29Z</time>
      </trkpt>
      <trkpt lat="45.9567" lon="4.69637">
        <ele>326</ele>
        <time>2018-05-18T10:29:30Z</time>
      </trkpt>
      <trkpt lat="45.95677" lon="4.69639">
        <ele>326</ele>
        <time>2018-05-18T10:29:31Z</time>
      </trkpt>
      <trkpt lat="45.95684" lon="4.69641">
        <ele>326</ele>
        <time>2018-05-18T10:29:32Z</time>
      </trkpt>
      <trkpt lat="45.9569" lon="4.69644">
        <ele>326</ele>
        <time>2018-05-18T10:29:33Z</time>
      </trkpt>
      <trkpt lat="45.95697" lon="4.69647">
        <ele>326</ele>
        <time>2018-05-18T10:29:34Z</time>
      </trkpt>
      <trkpt lat="45.95704" lon="4.6965">
        <ele>326</ele>
        <time>2018-05-18T10:29:35Z</time>
      </trkpt>
      <trkpt lat="45.95711" lon="4.69652">
        <ele>326</ele>
        <time>2018-05-18T10:29:36Z</time>
      </trkpt>
      <trkpt lat="45.95717" lon="4.69655">
        <ele>326</ele>
        <time>2018-05-18T10:29:37Z</time>
      </trkpt>
      <trkpt lat="45.95724" lon="4.69658">
        <ele>326</ele>
        <time>2018-05-18T10:29:38Z</time>
      </trkpt>
      <trkpt lat="45.9573" lon="4.69661">
        <ele>326</ele>
        <time>2018-05-18T10:29:39Z</time>
      </trkpt>
      <trkpt lat="45.95736" lon="4.69664">
        <ele>326</ele>
        <time>2018-05-18T10:29:40Z</time>
      </trkpt>
      <trkpt lat="45.95742" lon="4.69667">
        <ele>326</ele>
        <time>2018-05-18T10:29:41Z</time>
      </trkpt>
      <trkpt lat="45.95747" lon="4.69671">
        <ele>326</ele>
        <time>2018-05-18T10:29:42Z</time>
      </trkpt>
      <trkpt lat="45.95753" lon="4.69675">
        <ele>326</ele>
        <time>2018-05-18T10:29:43Z</time>
      </trkpt>
      <trkpt lat="45.95758" lon="4.69679">
        <ele>326</ele>
        <time>2018-05-18T10:29:44Z</time>
      </trkpt>
      <trkpt lat="45.95765" lon="4.69683">
        <ele>326</ele>
        <time>2018-05-18T10:29:45Z</time>
      </trkpt>
      <trkpt lat="45.9577" lon="4.69685">
        <ele>326</ele>
        <time>2018-05-18T10:29:46Z</time>
      </trkpt>
      <trkpt lat="45.95775" lon="4.69689">
        <ele>326</ele>
        <time>2018-05-18T10:29:47Z</time>
      </trkpt>
      <trkpt lat="45.95779" lon="4.69694">
        <ele>326</ele>
        <time>2018-05-18T10:29:48Z</time>
      </trkpt>
      <trkpt lat="45.95784" lon="4.69698">
        <ele>326</ele>
        <time>2018-05-18T10:29:49Z</time>
      </trkpt>
      <trkpt lat="45.95789" lon="4.69702">
        <ele>326</ele>
        <time>2018-05-18T10:29:50Z</time>
      </trkpt>
      <trkpt lat="45.95793" lon="4.69707">
        <ele>326</ele>
        <time>2018-05-18T10:29:51Z</time>
      </trkpt>
      <trkpt lat="45.95797" lon="4.69713">
        <ele>326</ele>
        <time>2018-05-18T10:29:52Z</time>
      </trkpt>
      <trkpt lat="45.95802" lon="4.69718">
        <ele>326</ele>
        <time>2018-05-18T10:29:53Z</time>
      </trkpt>
      <trkpt lat="45.95805" lon="4.69725">
        <ele>326</ele>
        <time>2018-05-18T10:29:55Z</time>
      </trkpt>
      <trkpt lat="45.95808" lon="4.69731">
        <ele>326</ele>
        <time>2018-05-18T10:29:56Z</time>
      </trkpt>
      <trkpt lat="45.95812" lon="4.69737">
        <ele>327</ele>
        <time>2018-05-18T10:29:57Z</time>
      </trkpt>
      <trkpt lat="45.95816" lon="4.69744">
        <ele>327</ele>
        <time>2018-05-18T10:29:58Z</time>
      </trkpt>
      <trkpt lat="45.95819" lon="4.69749">
        <ele>327</ele>
        <time>2018-05-18T10:29:59Z</time>
      </trkpt>
      <trkpt lat="45.95822" lon="4.69756">
        <ele>328</ele>
        <time>2018-05-18T10:30:00Z</time>
      </trkpt>
      <trkpt lat="45.95825" lon="4.69761">
        <ele>328</ele>
        <time>2018-05-18T10:30:01Z</time>
      </trkpt>
      <trkpt lat="45.9583" lon="4.69767">
        <ele>328</ele>
        <time>2018-05-18T10:30:02Z</time>
      </trkpt>
      <trkpt lat="45.95833" lon="4.69773">
        <ele>328</ele>
        <time>2018-05-18T10:30:03Z</time>
      </trkpt>
      <trkpt lat="45.95837" lon="4.6978">
        <ele>327</ele>
        <time>2018-05-18T10:30:04Z</time>
      </trkpt>
      <trkpt lat="45.9584" lon="4.69787">
        <ele>327</ele>
        <time>2018-05-18T10:30:05Z</time>
      </trkpt>
      <trkpt lat="45.95844" lon="4.69793">
        <ele>327</ele>
        <time>2018-05-18T10:30:06Z</time>
      </trkpt>
      <trkpt lat="45.95847" lon="4.698">
        <ele>327</ele>
        <time>2018-05-18T10:30:07Z</time>
      </trkpt>
      <trkpt lat="45.9585" lon="4.69805">
        <ele>327</ele>
        <time>2018-05-18T10:30:08Z</time>
      </trkpt>
      <trkpt lat="45.95853" lon="4.69812">
        <ele>328</ele>
        <time>2018-05-18T10:30:09Z</time>
      </trkpt>
      <trkpt lat="45.95856" lon="4.69819">
        <ele>328</ele>
        <time>2018-05-18T10:30:10Z</time>
      </trkpt>
      <trkpt lat="45.95858" lon="4.69826">
        <ele>328</ele>
        <time>2018-05-18T10:30:11Z</time>
      </trkpt>
      <trkpt lat="45.95861" lon="4.69833">
        <ele>328</ele>
        <time>2018-05-18T10:30:12Z</time>
      </trkpt>
      <trkpt lat="45.95865" lon="4.6984">
        <ele>329</ele>
        <time>2018-05-18T10:30:13Z</time>
      </trkpt>
      <trkpt lat="45.95867" lon="4.69847">
        <ele>329</ele>
        <time>2018-05-18T10:30:14Z</time>
      </trkpt>
      <trkpt lat="45.9587" lon="4.69855">
        <ele>329</ele>
        <time>2018-05-18T10:30:15Z</time>
      </trkpt>
      <trkpt lat="45.95873" lon="4.69862">
        <ele>329</ele>
        <time>2018-05-18T10:30:16Z</time>
      </trkpt>
      <trkpt lat="45.95875" lon="4.69869">
        <ele>329</ele>
        <time>2018-05-18T10:30:17Z</time>
      </trkpt>
      <trkpt lat="45.95877" lon="4.69877">
        <ele>329</ele>
        <time>2018-05-18T10:30:18Z</time>
      </trkpt>
      <trkpt lat="45.95878" lon="4.69885">
        <ele>329</ele>
        <time>2018-05-18T10:30:19Z</time>
      </trkpt>
      <trkpt lat="45.95881" lon="4.69892">
        <ele>329</ele>
        <time>2018-05-18T10:30:20Z</time>
      </trkpt>
      <trkpt lat="45.95883" lon="4.69899">
        <ele>329</ele>
        <time>2018-05-18T10:30:21Z</time>
      </trkpt>
      <trkpt lat="45.95884" lon="4.69906">
        <ele>329</ele>
        <time>2018-05-18T10:30:22Z</time>
      </trkpt>
      <trkpt lat="45.95886" lon="4.69913">
        <ele>329</ele>
        <time>2018-05-18T10:30:23Z</time>
      </trkpt>
      <trkpt lat="45.95889" lon="4.69921">
        <ele>328</ele>
        <time>2018-05-18T10:30:24Z</time>
      </trkpt>
      <trkpt lat="45.95891" lon="4.69928">
        <ele>328</ele>
        <time>2018-05-18T10:30:25Z</time>
      </trkpt>
      <trkpt lat="45.95893" lon="4.69935">
        <ele>328</ele>
        <time>2018-05-18T10:30:26Z</time>
      </trkpt>
      <trkpt lat="45.95894" lon="4.69941">
        <ele>328</ele>
        <time>2018-05-18T10:30:27Z</time>
      </trkpt>
      <trkpt lat="45.95895" lon="4.69948">
        <ele>328</ele>
        <time>2018-05-18T10:30:28Z</time>
      </trkpt>
      <trkpt lat="45.95897" lon="4.69955">
        <ele>328</ele>
        <time>2018-05-18T10:30:29Z</time>
      </trkpt>
      <trkpt lat="45.95899" lon="4.69962">
        <ele>328</ele>
        <time>2018-05-18T10:30:30Z</time>
      </trkpt>
      <trkpt lat="45.959" lon="4.69968">
        <ele>328</ele>
        <time>2018-05-18T10:30:31Z</time>
      </trkpt>
      <trkpt lat="45.95903" lon="4.69975">
        <ele>328</ele>
        <time>2018-05-18T10:30:32Z</time>
      </trkpt>
      <trkpt lat="45.95904" lon="4.69981">
        <ele>328</ele>
        <time>2018-05-18T10:30:33Z</time>
      </trkpt>
      <trkpt lat="45.95907" lon="4.69988">
        <ele>328</ele>
        <time>2018-05-18T10:30:34Z</time>
      </trkpt>
      <trkpt lat="45.9591" lon="4.69999">
        <ele>328</ele>
        <time>2018-05-18T10:30:36Z</time>
      </trkpt>
      <trkpt lat="45.95913" lon="4.70005">
        <ele>328</ele>
        <time>2018-05-18T10:30:37Z</time>
      </trkpt>
      <trkpt lat="45.95916" lon="4.70011">
        <ele>328</ele>
        <time>2018-05-18T10:30:38Z</time>
      </trkpt>
      <trkpt lat="45.95918" lon="4.70017">
        <ele>328</ele>
        <time>2018-05-18T10:30:39Z</time>
      </trkpt>
      <trkpt lat="45.95921" lon="4.70022">
        <ele>328</ele>
        <time>2018-05-18T10:30:40Z</time>
      </trkpt>
      <trkpt lat="45.95924" lon="4.70029">
        <ele>328</ele>
        <time>2018-05-18T10:30:41Z</time>
      </trkpt>
      <trkpt lat="45.95927" lon="4.70035">
        <ele>328</ele>
        <time>2018-05-18T10:30:42Z</time>
      </trkpt>
      <trkpt lat="45.9593" lon="4.7004">
        <ele>328</ele>
        <time>2018-05-18T10:30:43Z</time>
      </trkpt>
      <trkpt lat="45.95933" lon="4.70046">
        <ele>328</ele>
        <time>2018-05-18T10:30:44Z</time>
      </trkpt>
      <trkpt lat="45.95937" lon="4.70051">
        <ele>328</ele>
        <time>2018-05-18T10:30:45Z</time>
      </trkpt>
      <trkpt lat="45.9594" lon="4.70056">
        <ele>328</ele>
        <time>2018-05-18T10:30:46Z</time>
      </trkpt>
      <trkpt lat="45.95943" lon="4.70061">
        <ele>328</ele>
        <time>2018-05-18T10:30:47Z</time>
      </trkpt>
      <trkpt lat="45.95946" lon="4.70066">
        <ele>328</ele>
        <time>2018-05-18T10:30:48Z</time>
      </trkpt>
      <trkpt lat="45.95949" lon="4.7007">
        <ele>328</ele>
        <time>2018-05-18T10:30:49Z</time>
      </trkpt>
      <trkpt lat="45.95953" lon="4.70075">
        <ele>328</ele>
        <time>2018-05-18T10:30:50Z</time>
      </trkpt>
      <trkpt lat="45.95957" lon="4.70078">
        <ele>328</ele>
        <time>2018-05-18T10:30:51Z</time>
      </trkpt>
      <trkpt lat="45.95962" lon="4.70086">
        <ele>328</ele>
        <time>2018-05-18T10:30:53Z</time>
      </trkpt>
      <trkpt lat="45.95966" lon="4.70089">
        <ele>328</ele>
        <time>2018-05-18T10:30:54Z</time>
      </trkpt>
      <trkpt lat="45.95973" lon="4.70097">
        <ele>328</ele>
        <time>2018-05-18T10:30:56Z</time>
      </trkpt>
      <trkpt lat="45.95977" lon="4.70101">
        <ele>328</ele>
        <time>2018-05-18T10:30:57Z</time>
      </trkpt>
      <trkpt lat="45.95981" lon="4.70105">
        <ele>328</ele>
        <time>2018-05-18T10:30:58Z</time>
      </trkpt>
      <trkpt lat="45.95984" lon="4.70109">
        <ele>328</ele>
        <time>2018-05-18T10:30:59Z</time>
      </trkpt>
      <trkpt lat="45.9599" lon="4.70115">
        <ele>328</ele>
        <time>2018-05-18T10:31:01Z</time>
      </trkpt>
      <trkpt lat="45.95995" lon="4.70118">
        <ele>328</ele>
        <time>2018-05-18T10:31:02Z</time>
      </trkpt>
      <trkpt lat="45.96003" lon="4.70124">
        <ele>328</ele>
        <time>2018-05-18T10:31:04Z</time>
      </trkpt>
      <trkpt lat="45.96006" lon="4.70129">
        <ele>328</ele>
        <time>2018-05-18T10:31:05Z</time>
      </trkpt>
      <trkpt lat="45.9601" lon="4.70133">
        <ele>328</ele>
        <time>2018-05-18T10:31:06Z</time>
      </trkpt>
      <trkpt lat="45.96014" lon="4.70138">
        <ele>328</ele>
        <time>2018-05-18T10:31:07Z</time>
      </trkpt>
      <trkpt lat="45.96019" lon="4.70142">
        <ele>329</ele>
        <time>2018-05-18T10:31:08Z</time>
      </trkpt>
      <trkpt lat="45.96023" lon="4.70146">
        <ele>329</ele>
        <time>2018-05-18T10:31:09Z</time>
      </trkpt>
      <trkpt lat="45.96027" lon="4.70151">
        <ele>329</ele>
        <time>2018-05-18T10:31:10Z</time>
      </trkpt>
      <trkpt lat="45.96031" lon="4.70155">
        <ele>329</ele>
        <time>2018-05-18T10:31:11Z</time>
      </trkpt>
      <trkpt lat="45.96036" lon="4.7016">
        <ele>329</ele>
        <time>2018-05-18T10:31:12Z</time>
      </trkpt>
      <trkpt lat="45.9604" lon="4.70164">
        <ele>329</ele>
        <time>2018-05-18T10:31:13Z</time>
      </trkpt>
      <trkpt lat="45.96045" lon="4.70167">
        <ele>327</ele>
        <time>2018-05-18T10:31:14Z</time>
      </trkpt>
      <trkpt lat="45.9605" lon="4.70171">
        <ele>327</ele>
        <time>2018-05-18T10:31:15Z</time>
      </trkpt>
      <trkpt lat="45.96055" lon="4.70175">
        <ele>327</ele>
        <time>2018-05-18T10:31:16Z</time>
      </trkpt>
      <trkpt lat="45.96059" lon="4.7018">
        <ele>327</ele>
        <time>2018-05-18T10:31:17Z</time>
      </trkpt>
      <trkpt lat="45.96064" lon="4.70183">
        <ele>327</ele>
        <time>2018-05-18T10:31:18Z</time>
      </trkpt>
      <trkpt lat="45.96069" lon="4.70187">
        <ele>327</ele>
        <time>2018-05-18T10:31:19Z</time>
      </trkpt>
      <trkpt lat="45.96074" lon="4.70191">
        <ele>327</ele>
        <time>2018-05-18T10:31:20Z</time>
      </trkpt>
      <trkpt lat="45.96079" lon="4.70197">
        <ele>327</ele>
        <time>2018-05-18T10:31:21Z</time>
      </trkpt>
      <trkpt lat="45.96084" lon="4.70201">
        <ele>327</ele>
        <time>2018-05-18T10:31:22Z</time>
      </trkpt>
      <trkpt lat="45.96089" lon="4.70206">
        <ele>327</ele>
        <time>2018-05-18T10:31:23Z</time>
      </trkpt>
      <trkpt lat="45.96095" lon="4.70211">
        <ele>327</ele>
        <time>2018-05-18T10:31:24Z</time>
      </trkpt>
      <trkpt lat="45.96101" lon="4.70215">
        <ele>327</ele>
        <time>2018-05-18T10:31:25Z</time>
      </trkpt>
      <trkpt lat="45.96107" lon="4.7022">
        <ele>327</ele>
        <time>2018-05-18T10:31:26Z</time>
      </trkpt>
      <trkpt lat="45.96113" lon="4.70226">
        <ele>327</ele>
        <time>2018-05-18T10:31:27Z</time>
      </trkpt>
      <trkpt lat="45.96118" lon="4.70231">
        <ele>327</ele>
        <time>2018-05-18T10:31:28Z</time>
      </trkpt>
      <trkpt lat="45.96124" lon="4.70237">
        <ele>327</ele>
        <time>2018-05-18T10:31:29Z</time>
      </trkpt>
      <trkpt lat="45.9613" lon="4.70243">
        <ele>327</ele>
        <time>2018-05-18T10:31:30Z</time>
      </trkpt>
      <trkpt lat="45.96135" lon="4.70248">
        <ele>327</ele>
        <time>2018-05-18T10:31:31Z</time>
      </trkpt>
      <trkpt lat="45.9614" lon="4.70253">
        <ele>324</ele>
        <time>2018-05-18T10:31:32Z</time>
      </trkpt>
      <trkpt lat="45.96146" lon="4.70259">
        <ele>324</ele>
        <time>2018-05-18T10:31:33Z</time>
      </trkpt>
      <trkpt lat="45.96152" lon="4.70265">
        <ele>324</ele>
        <time>2018-05-18T10:31:34Z</time>
      </trkpt>
      <trkpt lat="45.96158" lon="4.70271">
        <ele>324</ele>
        <time>2018-05-18T10:31:35Z</time>
      </trkpt>
      <trkpt lat="45.96163" lon="4.70277">
        <ele>324</ele>
        <time>2018-05-18T10:31:36Z</time>
      </trkpt>
      <trkpt lat="45.96169" lon="4.70283">
        <ele>326</ele>
        <time>2018-05-18T10:31:37Z</time>
      </trkpt>
      <trkpt lat="45.96174" lon="4.7029">
        <ele>326</ele>
        <time>2018-05-18T10:31:38Z</time>
      </trkpt>
      <trkpt lat="45.96178" lon="4.70297">
        <ele>326</ele>
        <time>2018-05-18T10:31:39Z</time>
      </trkpt>
      <trkpt lat="45.96183" lon="4.70303">
        <ele>325</ele>
        <time>2018-05-18T10:31:40Z</time>
      </trkpt>
      <trkpt lat="45.96188" lon="4.70311">
        <ele>325</ele>
        <time>2018-05-18T10:31:41Z</time>
      </trkpt>
      <trkpt lat="45.96192" lon="4.70318">
        <ele>325</ele>
        <time>2018-05-18T10:31:42Z</time>
      </trkpt>
      <trkpt lat="45.96197" lon="4.70324">
        <ele>325</ele>
        <time>2018-05-18T10:31:43Z</time>
      </trkpt>
      <trkpt lat="45.96201" lon="4.70331">
        <ele>325</ele>
        <time>2018-05-18T10:31:44Z</time>
      </trkpt>
      <trkpt lat="45.96206" lon="4.70337">
        <ele>321</ele>
        <time>2018-05-18T10:31:45Z</time>
      </trkpt>
      <trkpt lat="45.9621" lon="4.70343">
        <ele>321</ele>
        <time>2018-05-18T10:31:46Z</time>
      </trkpt>
      <trkpt lat="45.96215" lon="4.7035">
        <ele>321</ele>
        <time>2018-05-18T10:31:47Z</time>
      </trkpt>
      <trkpt lat="45.96219" lon="4.70356">
        <ele>321</ele>
        <time>2018-05-18T10:31:48Z</time>
      </trkpt>
      <trkpt lat="45.96223" lon="4.70363">
        <ele>321</ele>
        <time>2018-05-18T10:31:49Z</time>
      </trkpt>
      <trkpt lat="45.96227" lon="4.7037">
        <ele>321</ele>
        <time>2018-05-18T10:31:50Z</time>
      </trkpt>
      <trkpt lat="45.96231" lon="4.70377">
        <ele>320</ele>
        <time>2018-05-18T10:31:51Z</time>
      </trkpt>
      <trkpt lat="45.96236" lon="4.70383">
        <ele>320</ele>
        <time>2018-05-18T10:31:52Z</time>
      </trkpt>
      <trkpt lat="45.9624" lon="4.70389">
        <ele>320</ele>
        <time>2018-05-18T10:31:53Z</time>
      </trkpt>
      <trkpt lat="45.96245" lon="4.70396">
        <ele>320</ele>
        <time>2018-05-18T10:31:54Z</time>
      </trkpt>
      <trkpt lat="45.96249" lon="4.70402">
        <ele>320</ele>
        <time>2018-05-18T10:31:55Z</time>
      </trkpt>
      <trkpt lat="45.96254" lon="4.70409">
        <ele>323</ele>
        <time>2018-05-18T10:31:56Z</time>
      </trkpt>
      <trkpt lat="45.96259" lon="4.70417">
        <ele>320</ele>
        <time>2018-05-18T10:31:57Z</time>
      </trkpt>
      <trkpt lat="45.96264" lon="4.70425">
        <ele>321</ele>
        <time>2018-05-18T10:31:58Z</time>
      </trkpt>
      <trkpt lat="45.9627" lon="4.70433">
        <ele>321</ele>
        <time>2018-05-18T10:31:59Z</time>
      </trkpt>
      <trkpt lat="45.96275" lon="4.70441">
        <ele>321</ele>
        <time>2018-05-18T10:32:00Z</time>
      </trkpt>
      <trkpt lat="45.96281" lon="4.70449">
        <ele>321</ele>
        <time>2018-05-18T10:32:01Z</time>
      </trkpt>
      <trkpt lat="45.96283" lon="4.70456">
        <ele>321</ele>
        <time>2018-05-18T10:32:02Z</time>
      </trkpt>
      <trkpt lat="45.96289" lon="4.70464">
        <ele>320</ele>
        <time>2018-05-18T10:32:03Z</time>
      </trkpt>
      <trkpt lat="45.96294" lon="4.70471">
        <ele>320</ele>
        <time>2018-05-18T10:32:04Z</time>
      </trkpt>
      <trkpt lat="45.963" lon="4.70479">
        <ele>320</ele>
        <time>2018-05-18T10:32:05Z</time>
      </trkpt>
      <trkpt lat="45.96305" lon="4.70486">
        <ele>320</ele>
        <time>2018-05-18T10:32:06Z</time>
      </trkpt>
      <trkpt lat="45.96311" lon="4.70494">
        <ele>320</ele>
        <time>2018-05-18T10:32:07Z</time>
      </trkpt>
      <trkpt lat="45.96316" lon="4.70501">
        <ele>316</ele>
        <time>2018-05-18T10:32:08Z</time>
      </trkpt>
      <trkpt lat="45.96322" lon="4.70507">
        <ele>317</ele>
        <time>2018-05-18T10:32:09Z</time>
      </trkpt>
      <trkpt lat="45.96327" lon="4.70515">
        <ele>316</ele>
        <time>2018-05-18T10:32:10Z</time>
      </trkpt>
      <trkpt lat="45.96333" lon="4.70522">
        <ele>316</ele>
        <time>2018-05-18T10:32:11Z</time>
      </trkpt>
      <trkpt lat="45.96339" lon="4.70529">
        <ele>319</ele>
        <time>2018-05-18T10:32:12Z</time>
      </trkpt>
      <trkpt lat="45.96345" lon="4.70536">
        <ele>319</ele>
        <time>2018-05-18T10:32:13Z</time>
      </trkpt>
      <trkpt lat="45.9635" lon="4.70543">
        <ele>318</ele>
        <time>2018-05-18T10:32:14Z</time>
      </trkpt>
      <trkpt lat="45.96357" lon="4.70551">
        <ele>318</ele>
        <time>2018-05-18T10:32:15Z</time>
      </trkpt>
      <trkpt lat="45.96363" lon="4.70559">
        <ele>318</ele>
        <time>2018-05-18T10:32:16Z</time>
      </trkpt>
      <trkpt lat="45.96369" lon="4.70566">
        <ele>318</ele>
        <time>2018-05-18T10:32:17Z</time>
      </trkpt>
      <trkpt lat="45.96376" lon="4.70574">
        <ele>318</ele>
        <time>2018-05-18T10:32:18Z</time>
      </trkpt>
      <trkpt lat="45.96382" lon="4.70583">
        <ele>318</ele>
        <time>2018-05-18T10:32:19Z</time>
      </trkpt>
      <trkpt lat="45.96388" lon="4.70591">
        <ele>312</ele>
        <time>2018-05-18T10:32:20Z</time>
      </trkpt>
      <trkpt lat="45.96395" lon="4.70599">
        <ele>312</ele>
        <time>2018-05-18T10:32:21Z</time>
      </trkpt>
      <trkpt lat="45.96401" lon="4.70607">
        <ele>312</ele>
        <time>2018-05-18T10:32:22Z</time>
      </trkpt>
      <trkpt lat="45.96408" lon="4.70615">
        <ele>312</ele>
        <time>2018-05-18T10:32:23Z</time>
      </trkpt>
      <trkpt lat="45.96414" lon="4.70622">
        <ele>311</ele>
        <time>2018-05-18T10:32:24Z</time>
      </trkpt>
      <trkpt lat="45.96421" lon="4.7063">
        <ele>313</ele>
        <time>2018-05-18T10:32:25Z</time>
      </trkpt>
      <trkpt lat="45.96427" lon="4.70638">
        <ele>313</ele>
        <time>2018-05-18T10:32:26Z</time>
      </trkpt>
      <trkpt lat="45.96434" lon="4.70646">
        <ele>312</ele>
        <time>2018-05-18T10:32:27Z</time>
      </trkpt>
      <trkpt lat="45.96442" lon="4.70654">
        <ele>312</ele>
        <time>2018-05-18T10:32:28Z</time>
      </trkpt>
      <trkpt lat="45.96449" lon="4.70662">
        <ele>312</ele>
        <time>2018-05-18T10:32:29Z</time>
      </trkpt>
      <trkpt lat="45.96457" lon="4.7067">
        <ele>305</ele>
        <time>2018-05-18T10:32:30Z</time>
      </trkpt>
      <trkpt lat="45.96464" lon="4.70677">
        <ele>305</ele>
        <time>2018-05-18T10:32:31Z</time>
      </trkpt>
      <trkpt lat="45.96472" lon="4.70684">
        <ele>305</ele>
        <time>2018-05-18T10:32:32Z</time>
      </trkpt>
      <trkpt lat="45.96481" lon="4.70691">
        <ele>305</ele>
        <time>2018-05-18T10:32:33Z</time>
      </trkpt>
      <trkpt lat="45.96489" lon="4.70698">
        <ele>305</ele>
        <time>2018-05-18T10:32:34Z</time>
      </trkpt>
      <trkpt lat="45.96497" lon="4.70706">
        <ele>304</ele>
        <time>2018-05-18T10:32:35Z</time>
      </trkpt>
      <trkpt lat="45.96505" lon="4.70713">
        <ele>306</ele>
        <time>2018-05-18T10:32:36Z</time>
      </trkpt>
      <trkpt lat="45.96514" lon="4.70721">
        <ele>305</ele>
        <time>2018-05-18T10:32:37Z</time>
      </trkpt>
      <trkpt lat="45.96522" lon="4.70729">
        <ele>305</ele>
        <time>2018-05-18T10:32:38Z</time>
      </trkpt>
      <trkpt lat="45.96532" lon="4.70736">
        <ele>305</ele>
        <time>2018-05-18T10:32:39Z</time>
      </trkpt>
      <trkpt lat="45.96541" lon="4.70743">
        <ele>305</ele>
        <time>2018-05-18T10:32:40Z</time>
      </trkpt>
      <trkpt lat="45.96551" lon="4.7075">
        <ele>298</ele>
        <time>2018-05-18T10:32:41Z</time>
      </trkpt>
      <trkpt lat="45.9656" lon="4.70758">
        <ele>299</ele>
        <time>2018-05-18T10:32:42Z</time>
      </trkpt>
      <trkpt lat="45.9657" lon="4.70766">
        <ele>299</ele>
        <time>2018-05-18T10:32:43Z</time>
      </trkpt>
      <trkpt lat="45.9658" lon="4.70772">
        <ele>299</ele>
        <time>2018-05-18T10:32:44Z</time>
      </trkpt>
      <trkpt lat="45.96589" lon="4.70779">
        <ele>299</ele>
        <time>2018-05-18T10:32:45Z</time>
      </trkpt>
      <trkpt lat="45.96598" lon="4.70786">
        <ele>299</ele>
        <time>2018-05-18T10:32:46Z</time>
      </trkpt>
      <trkpt lat="45.96608" lon="4.70793">
        <ele>298</ele>
        <time>2018-05-18T10:32:47Z</time>
      </trkpt>
      <trkpt lat="45.96618" lon="4.708">
        <ele>298</ele>
        <time>2018-05-18T10:32:48Z</time>
      </trkpt>
      <trkpt lat="45.96628" lon="4.70806">
        <ele>298</ele>
        <time>2018-05-18T10:32:49Z</time>
      </trkpt>
      <trkpt lat="45.96637" lon="4.70813">
        <ele>297</ele>
        <time>2018-05-18T10:32:50Z</time>
      </trkpt>
      <trkpt lat="45.96647" lon="4.7082">
        <ele>297</ele>
        <time>2018-05-18T10:32:51Z</time>
      </trkpt>
      <trkpt lat="45.96657" lon="4.70827">
        <ele>296</ele>
        <time>2018-05-18T10:32:52Z</time>
      </trkpt>
      <trkpt lat="45.96666" lon="4.7083">
        <ele>295</ele>
        <time>2018-05-18T10:32:53Z</time>
      </trkpt>
      <trkpt lat="45.96676" lon="4.70837">
        <ele>293</ele>
        <time>2018-05-18T10:32:54Z</time>
      </trkpt>
      <trkpt lat="45.96687" lon="4.70843">
        <ele>291</ele>
        <time>2018-05-18T10:32:55Z</time>
      </trkpt>
      <trkpt lat="45.96697" lon="4.70849">
        <ele>290</ele>
        <time>2018-05-18T10:32:56Z</time>
      </trkpt>
      <trkpt lat="45.96707" lon="4.70856">
        <ele>290</ele>
        <time>2018-05-18T10:32:57Z</time>
      </trkpt>
      <trkpt lat="45.96717" lon="4.70863">
        <ele>289</ele>
        <time>2018-05-18T10:32:58Z</time>
      </trkpt>
      <trkpt lat="45.96728" lon="4.7087">
        <ele>289</ele>
        <time>2018-05-18T10:32:59Z</time>
      </trkpt>
      <trkpt lat="45.96738" lon="4.70877">
        <ele>288</ele>
        <time>2018-05-18T10:33:00Z</time>
      </trkpt>
      <trkpt lat="45.96748" lon="4.70884">
        <ele>287</ele>
        <time>2018-05-18T10:33:01Z</time>
      </trkpt>
      <trkpt lat="45.96758" lon="4.70891">
        <ele>288</ele>
        <time>2018-05-18T10:33:02Z</time>
      </trkpt>
      <trkpt lat="45.96767" lon="4.70896">
        <ele>288</ele>
        <time>2018-05-18T10:33:03Z</time>
      </trkpt>
      <trkpt lat="45.96776" lon="4.70902">
        <ele>288</ele>
        <time>2018-05-18T10:33:04Z</time>
      </trkpt>
      <trkpt lat="45.96786" lon="4.70907">
        <ele>288</ele>
        <time>2018-05-18T10:33:05Z</time>
      </trkpt>
      <trkpt lat="45.96795" lon="4.70913">
        <ele>288</ele>
        <time>2018-05-18T10:33:06Z</time>
      </trkpt>
      <trkpt lat="45.96804" lon="4.7092">
        <ele>281</ele>
        <time>2018-05-18T10:33:07Z</time>
      </trkpt>
      <trkpt lat="45.96814" lon="4.70925">
        <ele>281</ele>
        <time>2018-05-18T10:33:08Z</time>
      </trkpt>
      <trkpt lat="45.96823" lon="4.7093">
        <ele>282</ele>
        <time>2018-05-18T10:33:09Z</time>
      </trkpt>
      <trkpt lat="45.96833" lon="4.70936">
        <ele>281</ele>
        <time>2018-05-18T10:33:10Z</time>
      </trkpt>
      <trkpt lat="45.96843" lon="4.70943">
        <ele>281</ele>
        <time>2018-05-18T10:33:11Z</time>
      </trkpt>
      <trkpt lat="45.96853" lon="4.70948">
        <ele>280</ele>
        <time>2018-05-18T10:33:12Z</time>
      </trkpt>
      <trkpt lat="45.96862" lon="4.70955">
        <ele>280</ele>
        <time>2018-05-18T10:33:13Z</time>
      </trkpt>
      <trkpt lat="45.96871" lon="4.70956">
        <ele>279</ele>
        <time>2018-05-18T10:33:14Z</time>
      </trkpt>
      <trkpt lat="45.96881" lon="4.70961">
        <ele>279</ele>
        <time>2018-05-18T10:33:15Z</time>
      </trkpt>
      <trkpt lat="45.96892" lon="4.70964">
        <ele>279</ele>
        <time>2018-05-18T10:33:16Z</time>
      </trkpt>
      <trkpt lat="45.96902" lon="4.70967">
        <ele>278</ele>
        <time>2018-05-18T10:33:17Z</time>
      </trkpt>
      <trkpt lat="45.96912" lon="4.7097">
        <ele>278</ele>
        <time>2018-05-18T10:33:18Z</time>
      </trkpt>
      <trkpt lat="45.96922" lon="4.70973">
        <ele>276</ele>
        <time>2018-05-18T10:33:19Z</time>
      </trkpt>
      <trkpt lat="45.96931" lon="4.70976">
        <ele>276</ele>
        <time>2018-05-18T10:33:20Z</time>
      </trkpt>
      <trkpt lat="45.96941" lon="4.70977">
        <ele>275</ele>
        <time>2018-05-18T10:33:21Z</time>
      </trkpt>
      <trkpt lat="45.96951" lon="4.70981">
        <ele>275</ele>
        <time>2018-05-18T10:33:22Z</time>
      </trkpt>
      <trkpt lat="45.96961" lon="4.70983">
        <ele>275</ele>
        <time>2018-05-18T10:33:23Z</time>
      </trkpt>
      <trkpt lat="45.96972" lon="4.70985">
        <ele>274</ele>
        <time>2018-05-18T10:33:24Z</time>
      </trkpt>
      <trkpt lat="45.96982" lon="4.70987">
        <ele>273</ele>
        <time>2018-05-18T10:33:25Z</time>
      </trkpt>
      <trkpt lat="45.96992" lon="4.70987">
        <ele>272</ele>
        <time>2018-05-18T10:33:26Z</time>
      </trkpt>
      <trkpt lat="45.97002" lon="4.70988">
        <ele>269</ele>
        <time>2018-05-18T10:33:27Z</time>
      </trkpt>
      <trkpt lat="45.97013" lon="4.70988">
        <ele>269</ele>
        <time>2018-05-18T10:33:28Z</time>
      </trkpt>
      <trkpt lat="45.97023" lon="4.70987">
        <ele>269</ele>
        <time>2018-05-18T10:33:29Z</time>
      </trkpt>
      <trkpt lat="45.97035" lon="4.70987">
        <ele>269</ele>
        <time>2018-05-18T10:33:30Z</time>
      </trkpt>
      <trkpt lat="45.97046" lon="4.70987">
        <ele>269</ele>
        <time>2018-05-18T10:33:31Z</time>
      </trkpt>
      <trkpt lat="45.97056" lon="4.70986">
        <ele>269</ele>
        <time>2018-05-18T10:33:32Z</time>
      </trkpt>
      <trkpt lat="45.97066" lon="4.70985">
        <ele>268</ele>
        <time>2018-05-18T10:33:33Z</time>
      </trkpt>
      <trkpt lat="45.97076" lon="4.70985">
        <ele>267</ele>
        <time>2018-05-18T10:33:34Z</time>
      </trkpt>
      <trkpt lat="45.97087" lon="4.70981">
        <ele>264</ele>
        <time>2018-05-18T10:33:35Z</time>
      </trkpt>
      <trkpt lat="45.97099" lon="4.70976">
        <ele>264</ele>
        <time>2018-05-18T10:33:36Z</time>
      </trkpt>
      <trkpt lat="45.97109" lon="4.70972">
        <ele>264</ele>
        <time>2018-05-18T10:33:37Z</time>
      </trkpt>
      <trkpt lat="45.9712" lon="4.70967">
        <ele>264</ele>
        <time>2018-05-18T10:33:38Z</time>
      </trkpt>
      <trkpt lat="45.9713" lon="4.70962">
        <ele>264</ele>
        <time>2018-05-18T10:33:39Z</time>
      </trkpt>
      <trkpt lat="45.97141" lon="4.70956">
        <ele>263</ele>
        <time>2018-05-18T10:33:40Z</time>
      </trkpt>
      <trkpt lat="45.97152" lon="4.70951">
        <ele>263</ele>
        <time>2018-05-18T10:33:41Z</time>
      </trkpt>
      <trkpt lat="45.97162" lon="4.70947">
        <ele>263</ele>
        <time>2018-05-18T10:33:42Z</time>
      </trkpt>
      <trkpt lat="45.97171" lon="4.70941">
        <ele>258</ele>
        <time>2018-05-18T10:33:43Z</time>
      </trkpt>
      <trkpt lat="45.97179" lon="4.70936">
        <ele>258</ele>
        <time>2018-05-18T10:33:44Z</time>
      </trkpt>
      <trkpt lat="45.97188" lon="4.7093">
        <ele>258</ele>
        <time>2018-05-18T10:33:45Z</time>
      </trkpt>
      <trkpt lat="45.97195" lon="4.70924">
        <ele>257</ele>
        <time>2018-05-18T10:33:46Z</time>
      </trkpt>
      <trkpt lat="45.97203" lon="4.70919">
        <ele>257</ele>
        <time>2018-05-18T10:33:47Z</time>
      </trkpt>
      <trkpt lat="45.97211" lon="4.70911">
        <ele>260</ele>
        <time>2018-05-18T10:33:48Z</time>
      </trkpt>
      <trkpt lat="45.97219" lon="4.70902">
        <ele>259</ele>
        <time>2018-05-18T10:33:49Z</time>
      </trkpt>
      <trkpt lat="45.97226" lon="4.70893">
        <ele>259</ele>
        <time>2018-05-18T10:33:50Z</time>
      </trkpt>
      <trkpt lat="45.97234" lon="4.70884">
        <ele>259</ele>
        <time>2018-05-18T10:33:51Z</time>
      </trkpt>
      <trkpt lat="45.97241" lon="4.70875">
        <ele>259</ele>
        <time>2018-05-18T10:33:52Z</time>
      </trkpt>
      <trkpt lat="45.97249" lon="4.70865">
        <ele>259</ele>
        <time>2018-05-18T10:33:53Z</time>
      </trkpt>
      <trkpt lat="45.97255" lon="4.70854">
        <ele>253</ele>
        <time>2018-05-18T10:33:54Z</time>
      </trkpt>
      <trkpt lat="45.97262" lon="4.70843">
        <ele>254</ele>
        <time>2018-05-18T10:33:55Z</time>
      </trkpt>
      <trkpt lat="45.97268" lon="4.70832">
        <ele>256</ele>
        <time>2018-05-18T10:33:56Z</time>
      </trkpt>
      <trkpt lat="45.97275" lon="4.70821">
        <ele>255</ele>
        <time>2018-05-18T10:33:57Z</time>
      </trkpt>
      <trkpt lat="45.97283" lon="4.70812">
        <ele>254</ele>
        <time>2018-05-18T10:33:58Z</time>
      </trkpt>
      <trkpt lat="45.9729" lon="4.70804">
        <ele>254</ele>
        <time>2018-05-18T10:33:59Z</time>
      </trkpt>
      <trkpt lat="45.97296" lon="4.70796">
        <ele>253</ele>
        <time>2018-05-18T10:34:00Z</time>
      </trkpt>
      <trkpt lat="45.97302" lon="4.70788">
        <ele>253</ele>
        <time>2018-05-18T10:34:01Z</time>
      </trkpt>
      <trkpt lat="45.97308" lon="4.70782">
        <ele>253</ele>
        <time>2018-05-18T10:34:02Z</time>
      </trkpt>
      <trkpt lat="45.97315" lon="4.70777">
        <ele>252</ele>
        <time>2018-05-18T10:34:03Z</time>
      </trkpt>
      <trkpt lat="45.97321" lon="4.70774">
        <ele>252</ele>
        <time>2018-05-18T10:34:04Z</time>
      </trkpt>
      <trkpt lat="45.97328" lon="4.70771">
        <ele>251</ele>
        <time>2018-05-18T10:34:05Z</time>
      </trkpt>
      <trkpt lat="45.97336" lon="4.70766">
        <ele>247</ele>
        <time>2018-05-18T10:34:06Z</time>
      </trkpt>
      <trkpt lat="45.97345" lon="4.70761">
        <ele>246</ele>
        <time>2018-05-18T10:34:07Z</time>
      </trkpt>
      <trkpt lat="45.97353" lon="4.70758">
        <ele>246</ele>
        <time>2018-05-18T10:34:08Z</time>
      </trkpt>
      <trkpt lat="45.97362" lon="4.70754">
        <ele>245</ele>
        <time>2018-05-18T10:34:09Z</time>
      </trkpt>
      <trkpt lat="45.9737" lon="4.7075">
        <ele>245</ele>
        <time>2018-05-18T10:34:10Z</time>
      </trkpt>
      <trkpt lat="45.97378" lon="4.70748">
        <ele>244</ele>
        <time>2018-05-18T10:34:11Z</time>
      </trkpt>
      <trkpt lat="45.97385" lon="4.70747">
        <ele>243</ele>
        <time>2018-05-18T10:34:12Z</time>
      </trkpt>
      <trkpt lat="45.97392" lon="4.70747">
        <ele>243</ele>
        <time>2018-05-18T10:34:13Z</time>
      </trkpt>
      <trkpt lat="45.974" lon="4.70748">
        <ele>242</ele>
        <time>2018-05-18T10:34:14Z</time>
      </trkpt>
      <trkpt lat="45.97408" lon="4.70747">
        <ele>241</ele>
        <time>2018-05-18T10:34:15Z</time>
      </trkpt>
      <trkpt lat="45.97416" lon="4.70747">
        <ele>240</ele>
        <time>2018-05-18T10:34:16Z</time>
      </trkpt>
      <trkpt lat="45.97425" lon="4.70748">
        <ele>239</ele>
        <time>2018-05-18T10:34:17Z</time>
      </trkpt>
      <trkpt lat="45.97432" lon="4.70749">
        <ele>239</ele>
        <time>2018-05-18T10:34:18Z</time>
      </trkpt>
      <trkpt lat="45.9744" lon="4.70751">
        <ele>238</ele>
        <time>2018-05-18T10:34:19Z</time>
      </trkpt>
      <trkpt lat="45.97448" lon="4.70751">
        <ele>238</ele>
        <time>2018-05-18T10:34:20Z</time>
      </trkpt>
      <trkpt lat="45.97456" lon="4.70751">
        <ele>237</ele>
        <time>2018-05-18T10:34:21Z</time>
      </trkpt>
      <trkpt lat="45.97463" lon="4.70751">
        <ele>237</ele>
        <time>2018-05-18T10:34:22Z</time>
      </trkpt>
      <trkpt lat="45.9747" lon="4.7075">
        <ele>238</ele>
        <time>2018-05-18T10:34:23Z</time>
      </trkpt>
      <trkpt lat="45.97477" lon="4.70748">
        <ele>237</ele>
        <time>2018-05-18T10:34:24Z</time>
      </trkpt>
      <trkpt lat="45.97485" lon="4.70746">
        <ele>237</ele>
        <time>2018-05-18T10:34:25Z</time>
      </trkpt>
      <trkpt lat="45.97492" lon="4.70745">
        <ele>237</ele>
        <time>2018-05-18T10:34:26Z</time>
      </trkpt>
      <trkpt lat="45.975" lon="4.70741">
        <ele>237</ele>
        <time>2018-05-18T10:34:27Z</time>
      </trkpt>
      <trkpt lat="45.97506" lon="4.70739">
        <ele>235</ele>
        <time>2018-05-18T10:34:28Z</time>
      </trkpt>
      <trkpt lat="45.97513" lon="4.70735">
        <ele>235</ele>
        <time>2018-05-18T10:34:29Z</time>
      </trkpt>
      <trkpt lat="45.97519" lon="4.70734">
        <ele>234</ele>
        <time>2018-05-18T10:34:30Z</time>
      </trkpt>
      <trkpt lat="45.97525" lon="4.70734">
        <ele>234</ele>
        <time>2018-05-18T10:34:31Z</time>
      </trkpt>
      <trkpt lat="45.97532" lon="4.70733">
        <ele>234</ele>
        <time>2018-05-18T10:34:32Z</time>
      </trkpt>
      <trkpt lat="45.97539" lon="4.70732">
        <ele>234</ele>
        <time>2018-05-18T10:34:33Z</time>
      </trkpt>
      <trkpt lat="45.97546" lon="4.70736">
        <ele>233</ele>
        <time>2018-05-18T10:34:34Z</time>
      </trkpt>
      <trkpt lat="45.97554" lon="4.70733">
        <ele>233</ele>
        <time>2018-05-18T10:34:35Z</time>
      </trkpt>
      <trkpt lat="45.97564" lon="4.70736">
        <ele>233</ele>
        <time>2018-05-18T10:34:36Z</time>
      </trkpt>
      <trkpt lat="45.9757" lon="4.70729">
        <ele>233</ele>
        <time>2018-05-18T10:34:37Z</time>
      </trkpt>
      <trkpt lat="45.97575" lon="4.7073">
        <ele>232</ele>
        <time>2018-05-18T10:34:38Z</time>
      </trkpt>
      <trkpt lat="45.97583" lon="4.70731">
        <ele>232</ele>
        <time>2018-05-18T10:34:39Z</time>
      </trkpt>
      <trkpt lat="45.9759" lon="4.70731">
        <ele>229</ele>
        <time>2018-05-18T10:34:40Z</time>
      </trkpt>
      <trkpt lat="45.97598" lon="4.70732">
        <ele>229</ele>
        <time>2018-05-18T10:34:41Z</time>
      </trkpt>
      <trkpt lat="45.97605" lon="4.70733">
        <ele>229</ele>
        <time>2018-05-18T10:34:42Z</time>
      </trkpt>
      <trkpt lat="45.97613" lon="4.70736">
        <ele>229</ele>
        <time>2018-05-18T10:34:43Z</time>
      </trkpt>
      <trkpt lat="45.9762" lon="4.70738">
        <ele>228</ele>
        <time>2018-05-18T10:34:44Z</time>
      </trkpt>
      <trkpt lat="45.97628" lon="4.7074">
        <ele>228</ele>
        <time>2018-05-18T10:34:45Z</time>
      </trkpt>
      <trkpt lat="45.97635" lon="4.70744">
        <ele>227</ele>
        <time>2018-05-18T10:34:46Z</time>
      </trkpt>
      <trkpt lat="45.97643" lon="4.70747">
        <ele>227</ele>
        <time>2018-05-18T10:34:47Z</time>
      </trkpt>
      <trkpt lat="45.97651" lon="4.7075">
        <ele>226</ele>
        <time>2018-05-18T10:34:48Z</time>
      </trkpt>
      <trkpt lat="45.9766" lon="4.70753">
        <ele>225</ele>
        <time>2018-05-18T10:34:49Z</time>
      </trkpt>
      <trkpt lat="45.97668" lon="4.70756">
        <ele>224</ele>
        <time>2018-05-18T10:34:50Z</time>
      </trkpt>
      <trkpt lat="45.97676" lon="4.70759">
        <ele>223</ele>
        <time>2018-05-18T10:34:51Z</time>
      </trkpt>
      <trkpt lat="45.97685" lon="4.70761">
        <ele>223</ele>
        <time>2018-05-18T10:34:52Z</time>
      </trkpt>
      <trkpt lat="45.97693" lon="4.70763">
        <ele>223</ele>
        <time>2018-05-18T10:34:53Z</time>
      </trkpt>
      <trkpt lat="45.97701" lon="4.70766">
        <ele>223</ele>
        <time>2018-05-18T10:34:54Z</time>
      </trkpt>
      <trkpt lat="45.97709" lon="4.70769">
        <ele>223</ele>
        <time>2018-05-18T10:34:55Z</time>
      </trkpt>
      <trkpt lat="45.97717" lon="4.70772">
        <ele>222</ele>
        <time>2018-05-18T10:34:56Z</time>
      </trkpt>
      <trkpt lat="45.97726" lon="4.70775">
        <ele>222</ele>
        <time>2018-05-18T10:34:57Z</time>
      </trkpt>
      <trkpt lat="45.97733" lon="4.70777">
        <ele>222</ele>
        <time>2018-05-18T10:34:58Z</time>
      </trkpt>
      <trkpt lat="45.97741" lon="4.7078">
        <ele>222</ele>
        <time>2018-05-18T10:34:59Z</time>
      </trkpt>
      <trkpt lat="45.97748" lon="4.70781">
        <ele>222</ele>
        <time>2018-05-18T10:35:00Z</time>
      </trkpt>
      <trkpt lat="45.97755" lon="4.70781">
        <ele>221</ele>
        <time>2018-05-18T10:35:01Z</time>
      </trkpt>
      <trkpt lat="45.97762" lon="4.70782">
        <ele>221</ele>
        <time>2018-05-18T10:35:02Z</time>
      </trkpt>
      <trkpt lat="45.97768" lon="4.70785">
        <ele>221</ele>
        <time>2018-05-18T10:35:03Z</time>
      </trkpt>
      <trkpt lat="45.97775" lon="4.70788">
        <ele>221</ele>
        <time>2018-05-18T10:35:04Z</time>
      </trkpt>
      <trkpt lat="45.9778" lon="4.70794">
        <ele>221</ele>
        <time>2018-05-18T10:35:05Z</time>
      </trkpt>
      <trkpt lat="45.97786" lon="4.70797">
        <ele>221</ele>
        <time>2018-05-18T10:35:06Z</time>
      </trkpt>
      <trkpt lat="45.97792" lon="4.70802">
        <ele>221</ele>
        <time>2018-05-18T10:35:07Z</time>
      </trkpt>
      <trkpt lat="45.97799" lon="4.70808">
        <ele>221</ele>
        <time>2018-05-18T10:35:08Z</time>
      </trkpt>
      <trkpt lat="45.97803" lon="4.70815">
        <ele>221</ele>
        <time>2018-05-18T10:35:09Z</time>
      </trkpt>
      <trkpt lat="45.97807" lon="4.70822">
        <ele>221</ele>
        <time>2018-05-18T10:35:10Z</time>
      </trkpt>
      <trkpt lat="45.9781" lon="4.7083">
        <ele>221</ele>
        <time>2018-05-18T10:35:11Z</time>
      </trkpt>
      <trkpt lat="45.97812" lon="4.70838">
        <ele>220</ele>
        <time>2018-05-18T10:35:12Z</time>
      </trkpt>
      <trkpt lat="45.97814" lon="4.70847">
        <ele>220</ele>
        <time>2018-05-18T10:35:13Z</time>
      </trkpt>
      <trkpt lat="45.97816" lon="4.70857">
        <ele>220</ele>
        <time>2018-05-18T10:35:14Z</time>
      </trkpt>
      <trkpt lat="45.97817" lon="4.70866">
        <ele>220</ele>
        <time>2018-05-18T10:35:15Z</time>
      </trkpt>
      <trkpt lat="45.97817" lon="4.70876">
        <ele>220</ele>
        <time>2018-05-18T10:35:16Z</time>
      </trkpt>
      <trkpt lat="45.97818" lon="4.70885">
        <ele>220</ele>
        <time>2018-05-18T10:35:17Z</time>
      </trkpt>
      <trkpt lat="45.97819" lon="4.70893">
        <ele>220</ele>
        <time>2018-05-18T10:35:18Z</time>
      </trkpt>
      <trkpt lat="45.97819" lon="4.70901">
        <ele>220</ele>
        <time>2018-05-18T10:35:19Z</time>
      </trkpt>
      <trkpt lat="45.97818" lon="4.7091">
        <ele>219</ele>
        <time>2018-05-18T10:35:20Z</time>
      </trkpt>
      <trkpt lat="45.97818" lon="4.7092">
        <ele>219</ele>
        <time>2018-05-18T10:35:21Z</time>
      </trkpt>
      <trkpt lat="45.97819" lon="4.7093">
        <ele>219</ele>
        <time>2018-05-18T10:35:22Z</time>
      </trkpt>
      <trkpt lat="45.97823" lon="4.70939">
        <ele>218</ele>
        <time>2018-05-18T10:35:23Z</time>
      </trkpt>
      <trkpt lat="45.97826" lon="4.70947">
        <ele>218</ele>
        <time>2018-05-18T10:35:24Z</time>
      </trkpt>
      <trkpt lat="45.97829" lon="4.70958">
        <ele>218</ele>
        <time>2018-05-18T10:35:25Z</time>
      </trkpt>
      <trkpt lat="45.97832" lon="4.70968">
        <ele>218</ele>
        <time>2018-05-18T10:35:26Z</time>
      </trkpt>
      <trkpt lat="45.97833" lon="4.7098">
        <ele>217</ele>
        <time>2018-05-18T10:35:27Z</time>
      </trkpt>
      <trkpt lat="45.97834" lon="4.70991">
        <ele>217</ele>
        <time>2018-05-18T10:35:28Z</time>
      </trkpt>
      <trkpt lat="45.97836" lon="4.71003">
        <ele>216</ele>
        <time>2018-05-18T10:35:29Z</time>
      </trkpt>
      <trkpt lat="45.97837" lon="4.71015">
        <ele>216</ele>
        <time>2018-05-18T10:35:30Z</time>
      </trkpt>
      <trkpt lat="45.97838" lon="4.71027">
        <ele>216</ele>
        <time>2018-05-18T10:35:31Z</time>
      </trkpt>
      <trkpt lat="45.97839" lon="4.71039">
        <ele>216</ele>
        <time>2018-05-18T10:35:32Z</time>
      </trkpt>
      <trkpt lat="45.97841" lon="4.71051">
        <ele>215</ele>
        <time>2018-05-18T10:35:33Z</time>
      </trkpt>
      <trkpt lat="45.97842" lon="4.71064">
        <ele>215</ele>
        <time>2018-05-18T10:35:34Z</time>
      </trkpt>
      <trkpt lat="45.97843" lon="4.71076">
        <ele>215</ele>
        <time>2018-05-18T10:35:35Z</time>
      </trkpt>
      <trkpt lat="45.97844" lon="4.71088">
        <ele>214</ele>
        <time>2018-05-18T10:35:36Z</time>
      </trkpt>
      <trkpt lat="45.97846" lon="4.71099">
        <ele>213</ele>
        <time>2018-05-18T10:35:37Z</time>
      </trkpt>
      <trkpt lat="45.97847" lon="4.71109">
        <ele>213</ele>
        <time>2018-05-18T10:35:38Z</time>
      </trkpt>
      <trkpt lat="45.97847" lon="4.71118">
        <ele>213</ele>
        <time>2018-05-18T10:35:39Z</time>
      </trkpt>
      <trkpt lat="45.97847" lon="4.71128">
        <ele>212</ele>
        <time>2018-05-18T10:35:40Z</time>
      </trkpt>
      <trkpt lat="45.97847" lon="4.71137">
        <ele>212</ele>
        <time>2018-05-18T10:35:41Z</time>
      </trkpt>
      <trkpt lat="45.97848" lon="4.71148">
        <ele>212</ele>
        <time>2018-05-18T10:35:42Z</time>
      </trkpt>
      <trkpt lat="45.9785" lon="4.71156">
        <ele>212</ele>
        <time>2018-05-18T10:35:43Z</time>
      </trkpt>
      <trkpt lat="45.97851" lon="4.71166">
        <ele>212</ele>
        <time>2018-05-18T10:35:44Z</time>
      </trkpt>
      <trkpt lat="45.9785" lon="4.71174">
        <ele>210</ele>
        <time>2018-05-18T10:35:45Z</time>
      </trkpt>
      <trkpt lat="45.9785" lon="4.7118">
        <ele>209</ele>
        <time>2018-05-18T10:35:46Z</time>
      </trkpt>
      <trkpt lat="45.97851" lon="4.71188">
        <ele>209</ele>
        <time>2018-05-18T10:35:47Z</time>
      </trkpt>
      <trkpt lat="45.97851" lon="4.71196">
        <ele>209</ele>
        <time>2018-05-18T10:35:48Z</time>
      </trkpt>
      <trkpt lat="45.97851" lon="4.71205">
        <ele>209</ele>
        <time>2018-05-18T10:35:49Z</time>
      </trkpt>
      <trkpt lat="45.97851" lon="4.71216">
        <ele>208</ele>
        <time>2018-05-18T10:35:50Z</time>
      </trkpt>
      <trkpt lat="45.97851" lon="4.71226">
        <ele>208</ele>
        <time>2018-05-18T10:35:51Z</time>
      </trkpt>
      <trkpt lat="45.97851" lon="4.71237">
        <ele>208</ele>
        <time>2018-05-18T10:35:52Z</time>
      </trkpt>
      <trkpt lat="45.97852" lon="4.71248">
        <ele>208</ele>
        <time>2018-05-18T10:35:53Z</time>
      </trkpt>
      <trkpt lat="45.97851" lon="4.71259">
        <ele>207</ele>
        <time>2018-05-18T10:35:54Z</time>
      </trkpt>
      <trkpt lat="45.9785" lon="4.7127">
        <ele>206</ele>
        <time>2018-05-18T10:35:55Z</time>
      </trkpt>
      <trkpt lat="45.97851" lon="4.71282">
        <ele>206</ele>
        <time>2018-05-18T10:35:56Z</time>
      </trkpt>
      <trkpt lat="45.97851" lon="4.71293">
        <ele>206</ele>
        <time>2018-05-18T10:35:57Z</time>
      </trkpt>
      <trkpt lat="45.97851" lon="4.71304">
        <ele>206</ele>
        <time>2018-05-18T10:35:58Z</time>
      </trkpt>
      <trkpt lat="45.9785" lon="4.71316">
        <ele>205</ele>
        <time>2018-05-18T10:35:59Z</time>
      </trkpt>
      <trkpt lat="45.9785" lon="4.71327">
        <ele>205</ele>
        <time>2018-05-18T10:36:00Z</time>
      </trkpt>
      <trkpt lat="45.9785" lon="4.71339">
        <ele>204</ele>
        <time>2018-05-18T10:36:01Z</time>
      </trkpt>
      <trkpt lat="45.9785" lon="4.7135">
        <ele>204</ele>
        <time>2018-05-18T10:36:02Z</time>
      </trkpt>
      <trkpt lat="45.9785" lon="4.71362">
        <ele>204</ele>
        <time>2018-05-18T10:36:03Z</time>
      </trkpt>
      <trkpt lat="45.9785" lon="4.71373">
        <ele>203</ele>
        <time>2018-05-18T10:36:04Z</time>
      </trkpt>
      <trkpt lat="45.9785" lon="4.71384">
        <ele>203</ele>
        <time>2018-05-18T10:36:05Z</time>
      </trkpt>
      <trkpt lat="45.97851" lon="4.71395">
        <ele>203</ele>
        <time>2018-05-18T10:36:06Z</time>
      </trkpt>
      <trkpt lat="45.97852" lon="4.71405">
        <ele>203</ele>
        <time>2018-05-18T10:36:07Z</time>
      </trkpt>
      <trkpt lat="45.97854" lon="4.71415">
        <ele>203</ele>
        <time>2018-05-18T10:36:08Z</time>
      </trkpt>
      <trkpt lat="45.97855" lon="4.71425">
        <ele>202</ele>
        <time>2018-05-18T10:36:09Z</time>
      </trkpt>
      <trkpt lat="45.97856" lon="4.71437">
        <ele>201</ele>
        <time>2018-05-18T10:36:10Z</time>
      </trkpt>
      <trkpt lat="45.97858" lon="4.71448">
        <ele>201</ele>
        <time>2018-05-18T10:36:11Z</time>
      </trkpt>
      <trkpt lat="45.9786" lon="4.71458">
        <ele>201</ele>
        <time>2018-05-18T10:36:12Z</time>
      </trkpt>
      <trkpt lat="45.97862" lon="4.71469">
        <ele>201</ele>
        <time>2018-05-18T10:36:13Z</time>
      </trkpt>
      <trkpt lat="45.97864" lon="4.71479">
        <ele>201</ele>
        <time>2018-05-18T10:36:14Z</time>
      </trkpt>
      <trkpt lat="45.97866" lon="4.71489">
        <ele>201</ele>
        <time>2018-05-18T10:36:15Z</time>
      </trkpt>
      <trkpt lat="45.97867" lon="4.715">
        <ele>201</ele>
        <time>2018-05-18T10:36:16Z</time>
      </trkpt>
      <trkpt lat="45.97869" lon="4.7151">
        <ele>199</ele>
        <time>2018-05-18T10:36:17Z</time>
      </trkpt>
      <trkpt lat="45.9787" lon="4.7152">
        <ele>199</ele>
        <time>2018-05-18T10:36:18Z</time>
      </trkpt>
      <trkpt lat="45.97874" lon="4.71531">
        <ele>199</ele>
        <time>2018-05-18T10:36:19Z</time>
      </trkpt>
      <trkpt lat="45.97875" lon="4.7154">
        <ele>199</ele>
        <time>2018-05-18T10:36:20Z</time>
      </trkpt>
      <trkpt lat="45.97877" lon="4.71551">
        <ele>199</ele>
        <time>2018-05-18T10:36:21Z</time>
      </trkpt>
      <trkpt lat="45.97879" lon="4.71562">
        <ele>198</ele>
        <time>2018-05-18T10:36:22Z</time>
      </trkpt>
      <trkpt lat="45.9788" lon="4.71573">
        <ele>198</ele>
        <time>2018-05-18T10:36:23Z</time>
      </trkpt>
      <trkpt lat="45.9788" lon="4.71582">
        <ele>198</ele>
        <time>2018-05-18T10:36:24Z</time>
      </trkpt>
      <trkpt lat="45.97881" lon="4.71592">
        <ele>197</ele>
        <time>2018-05-18T10:36:25Z</time>
      </trkpt>
      <trkpt lat="45.97879" lon="4.71602">
        <ele>197</ele>
        <time>2018-05-18T10:36:26Z</time>
      </trkpt>
      <trkpt lat="45.97878" lon="4.71613">
        <ele>197</ele>
        <time>2018-05-18T10:36:27Z</time>
      </trkpt>
      <trkpt lat="45.97878" lon="4.71623">
        <ele>197</ele>
        <time>2018-05-18T10:36:28Z</time>
      </trkpt>
      <trkpt lat="45.97877" lon="4.71632">
        <ele>197</ele>
        <time>2018-05-18T10:36:29Z</time>
      </trkpt>
      <trkpt lat="45.97877" lon="4.71642">
        <ele>197</ele>
        <time>2018-05-18T10:36:30Z</time>
      </trkpt>
      <trkpt lat="45.97876" lon="4.71652">
        <ele>197</ele>
        <time>2018-05-18T10:36:31Z</time>
      </trkpt>
      <trkpt lat="45.97874" lon="4.7166">
        <ele>197</ele>
        <time>2018-05-18T10:36:32Z</time>
      </trkpt>
      <trkpt lat="45.97872" lon="4.71669">
        <ele>196</ele>
        <time>2018-05-18T10:36:33Z</time>
      </trkpt>
      <trkpt lat="45.97871" lon="4.71679">
        <ele>196</ele>
        <time>2018-05-18T10:36:34Z</time>
      </trkpt>
      <trkpt lat="45.9787" lon="4.71688">
        <ele>196</ele>
        <time>2018-05-18T10:36:35Z</time>
      </trkpt>
      <trkpt lat="45.97869" lon="4.71697">
        <ele>196</ele>
        <time>2018-05-18T10:36:36Z</time>
      </trkpt>
      <trkpt lat="45.97865" lon="4.71705">
        <ele>196</ele>
        <time>2018-05-18T10:36:37Z</time>
      </trkpt>
      <trkpt lat="45.97862" lon="4.71712">
        <ele>196</ele>
        <time>2018-05-18T10:36:38Z</time>
      </trkpt>
      <trkpt lat="45.97857" lon="4.71718">
        <ele>196</ele>
        <time>2018-05-18T10:36:39Z</time>
      </trkpt>
      <trkpt lat="45.97852" lon="4.71723">
        <ele>196</ele>
        <time>2018-05-18T10:36:40Z</time>
      </trkpt>
      <trkpt lat="45.97849" lon="4.7173">
        <ele>196</ele>
        <time>2018-05-18T10:36:41Z</time>
      </trkpt>
      <trkpt lat="45.97845" lon="4.71737">
        <ele>196</ele>
        <time>2018-05-18T10:36:42Z</time>
      </trkpt>
      <trkpt lat="45.9784" lon="4.71742">
        <ele>195</ele>
        <time>2018-05-18T10:36:43Z</time>
      </trkpt>
      <trkpt lat="45.97834" lon="4.71744">
        <ele>195</ele>
        <time>2018-05-18T10:36:44Z</time>
      </trkpt>
      <trkpt lat="45.97826" lon="4.71744">
        <ele>195</ele>
        <time>2018-05-18T10:36:45Z</time>
      </trkpt>
      <trkpt lat="45.9782" lon="4.71743">
        <ele>196</ele>
        <time>2018-05-18T10:36:46Z</time>
      </trkpt>
      <trkpt lat="45.97813" lon="4.71742">
        <ele>196</ele>
        <time>2018-05-18T10:36:47Z</time>
      </trkpt>
      <trkpt lat="45.97808" lon="4.71742">
        <ele>196</ele>
        <time>2018-05-18T10:36:48Z</time>
      </trkpt>
      <trkpt lat="45.97801" lon="4.71741">
        <ele>196</ele>
        <time>2018-05-18T10:36:49Z</time>
      </trkpt>
      <trkpt lat="45.97795" lon="4.7174">
        <ele>196</ele>
        <time>2018-05-18T10:36:50Z</time>
      </trkpt>
      <trkpt lat="45.97789" lon="4.7174">
        <ele>196</ele>
        <time>2018-05-18T10:36:51Z</time>
      </trkpt>
      <trkpt lat="45.97783" lon="4.71739">
        <ele>196</ele>
        <time>2018-05-18T10:36:52Z</time>
      </trkpt>
      <trkpt lat="45.97777" lon="4.71738">
        <ele>196</ele>
        <time>2018-05-18T10:36:53Z</time>
      </trkpt>
      <trkpt lat="45.97771" lon="4.71737">
        <ele>196</ele>
        <time>2018-05-18T10:36:54Z</time>
      </trkpt>
      <trkpt lat="45.97764" lon="4.71736">
        <ele>196</ele>
        <time>2018-05-18T10:36:55Z</time>
      </trkpt>
      <trkpt lat="45.97758" lon="4.71735">
        <ele>196</ele>
        <time>2018-05-18T10:36:56Z</time>
      </trkpt>
      <trkpt lat="45.97752" lon="4.71734">
        <ele>196</ele>
        <time>2018-05-18T10:36:57Z</time>
      </trkpt>
      <trkpt lat="45.97746" lon="4.71734">
        <ele>196</ele>
        <time>2018-05-18T10:36:58Z</time>
      </trkpt>
      <trkpt lat="45.97739" lon="4.71733">
        <ele>196</ele>
        <time>2018-05-18T10:36:59Z</time>
      </trkpt>
      <trkpt lat="45.97733" lon="4.71731">
        <ele>196</ele>
        <time>2018-05-18T10:37:00Z</time>
      </trkpt>
      <trkpt lat="45.97726" lon="4.7173">
        <ele>196</ele>
        <time>2018-05-18T10:37:01Z</time>
      </trkpt>
      <trkpt lat="45.9772" lon="4.71729">
        <ele>196</ele>
        <time>2018-05-18T10:37:02Z</time>
      </trkpt>
      <trkpt lat="45.97714" lon="4.7173">
        <ele>196</ele>
        <time>2018-05-18T10:37:03Z</time>
      </trkpt>
      <trkpt lat="45.97708" lon="4.7173">
        <ele>196</ele>
        <time>2018-05-18T10:37:04Z</time>
      </trkpt>
      <trkpt lat="45.97702" lon="4.7173">
        <ele>196</ele>
        <time>2018-05-18T10:37:05Z</time>
      </trkpt>
      <trkpt lat="45.97696" lon="4.71729">
        <ele>196</ele>
        <time>2018-05-18T10:37:06Z</time>
      </trkpt>
      <trkpt lat="45.9769" lon="4.71729">
        <ele>196</ele>
        <time>2018-05-18T10:37:07Z</time>
      </trkpt>
      <trkpt lat="45.97685" lon="4.71728">
        <ele>196</ele>
        <time>2018-05-18T10:37:08Z</time>
      </trkpt>
      <trkpt lat="45.9768" lon="4.71727">
        <ele>196</ele>
        <time>2018-05-18T10:37:09Z</time>
      </trkpt>
      <trkpt lat="45.97674" lon="4.71726">
        <ele>196</ele>
        <time>2018-05-18T10:37:10Z</time>
      </trkpt>
      <trkpt lat="45.97669" lon="4.71725">
        <ele>196</ele>
        <time>2018-05-18T10:37:11Z</time>
      </trkpt>
      <trkpt lat="45.97663" lon="4.71725">
        <ele>196</ele>
        <time>2018-05-18T10:37:12Z</time>
      </trkpt>
      <trkpt lat="45.97657" lon="4.71725">
        <ele>196</ele>
        <time>2018-05-18T10:37:13Z</time>
      </trkpt>
      <trkpt lat="45.97652" lon="4.71724">
        <ele>196</ele>
        <time>2018-05-18T10:37:14Z</time>
      </trkpt>
      <trkpt lat="45.97648" lon="4.71724">
        <ele>196</ele>
        <time>2018-05-18T10:37:15Z</time>
      </trkpt>
      <trkpt lat="45.97643" lon="4.71723">
        <ele>196</ele>
        <time>2018-05-18T10:37:16Z</time>
      </trkpt>
      <trkpt lat="45.97638" lon="4.7172">
        <ele>197</ele>
        <time>2018-05-18T10:37:17Z</time>
      </trkpt>
      <trkpt lat="45.97634" lon="4.71716">
        <ele>197</ele>
        <time>2018-05-18T10:37:18Z</time>
      </trkpt>
      <trkpt lat="45.97629" lon="4.71714">
        <ele>197</ele>
        <time>2018-05-18T10:37:19Z</time>
      </trkpt>
      <trkpt lat="45.97625" lon="4.71711">
        <ele>197</ele>
        <time>2018-05-18T10:37:20Z</time>
      </trkpt>
      <trkpt lat="45.9762" lon="4.71711">
        <ele>197</ele>
        <time>2018-05-18T10:37:21Z</time>
      </trkpt>
      <trkpt lat="45.97615" lon="4.71711">
        <ele>197</ele>
        <time>2018-05-18T10:37:22Z</time>
      </trkpt>
      <trkpt lat="45.9761" lon="4.71714">
        <ele>197</ele>
        <time>2018-05-18T10:37:23Z</time>
      </trkpt>
      <trkpt lat="45.97605" lon="4.71716">
        <ele>197</ele>
        <time>2018-05-18T10:37:24Z</time>
      </trkpt>
      <trkpt lat="45.97599" lon="4.71719">
        <ele>197</ele>
        <time>2018-05-18T10:37:25Z</time>
      </trkpt>
      <trkpt lat="45.97593" lon="4.7172">
        <ele>197</ele>
        <time>2018-05-18T10:37:26Z</time>
      </trkpt>
      <trkpt lat="45.97587" lon="4.71722">
        <ele>197</ele>
        <time>2018-05-18T10:37:27Z</time>
      </trkpt>
      <trkpt lat="45.9758" lon="4.7172">
        <ele>198</ele>
        <time>2018-05-18T10:37:28Z</time>
      </trkpt>
      <trkpt lat="45.97574" lon="4.7172">
        <ele>198</ele>
        <time>2018-05-18T10:37:29Z</time>
      </trkpt>
      <trkpt lat="45.97568" lon="4.7172">
        <ele>198</ele>
        <time>2018-05-18T10:37:30Z</time>
      </trkpt>
      <trkpt lat="45.97562" lon="4.7172">
        <ele>198</ele>
        <time>2018-05-18T10:37:31Z</time>
      </trkpt>
      <trkpt lat="45.97555" lon="4.71719">
        <ele>198</ele>
        <time>2018-05-18T10:37:32Z</time>
      </trkpt>
      <trkpt lat="45.97549" lon="4.71719">
        <ele>198</ele>
        <time>2018-05-18T10:37:33Z</time>
      </trkpt>
      <trkpt lat="45.97543" lon="4.71718">
        <ele>198</ele>
        <time>2018-05-18T10:37:34Z</time>
      </trkpt>
      <trkpt lat="45.97537" lon="4.71718">
        <ele>198</ele>
        <time>2018-05-18T10:37:35Z</time>
      </trkpt>
      <trkpt lat="45.9753" lon="4.71717">
        <ele>198</ele>
        <time>2018-05-18T10:37:36Z</time>
      </trkpt>
      <trkpt lat="45.97525" lon="4.71715">
        <ele>198</ele>
        <time>2018-05-18T10:37:37Z</time>
      </trkpt>
      <trkpt lat="45.9752" lon="4.71714">
        <ele>198</ele>
        <time>2018-05-18T10:37:38Z</time>
      </trkpt>
      <trkpt lat="45.97514" lon="4.71713">
        <ele>199</ele>
        <time>2018-05-18T10:37:39Z</time>
      </trkpt>
      <trkpt lat="45.97508" lon="4.71713">
        <ele>199</ele>
        <time>2018-05-18T10:37:40Z</time>
      </trkpt>
      <trkpt lat="45.97502" lon="4.71712">
        <ele>199</ele>
        <time>2018-05-18T10:37:41Z</time>
      </trkpt>
      <trkpt lat="45.97495" lon="4.71711">
        <ele>198</ele>
        <time>2018-05-18T10:37:42Z</time>
      </trkpt>
      <trkpt lat="45.97489" lon="4.7171">
        <ele>198</ele>
        <time>2018-05-18T10:37:43Z</time>
      </trkpt>
      <trkpt lat="45.97481" lon="4.7171">
        <ele>198</ele>
        <time>2018-05-18T10:37:44Z</time>
      </trkpt>
      <trkpt lat="45.97474" lon="4.7171">
        <ele>198</ele>
        <time>2018-05-18T10:37:45Z</time>
      </trkpt>
      <trkpt lat="45.97468" lon="4.71708">
        <ele>198</ele>
        <time>2018-05-18T10:37:46Z</time>
      </trkpt>
      <trkpt lat="45.97461" lon="4.71708">
        <ele>197</ele>
        <time>2018-05-18T10:37:47Z</time>
      </trkpt>
      <trkpt lat="45.97454" lon="4.71708">
        <ele>197</ele>
        <time>2018-05-18T10:37:48Z</time>
      </trkpt>
      <trkpt lat="45.97447" lon="4.71708">
        <ele>197</ele>
        <time>2018-05-18T10:37:49Z</time>
      </trkpt>
      <trkpt lat="45.97442" lon="4.71709">
        <ele>197</ele>
        <time>2018-05-18T10:37:50Z</time>
      </trkpt>
      <trkpt lat="45.97434" lon="4.71708">
        <ele>197</ele>
        <time>2018-05-18T10:37:51Z</time>
      </trkpt>
      <trkpt lat="45.97425" lon="4.7171">
        <ele>196</ele>
        <time>2018-05-18T10:37:52Z</time>
      </trkpt>
      <trkpt lat="45.97419" lon="4.71709">
        <ele>196</ele>
        <time>2018-05-18T10:37:53Z</time>
      </trkpt>
      <trkpt lat="45.97413" lon="4.71708">
        <ele>195</ele>
        <time>2018-05-18T10:37:54Z</time>
      </trkpt>
      <trkpt lat="45.97406" lon="4.71708">
        <ele>195</ele>
        <time>2018-05-18T10:37:55Z</time>
      </trkpt>
      <trkpt lat="45.97401" lon="4.71705">
        <ele>195</ele>
        <time>2018-05-18T10:37:56Z</time>
      </trkpt>
      <trkpt lat="45.97394" lon="4.71705">
        <ele>195</ele>
        <time>2018-05-18T10:37:57Z</time>
      </trkpt>
      <trkpt lat="45.97388" lon="4.71705">
        <ele>195</ele>
        <time>2018-05-18T10:37:58Z</time>
      </trkpt>
      <trkpt lat="45.97382" lon="4.71706">
        <ele>195</ele>
        <time>2018-05-18T10:37:59Z</time>
      </trkpt>
      <trkpt lat="45.97375" lon="4.71706">
        <ele>195</ele>
        <time>2018-05-18T10:38:00Z</time>
      </trkpt>
      <trkpt lat="45.97369" lon="4.71707">
        <ele>195</ele>
        <time>2018-05-18T10:38:01Z</time>
      </trkpt>
      <trkpt lat="45.97363" lon="4.71706">
        <ele>195</ele>
        <time>2018-05-18T10:38:02Z</time>
      </trkpt>
      <trkpt lat="45.97357" lon="4.71706">
        <ele>195</ele>
        <time>2018-05-18T10:38:03Z</time>
      </trkpt>
      <trkpt lat="45.9735" lon="4.71703">
        <ele>195</ele>
        <time>2018-05-18T10:38:04Z</time>
      </trkpt>
      <trkpt lat="45.97345" lon="4.717">
        <ele>196</ele>
        <time>2018-05-18T10:38:05Z</time>
      </trkpt>
      <trkpt lat="45.97338" lon="4.71699">
        <ele>196</ele>
        <time>2018-05-18T10:38:06Z</time>
      </trkpt>
      <trkpt lat="45.97333" lon="4.71699">
        <ele>196</ele>
        <time>2018-05-18T10:38:07Z</time>
      </trkpt>
      <trkpt lat="45.97328" lon="4.71698">
        <ele>196</ele>
        <time>2018-05-18T10:38:08Z</time>
      </trkpt>
      <trkpt lat="45.97321" lon="4.71692">
        <ele>196</ele>
        <time>2018-05-18T10:38:13Z</time>
      </trkpt>
      <trkpt lat="45.97314" lon="4.71686">
        <ele>197</ele>
        <time>2018-05-18T10:38:14Z</time>
      </trkpt>
      <trkpt lat="45.97307" lon="4.71681">
        <ele>197</ele>
        <time>2018-05-18T10:38:16Z</time>
      </trkpt>
      <trkpt lat="45.973" lon="4.71685">
        <ele>197</ele>
        <time>2018-05-18T10:38:17Z</time>
      </trkpt>
      <trkpt lat="45.97295" lon="4.71689">
        <ele>197</ele>
        <time>2018-05-18T10:38:18Z</time>
      </trkpt>
      <trkpt lat="45.97291" lon="4.71693">
        <ele>197</ele>
        <time>2018-05-18T10:38:19Z</time>
      </trkpt>
      <trkpt lat="45.97285" lon="4.71695">
        <ele>197</ele>
        <time>2018-05-18T10:38:20Z</time>
      </trkpt>
      <trkpt lat="45.9728" lon="4.71697">
        <ele>197</ele>
        <time>2018-05-18T10:38:21Z</time>
      </trkpt>
      <trkpt lat="45.97275" lon="4.71699">
        <ele>197</ele>
        <time>2018-05-18T10:38:22Z</time>
      </trkpt>
      <trkpt lat="45.9727" lon="4.71697">
        <ele>197</ele>
        <time>2018-05-18T10:38:23Z</time>
      </trkpt>
      <trkpt lat="45.97264" lon="4.71696">
        <ele>197</ele>
        <time>2018-05-18T10:38:24Z</time>
      </trkpt>
      <trkpt lat="45.97258" lon="4.71695">
        <ele>197</ele>
        <time>2018-05-18T10:38:25Z</time>
      </trkpt>
      <trkpt lat="45.97252" lon="4.71694">
        <ele>197</ele>
        <time>2018-05-18T10:38:26Z</time>
      </trkpt>
      <trkpt lat="45.97246" lon="4.71694">
        <ele>197</ele>
        <time>2018-05-18T10:38:27Z</time>
      </trkpt>
      <trkpt lat="45.9724" lon="4.71693">
        <ele>197</ele>
        <time>2018-05-18T10:38:28Z</time>
      </trkpt>
      <trkpt lat="45.97233" lon="4.71692">
        <ele>197</ele>
        <time>2018-05-18T10:38:29Z</time>
      </trkpt>
      <trkpt lat="45.97226" lon="4.71691">
        <ele>197</ele>
        <time>2018-05-18T10:38:30Z</time>
      </trkpt>
      <trkpt lat="45.97214" lon="4.71693">
        <ele>197</ele>
        <time>2018-05-18T10:38:31Z</time>
      </trkpt>
      <trkpt lat="45.97209" lon="4.71691">
        <ele>197</ele>
        <time>2018-05-18T10:38:32Z</time>
      </trkpt>
      <trkpt lat="45.97202" lon="4.71691">
        <ele>197</ele>
        <time>2018-05-18T10:38:33Z</time>
      </trkpt>
      <trkpt lat="45.97194" lon="4.7169">
        <ele>197</ele>
        <time>2018-05-18T10:38:34Z</time>
      </trkpt>
      <trkpt lat="45.97186" lon="4.7169">
        <ele>197</ele>
        <time>2018-05-18T10:38:35Z</time>
      </trkpt>
      <trkpt lat="45.97179" lon="4.71689">
        <ele>197</ele>
        <time>2018-05-18T10:38:36Z</time>
      </trkpt>
      <trkpt lat="45.97171" lon="4.71687">
        <ele>197</ele>
        <time>2018-05-18T10:38:37Z</time>
      </trkpt>
      <trkpt lat="45.97166" lon="4.71687">
        <ele>196</ele>
        <time>2018-05-18T10:38:38Z</time>
      </trkpt>
      <trkpt lat="45.97159" lon="4.71686">
        <ele>196</ele>
        <time>2018-05-18T10:38:39Z</time>
      </trkpt>
      <trkpt lat="45.97152" lon="4.71686">
        <ele>195</ele>
        <time>2018-05-18T10:38:40Z</time>
      </trkpt>
      <trkpt lat="45.97144" lon="4.71685">
        <ele>195</ele>
        <time>2018-05-18T10:38:41Z</time>
      </trkpt>
      <trkpt lat="45.97137" lon="4.71684">
        <ele>195</ele>
        <time>2018-05-18T10:38:42Z</time>
      </trkpt>
      <trkpt lat="45.97129" lon="4.71686">
        <ele>195</ele>
        <time>2018-05-18T10:38:43Z</time>
      </trkpt>
      <trkpt lat="45.97123" lon="4.71686">
        <ele>195</ele>
        <time>2018-05-18T10:38:44Z</time>
      </trkpt>
      <trkpt lat="45.97116" lon="4.71686">
        <ele>194</ele>
        <time>2018-05-18T10:38:45Z</time>
      </trkpt>
      <trkpt lat="45.97111" lon="4.71684">
        <ele>194</ele>
        <time>2018-05-18T10:38:46Z</time>
      </trkpt>
      <trkpt lat="45.97104" lon="4.71683">
        <ele>194</ele>
        <time>2018-05-18T10:38:47Z</time>
      </trkpt>
      <trkpt lat="45.97098" lon="4.71683">
        <ele>194</ele>
        <time>2018-05-18T10:38:48Z</time>
      </trkpt>
      <trkpt lat="45.97091" lon="4.71682">
        <ele>194</ele>
        <time>2018-05-18T10:38:49Z</time>
      </trkpt>
      <trkpt lat="45.97084" lon="4.71681">
        <ele>194</ele>
        <time>2018-05-18T10:38:50Z</time>
      </trkpt>
      <trkpt lat="45.97075" lon="4.71681">
        <ele>194</ele>
        <time>2018-05-18T10:38:51Z</time>
      </trkpt>
      <trkpt lat="45.97068" lon="4.7168">
        <ele>193</ele>
        <time>2018-05-18T10:38:52Z</time>
      </trkpt>
      <trkpt lat="45.97063" lon="4.71677">
        <ele>193</ele>
        <time>2018-05-18T10:38:53Z</time>
      </trkpt>
      <trkpt lat="45.97056" lon="4.71675">
        <ele>193</ele>
        <time>2018-05-18T10:38:54Z</time>
      </trkpt>
      <trkpt lat="45.97047" lon="4.71675">
        <ele>193</ele>
        <time>2018-05-18T10:38:55Z</time>
      </trkpt>
      <trkpt lat="45.9704" lon="4.71674">
        <ele>193</ele>
        <time>2018-05-18T10:38:56Z</time>
      </trkpt>
      <trkpt lat="45.97033" lon="4.71675">
        <ele>193</ele>
        <time>2018-05-18T10:38:57Z</time>
      </trkpt>
      <trkpt lat="45.97026" lon="4.71674">
        <ele>193</ele>
        <time>2018-05-18T10:38:58Z</time>
      </trkpt>
      <trkpt lat="45.97018" lon="4.71673">
        <ele>193</ele>
        <time>2018-05-18T10:38:59Z</time>
      </trkpt>
      <trkpt lat="45.97011" lon="4.71673">
        <ele>193</ele>
        <time>2018-05-18T10:39:00Z</time>
      </trkpt>
      <trkpt lat="45.97005" lon="4.71672">
        <ele>194</ele>
        <time>2018-05-18T10:39:01Z</time>
      </trkpt>
      <trkpt lat="45.96997" lon="4.71672">
        <ele>193</ele>
        <time>2018-05-18T10:39:02Z</time>
      </trkpt>
      <trkpt lat="45.96989" lon="4.71672">
        <ele>193</ele>
        <time>2018-05-18T10:39:03Z</time>
      </trkpt>
      <trkpt lat="45.9698" lon="4.71673">
        <ele>192</ele>
        <time>2018-05-18T10:39:04Z</time>
      </trkpt>
      <trkpt lat="45.96973" lon="4.71672">
        <ele>192</ele>
        <time>2018-05-18T10:39:05Z</time>
      </trkpt>
      <trkpt lat="45.96965" lon="4.71672">
        <ele>192</ele>
        <time>2018-05-18T10:39:06Z</time>
      </trkpt>
      <trkpt lat="45.96956" lon="4.71672">
        <ele>192</ele>
        <time>2018-05-18T10:39:07Z</time>
      </trkpt>
      <trkpt lat="45.96948" lon="4.71672">
        <ele>192</ele>
        <time>2018-05-18T10:39:08Z</time>
      </trkpt>
      <trkpt lat="45.96941" lon="4.71672">
        <ele>192</ele>
        <time>2018-05-18T10:39:09Z</time>
      </trkpt>
      <trkpt lat="45.96933" lon="4.7167">
        <ele>193</ele>
        <time>2018-05-18T10:39:10Z</time>
      </trkpt>
      <trkpt lat="45.96925" lon="4.71669">
        <ele>194</ele>
        <time>2018-05-18T10:39:11Z</time>
      </trkpt>
      <trkpt lat="45.96917" lon="4.71669">
        <ele>195</ele>
        <time>2018-05-18T10:39:12Z</time>
      </trkpt>
      <trkpt lat="45.96911" lon="4.71669">
        <ele>194</ele>
        <time>2018-05-18T10:39:13Z</time>
      </trkpt>
      <trkpt lat="45.96903" lon="4.71667">
        <ele>192</ele>
        <time>2018-05-18T10:39:14Z</time>
      </trkpt>
      <trkpt lat="45.96896" lon="4.71667">
        <ele>195</ele>
        <time>2018-05-18T10:39:15Z</time>
      </trkpt>
      <trkpt lat="45.96888" lon="4.71666">
        <ele>195</ele>
        <time>2018-05-18T10:39:16Z</time>
      </trkpt>
      <trkpt lat="45.96879" lon="4.71666">
        <ele>195</ele>
        <time>2018-05-18T10:39:17Z</time>
      </trkpt>
      <trkpt lat="45.96871" lon="4.71665">
        <ele>195</ele>
        <time>2018-05-18T10:39:18Z</time>
      </trkpt>
      <trkpt lat="45.96863" lon="4.71663">
        <ele>195</ele>
        <time>2018-05-18T10:39:19Z</time>
      </trkpt>
      <trkpt lat="45.96855" lon="4.71662">
        <ele>194</ele>
        <time>2018-05-18T10:39:20Z</time>
      </trkpt>
      <trkpt lat="45.96847" lon="4.71661">
        <ele>194</ele>
        <time>2018-05-18T10:39:21Z</time>
      </trkpt>
      <trkpt lat="45.96839" lon="4.71659">
        <ele>193</ele>
        <time>2018-05-18T10:39:22Z</time>
      </trkpt>
      <trkpt lat="45.96832" lon="4.71659">
        <ele>192</ele>
        <time>2018-05-18T10:39:23Z</time>
      </trkpt>
      <trkpt lat="45.96823" lon="4.71657">
        <ele>193</ele>
        <time>2018-05-18T10:39:24Z</time>
      </trkpt>
      <trkpt lat="45.96815" lon="4.71658">
        <ele>193</ele>
        <time>2018-05-18T10:39:25Z</time>
      </trkpt>
      <trkpt lat="45.96808" lon="4.71656">
        <ele>193</ele>
        <time>2018-05-18T10:39:26Z</time>
      </trkpt>
      <trkpt lat="45.968" lon="4.71654">
        <ele>193</ele>
        <time>2018-05-18T10:39:27Z</time>
      </trkpt>
      <trkpt lat="45.96792" lon="4.71653">
        <ele>192</ele>
        <time>2018-05-18T10:39:28Z</time>
      </trkpt>
      <trkpt lat="45.96784" lon="4.71651">
        <ele>192</ele>
        <time>2018-05-18T10:39:29Z</time>
      </trkpt>
      <trkpt lat="45.96776" lon="4.7165">
        <ele>192</ele>
        <time>2018-05-18T10:39:30Z</time>
      </trkpt>
      <trkpt lat="45.96768" lon="4.71647">
        <ele>192</ele>
        <time>2018-05-18T10:39:31Z</time>
      </trkpt>
      <trkpt lat="45.9676" lon="4.71646">
        <ele>192</ele>
        <time>2018-05-18T10:39:32Z</time>
      </trkpt>
      <trkpt lat="45.96751" lon="4.71644">
        <ele>191</ele>
        <time>2018-05-18T10:39:33Z</time>
      </trkpt>
      <trkpt lat="45.96743" lon="4.71644">
        <ele>190</ele>
        <time>2018-05-18T10:39:34Z</time>
      </trkpt>
      <trkpt lat="45.96736" lon="4.71641">
        <ele>190</ele>
        <time>2018-05-18T10:39:35Z</time>
      </trkpt>
      <trkpt lat="45.96727" lon="4.7164">
        <ele>190</ele>
        <time>2018-05-18T10:39:36Z</time>
      </trkpt>
      <trkpt lat="45.96718" lon="4.71638">
        <ele>190</ele>
        <time>2018-05-18T10:39:37Z</time>
      </trkpt>
      <trkpt lat="45.9671" lon="4.71637">
        <ele>190</ele>
        <time>2018-05-18T10:39:38Z</time>
      </trkpt>
      <trkpt lat="45.96699" lon="4.71636">
        <ele>190</ele>
        <time>2018-05-18T10:39:39Z</time>
      </trkpt>
      <trkpt lat="45.96691" lon="4.71634">
        <ele>190</ele>
        <time>2018-05-18T10:39:40Z</time>
      </trkpt>
      <trkpt lat="45.96679" lon="4.71634">
        <ele>190</ele>
        <time>2018-05-18T10:39:41Z</time>
      </trkpt>
      <trkpt lat="45.9667" lon="4.71633">
        <ele>190</ele>
        <time>2018-05-18T10:39:42Z</time>
      </trkpt>
      <trkpt lat="45.96661" lon="4.71631">
        <ele>188</ele>
        <time>2018-05-18T10:39:43Z</time>
      </trkpt>
      <trkpt lat="45.96652" lon="4.71631">
        <ele>188</ele>
        <time>2018-05-18T10:39:44Z</time>
      </trkpt>
      <trkpt lat="45.96643" lon="4.71629">
        <ele>188</ele>
        <time>2018-05-18T10:39:45Z</time>
      </trkpt>
      <trkpt lat="45.96634" lon="4.71627">
        <ele>188</ele>
        <time>2018-05-18T10:39:46Z</time>
      </trkpt>
      <trkpt lat="45.96625" lon="4.71626">
        <ele>188</ele>
        <time>2018-05-18T10:39:47Z</time>
      </trkpt>
      <trkpt lat="45.96616" lon="4.71624">
        <ele>188</ele>
        <time>2018-05-18T10:39:48Z</time>
      </trkpt>
      <trkpt lat="45.96608" lon="4.71622">
        <ele>188</ele>
        <time>2018-05-18T10:39:49Z</time>
      </trkpt>
      <trkpt lat="45.96599" lon="4.71621">
        <ele>187</ele>
        <time>2018-05-18T10:39:50Z</time>
      </trkpt>
      <trkpt lat="45.96591" lon="4.7162">
        <ele>187</ele>
        <time>2018-05-18T10:39:51Z</time>
      </trkpt>
      <trkpt lat="45.96581" lon="4.71618">
        <ele>185</ele>
        <time>2018-05-18T10:39:52Z</time>
      </trkpt>
      <trkpt lat="45.96574" lon="4.71616">
        <ele>185</ele>
        <time>2018-05-18T10:39:53Z</time>
      </trkpt>
      <trkpt lat="45.96566" lon="4.71615">
        <ele>185</ele>
        <time>2018-05-18T10:39:54Z</time>
      </trkpt>
      <trkpt lat="45.96557" lon="4.71612">
        <ele>185</ele>
        <time>2018-05-18T10:39:55Z</time>
      </trkpt>
      <trkpt lat="45.96549" lon="4.7161">
        <ele>185</ele>
        <time>2018-05-18T10:39:56Z</time>
      </trkpt>
      <trkpt lat="45.96541" lon="4.71607">
        <ele>185</ele>
        <time>2018-05-18T10:39:57Z</time>
      </trkpt>
      <trkpt lat="45.96532" lon="4.71605">
        <ele>185</ele>
        <time>2018-05-18T10:39:58Z</time>
      </trkpt>
      <trkpt lat="45.96525" lon="4.71602">
        <ele>185</ele>
        <time>2018-05-18T10:39:59Z</time>
      </trkpt>
      <trkpt lat="45.96516" lon="4.71602">
        <ele>185</ele>
        <time>2018-05-18T10:40:00Z</time>
      </trkpt>
      <trkpt lat="45.96509" lon="4.71601">
        <ele>185</ele>
        <time>2018-05-18T10:40:01Z</time>
      </trkpt>
      <trkpt lat="45.965" lon="4.71606">
        <ele>183</ele>
        <time>2018-05-18T10:40:02Z</time>
      </trkpt>
      <trkpt lat="45.96494" lon="4.71606">
        <ele>183</ele>
        <time>2018-05-18T10:40:03Z</time>
      </trkpt>
      <trkpt lat="45.96486" lon="4.71604">
        <ele>183</ele>
        <time>2018-05-18T10:40:04Z</time>
      </trkpt>
      <trkpt lat="45.96477" lon="4.71603">
        <ele>183</ele>
        <time>2018-05-18T10:40:05Z</time>
      </trkpt>
      <trkpt lat="45.96469" lon="4.71604">
        <ele>183</ele>
        <time>2018-05-18T10:40:06Z</time>
      </trkpt>
      <trkpt lat="45.9646" lon="4.71603">
        <ele>183</ele>
        <time>2018-05-18T10:40:07Z</time>
      </trkpt>
      <trkpt lat="45.96453" lon="4.71602">
        <ele>183</ele>
        <time>2018-05-18T10:40:08Z</time>
      </trkpt>
      <trkpt lat="45.96445" lon="4.716">
        <ele>183</ele>
        <time>2018-05-18T10:40:09Z</time>
      </trkpt>
      <trkpt lat="45.96437" lon="4.716">
        <ele>183</ele>
        <time>2018-05-18T10:40:10Z</time>
      </trkpt>
      <trkpt lat="45.96429" lon="4.71598">
        <ele>184</ele>
        <time>2018-05-18T10:40:11Z</time>
      </trkpt>
      <trkpt lat="45.96421" lon="4.71597">
        <ele>184</ele>
        <time>2018-05-18T10:40:12Z</time>
      </trkpt>
      <trkpt lat="45.96413" lon="4.71595">
        <ele>184</ele>
        <time>2018-05-18T10:40:13Z</time>
      </trkpt>
      <trkpt lat="45.96405" lon="4.71594">
        <ele>183</ele>
        <time>2018-05-18T10:40:14Z</time>
      </trkpt>
      <trkpt lat="45.96397" lon="4.71592">
        <ele>183</ele>
        <time>2018-05-18T10:40:15Z</time>
      </trkpt>
      <trkpt lat="45.96389" lon="4.7159">
        <ele>183</ele>
        <time>2018-05-18T10:40:16Z</time>
      </trkpt>
      <trkpt lat="45.96382" lon="4.71589">
        <ele>183</ele>
        <time>2018-05-18T10:40:17Z</time>
      </trkpt>
      <trkpt lat="45.96374" lon="4.71588">
        <ele>182</ele>
        <time>2018-05-18T10:40:18Z</time>
      </trkpt>
      <trkpt lat="45.96367" lon="4.71586">
        <ele>182</ele>
        <time>2018-05-18T10:40:19Z</time>
      </trkpt>
      <trkpt lat="45.96359" lon="4.71585">
        <ele>182</ele>
        <time>2018-05-18T10:40:20Z</time>
      </trkpt>
      <trkpt lat="45.96352" lon="4.71584">
        <ele>182</ele>
        <time>2018-05-18T10:40:21Z</time>
      </trkpt>
      <trkpt lat="45.96345" lon="4.71581">
        <ele>184</ele>
        <time>2018-05-18T10:40:22Z</time>
      </trkpt>
      <trkpt lat="45.96333" lon="4.7158">
        <ele>183</ele>
        <time>2018-05-18T10:40:23Z</time>
      </trkpt>
      <trkpt lat="45.96325" lon="4.71579">
        <ele>184</ele>
        <time>2018-05-18T10:40:24Z</time>
      </trkpt>
      <trkpt lat="45.96317" lon="4.71577">
        <ele>184</ele>
        <time>2018-05-18T10:40:25Z</time>
      </trkpt>
      <trkpt lat="45.96309" lon="4.71576">
        <ele>184</ele>
        <time>2018-05-18T10:40:26Z</time>
      </trkpt>
      <trkpt lat="45.96302" lon="4.71574">
        <ele>184</ele>
        <time>2018-05-18T10:40:27Z</time>
      </trkpt>
      <trkpt lat="45.96294" lon="4.71573">
        <ele>184</ele>
        <time>2018-05-18T10:40:28Z</time>
      </trkpt>
      <trkpt lat="45.96286" lon="4.71572">
        <ele>184</ele>
        <time>2018-05-18T10:40:29Z</time>
      </trkpt>
      <trkpt lat="45.9628" lon="4.7157">
        <ele>184</ele>
        <time>2018-05-18T10:40:30Z</time>
      </trkpt>
      <trkpt lat="45.96274" lon="4.71569">
        <ele>184</ele>
        <time>2018-05-18T10:40:31Z</time>
      </trkpt>
      <trkpt lat="45.96263" lon="4.71568">
        <ele>183</ele>
        <time>2018-05-18T10:40:32Z</time>
      </trkpt>
      <trkpt lat="45.96254" lon="4.71567">
        <ele>183</ele>
        <time>2018-05-18T10:40:33Z</time>
      </trkpt>
      <trkpt lat="45.96247" lon="4.71565">
        <ele>183</ele>
        <time>2018-05-18T10:40:34Z</time>
      </trkpt>
      <trkpt lat="45.9624" lon="4.71564">
        <ele>183</ele>
        <time>2018-05-18T10:40:35Z</time>
      </trkpt>
      <trkpt lat="45.96232" lon="4.71563">
        <ele>183</ele>
        <time>2018-05-18T10:40:36Z</time>
      </trkpt>
      <trkpt lat="45.96224" lon="4.71562">
        <ele>183</ele>
        <time>2018-05-18T10:40:37Z</time>
      </trkpt>
      <trkpt lat="45.96215" lon="4.71561">
        <ele>183</ele>
        <time>2018-05-18T10:40:38Z</time>
      </trkpt>
      <trkpt lat="45.96209" lon="4.71559">
        <ele>184</ele>
        <time>2018-05-18T10:40:39Z</time>
      </trkpt>
      <trkpt lat="45.96202" lon="4.71557">
        <ele>184</ele>
        <time>2018-05-18T10:40:40Z</time>
      </trkpt>
      <trkpt lat="45.96195" lon="4.71557">
        <ele>183</ele>
        <time>2018-05-18T10:40:41Z</time>
      </trkpt>
      <trkpt lat="45.96188" lon="4.71555">
        <ele>183</ele>
        <time>2018-05-18T10:40:42Z</time>
      </trkpt>
      <trkpt lat="45.96181" lon="4.71554">
        <ele>183</ele>
        <time>2018-05-18T10:40:43Z</time>
      </trkpt>
      <trkpt lat="45.96175" lon="4.71554">
        <ele>183</ele>
        <time>2018-05-18T10:40:44Z</time>
      </trkpt>
      <trkpt lat="45.96168" lon="4.71552">
        <ele>183</ele>
        <time>2018-05-18T10:40:45Z</time>
      </trkpt>
      <trkpt lat="45.96161" lon="4.71551">
        <ele>184</ele>
        <time>2018-05-18T10:40:46Z</time>
      </trkpt>
      <trkpt lat="45.96154" lon="4.71549">
        <ele>184</ele>
        <time>2018-05-18T10:40:47Z</time>
      </trkpt>
      <trkpt lat="45.96144" lon="4.71548">
        <ele>184</ele>
        <time>2018-05-18T10:40:48Z</time>
      </trkpt>
      <trkpt lat="45.96138" lon="4.71547">
        <ele>184</ele>
        <time>2018-05-18T10:40:49Z</time>
      </trkpt>
      <trkpt lat="45.9613" lon="4.71545">
        <ele>185</ele>
        <time>2018-05-18T10:40:50Z</time>
      </trkpt>
      <trkpt lat="45.96123" lon="4.71544">
        <ele>185</ele>
        <time>2018-05-18T10:40:51Z</time>
      </trkpt>
      <trkpt lat="45.96117" lon="4.71543">
        <ele>185</ele>
        <time>2018-05-18T10:40:52Z</time>
      </trkpt>
      <trkpt lat="45.9611" lon="4.71541">
        <ele>185</ele>
        <time>2018-05-18T10:40:53Z</time>
      </trkpt>
      <trkpt lat="45.96103" lon="4.71541">
        <ele>185</ele>
        <time>2018-05-18T10:40:54Z</time>
      </trkpt>
      <trkpt lat="45.96095" lon="4.7154">
        <ele>185</ele>
        <time>2018-05-18T10:40:55Z</time>
      </trkpt>
      <trkpt lat="45.96088" lon="4.71539">
        <ele>185</ele>
        <time>2018-05-18T10:40:56Z</time>
      </trkpt>
      <trkpt lat="45.96082" lon="4.71537">
        <ele>186</ele>
        <time>2018-05-18T10:40:57Z</time>
      </trkpt>
      <trkpt lat="45.96079" lon="4.71535">
        <ele>186</ele>
        <time>2018-05-18T10:40:58Z</time>
      </trkpt>
      <trkpt lat="45.96071" lon="4.71534">
        <ele>186</ele>
        <time>2018-05-18T10:40:59Z</time>
      </trkpt>
      <trkpt lat="45.96065" lon="4.71533">
        <ele>186</ele>
        <time>2018-05-18T10:41:00Z</time>
      </trkpt>
      <trkpt lat="45.96059" lon="4.71531">
        <ele>186</ele>
        <time>2018-05-18T10:41:01Z</time>
      </trkpt>
      <trkpt lat="45.96053" lon="4.7153">
        <ele>186</ele>
        <time>2018-05-18T10:41:02Z</time>
      </trkpt>
      <trkpt lat="45.96046" lon="4.71529">
        <ele>186</ele>
        <time>2018-05-18T10:41:03Z</time>
      </trkpt>
      <trkpt lat="45.96039" lon="4.71528">
        <ele>186</ele>
        <time>2018-05-18T10:41:04Z</time>
      </trkpt>
      <trkpt lat="45.96032" lon="4.71527">
        <ele>186</ele>
        <time>2018-05-18T10:41:05Z</time>
      </trkpt>
      <trkpt lat="45.96026" lon="4.71526">
        <ele>186</ele>
        <time>2018-05-18T10:41:06Z</time>
      </trkpt>
      <trkpt lat="45.96019" lon="4.71524">
        <ele>186</ele>
        <time>2018-05-18T10:41:07Z</time>
      </trkpt>
      <trkpt lat="45.96012" lon="4.71523">
        <ele>186</ele>
        <time>2018-05-18T10:41:08Z</time>
      </trkpt>
      <trkpt lat="45.96007" lon="4.71521">
        <ele>186</ele>
        <time>2018-05-18T10:41:09Z</time>
      </trkpt>
      <trkpt lat="45.96" lon="4.71517">
        <ele>187</ele>
        <time>2018-05-18T10:41:10Z</time>
      </trkpt>
      <trkpt lat="45.95998" lon="4.71512">
        <ele>186</ele>
        <time>2018-05-18T10:41:11Z</time>
      </trkpt>
      <trkpt lat="45.95992" lon="4.7151">
        <ele>186</ele>
        <time>2018-05-18T10:41:12Z</time>
      </trkpt>
      <trkpt lat="45.95984" lon="4.71509">
        <ele>186</ele>
        <time>2018-05-18T10:41:13Z</time>
      </trkpt>
      <trkpt lat="45.95977" lon="4.7151">
        <ele>185</ele>
        <time>2018-05-18T10:41:14Z</time>
      </trkpt>
      <trkpt lat="45.95969" lon="4.71513">
        <ele>185</ele>
        <time>2018-05-18T10:41:15Z</time>
      </trkpt>
      <trkpt lat="45.95962" lon="4.71515">
        <ele>184</ele>
        <time>2018-05-18T10:41:16Z</time>
      </trkpt>
      <trkpt lat="45.95954" lon="4.71517">
        <ele>184</ele>
        <time>2018-05-18T10:41:17Z</time>
      </trkpt>
      <trkpt lat="45.95946" lon="4.71517">
        <ele>184</ele>
        <time>2018-05-18T10:41:18Z</time>
      </trkpt>
      <trkpt lat="45.95938" lon="4.71518">
        <ele>184</ele>
        <time>2018-05-18T10:41:19Z</time>
      </trkpt>
      <trkpt lat="45.9593" lon="4.71518">
        <ele>184</ele>
        <time>2018-05-18T10:41:20Z</time>
      </trkpt>
      <trkpt lat="45.95922" lon="4.71519">
        <ele>184</ele>
        <time>2018-05-18T10:41:21Z</time>
      </trkpt>
      <trkpt lat="45.95914" lon="4.71519">
        <ele>183</ele>
        <time>2018-05-18T10:41:22Z</time>
      </trkpt>
      <trkpt lat="45.95906" lon="4.71519">
        <ele>183</ele>
        <time>2018-05-18T10:41:23Z</time>
      </trkpt>
      <trkpt lat="45.95898" lon="4.71518">
        <ele>183</ele>
        <time>2018-05-18T10:41:24Z</time>
      </trkpt>
      <trkpt lat="45.9589" lon="4.71518">
        <ele>182</ele>
        <time>2018-05-18T10:41:25Z</time>
      </trkpt>
      <trkpt lat="45.95882" lon="4.71518">
        <ele>182</ele>
        <time>2018-05-18T10:41:26Z</time>
      </trkpt>
      <trkpt lat="45.95875" lon="4.71518">
        <ele>182</ele>
        <time>2018-05-18T10:41:27Z</time>
      </trkpt>
      <trkpt lat="45.95868" lon="4.71518">
        <ele>182</ele>
        <time>2018-05-18T10:41:28Z</time>
      </trkpt>
      <trkpt lat="45.9586" lon="4.71517">
        <ele>182</ele>
        <time>2018-05-18T10:41:29Z</time>
      </trkpt>
      <trkpt lat="45.95852" lon="4.71517">
        <ele>182</ele>
        <time>2018-05-18T10:41:30Z</time>
      </trkpt>
      <trkpt lat="45.95844" lon="4.71517">
        <ele>182</ele>
        <time>2018-05-18T10:41:31Z</time>
      </trkpt>
      <trkpt lat="45.95837" lon="4.71517">
        <ele>183</ele>
        <time>2018-05-18T10:41:32Z</time>
      </trkpt>
      <trkpt lat="45.9583" lon="4.71516">
        <ele>182</ele>
        <time>2018-05-18T10:41:33Z</time>
      </trkpt>
      <trkpt lat="45.95823" lon="4.71515">
        <ele>182</ele>
        <time>2018-05-18T10:41:34Z</time>
      </trkpt>
      <trkpt lat="45.95814" lon="4.71516">
        <ele>182</ele>
        <time>2018-05-18T10:41:35Z</time>
      </trkpt>
      <trkpt lat="45.95807" lon="4.71516">
        <ele>181</ele>
        <time>2018-05-18T10:41:36Z</time>
      </trkpt>
      <trkpt lat="45.95799" lon="4.71515">
        <ele>181</ele>
        <time>2018-05-18T10:41:37Z</time>
      </trkpt>
      <trkpt lat="45.95791" lon="4.71514">
        <ele>181</ele>
        <time>2018-05-18T10:41:38Z</time>
      </trkpt>
      <trkpt lat="45.95783" lon="4.71513">
        <ele>181</ele>
        <time>2018-05-18T10:41:39Z</time>
      </trkpt>
      <trkpt lat="45.95775" lon="4.71513">
        <ele>181</ele>
        <time>2018-05-18T10:41:40Z</time>
      </trkpt>
      <trkpt lat="45.95767" lon="4.71512">
        <ele>181</ele>
        <time>2018-05-18T10:41:41Z</time>
      </trkpt>
      <trkpt lat="45.9576" lon="4.71512">
        <ele>181</ele>
        <time>2018-05-18T10:41:42Z</time>
      </trkpt>
      <trkpt lat="45.95752" lon="4.71511">
        <ele>181</ele>
        <time>2018-05-18T10:41:43Z</time>
      </trkpt>
      <trkpt lat="45.95744" lon="4.7151">
        <ele>181</ele>
        <time>2018-05-18T10:41:44Z</time>
      </trkpt>
      <trkpt lat="45.95737" lon="4.71509">
        <ele>181</ele>
        <time>2018-05-18T10:41:45Z</time>
      </trkpt>
      <trkpt lat="45.95729" lon="4.71509">
        <ele>181</ele>
        <time>2018-05-18T10:41:46Z</time>
      </trkpt>
      <trkpt lat="45.95721" lon="4.71509">
        <ele>180</ele>
        <time>2018-05-18T10:41:47Z</time>
      </trkpt>
      <trkpt lat="45.95713" lon="4.71508">
        <ele>180</ele>
        <time>2018-05-18T10:41:48Z</time>
      </trkpt>
      <trkpt lat="45.95705" lon="4.71507">
        <ele>180</ele>
        <time>2018-05-18T10:41:49Z</time>
      </trkpt>
      <trkpt lat="45.95697" lon="4.71507">
        <ele>180</ele>
        <time>2018-05-18T10:41:50Z</time>
      </trkpt>
      <trkpt lat="45.95689" lon="4.71506">
        <ele>181</ele>
        <time>2018-05-18T10:41:51Z</time>
      </trkpt>
      <trkpt lat="45.9568" lon="4.71506">
        <ele>181</ele>
        <time>2018-05-18T10:41:52Z</time>
      </trkpt>
      <trkpt lat="45.95672" lon="4.71506">
        <ele>181</ele>
        <time>2018-05-18T10:41:53Z</time>
      </trkpt>
      <trkpt lat="45.95663" lon="4.71506">
        <ele>181</ele>
        <time>2018-05-18T10:41:54Z</time>
      </trkpt>
      <trkpt lat="45.95655" lon="4.71505">
        <ele>181</ele>
        <time>2018-05-18T10:41:55Z</time>
      </trkpt>
      <trkpt lat="45.95647" lon="4.71503">
        <ele>180</ele>
        <time>2018-05-18T10:41:56Z</time>
      </trkpt>
      <trkpt lat="45.95638" lon="4.71503">
        <ele>180</ele>
        <time>2018-05-18T10:41:57Z</time>
      </trkpt>
      <trkpt lat="45.95629" lon="4.71502">
        <ele>180</ele>
        <time>2018-05-18T10:41:58Z</time>
      </trkpt>
      <trkpt lat="45.95621" lon="4.71502">
        <ele>180</ele>
        <time>2018-05-18T10:41:59Z</time>
      </trkpt>
      <trkpt lat="45.95612" lon="4.71501">
        <ele>179</ele>
        <time>2018-05-18T10:42:00Z</time>
      </trkpt>
      <trkpt lat="45.95603" lon="4.715">
        <ele>181</ele>
        <time>2018-05-18T10:42:01Z</time>
      </trkpt>
      <trkpt lat="45.95594" lon="4.71499">
        <ele>181</ele>
        <time>2018-05-18T10:42:02Z</time>
      </trkpt>
      <trkpt lat="45.95586" lon="4.71499">
        <ele>180</ele>
        <time>2018-05-18T10:42:03Z</time>
      </trkpt>
      <trkpt lat="45.95577" lon="4.71498">
        <ele>180</ele>
        <time>2018-05-18T10:42:04Z</time>
      </trkpt>
      <trkpt lat="45.95568" lon="4.71498">
        <ele>180</ele>
        <time>2018-05-18T10:42:05Z</time>
      </trkpt>
      <trkpt lat="45.95558" lon="4.71497">
        <ele>179</ele>
        <time>2018-05-18T10:42:06Z</time>
      </trkpt>
      <trkpt lat="45.95549" lon="4.71496">
        <ele>179</ele>
        <time>2018-05-18T10:42:07Z</time>
      </trkpt>
      <trkpt lat="45.9554" lon="4.71495">
        <ele>179</ele>
        <time>2018-05-18T10:42:08Z</time>
      </trkpt>
      <trkpt lat="45.9553" lon="4.71495">
        <ele>178</ele>
        <time>2018-05-18T10:42:09Z</time>
      </trkpt>
      <trkpt lat="45.95521" lon="4.71495">
        <ele>178</ele>
        <time>2018-05-18T10:42:10Z</time>
      </trkpt>
      <trkpt lat="45.95512" lon="4.71494">
        <ele>178</ele>
        <time>2018-05-18T10:42:11Z</time>
      </trkpt>
      <trkpt lat="45.95503" lon="4.71494">
        <ele>177</ele>
        <time>2018-05-18T10:42:12Z</time>
      </trkpt>
      <trkpt lat="45.95495" lon="4.71492">
        <ele>177</ele>
        <time>2018-05-18T10:42:13Z</time>
      </trkpt>
      <trkpt lat="45.95486" lon="4.71492">
        <ele>177</ele>
        <time>2018-05-18T10:42:14Z</time>
      </trkpt>
      <trkpt lat="45.95478" lon="4.71493">
        <ele>176</ele>
        <time>2018-05-18T10:42:15Z</time>
      </trkpt>
      <trkpt lat="45.95469" lon="4.71491">
        <ele>176</ele>
        <time>2018-05-18T10:42:16Z</time>
      </trkpt>
      <trkpt lat="45.95461" lon="4.71491">
        <ele>176</ele>
        <time>2018-05-18T10:42:17Z</time>
      </trkpt>
      <trkpt lat="45.95452" lon="4.71491">
        <ele>176</ele>
        <time>2018-05-18T10:42:18Z</time>
      </trkpt>
      <trkpt lat="45.95445" lon="4.7149">
        <ele>176</ele>
        <time>2018-05-18T10:42:19Z</time>
      </trkpt>
      <trkpt lat="45.95437" lon="4.71489">
        <ele>175</ele>
        <time>2018-05-18T10:42:20Z</time>
      </trkpt>
      <trkpt lat="45.95429" lon="4.71489">
        <ele>175</ele>
        <time>2018-05-18T10:42:21Z</time>
      </trkpt>
      <trkpt lat="45.95422" lon="4.71489">
        <ele>175</ele>
        <time>2018-05-18T10:42:22Z</time>
      </trkpt>
      <trkpt lat="45.95413" lon="4.71488">
        <ele>175</ele>
        <time>2018-05-18T10:42:23Z</time>
      </trkpt>
      <trkpt lat="45.95405" lon="4.71486">
        <ele>175</ele>
        <time>2018-05-18T10:42:24Z</time>
      </trkpt>
      <trkpt lat="45.95397" lon="4.71485">
        <ele>175</ele>
        <time>2018-05-18T10:42:25Z</time>
      </trkpt>
      <trkpt lat="45.95389" lon="4.71484">
        <ele>175</ele>
        <time>2018-05-18T10:42:26Z</time>
      </trkpt>
      <trkpt lat="45.95382" lon="4.71482">
        <ele>175</ele>
        <time>2018-05-18T10:42:27Z</time>
      </trkpt>
      <trkpt lat="45.95374" lon="4.71482">
        <ele>175</ele>
        <time>2018-05-18T10:42:28Z</time>
      </trkpt>
      <trkpt lat="45.95367" lon="4.71482">
        <ele>175</ele>
        <time>2018-05-18T10:42:29Z</time>
      </trkpt>
      <trkpt lat="45.9536" lon="4.71482">
        <ele>175</ele>
        <time>2018-05-18T10:42:30Z</time>
      </trkpt>
      <trkpt lat="45.95354" lon="4.71481">
        <ele>175</ele>
        <time>2018-05-18T10:42:31Z</time>
      </trkpt>
      <trkpt lat="45.95346" lon="4.7148">
        <ele>175</ele>
        <time>2018-05-18T10:42:32Z</time>
      </trkpt>
      <trkpt lat="45.95338" lon="4.7148">
        <ele>175</ele>
        <time>2018-05-18T10:42:33Z</time>
      </trkpt>
      <trkpt lat="45.9533" lon="4.71479">
        <ele>175</ele>
        <time>2018-05-18T10:42:34Z</time>
      </trkpt>
      <trkpt lat="45.95323" lon="4.7148">
        <ele>175</ele>
        <time>2018-05-18T10:42:35Z</time>
      </trkpt>
      <trkpt lat="45.95315" lon="4.71479">
        <ele>175</ele>
        <time>2018-05-18T10:42:36Z</time>
      </trkpt>
      <trkpt lat="45.95308" lon="4.71479">
        <ele>175</ele>
        <time>2018-05-18T10:42:37Z</time>
      </trkpt>
      <trkpt lat="45.953" lon="4.71478">
        <ele>176</ele>
        <time>2018-05-18T10:42:38Z</time>
      </trkpt>
      <trkpt lat="45.95292" lon="4.71477">
        <ele>176</ele>
        <time>2018-05-18T10:42:39Z</time>
      </trkpt>
      <trkpt lat="45.95287" lon="4.71476">
        <ele>176</ele>
        <time>2018-05-18T10:42:40Z</time>
      </trkpt>
      <trkpt lat="45.95279" lon="4.71475">
        <ele>176</ele>
        <time>2018-05-18T10:42:41Z</time>
      </trkpt>
      <trkpt lat="45.95273" lon="4.71474">
        <ele>176</ele>
        <time>2018-05-18T10:42:42Z</time>
      </trkpt>
      <trkpt lat="45.95266" lon="4.71473">
        <ele>176</ele>
        <time>2018-05-18T10:42:43Z</time>
      </trkpt>
      <trkpt lat="45.95259" lon="4.71475">
        <ele>176</ele>
        <time>2018-05-18T10:42:44Z</time>
      </trkpt>
      <trkpt lat="45.95253" lon="4.71475">
        <ele>176</ele>
        <time>2018-05-18T10:42:45Z</time>
      </trkpt>
      <trkpt lat="45.95244" lon="4.71476">
        <ele>177</ele>
        <time>2018-05-18T10:42:46Z</time>
      </trkpt>
      <trkpt lat="45.95237" lon="4.71475">
        <ele>177</ele>
        <time>2018-05-18T10:42:47Z</time>
      </trkpt>
      <trkpt lat="45.95231" lon="4.71475">
        <ele>177</ele>
        <time>2018-05-18T10:42:48Z</time>
      </trkpt>
      <trkpt lat="45.95224" lon="4.71475">
        <ele>177</ele>
        <time>2018-05-18T10:42:49Z</time>
      </trkpt>
      <trkpt lat="45.95219" lon="4.71475">
        <ele>177</ele>
        <time>2018-05-18T10:42:50Z</time>
      </trkpt>
      <trkpt lat="45.95213" lon="4.71474">
        <ele>177</ele>
        <time>2018-05-18T10:42:51Z</time>
      </trkpt>
      <trkpt lat="45.95208" lon="4.71474">
        <ele>177</ele>
        <time>2018-05-18T10:42:52Z</time>
      </trkpt>
      <trkpt lat="45.95202" lon="4.71474">
        <ele>177</ele>
        <time>2018-05-18T10:42:53Z</time>
      </trkpt>
      <trkpt lat="45.95196" lon="4.71473">
        <ele>177</ele>
        <time>2018-05-18T10:42:54Z</time>
      </trkpt>
      <trkpt lat="45.95191" lon="4.71473">
        <ele>177</ele>
        <time>2018-05-18T10:42:55Z</time>
      </trkpt>
      <trkpt lat="45.95186" lon="4.71472">
        <ele>177</ele>
        <time>2018-05-18T10:42:56Z</time>
      </trkpt>
      <trkpt lat="45.95179" lon="4.71472">
        <ele>177</ele>
        <time>2018-05-18T10:42:57Z</time>
      </trkpt>
      <trkpt lat="45.95173" lon="4.71471">
        <ele>177</ele>
        <time>2018-05-18T10:42:58Z</time>
      </trkpt>
      <trkpt lat="45.95168" lon="4.71471">
        <ele>177</ele>
        <time>2018-05-18T10:42:59Z</time>
      </trkpt>
      <trkpt lat="45.95163" lon="4.7147">
        <ele>178</ele>
        <time>2018-05-18T10:43:00Z</time>
      </trkpt>
      <trkpt lat="45.95157" lon="4.71469">
        <ele>178</ele>
        <time>2018-05-18T10:43:01Z</time>
      </trkpt>
      <trkpt lat="45.95152" lon="4.71468">
        <ele>178</ele>
        <time>2018-05-18T10:43:02Z</time>
      </trkpt>
      <trkpt lat="45.95147" lon="4.71467">
        <ele>178</ele>
        <time>2018-05-18T10:43:03Z</time>
      </trkpt>
      <trkpt lat="45.95141" lon="4.71466">
        <ele>178</ele>
        <time>2018-05-18T10:43:04Z</time>
      </trkpt>
      <trkpt lat="45.95137" lon="4.71468">
        <ele>178</ele>
        <time>2018-05-18T10:43:05Z</time>
      </trkpt>
      <trkpt lat="45.95132" lon="4.71468">
        <ele>178</ele>
        <time>2018-05-18T10:43:06Z</time>
      </trkpt>
      <trkpt lat="45.95126" lon="4.71467">
        <ele>178</ele>
        <time>2018-05-18T10:43:07Z</time>
      </trkpt>
      <trkpt lat="45.95121" lon="4.71467">
        <ele>179</ele>
        <time>2018-05-18T10:43:08Z</time>
      </trkpt>
      <trkpt lat="45.95116" lon="4.71467">
        <ele>179</ele>
        <time>2018-05-18T10:43:09Z</time>
      </trkpt>
      <trkpt lat="45.95111" lon="4.71467">
        <ele>179</ele>
        <time>2018-05-18T10:43:10Z</time>
      </trkpt>
      <trkpt lat="45.95107" lon="4.71467">
        <ele>179</ele>
        <time>2018-05-18T10:43:11Z</time>
      </trkpt>
      <trkpt lat="45.95102" lon="4.71467">
        <ele>179</ele>
        <time>2018-05-18T10:43:12Z</time>
      </trkpt>
      <trkpt lat="45.95093" lon="4.71466">
        <ele>179</ele>
        <time>2018-05-18T10:43:14Z</time>
      </trkpt>
      <trkpt lat="45.95088" lon="4.71466">
        <ele>179</ele>
        <time>2018-05-18T10:43:15Z</time>
      </trkpt>
      <trkpt lat="45.9508" lon="4.71465">
        <ele>181</ele>
        <time>2018-05-18T10:43:17Z</time>
      </trkpt>
      <trkpt lat="45.95077" lon="4.71464">
        <ele>181</ele>
        <time>2018-05-18T10:43:18Z</time>
      </trkpt>
      <trkpt lat="45.95068" lon="4.71463">
        <ele>181</ele>
        <time>2018-05-18T10:43:20Z</time>
      </trkpt>
      <trkpt lat="45.95063" lon="4.71462">
        <ele>181</ele>
        <time>2018-05-18T10:43:21Z</time>
      </trkpt>
      <trkpt lat="45.95056" lon="4.71462">
        <ele>181</ele>
        <time>2018-05-18T10:43:23Z</time>
      </trkpt>
      <trkpt lat="45.95051" lon="4.71462">
        <ele>181</ele>
        <time>2018-05-18T10:43:24Z</time>
      </trkpt>
      <trkpt lat="45.95044" lon="4.71462">
        <ele>182</ele>
        <time>2018-05-18T10:43:26Z</time>
      </trkpt>
      <trkpt lat="45.95038" lon="4.71461">
        <ele>182</ele>
        <time>2018-05-18T10:43:27Z</time>
      </trkpt>
      <trkpt lat="45.95033" lon="4.71461">
        <ele>182</ele>
        <time>2018-05-18T10:43:28Z</time>
      </trkpt>
      <trkpt lat="45.95029" lon="4.7146">
        <ele>182</ele>
        <time>2018-05-18T10:43:29Z</time>
      </trkpt>
      <trkpt lat="45.9502" lon="4.7146">
        <ele>182</ele>
        <time>2018-05-18T10:43:31Z</time>
      </trkpt>
      <trkpt lat="45.95016" lon="4.7146">
        <ele>182</ele>
        <time>2018-05-18T10:43:32Z</time>
      </trkpt>
      <trkpt lat="45.9501" lon="4.71458">
        <ele>182</ele>
        <time>2018-05-18T10:43:34Z</time>
      </trkpt>
      <trkpt lat="45.95006" lon="4.71455">
        <ele>183</ele>
        <time>2018-05-18T10:43:35Z</time>
      </trkpt>
      <trkpt lat="45.95" lon="4.71453">
        <ele>183</ele>
        <time>2018-05-18T10:43:37Z</time>
      </trkpt>
      <trkpt lat="45.94996" lon="4.71449">
        <ele>184</ele>
        <time>2018-05-18T10:43:38Z</time>
      </trkpt>
      <trkpt lat="45.9499" lon="4.71442">
        <ele>185</ele>
        <time>2018-05-18T10:43:40Z</time>
      </trkpt>
      <trkpt lat="45.94986" lon="4.71437">
        <ele>185</ele>
        <time>2018-05-18T10:43:41Z</time>
      </trkpt>
      <trkpt lat="45.94983" lon="4.71434">
        <ele>185</ele>
        <time>2018-05-18T10:43:42Z</time>
      </trkpt>
      <trkpt lat="45.94978" lon="4.71431">
        <ele>185</ele>
        <time>2018-05-18T10:43:43Z</time>
      </trkpt>
      <trkpt lat="45.94972" lon="4.7143">
        <ele>185</ele>
        <time>2018-05-18T10:43:44Z</time>
      </trkpt>
      <trkpt lat="45.94967" lon="4.71433">
        <ele>185</ele>
        <time>2018-05-18T10:43:45Z</time>
      </trkpt>
      <trkpt lat="45.94963" lon="4.71435">
        <ele>184</ele>
        <time>2018-05-18T10:43:46Z</time>
      </trkpt>
      <trkpt lat="45.94957" lon="4.71439">
        <ele>184</ele>
        <time>2018-05-18T10:43:47Z</time>
      </trkpt>
      <trkpt lat="45.94951" lon="4.71443">
        <ele>184</ele>
        <time>2018-05-18T10:43:48Z</time>
      </trkpt>
      <trkpt lat="45.94947" lon="4.71447">
        <ele>184</ele>
        <time>2018-05-18T10:43:49Z</time>
      </trkpt>
      <trkpt lat="45.94941" lon="4.71451">
        <ele>184</ele>
        <time>2018-05-18T10:43:50Z</time>
      </trkpt>
      <trkpt lat="45.94936" lon="4.71453">
        <ele>184</ele>
        <time>2018-05-18T10:43:51Z</time>
      </trkpt>
      <trkpt lat="45.9493" lon="4.71453">
        <ele>184</ele>
        <time>2018-05-18T10:43:52Z</time>
      </trkpt>
      <trkpt lat="45.94926" lon="4.71454">
        <ele>184</ele>
        <time>2018-05-18T10:43:53Z</time>
      </trkpt>
      <trkpt lat="45.9492" lon="4.71454">
        <ele>184</ele>
        <time>2018-05-18T10:43:54Z</time>
      </trkpt>
      <trkpt lat="45.94914" lon="4.71454">
        <ele>184</ele>
        <time>2018-05-18T10:43:55Z</time>
      </trkpt>
      <trkpt lat="45.94908" lon="4.71453">
        <ele>184</ele>
        <time>2018-05-18T10:43:56Z</time>
      </trkpt>
      <trkpt lat="45.94903" lon="4.71452">
        <ele>184</ele>
        <time>2018-05-18T10:43:57Z</time>
      </trkpt>
      <trkpt lat="45.94897" lon="4.71453">
        <ele>184</ele>
        <time>2018-05-18T10:43:58Z</time>
      </trkpt>
      <trkpt lat="45.94893" lon="4.71451">
        <ele>184</ele>
        <time>2018-05-18T10:43:59Z</time>
      </trkpt>
      <trkpt lat="45.94886" lon="4.71451">
        <ele>184</ele>
        <time>2018-05-18T10:44:00Z</time>
      </trkpt>
      <trkpt lat="45.9488" lon="4.7145">
        <ele>184</ele>
        <time>2018-05-18T10:44:01Z</time>
      </trkpt>
      <trkpt lat="45.94873" lon="4.7145">
        <ele>184</ele>
        <time>2018-05-18T10:44:02Z</time>
      </trkpt>
      <trkpt lat="45.94867" lon="4.7145">
        <ele>184</ele>
        <time>2018-05-18T10:44:03Z</time>
      </trkpt>
      <trkpt lat="45.94861" lon="4.71451">
        <ele>184</ele>
        <time>2018-05-18T10:44:04Z</time>
      </trkpt>
      <trkpt lat="45.94855" lon="4.71451">
        <ele>184</ele>
        <time>2018-05-18T10:44:05Z</time>
      </trkpt>
      <trkpt lat="45.94849" lon="4.71451">
        <ele>184</ele>
        <time>2018-05-18T10:44:06Z</time>
      </trkpt>
      <trkpt lat="45.94844" lon="4.7145">
        <ele>184</ele>
        <time>2018-05-18T10:44:07Z</time>
      </trkpt>
      <trkpt lat="45.94837" lon="4.71449">
        <ele>184</ele>
        <time>2018-05-18T10:44:08Z</time>
      </trkpt>
      <trkpt lat="45.94832" lon="4.71449">
        <ele>184</ele>
        <time>2018-05-18T10:44:09Z</time>
      </trkpt>
      <trkpt lat="45.94827" lon="4.7145">
        <ele>184</ele>
        <time>2018-05-18T10:44:10Z</time>
      </trkpt>
      <trkpt lat="45.9482" lon="4.7145">
        <ele>184</ele>
        <time>2018-05-18T10:44:11Z</time>
      </trkpt>
      <trkpt lat="45.94813" lon="4.71449">
        <ele>183</ele>
        <time>2018-05-18T10:44:12Z</time>
      </trkpt>
      <trkpt lat="45.94807" lon="4.71448">
        <ele>183</ele>
        <time>2018-05-18T10:44:13Z</time>
      </trkpt>
      <trkpt lat="45.94801" lon="4.71447">
        <ele>183</ele>
        <time>2018-05-18T10:44:14Z</time>
      </trkpt>
      <trkpt lat="45.94796" lon="4.71446">
        <ele>183</ele>
        <time>2018-05-18T10:44:15Z</time>
      </trkpt>
      <trkpt lat="45.94791" lon="4.71446">
        <ele>183</ele>
        <time>2018-05-18T10:44:16Z</time>
      </trkpt>
      <trkpt lat="45.94786" lon="4.71445">
        <ele>183</ele>
        <time>2018-05-18T10:44:17Z</time>
      </trkpt>
      <trkpt lat="45.9478" lon="4.71445">
        <ele>183</ele>
        <time>2018-05-18T10:44:18Z</time>
      </trkpt>
      <trkpt lat="45.94775" lon="4.71444">
        <ele>184</ele>
        <time>2018-05-18T10:44:19Z</time>
      </trkpt>
      <trkpt lat="45.9477" lon="4.71443">
        <ele>184</ele>
        <time>2018-05-18T10:44:20Z</time>
      </trkpt>
      <trkpt lat="45.94765" lon="4.71444">
        <ele>184</ele>
        <time>2018-05-18T10:44:21Z</time>
      </trkpt>
      <trkpt lat="45.9476" lon="4.71445">
        <ele>184</ele>
        <time>2018-05-18T10:44:22Z</time>
      </trkpt>
      <trkpt lat="45.94754" lon="4.71443">
        <ele>184</ele>
        <time>2018-05-18T10:44:23Z</time>
      </trkpt>
      <trkpt lat="45.94748" lon="4.71444">
        <ele>183</ele>
        <time>2018-05-18T10:44:24Z</time>
      </trkpt>
      <trkpt lat="45.94744" lon="4.71444">
        <ele>183</ele>
        <time>2018-05-18T10:44:25Z</time>
      </trkpt>
      <trkpt lat="45.94739" lon="4.71443">
        <ele>183</ele>
        <time>2018-05-18T10:44:26Z</time>
      </trkpt>
      <trkpt lat="45.94733" lon="4.71442">
        <ele>183</ele>
        <time>2018-05-18T10:44:27Z</time>
      </trkpt>
      <trkpt lat="45.94726" lon="4.71442">
        <ele>183</ele>
        <time>2018-05-18T10:44:28Z</time>
      </trkpt>
      <trkpt lat="45.9472" lon="4.71441">
        <ele>182</ele>
        <time>2018-05-18T10:44:29Z</time>
      </trkpt>
      <trkpt lat="45.94715" lon="4.7144">
        <ele>182</ele>
        <time>2018-05-18T10:44:30Z</time>
      </trkpt>
      <trkpt lat="45.94708" lon="4.71441">
        <ele>182</ele>
        <time>2018-05-18T10:44:31Z</time>
      </trkpt>
      <trkpt lat="45.94701" lon="4.7144">
        <ele>182</ele>
        <time>2018-05-18T10:44:32Z</time>
      </trkpt>
      <trkpt lat="45.94696" lon="4.71439">
        <ele>182</ele>
        <time>2018-05-18T10:44:33Z</time>
      </trkpt>
      <trkpt lat="45.9469" lon="4.7144">
        <ele>182</ele>
        <time>2018-05-18T10:44:34Z</time>
      </trkpt>
      <trkpt lat="45.94684" lon="4.7144">
        <ele>182</ele>
        <time>2018-05-18T10:44:35Z</time>
      </trkpt>
      <trkpt lat="45.94677" lon="4.71439">
        <ele>182</ele>
        <time>2018-05-18T10:44:36Z</time>
      </trkpt>
      <trkpt lat="45.9467" lon="4.71439">
        <ele>182</ele>
        <time>2018-05-18T10:44:37Z</time>
      </trkpt>
      <trkpt lat="45.94663" lon="4.71438">
        <ele>182</ele>
        <time>2018-05-18T10:44:38Z</time>
      </trkpt>
      <trkpt lat="45.94657" lon="4.71438">
        <ele>182</ele>
        <time>2018-05-18T10:44:39Z</time>
      </trkpt>
      <trkpt lat="45.94652" lon="4.71436">
        <ele>182</ele>
        <time>2018-05-18T10:44:40Z</time>
      </trkpt>
      <trkpt lat="45.94647" lon="4.71438">
        <ele>182</ele>
        <time>2018-05-18T10:44:41Z</time>
      </trkpt>
      <trkpt lat="45.94641" lon="4.71438">
        <ele>181</ele>
        <time>2018-05-18T10:44:42Z</time>
      </trkpt>
      <trkpt lat="45.94635" lon="4.71436">
        <ele>182</ele>
        <time>2018-05-18T10:44:43Z</time>
      </trkpt>
      <trkpt lat="45.94628" lon="4.71435">
        <ele>182</ele>
        <time>2018-05-18T10:44:44Z</time>
      </trkpt>
      <trkpt lat="45.94623" lon="4.71436">
        <ele>182</ele>
        <time>2018-05-18T10:44:45Z</time>
      </trkpt>
      <trkpt lat="45.94617" lon="4.71435">
        <ele>182</ele>
        <time>2018-05-18T10:44:46Z</time>
      </trkpt>
      <trkpt lat="45.94611" lon="4.71435">
        <ele>182</ele>
        <time>2018-05-18T10:44:47Z</time>
      </trkpt>
      <trkpt lat="45.94604" lon="4.71434">
        <ele>182</ele>
        <time>2018-05-18T10:44:48Z</time>
      </trkpt>
      <trkpt lat="45.94598" lon="4.71434">
        <ele>182</ele>
        <time>2018-05-18T10:44:49Z</time>
      </trkpt>
      <trkpt lat="45.94592" lon="4.71434">
        <ele>182</ele>
        <time>2018-05-18T10:44:50Z</time>
      </trkpt>
      <trkpt lat="45.94586" lon="4.71434">
        <ele>183</ele>
        <time>2018-05-18T10:44:51Z</time>
      </trkpt>
      <trkpt lat="45.9458" lon="4.71434">
        <ele>182</ele>
        <time>2018-05-18T10:44:52Z</time>
      </trkpt>
      <trkpt lat="45.94573" lon="4.71434">
        <ele>182</ele>
        <time>2018-05-18T10:44:53Z</time>
      </trkpt>
      <trkpt lat="45.94567" lon="4.71434">
        <ele>182</ele>
        <time>2018-05-18T10:44:54Z</time>
      </trkpt>
      <trkpt lat="45.9456" lon="4.71436">
        <ele>181</ele>
        <time>2018-05-18T10:44:55Z</time>
      </trkpt>
      <trkpt lat="45.94553" lon="4.71438">
        <ele>181</ele>
        <time>2018-05-18T10:44:56Z</time>
      </trkpt>
      <trkpt lat="45.94546" lon="4.71441">
        <ele>181</ele>
        <time>2018-05-18T10:44:57Z</time>
      </trkpt>
      <trkpt lat="45.94539" lon="4.71442">
        <ele>181</ele>
        <time>2018-05-18T10:44:58Z</time>
      </trkpt>
      <trkpt lat="45.9453" lon="4.71446">
        <ele>180</ele>
        <time>2018-05-18T10:44:59Z</time>
      </trkpt>
      <trkpt lat="45.94524" lon="4.71448">
        <ele>180</ele>
        <time>2018-05-18T10:45:00Z</time>
      </trkpt>
      <trkpt lat="45.94516" lon="4.71451">
        <ele>180</ele>
        <time>2018-05-18T10:45:01Z</time>
      </trkpt>
      <trkpt lat="45.94509" lon="4.71455">
        <ele>180</ele>
        <time>2018-05-18T10:45:02Z</time>
      </trkpt>
      <trkpt lat="45.94502" lon="4.71458">
        <ele>180</ele>
        <time>2018-05-18T10:45:03Z</time>
      </trkpt>
      <trkpt lat="45.94495" lon="4.71462">
        <ele>179</ele>
        <time>2018-05-18T10:45:04Z</time>
      </trkpt>
      <trkpt lat="45.94488" lon="4.71465">
        <ele>179</ele>
        <time>2018-05-18T10:45:05Z</time>
      </trkpt>
      <trkpt lat="45.94481" lon="4.71466">
        <ele>179</ele>
        <time>2018-05-18T10:45:06Z</time>
      </trkpt>
      <trkpt lat="45.94473" lon="4.71466">
        <ele>179</ele>
        <time>2018-05-18T10:45:07Z</time>
      </trkpt>
      <trkpt lat="45.94465" lon="4.71471">
        <ele>179</ele>
        <time>2018-05-18T10:45:08Z</time>
      </trkpt>
      <trkpt lat="45.94457" lon="4.71475">
        <ele>179</ele>
        <time>2018-05-18T10:45:09Z</time>
      </trkpt>
      <trkpt lat="45.94449" lon="4.71479">
        <ele>179</ele>
        <time>2018-05-18T10:45:10Z</time>
      </trkpt>
      <trkpt lat="45.94441" lon="4.71481">
        <ele>179</ele>
        <time>2018-05-18T10:45:11Z</time>
      </trkpt>
      <trkpt lat="45.94434" lon="4.71483">
        <ele>179</ele>
        <time>2018-05-18T10:45:12Z</time>
      </trkpt>
      <trkpt lat="45.94427" lon="4.71485">
        <ele>178</ele>
        <time>2018-05-18T10:45:13Z</time>
      </trkpt>
      <trkpt lat="45.94419" lon="4.71488">
        <ele>178</ele>
        <time>2018-05-18T10:45:14Z</time>
      </trkpt>
      <trkpt lat="45.94412" lon="4.7149">
        <ele>178</ele>
        <time>2018-05-18T10:45:15Z</time>
      </trkpt>
      <trkpt lat="45.94405" lon="4.71492">
        <ele>178</ele>
        <time>2018-05-18T10:45:16Z</time>
      </trkpt>
      <trkpt lat="45.94398" lon="4.71495">
        <ele>178</ele>
        <time>2018-05-18T10:45:17Z</time>
      </trkpt>
      <trkpt lat="45.94391" lon="4.71498">
        <ele>177</ele>
        <time>2018-05-18T10:45:18Z</time>
      </trkpt>
      <trkpt lat="45.94384" lon="4.715">
        <ele>177</ele>
        <time>2018-05-18T10:45:19Z</time>
      </trkpt>
      <trkpt lat="45.94376" lon="4.71504">
        <ele>177</ele>
        <time>2018-05-18T10:45:20Z</time>
      </trkpt>
      <trkpt lat="45.94368" lon="4.71507">
        <ele>176</ele>
        <time>2018-05-18T10:45:21Z</time>
      </trkpt>
      <trkpt lat="45.94361" lon="4.71511">
        <ele>176</ele>
        <time>2018-05-18T10:45:22Z</time>
      </trkpt>
      <trkpt lat="45.94353" lon="4.71517">
        <ele>176</ele>
        <time>2018-05-18T10:45:23Z</time>
      </trkpt>
      <trkpt lat="45.94345" lon="4.71519">
        <ele>176</ele>
        <time>2018-05-18T10:45:24Z</time>
      </trkpt>
      <trkpt lat="45.94337" lon="4.71522">
        <ele>176</ele>
        <time>2018-05-18T10:45:25Z</time>
      </trkpt>
      <trkpt lat="45.94329" lon="4.71525">
        <ele>176</ele>
        <time>2018-05-18T10:45:26Z</time>
      </trkpt>
      <trkpt lat="45.94321" lon="4.71528">
        <ele>176</ele>
        <time>2018-05-18T10:45:27Z</time>
      </trkpt>
      <trkpt lat="45.94313" lon="4.7153">
        <ele>175</ele>
        <time>2018-05-18T10:45:28Z</time>
      </trkpt>
      <trkpt lat="45.94305" lon="4.71533">
        <ele>175</ele>
        <time>2018-05-18T10:45:29Z</time>
      </trkpt>
      <trkpt lat="45.94298" lon="4.71535">
        <ele>175</ele>
        <time>2018-05-18T10:45:30Z</time>
      </trkpt>
      <trkpt lat="45.9429" lon="4.71538">
        <ele>175</ele>
        <time>2018-05-18T10:45:31Z</time>
      </trkpt>
      <trkpt lat="45.94284" lon="4.71541">
        <ele>175</ele>
        <time>2018-05-18T10:45:32Z</time>
      </trkpt>
      <trkpt lat="45.94276" lon="4.71543">
        <ele>175</ele>
        <time>2018-05-18T10:45:33Z</time>
      </trkpt>
      <trkpt lat="45.94268" lon="4.71545">
        <ele>175</ele>
        <time>2018-05-18T10:45:34Z</time>
      </trkpt>
      <trkpt lat="45.94261" lon="4.71548">
        <ele>175</ele>
        <time>2018-05-18T10:45:35Z</time>
      </trkpt>
      <trkpt lat="45.94254" lon="4.7155">
        <ele>175</ele>
        <time>2018-05-18T10:45:36Z</time>
      </trkpt>
      <trkpt lat="45.94246" lon="4.71553">
        <ele>174</ele>
        <time>2018-05-18T10:45:37Z</time>
      </trkpt>
      <trkpt lat="45.9424" lon="4.71556">
        <ele>174</ele>
        <time>2018-05-18T10:45:38Z</time>
      </trkpt>
      <trkpt lat="45.94234" lon="4.71559">
        <ele>174</ele>
        <time>2018-05-18T10:45:39Z</time>
      </trkpt>
      <trkpt lat="45.94227" lon="4.71562">
        <ele>174</ele>
        <time>2018-05-18T10:45:40Z</time>
      </trkpt>
      <trkpt lat="45.9422" lon="4.71565">
        <ele>174</ele>
        <time>2018-05-18T10:45:41Z</time>
      </trkpt>
      <trkpt lat="45.94214" lon="4.71567">
        <ele>174</ele>
        <time>2018-05-18T10:45:42Z</time>
      </trkpt>
      <trkpt lat="45.94209" lon="4.71568">
        <ele>174</ele>
        <time>2018-05-18T10:45:43Z</time>
      </trkpt>
      <trkpt lat="45.94202" lon="4.71571">
        <ele>174</ele>
        <time>2018-05-18T10:45:44Z</time>
      </trkpt>
      <trkpt lat="45.94196" lon="4.71572">
        <ele>174</ele>
        <time>2018-05-18T10:45:45Z</time>
      </trkpt>
      <trkpt lat="45.9419" lon="4.71575">
        <ele>174</ele>
        <time>2018-05-18T10:45:46Z</time>
      </trkpt>
      <trkpt lat="45.94183" lon="4.71578">
        <ele>174</ele>
        <time>2018-05-18T10:45:47Z</time>
      </trkpt>
      <trkpt lat="45.94176" lon="4.71581">
        <ele>174</ele>
        <time>2018-05-18T10:45:48Z</time>
      </trkpt>
      <trkpt lat="45.94169" lon="4.71583">
        <ele>174</ele>
        <time>2018-05-18T10:45:49Z</time>
      </trkpt>
      <trkpt lat="45.94163" lon="4.71587">
        <ele>174</ele>
        <time>2018-05-18T10:45:50Z</time>
      </trkpt>
      <trkpt lat="45.94156" lon="4.7159">
        <ele>173</ele>
        <time>2018-05-18T10:45:51Z</time>
      </trkpt>
      <trkpt lat="45.94149" lon="4.71592">
        <ele>173</ele>
        <time>2018-05-18T10:45:52Z</time>
      </trkpt>
      <trkpt lat="45.94142" lon="4.71595">
        <ele>173</ele>
        <time>2018-05-18T10:45:53Z</time>
      </trkpt>
      <trkpt lat="45.94135" lon="4.71598">
        <ele>173</ele>
        <time>2018-05-18T10:45:54Z</time>
      </trkpt>
      <trkpt lat="45.94128" lon="4.71601">
        <ele>173</ele>
        <time>2018-05-18T10:45:55Z</time>
      </trkpt>
      <trkpt lat="45.94122" lon="4.71604">
        <ele>173</ele>
        <time>2018-05-18T10:45:56Z</time>
      </trkpt>
      <trkpt lat="45.94115" lon="4.71606">
        <ele>173</ele>
        <time>2018-05-18T10:45:57Z</time>
      </trkpt>
      <trkpt lat="45.94108" lon="4.71608">
        <ele>173</ele>
        <time>2018-05-18T10:45:58Z</time>
      </trkpt>
      <trkpt lat="45.94101" lon="4.7161">
        <ele>173</ele>
        <time>2018-05-18T10:45:59Z</time>
      </trkpt>
      <trkpt lat="45.94094" lon="4.71612">
        <ele>173</ele>
        <time>2018-05-18T10:46:00Z</time>
      </trkpt>
      <trkpt lat="45.94087" lon="4.71614">
        <ele>173</ele>
        <time>2018-05-18T10:46:01Z</time>
      </trkpt>
      <trkpt lat="45.94081" lon="4.71617">
        <ele>174</ele>
        <time>2018-05-18T10:46:02Z</time>
      </trkpt>
      <trkpt lat="45.94073" lon="4.71619">
        <ele>174</ele>
        <time>2018-05-18T10:46:03Z</time>
      </trkpt>
      <trkpt lat="45.94065" lon="4.71621">
        <ele>174</ele>
        <time>2018-05-18T10:46:04Z</time>
      </trkpt>
      <trkpt lat="45.94059" lon="4.71624">
        <ele>174</ele>
        <time>2018-05-18T10:46:05Z</time>
      </trkpt>
      <trkpt lat="45.94051" lon="4.71627">
        <ele>175</ele>
        <time>2018-05-18T10:46:06Z</time>
      </trkpt>
      <trkpt lat="45.94045" lon="4.71631">
        <ele>175</ele>
        <time>2018-05-18T10:46:07Z</time>
      </trkpt>
      <trkpt lat="45.94038" lon="4.71633">
        <ele>175</ele>
        <time>2018-05-18T10:46:08Z</time>
      </trkpt>
      <trkpt lat="45.94032" lon="4.71636">
        <ele>175</ele>
        <time>2018-05-18T10:46:09Z</time>
      </trkpt>
      <trkpt lat="45.94026" lon="4.71639">
        <ele>175</ele>
        <time>2018-05-18T10:46:10Z</time>
      </trkpt>
      <trkpt lat="45.94019" lon="4.71642">
        <ele>175</ele>
        <time>2018-05-18T10:46:11Z</time>
      </trkpt>
      <trkpt lat="45.94013" lon="4.71645">
        <ele>176</ele>
        <time>2018-05-18T10:46:12Z</time>
      </trkpt>
      <trkpt lat="45.94009" lon="4.7165">
        <ele>176</ele>
        <time>2018-05-18T10:46:13Z</time>
      </trkpt>
      <trkpt lat="45.94003" lon="4.71652">
        <ele>176</ele>
        <time>2018-05-18T10:46:14Z</time>
      </trkpt>
      <trkpt lat="45.93998" lon="4.71655">
        <ele>177</ele>
        <time>2018-05-18T10:46:15Z</time>
      </trkpt>
      <trkpt lat="45.93989" lon="4.71655">
        <ele>177</ele>
        <time>2018-05-18T10:46:17Z</time>
      </trkpt>
      <trkpt lat="45.93983" lon="4.71658">
        <ele>177</ele>
        <time>2018-05-18T10:46:18Z</time>
      </trkpt>
      <trkpt lat="45.93976" lon="4.71662">
        <ele>177</ele>
        <time>2018-05-18T10:46:19Z</time>
      </trkpt>
      <trkpt lat="45.9397" lon="4.71663">
        <ele>177</ele>
        <time>2018-05-18T10:46:20Z</time>
      </trkpt>
      <trkpt lat="45.93965" lon="4.71665">
        <ele>177</ele>
        <time>2018-05-18T10:46:21Z</time>
      </trkpt>
      <trkpt lat="45.9396" lon="4.71668">
        <ele>175</ele>
        <time>2018-05-18T10:46:22Z</time>
      </trkpt>
      <trkpt lat="45.93954" lon="4.71671">
        <ele>175</ele>
        <time>2018-05-18T10:46:23Z</time>
      </trkpt>
      <trkpt lat="45.93947" lon="4.71674">
        <ele>175</ele>
        <time>2018-05-18T10:46:24Z</time>
      </trkpt>
      <trkpt lat="45.9394" lon="4.71675">
        <ele>175</ele>
        <time>2018-05-18T10:46:25Z</time>
      </trkpt>
      <trkpt lat="45.93934" lon="4.71679">
        <ele>175</ele>
        <time>2018-05-18T10:46:26Z</time>
      </trkpt>
      <trkpt lat="45.93928" lon="4.71682">
        <ele>175</ele>
        <time>2018-05-18T10:46:27Z</time>
      </trkpt>
      <trkpt lat="45.93922" lon="4.71684">
        <ele>175</ele>
        <time>2018-05-18T10:46:28Z</time>
      </trkpt>
      <trkpt lat="45.93916" lon="4.71686">
        <ele>174</ele>
        <time>2018-05-18T10:46:29Z</time>
      </trkpt>
      <trkpt lat="45.93911" lon="4.71688">
        <ele>174</ele>
        <time>2018-05-18T10:46:30Z</time>
      </trkpt>
      <trkpt lat="45.93905" lon="4.71688">
        <ele>174</ele>
        <time>2018-05-18T10:46:31Z</time>
      </trkpt>
      <trkpt lat="45.93899" lon="4.71691">
        <ele>174</ele>
        <time>2018-05-18T10:46:32Z</time>
      </trkpt>
      <trkpt lat="45.93893" lon="4.71693">
        <ele>174</ele>
        <time>2018-05-18T10:46:33Z</time>
      </trkpt>
      <trkpt lat="45.93887" lon="4.71696">
        <ele>174</ele>
        <time>2018-05-18T10:46:34Z</time>
      </trkpt>
      <trkpt lat="45.93881" lon="4.71698">
        <ele>174</ele>
        <time>2018-05-18T10:46:35Z</time>
      </trkpt>
      <trkpt lat="45.93875" lon="4.71701">
        <ele>174</ele>
        <time>2018-05-18T10:46:36Z</time>
      </trkpt>
      <trkpt lat="45.93868" lon="4.71703">
        <ele>174</ele>
        <time>2018-05-18T10:46:37Z</time>
      </trkpt>
      <trkpt lat="45.93862" lon="4.71707">
        <ele>174</ele>
        <time>2018-05-18T10:46:38Z</time>
      </trkpt>
      <trkpt lat="45.93857" lon="4.71708">
        <ele>174</ele>
        <time>2018-05-18T10:46:39Z</time>
      </trkpt>
      <trkpt lat="45.93851" lon="4.71711">
        <ele>174</ele>
        <time>2018-05-18T10:46:40Z</time>
      </trkpt>
      <trkpt lat="45.93844" lon="4.71714">
        <ele>174</ele>
        <time>2018-05-18T10:46:41Z</time>
      </trkpt>
      <trkpt lat="45.93838" lon="4.71716">
        <ele>175</ele>
        <time>2018-05-18T10:46:42Z</time>
      </trkpt>
      <trkpt lat="45.93832" lon="4.71717">
        <ele>175</ele>
        <time>2018-05-18T10:46:43Z</time>
      </trkpt>
      <trkpt lat="45.93825" lon="4.71719">
        <ele>175</ele>
        <time>2018-05-18T10:46:44Z</time>
      </trkpt>
      <trkpt lat="45.93819" lon="4.71721">
        <ele>175</ele>
        <time>2018-05-18T10:46:45Z</time>
      </trkpt>
      <trkpt lat="45.93813" lon="4.71723">
        <ele>175</ele>
        <time>2018-05-18T10:46:46Z</time>
      </trkpt>
      <trkpt lat="45.93807" lon="4.71725">
        <ele>175</ele>
        <time>2018-05-18T10:46:47Z</time>
      </trkpt>
      <trkpt lat="45.938" lon="4.71728">
        <ele>175</ele>
        <time>2018-05-18T10:46:48Z</time>
      </trkpt>
      <trkpt lat="45.93794" lon="4.71729">
        <ele>175</ele>
        <time>2018-05-18T10:46:49Z</time>
      </trkpt>
      <trkpt lat="45.93787" lon="4.71732">
        <ele>175</ele>
        <time>2018-05-18T10:46:50Z</time>
      </trkpt>
      <trkpt lat="45.9378" lon="4.71738">
        <ele>175</ele>
        <time>2018-05-18T10:46:51Z</time>
      </trkpt>
      <trkpt lat="45.93773" lon="4.7174">
        <ele>175</ele>
        <time>2018-05-18T10:46:52Z</time>
      </trkpt>
      <trkpt lat="45.93767" lon="4.71744">
        <ele>175</ele>
        <time>2018-05-18T10:46:53Z</time>
      </trkpt>
      <trkpt lat="45.9376" lon="4.71748">
        <ele>175</ele>
        <time>2018-05-18T10:46:54Z</time>
      </trkpt>
      <trkpt lat="45.93755" lon="4.71749">
        <ele>175</ele>
        <time>2018-05-18T10:46:55Z</time>
      </trkpt>
      <trkpt lat="45.9375" lon="4.71751">
        <ele>175</ele>
        <time>2018-05-18T10:46:56Z</time>
      </trkpt>
      <trkpt lat="45.93743" lon="4.71754">
        <ele>175</ele>
        <time>2018-05-18T10:46:57Z</time>
      </trkpt>
      <trkpt lat="45.93735" lon="4.71757">
        <ele>176</ele>
        <time>2018-05-18T10:46:58Z</time>
      </trkpt>
      <trkpt lat="45.93729" lon="4.71761">
        <ele>176</ele>
        <time>2018-05-18T10:46:59Z</time>
      </trkpt>
      <trkpt lat="45.93723" lon="4.71766">
        <ele>176</ele>
        <time>2018-05-18T10:47:00Z</time>
      </trkpt>
      <trkpt lat="45.93718" lon="4.71773">
        <ele>176</ele>
        <time>2018-05-18T10:47:01Z</time>
      </trkpt>
      <trkpt lat="45.93715" lon="4.71782">
        <ele>176</ele>
        <time>2018-05-18T10:47:02Z</time>
      </trkpt>
      <trkpt lat="45.93712" lon="4.71791">
        <ele>176</ele>
        <time>2018-05-18T10:47:03Z</time>
      </trkpt>
      <trkpt lat="45.93711" lon="4.718">
        <ele>176</ele>
        <time>2018-05-18T10:47:04Z</time>
      </trkpt>
      <trkpt lat="45.93708" lon="4.7181">
        <ele>176</ele>
        <time>2018-05-18T10:47:05Z</time>
      </trkpt>
      <trkpt lat="45.93705" lon="4.71817">
        <ele>176</ele>
        <time>2018-05-18T10:47:06Z</time>
      </trkpt>
      <trkpt lat="45.93702" lon="4.71824">
        <ele>176</ele>
        <time>2018-05-18T10:47:07Z</time>
      </trkpt>
      <trkpt lat="45.93699" lon="4.71832">
        <ele>176</ele>
        <time>2018-05-18T10:47:08Z</time>
      </trkpt>
      <trkpt lat="45.93696" lon="4.7184">
        <ele>175</ele>
        <time>2018-05-18T10:47:09Z</time>
      </trkpt>
      <trkpt lat="45.93693" lon="4.71849">
        <ele>175</ele>
        <time>2018-05-18T10:47:10Z</time>
      </trkpt>
      <trkpt lat="45.93689" lon="4.71857">
        <ele>175</ele>
        <time>2018-05-18T10:47:11Z</time>
      </trkpt>
      <trkpt lat="45.93687" lon="4.71866">
        <ele>175</ele>
        <time>2018-05-18T10:47:12Z</time>
      </trkpt>
      <trkpt lat="45.93683" lon="4.71874">
        <ele>175</ele>
        <time>2018-05-18T10:47:13Z</time>
      </trkpt>
      <trkpt lat="45.93679" lon="4.71884">
        <ele>175</ele>
        <time>2018-05-18T10:47:14Z</time>
      </trkpt>
      <trkpt lat="45.93676" lon="4.71891">
        <ele>175</ele>
        <time>2018-05-18T10:47:15Z</time>
      </trkpt>
      <trkpt lat="45.93673" lon="4.71899">
        <ele>175</ele>
        <time>2018-05-18T10:47:16Z</time>
      </trkpt>
      <trkpt lat="45.93671" lon="4.71907">
        <ele>175</ele>
        <time>2018-05-18T10:47:17Z</time>
      </trkpt>
      <trkpt lat="45.9367" lon="4.71914">
        <ele>175</ele>
        <time>2018-05-18T10:47:18Z</time>
      </trkpt>
      <trkpt lat="45.93666" lon="4.71926">
        <ele>175</ele>
        <time>2018-05-18T10:47:29Z</time>
      </trkpt>
      <trkpt lat="45.93666" lon="4.71926">
        <ele>175</ele>
        <time>2018-05-18T10:47:30Z</time>
      </trkpt>
      <trkpt lat="45.93662" lon="4.71933">
        <ele>175</ele>
        <time>2018-05-18T10:47:48Z</time>
      </trkpt>
      <trkpt lat="45.9366" lon="4.71936">
        <ele>175</ele>
        <time>2018-05-18T10:47:49Z</time>
      </trkpt>
      <trkpt lat="45.93656" lon="4.71952">
        <ele>175</ele>
        <time>2018-05-18T10:47:50Z</time>
      </trkpt>
      <trkpt lat="45.93655" lon="4.71958">
        <ele>175</ele>
        <time>2018-05-18T10:47:51Z</time>
      </trkpt>
      <trkpt lat="45.93652" lon="4.71964">
        <ele>175</ele>
        <time>2018-05-18T10:47:52Z</time>
      </trkpt>
      <trkpt lat="45.93648" lon="4.71976">
        <ele>175</ele>
        <time>2018-05-18T10:47:54Z</time>
      </trkpt>
      <trkpt lat="45.93645" lon="4.71982">
        <ele>175</ele>
        <time>2018-05-18T10:47:55Z</time>
      </trkpt>
      <trkpt lat="45.93643" lon="4.7199">
        <ele>175</ele>
        <time>2018-05-18T10:47:56Z</time>
      </trkpt>
      <trkpt lat="45.93641" lon="4.71998">
        <ele>175</ele>
        <time>2018-05-18T10:47:57Z</time>
      </trkpt>
      <trkpt lat="45.93639" lon="4.72006">
        <ele>174</ele>
        <time>2018-05-18T10:47:58Z</time>
      </trkpt>
      <trkpt lat="45.93636" lon="4.72014">
        <ele>174</ele>
        <time>2018-05-18T10:47:59Z</time>
      </trkpt>
      <trkpt lat="45.93633" lon="4.72023">
        <ele>174</ele>
        <time>2018-05-18T10:48:00Z</time>
      </trkpt>
      <trkpt lat="45.93631" lon="4.7203">
        <ele>174</ele>
        <time>2018-05-18T10:48:01Z</time>
      </trkpt>
      <trkpt lat="45.93627" lon="4.72038">
        <ele>174</ele>
        <time>2018-05-18T10:48:02Z</time>
      </trkpt>
      <trkpt lat="45.93624" lon="4.72047">
        <ele>174</ele>
        <time>2018-05-18T10:48:03Z</time>
      </trkpt>
      <trkpt lat="45.93621" lon="4.72053">
        <ele>175</ele>
        <time>2018-05-18T10:48:04Z</time>
      </trkpt>
      <trkpt lat="45.93619" lon="4.72062">
        <ele>175</ele>
        <time>2018-05-18T10:48:05Z</time>
      </trkpt>
      <trkpt lat="45.93615" lon="4.72069">
        <ele>175</ele>
        <time>2018-05-18T10:48:06Z</time>
      </trkpt>
      <trkpt lat="45.93612" lon="4.72077">
        <ele>175</ele>
        <time>2018-05-18T10:48:07Z</time>
      </trkpt>
      <trkpt lat="45.93608" lon="4.72085">
        <ele>174</ele>
        <time>2018-05-18T10:48:08Z</time>
      </trkpt>
      <trkpt lat="45.93604" lon="4.72094">
        <ele>174</ele>
        <time>2018-05-18T10:48:09Z</time>
      </trkpt>
      <trkpt lat="45.93601" lon="4.72102">
        <ele>174</ele>
        <time>2018-05-18T10:48:10Z</time>
      </trkpt>
      <trkpt lat="45.93598" lon="4.7211">
        <ele>174</ele>
        <time>2018-05-18T10:48:11Z</time>
      </trkpt>
      <trkpt lat="45.93594" lon="4.72117">
        <ele>174</ele>
        <time>2018-05-18T10:48:12Z</time>
      </trkpt>
      <trkpt lat="45.93591" lon="4.72125">
        <ele>174</ele>
        <time>2018-05-18T10:48:13Z</time>
      </trkpt>
      <trkpt lat="45.93587" lon="4.72132">
        <ele>174</ele>
        <time>2018-05-18T10:48:14Z</time>
      </trkpt>
      <trkpt lat="45.93584" lon="4.72138">
        <ele>173</ele>
        <time>2018-05-18T10:48:15Z</time>
      </trkpt>
      <trkpt lat="45.93582" lon="4.72145">
        <ele>174</ele>
        <time>2018-05-18T10:48:16Z</time>
      </trkpt>
      <trkpt lat="45.93579" lon="4.72154">
        <ele>174</ele>
        <time>2018-05-18T10:48:17Z</time>
      </trkpt>
      <trkpt lat="45.93577" lon="4.7216">
        <ele>173</ele>
        <time>2018-05-18T10:48:18Z</time>
      </trkpt>
      <trkpt lat="45.93575" lon="4.72166">
        <ele>173</ele>
        <time>2018-05-18T10:48:19Z</time>
      </trkpt>
      <trkpt lat="45.93574" lon="4.72172">
        <ele>173</ele>
        <time>2018-05-18T10:48:20Z</time>
      </trkpt>
      <trkpt lat="45.93571" lon="4.72178">
        <ele>173</ele>
        <time>2018-05-18T10:48:21Z</time>
      </trkpt>
      <trkpt lat="45.93568" lon="4.72185">
        <ele>173</ele>
        <time>2018-05-18T10:48:22Z</time>
      </trkpt>
      <trkpt lat="45.93563" lon="4.7219">
        <ele>173</ele>
        <time>2018-05-18T10:48:23Z</time>
      </trkpt>
      <trkpt lat="45.93558" lon="4.72196">
        <ele>173</ele>
        <time>2018-05-18T10:48:24Z</time>
      </trkpt>
      <trkpt lat="45.93557" lon="4.72204">
        <ele>173</ele>
        <time>2018-05-18T10:48:25Z</time>
      </trkpt>
      <trkpt lat="45.93554" lon="4.7221">
        <ele>173</ele>
        <time>2018-05-18T10:48:26Z</time>
      </trkpt>
      <trkpt lat="45.93551" lon="4.72216">
        <ele>173</ele>
        <time>2018-05-18T10:48:27Z</time>
      </trkpt>
      <trkpt lat="45.93548" lon="4.72222">
        <ele>172</ele>
        <time>2018-05-18T10:48:28Z</time>
      </trkpt>
      <trkpt lat="45.93545" lon="4.72228">
        <ele>172</ele>
        <time>2018-05-18T10:48:29Z</time>
      </trkpt>
      <trkpt lat="45.93543" lon="4.72233">
        <ele>172</ele>
        <time>2018-05-18T10:48:30Z</time>
      </trkpt>
      <trkpt lat="45.9354" lon="4.72239">
        <ele>172</ele>
        <time>2018-05-18T10:48:31Z</time>
      </trkpt>
      <trkpt lat="45.93535" lon="4.72249">
        <ele>172</ele>
        <time>2018-05-18T10:48:33Z</time>
      </trkpt>
      <trkpt lat="45.93533" lon="4.72255">
        <ele>172</ele>
        <time>2018-05-18T10:48:34Z</time>
      </trkpt>
      <trkpt lat="45.93531" lon="4.72261">
        <ele>172</ele>
        <time>2018-05-18T10:48:35Z</time>
      </trkpt>
      <trkpt lat="45.93528" lon="4.72267">
        <ele>172</ele>
        <time>2018-05-18T10:48:36Z</time>
      </trkpt>
      <trkpt lat="45.93525" lon="4.72274">
        <ele>172</ele>
        <time>2018-05-18T10:48:37Z</time>
      </trkpt>
      <trkpt lat="45.93522" lon="4.7228">
        <ele>172</ele>
        <time>2018-05-18T10:48:38Z</time>
      </trkpt>
      <trkpt lat="45.9352" lon="4.72287">
        <ele>172</ele>
        <time>2018-05-18T10:48:39Z</time>
      </trkpt>
      <trkpt lat="45.93517" lon="4.72293">
        <ele>172</ele>
        <time>2018-05-18T10:48:40Z</time>
      </trkpt>
      <trkpt lat="45.93513" lon="4.72299">
        <ele>172</ele>
        <time>2018-05-18T10:48:41Z</time>
      </trkpt>
      <trkpt lat="45.9351" lon="4.72304">
        <ele>173</ele>
        <time>2018-05-18T10:48:42Z</time>
      </trkpt>
      <trkpt lat="45.93506" lon="4.72311">
        <ele>173</ele>
        <time>2018-05-18T10:48:43Z</time>
      </trkpt>
      <trkpt lat="45.93501" lon="4.72317">
        <ele>173</ele>
        <time>2018-05-18T10:48:44Z</time>
      </trkpt>
      <trkpt lat="45.93497" lon="4.72324">
        <ele>173</ele>
        <time>2018-05-18T10:48:45Z</time>
      </trkpt>
      <trkpt lat="45.93492" lon="4.72331">
        <ele>173</ele>
        <time>2018-05-18T10:48:46Z</time>
      </trkpt>
      <trkpt lat="45.93487" lon="4.72337">
        <ele>173</ele>
        <time>2018-05-18T10:48:47Z</time>
      </trkpt>
      <trkpt lat="45.93482" lon="4.72344">
        <ele>173</ele>
        <time>2018-05-18T10:48:48Z</time>
      </trkpt>
      <trkpt lat="45.93477" lon="4.72351">
        <ele>173</ele>
        <time>2018-05-18T10:48:49Z</time>
      </trkpt>
      <trkpt lat="45.93473" lon="4.72359">
        <ele>173</ele>
        <time>2018-05-18T10:48:50Z</time>
      </trkpt>
      <trkpt lat="45.93469" lon="4.72365">
        <ele>173</ele>
        <time>2018-05-18T10:48:51Z</time>
      </trkpt>
      <trkpt lat="45.93465" lon="4.72369">
        <ele>173</ele>
        <time>2018-05-18T10:48:52Z</time>
      </trkpt>
      <trkpt lat="45.9346" lon="4.72375">
        <ele>173</ele>
        <time>2018-05-18T10:48:53Z</time>
      </trkpt>
      <trkpt lat="45.93456" lon="4.72379">
        <ele>173</ele>
        <time>2018-05-18T10:48:54Z</time>
      </trkpt>
      <trkpt lat="45.9345" lon="4.72382">
        <ele>173</ele>
        <time>2018-05-18T10:48:55Z</time>
      </trkpt>
      <trkpt lat="45.93445" lon="4.72385">
        <ele>173</ele>
        <time>2018-05-18T10:48:56Z</time>
      </trkpt>
      <trkpt lat="45.93438" lon="4.7239">
        <ele>173</ele>
        <time>2018-05-18T10:48:57Z</time>
      </trkpt>
      <trkpt lat="45.93432" lon="4.72394">
        <ele>173</ele>
        <time>2018-05-18T10:48:58Z</time>
      </trkpt>
      <trkpt lat="45.93427" lon="4.72396">
        <ele>174</ele>
        <time>2018-05-18T10:48:59Z</time>
      </trkpt>
      <trkpt lat="45.93421" lon="4.72398">
        <ele>174</ele>
        <time>2018-05-18T10:49:00Z</time>
      </trkpt>
      <trkpt lat="45.93416" lon="4.72401">
        <ele>174</ele>
        <time>2018-05-18T10:49:01Z</time>
      </trkpt>
      <trkpt lat="45.93411" lon="4.72403">
        <ele>174</ele>
        <time>2018-05-18T10:49:02Z</time>
      </trkpt>
      <trkpt lat="45.93405" lon="4.72403">
        <ele>174</ele>
        <time>2018-05-18T10:49:03Z</time>
      </trkpt>
      <trkpt lat="45.934" lon="4.72403">
        <ele>174</ele>
        <time>2018-05-18T10:49:04Z</time>
      </trkpt>
      <trkpt lat="45.93395" lon="4.72402">
        <ele>174</ele>
        <time>2018-05-18T10:49:05Z</time>
      </trkpt>
      <trkpt lat="45.93389" lon="4.72402">
        <ele>174</ele>
        <time>2018-05-18T10:49:06Z</time>
      </trkpt>
      <trkpt lat="45.93384" lon="4.72406">
        <ele>174</ele>
        <time>2018-05-18T10:49:07Z</time>
      </trkpt>
      <trkpt lat="45.93383" lon="4.72411">
        <ele>174</ele>
        <time>2018-05-18T10:49:08Z</time>
      </trkpt>
      <trkpt lat="45.93383" lon="4.72419">
        <ele>173</ele>
        <time>2018-05-18T10:49:09Z</time>
      </trkpt>
      <trkpt lat="45.93385" lon="4.72427">
        <ele>173</ele>
        <time>2018-05-18T10:49:10Z</time>
      </trkpt>
      <trkpt lat="45.93387" lon="4.72434">
        <ele>173</ele>
        <time>2018-05-18T10:49:11Z</time>
      </trkpt>
      <trkpt lat="45.9339" lon="4.72442">
        <ele>173</ele>
        <time>2018-05-18T10:49:12Z</time>
      </trkpt>
      <trkpt lat="45.93391" lon="4.72451">
        <ele>173</ele>
        <time>2018-05-18T10:49:13Z</time>
      </trkpt>
      <trkpt lat="45.9339" lon="4.72458">
        <ele>173</ele>
        <time>2018-05-18T10:49:14Z</time>
      </trkpt>
      <trkpt lat="45.93388" lon="4.72464">
        <ele>173</ele>
        <time>2018-05-18T10:49:15Z</time>
      </trkpt>
      <trkpt lat="45.93384" lon="4.7247">
        <ele>173</ele>
        <time>2018-05-18T10:49:16Z</time>
      </trkpt>
      <trkpt lat="45.93379" lon="4.72476">
        <ele>173</ele>
        <time>2018-05-18T10:49:17Z</time>
      </trkpt>
      <trkpt lat="45.93375" lon="4.72481">
        <ele>173</ele>
        <time>2018-05-18T10:49:18Z</time>
      </trkpt>
      <trkpt lat="45.93369" lon="4.72486">
        <ele>173</ele>
        <time>2018-05-18T10:49:19Z</time>
      </trkpt>
      <trkpt lat="45.93365" lon="4.72493">
        <ele>173</ele>
        <time>2018-05-18T10:49:20Z</time>
      </trkpt>
      <trkpt lat="45.93359" lon="4.72498">
        <ele>173</ele>
        <time>2018-05-18T10:49:21Z</time>
      </trkpt>
      <trkpt lat="45.93353" lon="4.72504">
        <ele>172</ele>
        <time>2018-05-18T10:49:22Z</time>
      </trkpt>
      <trkpt lat="45.93348" lon="4.7251">
        <ele>172</ele>
        <time>2018-05-18T10:49:23Z</time>
      </trkpt>
      <trkpt lat="45.93343" lon="4.72516">
        <ele>172</ele>
        <time>2018-05-18T10:49:24Z</time>
      </trkpt>
      <trkpt lat="45.93338" lon="4.72522">
        <ele>172</ele>
        <time>2018-05-18T10:49:25Z</time>
      </trkpt>
      <trkpt lat="45.93333" lon="4.72527">
        <ele>172</ele>
        <time>2018-05-18T10:49:26Z</time>
      </trkpt>
      <trkpt lat="45.93328" lon="4.72533">
        <ele>172</ele>
        <time>2018-05-18T10:49:27Z</time>
      </trkpt>
      <trkpt lat="45.93325" lon="4.72538">
        <ele>172</ele>
        <time>2018-05-18T10:49:28Z</time>
      </trkpt>
      <trkpt lat="45.9332" lon="4.72543">
        <ele>172</ele>
        <time>2018-05-18T10:49:29Z</time>
      </trkpt>
      <trkpt lat="45.93315" lon="4.72549">
        <ele>172</ele>
        <time>2018-05-18T10:49:30Z</time>
      </trkpt>
      <trkpt lat="45.9331" lon="4.72554">
        <ele>172</ele>
        <time>2018-05-18T10:49:31Z</time>
      </trkpt>
      <trkpt lat="45.93304" lon="4.72559">
        <ele>172</ele>
        <time>2018-05-18T10:49:32Z</time>
      </trkpt>
      <trkpt lat="45.93299" lon="4.72566">
        <ele>172</ele>
        <time>2018-05-18T10:49:33Z</time>
      </trkpt>
      <trkpt lat="45.93294" lon="4.72571">
        <ele>172</ele>
        <time>2018-05-18T10:49:34Z</time>
      </trkpt>
      <trkpt lat="45.93288" lon="4.72578">
        <ele>171</ele>
        <time>2018-05-18T10:49:35Z</time>
      </trkpt>
      <trkpt lat="45.93283" lon="4.72583">
        <ele>171</ele>
        <time>2018-05-18T10:49:36Z</time>
      </trkpt>
      <trkpt lat="45.93278" lon="4.72589">
        <ele>170</ele>
        <time>2018-05-18T10:49:37Z</time>
      </trkpt>
      <trkpt lat="45.93273" lon="4.72595">
        <ele>170</ele>
        <time>2018-05-18T10:49:38Z</time>
      </trkpt>
      <trkpt lat="45.93268" lon="4.72602">
        <ele>170</ele>
        <time>2018-05-18T10:49:39Z</time>
      </trkpt>
      <trkpt lat="45.93262" lon="4.72608">
        <ele>170</ele>
        <time>2018-05-18T10:49:40Z</time>
      </trkpt>
      <trkpt lat="45.93258" lon="4.72613">
        <ele>170</ele>
        <time>2018-05-18T10:49:41Z</time>
      </trkpt>
      <trkpt lat="45.93253" lon="4.72619">
        <ele>170</ele>
        <time>2018-05-18T10:49:42Z</time>
      </trkpt>
      <trkpt lat="45.93247" lon="4.72626">
        <ele>170</ele>
        <time>2018-05-18T10:49:43Z</time>
      </trkpt>
      <trkpt lat="45.93241" lon="4.72632">
        <ele>170</ele>
        <time>2018-05-18T10:49:44Z</time>
      </trkpt>
      <trkpt lat="45.93237" lon="4.72637">
        <ele>170</ele>
        <time>2018-05-18T10:49:45Z</time>
      </trkpt>
      <trkpt lat="45.93232" lon="4.72642">
        <ele>170</ele>
        <time>2018-05-18T10:49:46Z</time>
      </trkpt>
      <trkpt lat="45.93226" lon="4.72648">
        <ele>170</ele>
        <time>2018-05-18T10:49:47Z</time>
      </trkpt>
      <trkpt lat="45.93222" lon="4.72654">
        <ele>170</ele>
        <time>2018-05-18T10:49:48Z</time>
      </trkpt>
      <trkpt lat="45.93217" lon="4.7266">
        <ele>170</ele>
        <time>2018-05-18T10:49:49Z</time>
      </trkpt>
      <trkpt lat="45.93214" lon="4.72665">
        <ele>170</ele>
        <time>2018-05-18T10:49:50Z</time>
      </trkpt>
      <trkpt lat="45.93208" lon="4.72671">
        <ele>169</ele>
        <time>2018-05-18T10:49:51Z</time>
      </trkpt>
      <trkpt lat="45.93203" lon="4.72677">
        <ele>169</ele>
        <time>2018-05-18T10:49:52Z</time>
      </trkpt>
      <trkpt lat="45.93198" lon="4.72683">
        <ele>169</ele>
        <time>2018-05-18T10:49:53Z</time>
      </trkpt>
      <trkpt lat="45.93193" lon="4.7269">
        <ele>169</ele>
        <time>2018-05-18T10:49:54Z</time>
      </trkpt>
      <trkpt lat="45.93188" lon="4.72695">
        <ele>169</ele>
        <time>2018-05-18T10:49:55Z</time>
      </trkpt>
      <trkpt lat="45.93183" lon="4.72702">
        <ele>169</ele>
        <time>2018-05-18T10:49:56Z</time>
      </trkpt>
      <trkpt lat="45.93178" lon="4.72708">
        <ele>169</ele>
        <time>2018-05-18T10:49:57Z</time>
      </trkpt>
      <trkpt lat="45.93172" lon="4.72714">
        <ele>170</ele>
        <time>2018-05-18T10:49:58Z</time>
      </trkpt>
      <trkpt lat="45.93168" lon="4.72719">
        <ele>170</ele>
        <time>2018-05-18T10:49:59Z</time>
      </trkpt>
      <trkpt lat="45.93163" lon="4.72725">
        <ele>170</ele>
        <time>2018-05-18T10:50:00Z</time>
      </trkpt>
      <trkpt lat="45.93158" lon="4.72731">
        <ele>170</ele>
        <time>2018-05-18T10:50:01Z</time>
      </trkpt>
      <trkpt lat="45.93152" lon="4.72737">
        <ele>170</ele>
        <time>2018-05-18T10:50:02Z</time>
      </trkpt>
      <trkpt lat="45.93147" lon="4.72743">
        <ele>170</ele>
        <time>2018-05-18T10:50:03Z</time>
      </trkpt>
      <trkpt lat="45.93142" lon="4.72749">
        <ele>170</ele>
        <time>2018-05-18T10:50:04Z</time>
      </trkpt>
      <trkpt lat="45.93137" lon="4.72755">
        <ele>171</ele>
        <time>2018-05-18T10:50:05Z</time>
      </trkpt>
      <trkpt lat="45.93132" lon="4.72761">
        <ele>171</ele>
        <time>2018-05-18T10:50:06Z</time>
      </trkpt>
      <trkpt lat="45.93126" lon="4.72767">
        <ele>171</ele>
        <time>2018-05-18T10:50:07Z</time>
      </trkpt>
      <trkpt lat="45.93121" lon="4.72774">
        <ele>171</ele>
        <time>2018-05-18T10:50:08Z</time>
      </trkpt>
      <trkpt lat="45.93117" lon="4.7278">
        <ele>171</ele>
        <time>2018-05-18T10:50:09Z</time>
      </trkpt>
      <trkpt lat="45.93112" lon="4.72787">
        <ele>171</ele>
        <time>2018-05-18T10:50:10Z</time>
      </trkpt>
      <trkpt lat="45.93106" lon="4.72791">
        <ele>171</ele>
        <time>2018-05-18T10:50:11Z</time>
      </trkpt>
      <trkpt lat="45.93102" lon="4.72799">
        <ele>171</ele>
        <time>2018-05-18T10:50:12Z</time>
      </trkpt>
      <trkpt lat="45.93098" lon="4.72804">
        <ele>171</ele>
        <time>2018-05-18T10:50:13Z</time>
      </trkpt>
      <trkpt lat="45.93093" lon="4.72809">
        <ele>172</ele>
        <time>2018-05-18T10:50:14Z</time>
      </trkpt>
      <trkpt lat="45.93089" lon="4.72813">
        <ele>172</ele>
        <time>2018-05-18T10:50:15Z</time>
      </trkpt>
      <trkpt lat="45.93084" lon="4.72818">
        <ele>172</ele>
        <time>2018-05-18T10:50:16Z</time>
      </trkpt>
      <trkpt lat="45.93079" lon="4.72822">
        <ele>173</ele>
        <time>2018-05-18T10:50:17Z</time>
      </trkpt>
      <trkpt lat="45.93075" lon="4.72829">
        <ele>173</ele>
        <time>2018-05-18T10:50:18Z</time>
      </trkpt>
      <trkpt lat="45.93048" lon="4.72853">
        <ele>172</ele>
        <time>2018-05-18T10:50:23Z</time>
      </trkpt>
      <trkpt lat="45.93045" lon="4.72859">
        <ele>172</ele>
        <time>2018-05-18T10:50:24Z</time>
      </trkpt>
      <trkpt lat="45.9304" lon="4.72865">
        <ele>172</ele>
        <time>2018-05-18T10:50:25Z</time>
      </trkpt>
      <trkpt lat="45.93035" lon="4.72874">
        <ele>172</ele>
        <time>2018-05-18T10:50:26Z</time>
      </trkpt>
      <trkpt lat="45.9303" lon="4.72878">
        <ele>172</ele>
        <time>2018-05-18T10:50:27Z</time>
      </trkpt>
      <trkpt lat="45.93025" lon="4.72883">
        <ele>172</ele>
        <time>2018-05-18T10:50:28Z</time>
      </trkpt>
      <trkpt lat="45.93021" lon="4.72888">
        <ele>172</ele>
        <time>2018-05-18T10:50:29Z</time>
      </trkpt>
      <trkpt lat="45.93015" lon="4.72894">
        <ele>172</ele>
        <time>2018-05-18T10:50:30Z</time>
      </trkpt>
      <trkpt lat="45.93011" lon="4.72899">
        <ele>172</ele>
        <time>2018-05-18T10:50:31Z</time>
      </trkpt>
      <trkpt lat="45.93007" lon="4.72904">
        <ele>171</ele>
        <time>2018-05-18T10:50:32Z</time>
      </trkpt>
      <trkpt lat="45.93003" lon="4.7291">
        <ele>171</ele>
        <time>2018-05-18T10:50:33Z</time>
      </trkpt>
      <trkpt lat="45.92999" lon="4.72915">
        <ele>171</ele>
        <time>2018-05-18T10:50:34Z</time>
      </trkpt>
      <trkpt lat="45.92994" lon="4.72921">
        <ele>171</ele>
        <time>2018-05-18T10:50:35Z</time>
      </trkpt>
      <trkpt lat="45.92989" lon="4.72926">
        <ele>171</ele>
        <time>2018-05-18T10:50:36Z</time>
      </trkpt>
      <trkpt lat="45.92985" lon="4.72932">
        <ele>171</ele>
        <time>2018-05-18T10:50:37Z</time>
      </trkpt>
      <trkpt lat="45.9298" lon="4.72938">
        <ele>171</ele>
        <time>2018-05-18T10:50:38Z</time>
      </trkpt>
      <trkpt lat="45.92976" lon="4.72943">
        <ele>171</ele>
        <time>2018-05-18T10:50:39Z</time>
      </trkpt>
      <trkpt lat="45.92971" lon="4.72949">
        <ele>171</ele>
        <time>2018-05-18T10:50:40Z</time>
      </trkpt>
      <trkpt lat="45.92967" lon="4.72955">
        <ele>171</ele>
        <time>2018-05-18T10:50:41Z</time>
      </trkpt>
      <trkpt lat="45.92963" lon="4.7296">
        <ele>171</ele>
        <time>2018-05-18T10:50:42Z</time>
      </trkpt>
      <trkpt lat="45.92958" lon="4.72966">
        <ele>171</ele>
        <time>2018-05-18T10:50:43Z</time>
      </trkpt>
      <trkpt lat="45.92953" lon="4.72971">
        <ele>171</ele>
        <time>2018-05-18T10:50:44Z</time>
      </trkpt>
      <trkpt lat="45.92948" lon="4.72976">
        <ele>171</ele>
        <time>2018-05-18T10:50:45Z</time>
      </trkpt>
      <trkpt lat="45.92944" lon="4.72981">
        <ele>171</ele>
        <time>2018-05-18T10:50:46Z</time>
      </trkpt>
      <trkpt lat="45.92939" lon="4.72986">
        <ele>171</ele>
        <time>2018-05-18T10:50:47Z</time>
      </trkpt>
      <trkpt lat="45.92934" lon="4.72991">
        <ele>172</ele>
        <time>2018-05-18T10:50:48Z</time>
      </trkpt>
      <trkpt lat="45.9293" lon="4.72996">
        <ele>172</ele>
        <time>2018-05-18T10:50:49Z</time>
      </trkpt>
      <trkpt lat="45.92925" lon="4.73002">
        <ele>172</ele>
        <time>2018-05-18T10:50:50Z</time>
      </trkpt>
      <trkpt lat="45.92921" lon="4.73007">
        <ele>172</ele>
        <time>2018-05-18T10:50:51Z</time>
      </trkpt>
      <trkpt lat="45.92917" lon="4.73012">
        <ele>172</ele>
        <time>2018-05-18T10:50:52Z</time>
      </trkpt>
      <trkpt lat="45.92913" lon="4.73018">
        <ele>172</ele>
        <time>2018-05-18T10:50:53Z</time>
      </trkpt>
      <trkpt lat="45.92909" lon="4.73023">
        <ele>172</ele>
        <time>2018-05-18T10:50:54Z</time>
      </trkpt>
      <trkpt lat="45.92905" lon="4.73028">
        <ele>172</ele>
        <time>2018-05-18T10:50:55Z</time>
      </trkpt>
      <trkpt lat="45.92902" lon="4.73033">
        <ele>172</ele>
        <time>2018-05-18T10:50:56Z</time>
      </trkpt>
      <trkpt lat="45.92899" lon="4.7304">
        <ele>172</ele>
        <time>2018-05-18T10:50:57Z</time>
      </trkpt>
      <trkpt lat="45.92895" lon="4.73045">
        <ele>172</ele>
        <time>2018-05-18T10:50:58Z</time>
      </trkpt>
      <trkpt lat="45.92892" lon="4.73051">
        <ele>172</ele>
        <time>2018-05-18T10:50:59Z</time>
      </trkpt>
      <trkpt lat="45.92888" lon="4.73056">
        <ele>172</ele>
        <time>2018-05-18T10:51:00Z</time>
      </trkpt>
      <trkpt lat="45.92884" lon="4.73062">
        <ele>172</ele>
        <time>2018-05-18T10:51:01Z</time>
      </trkpt>
      <trkpt lat="45.92881" lon="4.73068">
        <ele>172</ele>
        <time>2018-05-18T10:51:02Z</time>
      </trkpt>
      <trkpt lat="45.92876" lon="4.73073">
        <ele>172</ele>
        <time>2018-05-18T10:51:03Z</time>
      </trkpt>
      <trkpt lat="45.92873" lon="4.73079">
        <ele>172</ele>
        <time>2018-05-18T10:51:04Z</time>
      </trkpt>
      <trkpt lat="45.9287" lon="4.73085">
        <ele>172</ele>
        <time>2018-05-18T10:51:05Z</time>
      </trkpt>
      <trkpt lat="45.92865" lon="4.73091">
        <ele>172</ele>
        <time>2018-05-18T10:51:06Z</time>
      </trkpt>
      <trkpt lat="45.92861" lon="4.73097">
        <ele>171</ele>
        <time>2018-05-18T10:51:07Z</time>
      </trkpt>
      <trkpt lat="45.92857" lon="4.73101">
        <ele>171</ele>
        <time>2018-05-18T10:51:08Z</time>
      </trkpt>
      <trkpt lat="45.92853" lon="4.73103">
        <ele>171</ele>
        <time>2018-05-18T10:51:09Z</time>
      </trkpt>
      <trkpt lat="45.92846" lon="4.73096">
        <ele>171</ele>
        <time>2018-05-18T10:51:11Z</time>
      </trkpt>
      <trkpt lat="45.92846" lon="4.73092">
        <ele>171</ele>
        <time>2018-05-18T10:51:12Z</time>
      </trkpt>
      <trkpt lat="45.92845" lon="4.73085">
        <ele>171</ele>
        <time>2018-05-18T10:51:13Z</time>
      </trkpt>
      <trkpt lat="45.92844" lon="4.73078">
        <ele>171</ele>
        <time>2018-05-18T10:51:14Z</time>
      </trkpt>
      <trkpt lat="45.92843" lon="4.7307">
        <ele>171</ele>
        <time>2018-05-18T10:51:15Z</time>
      </trkpt>
      <trkpt lat="45.92843" lon="4.73061">
        <ele>171</ele>
        <time>2018-05-18T10:51:16Z</time>
      </trkpt>
      <trkpt lat="45.92841" lon="4.73052">
        <ele>171</ele>
        <time>2018-05-18T10:51:17Z</time>
      </trkpt>
      <trkpt lat="45.9284" lon="4.73044">
        <ele>171</ele>
        <time>2018-05-18T10:51:18Z</time>
      </trkpt>
      <trkpt lat="45.92839" lon="4.73038">
        <ele>171</ele>
        <time>2018-05-18T10:51:19Z</time>
      </trkpt>
      <trkpt lat="45.92838" lon="4.73031">
        <ele>171</ele>
        <time>2018-05-18T10:51:20Z</time>
      </trkpt>
      <trkpt lat="45.92837" lon="4.73023">
        <ele>171</ele>
        <time>2018-05-18T10:51:21Z</time>
      </trkpt>
      <trkpt lat="45.92835" lon="4.73016">
        <ele>171</ele>
        <time>2018-05-18T10:51:22Z</time>
      </trkpt>
      <trkpt lat="45.92835" lon="4.7301">
        <ele>170</ele>
        <time>2018-05-18T10:51:23Z</time>
      </trkpt>
      <trkpt lat="45.92833" lon="4.73003">
        <ele>170</ele>
        <time>2018-05-18T10:51:24Z</time>
      </trkpt>
      <trkpt lat="45.92833" lon="4.72996">
        <ele>170</ele>
        <time>2018-05-18T10:51:25Z</time>
      </trkpt>
      <trkpt lat="45.92833" lon="4.7299">
        <ele>170</ele>
        <time>2018-05-18T10:51:26Z</time>
      </trkpt>
      <trkpt lat="45.92832" lon="4.72982">
        <ele>170</ele>
        <time>2018-05-18T10:51:27Z</time>
      </trkpt>
      <trkpt lat="45.92831" lon="4.72974">
        <ele>170</ele>
        <time>2018-05-18T10:51:28Z</time>
      </trkpt>
      <trkpt lat="45.92831" lon="4.72966">
        <ele>170</ele>
        <time>2018-05-18T10:51:29Z</time>
      </trkpt>
      <trkpt lat="45.9283" lon="4.72959">
        <ele>170</ele>
        <time>2018-05-18T10:51:30Z</time>
      </trkpt>
      <trkpt lat="45.92829" lon="4.72951">
        <ele>170</ele>
        <time>2018-05-18T10:51:31Z</time>
      </trkpt>
      <trkpt lat="45.92829" lon="4.72942">
        <ele>170</ele>
        <time>2018-05-18T10:51:32Z</time>
      </trkpt>
      <trkpt lat="45.92828" lon="4.72934">
        <ele>170</ele>
        <time>2018-05-18T10:51:33Z</time>
      </trkpt>
      <trkpt lat="45.92827" lon="4.72928">
        <ele>170</ele>
        <time>2018-05-18T10:51:34Z</time>
      </trkpt>
      <trkpt lat="45.92825" lon="4.72919">
        <ele>170</ele>
        <time>2018-05-18T10:51:35Z</time>
      </trkpt>
      <trkpt lat="45.92824" lon="4.72911">
        <ele>170</ele>
        <time>2018-05-18T10:51:36Z</time>
      </trkpt>
      <trkpt lat="45.92823" lon="4.72902">
        <ele>170</ele>
        <time>2018-05-18T10:51:37Z</time>
      </trkpt>
      <trkpt lat="45.92822" lon="4.72894">
        <ele>170</ele>
        <time>2018-05-18T10:51:38Z</time>
      </trkpt>
      <trkpt lat="45.92822" lon="4.72885">
        <ele>170</ele>
        <time>2018-05-18T10:51:39Z</time>
      </trkpt>
      <trkpt lat="45.9282" lon="4.72878">
        <ele>170</ele>
        <time>2018-05-18T10:51:40Z</time>
      </trkpt>
      <trkpt lat="45.92819" lon="4.7287">
        <ele>170</ele>
        <time>2018-05-18T10:51:41Z</time>
      </trkpt>
      <trkpt lat="45.92817" lon="4.72863">
        <ele>170</ele>
        <time>2018-05-18T10:51:42Z</time>
      </trkpt>
      <trkpt lat="45.92816" lon="4.72857">
        <ele>170</ele>
        <time>2018-05-18T10:51:43Z</time>
      </trkpt>
      <trkpt lat="45.92815" lon="4.7285">
        <ele>170</ele>
        <time>2018-05-18T10:51:44Z</time>
      </trkpt>
      <trkpt lat="45.92814" lon="4.72844">
        <ele>170</ele>
        <time>2018-05-18T10:51:45Z</time>
      </trkpt>
      <trkpt lat="45.92812" lon="4.72837">
        <ele>170</ele>
        <time>2018-05-18T10:51:46Z</time>
      </trkpt>
      <trkpt lat="45.9281" lon="4.7283">
        <ele>171</ele>
        <time>2018-05-18T10:51:47Z</time>
      </trkpt>
      <trkpt lat="45.9281" lon="4.72823">
        <ele>171</ele>
        <time>2018-05-18T10:51:48Z</time>
      </trkpt>
      <trkpt lat="45.92808" lon="4.72816">
        <ele>171</ele>
        <time>2018-05-18T10:51:49Z</time>
      </trkpt>
      <trkpt lat="45.92807" lon="4.72809">
        <ele>171</ele>
        <time>2018-05-18T10:51:50Z</time>
      </trkpt>
      <trkpt lat="45.92805" lon="4.72797">
        <ele>171</ele>
        <time>2018-05-18T10:51:52Z</time>
      </trkpt>
      <trkpt lat="45.92802" lon="4.72792">
        <ele>171</ele>
        <time>2018-05-18T10:51:53Z</time>
      </trkpt>
      <trkpt lat="45.92801" lon="4.72791">
        <ele>171</ele>
        <time>2018-05-18T10:51:54Z</time>
      </trkpt>
      <trkpt lat="45.92792" lon="4.7279">
        <ele>171</ele>
        <time>2018-05-18T10:51:55Z</time>
      </trkpt>
      <trkpt lat="45.92789" lon="4.72792">
        <ele>170</ele>
        <time>2018-05-18T10:51:56Z</time>
      </trkpt>
      <trkpt lat="45.92784" lon="4.72795">
        <ele>170</ele>
        <time>2018-05-18T10:51:57Z</time>
      </trkpt>
      <trkpt lat="45.9278" lon="4.72799">
        <ele>170</ele>
        <time>2018-05-18T10:51:58Z</time>
      </trkpt>
      <trkpt lat="45.92776" lon="4.72802">
        <ele>170</ele>
        <time>2018-05-18T10:51:59Z</time>
      </trkpt>
      <trkpt lat="45.9277" lon="4.72805">
        <ele>170</ele>
        <time>2018-05-18T10:52:00Z</time>
      </trkpt>
      <trkpt lat="45.92765" lon="4.72809">
        <ele>170</ele>
        <time>2018-05-18T10:52:01Z</time>
      </trkpt>
      <trkpt lat="45.92759" lon="4.72812">
        <ele>170</ele>
        <time>2018-05-18T10:52:02Z</time>
      </trkpt>
      <trkpt lat="45.92754" lon="4.72816">
        <ele>170</ele>
        <time>2018-05-18T10:52:03Z</time>
      </trkpt>
      <trkpt lat="45.92749" lon="4.7282">
        <ele>169</ele>
        <time>2018-05-18T10:52:04Z</time>
      </trkpt>
      <trkpt lat="45.92744" lon="4.72823">
        <ele>169</ele>
        <time>2018-05-18T10:52:05Z</time>
      </trkpt>
      <trkpt lat="45.9274" lon="4.72826">
        <ele>169</ele>
        <time>2018-05-18T10:52:06Z</time>
      </trkpt>
      <trkpt lat="45.92735" lon="4.7283">
        <ele>169</ele>
        <time>2018-05-18T10:52:07Z</time>
      </trkpt>
      <trkpt lat="45.9273" lon="4.72834">
        <ele>169</ele>
        <time>2018-05-18T10:52:08Z</time>
      </trkpt>
      <trkpt lat="45.92727" lon="4.72839">
        <ele>169</ele>
        <time>2018-05-18T10:52:09Z</time>
      </trkpt>
      <trkpt lat="45.92722" lon="4.72842">
        <ele>169</ele>
        <time>2018-05-18T10:52:10Z</time>
      </trkpt>
      <trkpt lat="45.92716" lon="4.72847">
        <ele>169</ele>
        <time>2018-05-18T10:52:11Z</time>
      </trkpt>
      <trkpt lat="45.92711" lon="4.72852">
        <ele>169</ele>
        <time>2018-05-18T10:52:12Z</time>
      </trkpt>
      <trkpt lat="45.92705" lon="4.72856">
        <ele>169</ele>
        <time>2018-05-18T10:52:13Z</time>
      </trkpt>
      <trkpt lat="45.92699" lon="4.7286">
        <ele>169</ele>
        <time>2018-05-18T10:52:14Z</time>
      </trkpt>
      <trkpt lat="45.92694" lon="4.72863">
        <ele>169</ele>
        <time>2018-05-18T10:52:15Z</time>
      </trkpt>
      <trkpt lat="45.92689" lon="4.72866">
        <ele>169</ele>
        <time>2018-05-18T10:52:16Z</time>
      </trkpt>
      <trkpt lat="45.92683" lon="4.72871">
        <ele>169</ele>
        <time>2018-05-18T10:52:17Z</time>
      </trkpt>
      <trkpt lat="45.92678" lon="4.72875">
        <ele>169</ele>
        <time>2018-05-18T10:52:18Z</time>
      </trkpt>
      <trkpt lat="45.92674" lon="4.7288">
        <ele>170</ele>
        <time>2018-05-18T10:52:19Z</time>
      </trkpt>
      <trkpt lat="45.9267" lon="4.72887">
        <ele>170</ele>
        <time>2018-05-18T10:52:20Z</time>
      </trkpt>
      <trkpt lat="45.92665" lon="4.72894">
        <ele>170</ele>
        <time>2018-05-18T10:52:21Z</time>
      </trkpt>
      <trkpt lat="45.92659" lon="4.72898">
        <ele>170</ele>
        <time>2018-05-18T10:52:22Z</time>
      </trkpt>
      <trkpt lat="45.92653" lon="4.72901">
        <ele>170</ele>
        <time>2018-05-18T10:52:23Z</time>
      </trkpt>
      <trkpt lat="45.92646" lon="4.72902">
        <ele>169</ele>
        <time>2018-05-18T10:52:24Z</time>
      </trkpt>
      <trkpt lat="45.92641" lon="4.72906">
        <ele>169</ele>
        <time>2018-05-18T10:52:25Z</time>
      </trkpt>
      <trkpt lat="45.92636" lon="4.72906">
        <ele>169</ele>
        <time>2018-05-18T10:52:26Z</time>
      </trkpt>
      <trkpt lat="45.9263" lon="4.72909">
        <ele>169</ele>
        <time>2018-05-18T10:52:27Z</time>
      </trkpt>
      <trkpt lat="45.92625" lon="4.72913">
        <ele>169</ele>
        <time>2018-05-18T10:52:28Z</time>
      </trkpt>
      <trkpt lat="45.92622" lon="4.7292">
        <ele>169</ele>
        <time>2018-05-18T10:52:29Z</time>
      </trkpt>
      <trkpt lat="45.92617" lon="4.72921">
        <ele>169</ele>
        <time>2018-05-18T10:52:30Z</time>
      </trkpt>
      <trkpt lat="45.92611" lon="4.72925">
        <ele>169</ele>
        <time>2018-05-18T10:52:31Z</time>
      </trkpt>
      <trkpt lat="45.92606" lon="4.72932">
        <ele>169</ele>
        <time>2018-05-18T10:52:32Z</time>
      </trkpt>
      <trkpt lat="45.92601" lon="4.72936">
        <ele>169</ele>
        <time>2018-05-18T10:52:33Z</time>
      </trkpt>
      <trkpt lat="45.92596" lon="4.72943">
        <ele>169</ele>
        <time>2018-05-18T10:52:34Z</time>
      </trkpt>
      <trkpt lat="45.92591" lon="4.72948">
        <ele>169</ele>
        <time>2018-05-18T10:52:35Z</time>
      </trkpt>
      <trkpt lat="45.92586" lon="4.72955">
        <ele>169</ele>
        <time>2018-05-18T10:52:36Z</time>
      </trkpt>
      <trkpt lat="45.92581" lon="4.7296">
        <ele>169</ele>
        <time>2018-05-18T10:52:37Z</time>
      </trkpt>
      <trkpt lat="45.92576" lon="4.72968">
        <ele>169</ele>
        <time>2018-05-18T10:52:38Z</time>
      </trkpt>
      <trkpt lat="45.92572" lon="4.72975">
        <ele>169</ele>
        <time>2018-05-18T10:52:39Z</time>
      </trkpt>
      <trkpt lat="45.92568" lon="4.72981">
        <ele>169</ele>
        <time>2018-05-18T10:52:40Z</time>
      </trkpt>
      <trkpt lat="45.92563" lon="4.72987">
        <ele>169</ele>
        <time>2018-05-18T10:52:41Z</time>
      </trkpt>
      <trkpt lat="45.92558" lon="4.72993">
        <ele>169</ele>
        <time>2018-05-18T10:52:42Z</time>
      </trkpt>
      <trkpt lat="45.92553" lon="4.72999">
        <ele>169</ele>
        <time>2018-05-18T10:52:43Z</time>
      </trkpt>
      <trkpt lat="45.92548" lon="4.73006">
        <ele>169</ele>
        <time>2018-05-18T10:52:44Z</time>
      </trkpt>
      <trkpt lat="45.92542" lon="4.7301">
        <ele>169</ele>
        <time>2018-05-18T10:52:45Z</time>
      </trkpt>
      <trkpt lat="45.92536" lon="4.73015">
        <ele>169</ele>
        <time>2018-05-18T10:52:46Z</time>
      </trkpt>
      <trkpt lat="45.92531" lon="4.7302">
        <ele>169</ele>
        <time>2018-05-18T10:52:47Z</time>
      </trkpt>
      <trkpt lat="45.92525" lon="4.73025">
        <ele>169</ele>
        <time>2018-05-18T10:52:48Z</time>
      </trkpt>
      <trkpt lat="45.92519" lon="4.7303">
        <ele>169</ele>
        <time>2018-05-18T10:52:49Z</time>
      </trkpt>
      <trkpt lat="45.92514" lon="4.73035">
        <ele>169</ele>
        <time>2018-05-18T10:52:50Z</time>
      </trkpt>
      <trkpt lat="45.92508" lon="4.73039">
        <ele>169</ele>
        <time>2018-05-18T10:52:51Z</time>
      </trkpt>
      <trkpt lat="45.92504" lon="4.73043">
        <ele>170</ele>
        <time>2018-05-18T10:52:52Z</time>
      </trkpt>
      <trkpt lat="45.92499" lon="4.73046">
        <ele>170</ele>
        <time>2018-05-18T10:52:53Z</time>
      </trkpt>
      <trkpt lat="45.92495" lon="4.73051">
        <ele>170</ele>
        <time>2018-05-18T10:52:54Z</time>
      </trkpt>
      <trkpt lat="45.9249" lon="4.73055">
        <ele>170</ele>
        <time>2018-05-18T10:52:55Z</time>
      </trkpt>
      <trkpt lat="45.92485" lon="4.73059">
        <ele>170</ele>
        <time>2018-05-18T10:52:56Z</time>
      </trkpt>
      <trkpt lat="45.9248" lon="4.73062">
        <ele>170</ele>
        <time>2018-05-18T10:52:57Z</time>
      </trkpt>
      <trkpt lat="45.92476" lon="4.73067">
        <ele>170</ele>
        <time>2018-05-18T10:52:58Z</time>
      </trkpt>
      <trkpt lat="45.92471" lon="4.73072">
        <ele>170</ele>
        <time>2018-05-18T10:52:59Z</time>
      </trkpt>
      <trkpt lat="45.92466" lon="4.73075">
        <ele>170</ele>
        <time>2018-05-18T10:53:00Z</time>
      </trkpt>
      <trkpt lat="45.92459" lon="4.73078">
        <ele>170</ele>
        <time>2018-05-18T10:53:01Z</time>
      </trkpt>
      <trkpt lat="45.92454" lon="4.73083">
        <ele>170</ele>
        <time>2018-05-18T10:53:02Z</time>
      </trkpt>
      <trkpt lat="45.9245" lon="4.73089">
        <ele>170</ele>
        <time>2018-05-18T10:53:03Z</time>
      </trkpt>
      <trkpt lat="45.92446" lon="4.73094">
        <ele>170</ele>
        <time>2018-05-18T10:53:04Z</time>
      </trkpt>
      <trkpt lat="45.92443" lon="4.73098">
        <ele>170</ele>
        <time>2018-05-18T10:53:05Z</time>
      </trkpt>
      <trkpt lat="45.92438" lon="4.73101">
        <ele>170</ele>
        <time>2018-05-18T10:53:06Z</time>
      </trkpt>
      <trkpt lat="45.92434" lon="4.73105">
        <ele>170</ele>
        <time>2018-05-18T10:53:07Z</time>
      </trkpt>
      <trkpt lat="45.92428" lon="4.7311">
        <ele>170</ele>
        <time>2018-05-18T10:53:08Z</time>
      </trkpt>
      <trkpt lat="45.92422" lon="4.73114">
        <ele>170</ele>
        <time>2018-05-18T10:53:09Z</time>
      </trkpt>
      <trkpt lat="45.92417" lon="4.73118">
        <ele>170</ele>
        <time>2018-05-18T10:53:10Z</time>
      </trkpt>
      <trkpt lat="45.92413" lon="4.73121">
        <ele>171</ele>
        <time>2018-05-18T10:53:11Z</time>
      </trkpt>
      <trkpt lat="45.9241" lon="4.73128">
        <ele>171</ele>
        <time>2018-05-18T10:53:12Z</time>
      </trkpt>
      <trkpt lat="45.92409" lon="4.73137">
        <ele>171</ele>
        <time>2018-05-18T10:53:13Z</time>
      </trkpt>
      <trkpt lat="45.92408" lon="4.73149">
        <ele>171</ele>
        <time>2018-05-18T10:53:15Z</time>
      </trkpt>
      <trkpt lat="45.92408" lon="4.73155">
        <ele>170</ele>
        <time>2018-05-18T10:53:16Z</time>
      </trkpt>
      <trkpt lat="45.92407" lon="4.73162">
        <ele>170</ele>
        <time>2018-05-18T10:53:17Z</time>
      </trkpt>
      <trkpt lat="45.92407" lon="4.73168">
        <ele>170</ele>
        <time>2018-05-18T10:53:18Z</time>
      </trkpt>
      <trkpt lat="45.92407" lon="4.73175">
        <ele>171</ele>
        <time>2018-05-18T10:53:19Z</time>
      </trkpt>
      <trkpt lat="45.92408" lon="4.73182">
        <ele>171</ele>
        <time>2018-05-18T10:53:20Z</time>
      </trkpt>
      <trkpt lat="45.92408" lon="4.73189">
        <ele>171</ele>
        <time>2018-05-18T10:53:21Z</time>
      </trkpt>
      <trkpt lat="45.92408" lon="4.73197">
        <ele>171</ele>
        <time>2018-05-18T10:53:22Z</time>
      </trkpt>
      <trkpt lat="45.92408" lon="4.73204">
        <ele>171</ele>
        <time>2018-05-18T10:53:23Z</time>
      </trkpt>
      <trkpt lat="45.92408" lon="4.73211">
        <ele>171</ele>
        <time>2018-05-18T10:53:24Z</time>
      </trkpt>
      <trkpt lat="45.92408" lon="4.73218">
        <ele>171</ele>
        <time>2018-05-18T10:53:25Z</time>
      </trkpt>
      <trkpt lat="45.92409" lon="4.73226">
        <ele>171</ele>
        <time>2018-05-18T10:53:26Z</time>
      </trkpt>
      <trkpt lat="45.92411" lon="4.73238">
        <ele>171</ele>
        <time>2018-05-18T10:53:28Z</time>
      </trkpt>
      <trkpt lat="45.92412" lon="4.73245">
        <ele>171</ele>
        <time>2018-05-18T10:53:29Z</time>
      </trkpt>
      <trkpt lat="45.92412" lon="4.73253">
        <ele>171</ele>
        <time>2018-05-18T10:53:30Z</time>
      </trkpt>
      <trkpt lat="45.92412" lon="4.7326">
        <ele>171</ele>
        <time>2018-05-18T10:53:31Z</time>
      </trkpt>
      <trkpt lat="45.92413" lon="4.73268">
        <ele>171</ele>
        <time>2018-05-18T10:53:32Z</time>
      </trkpt>
      <trkpt lat="45.92413" lon="4.73276">
        <ele>171</ele>
        <time>2018-05-18T10:53:33Z</time>
      </trkpt>
      <trkpt lat="45.92414" lon="4.73284">
        <ele>171</ele>
        <time>2018-05-18T10:53:34Z</time>
      </trkpt>
      <trkpt lat="45.92414" lon="4.73292">
        <ele>171</ele>
        <time>2018-05-18T10:53:35Z</time>
      </trkpt>
      <trkpt lat="45.92414" lon="4.73298">
        <ele>171</ele>
        <time>2018-05-18T10:53:36Z</time>
      </trkpt>
      <trkpt lat="45.92414" lon="4.73305">
        <ele>171</ele>
        <time>2018-05-18T10:53:37Z</time>
      </trkpt>
      <trkpt lat="45.92415" lon="4.73312">
        <ele>171</ele>
        <time>2018-05-18T10:53:38Z</time>
      </trkpt>
      <trkpt lat="45.92416" lon="4.73318">
        <ele>171</ele>
        <time>2018-05-18T10:53:39Z</time>
      </trkpt>
      <trkpt lat="45.92416" lon="4.73326">
        <ele>171</ele>
        <time>2018-05-18T10:53:40Z</time>
      </trkpt>
      <trkpt lat="45.92416" lon="4.73334">
        <ele>171</ele>
        <time>2018-05-18T10:53:41Z</time>
      </trkpt>
      <trkpt lat="45.92417" lon="4.73341">
        <ele>171</ele>
        <time>2018-05-18T10:53:42Z</time>
      </trkpt>
      <trkpt lat="45.92417" lon="4.73349">
        <ele>171</ele>
        <time>2018-05-18T10:53:43Z</time>
      </trkpt>
      <trkpt lat="45.92419" lon="4.73357">
        <ele>171</ele>
        <time>2018-05-18T10:53:44Z</time>
      </trkpt>
      <trkpt lat="45.92421" lon="4.73364">
        <ele>172</ele>
        <time>2018-05-18T10:53:45Z</time>
      </trkpt>
      <trkpt lat="45.92423" lon="4.73372">
        <ele>172</ele>
        <time>2018-05-18T10:53:46Z</time>
      </trkpt>
      <trkpt lat="45.92424" lon="4.73379">
        <ele>172</ele>
        <time>2018-05-18T10:53:47Z</time>
      </trkpt>
      <trkpt lat="45.92425" lon="4.73388">
        <ele>172</ele>
        <time>2018-05-18T10:53:48Z</time>
      </trkpt>
      <trkpt lat="45.92427" lon="4.73396">
        <ele>172</ele>
        <time>2018-05-18T10:53:49Z</time>
      </trkpt>
      <trkpt lat="45.92429" lon="4.73403">
        <ele>172</ele>
        <time>2018-05-18T10:53:50Z</time>
      </trkpt>
      <trkpt lat="45.92434" lon="4.7341">
        <ele>172</ele>
        <time>2018-05-18T10:53:51Z</time>
      </trkpt>
      <trkpt lat="45.92438" lon="4.73414">
        <ele>172</ele>
        <time>2018-05-18T10:53:52Z</time>
      </trkpt>
      <trkpt lat="45.92443" lon="4.73417">
        <ele>173</ele>
        <time>2018-05-18T10:53:53Z</time>
      </trkpt>
      <trkpt lat="45.92447" lon="4.73419">
        <ele>173</ele>
        <time>2018-05-18T10:53:54Z</time>
      </trkpt>
      <trkpt lat="45.92452" lon="4.73423">
        <ele>173</ele>
        <time>2018-05-18T10:53:55Z</time>
      </trkpt>
      <trkpt lat="45.92456" lon="4.73427">
        <ele>173</ele>
        <time>2018-05-18T10:53:56Z</time>
      </trkpt>
      <trkpt lat="45.92459" lon="4.73433">
        <ele>173</ele>
        <time>2018-05-18T10:53:57Z</time>
      </trkpt>
      <trkpt lat="45.92463" lon="4.73439">
        <ele>173</ele>
        <time>2018-05-18T10:53:58Z</time>
      </trkpt>
      <trkpt lat="45.92465" lon="4.73447">
        <ele>173</ele>
        <time>2018-05-18T10:53:59Z</time>
      </trkpt>
      <trkpt lat="45.92466" lon="4.73455">
        <ele>173</ele>
        <time>2018-05-18T10:54:00Z</time>
      </trkpt>
      <trkpt lat="45.92468" lon="4.73463">
        <ele>173</ele>
        <time>2018-05-18T10:54:01Z</time>
      </trkpt>
      <trkpt lat="45.92468" lon="4.7347">
        <ele>173</ele>
        <time>2018-05-18T10:54:02Z</time>
      </trkpt>
      <trkpt lat="45.92468" lon="4.7348">
        <ele>173</ele>
        <time>2018-05-18T10:54:03Z</time>
      </trkpt>
      <trkpt lat="45.92468" lon="4.73487">
        <ele>173</ele>
        <time>2018-05-18T10:54:04Z</time>
      </trkpt>
      <trkpt lat="45.92469" lon="4.73494">
        <ele>173</ele>
        <time>2018-05-18T10:54:05Z</time>
      </trkpt>
      <trkpt lat="45.92469" lon="4.73501">
        <ele>174</ele>
        <time>2018-05-18T10:54:06Z</time>
      </trkpt>
      <trkpt lat="45.92469" lon="4.73509">
        <ele>174</ele>
        <time>2018-05-18T10:54:07Z</time>
      </trkpt>
      <trkpt lat="45.92469" lon="4.73515">
        <ele>174</ele>
        <time>2018-05-18T10:54:08Z</time>
      </trkpt>
      <trkpt lat="45.92469" lon="4.73522">
        <ele>174</ele>
        <time>2018-05-18T10:54:09Z</time>
      </trkpt>
      <trkpt lat="45.92468" lon="4.73529">
        <ele>174</ele>
        <time>2018-05-18T10:54:10Z</time>
      </trkpt>
      <trkpt lat="45.92468" lon="4.73535">
        <ele>174</ele>
        <time>2018-05-18T10:54:11Z</time>
      </trkpt>
      <trkpt lat="45.92468" lon="4.73548">
        <ele>173</ele>
        <time>2018-05-18T10:54:13Z</time>
      </trkpt>
      <trkpt lat="45.92468" lon="4.73555">
        <ele>173</ele>
        <time>2018-05-18T10:54:14Z</time>
      </trkpt>
      <trkpt lat="45.92469" lon="4.73564">
        <ele>173</ele>
        <time>2018-05-18T10:54:15Z</time>
      </trkpt>
      <trkpt lat="45.92469" lon="4.73572">
        <ele>173</ele>
        <time>2018-05-18T10:54:16Z</time>
      </trkpt>
      <trkpt lat="45.92469" lon="4.73581">
        <ele>173</ele>
        <time>2018-05-18T10:54:17Z</time>
      </trkpt>
      <trkpt lat="45.92469" lon="4.7359">
        <ele>174</ele>
        <time>2018-05-18T10:54:18Z</time>
      </trkpt>
      <trkpt lat="45.92469" lon="4.736">
        <ele>174</ele>
        <time>2018-05-18T10:54:19Z</time>
      </trkpt>
      <trkpt lat="45.92469" lon="4.73608">
        <ele>174</ele>
        <time>2018-05-18T10:54:20Z</time>
      </trkpt>
      <trkpt lat="45.9247" lon="4.73617">
        <ele>174</ele>
        <time>2018-05-18T10:54:21Z</time>
      </trkpt>
      <trkpt lat="45.9247" lon="4.73627">
        <ele>174</ele>
        <time>2018-05-18T10:54:22Z</time>
      </trkpt>
      <trkpt lat="45.9247" lon="4.73635">
        <ele>174</ele>
        <time>2018-05-18T10:54:23Z</time>
      </trkpt>
      <trkpt lat="45.9247" lon="4.73644">
        <ele>174</ele>
        <time>2018-05-18T10:54:24Z</time>
      </trkpt>
      <trkpt lat="45.92469" lon="4.73653">
        <ele>174</ele>
        <time>2018-05-18T10:54:25Z</time>
      </trkpt>
      <trkpt lat="45.92468" lon="4.73661">
        <ele>174</ele>
        <time>2018-05-18T10:54:26Z</time>
      </trkpt>
      <trkpt lat="45.92469" lon="4.73667">
        <ele>174</ele>
        <time>2018-05-18T10:54:27Z</time>
      </trkpt>
      <trkpt lat="45.92467" lon="4.73675">
        <ele>174</ele>
        <time>2018-05-18T10:54:28Z</time>
      </trkpt>
      <trkpt lat="45.92467" lon="4.73681">
        <ele>174</ele>
        <time>2018-05-18T10:54:29Z</time>
      </trkpt>
      <trkpt lat="45.92466" lon="4.73688">
        <ele>174</ele>
        <time>2018-05-18T10:54:30Z</time>
      </trkpt>
      <trkpt lat="45.92466" lon="4.73699">
        <ele>174</ele>
        <time>2018-05-18T10:54:32Z</time>
      </trkpt>
      <trkpt lat="45.92465" lon="4.73701">
        <ele>174</ele>
        <time>2018-05-18T10:54:33Z</time>
      </trkpt>
      <trkpt lat="45.92465" lon="4.73706">
        <ele>174</ele>
        <time>2018-05-18T10:54:38Z</time>
      </trkpt>
      <trkpt lat="45.92465" lon="4.73706">
        <ele>174</ele>
        <time>2018-05-18T10:54:39Z</time>
      </trkpt>
      <trkpt lat="45.92465" lon="4.73706">
        <ele>174</ele>
        <time>2018-05-18T10:54:40Z</time>
      </trkpt>
      <trkpt lat="45.92465" lon="4.73707">
        <ele>174</ele>
        <time>2018-05-18T10:54:41Z</time>
      </trkpt>
      <trkpt lat="45.92463" lon="4.73706">
        <ele>174</ele>
        <time>2018-05-18T10:55:20.049Z</time>
      </trkpt>
    </trkseg>
  </trk>
</gpx>